<?xml version='1.0' encoding='UTF-8'?><gpx version="1.1" creator="JPX - https://github.com/jenetics/jpx" xmlns="http://www.topografix.com/GPX/1/1"><trk><trkseg><trkpt lat="14.558075815971256" lon="120.99622349821894"><ele>9.0</ele><time>2026-04-03T23:18:10.357Z</time></trkpt><trkpt lat="14.558100852149739" lon="120.99611243651658"><ele>9.0</ele><time>2026-04-03T23:18:13.999Z</time></trkpt><trkpt lat="14.557921473636078" lon="120.99626788995872"><ele>9.0</ele><time>2026-04-03T23:18:26Z</time></trkpt><trkpt lat="14.557862125806931" lon="120.9962935675407"><ele>9.0</ele><time>2026-04-03T23:18:27Z</time></trkpt><trkpt lat="14.557756857240745" lon="120.99628785349458"><ele>9.333333333333334</ele><time>2026-04-03T23:18:28Z</time></trkpt><trkpt lat="14.557688928000532" lon="120.9962980591276"><ele>9.666666666666666</ele><time>2026-04-03T23:18:29Z</time></trkpt><trkpt lat="14.557607369300687" lon="120.9963106055518"><ele>10.0</ele><time>2026-04-03T23:18:30Z</time></trkpt><trkpt lat="14.557509655997878" lon="120.99635602522004"><ele>10.333333333333332</ele><time>2026-04-03T23:18:31Z</time></trkpt><trkpt lat="14.557441694831345" lon="120.9963822442852"><ele>10.666666666666666</ele><time>2026-04-03T23:18:32Z</time></trkpt><trkpt lat="14.557375245073995" lon="120.99641558164282"><ele>11.0</ele><time>2026-04-03T23:18:33Z</time></trkpt><trkpt lat="14.55728855659405" lon="120.99641776363603"><ele>11.0</ele><time>2026-04-03T23:18:34Z</time></trkpt><trkpt lat="14.557178518121043" lon="120.99644343523264"><ele>11.0</ele><time>2026-04-03T23:18:35Z</time></trkpt><trkpt lat="14.557054466383914" lon="120.99647237606794"><ele>11.0</ele><time>2026-04-03T23:18:36Z</time></trkpt><trkpt lat="14.556957058590191" lon="120.99650921865233"><ele>11.0</ele><time>2026-04-03T23:18:37Z</time></trkpt><trkpt lat="14.556850023128066" lon="120.99652385873118"><ele>10.4</ele><time>2026-04-03T23:18:38Z</time></trkpt><trkpt lat="14.556731388612837" lon="120.99655097124337"><ele>9.8</ele><time>2026-04-03T23:18:39Z</time></trkpt><trkpt lat="14.556620291477364" lon="120.99657699322866"><ele>9.200000000000001</ele><time>2026-04-03T23:18:40Z</time></trkpt><trkpt lat="14.556528434561736" lon="120.99657861964741"><ele>8.600000000000001</ele><time>2026-04-03T23:18:41Z</time></trkpt><trkpt lat="14.556440997884058" lon="120.99658925085878"><ele>8.0</ele><time>2026-04-03T23:18:42Z</time></trkpt><trkpt lat="14.556366154515683" lon="120.99660023671092"><ele>7.999999999999999</ele><time>2026-04-03T23:18:43Z</time></trkpt><trkpt lat="14.556284038536534" lon="120.99661067657928"><ele>8.0</ele><time>2026-04-03T23:18:44Z</time></trkpt><trkpt lat="14.556218107306458" lon="120.99661998456243"><ele>8.0</ele><time>2026-04-03T23:18:45Z</time></trkpt><trkpt lat="14.556133984646738" lon="120.99664474192167"><ele>8.0</ele><time>2026-04-03T23:18:46Z</time></trkpt><trkpt lat="14.556025770584277" lon="120.99666025218028"><ele>7.999999999999999</ele><time>2026-04-03T23:18:47Z</time></trkpt><trkpt lat="14.555959770629626" lon="120.99667250874906"><ele>8.0</ele><time>2026-04-03T23:18:48Z</time></trkpt><trkpt lat="14.555897926551749" lon="120.99668724071446"><ele>8.200000000000001</ele><time>2026-04-03T23:18:49Z</time></trkpt><trkpt lat="14.555823077177758" lon="120.99669877906086"><ele>8.4</ele><time>2026-04-03T23:18:50Z</time></trkpt><trkpt lat="14.55573694977569" lon="120.9967198160188"><ele>8.600000000000001</ele><time>2026-04-03T23:18:51Z</time></trkpt><trkpt lat="14.555645077340293" lon="120.9967437845128"><ele>8.8</ele><time>2026-04-03T23:18:52Z</time></trkpt><trkpt lat="14.555547045202967" lon="120.99676760572463"><ele>9.0</ele><time>2026-04-03T23:18:53Z</time></trkpt><trkpt lat="14.55545608514647" lon="120.99678354737888"><ele>9.0</ele><time>2026-04-03T23:18:54Z</time></trkpt><trkpt lat="14.55534525506975" lon="120.99680640428832"><ele>9.0</ele><time>2026-04-03T23:18:55Z</time></trkpt><trkpt lat="14.555252174922847" lon="120.99682718507495"><ele>9.0</ele><time>2026-04-03T23:18:56Z</time></trkpt><trkpt lat="14.555167047632127" lon="120.99685015916634"><ele>9.0</ele><time>2026-04-03T23:18:57Z</time></trkpt><trkpt lat="14.555090743080628" lon="120.99687118208018"><ele>9.0</ele><time>2026-04-03T23:18:58Z</time></trkpt><trkpt lat="14.555010080015052" lon="120.99688627057367"><ele>9.0</ele><time>2026-04-03T23:18:59Z</time></trkpt><trkpt lat="14.554898944443858" lon="120.99692794023927"><ele>9.0</ele><time>2026-04-03T23:19:01Z</time></trkpt><trkpt lat="14.554835834136505" lon="120.99694135901844"><ele>9.0</ele><time>2026-04-03T23:19:02Z</time></trkpt><trkpt lat="14.554707054004515" lon="120.99697379119101"><ele>9.0</ele><time>2026-04-03T23:19:04Z</time></trkpt><trkpt lat="14.554641506744094" lon="120.99698317776686"><ele>9.0</ele><time>2026-04-03T23:19:05Z</time></trkpt><trkpt lat="14.554522885343221" lon="120.99701822916074"><ele>8.4</ele><time>2026-04-03T23:19:07Z</time></trkpt><trkpt lat="14.554429453851075" lon="120.99702475520907"><ele>7.800000000000001</ele><time>2026-04-03T23:19:09Z</time></trkpt><trkpt lat="14.554317988716452" lon="120.9970380963821"><ele>7.199999999999999</ele><time>2026-04-03T23:19:11Z</time></trkpt><trkpt lat="14.554219430099938" lon="120.9970460009374"><ele>6.6</ele><time>2026-04-03T23:19:13Z</time></trkpt><trkpt lat="14.554150475290294" lon="120.99704395693796"><ele>6.0</ele><time>2026-04-03T23:19:15.001Z</time></trkpt><trkpt lat="14.554072417581486" lon="120.99681163715152"><ele>6.0</ele><time>2026-04-03T23:19:16.001Z</time></trkpt><trkpt lat="14.554035884565018" lon="120.9967295663669"><ele>6.0</ele><time>2026-04-03T23:19:17.001Z</time></trkpt><trkpt lat="14.554010381081163" lon="120.99662218348709"><ele>6.0</ele><time>2026-04-03T23:19:18.001Z</time></trkpt><trkpt lat="14.553992955698167" lon="120.99651111780268"><ele>6.0</ele><time>2026-04-03T23:19:19.001Z</time></trkpt><trkpt lat="14.55395124152352" lon="120.99642353857277"><ele>6.0</ele><time>2026-04-03T23:19:20.001Z</time></trkpt><trkpt lat="14.553921569102558" lon="120.99631483420244"><ele>6.75</ele><time>2026-04-03T23:19:21.001Z</time></trkpt><trkpt lat="14.553892759667537" lon="120.9962040468061"><ele>7.5</ele><time>2026-04-03T23:19:22.001Z</time></trkpt><trkpt lat="14.553871366536605" lon="120.9960829280748"><ele>8.25</ele><time>2026-04-03T23:19:23.001Z</time></trkpt><trkpt lat="14.553851509015532" lon="120.99595369233585"><ele>9.0</ele><time>2026-04-03T23:19:24.001Z</time></trkpt><trkpt lat="14.553829946729683" lon="120.99582283274155"><ele>9.25</ele><time>2026-04-03T23:19:25.001Z</time></trkpt><trkpt lat="14.553805629223133" lon="120.99569478258105"><ele>9.5</ele><time>2026-04-03T23:19:26.001Z</time></trkpt><trkpt lat="14.553776481478797" lon="120.99557143552724"><ele>9.75</ele><time>2026-04-03T23:19:27.001Z</time></trkpt><trkpt lat="14.553747331376877" lon="120.9954413706814"><ele>10.0</ele><time>2026-04-03T23:19:28.001Z</time></trkpt><trkpt lat="14.553725681748125" lon="120.9953120791992"><ele>10.75</ele><time>2026-04-03T23:19:29.001Z</time></trkpt><trkpt lat="14.553699345777082" lon="120.99518573827882"><ele>11.5</ele><time>2026-04-03T23:19:30.001Z</time></trkpt><trkpt lat="14.553675048769167" lon="120.99506716205427"><ele>12.25</ele><time>2026-04-03T23:19:31.001Z</time></trkpt><trkpt lat="14.553661020911822" lon="120.99492845316561"><ele>13.0</ele><time>2026-04-03T23:19:32.001Z</time></trkpt><trkpt lat="14.553649635426178" lon="120.9948050306147"><ele>11.8</ele><time>2026-04-03T23:19:33.001Z</time></trkpt><trkpt lat="14.55363468379554" lon="120.9946881391068"><ele>10.600000000000001</ele><time>2026-04-03T23:19:34.001Z</time></trkpt><trkpt lat="14.553627977288924" lon="120.9945846017084"><ele>9.399999999999999</ele><time>2026-04-03T23:19:35.001Z</time></trkpt><trkpt lat="14.553618527667625" lon="120.99448768924023"><ele>8.2</ele><time>2026-04-03T23:19:36.001Z</time></trkpt><trkpt lat="14.553592957613915" lon="120.99439740805212"><ele>7.0</ele><time>2026-04-03T23:19:37.001Z</time></trkpt><trkpt lat="14.553586616087632" lon="120.99430880210532"><ele>7.0</ele><time>2026-04-03T23:19:38.001Z</time></trkpt><trkpt lat="14.553560797877342" lon="120.99419536756498"><ele>6.999999999999999</ele><time>2026-04-03T23:19:40.001Z</time></trkpt><trkpt lat="14.553461071470242" lon="120.99416778121287"><ele>6.999999999999999</ele><time>2026-04-03T23:19:44.001Z</time></trkpt><trkpt lat="14.553387496975434" lon="120.99427566101323"><ele>7.0</ele><time>2026-04-03T23:19:46.001Z</time></trkpt><trkpt lat="14.553396764044674" lon="120.99436509366836"><ele>7.0</ele><time>2026-04-03T23:19:47.001Z</time></trkpt><trkpt lat="14.553407292886089" lon="120.99445090371468"><ele>7.0</ele><time>2026-04-03T23:19:48.001Z</time></trkpt><trkpt lat="14.553417975067864" lon="120.9945430256124"><ele>6.999999999999999</ele><time>2026-04-03T23:19:49.001Z</time></trkpt><trkpt lat="14.553429241464766" lon="120.99464702152387"><ele>6.999999999999999</ele><time>2026-04-03T23:19:50.001Z</time></trkpt><trkpt lat="14.553440887686447" lon="120.99475611004033"><ele>7.0</ele><time>2026-04-03T23:19:51.001Z</time></trkpt><trkpt lat="14.55345792648773" lon="120.9948742180002"><ele>7.0</ele><time>2026-04-03T23:19:52.001Z</time></trkpt><trkpt lat="14.553475352726142" lon="120.99499403711968"><ele>8.5</ele><time>2026-04-03T23:19:53.001Z</time></trkpt><trkpt lat="14.553493620385504" lon="120.99511964163923"><ele>10.0</ele><time>2026-04-03T23:19:54.001Z</time></trkpt><trkpt lat="14.553511168169374" lon="120.99524084442047"><ele>11.5</ele><time>2026-04-03T23:19:55.001Z</time></trkpt><trkpt lat="14.55353954430711" lon="120.99537031116327"><ele>13.0</ele><time>2026-04-03T23:19:56.001Z</time></trkpt><trkpt lat="14.553567072576142" lon="120.99549892183951"><ele>13.0</ele><time>2026-04-03T23:19:57.001Z</time></trkpt><trkpt lat="14.553595209219734" lon="120.99562168505756"><ele>13.0</ele><time>2026-04-03T23:19:58.001Z</time></trkpt><trkpt lat="14.55363929247673" lon="120.99574334233192"><ele>13.0</ele><time>2026-04-03T23:19:59.001Z</time></trkpt><trkpt lat="14.55366943405827" lon="120.99587399098895"><ele>13.0</ele><time>2026-04-03T23:20:00.001Z</time></trkpt><trkpt lat="14.553689543381633" lon="120.99599554134882"><ele>12.333333333333332</ele><time>2026-04-03T23:20:01.001Z</time></trkpt><trkpt lat="14.553714683770067" lon="120.99610887371965"><ele>11.666666666666666</ele><time>2026-04-03T23:20:02.001Z</time></trkpt><trkpt lat="14.553734472323459" lon="120.99621355556575"><ele>11.0</ele><time>2026-04-03T23:20:03.001Z</time></trkpt><trkpt lat="14.553757465526845" lon="120.99630147318548"><ele>10.333333333333332</ele><time>2026-04-03T23:20:04.001Z</time></trkpt><trkpt lat="14.553779798616016" lon="120.9963743172335"><ele>9.666666666666666</ele><time>2026-04-03T23:20:05.001Z</time></trkpt><trkpt lat="14.553791825083957" lon="120.99644384095585"><ele>9.0</ele><time>2026-04-03T23:20:06.001Z</time></trkpt><trkpt lat="14.55382418661517" lon="120.99652718644846"><ele>9.0</ele><time>2026-04-03T23:20:07.001Z</time></trkpt><trkpt lat="14.553828277764705" lon="120.99661254500938"><ele>9.0</ele><time>2026-04-03T23:20:08.001Z</time></trkpt><trkpt lat="14.55384984083865" lon="120.99669318590452"><ele>9.0</ele><time>2026-04-03T23:20:09.001Z</time></trkpt><trkpt lat="14.553862586323477" lon="120.99677901906983"><ele>9.0</ele><time>2026-04-03T23:20:10.001Z</time></trkpt><trkpt lat="14.553896903620485" lon="120.99686829521026"><ele>9.0</ele><time>2026-04-03T23:20:11.001Z</time></trkpt><trkpt lat="14.553909749144346" lon="120.99695319073331"><ele>9.0</ele><time>2026-04-03T23:20:12.001Z</time></trkpt><trkpt lat="14.553930660656018" lon="120.99704073318001"><ele>8.6</ele><time>2026-04-03T23:20:13.001Z</time></trkpt><trkpt lat="14.553952986275817" lon="120.99713283737286"><ele>8.2</ele><time>2026-04-03T23:20:14.001Z</time></trkpt><trkpt lat="14.553974622332554" lon="120.99721616644995"><ele>7.799999999999999</ele><time>2026-04-03T23:20:15.001Z</time></trkpt><trkpt lat="14.553983837875027" lon="120.99731563328113"><ele>7.3999999999999995</ele><time>2026-04-03T23:20:16.001Z</time></trkpt><trkpt lat="14.554013400088444" lon="120.99741021652808"><ele>7.0</ele><time>2026-04-03T23:20:17.001Z</time></trkpt><trkpt lat="14.554053538145212" lon="120.99751768911253"><ele>7.0</ele><time>2026-04-03T23:20:18.001Z</time></trkpt><trkpt lat="14.554085539491902" lon="120.99761471047509"><ele>6.999999999999999</ele><time>2026-04-03T23:20:19.001Z</time></trkpt><trkpt lat="14.55411012444229" lon="120.997721107228"><ele>6.999999999999999</ele><time>2026-04-03T23:20:20.001Z</time></trkpt><trkpt lat="14.554142167091491" lon="120.99783234438057"><ele>7.0</ele><time>2026-04-03T23:20:21.001Z</time></trkpt><trkpt lat="14.554168166270836" lon="120.99795042705433"><ele>7.0</ele><time>2026-04-03T23:20:22.001Z</time></trkpt><trkpt lat="14.55419412318296" lon="120.99807220172687"><ele>7.0</ele><time>2026-04-03T23:20:23.001Z</time></trkpt><trkpt lat="14.5542271117302" lon="120.99819361773966"><ele>7.0</ele><time>2026-04-03T23:20:24.001Z</time></trkpt><trkpt lat="14.55425739289908" lon="120.99832078599628"><ele>7.0</ele><time>2026-04-03T23:20:25.001Z</time></trkpt><trkpt lat="14.554283898945474" lon="120.99844819571027"><ele>7.0</ele><time>2026-04-03T23:20:26.001Z</time></trkpt><trkpt lat="14.554318355475194" lon="120.99857627644845"><ele>7.0</ele><time>2026-04-03T23:20:27.001Z</time></trkpt><trkpt lat="14.554353180081737" lon="120.99870598165823"><ele>7.0</ele><time>2026-04-03T23:20:28.001Z</time></trkpt><trkpt lat="14.554382857712092" lon="120.99883389641445"><ele>7.0</ele><time>2026-04-03T23:20:29.001Z</time></trkpt><trkpt lat="14.554414354341274" lon="120.99895006505629"><ele>7.0</ele><time>2026-04-03T23:20:30.001Z</time></trkpt><trkpt lat="14.554452148073953" lon="120.99906088154967"><ele>7.0</ele><time>2026-04-03T23:20:31.001Z</time></trkpt><trkpt lat="14.55447322086224" lon="120.99918473040648"><ele>7.0</ele><time>2026-04-03T23:20:32.001Z</time></trkpt><trkpt lat="14.55450501146665" lon="120.99930363249787"><ele>7.0</ele><time>2026-04-03T23:20:33.001Z</time></trkpt><trkpt lat="14.55453438412307" lon="120.99943102833461"><ele>7.0</ele><time>2026-04-03T23:20:34.001Z</time></trkpt><trkpt lat="14.554564353158304" lon="120.99955932622147"><ele>7.0</ele><time>2026-04-03T23:20:35.001Z</time></trkpt><trkpt lat="14.55459566281307" lon="120.99969075338237"><ele>7.0</ele><time>2026-04-03T23:20:36.001Z</time></trkpt><trkpt lat="14.554632785247158" lon="120.99982551054083"><ele>7.0</ele><time>2026-04-03T23:20:37.001Z</time></trkpt><trkpt lat="14.55467334562097" lon="120.99995168574644"><ele>7.0</ele><time>2026-04-03T23:20:38.001Z</time></trkpt><trkpt lat="14.55470833571931" lon="121.00007190848535"><ele>7.0</ele><time>2026-04-03T23:20:39.001Z</time></trkpt><trkpt lat="14.55473221620718" lon="121.00019799588352"><ele>7.0</ele><time>2026-04-03T23:20:40.001Z</time></trkpt><trkpt lat="14.554752218223932" lon="121.00031790661649"><ele>7.0</ele><time>2026-04-03T23:20:41.001Z</time></trkpt><trkpt lat="14.554829123612938" lon="121.0004187911572"><ele>7.0</ele><time>2026-04-03T23:20:42.001Z</time></trkpt><trkpt lat="14.554876110867172" lon="121.00052948712661"><ele>7.0</ele><time>2026-04-03T23:20:43.001Z</time></trkpt><trkpt lat="14.554927528918324" lon="121.0006339414988"><ele>7.0</ele><time>2026-04-03T23:20:44.001Z</time></trkpt><trkpt lat="14.554980917393472" lon="121.00073622547109"><ele>7.0</ele><time>2026-04-03T23:20:45Z</time></trkpt><trkpt lat="14.555028823948774" lon="121.00084848136558"><ele>7.0</ele><time>2026-04-03T23:20:46Z</time></trkpt><trkpt lat="14.555087788618195" lon="121.0009597579396"><ele>7.25</ele><time>2026-04-03T23:20:47Z</time></trkpt><trkpt lat="14.555146496233093" lon="121.00107842457074"><ele>7.5</ele><time>2026-04-03T23:20:48Z</time></trkpt><trkpt lat="14.555191446664592" lon="121.00119965782628"><ele>7.75</ele><time>2026-04-03T23:20:49Z</time></trkpt><trkpt lat="14.555219274500034" lon="121.00132804219457"><ele>8.0</ele><time>2026-04-03T23:20:50Z</time></trkpt><trkpt lat="14.555232599215474" lon="121.00145540556231"><ele>8.0</ele><time>2026-04-03T23:20:51Z</time></trkpt><trkpt lat="14.555236188152197" lon="121.00157492864517"><ele>8.0</ele><time>2026-04-03T23:20:52Z</time></trkpt><trkpt lat="14.555286816358793" lon="121.0016818389633"><ele>8.0</ele><time>2026-04-03T23:20:53Z</time></trkpt><trkpt lat="14.555304871768218" lon="121.0017676167058"><ele>8.0</ele><time>2026-04-03T23:20:54Z</time></trkpt><trkpt lat="14.555320440390918" lon="121.00184055028055"><ele>8.0</ele><time>2026-04-03T23:20:55Z</time></trkpt><trkpt lat="14.55534811684989" lon="121.00195096902475"><ele>7.999999999999999</ele><time>2026-04-03T23:20:57Z</time></trkpt><trkpt lat="14.555366813508856" lon="121.00201351941077"><ele>8.0</ele><time>2026-04-03T23:20:58.001Z</time></trkpt><trkpt lat="14.555384420727924" lon="121.00208242342612"><ele>8.0</ele><time>2026-04-03T23:20:59.001Z</time></trkpt><trkpt lat="14.555407857728321" lon="121.00217257728438"><ele>8.0</ele><time>2026-04-03T23:21:00.001Z</time></trkpt><trkpt lat="14.555436980453091" lon="121.00227269097714"><ele>7.999999999999999</ele><time>2026-04-03T23:21:01.001Z</time></trkpt><trkpt lat="14.555479391503756" lon="121.00238776141813"><ele>8.0</ele><time>2026-04-03T23:21:02.001Z</time></trkpt><trkpt lat="14.555524663266104" lon="121.00251044976339"><ele>7.75</ele><time>2026-04-03T23:21:03.001Z</time></trkpt><trkpt lat="14.555570104683254" lon="121.00264223926419"><ele>7.5</ele><time>2026-04-03T23:21:04.001Z</time></trkpt><trkpt lat="14.555620143466326" lon="121.00277731042071"><ele>7.25</ele><time>2026-04-03T23:21:05.001Z</time></trkpt><trkpt lat="14.555671140037287" lon="121.00292139235899"><ele>7.0</ele><time>2026-04-03T23:21:06.001Z</time></trkpt><trkpt lat="14.555721540746907" lon="121.00306612476979"><ele>7.0</ele><time>2026-04-03T23:21:07.001Z</time></trkpt><trkpt lat="14.55577067560507" lon="121.0032149348261"><ele>7.0</ele><time>2026-04-03T23:21:08.001Z</time></trkpt><trkpt lat="14.555818918712657" lon="121.00335539985078"><ele>7.0</ele><time>2026-04-03T23:21:09.001Z</time></trkpt><trkpt lat="14.555865723270331" lon="121.0034797197127"><ele>7.0</ele><time>2026-04-03T23:21:10.001Z</time></trkpt><trkpt lat="14.555906481937463" lon="121.00359869551595"><ele>7.0</ele><time>2026-04-03T23:21:11.001Z</time></trkpt><trkpt lat="14.55595764349545" lon="121.00372097153326"><ele>7.0</ele><time>2026-04-03T23:21:12.001Z</time></trkpt><trkpt lat="14.556007818946497" lon="121.0038482908087"><ele>7.0</ele><time>2026-04-03T23:21:13.001Z</time></trkpt><trkpt lat="14.55606153085387" lon="121.00397820420918"><ele>7.0</ele><time>2026-04-03T23:21:14.001Z</time></trkpt><trkpt lat="14.556112003397805" lon="121.00410758163522"><ele>7.25</ele><time>2026-04-03T23:21:15.001Z</time></trkpt><trkpt lat="14.556166073298195" lon="121.00424337501468"><ele>7.5</ele><time>2026-04-03T23:21:16.001Z</time></trkpt><trkpt lat="14.556224216667944" lon="121.00438278250935"><ele>7.75</ele><time>2026-04-03T23:21:17.001Z</time></trkpt><trkpt lat="14.556283650003826" lon="121.00452073447663"><ele>8.0</ele><time>2026-04-03T23:21:18.001Z</time></trkpt><trkpt lat="14.556348184473803" lon="121.0046629704244"><ele>8.5</ele><time>2026-04-03T23:21:19.001Z</time></trkpt><trkpt lat="14.556412757723892" lon="121.00480117270372"><ele>9.0</ele><time>2026-04-03T23:21:20.001Z</time></trkpt><trkpt lat="14.55647570732176" lon="121.00492963350398"><ele>9.5</ele><time>2026-04-03T23:21:21.001Z</time></trkpt><trkpt lat="14.556532447309868" lon="121.00504798861078"><ele>10.0</ele><time>2026-04-03T23:21:22.001Z</time></trkpt><trkpt lat="14.556585091315487" lon="121.00515521502578"><ele>10.2</ele><time>2026-04-03T23:21:23.001Z</time></trkpt><trkpt lat="14.556637109715805" lon="121.00525801350432"><ele>10.4</ele><time>2026-04-03T23:21:24.001Z</time></trkpt><trkpt lat="14.556684957104721" lon="121.00535436756137"><ele>10.600000000000001</ele><time>2026-04-03T23:21:25.001Z</time></trkpt><trkpt lat="14.556719428330744" lon="121.00543336675325"><ele>10.8</ele><time>2026-04-03T23:21:26.001Z</time></trkpt><trkpt lat="14.556745487447538" lon="121.00549536993186"><ele>11.0</ele><time>2026-04-03T23:21:27.001Z</time></trkpt><trkpt lat="14.556776014279903" lon="121.00557607074889"><ele>11.0</ele><time>2026-04-03T23:21:29.001Z</time></trkpt><trkpt lat="14.556836196347211" lon="121.00567004317494"><ele>11.0</ele><time>2026-04-03T23:21:50.001Z</time></trkpt><trkpt lat="14.556904709197791" lon="121.00580125139876"><ele>11.0</ele><time>2026-04-03T23:21:52.001Z</time></trkpt><trkpt lat="14.55695234249904" lon="121.00589305675811"><ele>11.0</ele><time>2026-04-03T23:21:53.001Z</time></trkpt><trkpt lat="14.557003893576155" lon="121.00599133018427"><ele>10.0</ele><time>2026-04-03T23:21:54.001Z</time></trkpt><trkpt lat="14.557061442459107" lon="121.00610049982018"><ele>9.0</ele><time>2026-04-03T23:21:55.001Z</time></trkpt><trkpt lat="14.557128260012508" lon="121.00621411615995"><ele>8.0</ele><time>2026-04-03T23:21:56.001Z</time></trkpt><trkpt lat="14.5571855259171" lon="121.00634049035986"><ele>7.0</ele><time>2026-04-03T23:21:57.001Z</time></trkpt><trkpt lat="14.557251625548332" lon="121.0064659781018"><ele>7.0</ele><time>2026-04-03T23:21:58.001Z</time></trkpt><trkpt lat="14.557310719826729" lon="121.00658986582756"><ele>7.0</ele><time>2026-04-03T23:21:59.001Z</time></trkpt><trkpt lat="14.557371735127887" lon="121.00670728234212"><ele>7.0</ele><time>2026-04-03T23:22:00.001Z</time></trkpt><trkpt lat="14.557421632579974" lon="121.00681960905403"><ele>7.0</ele><time>2026-04-03T23:22:01.001Z</time></trkpt><trkpt lat="14.55747420833431" lon="121.0069218467741"><ele>7.199999999999999</ele><time>2026-04-03T23:22:02.001Z</time></trkpt><trkpt lat="14.557524924238795" lon="121.00702669779213"><ele>7.3999999999999995</ele><time>2026-04-03T23:22:03.001Z</time></trkpt><trkpt lat="14.557560251589384" lon="121.0071169259246"><ele>7.6000000000000005</ele><time>2026-04-03T23:22:04.001Z</time></trkpt><trkpt lat="14.557588692015818" lon="121.00719807379085"><ele>7.800000000000001</ele><time>2026-04-03T23:22:05.001Z</time></trkpt><trkpt lat="14.557607974564286" lon="121.00726062312914"><ele>8.0</ele><time>2026-04-03T23:22:06.001Z</time></trkpt><trkpt lat="14.557606254898232" lon="121.00736959712697"><ele>8.0</ele><time>2026-04-03T23:22:08.001Z</time></trkpt><trkpt lat="14.557496003193357" lon="121.00747017043456"><ele>8.0</ele><time>2026-04-03T23:22:10.001Z</time></trkpt><trkpt lat="14.557409091585075" lon="121.00752594191597"><ele>8.0</ele><time>2026-04-03T23:22:12.001Z</time></trkpt><trkpt lat="14.557344864061623" lon="121.00756525096743"><ele>8.0</ele><time>2026-04-03T23:22:15.001Z</time></trkpt><trkpt lat="14.557267660044628" lon="121.00760243613965"><ele>8.0</ele><time>2026-04-03T23:22:33.001Z</time></trkpt><trkpt lat="14.557172447965767" lon="121.00764540830585"><ele>7.833333333333333</ele><time>2026-04-03T23:22:35.001Z</time></trkpt><trkpt lat="14.557115872982939" lon="121.00769055315945"><ele>7.666666666666666</ele><time>2026-04-03T23:22:36.001Z</time></trkpt><trkpt lat="14.557060976445749" lon="121.00773335392172"><ele>7.5</ele><time>2026-04-03T23:22:37.001Z</time></trkpt><trkpt lat="14.556996974790266" lon="121.00776497762924"><ele>7.333333333333334</ele><time>2026-04-03T23:22:38.001Z</time></trkpt><trkpt lat="14.556929779614219" lon="121.00783279526053"><ele>7.166666666666667</ele><time>2026-04-03T23:22:39.001Z</time></trkpt><trkpt lat="14.556850838595468" lon="121.00788663771755"><ele>7.0</ele><time>2026-04-03T23:22:40.001Z</time></trkpt><trkpt lat="14.556761142067167" lon="121.007933101075"><ele>6.6</ele><time>2026-04-03T23:22:41.001Z</time></trkpt><trkpt lat="14.556670674080094" lon="121.00798287968459"><ele>6.199999999999999</ele><time>2026-04-03T23:22:42.001Z</time></trkpt><trkpt lat="14.556562467457402" lon="121.00799692522114"><ele>5.8</ele><time>2026-04-03T23:22:43.001Z</time></trkpt><trkpt lat="14.556471338808565" lon="121.00804647354269"><ele>5.4</ele><time>2026-04-03T23:22:44.001Z</time></trkpt><trkpt lat="14.556380501276193" lon="121.00809874973332"><ele>5.0</ele><time>2026-04-03T23:22:45.001Z</time></trkpt><trkpt lat="14.556291301695946" lon="121.0081664266448"><ele>5.4</ele><time>2026-04-03T23:22:46.001Z</time></trkpt><trkpt lat="14.55619534873567" lon="121.00820948691002"><ele>5.8</ele><time>2026-04-03T23:22:47.001Z</time></trkpt><trkpt lat="14.556098328849016" lon="121.00826458927936"><ele>6.199999999999999</ele><time>2026-04-03T23:22:48.001Z</time></trkpt><trkpt lat="14.555998288720348" lon="121.0083118022128"><ele>6.6</ele><time>2026-04-03T23:22:49.001Z</time></trkpt><trkpt lat="14.555897595994757" lon="121.00836262904431"><ele>7.0</ele><time>2026-04-03T23:22:50Z</time></trkpt><trkpt lat="14.555800685621914" lon="121.00841947293658"><ele>7.25</ele><time>2026-04-03T23:22:51Z</time></trkpt><trkpt lat="14.55569732511681" lon="121.00847607611053"><ele>7.5</ele><time>2026-04-03T23:22:52Z</time></trkpt><trkpt lat="14.555597961247237" lon="121.00852886270384"><ele>7.75</ele><time>2026-04-03T23:22:53Z</time></trkpt><trkpt lat="14.555497067257587" lon="121.00858115584742"><ele>8.0</ele><time>2026-04-03T23:22:54Z</time></trkpt><trkpt lat="14.555396383263517" lon="121.00863514424304"><ele>7.25</ele><time>2026-04-03T23:22:55Z</time></trkpt><trkpt lat="14.555292695745425" lon="121.00869127845831"><ele>6.5</ele><time>2026-04-03T23:22:56Z</time></trkpt><trkpt lat="14.555191548124743" lon="121.00875617948725"><ele>5.75</ele><time>2026-04-03T23:22:57Z</time></trkpt><trkpt lat="14.555073136822418" lon="121.00880095294184"><ele>5.0</ele><time>2026-04-03T23:22:58Z</time></trkpt><trkpt lat="14.554945852495333" lon="121.00886945206445"><ele>5.0</ele><time>2026-04-03T23:22:59Z</time></trkpt><trkpt lat="14.55481100073215" lon="121.00894191088436"><ele>5.0</ele><time>2026-04-03T23:23:00Z</time></trkpt><trkpt lat="14.554660019723249" lon="121.00902275709785"><ele>5.0</ele><time>2026-04-03T23:23:01Z</time></trkpt><trkpt lat="14.554504986451292" lon="121.009105847027"><ele>5.5</ele><time>2026-04-03T23:23:02Z</time></trkpt><trkpt lat="14.55439270870715" lon="121.00921472736744"><ele>6.0</ele><time>2026-04-03T23:23:03Z</time></trkpt><trkpt lat="14.554269224802711" lon="121.00927366312283"><ele>6.5</ele><time>2026-04-03T23:23:04Z</time></trkpt><trkpt lat="14.554137940084194" lon="121.00934639156273"><ele>7.0</ele><time>2026-04-03T23:23:05Z</time></trkpt><trkpt lat="14.553994946968299" lon="121.00942951422631"><ele>7.0</ele><time>2026-04-03T23:23:06Z</time></trkpt><trkpt lat="14.553844292072757" lon="121.0095096207189"><ele>7.0</ele><time>2026-04-03T23:23:07Z</time></trkpt><trkpt lat="14.553707244171157" lon="121.00959294276241"><ele>7.0</ele><time>2026-04-03T23:23:08Z</time></trkpt><trkpt lat="14.553571601503227" lon="121.00967150659952"><ele>7.0</ele><time>2026-04-03T23:23:09Z</time></trkpt><trkpt lat="14.55344998249364" lon="121.00974754526595"><ele>7.0</ele><time>2026-04-03T23:23:10Z</time></trkpt><trkpt lat="14.553332302073082" lon="121.00982050412708"><ele>7.0</ele><time>2026-04-03T23:23:11Z</time></trkpt><trkpt lat="14.553170691158655" lon="121.00990195204102"><ele>7.0</ele><time>2026-04-03T23:23:12Z</time></trkpt><trkpt lat="14.55302425835679" lon="121.00998487281116"><ele>7.0</ele><time>2026-04-03T23:23:13Z</time></trkpt><trkpt lat="14.552886214383337" lon="121.01005783820531"><ele>7.0</ele><time>2026-04-03T23:23:14Z</time></trkpt><trkpt lat="14.552746294335849" lon="121.01012572701484"><ele>7.0</ele><time>2026-04-03T23:23:15Z</time></trkpt><trkpt lat="14.552621190944437" lon="121.01019444853976"><ele>7.0</ele><time>2026-04-03T23:23:16Z</time></trkpt><trkpt lat="14.552491728101923" lon="121.01026064068314"><ele>7.0</ele><time>2026-04-03T23:23:17Z</time></trkpt><trkpt lat="14.552379167563087" lon="121.01031609445299"><ele>7.0</ele><time>2026-04-03T23:23:18Z</time></trkpt><trkpt lat="14.55227080628774" lon="121.0103677359898"><ele>7.0</ele><time>2026-04-03T23:23:19Z</time></trkpt><trkpt lat="14.552149798055726" lon="121.01042236431671"><ele>6.999999999999999</ele><time>2026-04-03T23:23:20Z</time></trkpt><trkpt lat="14.552040662301712" lon="121.01048070808226"><ele>6.999999999999999</ele><time>2026-04-03T23:23:21Z</time></trkpt><trkpt lat="14.551966237022933" lon="121.01051580805908"><ele>7.0</ele><time>2026-04-03T23:23:22Z</time></trkpt><trkpt lat="14.551891607735138" lon="121.01054502326555"><ele>7.0</ele><time>2026-04-03T23:23:23Z</time></trkpt><trkpt lat="14.551815646208068" lon="121.01058321025074"><ele>7.166666666666667</ele><time>2026-04-03T23:23:24Z</time></trkpt><trkpt lat="14.551734824972831" lon="121.01062416863958"><ele>7.333333333333334</ele><time>2026-04-03T23:23:25Z</time></trkpt><trkpt lat="14.55163901135597" lon="121.01066160244922"><ele>7.5</ele><time>2026-04-03T23:23:27Z</time></trkpt><trkpt lat="14.551542894222079" lon="121.01070510648901"><ele>7.666666666666666</ele><time>2026-04-03T23:23:29Z</time></trkpt><trkpt lat="14.551464207233453" lon="121.01072814409679"><ele>7.833333333333333</ele><time>2026-04-03T23:23:32Z</time></trkpt><trkpt lat="14.551399988797874" lon="121.0107567367509"><ele>8.0</ele><time>2026-04-03T23:23:37Z</time></trkpt><trkpt lat="14.551328416311483" lon="121.01080419537773"><ele>8.200000000000001</ele><time>2026-04-03T23:24:09.001Z</time></trkpt><trkpt lat="14.551256885780735" lon="121.0108295433226"><ele>8.4</ele><time>2026-04-03T23:24:10.001Z</time></trkpt><trkpt lat="14.551174510327272" lon="121.01086866285276"><ele>8.600000000000001</ele><time>2026-04-03T23:24:11.001Z</time></trkpt><trkpt lat="14.551072184948161" lon="121.01092542692331"><ele>8.8</ele><time>2026-04-03T23:24:12.001Z</time></trkpt><trkpt lat="14.550956072520057" lon="121.01100211683156"><ele>9.0</ele><time>2026-04-03T23:24:13.001Z</time></trkpt><trkpt lat="14.550819002468067" lon="121.01107564685229"><ele>9.0</ele><time>2026-04-03T23:24:14.001Z</time></trkpt><trkpt lat="14.550655288703974" lon="121.01114797496773"><ele>9.0</ele><time>2026-04-03T23:24:15.001Z</time></trkpt><trkpt lat="14.550482821702882" lon="121.01123105306482"><ele>9.0</ele><time>2026-04-03T23:24:16.001Z</time></trkpt><trkpt lat="14.550380698741286" lon="121.01130554675868"><ele>8.666666666666666</ele><time>2026-04-03T23:24:17.001Z</time></trkpt><trkpt lat="14.550251021598545" lon="121.01136804096322"><ele>8.333333333333332</ele><time>2026-04-03T23:24:18.001Z</time></trkpt><trkpt lat="14.550127562239927" lon="121.0114392979585"><ele>8.0</ele><time>2026-04-03T23:24:19.001Z</time></trkpt><trkpt lat="14.54996196915687" lon="121.01151871985805"><ele>8.0</ele><time>2026-04-03T23:24:20.001Z</time></trkpt><trkpt lat="14.549803465481473" lon="121.01160275558927"><ele>8.0</ele><time>2026-04-03T23:24:21.001Z</time></trkpt><trkpt lat="14.549636678291309" lon="121.01169506713008"><ele>8.0</ele><time>2026-04-03T23:24:22.001Z</time></trkpt><trkpt lat="14.549464952648075" lon="121.0117868301423"><ele>8.666666666666666</ele><time>2026-04-03T23:24:23.001Z</time></trkpt><trkpt lat="14.549293946560676" lon="121.01187029476283"><ele>9.333333333333334</ele><time>2026-04-03T23:24:24.001Z</time></trkpt><trkpt lat="14.54914110317883" lon="121.0119431825969"><ele>10.0</ele><time>2026-04-03T23:24:25.001Z</time></trkpt><trkpt lat="14.548968987486765" lon="121.01205992023262"><ele>10.0</ele><time>2026-04-03T23:24:26.001Z</time></trkpt><trkpt lat="14.548793757328548" lon="121.0121582209678"><ele>10.0</ele><time>2026-04-03T23:24:27.001Z</time></trkpt><trkpt lat="14.548620538454637" lon="121.01226147963492"><ele>10.0</ele><time>2026-04-03T23:24:28.001Z</time></trkpt><trkpt lat="14.548437031198647" lon="121.01236237079459"><ele>9.333333333333334</ele><time>2026-04-03T23:24:29.001Z</time></trkpt><trkpt lat="14.54825841842682" lon="121.01246964605421"><ele>8.666666666666666</ele><time>2026-04-03T23:24:30.001Z</time></trkpt><trkpt lat="14.548084179486292" lon="121.01257217576844"><ele>8.0</ele><time>2026-04-03T23:24:31.001Z</time></trkpt><trkpt lat="14.547896342837154" lon="121.01267352124552"><ele>8.333333333333332</ele><time>2026-04-03T23:24:32.001Z</time></trkpt><trkpt lat="14.54769344587014" lon="121.01275496456041"><ele>8.666666666666666</ele><time>2026-04-03T23:24:33.001Z</time></trkpt><trkpt lat="14.547511433067625" lon="121.01284428755854"><ele>9.0</ele><time>2026-04-03T23:24:34.001Z</time></trkpt><trkpt lat="14.547337859210279" lon="121.01294693648354"><ele>9.0</ele><time>2026-04-03T23:24:35.001Z</time></trkpt><trkpt lat="14.547185228358742" lon="121.01302601856109"><ele>9.0</ele><time>2026-04-03T23:24:36.001Z</time></trkpt><trkpt lat="14.547052225614824" lon="121.01310341277404"><ele>9.0</ele><time>2026-04-03T23:24:37.001Z</time></trkpt><trkpt lat="14.54691240143933" lon="121.0131622448455"><ele>9.75</ele><time>2026-04-03T23:24:38.001Z</time></trkpt><trkpt lat="14.546790673908081" lon="121.0132208036258"><ele>10.5</ele><time>2026-04-03T23:24:39.001Z</time></trkpt><trkpt lat="14.546672488523638" lon="121.01327059130291"><ele>11.25</ele><time>2026-04-03T23:24:40.001Z</time></trkpt><trkpt lat="14.546562399163214" lon="121.0133124936778"><ele>12.0</ele><time>2026-04-03T23:24:41Z</time></trkpt><trkpt lat="14.546467204657388" lon="121.01335212024856"><ele>12.2</ele><time>2026-04-03T23:24:42Z</time></trkpt><trkpt lat="14.546402440058472" lon="121.01337363430059"><ele>12.399999999999999</ele><time>2026-04-03T23:24:43Z</time></trkpt><trkpt lat="14.546320254554589" lon="121.01337139821653"><ele>12.600000000000001</ele><time>2026-04-03T23:24:46Z</time></trkpt><trkpt lat="14.546248889767831" lon="121.01334215482218"><ele>12.8</ele><time>2026-04-03T23:24:52Z</time></trkpt><trkpt lat="14.546317433181391" lon="121.01352173304704"><ele>13.0</ele><time>2026-04-03T23:26:25Z</time></trkpt><trkpt lat="14.546249316465106" lon="121.01355851676787"><ele>12.4</ele><time>2026-04-03T23:28:33Z</time></trkpt><trkpt lat="14.546149284067786" lon="121.0136125352794"><ele>11.8</ele><time>2026-04-03T23:28:38Z</time></trkpt><trkpt lat="14.546076938604891" lon="121.0136516709433"><ele>11.2</ele><time>2026-04-03T23:28:42Z</time></trkpt><trkpt lat="14.545944680144006" lon="121.01365287445816"><ele>10.6</ele><time>2026-04-03T23:28:44Z</time></trkpt><trkpt lat="14.545876732979673" lon="121.01369659079772"><ele>10.0</ele><time>2026-04-03T23:28:45Z</time></trkpt><trkpt lat="14.545802815724183" lon="121.01375688796931"><ele>10.0</ele><time>2026-04-03T23:28:46Z</time></trkpt><trkpt lat="14.545715274236278" lon="121.01381972764838"><ele>10.0</ele><time>2026-04-03T23:28:47Z</time></trkpt><trkpt lat="14.545612349030392" lon="121.01387411923635"><ele>10.0</ele><time>2026-04-03T23:28:48Z</time></trkpt><trkpt lat="14.545510415762607" lon="121.0139384010009"><ele>10.0</ele><time>2026-04-03T23:28:49Z</time></trkpt><trkpt lat="14.545401585886419" lon="121.01399948429855"><ele>10.5</ele><time>2026-04-03T23:28:50Z</time></trkpt><trkpt lat="14.545292515570852" lon="121.01406325688284"><ele>11.0</ele><time>2026-04-03T23:28:51Z</time></trkpt><trkpt lat="14.545171441087344" lon="121.01412521991877"><ele>11.5</ele><time>2026-04-03T23:28:52Z</time></trkpt><trkpt lat="14.545054435227359" lon="121.01418667248522"><ele>12.0</ele><time>2026-04-03T23:28:53Z</time></trkpt><trkpt lat="14.54493178293334" lon="121.01426034501014"><ele>12.0</ele><time>2026-04-03T23:28:54Z</time></trkpt><trkpt lat="14.544808265566974" lon="121.01433559616545"><ele>12.0</ele><time>2026-04-03T23:28:55Z</time></trkpt><trkpt lat="14.544684450003473" lon="121.01441191806771"><ele>12.0</ele><time>2026-04-03T23:28:56Z</time></trkpt><trkpt lat="14.544548976301442" lon="121.01449314770841"><ele>12.0</ele><time>2026-04-03T23:28:57Z</time></trkpt><trkpt lat="14.544416868994752" lon="121.0145649364422"><ele>12.0</ele><time>2026-04-03T23:28:58Z</time></trkpt><trkpt lat="14.544296315122155" lon="121.01464545323383"><ele>12.0</ele><time>2026-04-03T23:28:59Z</time></trkpt><trkpt lat="14.544158569557222" lon="121.01473501238755"><ele>12.0</ele><time>2026-04-03T23:29:00Z</time></trkpt><trkpt lat="14.544025954196442" lon="121.01481879220319"><ele>12.0</ele><time>2026-04-03T23:29:01Z</time></trkpt><trkpt lat="14.543884707849648" lon="121.01490266360861"><ele>12.0</ele><time>2026-04-03T23:29:02Z</time></trkpt><trkpt lat="14.543739617879936" lon="121.01498368536929"><ele>12.0</ele><time>2026-04-03T23:29:03Z</time></trkpt><trkpt lat="14.543602033344667" lon="121.01506370563277"><ele>12.0</ele><time>2026-04-03T23:29:04Z</time></trkpt><trkpt lat="14.543458433113877" lon="121.01514267117419"><ele>12.0</ele><time>2026-04-03T23:29:05Z</time></trkpt><trkpt lat="14.543314055044668" lon="121.01523015360576"><ele>12.0</ele><time>2026-04-03T23:29:06Z</time></trkpt><trkpt lat="14.543161429768336" lon="121.01531444074885"><ele>12.0</ele><time>2026-04-03T23:29:07Z</time></trkpt><trkpt lat="14.543002584687253" lon="121.01539435586224"><ele>12.0</ele><time>2026-04-03T23:29:08Z</time></trkpt><trkpt lat="14.542845375385808" lon="121.01547090315525"><ele>12.0</ele><time>2026-04-03T23:29:09Z</time></trkpt><trkpt lat="14.542685002745362" lon="121.01554722502402"><ele>13.666666666666668</ele><time>2026-04-03T23:29:10Z</time></trkpt><trkpt lat="14.542525960242672" lon="121.0156290887747"><ele>15.333333333333334</ele><time>2026-04-03T23:29:11Z</time></trkpt><trkpt lat="14.54235973577263" lon="121.0157118152303"><ele>17.0</ele><time>2026-04-03T23:29:12Z</time></trkpt><trkpt lat="14.542194058554816" lon="121.01579545799135"><ele>15.0</ele><time>2026-04-03T23:29:13Z</time></trkpt><trkpt lat="14.542042673137386" lon="121.01588163704106"><ele>13.0</ele><time>2026-04-03T23:29:14Z</time></trkpt><trkpt lat="14.541879760804832" lon="121.01595933249234"><ele>11.0</ele><time>2026-04-03T23:29:15Z</time></trkpt><trkpt lat="14.541717523865085" lon="121.01601999989727"><ele>11.0</ele><time>2026-04-03T23:29:16Z</time></trkpt><trkpt lat="14.541552752476514" lon="121.01606829149364"><ele>11.0</ele><time>2026-04-03T23:29:17Z</time></trkpt><trkpt lat="14.541390304386614" lon="121.0161228308861"><ele>11.0</ele><time>2026-04-03T23:29:18Z</time></trkpt><trkpt lat="14.541229262660245" lon="121.01617274858559"><ele>11.333333333333332</ele><time>2026-04-03T23:29:19Z</time></trkpt><trkpt lat="14.541069109222384" lon="121.01621611006078"><ele>11.666666666666666</ele><time>2026-04-03T23:29:20Z</time></trkpt><trkpt lat="14.54091186189512" lon="121.01626661969266"><ele>12.0</ele><time>2026-04-03T23:29:21Z</time></trkpt><trkpt lat="14.54076085477912" lon="121.01632340535149"><ele>12.0</ele><time>2026-04-03T23:29:22Z</time></trkpt><trkpt lat="14.540613453164218" lon="121.01638577385042"><ele>12.0</ele><time>2026-04-03T23:29:23Z</time></trkpt><trkpt lat="14.540465180194607" lon="121.01645729391194"><ele>12.0</ele><time>2026-04-03T23:29:24Z</time></trkpt><trkpt lat="14.540322344838977" lon="121.01652526145055"><ele>12.0</ele><time>2026-04-03T23:29:25Z</time></trkpt><trkpt lat="14.540188918197671" lon="121.01659257668273"><ele>12.0</ele><time>2026-04-03T23:29:26Z</time></trkpt><trkpt lat="14.540064402377071" lon="121.01664984390847"><ele>12.0</ele><time>2026-04-03T23:29:27Z</time></trkpt><trkpt lat="14.539927374849137" lon="121.01672774644375"><ele>12.0</ele><time>2026-04-03T23:29:28Z</time></trkpt><trkpt lat="14.539786641331382" lon="121.01684828127236"><ele>11.666666666666666</ele><time>2026-04-03T23:29:29Z</time></trkpt><trkpt lat="14.539656939782953" lon="121.01694667718077"><ele>11.333333333333332</ele><time>2026-04-03T23:29:30Z</time></trkpt><trkpt lat="14.539532135009571" lon="121.01704938527811"><ele>11.0</ele><time>2026-04-03T23:29:31Z</time></trkpt><trkpt lat="14.539414301525223" lon="121.01714849943629"><ele>10.75</ele><time>2026-04-03T23:29:32Z</time></trkpt><trkpt lat="14.539291548284028" lon="121.01724831826405"><ele>10.5</ele><time>2026-04-03T23:29:33Z</time></trkpt><trkpt lat="14.539171773564389" lon="121.01733974584882"><ele>10.25</ele><time>2026-04-03T23:29:34Z</time></trkpt><trkpt lat="14.539058012625516" lon="121.01742965384904"><ele>10.0</ele><time>2026-04-03T23:29:35Z</time></trkpt><trkpt lat="14.53893978320326" lon="121.01751141189817"><ele>10.0</ele><time>2026-04-03T23:29:36Z</time></trkpt><trkpt lat="14.53881200905535" lon="121.01759749514798"><ele>10.0</ele><time>2026-04-03T23:29:37Z</time></trkpt><trkpt lat="14.538676739703167" lon="121.01768300929989"><ele>10.0</ele><time>2026-04-03T23:29:38Z</time></trkpt><trkpt lat="14.53853717831787" lon="121.01775334628694"><ele>10.333333333333334</ele><time>2026-04-03T23:29:39Z</time></trkpt><trkpt lat="14.538397364529832" lon="121.01782611573624"><ele>10.666666666666666</ele><time>2026-04-03T23:29:40Z</time></trkpt><trkpt lat="14.538251009183245" lon="121.01791398978983"><ele>11.0</ele><time>2026-04-03T23:29:41Z</time></trkpt><trkpt lat="14.538121553932047" lon="121.01798053525756"><ele>11.0</ele><time>2026-04-03T23:29:42Z</time></trkpt><trkpt lat="14.53799012144776" lon="121.01805781865598"><ele>11.0</ele><time>2026-04-03T23:29:43Z</time></trkpt><trkpt lat="14.537836253539146" lon="121.01814341483454"><ele>11.0</ele><time>2026-04-03T23:29:44Z</time></trkpt><trkpt lat="14.537682696830998" lon="121.01822708921172"><ele>11.0</ele><time>2026-04-03T23:29:45Z</time></trkpt><trkpt lat="14.537541438634204" lon="121.01831236228543"><ele>11.0</ele><time>2026-04-03T23:29:46Z</time></trkpt><trkpt lat="14.537391203310378" lon="121.01840184036944"><ele>11.0</ele><time>2026-04-03T23:29:47Z</time></trkpt><trkpt lat="14.537231919907379" lon="121.01848570946737"><ele>11.0</ele><time>2026-04-03T23:29:48Z</time></trkpt><trkpt lat="14.53707205847978" lon="121.01857397063742"><ele>11.0</ele><time>2026-04-03T23:29:49Z</time></trkpt><trkpt lat="14.536907761019666" lon="121.01866150547421"><ele>11.0</ele><time>2026-04-03T23:29:50Z</time></trkpt><trkpt lat="14.536742395879962" lon="121.01875161756105"><ele>11.0</ele><time>2026-04-03T23:29:51Z</time></trkpt><trkpt lat="14.536570235581317" lon="121.01884252522538"><ele>11.0</ele><time>2026-04-03T23:29:52Z</time></trkpt><trkpt lat="14.536398657978578" lon="121.01893098666184"><ele>11.0</ele><time>2026-04-03T23:29:53Z</time></trkpt><trkpt lat="14.536221372468766" lon="121.01902943776079"><ele>10.666666666666666</ele><time>2026-04-03T23:29:54Z</time></trkpt><trkpt lat="14.5360452404003" lon="121.01912171249644"><ele>10.333333333333334</ele><time>2026-04-03T23:29:55Z</time></trkpt><trkpt lat="14.53586753412779" lon="121.01921879326756"><ele>10.0</ele><time>2026-04-03T23:29:56Z</time></trkpt><trkpt lat="14.535685496387856" lon="121.01931342796911"><ele>11.0</ele><time>2026-04-03T23:29:57Z</time></trkpt><trkpt lat="14.535501172930866" lon="121.01941285321895"><ele>12.0</ele><time>2026-04-03T23:29:58Z</time></trkpt><trkpt lat="14.535319268135696" lon="121.01951458678472"><ele>13.0</ele><time>2026-04-03T23:29:59Z</time></trkpt><trkpt lat="14.535135124705489" lon="121.01961861486167"><ele>13.0</ele><time>2026-04-03T23:30:00Z</time></trkpt><trkpt lat="14.534946179847008" lon="121.01972058731552"><ele>13.0</ele><time>2026-04-03T23:30:01Z</time></trkpt><trkpt lat="14.534756417574046" lon="121.01982174982241"><ele>13.0</ele><time>2026-04-03T23:30:02Z</time></trkpt><trkpt lat="14.534566673309127" lon="121.01992672561502"><ele>14.0</ele><time>2026-04-03T23:30:03Z</time></trkpt><trkpt lat="14.534371544512949" lon="121.02003174034341"><ele>15.0</ele><time>2026-04-03T23:30:04Z</time></trkpt><trkpt lat="14.534174213957844" lon="121.02013612074533"><ele>16.0</ele><time>2026-04-03T23:30:05Z</time></trkpt><trkpt lat="14.533975869741566" lon="121.02023959938671"><ele>16.0</ele><time>2026-04-03T23:30:06Z</time></trkpt><trkpt lat="14.533775700295047" lon="121.02034604998182"><ele>16.0</ele><time>2026-04-03T23:30:07Z</time></trkpt><trkpt lat="14.533574464618464" lon="121.02045673947251"><ele>16.5</ele><time>2026-04-03T23:30:08Z</time></trkpt><trkpt lat="14.533373790401072" lon="121.02056843735602"><ele>17.0</ele><time>2026-04-03T23:30:09Z</time></trkpt><trkpt lat="14.533169762542137" lon="121.02067564208961"><ele>17.0</ele><time>2026-04-03T23:30:10Z</time></trkpt><trkpt lat="14.532965173187856" lon="121.02078370688768"><ele>17.0</ele><time>2026-04-03T23:30:11Z</time></trkpt><trkpt lat="14.532760687832035" lon="121.0208943595126"><ele>14.5</ele><time>2026-04-03T23:30:12Z</time></trkpt><trkpt lat="14.532553747249006" lon="121.02100461693492"><ele>12.0</ele><time>2026-04-03T23:30:13Z</time></trkpt><trkpt lat="14.532349007416173" lon="121.02111710598284"><ele>12.0</ele><time>2026-04-03T23:30:14Z</time></trkpt><trkpt lat="14.532146105614254" lon="121.02123087579207"><ele>12.0</ele><time>2026-04-03T23:30:15Z</time></trkpt><trkpt lat="14.531937159414772" lon="121.02134590715886"><ele>10.0</ele><time>2026-04-03T23:30:16Z</time></trkpt><trkpt lat="14.531729963939615" lon="121.02144866425732"><ele>8.0</ele><time>2026-04-03T23:30:17Z</time></trkpt><trkpt lat="14.531523642798186" lon="121.02155507420933"><ele>8.5</ele><time>2026-04-03T23:30:18Z</time></trkpt><trkpt lat="14.53131791387567" lon="121.02166884193223"><ele>9.0</ele><time>2026-04-03T23:30:19Z</time></trkpt><trkpt lat="14.531107700461035" lon="121.02177826091132"><ele>9.0</ele><time>2026-04-03T23:30:20Z</time></trkpt><trkpt lat="14.530907039642353" lon="121.0218880996304"><ele>9.0</ele><time>2026-04-03T23:30:21Z</time></trkpt><trkpt lat="14.530726401156025" lon="121.02199525227671"><ele>9.0</ele><time>2026-04-03T23:30:22Z</time></trkpt><trkpt lat="14.530552850692784" lon="121.02209082351617"><ele>8.666666666666666</ele><time>2026-04-03T23:30:23Z</time></trkpt><trkpt lat="14.530378195997779" lon="121.02218789860568"><ele>8.333333333333332</ele><time>2026-04-03T23:30:24Z</time></trkpt><trkpt lat="14.530196362220439" lon="121.0222843277659"><ele>8.0</ele><time>2026-04-03T23:30:25Z</time></trkpt><trkpt lat="14.530014731510848" lon="121.02238300397188"><ele>8.666666666666666</ele><time>2026-04-03T23:30:26Z</time></trkpt><trkpt lat="14.52983213615857" lon="121.02248238930734"><ele>9.333333333333334</ele><time>2026-04-03T23:30:27Z</time></trkpt><trkpt lat="14.529660437915089" lon="121.0225738225589"><ele>10.0</ele><time>2026-04-03T23:30:28Z</time></trkpt><trkpt lat="14.529497107431085" lon="121.02266313392667"><ele>10.0</ele><time>2026-04-03T23:30:29Z</time></trkpt><trkpt lat="14.529337420148938" lon="121.02274978354032"><ele>10.0</ele><time>2026-04-03T23:30:30Z</time></trkpt><trkpt lat="14.529176870828726" lon="121.02282805809232"><ele>10.0</ele><time>2026-04-03T23:30:31Z</time></trkpt><trkpt lat="14.529012822876105" lon="121.02291510907605"><ele>10.0</ele><time>2026-04-03T23:30:32Z</time></trkpt><trkpt lat="14.528849438143416" lon="121.02300415615976"><ele>10.0</ele><time>2026-04-03T23:30:33Z</time></trkpt><trkpt lat="14.528685376233167" lon="121.02309148791669"><ele>10.0</ele><time>2026-04-03T23:30:34Z</time></trkpt><trkpt lat="14.528522646825149" lon="121.02317982586878"><ele>10.0</ele><time>2026-04-03T23:30:35Z</time></trkpt><trkpt lat="14.528358818955791" lon="121.02326996625078"><ele>10.0</ele><time>2026-04-03T23:30:36Z</time></trkpt><trkpt lat="14.528192967801662" lon="121.02336057165023"><ele>10.0</ele><time>2026-04-03T23:30:37Z</time></trkpt><trkpt lat="14.52802693171961" lon="121.02345073068633"><ele>10.333333333333334</ele><time>2026-04-03T23:30:38Z</time></trkpt><trkpt lat="14.527856164884053" lon="121.02354155471765"><ele>10.666666666666666</ele><time>2026-04-03T23:30:39Z</time></trkpt><trkpt lat="14.527687949624363" lon="121.02363161581364"><ele>11.0</ele><time>2026-04-03T23:30:40Z</time></trkpt><trkpt lat="14.527521344822082" lon="121.02371781019215"><ele>11.0</ele><time>2026-04-03T23:30:41Z</time></trkpt><trkpt lat="14.527361846571187" lon="121.02381042153385"><ele>11.0</ele><time>2026-04-03T23:30:42Z</time></trkpt><trkpt lat="14.527203695102715" lon="121.02389570799568"><ele>11.0</ele><time>2026-04-03T23:30:43Z</time></trkpt><trkpt lat="14.527061857233708" lon="121.0239745497987"><ele>11.333333333333332</ele><time>2026-04-03T23:30:44Z</time></trkpt><trkpt lat="14.526920755794153" lon="121.0240490172667"><ele>11.666666666666666</ele><time>2026-04-03T23:30:45Z</time></trkpt><trkpt lat="14.526776735724429" lon="121.0241238568852"><ele>12.0</ele><time>2026-04-03T23:30:46Z</time></trkpt><trkpt lat="14.526630927123843" lon="121.02420101160348"><ele>12.0</ele><time>2026-04-03T23:30:47Z</time></trkpt><trkpt lat="14.526489810199777" lon="121.02427907073941"><ele>12.0</ele><time>2026-04-03T23:30:48Z</time></trkpt><trkpt lat="14.52634666142385" lon="121.02435957974456"><ele>12.0</ele><time>2026-04-03T23:30:49Z</time></trkpt><trkpt lat="14.526205495339706" lon="121.0244319587383"><ele>10.75</ele><time>2026-04-03T23:30:50Z</time></trkpt><trkpt lat="14.526074113443999" lon="121.02450094691737"><ele>9.5</ele><time>2026-04-03T23:30:51Z</time></trkpt><trkpt lat="14.525952628890783" lon="121.02456820769753"><ele>8.25</ele><time>2026-04-03T23:30:52Z</time></trkpt><trkpt lat="14.525828923499313" lon="121.02463576821317"><ele>7.0</ele><time>2026-04-03T23:30:53Z</time></trkpt><trkpt lat="14.52570743700535" lon="121.02470360214164"><ele>7.0</ele><time>2026-04-03T23:30:54Z</time></trkpt><trkpt lat="14.52559059757986" lon="121.02476971882074"><ele>7.0</ele><time>2026-04-03T23:30:55Z</time></trkpt><trkpt lat="14.525476547294684" lon="121.0248346667148"><ele>7.0</ele><time>2026-04-03T23:30:56Z</time></trkpt><trkpt lat="14.525365920457267" lon="121.02489022895448"><ele>7.0</ele><time>2026-04-03T23:30:57Z</time></trkpt><trkpt lat="14.52526265713806" lon="121.02493745162313"><ele>7.8</ele><time>2026-04-03T23:30:58Z</time></trkpt><trkpt lat="14.52516952674508" lon="121.02496897671494"><ele>8.6</ele><time>2026-04-03T23:30:59Z</time></trkpt><trkpt lat="14.525074668240741" lon="121.02498388949627"><ele>9.4</ele><time>2026-04-03T23:31:00Z</time></trkpt><trkpt lat="14.524981948533338" lon="121.02497385061375"><ele>10.200000000000001</ele><time>2026-04-03T23:31:01Z</time></trkpt><trkpt lat="14.524900606354018" lon="121.02494517411363"><ele>11.0</ele><time>2026-04-03T23:31:02Z</time></trkpt><trkpt lat="14.524815139627139" lon="121.02490010554685"><ele>11.200000000000001</ele><time>2026-04-03T23:31:03Z</time></trkpt><trkpt lat="14.524739137638695" lon="121.02483959695562"><ele>11.4</ele><time>2026-04-03T23:31:04Z</time></trkpt><trkpt lat="14.52467731310374" lon="121.0247642820763"><ele>11.6</ele><time>2026-04-03T23:31:05Z</time></trkpt><trkpt lat="14.524630948536343" lon="121.0246863036528"><ele>11.8</ele><time>2026-04-03T23:31:06Z</time></trkpt><trkpt lat="14.524591305940898" lon="121.02461853807273"><ele>12.0</ele><time>2026-04-03T23:31:07Z</time></trkpt><trkpt lat="14.524504285673634" lon="121.02452192382032"><ele>12.833333333333334</ele><time>2026-04-03T23:31:09Z</time></trkpt><trkpt lat="14.524438509535202" lon="121.02448292550282"><ele>13.666666666666668</ele><time>2026-04-03T23:31:10Z</time></trkpt><trkpt lat="14.524363173345083" lon="121.02444849977464"><ele>14.5</ele><time>2026-04-03T23:31:11Z</time></trkpt><trkpt lat="14.524282858921747" lon="121.02442563778143"><ele>15.333333333333334</ele><time>2026-04-03T23:31:12Z</time></trkpt><trkpt lat="14.524188327130728" lon="121.02441369778782"><ele>16.166666666666668</ele><time>2026-04-03T23:31:13Z</time></trkpt><trkpt lat="14.524087844248157" lon="121.02441946379247"><ele>17.0</ele><time>2026-04-03T23:31:14Z</time></trkpt><trkpt lat="14.523989553157385" lon="121.02444038658062"><ele>17.0</ele><time>2026-04-03T23:31:15Z</time></trkpt><trkpt lat="14.523897380228005" lon="121.02448038229859"><ele>17.0</ele><time>2026-04-03T23:31:16Z</time></trkpt><trkpt lat="14.52380952602207" lon="121.024532129273"><ele>17.0</ele><time>2026-04-03T23:31:17Z</time></trkpt><trkpt lat="14.52372547276002" lon="121.02459403130429"><ele>17.0</ele><time>2026-04-03T23:31:18Z</time></trkpt><trkpt lat="14.523659508621044" lon="121.02464376425398"><ele>17.0</ele><time>2026-04-03T23:31:19Z</time></trkpt><trkpt lat="14.523605702470102" lon="121.02468772870145"><ele>17.2</ele><time>2026-04-03T23:31:20Z</time></trkpt><trkpt lat="14.523533867969668" lon="121.02475547734798"><ele>17.4</ele><time>2026-04-03T23:31:22Z</time></trkpt><trkpt lat="14.523475464589701" lon="121.02483971686316"><ele>17.6</ele><time>2026-04-03T23:31:24Z</time></trkpt><trkpt lat="14.523426137973674" lon="121.02491880964992"><ele>17.8</ele><time>2026-04-03T23:31:26Z</time></trkpt><trkpt lat="14.523399148903309" lon="121.02498956001989"><ele>18.0</ele><time>2026-04-03T23:31:33Z</time></trkpt><trkpt lat="14.523369863127124" lon="121.02508105080493"><ele>18.0</ele><time>2026-04-03T23:31:35Z</time></trkpt><trkpt lat="14.523352335767946" lon="121.02520109324497"><ele>18.0</ele><time>2026-04-03T23:31:37Z</time></trkpt><trkpt lat="14.523301542586907" lon="121.02532728258988"><ele>18.0</ele><time>2026-04-03T23:31:39Z</time></trkpt><trkpt lat="14.523263201685435" lon="121.0253899558418"><ele>18.0</ele><time>2026-04-03T23:31:40Z</time></trkpt><trkpt lat="14.523221217409366" lon="121.02545680440869"><ele>18.0</ele><time>2026-04-03T23:31:41Z</time></trkpt><trkpt lat="14.52315220722803" lon="121.0255549257074"><ele>18.0</ele><time>2026-04-03T23:31:43Z</time></trkpt><trkpt lat="14.523097158184745" lon="121.02563579392229"><ele>18.0</ele><time>2026-04-03T23:31:45Z</time></trkpt><trkpt lat="14.523029785142313" lon="121.02574968368698"><ele>18.0</ele><time>2026-04-03T23:31:47Z</time></trkpt><trkpt lat="14.522989915645828" lon="121.02582076489054"><ele>18.0</ele><time>2026-04-03T23:31:48Z</time></trkpt><trkpt lat="14.522942460872617" lon="121.02589702142616"><ele>18.0</ele><time>2026-04-03T23:31:49Z</time></trkpt><trkpt lat="14.52288259075828" lon="121.0259670244591"><ele>17.2</ele><time>2026-04-03T23:31:50Z</time></trkpt><trkpt lat="14.522816395858884" lon="121.02602985905001"><ele>16.4</ele><time>2026-04-03T23:31:51Z</time></trkpt><trkpt lat="14.522740454204106" lon="121.02608124547412"><ele>15.599999999999998</ele><time>2026-04-03T23:31:52Z</time></trkpt><trkpt lat="14.522655001923324" lon="121.02612061398759"><ele>14.799999999999999</ele><time>2026-04-03T23:31:53Z</time></trkpt><trkpt lat="14.522570964483792" lon="121.02615224191197"><ele>14.0</ele><time>2026-04-03T23:31:54Z</time></trkpt><trkpt lat="14.522490035281761" lon="121.0261851567632"><ele>14.0</ele><time>2026-04-03T23:31:55Z</time></trkpt><trkpt lat="14.522404799968179" lon="121.02622544538832"><ele>13.999999999999998</ele><time>2026-04-03T23:31:56Z</time></trkpt><trkpt lat="14.522317507637995" lon="121.02626375385445"><ele>13.999999999999998</ele><time>2026-04-03T23:31:57Z</time></trkpt><trkpt lat="14.522230002273712" lon="121.02630055243684"><ele>14.0</ele><time>2026-04-03T23:31:58Z</time></trkpt><trkpt lat="14.522137109717326" lon="121.02633933566509"><ele>14.0</ele><time>2026-04-03T23:31:59Z</time></trkpt><trkpt lat="14.522044084635953" lon="121.02637774956153"><ele>14.0</ele><time>2026-04-03T23:32:00Z</time></trkpt><trkpt lat="14.521949775709642" lon="121.02641786807116"><ele>13.999999999999998</ele><time>2026-04-03T23:32:01Z</time></trkpt><trkpt lat="14.521857519241234" lon="121.02645558246249"><ele>13.999999999999998</ele><time>2026-04-03T23:32:02Z</time></trkpt><trkpt lat="14.521757810375775" lon="121.02649565048308"><ele>14.0</ele><time>2026-04-03T23:32:03Z</time></trkpt><trkpt lat="14.52165637021874" lon="121.02653193738013"><ele>14.0</ele><time>2026-04-03T23:32:04Z</time></trkpt><trkpt lat="14.521565856910582" lon="121.02657388370545"><ele>14.0</ele><time>2026-04-03T23:32:05Z</time></trkpt><trkpt lat="14.521469168059827" lon="121.02661891545485"><ele>13.999999999999998</ele><time>2026-04-03T23:32:06Z</time></trkpt><trkpt lat="14.521368760312251" lon="121.02666380115993"><ele>13.999999999999998</ele><time>2026-04-03T23:32:07Z</time></trkpt><trkpt lat="14.521261395242368" lon="121.02670926212133"><ele>14.0</ele><time>2026-04-03T23:32:08Z</time></trkpt><trkpt lat="14.521153347237052" lon="121.02675205880004"><ele>14.0</ele><time>2026-04-03T23:32:09Z</time></trkpt><trkpt lat="14.5210494960138" lon="121.02679774793063"><ele>14.333333333333334</ele><time>2026-04-03T23:32:10Z</time></trkpt><trkpt lat="14.520938258196246" lon="121.0268479119259"><ele>14.666666666666668</ele><time>2026-04-03T23:32:11Z</time></trkpt><trkpt lat="14.520854967186615" lon="121.02688325329713"><ele>15.0</ele><time>2026-04-03T23:32:12Z</time></trkpt><trkpt lat="14.52078212278137" lon="121.02691545184521"><ele>15.333333333333332</ele><time>2026-04-03T23:32:13Z</time></trkpt><trkpt lat="14.520718676971356" lon="121.0269468120752"><ele>15.666666666666666</ele><time>2026-04-03T23:32:14Z</time></trkpt><trkpt lat="14.520650683720222" lon="121.02698122781672"><ele>16.0</ele><time>2026-04-03T23:32:15Z</time></trkpt><trkpt lat="14.520587128529735" lon="121.02701001025324"><ele>15.999999999999998</ele><time>2026-04-03T23:32:16Z</time></trkpt><trkpt lat="14.520525797051596" lon="121.02703836968867"><ele>16.0</ele><time>2026-04-03T23:32:17Z</time></trkpt><trkpt lat="14.520468698740139" lon="121.02706937358906"><ele>16.0</ele><time>2026-04-03T23:32:18Z</time></trkpt><trkpt lat="14.520362116029151" lon="121.02712880572254"><ele>16.0</ele><time>2026-04-03T23:32:20Z</time></trkpt><trkpt lat="14.520305902955958" lon="121.0271599881921"><ele>15.999999999999998</ele><time>2026-04-03T23:32:21Z</time></trkpt><trkpt lat="14.52024582725884" lon="121.02719015430249"><ele>16.0</ele><time>2026-04-03T23:32:22Z</time></trkpt><trkpt lat="14.520184094131091" lon="121.02722612147885"><ele>16.0</ele><time>2026-04-03T23:32:23Z</time></trkpt><trkpt lat="14.520114899934207" lon="121.02726424765302"><ele>16.0</ele><time>2026-04-03T23:32:24Z</time></trkpt><trkpt lat="14.520040349469875" lon="121.02730677151749"><ele>16.0</ele><time>2026-04-03T23:32:25Z</time></trkpt><trkpt lat="14.519959123793951" lon="121.02735344369839"><ele>16.0</ele><time>2026-04-03T23:32:26Z</time></trkpt><trkpt lat="14.51986682178965" lon="121.02740853768769"><ele>16.0</ele><time>2026-04-03T23:32:27Z</time></trkpt><trkpt lat="14.51976383834415" lon="121.0274656445073"><ele>16.25</ele><time>2026-04-03T23:32:28Z</time></trkpt><trkpt lat="14.519651170668103" lon="121.02751694552965"><ele>16.5</ele><time>2026-04-03T23:32:29Z</time></trkpt><trkpt lat="14.519535629379448" lon="121.02758088957007"><ele>16.75</ele><time>2026-04-03T23:32:30Z</time></trkpt><trkpt lat="14.519421135865638" lon="121.02764233501222"><ele>17.0</ele><time>2026-04-03T23:32:31Z</time></trkpt><trkpt lat="14.519308403852209" lon="121.02769992165894"><ele>17.0</ele><time>2026-04-03T23:32:32Z</time></trkpt><trkpt lat="14.519200761498087" lon="121.02775919940483"><ele>17.0</ele><time>2026-04-03T23:32:33Z</time></trkpt><trkpt lat="14.519094908116134" lon="121.02781785807319"><ele>17.0</ele><time>2026-04-03T23:32:34Z</time></trkpt><trkpt lat="14.5189940358651" lon="121.02787133713188"><ele>17.0</ele><time>2026-04-03T23:32:35Z</time></trkpt><trkpt lat="14.518895899941008" lon="121.0279185567204"><ele>17.0</ele><time>2026-04-03T23:32:36Z</time></trkpt><trkpt lat="14.518801757702404" lon="121.02796758528278"><ele>17.0</ele><time>2026-04-03T23:32:37Z</time></trkpt><trkpt lat="14.518708355279319" lon="121.02801702183343"><ele>17.0</ele><time>2026-04-03T23:32:38Z</time></trkpt><trkpt lat="14.51861217960971" lon="121.02806977301901"><ele>17.0</ele><time>2026-04-03T23:32:39Z</time></trkpt><trkpt lat="14.518521648901805" lon="121.0281171538264"><ele>17.0</ele><time>2026-04-03T23:32:40Z</time></trkpt><trkpt lat="14.518428977298543" lon="121.02816670674531"><ele>17.8</ele><time>2026-04-03T23:32:41Z</time></trkpt><trkpt lat="14.518335654650667" lon="121.02822093326799"><ele>18.6</ele><time>2026-04-03T23:32:42Z</time></trkpt><trkpt lat="14.518244561660197" lon="121.02827817179607"><ele>19.400000000000002</ele><time>2026-04-03T23:32:43Z</time></trkpt><trkpt lat="14.518156028133182" lon="121.02833901368273"><ele>20.2</ele><time>2026-04-03T23:32:44Z</time></trkpt><trkpt lat="14.51807038954567" lon="121.02840163761418"><ele>21.0</ele><time>2026-04-03T23:32:45Z</time></trkpt><trkpt lat="14.517983762914492" lon="121.02846126940034"><ele>21.5</ele><time>2026-04-03T23:32:46Z</time></trkpt><trkpt lat="14.517893386925891" lon="121.02852382601337"><ele>22.0</ele><time>2026-04-03T23:32:47Z</time></trkpt><trkpt lat="14.517796697471868" lon="121.02858898678156"><ele>22.5</ele><time>2026-04-03T23:32:48Z</time></trkpt><trkpt lat="14.51770420997306" lon="121.02865700201707"><ele>23.0</ele><time>2026-04-03T23:32:49Z</time></trkpt><trkpt lat="14.517613343161763" lon="121.02873505233795"><ele>23.0</ele><time>2026-04-03T23:32:50Z</time></trkpt><trkpt lat="14.517531439893487" lon="121.02880134774625"><ele>23.0</ele><time>2026-04-03T23:32:51Z</time></trkpt><trkpt lat="14.517438917124954" lon="121.02884966732799"><ele>23.0</ele><time>2026-04-03T23:32:52Z</time></trkpt><trkpt lat="14.517355516432701" lon="121.02891219470169"><ele>23.0</ele><time>2026-04-03T23:32:53Z</time></trkpt><trkpt lat="14.517284920750567" lon="121.02899790157564"><ele>23.0</ele><time>2026-04-03T23:32:54Z</time></trkpt><trkpt lat="14.517200539751892" lon="121.0290599994034"><ele>23.0</ele><time>2026-04-03T23:32:55Z</time></trkpt><trkpt lat="14.517117932115307" lon="121.02912321092354"><ele>23.0</ele><time>2026-04-03T23:32:56Z</time></trkpt><trkpt lat="14.517040348846534" lon="121.0291826029507"><ele>23.0</ele><time>2026-04-03T23:32:57Z</time></trkpt><trkpt lat="14.516963420316523" lon="121.02924114950778"><ele>23.0</ele><time>2026-04-03T23:32:58Z</time></trkpt><trkpt lat="14.516886998739754" lon="121.02929765396944"><ele>23.0</ele><time>2026-04-03T23:32:59Z</time></trkpt><trkpt lat="14.516829300500303" lon="121.0293418289016"><ele>23.333333333333336</ele><time>2026-04-03T23:33:00Z</time></trkpt><trkpt lat="14.516738522814954" lon="121.02941121937822"><ele>23.666666666666668</ele><time>2026-04-03T23:33:02Z</time></trkpt><trkpt lat="14.516684930722255" lon="121.02945359337934"><ele>24.0</ele><time>2026-04-03T23:33:03Z</time></trkpt><trkpt lat="14.516611801705269" lon="121.02950333596023"><ele>24.333333333333336</ele><time>2026-04-03T23:33:04Z</time></trkpt><trkpt lat="14.51654460868009" lon="121.02954439602058"><ele>24.666666666666668</ele><time>2026-04-03T23:33:05Z</time></trkpt><trkpt lat="14.516469214152393" lon="121.02959088533031"><ele>25.0</ele><time>2026-04-03T23:33:06Z</time></trkpt><trkpt lat="14.516390796132194" lon="121.02963570445857"><ele>25.0</ele><time>2026-04-03T23:33:07Z</time></trkpt><trkpt lat="14.516301322532387" lon="121.02968169331515"><ele>25.0</ele><time>2026-04-03T23:33:08Z</time></trkpt><trkpt lat="14.516206998111" lon="121.02972490004143"><ele>25.0</ele><time>2026-04-03T23:33:09Z</time></trkpt><trkpt lat="14.516110375566392" lon="121.02977461473213"><ele>25.0</ele><time>2026-04-03T23:33:10Z</time></trkpt><trkpt lat="14.51601413559603" lon="121.02982699930028"><ele>25.0</ele><time>2026-04-03T23:33:11Z</time></trkpt><trkpt lat="14.51591132804037" lon="121.02988126111472"><ele>24.5</ele><time>2026-04-03T23:33:12Z</time></trkpt><trkpt lat="14.515804249137185" lon="121.02993374389993"><ele>24.0</ele><time>2026-04-03T23:33:13Z</time></trkpt><trkpt lat="14.515695038670955" lon="121.02998628866035"><ele>23.5</ele><time>2026-04-03T23:33:14Z</time></trkpt><trkpt lat="14.515586747677695" lon="121.03004523996555"><ele>23.0</ele><time>2026-04-03T23:33:15Z</time></trkpt><trkpt lat="14.515469710070874" lon="121.03010669122666"><ele>23.25</ele><time>2026-04-03T23:33:16Z</time></trkpt><trkpt lat="14.515352025844923" lon="121.03016693326377"><ele>23.5</ele><time>2026-04-03T23:33:17Z</time></trkpt><trkpt lat="14.515226040203645" lon="121.03023017817294"><ele>23.75</ele><time>2026-04-03T23:33:18Z</time></trkpt><trkpt lat="14.515097449225047" lon="121.03029675212781"><ele>24.0</ele><time>2026-04-03T23:33:19Z</time></trkpt><trkpt lat="14.514967852079568" lon="121.03035951402755"><ele>24.0</ele><time>2026-04-03T23:33:20Z</time></trkpt><trkpt lat="14.514833956826278" lon="121.03042848324237"><ele>24.0</ele><time>2026-04-03T23:33:21Z</time></trkpt><trkpt lat="14.514694711339905" lon="121.03049786806199"><ele>24.0</ele><time>2026-04-03T23:33:22Z</time></trkpt><trkpt lat="14.51455148293722" lon="121.0305678447502"><ele>23.666666666666668</ele><time>2026-04-03T23:33:23Z</time></trkpt><trkpt lat="14.514399381855853" lon="121.03063341925417"><ele>23.333333333333336</ele><time>2026-04-03T23:33:24Z</time></trkpt><trkpt lat="14.514243310017386" lon="121.03069960640009"><ele>23.0</ele><time>2026-04-03T23:33:25Z</time></trkpt><trkpt lat="14.514080361999953" lon="121.03076291811027"><ele>23.333333333333336</ele><time>2026-04-03T23:33:26Z</time></trkpt><trkpt lat="14.513917606617058" lon="121.03082939829702"><ele>23.666666666666668</ele><time>2026-04-03T23:33:27Z</time></trkpt><trkpt lat="14.513747059803828" lon="121.03089406265798"><ele>24.0</ele><time>2026-04-03T23:33:28Z</time></trkpt><trkpt lat="14.513575429828155" lon="121.03096065334962"><ele>23.333333333333332</ele><time>2026-04-03T23:33:29Z</time></trkpt><trkpt lat="14.513402177382673" lon="121.03102568090982"><ele>22.666666666666664</ele><time>2026-04-03T23:33:30Z</time></trkpt><trkpt lat="14.513227847609484" lon="121.03109200333914"><ele>22.0</ele><time>2026-04-03T23:33:31Z</time></trkpt><trkpt lat="14.513053736935133" lon="121.0311580613975"><ele>22.333333333333332</ele><time>2026-04-03T23:33:32Z</time></trkpt><trkpt lat="14.51287558672905" lon="121.0312210873965"><ele>22.666666666666668</ele><time>2026-04-03T23:33:33Z</time></trkpt><trkpt lat="14.512703751260252" lon="121.03129155952269"><ele>23.0</ele><time>2026-04-03T23:33:34Z</time></trkpt><trkpt lat="14.51253487707039" lon="121.0313661378105"><ele>23.0</ele><time>2026-04-03T23:33:35Z</time></trkpt><trkpt lat="14.512376428149194" lon="121.03144159094808"><ele>23.0</ele><time>2026-04-03T23:33:36Z</time></trkpt><trkpt lat="14.512238381150931" lon="121.03151734801753"><ele>23.0</ele><time>2026-04-03T23:33:37Z</time></trkpt><trkpt lat="14.512109921413339" lon="121.031589385029"><ele>23.25</ele><time>2026-04-03T23:33:38Z</time></trkpt><trkpt lat="14.51199784821569" lon="121.03165060330402"><ele>23.5</ele><time>2026-04-03T23:33:39Z</time></trkpt><trkpt lat="14.511879229294282" lon="121.0317170472636"><ele>23.75</ele><time>2026-04-03T23:33:40Z</time></trkpt><trkpt lat="14.511781771432178" lon="121.03176915715223"><ele>24.0</ele><time>2026-04-03T23:33:41Z</time></trkpt><trkpt lat="14.511684274318748" lon="121.03181810052335"><ele>24.0</ele><time>2026-04-03T23:33:42Z</time></trkpt><trkpt lat="14.511601878774522" lon="121.03186930088239"><ele>24.0</ele><time>2026-04-03T23:33:43Z</time></trkpt><trkpt lat="14.511516889195576" lon="121.03191876652978"><ele>24.0</ele><time>2026-04-03T23:33:44Z</time></trkpt><trkpt lat="14.511439942795118" lon="121.03195695042534"><ele>24.0</ele><time>2026-04-03T23:33:45Z</time></trkpt><trkpt lat="14.511366475724982" lon="121.03199454476324"><ele>24.0</ele><time>2026-04-03T23:33:46Z</time></trkpt><trkpt lat="14.511304646952945" lon="121.03202167640582"><ele>24.0</ele><time>2026-04-03T23:33:47Z</time></trkpt><trkpt lat="14.511247783844528" lon="121.03205542742036"><ele>24.25</ele><time>2026-04-03T23:33:48Z</time></trkpt><trkpt lat="14.511152356542977" lon="121.0320941640177"><ele>24.5</ele><time>2026-04-03T23:33:50Z</time></trkpt><trkpt lat="14.51107929073711" lon="121.03212380913304"><ele>24.75</ele><time>2026-04-03T23:35:12Z</time></trkpt><trkpt lat="14.5110493919186" lon="121.03198238471293"><ele>25.0</ele><time>2026-04-03T23:35:15Z</time></trkpt><trkpt lat="14.51085629372" lon="121.03225677441458"><ele>25.0</ele><time>2026-04-03T23:35:16Z</time></trkpt><trkpt lat="14.510778260816995" lon="121.03231496015032"><ele>25.0</ele><time>2026-04-03T23:35:17Z</time></trkpt><trkpt lat="14.510694861777152" lon="121.03238598447642"><ele>25.0</ele><time>2026-04-03T23:35:18Z</time></trkpt><trkpt lat="14.510595375528634" lon="121.03246210605552"><ele>25.0</ele><time>2026-04-03T23:35:19Z</time></trkpt><trkpt lat="14.51049305905203" lon="121.03254356840095"><ele>25.0</ele><time>2026-04-03T23:35:20Z</time></trkpt><trkpt lat="14.51037461559783" lon="121.03262507233991"><ele>25.0</ele><time>2026-04-03T23:35:21Z</time></trkpt><trkpt lat="14.510258756536901" lon="121.03270886962255"><ele>25.0</ele><time>2026-04-03T23:35:22Z</time></trkpt><trkpt lat="14.510143644134054" lon="121.03279350628961"><ele>25.0</ele><time>2026-04-03T23:35:23Z</time></trkpt><trkpt lat="14.510024694076561" lon="121.03287459821944"><ele>25.0</ele><time>2026-04-03T23:35:24Z</time></trkpt><trkpt lat="14.509905768607517" lon="121.03295555874075"><ele>25.0</ele><time>2026-04-03T23:35:25Z</time></trkpt><trkpt lat="14.509786597420014" lon="121.03303848180855"><ele>25.0</ele><time>2026-04-03T23:35:26Z</time></trkpt><trkpt lat="14.509662247487093" lon="121.03311770303979"><ele>25.0</ele><time>2026-04-03T23:35:27Z</time></trkpt><trkpt lat="14.509534900645665" lon="121.03319462022804"><ele>24.5</ele><time>2026-04-03T23:35:28Z</time></trkpt><trkpt lat="14.509410007855" lon="121.03326621283894"><ele>24.0</ele><time>2026-04-03T23:35:29Z</time></trkpt><trkpt lat="14.509291313896163" lon="121.03333696764092"><ele>23.5</ele><time>2026-04-03T23:35:30Z</time></trkpt><trkpt lat="14.509173427162985" lon="121.03340209621415"><ele>23.0</ele><time>2026-04-03T23:35:31Z</time></trkpt><trkpt lat="14.509059614569594" lon="121.03346159220692"><ele>22.799999999999997</ele><time>2026-04-03T23:35:32Z</time></trkpt><trkpt lat="14.508958471056607" lon="121.03351743872614"><ele>22.6</ele><time>2026-04-03T23:35:33Z</time></trkpt><trkpt lat="14.50886121056845" lon="121.03356950802562"><ele>22.4</ele><time>2026-04-03T23:35:34Z</time></trkpt><trkpt lat="14.508761463670067" lon="121.03361646625919"><ele>22.200000000000003</ele><time>2026-04-03T23:35:35Z</time></trkpt><trkpt lat="14.508658547136505" lon="121.03367006636765"><ele>22.0</ele><time>2026-04-03T23:35:36Z</time></trkpt><trkpt lat="14.508553573954673" lon="121.03372672570553"><ele>21.75</ele><time>2026-04-03T23:35:37Z</time></trkpt><trkpt lat="14.50844756674743" lon="121.03378636232078"><ele>21.5</ele><time>2026-04-03T23:35:38Z</time></trkpt><trkpt lat="14.508346456853348" lon="121.03384613033771"><ele>21.25</ele><time>2026-04-03T23:35:39Z</time></trkpt><trkpt lat="14.508241864391428" lon="121.0339190031372"><ele>21.0</ele><time>2026-04-03T23:35:40Z</time></trkpt><trkpt lat="14.508127654810984" lon="121.03398755014241"><ele>21.0</ele><time>2026-04-03T23:35:41Z</time></trkpt><trkpt lat="14.508012970956365" lon="121.03405038285393"><ele>21.0</ele><time>2026-04-03T23:35:42Z</time></trkpt><trkpt lat="14.507901430049072" lon="121.03410878860488"><ele>21.0</ele><time>2026-04-03T23:35:43Z</time></trkpt><trkpt lat="14.50780343763661" lon="121.03417537974049"><ele>21.0</ele><time>2026-04-03T23:35:44Z</time></trkpt><trkpt lat="14.507700432050584" lon="121.03424350461071"><ele>20.400000000000002</ele><time>2026-04-03T23:35:45Z</time></trkpt><trkpt lat="14.507599194837022" lon="121.03430685115735"><ele>19.8</ele><time>2026-04-03T23:35:46Z</time></trkpt><trkpt lat="14.507500400836843" lon="121.03436289128689"><ele>19.200000000000003</ele><time>2026-04-03T23:35:47Z</time></trkpt><trkpt lat="14.507403400811077" lon="121.03441639337676"><ele>18.6</ele><time>2026-04-03T23:35:48Z</time></trkpt><trkpt lat="14.507324388076228" lon="121.0344736679926"><ele>18.0</ele><time>2026-04-03T23:35:49Z</time></trkpt><trkpt lat="14.507239625713938" lon="121.0345298428337"><ele>18.0</ele><time>2026-04-03T23:35:50Z</time></trkpt><trkpt lat="14.507147723171885" lon="121.03457528533845"><ele>18.0</ele><time>2026-04-03T23:35:51Z</time></trkpt><trkpt lat="14.5070860530799" lon="121.0346164256666"><ele>18.0</ele><time>2026-04-03T23:35:52Z</time></trkpt><trkpt lat="14.507015388129956" lon="121.03465613521215"><ele>18.0</ele><time>2026-04-03T23:35:53Z</time></trkpt><trkpt lat="14.506954353069318" lon="121.0346933742313"><ele>18.0</ele><time>2026-04-03T23:35:54Z</time></trkpt><trkpt lat="14.506885112321532" lon="121.03473630925892"><ele>18.0</ele><time>2026-04-03T23:35:55Z</time></trkpt><trkpt lat="14.506813344152699" lon="121.0347768321452"><ele>17.833333333333332</ele><time>2026-04-03T23:35:56Z</time></trkpt><trkpt lat="14.50673868936212" lon="121.03482078236335"><ele>17.666666666666668</ele><time>2026-04-03T23:35:57Z</time></trkpt><trkpt lat="14.50667233456741" lon="121.03486198117966"><ele>17.5</ele><time>2026-04-03T23:35:58Z</time></trkpt><trkpt lat="14.50660277612014" lon="121.03491034472188"><ele>17.333333333333336</ele><time>2026-04-03T23:35:59Z</time></trkpt><trkpt lat="14.506519231529914" lon="121.03495943081394"><ele>17.166666666666668</ele><time>2026-04-03T23:36:00Z</time></trkpt><trkpt lat="14.506427248949503" lon="121.03501030457141"><ele>17.0</ele><time>2026-04-03T23:36:01Z</time></trkpt><trkpt lat="14.506329680479201" lon="121.03506197288658"><ele>16.5</ele><time>2026-04-03T23:36:02Z</time></trkpt><trkpt lat="14.50623300970642" lon="121.03510882714963"><ele>16.0</ele><time>2026-04-03T23:36:03Z</time></trkpt><trkpt lat="14.50614089669451" lon="121.03516148087883"><ele>15.5</ele><time>2026-04-03T23:36:04Z</time></trkpt><trkpt lat="14.506039910802782" lon="121.0352219050344"><ele>15.0</ele><time>2026-04-03T23:36:05Z</time></trkpt><trkpt lat="14.505930311330559" lon="121.03528286612175"><ele>15.0</ele><time>2026-04-03T23:36:06Z</time></trkpt><trkpt lat="14.505811174280417" lon="121.03534754234002"><ele>15.0</ele><time>2026-04-03T23:36:07Z</time></trkpt><trkpt lat="14.50568433978793" lon="121.03541775242273"><ele>15.0</ele><time>2026-04-03T23:36:08Z</time></trkpt><trkpt lat="14.50554753463349" lon="121.03549128906984"><ele>15.0</ele><time>2026-04-03T23:36:09Z</time></trkpt><trkpt lat="14.505406813763747" lon="121.03556060175019"><ele>15.0</ele><time>2026-04-03T23:36:10Z</time></trkpt><trkpt lat="14.505267143247833" lon="121.0356343537911"><ele>15.0</ele><time>2026-04-03T23:36:11Z</time></trkpt><trkpt lat="14.505142820912116" lon="121.03569822259735"><ele>15.0</ele><time>2026-04-03T23:36:12Z</time></trkpt><trkpt lat="14.505025399375192" lon="121.03575901830666"><ele>15.0</ele><time>2026-04-03T23:36:13Z</time></trkpt><trkpt lat="14.504907156558152" lon="121.03582090643228"><ele>16.0</ele><time>2026-04-03T23:36:14Z</time></trkpt><trkpt lat="14.504784132115947" lon="121.03589193015236"><ele>17.0</ele><time>2026-04-03T23:36:15Z</time></trkpt><trkpt lat="14.504663493312295" lon="121.03596067743068"><ele>18.0</ele><time>2026-04-03T23:36:16Z</time></trkpt><trkpt lat="14.504543962070287" lon="121.03602888096955"><ele>19.0</ele><time>2026-04-03T23:36:17Z</time></trkpt><trkpt lat="14.504428251102535" lon="121.03609233084417"><ele>19.5</ele><time>2026-04-03T23:36:18Z</time></trkpt><trkpt lat="14.504300542872693" lon="121.03616177445782"><ele>20.0</ele><time>2026-04-03T23:36:19Z</time></trkpt><trkpt lat="14.504174080712096" lon="121.03623331505561"><ele>20.5</ele><time>2026-04-03T23:36:20Z</time></trkpt><trkpt lat="14.504037960584663" lon="121.03630351431966"><ele>21.0</ele><time>2026-04-03T23:36:21Z</time></trkpt><trkpt lat="14.503897581784416" lon="121.03637665402464"><ele>21.0</ele><time>2026-04-03T23:36:22Z</time></trkpt><trkpt lat="14.503753512497171" lon="121.03645396367"><ele>21.0</ele><time>2026-04-03T23:36:23Z</time></trkpt><trkpt lat="14.503609083571224" lon="121.03653165108672"><ele>21.0</ele><time>2026-04-03T23:36:24Z</time></trkpt><trkpt lat="14.503465668382148" lon="121.03660914785229"><ele>21.666666666666668</ele><time>2026-04-03T23:36:25Z</time></trkpt><trkpt lat="14.503326361915267" lon="121.0366862377241"><ele>22.333333333333336</ele><time>2026-04-03T23:36:26Z</time></trkpt><trkpt lat="14.503191195141591" lon="121.03675966664218"><ele>23.0</ele><time>2026-04-03T23:36:27Z</time></trkpt><trkpt lat="14.503066887299406" lon="121.03683151981305"><ele>23.0</ele><time>2026-04-03T23:36:28Z</time></trkpt><trkpt lat="14.502952817370284" lon="121.03688974315247"><ele>23.0</ele><time>2026-04-03T23:36:29Z</time></trkpt><trkpt lat="14.50284307168143" lon="121.0369507125756"><ele>23.0</ele><time>2026-04-03T23:36:30Z</time></trkpt><trkpt lat="14.502725874229528" lon="121.03701842176358"><ele>23.0</ele><time>2026-04-03T23:36:31Z</time></trkpt><trkpt lat="14.502606345763205" lon="121.03708808200477"><ele>22.75</ele><time>2026-04-03T23:36:32Z</time></trkpt><trkpt lat="14.502476548746355" lon="121.03715504008939"><ele>22.5</ele><time>2026-04-03T23:36:33Z</time></trkpt><trkpt lat="14.502347611884554" lon="121.03722038778712"><ele>22.25</ele><time>2026-04-03T23:36:34Z</time></trkpt><trkpt lat="14.502237262920003" lon="121.03727589048658"><ele>22.0</ele><time>2026-04-03T23:36:35Z</time></trkpt><trkpt lat="14.502132625748956" lon="121.03733018164031"><ele>22.75</ele><time>2026-04-03T23:36:36Z</time></trkpt><trkpt lat="14.50203834261284" lon="121.03738272839425"><ele>23.5</ele><time>2026-04-03T23:36:37Z</time></trkpt><trkpt lat="14.501932582708088" lon="121.03743894708381"><ele>24.25</ele><time>2026-04-03T23:36:38Z</time></trkpt><trkpt lat="14.501822600041342" lon="121.03750272765335"><ele>25.0</ele><time>2026-04-03T23:36:39Z</time></trkpt><trkpt lat="14.501706657264053" lon="121.03757343207486"><ele>25.0</ele><time>2026-04-03T23:36:40Z</time></trkpt><trkpt lat="14.501580400133927" lon="121.03764704686455"><ele>25.0</ele><time>2026-04-03T23:36:41Z</time></trkpt><trkpt lat="14.501441865512492" lon="121.03771775545485"><ele>25.0</ele><time>2026-04-03T23:36:42Z</time></trkpt><trkpt lat="14.50129605518173" lon="121.03778918345138"><ele>24.666666666666668</ele><time>2026-04-03T23:36:43Z</time></trkpt><trkpt lat="14.501146263727842" lon="121.03787050234953"><ele>24.333333333333336</ele><time>2026-04-03T23:36:44Z</time></trkpt><trkpt lat="14.501004868787966" lon="121.0379480847169"><ele>24.0</ele><time>2026-04-03T23:36:45Z</time></trkpt><trkpt lat="14.500872117068907" lon="121.03801490446966"><ele>24.0</ele><time>2026-04-03T23:36:46Z</time></trkpt><trkpt lat="14.500750787401401" lon="121.03808408707825"><ele>24.0</ele><time>2026-04-03T23:36:47Z</time></trkpt><trkpt lat="14.50064753602343" lon="121.03813587361655"><ele>24.0</ele><time>2026-04-03T23:36:48Z</time></trkpt><trkpt lat="14.5005628541978" lon="121.03818090259212"><ele>24.0</ele><time>2026-04-03T23:36:49Z</time></trkpt><trkpt lat="14.50048781283965" lon="121.03821882893244"><ele>24.0</ele><time>2026-04-03T23:36:50Z</time></trkpt><trkpt lat="14.5004221646283" lon="121.03825638446713"><ele>24.4</ele><time>2026-04-03T23:36:51Z</time></trkpt><trkpt lat="14.50031194233567" lon="121.03831809581379"><ele>24.799999999999997</ele><time>2026-04-03T23:36:53Z</time></trkpt><trkpt lat="14.500250657491392" lon="121.03835544731457"><ele>25.200000000000003</ele><time>2026-04-03T23:36:54Z</time></trkpt><trkpt lat="14.500169723454704" lon="121.03840656671491"><ele>25.6</ele><time>2026-04-03T23:36:55Z</time></trkpt><trkpt lat="14.500076062281497" lon="121.03846304344346"><ele>26.0</ele><time>2026-04-03T23:36:56Z</time></trkpt><trkpt lat="14.499975293124109" lon="121.03851251722445"><ele>26.0</ele><time>2026-04-03T23:36:57Z</time></trkpt><trkpt lat="14.499861791221415" lon="121.03856961952447"><ele>26.0</ele><time>2026-04-03T23:36:58Z</time></trkpt><trkpt lat="14.499745818963001" lon="121.03862303228922"><ele>26.0</ele><time>2026-04-03T23:36:59Z</time></trkpt><trkpt lat="14.49962690308208" lon="121.0386860251053"><ele>26.0</ele><time>2026-04-03T23:37:00Z</time></trkpt><trkpt lat="14.499510608374983" lon="121.03874938338184"><ele>26.0</ele><time>2026-04-03T23:37:01Z</time></trkpt><trkpt lat="14.499389657488203" lon="121.03881335491886"><ele>26.0</ele><time>2026-04-03T23:37:02Z</time></trkpt><trkpt lat="14.499263485357082" lon="121.03887979063643"><ele>26.0</ele><time>2026-04-03T23:37:03Z</time></trkpt><trkpt lat="14.499135589450578" lon="121.0389468331626"><ele>26.0</ele><time>2026-04-03T23:37:04Z</time></trkpt><trkpt lat="14.49899903444237" lon="121.03901860908863"><ele>26.0</ele><time>2026-04-03T23:37:04.999Z</time></trkpt><trkpt lat="14.498873892487486" lon="121.03908834702435"><ele>26.0</ele><time>2026-04-03T23:37:05.999Z</time></trkpt><trkpt lat="14.4987407695328" lon="121.03915885057494"><ele>26.0</ele><time>2026-04-03T23:37:06.999Z</time></trkpt><trkpt lat="14.498611224464929" lon="121.03922554121193"><ele>26.0</ele><time>2026-04-03T23:37:07.999Z</time></trkpt><trkpt lat="14.498473997918945" lon="121.03929867727587"><ele>27.666666666666664</ele><time>2026-04-03T23:37:08.999Z</time></trkpt><trkpt lat="14.498339249542251" lon="121.03937201729414"><ele>29.333333333333336</ele><time>2026-04-03T23:37:09.999Z</time></trkpt><trkpt lat="14.49820038011285" lon="121.03944457131917"><ele>31.0</ele><time>2026-04-03T23:37:10.999Z</time></trkpt><trkpt lat="14.498056979430672" lon="121.03951945773102"><ele>31.333333333333336</ele><time>2026-04-03T23:37:11.999Z</time></trkpt><trkpt lat="14.497913537037808" lon="121.03959976223517"><ele>31.666666666666664</ele><time>2026-04-03T23:37:12.999Z</time></trkpt><trkpt lat="14.497763516435096" lon="121.03968235010214"><ele>32.0</ele><time>2026-04-03T23:37:13.999Z</time></trkpt><trkpt lat="14.497614018623402" lon="121.03976369849248"><ele>32.0</ele><time>2026-04-03T23:37:14.999Z</time></trkpt><trkpt lat="14.497461941427598" lon="121.03984502978567"><ele>32.0</ele><time>2026-04-03T23:37:15.999Z</time></trkpt><trkpt lat="14.497307023808283" lon="121.0399251119372"><ele>32.0</ele><time>2026-04-03T23:37:16.999Z</time></trkpt><trkpt lat="14.497155670252306" lon="121.0400073407601"><ele>30.333333333333332</ele><time>2026-04-03T23:37:17.999Z</time></trkpt><trkpt lat="14.496999872185791" lon="121.040091440115"><ele>28.666666666666664</ele><time>2026-04-03T23:37:19Z</time></trkpt><trkpt lat="14.496849284090182" lon="121.04017302736534"><ele>27.0</ele><time>2026-04-03T23:37:19.999Z</time></trkpt><trkpt lat="14.496690627775493" lon="121.0402581690935"><ele>27.0</ele><time>2026-04-03T23:37:20.999Z</time></trkpt><trkpt lat="14.496534341889742" lon="121.0403400080936"><ele>27.0</ele><time>2026-04-03T23:37:21.999Z</time></trkpt><trkpt lat="14.496381040618019" lon="121.0404210820911"><ele>27.0</ele><time>2026-04-03T23:37:22.999Z</time></trkpt><trkpt lat="14.496223716854892" lon="121.04050270245276"><ele>26.666666666666664</ele><time>2026-04-03T23:37:23.999Z</time></trkpt><trkpt lat="14.496067886856224" lon="121.04058837296488"><ele>26.333333333333332</ele><time>2026-04-03T23:37:24.999Z</time></trkpt><trkpt lat="14.495913311425827" lon="121.04066876190882"><ele>26.0</ele><time>2026-04-03T23:37:25.999Z</time></trkpt><trkpt lat="14.49575936781908" lon="121.04074976917319"><ele>26.0</ele><time>2026-04-03T23:37:26.999Z</time></trkpt><trkpt lat="14.495608858138523" lon="121.04083278644289"><ele>26.0</ele><time>2026-04-03T23:37:27.999Z</time></trkpt><trkpt lat="14.49545754507818" lon="121.0409150298426"><ele>26.0</ele><time>2026-04-03T23:37:28.999Z</time></trkpt><trkpt lat="14.495310474442919" lon="121.04099515782507"><ele>26.0</ele><time>2026-04-03T23:37:29.999Z</time></trkpt><trkpt lat="14.49516001266495" lon="121.04107670017241"><ele>26.0</ele><time>2026-04-03T23:37:30.999Z</time></trkpt><trkpt lat="14.495011546175215" lon="121.04115344353824"><ele>26.0</ele><time>2026-04-03T23:37:31.999Z</time></trkpt><trkpt lat="14.494857014620692" lon="121.0412380368342"><ele>26.0</ele><time>2026-04-03T23:37:32.999Z</time></trkpt><trkpt lat="14.494715025772061" lon="121.04131289186323"><ele>26.0</ele><time>2026-04-03T23:37:33.999Z</time></trkpt><trkpt lat="14.494571316708774" lon="121.04139101783007"><ele>26.0</ele><time>2026-04-03T23:37:34.999Z</time></trkpt><trkpt lat="14.494427876574465" lon="121.04146403067946"><ele>25.75</ele><time>2026-04-03T23:37:35.999Z</time></trkpt><trkpt lat="14.494290815225304" lon="121.0415394258927"><ele>25.5</ele><time>2026-04-03T23:37:36.999Z</time></trkpt><trkpt lat="14.494168156448993" lon="121.04160652097907"><ele>25.25</ele><time>2026-04-03T23:37:37.999Z</time></trkpt><trkpt lat="14.49406994366657" lon="121.04166214311792"><ele>25.0</ele><time>2026-04-03T23:37:38.999Z</time></trkpt><trkpt lat="14.493979021806414" lon="121.04171172959337"><ele>25.333333333333336</ele><time>2026-04-03T23:37:39.999Z</time></trkpt><trkpt lat="14.493900218083619" lon="121.0417484867134"><ele>25.666666666666668</ele><time>2026-04-03T23:37:40.999Z</time></trkpt><trkpt lat="14.493825755765467" lon="121.04178584706278"><ele>26.0</ele><time>2026-04-03T23:37:41.999Z</time></trkpt><trkpt lat="14.49375509053776" lon="121.04182265907724"><ele>26.333333333333336</ele><time>2026-04-03T23:37:42.999Z</time></trkpt><trkpt lat="14.493669378128617" lon="121.04186902505683"><ele>26.666666666666668</ele><time>2026-04-03T23:37:43.999Z</time></trkpt><trkpt lat="14.493579245912969" lon="121.04191585566"><ele>27.0</ele><time>2026-04-03T23:37:44.999Z</time></trkpt><trkpt lat="14.493483454472912" lon="121.04196791418248"><ele>27.25</ele><time>2026-04-03T23:37:45.999Z</time></trkpt><trkpt lat="14.493381708383094" lon="121.04202239018797"><ele>27.5</ele><time>2026-04-03T23:37:46.999Z</time></trkpt><trkpt lat="14.493272577207067" lon="121.04207771390806"><ele>27.75</ele><time>2026-04-03T23:37:47.999Z</time></trkpt><trkpt lat="14.493158808902221" lon="121.0421350814968"><ele>28.0</ele><time>2026-04-03T23:37:48.999Z</time></trkpt><trkpt lat="14.493042927139566" lon="121.04219595517806"><ele>28.0</ele><time>2026-04-03T23:37:49.999Z</time></trkpt><trkpt lat="14.492922940416502" lon="121.04225902408751"><ele>28.0</ele><time>2026-04-03T23:37:50.999Z</time></trkpt><trkpt lat="14.492807514060223" lon="121.04232350388754"><ele>28.0</ele><time>2026-04-03T23:37:51.999Z</time></trkpt><trkpt lat="14.492684414380415" lon="121.04238241667679"><ele>28.0</ele><time>2026-04-03T23:37:52.999Z</time></trkpt><trkpt lat="14.49255788639272" lon="121.04245072544198"><ele>30.25</ele><time>2026-04-03T23:37:53.999Z</time></trkpt><trkpt lat="14.492437011776596" lon="121.04251483894525"><ele>32.5</ele><time>2026-04-03T23:37:54.999Z</time></trkpt><trkpt lat="14.492303784091083" lon="121.0425890194335"><ele>34.75</ele><time>2026-04-03T23:37:55.999Z</time></trkpt><trkpt lat="14.492176108780233" lon="121.04264564205184"><ele>37.0</ele><time>2026-04-03T23:37:56.999Z</time></trkpt><trkpt lat="14.492041236273607" lon="121.04270245711112"><ele>37.25</ele><time>2026-04-03T23:37:57.999Z</time></trkpt><trkpt lat="14.491925988769859" lon="121.04276701958925"><ele>37.5</ele><time>2026-04-03T23:37:58.999Z</time></trkpt><trkpt lat="14.491803323335205" lon="121.04283136690553"><ele>37.75</ele><time>2026-04-03T23:37:59.999Z</time></trkpt><trkpt lat="14.49167832375571" lon="121.04288712847944"><ele>38.0</ele><time>2026-04-03T23:38:00.999Z</time></trkpt><trkpt lat="14.491567751026338" lon="121.04293613558497"><ele>38.0</ele><time>2026-04-03T23:38:01.999Z</time></trkpt><trkpt lat="14.491453062275877" lon="121.04298132441373"><ele>38.0</ele><time>2026-04-03T23:38:02.999Z</time></trkpt><trkpt lat="14.491359084977008" lon="121.0430219235933"><ele>38.0</ele><time>2026-04-03T23:38:03.999Z</time></trkpt><trkpt lat="14.491268240373302" lon="121.04306207047267"><ele>38.0</ele><time>2026-04-03T23:38:04.999Z</time></trkpt><trkpt lat="14.49115371493075" lon="121.04310046746009"><ele>38.0</ele><time>2026-04-03T23:38:05.999Z</time></trkpt><trkpt lat="14.491061693756336" lon="121.04313891939631"><ele>37.83333333333333</ele><time>2026-04-03T23:38:06.999Z</time></trkpt><trkpt lat="14.490983419645634" lon="121.0431844731484"><ele>37.666666666666664</ele><time>2026-04-03T23:38:07.999Z</time></trkpt><trkpt lat="14.490909030688" lon="121.04322605000354"><ele>37.5</ele><time>2026-04-03T23:38:08.999Z</time></trkpt><trkpt lat="14.490849254593199" lon="121.0432641941697"><ele>37.333333333333336</ele><time>2026-04-03T23:38:09.999Z</time></trkpt><trkpt lat="14.490791133196058" lon="121.04330504540276"><ele>37.16666666666667</ele><time>2026-04-03T23:38:10.999Z</time></trkpt><trkpt lat="14.490729439514583" lon="121.0433420696587"><ele>37.0</ele><time>2026-04-03T23:38:11.999Z</time></trkpt><trkpt lat="14.4906602408522" lon="121.04338898491844"><ele>36.800000000000004</ele><time>2026-04-03T23:38:12.999Z</time></trkpt><trkpt lat="14.490586279885695" lon="121.04343419606748"><ele>36.6</ele><time>2026-04-03T23:38:13.999Z</time></trkpt><trkpt lat="14.49050744892754" lon="121.04348109228164"><ele>36.400000000000006</ele><time>2026-04-03T23:38:14.999Z</time></trkpt><trkpt lat="14.490429729813926" lon="121.04352522787313"><ele>36.2</ele><time>2026-04-03T23:38:15.999Z</time></trkpt><trkpt lat="14.490354068917807" lon="121.04356140498734"><ele>36.0</ele><time>2026-04-03T23:38:16.999Z</time></trkpt><trkpt lat="14.490247912787012" lon="121.04359989678338"><ele>35.666666666666664</ele><time>2026-04-03T23:38:18.999Z</time></trkpt><trkpt lat="14.490155690338783" lon="121.04364823990346"><ele>35.333333333333336</ele><time>2026-04-03T23:38:20.999Z</time></trkpt><trkpt lat="14.490097628751942" lon="121.04367488528045"><ele>35.0</ele><time>2026-04-03T23:38:21.999Z</time></trkpt><trkpt lat="14.490037182699599" lon="121.04370654638177"><ele>34.66666666666667</ele><time>2026-04-03T23:38:22.999Z</time></trkpt><trkpt lat="14.48997741715706" lon="121.04374066710339"><ele>34.333333333333336</ele><time>2026-04-03T23:38:23.999Z</time></trkpt><trkpt lat="14.489864635783595" lon="121.04379345041289"><ele>34.0</ele><time>2026-04-03T23:38:25.999Z</time></trkpt><trkpt lat="14.48977245432939" lon="121.04384097257153"><ele>34.0</ele><time>2026-04-03T23:38:27.999Z</time></trkpt><trkpt lat="14.489657458461577" lon="121.04389137375885"><ele>34.0</ele><time>2026-04-03T23:38:29.999Z</time></trkpt><trkpt lat="14.489599247466082" lon="121.04392312711958"><ele>34.0</ele><time>2026-04-03T23:38:30.999Z</time></trkpt><trkpt lat="14.489535537052337" lon="121.04394200199494"><ele>34.0</ele><time>2026-04-03T23:38:31.999Z</time></trkpt><trkpt lat="14.48945936634904" lon="121.04397357770381"><ele>34.0</ele><time>2026-04-03T23:38:32.999Z</time></trkpt><trkpt lat="14.489396912730697" lon="121.04400090288601"><ele>34.0</ele><time>2026-04-03T23:38:33.999Z</time></trkpt><trkpt lat="14.489334544542823" lon="121.04402793815775"><ele>33.66666666666667</ele><time>2026-04-03T23:38:34.999Z</time></trkpt><trkpt lat="14.489273902416286" lon="121.04405445087924"><ele>33.333333333333336</ele><time>2026-04-03T23:38:35.999Z</time></trkpt><trkpt lat="14.489212281719418" lon="121.04407980114702"><ele>33.0</ele><time>2026-04-03T23:38:36.999Z</time></trkpt><trkpt lat="14.489148866935562" lon="121.04410470610469"><ele>32.666666666666664</ele><time>2026-04-03T23:38:37.999Z</time></trkpt><trkpt lat="14.489080133818712" lon="121.04412631247574"><ele>32.33333333333333</ele><time>2026-04-03T23:38:38.999Z</time></trkpt><trkpt lat="14.488965692292886" lon="121.0441750432198"><ele>32.0</ele><time>2026-04-03T23:38:40.999Z</time></trkpt><trkpt lat="14.488863687248417" lon="121.04419526547973"><ele>31.400000000000002</ele><time>2026-04-03T23:38:42.999Z</time></trkpt><trkpt lat="14.488772147846934" lon="121.0441948641149"><ele>30.800000000000004</ele><time>2026-04-03T23:38:44.999Z</time></trkpt><trkpt lat="14.488659165050434" lon="121.04419210475217"><ele>30.2</ele><time>2026-04-03T23:38:46.999Z</time></trkpt><trkpt lat="14.488549072759996" lon="121.04417929789759"><ele>29.6</ele><time>2026-04-03T23:38:48.999Z</time></trkpt><trkpt lat="14.488486090515373" lon="121.04417748861816"><ele>29.0</ele><time>2026-04-03T23:38:49.999Z</time></trkpt><trkpt lat="14.488388826680763" lon="121.04416856649169"><ele>30.2</ele><time>2026-04-03T23:38:51.999Z</time></trkpt><trkpt lat="14.48827578003822" lon="121.04418697002657"><ele>31.4</ele><time>2026-04-03T23:38:53.999Z</time></trkpt><trkpt lat="14.488208316396445" lon="121.04421337640083"><ele>32.6</ele><time>2026-04-03T23:38:54.999Z</time></trkpt><trkpt lat="14.488123124689203" lon="121.04416450193663"><ele>33.8</ele><time>2026-04-03T23:38:55.999Z</time></trkpt><trkpt lat="14.48803754896164" lon="121.04418177458454"><ele>35.0</ele><time>2026-04-03T23:38:56.999Z</time></trkpt><trkpt lat="14.4879445235602" lon="121.04420055087921"><ele>34.25</ele><time>2026-04-03T23:38:57.999Z</time></trkpt><trkpt lat="14.487840136456798" lon="121.04422169867365"><ele>33.5</ele><time>2026-04-03T23:38:58.999Z</time></trkpt><trkpt lat="14.48772278518686" lon="121.0442470655182"><ele>32.75</ele><time>2026-04-03T23:38:59.999Z</time></trkpt><trkpt lat="14.487603271908494" lon="121.04427336740115"><ele>32.0</ele><time>2026-04-03T23:39:00.999Z</time></trkpt><trkpt lat="14.487504517089059" lon="121.04433944919886"><ele>32.0</ele><time>2026-04-03T23:39:01.999Z</time></trkpt><trkpt lat="14.487378668506606" lon="121.04436229687283"><ele>32.0</ele><time>2026-04-03T23:39:02.999Z</time></trkpt><trkpt lat="14.487263163239703" lon="121.04438326672692"><ele>32.0</ele><time>2026-04-03T23:39:03.999Z</time></trkpt><trkpt lat="14.487161939221837" lon="121.04439960554429"><ele>32.0</ele><time>2026-04-03T23:39:04.999Z</time></trkpt><trkpt lat="14.487078181323641" lon="121.04441315898396"><ele>32.0</ele><time>2026-04-03T23:39:05.999Z</time></trkpt><trkpt lat="14.487000639510425" lon="121.04442570656316"><ele>32.0</ele><time>2026-04-03T23:39:06.999Z</time></trkpt><trkpt lat="14.48692856199216" lon="121.04443670610738"><ele>32.0</ele><time>2026-04-03T23:39:07.999Z</time></trkpt><trkpt lat="14.48681239030992" lon="121.0444625066339"><ele>32.0</ele><time>2026-04-03T23:39:09.999Z</time></trkpt><trkpt lat="14.486682847833158" lon="121.0444592746186"><ele>32.0</ele><time>2026-04-03T23:39:11.999Z</time></trkpt><trkpt lat="14.486540278592848" lon="121.04448476659788"><ele>32.0</ele><time>2026-04-03T23:39:13.999Z</time></trkpt><trkpt lat="14.486431777605794" lon="121.04452339365498"><ele>32.0</ele><time>2026-04-03T23:39:14.999Z</time></trkpt><trkpt lat="14.486349105381384" lon="121.04454303137172"><ele>32.0</ele><time>2026-04-03T23:39:15.999Z</time></trkpt><trkpt lat="14.486245866156608" lon="121.04457623681381"><ele>32.0</ele><time>2026-04-03T23:39:16.999Z</time></trkpt><trkpt lat="14.48615088910079" lon="121.04460678487071"><ele>32.0</ele><time>2026-04-03T23:39:17.999Z</time></trkpt><trkpt lat="14.486062430320736" lon="121.04464304887536"><ele>31.6</ele><time>2026-04-03T23:39:18.999Z</time></trkpt><trkpt lat="14.485980651997922" lon="121.044686206475"><ele>31.200000000000003</ele><time>2026-04-03T23:39:19.999Z</time></trkpt><trkpt lat="14.485892830911377" lon="121.04473130836402"><ele>30.8</ele><time>2026-04-03T23:39:20.999Z</time></trkpt><trkpt lat="14.485810828116339" lon="121.04476911153475"><ele>30.4</ele><time>2026-04-03T23:39:21.999Z</time></trkpt><trkpt lat="14.485734320186085" lon="121.04480830612974"><ele>30.0</ele><time>2026-04-03T23:39:22.999Z</time></trkpt><trkpt lat="14.485645525789087" lon="121.04485237523667"><ele>30.0</ele><time>2026-04-03T23:39:23.999Z</time></trkpt><trkpt lat="14.485546138530292" lon="121.04489484596255"><ele>30.0</ele><time>2026-04-03T23:39:24.999Z</time></trkpt><trkpt lat="14.485422797162645" lon="121.0448710273483"><ele>30.0</ele><time>2026-04-03T23:39:25.999Z</time></trkpt><trkpt lat="14.485314254129282" lon="121.04490458478223"><ele>30.0</ele><time>2026-04-03T23:39:26.999Z</time></trkpt><trkpt lat="14.485203438647481" lon="121.04493543991117"><ele>30.0</ele><time>2026-04-03T23:39:27.999Z</time></trkpt><trkpt lat="14.485101551534648" lon="121.04496114339308"><ele>30.0</ele><time>2026-04-03T23:39:28.999Z</time></trkpt><trkpt lat="14.485020259851325" lon="121.04495786422316"><ele>30.0</ele><time>2026-04-03T23:39:29.999Z</time></trkpt><trkpt lat="14.484911378225709" lon="121.04495588425632"><ele>30.0</ele><time>2026-04-03T23:39:30.999Z</time></trkpt><trkpt lat="14.484813140645624" lon="121.0449597921432"><ele>30.0</ele><time>2026-04-03T23:39:31.999Z</time></trkpt><trkpt lat="14.484702422807839" lon="121.04496419648457"><ele>30.25</ele><time>2026-04-03T23:39:32.999Z</time></trkpt><trkpt lat="14.484591502023592" lon="121.04496488060079"><ele>30.5</ele><time>2026-04-03T23:39:33.999Z</time></trkpt><trkpt lat="14.484462458401818" lon="121.04496582357866"><ele>30.75</ele><time>2026-04-03T23:39:34.999Z</time></trkpt><trkpt lat="14.484329677478593" lon="121.04496657955288"><ele>31.0</ele><time>2026-04-03T23:39:35.999Z</time></trkpt><trkpt lat="14.484195848419317" lon="121.04503199869542"><ele>31.0</ele><time>2026-04-03T23:39:36.999Z</time></trkpt><trkpt lat="14.484053588038359" lon="121.04503496403603"><ele>31.0</ele><time>2026-04-03T23:39:37.999Z</time></trkpt><trkpt lat="14.483915409521074" lon="121.04503651171274"><ele>31.0</ele><time>2026-04-03T23:39:38.999Z</time></trkpt><trkpt lat="14.483752102608317" lon="121.04504312283927"><ele>31.0</ele><time>2026-04-03T23:39:39.999Z</time></trkpt><trkpt lat="14.483610326392217" lon="121.04496803922285"><ele>31.25</ele><time>2026-04-03T23:39:40.999Z</time></trkpt><trkpt lat="14.483487958174587" lon="121.04496803922682"><ele>31.5</ele><time>2026-04-03T23:39:41.999Z</time></trkpt><trkpt lat="14.48334215023673" lon="121.04496803923085"><ele>31.75</ele><time>2026-04-03T23:39:43Z</time></trkpt><trkpt lat="14.483188239194732" lon="121.04496803923182"><ele>32.0</ele><time>2026-04-03T23:39:44Z</time></trkpt><trkpt lat="14.483040679342254" lon="121.04496803923192"><ele>32.25</ele><time>2026-04-03T23:39:45Z</time></trkpt><trkpt lat="14.482889115097313" lon="121.04496803923129"><ele>32.5</ele><time>2026-04-03T23:39:46Z</time></trkpt><trkpt lat="14.482754613430219" lon="121.04496803923085"><ele>32.75</ele><time>2026-04-03T23:39:47Z</time></trkpt><trkpt lat="14.482632746738744" lon="121.04496839070129"><ele>33.0</ele><time>2026-04-03T23:39:48Z</time></trkpt><trkpt lat="14.482504327009838" lon="121.04496898999376"><ele>33.0</ele><time>2026-04-03T23:39:49Z</time></trkpt><trkpt lat="14.482370762594805" lon="121.04496975796867"><ele>33.0</ele><time>2026-04-03T23:39:50Z</time></trkpt><trkpt lat="14.482233752610776" lon="121.04497073922889"><ele>33.0</ele><time>2026-04-03T23:39:51Z</time></trkpt><trkpt lat="14.482097891721766" lon="121.04497073922899"><ele>33.0</ele><time>2026-04-03T23:39:52Z</time></trkpt><trkpt lat="14.481958424841205" lon="121.04504169126413"><ele>33.0</ele><time>2026-04-03T23:39:53Z</time></trkpt><trkpt lat="14.48181862947371" lon="121.0450476299565"><ele>33.0</ele><time>2026-04-03T23:39:54Z</time></trkpt><trkpt lat="14.481677503188344" lon="121.04504351889075"><ele>33.0</ele><time>2026-04-03T23:39:55Z</time></trkpt><trkpt lat="14.481534556814426" lon="121.04504567325277"><ele>33.0</ele><time>2026-04-03T23:39:56Z</time></trkpt><trkpt lat="14.48139029182704" lon="121.0450385606364"><ele>32.75</ele><time>2026-04-03T23:39:57Z</time></trkpt><trkpt lat="14.48126305998848" lon="121.04503751977377"><ele>32.5</ele><time>2026-04-03T23:39:58Z</time></trkpt><trkpt lat="14.4811383300913" lon="121.04496825981455"><ele>32.25</ele><time>2026-04-03T23:39:59Z</time></trkpt><trkpt lat="14.481020035050257" lon="121.04496642891866"><ele>32.0</ele><time>2026-04-03T23:40:00Z</time></trkpt><trkpt lat="14.480893252251517" lon="121.04496425587006"><ele>32.0</ele><time>2026-04-03T23:40:01Z</time></trkpt><trkpt lat="14.48077091907629" lon="121.04496215908742"><ele>32.0</ele><time>2026-04-03T23:40:02Z</time></trkpt><trkpt lat="14.480651494866054" lon="121.04496011216396"><ele>32.0</ele><time>2026-04-03T23:40:03Z</time></trkpt><trkpt lat="14.480531249221992" lon="121.0449590364269"><ele>32.0</ele><time>2026-04-03T23:40:04Z</time></trkpt><trkpt lat="14.48040290927471" lon="121.04496033828052"><ele>32.0</ele><time>2026-04-03T23:40:05Z</time></trkpt><trkpt lat="14.480268554277066" lon="121.04496170075522"><ele>32.0</ele><time>2026-04-03T23:40:06Z</time></trkpt><trkpt lat="14.480134914854451" lon="121.044963055972"><ele>32.0</ele><time>2026-04-03T23:40:07Z</time></trkpt><trkpt lat="14.480003018125531" lon="121.04496428410192"><ele>32.0</ele><time>2026-04-03T23:40:08Z</time></trkpt><trkpt lat="14.47987465403719" lon="121.0449651827198"><ele>32.25</ele><time>2026-04-03T23:40:09Z</time></trkpt><trkpt lat="14.479738986055638" lon="121.04496533961058"><ele>32.5</ele><time>2026-04-03T23:40:10Z</time></trkpt><trkpt lat="14.479600121420958" lon="121.04496553016922"><ele>32.75</ele><time>2026-04-03T23:40:11Z</time></trkpt><trkpt lat="14.47945262288436" lon="121.04496592966265"><ele>33.0</ele><time>2026-04-03T23:40:12Z</time></trkpt><trkpt lat="14.479295694239003" lon="121.04496635469785"><ele>33.666666666666664</ele><time>2026-04-03T23:40:13Z</time></trkpt><trkpt lat="14.479139804967593" lon="121.04496677691574"><ele>34.33333333333333</ele><time>2026-04-03T23:40:14Z</time></trkpt><trkpt lat="14.47897500853852" lon="121.04497087170427"><ele>35.0</ele><time>2026-04-03T23:40:15Z</time></trkpt><trkpt lat="14.478814277656518" lon="121.04497471796397"><ele>35.0</ele><time>2026-04-03T23:40:16Z</time></trkpt><trkpt lat="14.478665912529486" lon="121.04497851008468"><ele>35.0</ele><time>2026-04-03T23:40:17Z</time></trkpt><trkpt lat="14.47852806770837" lon="121.04498173412786"><ele>35.0</ele><time>2026-04-03T23:40:18Z</time></trkpt><trkpt lat="14.478394952682715" lon="121.04498312695988"><ele>35.0</ele><time>2026-04-03T23:40:19Z</time></trkpt><trkpt lat="14.478251677440582" lon="121.04498420923304"><ele>35.0</ele><time>2026-04-03T23:40:20Z</time></trkpt><trkpt lat="14.47812146245119" lon="121.04498525366911"><ele>35.0</ele><time>2026-04-03T23:40:21Z</time></trkpt><trkpt lat="14.478003823460567" lon="121.04498619723375"><ele>35.0</ele><time>2026-04-03T23:40:22Z</time></trkpt><trkpt lat="14.477904851914367" lon="121.04498699107175"><ele>35.0</ele><time>2026-04-03T23:40:23Z</time></trkpt><trkpt lat="14.477804616797496" lon="121.0449882757063"><ele>35.0</ele><time>2026-04-03T23:40:24Z</time></trkpt><trkpt lat="14.477721292520254" lon="121.04498895937627"><ele>34.6</ele><time>2026-04-03T23:40:25Z</time></trkpt><trkpt lat="14.477622708628662" lon="121.0449898133269"><ele>34.2</ele><time>2026-04-03T23:40:26Z</time></trkpt><trkpt lat="14.477525078119756" lon="121.04499065901936"><ele>33.8</ele><time>2026-04-03T23:40:27Z</time></trkpt><trkpt lat="14.477424257836113" lon="121.04498923610892"><ele>33.4</ele><time>2026-04-03T23:40:28Z</time></trkpt><trkpt lat="14.477339354404636" lon="121.04498753866966"><ele>33.0</ele><time>2026-04-03T23:40:29Z</time></trkpt><trkpt lat="14.477268621829086" lon="121.04498612454113"><ele>33.0</ele><time>2026-04-03T23:40:30Z</time></trkpt><trkpt lat="14.477202454434327" lon="121.04498466921474"><ele>33.0</ele><time>2026-04-03T23:40:31Z</time></trkpt><trkpt lat="14.47707887271277" lon="121.04498301508254"><ele>33.0</ele><time>2026-04-03T23:40:33Z</time></trkpt><trkpt lat="14.47696215180575" lon="121.04498344627724"><ele>33.0</ele><time>2026-04-03T23:40:35Z</time></trkpt><trkpt lat="14.476882009868472" lon="121.04498374234193"><ele>33.0</ele><time>2026-04-03T23:40:39Z</time></trkpt><trkpt lat="14.47677409722262" lon="121.04498414099636"><ele>33.6</ele><time>2026-04-03T23:40:41Z</time></trkpt><trkpt lat="14.476666089589251" lon="121.0449841396207"><ele>34.199999999999996</ele><time>2026-04-03T23:40:43Z</time></trkpt><trkpt lat="14.476601454236999" lon="121.0450707489097"><ele>34.8</ele><time>2026-04-03T23:40:44Z</time></trkpt><trkpt lat="14.476514626261048" lon="121.04507991868815"><ele>35.4</ele><time>2026-04-03T23:40:45Z</time></trkpt><trkpt lat="14.47641803784258" lon="121.04507783018988"><ele>36.0</ele><time>2026-04-03T23:40:46Z</time></trkpt><trkpt lat="14.47630986638493" lon="121.04507365787329"><ele>36.2</ele><time>2026-04-03T23:40:47Z</time></trkpt><trkpt lat="14.476188662473271" lon="121.04507309567603"><ele>36.400000000000006</ele><time>2026-04-03T23:40:48Z</time></trkpt><trkpt lat="14.476076291779382" lon="121.04506834876872"><ele>36.6</ele><time>2026-04-03T23:40:49Z</time></trkpt><trkpt lat="14.475968073020171" lon="121.04506791162738"><ele>36.800000000000004</ele><time>2026-04-03T23:40:50Z</time></trkpt><trkpt lat="14.475863039406445" lon="121.04507206993114"><ele>37.0</ele><time>2026-04-03T23:40:51Z</time></trkpt><trkpt lat="14.47576087147918" lon="121.04507373163653"><ele>37.0</ele><time>2026-04-03T23:40:52Z</time></trkpt><trkpt lat="14.475655551887709" lon="121.04507477860415"><ele>37.0</ele><time>2026-04-03T23:40:53Z</time></trkpt><trkpt lat="14.475545640393946" lon="121.0450786721214"><ele>37.0</ele><time>2026-04-03T23:40:54Z</time></trkpt><trkpt lat="14.475446932309023" lon="121.04507622863605"><ele>37.0</ele><time>2026-04-03T23:40:55Z</time></trkpt><trkpt lat="14.475336180176411" lon="121.04507512502528"><ele>37.0</ele><time>2026-04-03T23:40:56Z</time></trkpt><trkpt lat="14.475221415045963" lon="121.04507492754867"><ele>36.75</ele><time>2026-04-03T23:40:57Z</time></trkpt><trkpt lat="14.475105201762155" lon="121.04507519112434"><ele>36.5</ele><time>2026-04-03T23:40:58Z</time></trkpt><trkpt lat="14.474989185210099" lon="121.04499893999093"><ele>36.25</ele><time>2026-04-03T23:40:59Z</time></trkpt><trkpt lat="14.47486686160612" lon="121.04499893999046"><ele>36.0</ele><time>2026-04-03T23:41:00Z</time></trkpt><trkpt lat="14.47473454903622" lon="121.04499893998955"><ele>35.666666666666664</ele><time>2026-04-03T23:41:01Z</time></trkpt><trkpt lat="14.474590004696015" lon="121.04499963523732"><ele>35.33333333333333</ele><time>2026-04-03T23:41:02Z</time></trkpt><trkpt lat="14.474436721065196" lon="121.04500028126985"><ele>35.0</ele><time>2026-04-03T23:41:03Z</time></trkpt><trkpt lat="14.474283773753957" lon="121.0450009258842"><ele>35.0</ele><time>2026-04-03T23:41:04Z</time></trkpt><trkpt lat="14.474131463312254" lon="121.04500156781361"><ele>35.0</ele><time>2026-04-03T23:41:05Z</time></trkpt><trkpt lat="14.473971543080705" lon="121.04500127062332"><ele>35.0</ele><time>2026-04-03T23:41:06Z</time></trkpt><trkpt lat="14.47379678124811" lon="121.04500098801203"><ele>34.0</ele><time>2026-04-03T23:41:07Z</time></trkpt><trkpt lat="14.47361694439978" lon="121.04500069719387"><ele>33.0</ele><time>2026-04-03T23:41:08Z</time></trkpt><trkpt lat="14.473432638101226" lon="121.045000399148"><ele>32.0</ele><time>2026-04-03T23:41:09Z</time></trkpt><trkpt lat="14.473245367346859" lon="121.04500023998227"><ele>32.0</ele><time>2026-04-03T23:41:10Z</time></trkpt><trkpt lat="14.473046630694862" lon="121.04500023998091"><ele>32.0</ele><time>2026-04-03T23:41:11Z</time></trkpt><trkpt lat="14.472849897036504" lon="121.04500023997991"><ele>32.0</ele><time>2026-04-03T23:41:12Z</time></trkpt><trkpt lat="14.472658270820617" lon="121.04500023997744"><ele>31.333333333333332</ele><time>2026-04-03T23:41:13Z</time></trkpt><trkpt lat="14.472457347863106" lon="121.0450002399776"><ele>30.666666666666664</ele><time>2026-04-03T23:41:14Z</time></trkpt><trkpt lat="14.472261721230087" lon="121.04500114311108"><ele>30.0</ele><time>2026-04-03T23:41:15Z</time></trkpt><trkpt lat="14.47206933965366" lon="121.04500317778727"><ele>30.0</ele><time>2026-04-03T23:41:16Z</time></trkpt><trkpt lat="14.471880095351429" lon="121.04500517928275"><ele>30.0</ele><time>2026-04-03T23:41:17Z</time></trkpt><trkpt lat="14.471693488949741" lon="121.04500715288023"><ele>30.0</ele><time>2026-04-03T23:41:18Z</time></trkpt><trkpt lat="14.471495818759015" lon="121.0450092434908"><ele>30.0</ele><time>2026-04-03T23:41:19Z</time></trkpt><trkpt lat="14.471312708954345" lon="121.04501118010711"><ele>30.0</ele><time>2026-04-03T23:41:20Z</time></trkpt><trkpt lat="14.471119632431716" lon="121.04501208229026"><ele>30.0</ele><time>2026-04-03T23:41:21Z</time></trkpt><trkpt lat="14.470949360102583" lon="121.04501164417046"><ele>30.333333333333336</ele><time>2026-04-03T23:41:22Z</time></trkpt><trkpt lat="14.470772659155955" lon="121.04501118950958"><ele>30.666666666666668</ele><time>2026-04-03T23:41:23Z</time></trkpt><trkpt lat="14.470590145016578" lon="121.04501065251847"><ele>31.0</ele><time>2026-04-03T23:41:24Z</time></trkpt><trkpt lat="14.470408955663014" lon="121.04501004387356"><ele>31.0</ele><time>2026-04-03T23:41:25Z</time></trkpt><trkpt lat="14.470222719989392" lon="121.04501112920464"><ele>31.0</ele><time>2026-04-03T23:41:26Z</time></trkpt><trkpt lat="14.470052969230377" lon="121.0450089218797"><ele>31.0</ele><time>2026-04-03T23:41:27Z</time></trkpt><trkpt lat="14.469872813048177" lon="121.04500956343948"><ele>31.0</ele><time>2026-04-03T23:41:28Z</time></trkpt><trkpt lat="14.469715417382725" lon="121.04501076644188"><ele>31.0</ele><time>2026-04-03T23:41:29Z</time></trkpt><trkpt lat="14.469557551433487" lon="121.0450119730374"><ele>31.0</ele><time>2026-04-03T23:41:30Z</time></trkpt><trkpt lat="14.46939715532901" lon="121.04501319897308"><ele>31.333333333333336</ele><time>2026-04-03T23:41:31Z</time></trkpt><trkpt lat="14.469236878787536" lon="121.045014423994"><ele>31.666666666666664</ele><time>2026-04-03T23:41:32Z</time></trkpt><trkpt lat="14.46907396116482" lon="121.04501580258828"><ele>32.0</ele><time>2026-04-03T23:41:33Z</time></trkpt><trkpt lat="14.46891123222842" lon="121.04501764034757"><ele>32.33333333333333</ele><time>2026-04-03T23:41:34Z</time></trkpt><trkpt lat="14.468742633768143" lon="121.04501764034784"><ele>32.666666666666664</ele><time>2026-04-03T23:41:35Z</time></trkpt><trkpt lat="14.468576708263885" lon="121.04501764034856"><ele>33.0</ele><time>2026-04-03T23:41:36Z</time></trkpt><trkpt lat="14.468413191957811" lon="121.0450176403481"><ele>33.0</ele><time>2026-04-03T23:41:37Z</time></trkpt><trkpt lat="14.468247190372518" lon="121.04501800493516"><ele>33.0</ele><time>2026-04-03T23:41:38Z</time></trkpt><trkpt lat="14.468077511806204" lon="121.04501838919643"><ele>33.0</ele><time>2026-04-03T23:41:39Z</time></trkpt><trkpt lat="14.467905795282872" lon="121.04501877807245"><ele>34.0</ele><time>2026-04-03T23:41:40Z</time></trkpt><trkpt lat="14.46773831168947" lon="121.04501915736572"><ele>35.0</ele><time>2026-04-03T23:41:41Z</time></trkpt><trkpt lat="14.46757397796311" lon="121.04502136582322"><ele>36.0</ele><time>2026-04-03T23:41:42Z</time></trkpt><trkpt lat="14.46740792339015" lon="121.04502278661373"><ele>36.0</ele><time>2026-04-03T23:41:43Z</time></trkpt><trkpt lat="14.467243275437239" lon="121.04502419536705"><ele>36.0</ele><time>2026-04-03T23:41:44Z</time></trkpt><trkpt lat="14.467078797962257" lon="121.04502234028516"><ele>36.0</ele><time>2026-04-03T23:41:45Z</time></trkpt><trkpt lat="14.466917215740429" lon="121.04502014859806"><ele>36.666666666666664</ele><time>2026-04-03T23:41:46Z</time></trkpt><trkpt lat="14.466754483413947" lon="121.04501794130083"><ele>37.33333333333333</ele><time>2026-04-03T23:41:47Z</time></trkpt><trkpt lat="14.466588631010008" lon="121.04502315281292"><ele>38.0</ele><time>2026-04-03T23:41:48Z</time></trkpt><trkpt lat="14.466428306715272" lon="121.04502547895852"><ele>38.0</ele><time>2026-04-03T23:41:49Z</time></trkpt><trkpt lat="14.466269472375425" lon="121.04502434035881"><ele>38.0</ele><time>2026-04-03T23:41:50Z</time></trkpt><trkpt lat="14.466108017053735" lon="121.04502677214683"><ele>38.0</ele><time>2026-04-03T23:41:51Z</time></trkpt><trkpt lat="14.465955909037117" lon="121.04502962159002"><ele>38.0</ele><time>2026-04-03T23:41:52Z</time></trkpt><trkpt lat="14.46581876206835" lon="121.04503184566265"><ele>38.0</ele><time>2026-04-03T23:41:53Z</time></trkpt><trkpt lat="14.465673260997015" lon="121.04503272721293"><ele>38.0</ele><time>2026-04-03T23:41:54Z</time></trkpt><trkpt lat="14.465531488648296" lon="121.04503593654766"><ele>38.0</ele><time>2026-04-03T23:41:55Z</time></trkpt><trkpt lat="14.465392509212858" lon="121.04503926511954"><ele>38.0</ele><time>2026-04-03T23:41:56Z</time></trkpt><trkpt lat="14.46525310868386" lon="121.04504267140278"><ele>38.0</ele><time>2026-04-03T23:41:57Z</time></trkpt><trkpt lat="14.465128224734624" lon="121.04504390060156"><ele>38.0</ele><time>2026-04-03T23:41:58Z</time></trkpt><trkpt lat="14.465011548372734" lon="121.04504473843699"><ele>38.0</ele><time>2026-04-03T23:41:59Z</time></trkpt><trkpt lat="14.464913140413968" lon="121.04504544508919"><ele>38.0</ele><time>2026-04-03T23:42:00Z</time></trkpt><trkpt lat="14.464840369221879" lon="121.04504596764907"><ele>38.0</ele><time>2026-04-03T23:42:01Z</time></trkpt><trkpt lat="14.46476245251008" lon="121.04504652715457"><ele>38.0</ele><time>2026-04-03T23:42:02Z</time></trkpt><trkpt lat="14.464649651139291" lon="121.04504733716533"><ele>38.0</ele><time>2026-04-03T23:42:04Z</time></trkpt><trkpt lat="14.464528197719495" lon="121.04504820930458"><ele>38.0</ele><time>2026-04-03T23:42:06Z</time></trkpt><trkpt lat="14.464440586446052" lon="121.04504883842668"><ele>38.0</ele><time>2026-04-03T23:42:08Z</time></trkpt><trkpt lat="14.464349827004444" lon="121.04504949015566"><ele>38.0</ele><time>2026-04-03T23:42:11Z</time></trkpt><trkpt lat="14.4642561803529" lon="121.04505016261898"><ele>38.0</ele><time>2026-04-03T23:42:13Z</time></trkpt><trkpt lat="14.464186852449457" lon="121.04505066045249"><ele>38.0</ele><time>2026-04-03T23:42:14Z</time></trkpt><trkpt lat="14.464113595277077" lon="121.04505118650174"><ele>38.0</ele><time>2026-04-03T23:42:15Z</time></trkpt><trkpt lat="14.46402568291918" lon="121.04505181778718"><ele>38.0</ele><time>2026-04-03T23:42:16Z</time></trkpt><trkpt lat="14.463935250663443" lon="121.04505246716677"><ele>38.0</ele><time>2026-04-03T23:42:17Z</time></trkpt><trkpt lat="14.463832582541308" lon="121.04505320441103"><ele>38.0</ele><time>2026-04-03T23:42:18Z</time></trkpt><trkpt lat="14.463724807833866" lon="121.04505394074235"><ele>38.0</ele><time>2026-04-03T23:42:19Z</time></trkpt><trkpt lat="14.463614583693525" lon="121.04505394074258"><ele>38.0</ele><time>2026-04-03T23:42:20Z</time></trkpt><trkpt lat="14.463503802987434" lon="121.0450539407425"><ele>38.0</ele><time>2026-04-03T23:42:21Z</time></trkpt><trkpt lat="14.463384789641204" lon="121.04505394074243"><ele>37.75</ele><time>2026-04-03T23:42:22Z</time></trkpt><trkpt lat="14.463265124380406" lon="121.04505406010006"><ele>37.5</ele><time>2026-04-03T23:42:23Z</time></trkpt><trkpt lat="14.463137342691592" lon="121.04505437747872"><ele>37.25</ele><time>2026-04-03T23:42:24Z</time></trkpt><trkpt lat="14.463007023696747" lon="121.04505470116001"><ele>37.0</ele><time>2026-04-03T23:42:25Z</time></trkpt><trkpt lat="14.462877325501607" lon="121.04505502329883"><ele>37.0</ele><time>2026-04-03T23:42:26Z</time></trkpt><trkpt lat="14.462738823147552" lon="121.0450555280401"><ele>37.0</ele><time>2026-04-03T23:42:27Z</time></trkpt><trkpt lat="14.462600571364362" lon="121.04505630791134"><ele>37.0</ele><time>2026-04-03T23:42:28Z</time></trkpt><trkpt lat="14.462462024744765" lon="121.04505708944737"><ele>37.0</ele><time>2026-04-03T23:42:29Z</time></trkpt><trkpt lat="14.462319994573397" lon="121.04505789063195"><ele>37.0</ele><time>2026-04-03T23:42:30Z</time></trkpt><trkpt lat="14.462179664755558" lon="121.04505868222661"><ele>37.0</ele><time>2026-04-03T23:42:31Z</time></trkpt><trkpt lat="14.462035205557699" lon="121.04505949711047"><ele>37.0</ele><time>2026-04-03T23:42:32Z</time></trkpt><trkpt lat="14.461906058251657" lon="121.04505761508375"><ele>37.0</ele><time>2026-04-03T23:42:33Z</time></trkpt><trkpt lat="14.461785754899852" lon="121.04505649572312"><ele>37.2</ele><time>2026-04-03T23:42:34Z</time></trkpt><trkpt lat="14.461676829925384" lon="121.04505548223231"><ele>37.400000000000006</ele><time>2026-04-03T23:42:35Z</time></trkpt><trkpt lat="14.461579465694035" lon="121.04505463818516"><ele>37.599999999999994</ele><time>2026-04-03T23:42:36Z</time></trkpt><trkpt lat="14.461481425848229" lon="121.04505381084527"><ele>37.8</ele><time>2026-04-03T23:42:37Z</time></trkpt><trkpt lat="14.461399179927495" lon="121.04505311678551"><ele>38.0</ele><time>2026-04-03T23:42:38Z</time></trkpt><trkpt lat="14.461319501601821" lon="121.04505244475043"><ele>38.4</ele><time>2026-04-03T23:42:39Z</time></trkpt><trkpt lat="14.461256169250833" lon="121.04505191029482"><ele>38.8</ele><time>2026-04-03T23:42:40Z</time></trkpt><trkpt lat="14.461102703970653" lon="121.04505239732173"><ele>39.2</ele><time>2026-04-03T23:42:42Z</time></trkpt><trkpt lat="14.461011299263792" lon="121.04505382607783"><ele>39.6</ele><time>2026-04-03T23:42:43Z</time></trkpt><trkpt lat="14.4609277052276" lon="121.04505513274499"><ele>40.0</ele><time>2026-04-03T23:42:44Z</time></trkpt><trkpt lat="14.460854181609387" lon="121.04505601513175"><ele>40.0</ele><time>2026-04-03T23:42:45Z</time></trkpt><trkpt lat="14.46078007411675" lon="121.0450568760995"><ele>40.0</ele><time>2026-04-03T23:42:46Z</time></trkpt><trkpt lat="14.46071319576678" lon="121.0450576530811"><ele>40.0</ele><time>2026-04-03T23:42:47Z</time></trkpt><trkpt lat="14.460628137998114" lon="121.04505864126767"><ele>40.0</ele><time>2026-04-03T23:42:49Z</time></trkpt><trkpt lat="14.460534825075603" lon="121.04505972536145"><ele>40.0</ele><time>2026-04-03T23:42:52Z</time></trkpt><trkpt lat="14.460469417845752" lon="121.04506048525117"><ele>40.0</ele><time>2026-04-03T23:42:53Z</time></trkpt><trkpt lat="14.460391108534733" lon="121.04506139503538"><ele>40.4</ele><time>2026-04-03T23:42:54Z</time></trkpt><trkpt lat="14.460301355953174" lon="121.0450624377629"><ele>40.8</ele><time>2026-04-03T23:42:55Z</time></trkpt><trkpt lat="14.460201176971072" lon="121.04506171948108"><ele>41.2</ele><time>2026-04-03T23:42:56Z</time></trkpt><trkpt lat="14.460090263588526" lon="121.04506154762568"><ele>41.6</ele><time>2026-04-03T23:42:57Z</time></trkpt><trkpt lat="14.459974525272965" lon="121.04506136829424"><ele>42.0</ele><time>2026-04-03T23:42:58Z</time></trkpt><trkpt lat="14.459857148012642" lon="121.04506118642291"><ele>42.0</ele><time>2026-04-03T23:42:59Z</time></trkpt><trkpt lat="14.45974327784272" lon="121.04506100998546"><ele>42.0</ele><time>2026-04-03T23:43:00Z</time></trkpt><trkpt lat="14.459627598126296" lon="121.04506083074465"><ele>42.0</ele><time>2026-04-03T23:43:01Z</time></trkpt><trkpt lat="14.459520733123556" lon="121.0450606651609"><ele>42.0</ele><time>2026-04-03T23:43:02Z</time></trkpt><trkpt lat="14.459415485834697" lon="121.04506312953943"><ele>42.0</ele><time>2026-04-03T23:43:03Z</time></trkpt><trkpt lat="14.459313786373643" lon="121.04506281849909"><ele>42.0</ele><time>2026-04-03T23:43:04Z</time></trkpt><trkpt lat="14.459214602300802" lon="121.04506239055601"><ele>42.0</ele><time>2026-04-03T23:43:05Z</time></trkpt><trkpt lat="14.459100856915574" lon="121.04506194111225"><ele>42.0</ele><time>2026-04-03T23:43:06Z</time></trkpt><trkpt lat="14.458986482735234" lon="121.04506194111195"><ele>42.0</ele><time>2026-04-03T23:43:07Z</time></trkpt><trkpt lat="14.458876125846855" lon="121.04506194111185"><ele>42.0</ele><time>2026-04-03T23:43:08Z</time></trkpt><trkpt lat="14.458764034151507" lon="121.04506194111197"><ele>41.8</ele><time>2026-04-03T23:43:09Z</time></trkpt><trkpt lat="14.458658311426499" lon="121.04506194111195"><ele>41.6</ele><time>2026-04-03T23:43:10Z</time></trkpt><trkpt lat="14.458556183576308" lon="121.0450619411116"><ele>41.4</ele><time>2026-04-03T23:43:11Z</time></trkpt><trkpt lat="14.458443547904256" lon="121.04506875004026"><ele>41.199999999999996</ele><time>2026-04-03T23:43:12Z</time></trkpt><trkpt lat="14.458334260936503" lon="121.04507385829388"><ele>41.0</ele><time>2026-04-03T23:43:13Z</time></trkpt><trkpt lat="14.45822509097613" lon="121.04507896107829"><ele>41.0</ele><time>2026-04-03T23:43:14Z</time></trkpt><trkpt lat="14.458111853837393" lon="121.04508425396979"><ele>41.0</ele><time>2026-04-03T23:43:15Z</time></trkpt><trkpt lat="14.458008585286075" lon="121.04508942633277"><ele>41.0</ele><time>2026-04-03T23:43:16Z</time></trkpt><trkpt lat="14.457894111839769" lon="121.04510080862411"><ele>41.0</ele><time>2026-04-03T23:43:17Z</time></trkpt><trkpt lat="14.457778677953543" lon="121.04509974780589"><ele>41.0</ele><time>2026-04-03T23:43:18Z</time></trkpt><trkpt lat="14.457658688614842" lon="121.04509611451533"><ele>40.0</ele><time>2026-04-03T23:43:19Z</time></trkpt><trkpt lat="14.457531286881048" lon="121.04509980531193"><ele>39.0</ele><time>2026-04-03T23:43:20Z</time></trkpt><trkpt lat="14.457404901296966" lon="121.04510389870974"><ele>38.0</ele><time>2026-04-03T23:43:21Z</time></trkpt><trkpt lat="14.457275239975559" lon="121.04511287988915"><ele>37.0</ele><time>2026-04-03T23:43:22Z</time></trkpt><trkpt lat="14.457140224483492" lon="121.04511492455853"><ele>36.75</ele><time>2026-04-03T23:43:23Z</time></trkpt><trkpt lat="14.457002488340919" lon="121.04511664577527"><ele>36.5</ele><time>2026-04-03T23:43:24Z</time></trkpt><trkpt lat="14.456863485979081" lon="121.04512365787886"><ele>36.25</ele><time>2026-04-03T23:43:25Z</time></trkpt><trkpt lat="14.456720160041105" lon="121.04512181921997"><ele>36.0</ele><time>2026-04-03T23:43:26Z</time></trkpt><trkpt lat="14.456585374513049" lon="121.04512527892511"><ele>36.0</ele><time>2026-04-03T23:43:27Z</time></trkpt><trkpt lat="14.456462260430905" lon="121.04512329751228"><ele>36.0</ele><time>2026-04-03T23:43:28Z</time></trkpt><trkpt lat="14.456344778160465" lon="121.04512272883056"><ele>36.0</ele><time>2026-04-03T23:43:29Z</time></trkpt><trkpt lat="14.456241341898757" lon="121.04511334129187"><ele>36.0</ele><time>2026-04-03T23:43:30Z</time></trkpt><trkpt lat="14.456158912598104" lon="121.04512856170827"><ele>36.0</ele><time>2026-04-03T23:43:31Z</time></trkpt><trkpt lat="14.456080828524353" lon="121.04511286596781"><ele>36.4</ele><time>2026-04-03T23:43:32Z</time></trkpt><trkpt lat="14.455988751301994" lon="121.04511079573398"><ele>36.8</ele><time>2026-04-03T23:43:33Z</time></trkpt><trkpt lat="14.455898682263417" lon="121.04510968585899"><ele>37.199999999999996</ele><time>2026-04-03T23:43:34Z</time></trkpt><trkpt lat="14.455792351399513" lon="121.04510869451617"><ele>37.6</ele><time>2026-04-03T23:43:35Z</time></trkpt><trkpt lat="14.455683418018403" lon="121.04510767890721"><ele>38.0</ele><time>2026-04-03T23:43:36Z</time></trkpt><trkpt lat="14.455580276012496" lon="121.04509191660539"><ele>38.0</ele><time>2026-04-03T23:43:37Z</time></trkpt><trkpt lat="14.455466846037249" lon="121.04507216536878"><ele>38.0</ele><time>2026-04-03T23:43:38Z</time></trkpt><trkpt lat="14.45535146514574" lon="121.04504186802511"><ele>38.0</ele><time>2026-04-03T23:43:39Z</time></trkpt><trkpt lat="14.455248468698784" lon="121.04500253174051"><ele>38.0</ele><time>2026-04-03T23:43:40Z</time></trkpt><trkpt lat="14.45513192353633" lon="121.04495654318865"><ele>36.5</ele><time>2026-04-03T23:43:41Z</time></trkpt><trkpt lat="14.45502048931983" lon="121.04491308122151"><ele>35.0</ele><time>2026-04-03T23:43:42Z</time></trkpt><trkpt lat="14.454898553321563" lon="121.04486552330717"><ele>33.5</ele><time>2026-04-03T23:43:43Z</time></trkpt><trkpt lat="14.454779758906845" lon="121.04481953415606"><ele>32.0</ele><time>2026-04-03T23:43:44Z</time></trkpt><trkpt lat="14.45466789805868" lon="121.0447802578151"><ele>31.8</ele><time>2026-04-03T23:43:45Z</time></trkpt><trkpt lat="14.454567538180207" lon="121.04474501966712"><ele>31.6</ele><time>2026-04-03T23:43:46Z</time></trkpt><trkpt lat="14.454470296979103" lon="121.04471087654822"><ele>31.400000000000002</ele><time>2026-04-03T23:43:47Z</time></trkpt><trkpt lat="14.454386048482702" lon="121.04468277636154"><ele>31.200000000000003</ele><time>2026-04-03T23:43:48Z</time></trkpt><trkpt lat="14.454313070795472" lon="121.04465926089006"><ele>31.0</ele><time>2026-04-03T23:43:49Z</time></trkpt><trkpt lat="14.45423037150055" lon="121.04463261279183"><ele>31.000000000000004</ele><time>2026-04-03T23:43:51Z</time></trkpt><trkpt lat="14.454164851045809" lon="121.04463620647442"><ele>31.0</ele><time>2026-04-03T23:43:53Z</time></trkpt><trkpt lat="14.45409913517208" lon="121.0446229992613"><ele>31.0</ele><time>2026-04-03T23:43:55Z</time></trkpt><trkpt lat="14.454000340555673" lon="121.04460752529808"><ele>31.0</ele><time>2026-04-03T23:43:57Z</time></trkpt><trkpt lat="14.453877496708495" lon="121.04461535941466"><ele>31.000000000000004</ele><time>2026-04-03T23:43:59Z</time></trkpt><trkpt lat="14.453807616387815" lon="121.04462626930764"><ele>31.0</ele><time>2026-04-03T23:44:00Z</time></trkpt><trkpt lat="14.453724163398935" lon="121.04462252830484"><ele>30.0</ele><time>2026-04-03T23:44:01Z</time></trkpt><trkpt lat="14.453644434865916" lon="121.04463301743014"><ele>29.0</ele><time>2026-04-03T23:44:02Z</time></trkpt><trkpt lat="14.453571402310848" lon="121.04465598811586"><ele>28.0</ele><time>2026-04-03T23:44:03Z</time></trkpt><trkpt lat="14.453468489789769" lon="121.04467279868787"><ele>27.0</ele><time>2026-04-03T23:44:05Z</time></trkpt><trkpt lat="14.453342792142513" lon="121.04471398948549"><ele>26.0</ele><time>2026-04-03T23:44:07Z</time></trkpt><trkpt lat="14.453250278007129" lon="121.04475638102117"><ele>26.0</ele><time>2026-04-03T23:44:08Z</time></trkpt><trkpt lat="14.453144774105974" lon="121.04481672441513"><ele>26.0</ele><time>2026-04-03T23:44:09Z</time></trkpt><trkpt lat="14.453041423885702" lon="121.04487725167841"><ele>26.0</ele><time>2026-04-03T23:44:10Z</time></trkpt><trkpt lat="14.45294392311615" lon="121.04492528932737"><ele>26.0</ele><time>2026-04-03T23:44:11Z</time></trkpt><trkpt lat="14.452863644164252" lon="121.0449575140644"><ele>26.0</ele><time>2026-04-03T23:44:12Z</time></trkpt><trkpt lat="14.452794131269197" lon="121.04498534517958"><ele>24.75</ele><time>2026-04-03T23:44:13Z</time></trkpt><trkpt lat="14.45269947161153" lon="121.04494221734117"><ele>23.5</ele><time>2026-04-03T23:44:14Z</time></trkpt><trkpt lat="14.452664638688118" lon="121.0450193159991"><ele>22.25</ele><time>2026-04-03T23:44:15Z</time></trkpt><trkpt lat="14.452466676015991" lon="121.04506341864905"><ele>21.0</ele><time>2026-04-03T23:44:17Z</time></trkpt><trkpt lat="14.452347109721671" lon="121.045094359044"><ele>20.5</ele><time>2026-04-03T23:44:18Z</time></trkpt><trkpt lat="14.452217299468076" lon="121.04511753542708"><ele>20.0</ele><time>2026-04-03T23:44:19Z</time></trkpt><trkpt lat="14.452079633874309" lon="121.0451333504288"><ele>19.5</ele><time>2026-04-03T23:44:20Z</time></trkpt><trkpt lat="14.451939965502506" lon="121.04514391438994"><ele>19.0</ele><time>2026-04-03T23:44:21Z</time></trkpt><trkpt lat="14.451808589626621" lon="121.04514900806633"><ele>17.5</ele><time>2026-04-03T23:44:22Z</time></trkpt><trkpt lat="14.451684841661903" lon="121.04515397290142"><ele>16.0</ele><time>2026-04-03T23:44:23Z</time></trkpt><trkpt lat="14.451567698734463" lon="121.045160839629"><ele>14.5</ele><time>2026-04-03T23:44:24Z</time></trkpt><trkpt lat="14.451463639496819" lon="121.04516026071623"><ele>13.0</ele><time>2026-04-03T23:44:25Z</time></trkpt><trkpt lat="14.451358143978721" lon="121.04515826813457"><ele>14.4</ele><time>2026-04-03T23:44:26Z</time></trkpt><trkpt lat="14.45126016951045" lon="121.04515872607944"><ele>15.8</ele><time>2026-04-03T23:44:27Z</time></trkpt><trkpt lat="14.451163259851503" lon="121.04516123473753"><ele>17.2</ele><time>2026-04-03T23:44:28Z</time></trkpt><trkpt lat="14.45106790081633" lon="121.04516358560909"><ele>18.6</ele><time>2026-04-03T23:44:29Z</time></trkpt><trkpt lat="14.450970645391513" lon="121.04516598628547"><ele>20.0</ele><time>2026-04-03T23:44:30Z</time></trkpt><trkpt lat="14.450883341650753" lon="121.04516653903748"><ele>20.0</ele><time>2026-04-03T23:44:31Z</time></trkpt><trkpt lat="14.450809449777712" lon="121.04517049875508"><ele>20.0</ele><time>2026-04-03T23:44:32Z</time></trkpt><trkpt lat="14.45070396365199" lon="121.04510280597522"><ele>20.0</ele><time>2026-04-03T23:44:34Z</time></trkpt><trkpt lat="14.45064953806526" lon="121.04517426875293"><ele>20.0</ele><time>2026-04-03T23:44:35Z</time></trkpt><trkpt lat="14.450579494040253" lon="121.04517622671263"><ele>20.0</ele><time>2026-04-03T23:44:36Z</time></trkpt><trkpt lat="14.450494990331908" lon="121.045176417516"><ele>20.0</ele><time>2026-04-03T23:44:37Z</time></trkpt><trkpt lat="14.450403009655988" lon="121.04517817624458"><ele>19.8</ele><time>2026-04-03T23:44:38Z</time></trkpt><trkpt lat="14.450300717560168" lon="121.04517739497331"><ele>19.6</ele><time>2026-04-03T23:44:39Z</time></trkpt><trkpt lat="14.450190273475648" lon="121.04517697482508"><ele>19.4</ele><time>2026-04-03T23:44:40Z</time></trkpt><trkpt lat="14.450076261262812" lon="121.04517812843972"><ele>19.2</ele><time>2026-04-03T23:44:41Z</time></trkpt><trkpt lat="14.44995609232175" lon="121.04517983916345"><ele>19.0</ele><time>2026-04-03T23:44:42Z</time></trkpt><trkpt lat="14.449832781611915" lon="121.0451814254855"><ele>19.0</ele><time>2026-04-03T23:44:43Z</time></trkpt><trkpt lat="14.449705307839226" lon="121.04518108673412"><ele>19.0</ele><time>2026-04-03T23:44:44Z</time></trkpt><trkpt lat="14.449579658151539" lon="121.04518328075608"><ele>19.0</ele><time>2026-04-03T23:44:45Z</time></trkpt><trkpt lat="14.449463166970189" lon="121.04518272173627"><ele>19.0</ele><time>2026-04-03T23:44:46Z</time></trkpt><trkpt lat="14.449351352748169" lon="121.04518457270247"><ele>18.599999999999998</ele><time>2026-04-03T23:44:47Z</time></trkpt><trkpt lat="14.449249301473417" lon="121.04518611723039"><ele>18.2</ele><time>2026-04-03T23:44:48Z</time></trkpt><trkpt lat="14.449149521484483" lon="121.04518457071343"><ele>17.799999999999997</ele><time>2026-04-03T23:44:49Z</time></trkpt><trkpt lat="14.449037939117607" lon="121.04518489289171"><ele>17.4</ele><time>2026-04-03T23:44:50Z</time></trkpt><trkpt lat="14.448935760015685" lon="121.04518704426462"><ele>17.0</ele><time>2026-04-03T23:44:51Z</time></trkpt><trkpt lat="14.44883354069461" lon="121.04518585039887"><ele>16.4</ele><time>2026-04-03T23:44:52Z</time></trkpt><trkpt lat="14.448724668259278" lon="121.04518614949846"><ele>15.799999999999999</ele><time>2026-04-03T23:44:53Z</time></trkpt><trkpt lat="14.448618574248469" lon="121.04518597786924"><ele>15.2</ele><time>2026-04-03T23:44:54Z</time></trkpt><trkpt lat="14.44850984804572" lon="121.04518755045753"><ele>14.6</ele><time>2026-04-03T23:44:55Z</time></trkpt><trkpt lat="14.44840000793845" lon="121.04519017885174"><ele>14.0</ele><time>2026-04-03T23:44:56Z</time></trkpt><trkpt lat="14.448292425124713" lon="121.04518685062465"><ele>14.0</ele><time>2026-04-03T23:44:57Z</time></trkpt><trkpt lat="14.448179915658347" lon="121.04518904556583"><ele>13.999999999999998</ele><time>2026-04-03T23:44:58Z</time></trkpt><trkpt lat="14.448081415024994" lon="121.04518864631979"><ele>13.999999999999998</ele><time>2026-04-03T23:44:59Z</time></trkpt><trkpt lat="14.447988392163257" lon="121.04519138795652"><ele>14.0</ele><time>2026-04-03T23:45:00Z</time></trkpt><trkpt lat="14.447892316961656" lon="121.04519539881879"><ele>14.0</ele><time>2026-04-03T23:45:01Z</time></trkpt><trkpt lat="14.447794222310716" lon="121.04520154900275"><ele>14.2</ele><time>2026-04-03T23:45:02Z</time></trkpt><trkpt lat="14.447687777486287" lon="121.04520286404043"><ele>14.399999999999999</ele><time>2026-04-03T23:45:03Z</time></trkpt><trkpt lat="14.44759015676112" lon="121.04520700211502"><ele>14.6</ele><time>2026-04-03T23:45:04Z</time></trkpt><trkpt lat="14.447488508782842" lon="121.04520931851165"><ele>14.8</ele><time>2026-04-03T23:45:05Z</time></trkpt><trkpt lat="14.447371212387061" lon="121.04521221074285"><ele>15.0</ele><time>2026-04-03T23:45:06Z</time></trkpt><trkpt lat="14.447240928670736" lon="121.04520984439166"><ele>15.5</ele><time>2026-04-03T23:45:07Z</time></trkpt><trkpt lat="14.447095097618417" lon="121.0452090201695"><ele>16.0</ele><time>2026-04-03T23:45:08Z</time></trkpt><trkpt lat="14.446955688463374" lon="121.04520837808987"><ele>16.5</ele><time>2026-04-03T23:45:09Z</time></trkpt><trkpt lat="14.446822023399813" lon="121.04520945186063"><ele>17.0</ele><time>2026-04-03T23:45:10Z</time></trkpt><trkpt lat="14.446693097267971" lon="121.0452126412873"><ele>17.0</ele><time>2026-04-03T23:45:11Z</time></trkpt><trkpt lat="14.44657781573121" lon="121.04521608075468"><ele>17.0</ele><time>2026-04-03T23:45:12Z</time></trkpt><trkpt lat="14.446461885203584" lon="121.04521924207972"><ele>17.0</ele><time>2026-04-03T23:45:13Z</time></trkpt><trkpt lat="14.446334627463287" lon="121.04521457643379"><ele>17.0</ele><time>2026-04-03T23:45:14Z</time></trkpt><trkpt lat="14.446195869637608" lon="121.04521290224734"><ele>17.333333333333336</ele><time>2026-04-03T23:45:15Z</time></trkpt><trkpt lat="14.446045886691515" lon="121.04521209096913"><ele>17.666666666666668</ele><time>2026-04-03T23:45:16Z</time></trkpt><trkpt lat="14.44588735542689" lon="121.04521481836494"><ele>18.0</ele><time>2026-04-03T23:45:17Z</time></trkpt><trkpt lat="14.44573033691826" lon="121.0452139117255"><ele>18.0</ele><time>2026-04-03T23:45:18Z</time></trkpt><trkpt lat="14.445571578162859" lon="121.0452099909512"><ele>18.0</ele><time>2026-04-03T23:45:19Z</time></trkpt><trkpt lat="14.445410267710237" lon="121.0452078686618"><ele>18.0</ele><time>2026-04-03T23:45:20Z</time></trkpt><trkpt lat="14.445252656430288" lon="121.04520258062452"><ele>17.333333333333332</ele><time>2026-04-03T23:45:21Z</time></trkpt><trkpt lat="14.445099532628927" lon="121.0452015676962"><ele>16.666666666666664</ele><time>2026-04-03T23:45:22Z</time></trkpt><trkpt lat="14.44494691425471" lon="121.04519874374851"><ele>16.0</ele><time>2026-04-03T23:45:23Z</time></trkpt><trkpt lat="14.444784887347978" lon="121.04518707756442"><ele>16.666666666666664</ele><time>2026-04-03T23:45:24Z</time></trkpt><trkpt lat="14.44462817669681" lon="121.0451780092182"><ele>17.333333333333332</ele><time>2026-04-03T23:45:25Z</time></trkpt><trkpt lat="14.44447732251092" lon="121.04518921795464"><ele>18.0</ele><time>2026-04-03T23:45:26Z</time></trkpt><trkpt lat="14.444329940133986" lon="121.04517649238596"><ele>18.0</ele><time>2026-04-03T23:45:27Z</time></trkpt><trkpt lat="14.44418964329854" lon="121.04517750379557"><ele>18.0</ele><time>2026-04-03T23:45:28Z</time></trkpt><trkpt lat="14.444069925544484" lon="121.0451766110147"><ele>18.0</ele><time>2026-04-03T23:45:29Z</time></trkpt><trkpt lat="14.443941131937926" lon="121.04518959713172"><ele>18.0</ele><time>2026-04-03T23:45:30Z</time></trkpt><trkpt lat="14.443817642727328" lon="121.04517182529854"><ele>17.75</ele><time>2026-04-03T23:45:31Z</time></trkpt><trkpt lat="14.443684741430655" lon="121.04517510960808"><ele>17.5</ele><time>2026-04-03T23:45:32Z</time></trkpt><trkpt lat="14.443563252427547" lon="121.04517085311566"><ele>17.25</ele><time>2026-04-03T23:45:33Z</time></trkpt><trkpt lat="14.443439008077323" lon="121.04516608501123"><ele>17.0</ele><time>2026-04-03T23:45:34Z</time></trkpt><trkpt lat="14.443305860963704" lon="121.04516923556464"><ele>17.0</ele><time>2026-04-03T23:45:35Z</time></trkpt><trkpt lat="14.443183438623297" lon="121.04516584700974"><ele>17.0</ele><time>2026-04-03T23:45:36Z</time></trkpt><trkpt lat="14.443062299690864" lon="121.04517536351011"><ele>17.0</ele><time>2026-04-03T23:45:37Z</time></trkpt><trkpt lat="14.442946247271053" lon="121.04517965194458"><ele>17.0</ele><time>2026-04-03T23:45:38Z</time></trkpt><trkpt lat="14.442828816004356" lon="121.04518127596785"><ele>16.6</ele><time>2026-04-03T23:45:39Z</time></trkpt><trkpt lat="14.442723372973559" lon="121.04518477242199"><ele>16.2</ele><time>2026-04-03T23:45:40Z</time></trkpt><trkpt lat="14.442628415853086" lon="121.04514104216416"><ele>15.8</ele><time>2026-04-03T23:45:41Z</time></trkpt><trkpt lat="14.442526213261395" lon="121.04519268934337"><ele>15.4</ele><time>2026-04-03T23:45:42Z</time></trkpt><trkpt lat="14.442418609631243" lon="121.04519243058994"><ele>15.0</ele><time>2026-04-03T23:45:43Z</time></trkpt><trkpt lat="14.442318533499948" lon="121.04519501041024"><ele>15.0</ele><time>2026-04-03T23:45:44Z</time></trkpt><trkpt lat="14.442210646618323" lon="121.0451991929997"><ele>15.0</ele><time>2026-04-03T23:45:45Z</time></trkpt><trkpt lat="14.442105726121806" lon="121.04520532210923"><ele>15.0</ele><time>2026-04-03T23:45:46Z</time></trkpt><trkpt lat="14.442001801369152" lon="121.04520851516565"><ele>15.0</ele><time>2026-04-03T23:45:47Z</time></trkpt><trkpt lat="14.44190494461797" lon="121.04520872546644"><ele>15.0</ele><time>2026-04-03T23:45:48Z</time></trkpt><trkpt lat="14.441816947692029" lon="121.04520871223959"><ele>15.2</ele><time>2026-04-03T23:45:49Z</time></trkpt><trkpt lat="14.44172329659718" lon="121.04521273950328"><ele>15.4</ele><time>2026-04-03T23:45:50Z</time></trkpt><trkpt lat="14.441629077931047" lon="121.04521241121863"><ele>15.600000000000001</ele><time>2026-04-03T23:45:51Z</time></trkpt><trkpt lat="14.441534785439828" lon="121.04521329859526"><ele>15.8</ele><time>2026-04-03T23:45:52Z</time></trkpt><trkpt lat="14.4414415202469" lon="121.04521477311751"><ele>16.0</ele><time>2026-04-03T23:45:53Z</time></trkpt><trkpt lat="14.441343284049436" lon="121.04521692309329"><ele>16.6</ele><time>2026-04-03T23:45:54Z</time></trkpt><trkpt lat="14.441240046949174" lon="121.04521788590847"><ele>17.200000000000003</ele><time>2026-04-03T23:45:55Z</time></trkpt><trkpt lat="14.441137855258185" lon="121.0452107596338"><ele>17.799999999999997</ele><time>2026-04-03T23:45:56Z</time></trkpt><trkpt lat="14.441032524203878" lon="121.04521881395065"><ele>18.4</ele><time>2026-04-03T23:45:57Z</time></trkpt><trkpt lat="14.4409319155327" lon="121.04522237061911"><ele>19.0</ele><time>2026-04-03T23:45:58Z</time></trkpt><trkpt lat="14.44083652557247" lon="121.04521532022628"><ele>19.0</ele><time>2026-04-03T23:45:59Z</time></trkpt><trkpt lat="14.440742048886896" lon="121.04521636255598"><ele>19.0</ele><time>2026-04-03T23:46:00Z</time></trkpt><trkpt lat="14.440650028072943" lon="121.04521542898712"><ele>19.0</ele><time>2026-04-03T23:46:01Z</time></trkpt><trkpt lat="14.440555049173343" lon="121.04521715493385"><ele>19.0</ele><time>2026-04-03T23:46:02Z</time></trkpt><trkpt lat="14.440460175427035" lon="121.04521461540516"><ele>19.0</ele><time>2026-04-03T23:46:03Z</time></trkpt><trkpt lat="14.440356784604823" lon="121.0452242387774"><ele>18.833333333333332</ele><time>2026-04-03T23:46:04Z</time></trkpt><trkpt lat="14.440256857381632" lon="121.04522692721368"><ele>18.666666666666664</ele><time>2026-04-03T23:46:05Z</time></trkpt><trkpt lat="14.44015494155742" lon="121.0452238259489"><ele>18.5</ele><time>2026-04-03T23:46:06Z</time></trkpt><trkpt lat="14.44007043056861" lon="121.0452247968397"><ele>18.333333333333332</ele><time>2026-04-03T23:46:07Z</time></trkpt><trkpt lat="14.44000430267569" lon="121.04521279294144"><ele>18.166666666666668</ele><time>2026-04-03T23:46:08Z</time></trkpt><trkpt lat="14.439932324328504" lon="121.04521367535266"><ele>18.0</ele><time>2026-04-03T23:46:09Z</time></trkpt><trkpt lat="14.439807437693771" lon="121.04520318987238"><ele>18.0</ele><time>2026-04-03T23:46:11Z</time></trkpt><trkpt lat="14.439731127960433" lon="121.04520467522417"><ele>18.0</ele><time>2026-04-03T23:46:12Z</time></trkpt><trkpt lat="14.439645579551494" lon="121.045204250821"><ele>18.0</ele><time>2026-04-03T23:46:13Z</time></trkpt><trkpt lat="14.439545177146336" lon="121.0452046369792"><ele>18.0</ele><time>2026-04-03T23:46:14Z</time></trkpt><trkpt lat="14.439432604906443" lon="121.04520276994502"><ele>18.0</ele><time>2026-04-03T23:46:15Z</time></trkpt><trkpt lat="14.439312610652607" lon="121.0452025141012"><ele>17.333333333333332</ele><time>2026-04-03T23:46:16Z</time></trkpt><trkpt lat="14.439190913076521" lon="121.0451039171504"><ele>16.666666666666664</ele><time>2026-04-03T23:46:17Z</time></trkpt><trkpt lat="14.439058188934554" lon="121.04520151265716"><ele>16.0</ele><time>2026-04-03T23:46:18Z</time></trkpt><trkpt lat="14.43892315358599" lon="121.04518910896991"><ele>15.25</ele><time>2026-04-03T23:46:19Z</time></trkpt><trkpt lat="14.43879031873996" lon="121.04518390606906"><ele>14.5</ele><time>2026-04-03T23:46:20Z</time></trkpt><trkpt lat="14.438659923143286" lon="121.0451803066298"><ele>13.75</ele><time>2026-04-03T23:46:21Z</time></trkpt><trkpt lat="14.438527136928752" lon="121.04518283639607"><ele>13.0</ele><time>2026-04-03T23:46:22Z</time></trkpt><trkpt lat="14.438400477577675" lon="121.04518412988257"><ele>13.0</ele><time>2026-04-03T23:46:23Z</time></trkpt><trkpt lat="14.438278052415681" lon="121.04518620242983"><ele>13.0</ele><time>2026-04-03T23:46:24Z</time></trkpt><trkpt lat="14.4381517072535" lon="121.04518701185681"><ele>13.0</ele><time>2026-04-03T23:46:25Z</time></trkpt><trkpt lat="14.438026680453252" lon="121.04518434975539"><ele>13.0</ele><time>2026-04-03T23:46:26Z</time></trkpt><trkpt lat="14.437894414621846" lon="121.0451886023646"><ele>12.25</ele><time>2026-04-03T23:46:27Z</time></trkpt><trkpt lat="14.437768379181318" lon="121.04518359156143"><ele>11.5</ele><time>2026-04-03T23:46:28Z</time></trkpt><trkpt lat="14.437646555127097" lon="121.04518181910744"><ele>10.75</ele><time>2026-04-03T23:46:29Z</time></trkpt><trkpt lat="14.437514136109783" lon="121.04518440143273"><ele>10.0</ele><time>2026-04-03T23:46:30Z</time></trkpt><trkpt lat="14.437382099513401" lon="121.04518270583782"><ele>10.0</ele><time>2026-04-03T23:46:31Z</time></trkpt><trkpt lat="14.437249351187814" lon="121.04518416888835"><ele>10.0</ele><time>2026-04-03T23:46:32Z</time></trkpt><trkpt lat="14.43711245152738" lon="121.04519146842351"><ele>10.0</ele><time>2026-04-03T23:46:33Z</time></trkpt><trkpt lat="14.436972841236868" lon="121.04519525403131"><ele>10.0</ele><time>2026-04-03T23:46:34Z</time></trkpt><trkpt lat="14.43683407651868" lon="121.04520086798284"><ele>10.25</ele><time>2026-04-03T23:46:35Z</time></trkpt><trkpt lat="14.43669854017963" lon="121.04520651129725"><ele>10.5</ele><time>2026-04-03T23:46:36Z</time></trkpt><trkpt lat="14.436570949620116" lon="121.04521214354273"><ele>10.75</ele><time>2026-04-03T23:46:37Z</time></trkpt><trkpt lat="14.436449198998245" lon="121.04522099601775"><ele>11.0</ele><time>2026-04-03T23:46:38Z</time></trkpt><trkpt lat="14.436332395880985" lon="121.04522561287558"><ele>11.200000000000001</ele><time>2026-04-03T23:46:39Z</time></trkpt><trkpt lat="14.436222658498842" lon="121.04522740630391"><ele>11.4</ele><time>2026-04-03T23:46:40Z</time></trkpt><trkpt lat="14.436123665746635" lon="121.0452372459445"><ele>11.6</ele><time>2026-04-03T23:46:41Z</time></trkpt><trkpt lat="14.436019054779955" lon="121.0452418453628"><ele>11.8</ele><time>2026-04-03T23:46:42Z</time></trkpt><trkpt lat="14.435913474825806" lon="121.04524336374587"><ele>12.0</ele><time>2026-04-03T23:46:43Z</time></trkpt><trkpt lat="14.43579523215006" lon="121.04524675877245"><ele>12.0</ele><time>2026-04-03T23:46:44Z</time></trkpt><trkpt lat="14.435683337917064" lon="121.04524630569452"><ele>12.0</ele><time>2026-04-03T23:46:45Z</time></trkpt><trkpt lat="14.435554293279088" lon="121.04524513212246"><ele>12.0</ele><time>2026-04-03T23:46:46Z</time></trkpt><trkpt lat="14.43542853971886" lon="121.0452452467084"><ele>12.0</ele><time>2026-04-03T23:46:47Z</time></trkpt><trkpt lat="14.435299402627166" lon="121.04524754777397"><ele>11.5</ele><time>2026-04-03T23:46:48Z</time></trkpt><trkpt lat="14.435177397499174" lon="121.04524582840132"><ele>11.0</ele><time>2026-04-03T23:46:49Z</time></trkpt><trkpt lat="14.435051272299722" lon="121.04524965794353"><ele>10.5</ele><time>2026-04-03T23:46:50Z</time></trkpt><trkpt lat="14.434910756525277" lon="121.04524803508357"><ele>10.0</ele><time>2026-04-03T23:46:51Z</time></trkpt><trkpt lat="14.434763429981725" lon="121.0452418299263"><ele>9.75</ele><time>2026-04-03T23:46:52Z</time></trkpt><trkpt lat="14.434618921328662" lon="121.04523915987865"><ele>9.5</ele><time>2026-04-03T23:46:53Z</time></trkpt><trkpt lat="14.434470867218423" lon="121.04524260504797"><ele>9.25</ele><time>2026-04-03T23:46:54Z</time></trkpt><trkpt lat="14.434331398763256" lon="121.04524771338102"><ele>9.0</ele><time>2026-04-03T23:46:55Z</time></trkpt><trkpt lat="14.434190892283095" lon="121.04524323776008"><ele>9.0</ele><time>2026-04-03T23:46:56Z</time></trkpt><trkpt lat="14.434059105641236" lon="121.04524531099159"><ele>9.0</ele><time>2026-04-03T23:46:57Z</time></trkpt><trkpt lat="14.433941067888762" lon="121.04524655811011"><ele>9.0</ele><time>2026-04-03T23:46:58Z</time></trkpt><trkpt lat="14.433828210080096" lon="121.04524721503948"><ele>9.0</ele><time>2026-04-03T23:46:59Z</time></trkpt><trkpt lat="14.43371276537124" lon="121.04524992307466"><ele>9.5</ele><time>2026-04-03T23:47:00Z</time></trkpt><trkpt lat="14.433597699440895" lon="121.04525137577832"><ele>10.0</ele><time>2026-04-03T23:47:01Z</time></trkpt><trkpt lat="14.433480309991955" lon="121.0452502019496"><ele>10.5</ele><time>2026-04-03T23:47:02Z</time></trkpt><trkpt lat="14.433359241565327" lon="121.04525282276205"><ele>11.0</ele><time>2026-04-03T23:47:03Z</time></trkpt><trkpt lat="14.43324193092943" lon="121.04525229037532"><ele>11.0</ele><time>2026-04-03T23:47:04Z</time></trkpt><trkpt lat="14.433121109712008" lon="121.04525236142089"><ele>11.0</ele><time>2026-04-03T23:47:05Z</time></trkpt><trkpt lat="14.433000010254151" lon="121.04525409997825"><ele>11.0</ele><time>2026-04-03T23:47:06Z</time></trkpt><trkpt lat="14.432882699881622" lon="121.0452525018448"><ele>11.0</ele><time>2026-04-03T23:47:07Z</time></trkpt><trkpt lat="14.432774149303933" lon="121.0452529978"><ele>11.200000000000001</ele><time>2026-04-03T23:47:08Z</time></trkpt><trkpt lat="14.432664157663838" lon="121.04525268763582"><ele>11.4</ele><time>2026-04-03T23:47:09Z</time></trkpt><trkpt lat="14.432558336856149" lon="121.04525716858284"><ele>11.6</ele><time>2026-04-03T23:47:10Z</time></trkpt><trkpt lat="14.432453053479005" lon="121.0452593745128"><ele>11.8</ele><time>2026-04-03T23:47:11Z</time></trkpt><trkpt lat="14.432342741996768" lon="121.04526205688173"><ele>12.0</ele><time>2026-04-03T23:47:12Z</time></trkpt><trkpt lat="14.432228571494111" lon="121.04526345155239"><ele>11.75</ele><time>2026-04-03T23:47:13Z</time></trkpt><trkpt lat="14.432111898090405" lon="121.0452627091429"><ele>11.5</ele><time>2026-04-03T23:47:14Z</time></trkpt><trkpt lat="14.431983603483726" lon="121.04526277494034"><ele>11.25</ele><time>2026-04-03T23:47:15Z</time></trkpt><trkpt lat="14.431848971810252" lon="121.04526379713583"><ele>11.0</ele><time>2026-04-03T23:47:16Z</time></trkpt><trkpt lat="14.43171842929911" lon="121.04526300591296"><ele>11.0</ele><time>2026-04-03T23:47:17Z</time></trkpt><trkpt lat="14.431581104087497" lon="121.04526240688115"><ele>11.0</ele><time>2026-04-03T23:47:18Z</time></trkpt><trkpt lat="14.43143974891667" lon="121.0452640298355"><ele>11.0</ele><time>2026-04-03T23:47:19Z</time></trkpt><trkpt lat="14.431298172535067" lon="121.04526537172606"><ele>11.0</ele><time>2026-04-03T23:47:20Z</time></trkpt><trkpt lat="14.431152470702967" lon="121.04526661409368"><ele>10.666666666666666</ele><time>2026-04-03T23:47:21Z</time></trkpt><trkpt lat="14.43100329719316" lon="121.0452662493042"><ele>10.333333333333334</ele><time>2026-04-03T23:47:22Z</time></trkpt><trkpt lat="14.43085314860751" lon="121.04526479830145"><ele>10.0</ele><time>2026-04-03T23:47:23Z</time></trkpt><trkpt lat="14.430700788961772" lon="121.04526484515536"><ele>10.0</ele><time>2026-04-03T23:47:24Z</time></trkpt><trkpt lat="14.430553644943029" lon="121.04526310713007"><ele>10.0</ele><time>2026-04-03T23:47:25Z</time></trkpt><trkpt lat="14.430397973978472" lon="121.04526200257571"><ele>10.0</ele><time>2026-04-03T23:47:26Z</time></trkpt><trkpt lat="14.430261184124607" lon="121.04526334215056"><ele>10.0</ele><time>2026-04-03T23:47:27Z</time></trkpt><trkpt lat="14.430113503319042" lon="121.04526655495523"><ele>10.0</ele><time>2026-04-03T23:47:28Z</time></trkpt><trkpt lat="14.429966554306455" lon="121.04526851708648"><ele>10.0</ele><time>2026-04-03T23:47:29Z</time></trkpt><trkpt lat="14.42980261923343" lon="121.0452747047126"><ele>10.0</ele><time>2026-04-03T23:47:30Z</time></trkpt><trkpt lat="14.429635814077061" lon="121.04528042938543"><ele>10.666666666666668</ele><time>2026-04-03T23:47:31Z</time></trkpt><trkpt lat="14.429464464128827" lon="121.04528033784744"><ele>11.333333333333334</ele><time>2026-04-03T23:47:32Z</time></trkpt><trkpt lat="14.429286715100169" lon="121.04528211736825"><ele>12.0</ele><time>2026-04-03T23:47:33Z</time></trkpt><trkpt lat="14.42910109212422" lon="121.0452813580683"><ele>12.0</ele><time>2026-04-03T23:47:34Z</time></trkpt><trkpt lat="14.428914117613244" lon="121.04528484018198"><ele>12.0</ele><time>2026-04-03T23:47:35Z</time></trkpt><trkpt lat="14.428721725389554" lon="121.04528364053431"><ele>12.0</ele><time>2026-04-03T23:47:36Z</time></trkpt><trkpt lat="14.428525630015312" lon="121.0452812045772"><ele>12.0</ele><time>2026-04-03T23:47:37Z</time></trkpt><trkpt lat="14.428330820210569" lon="121.04527585172592"><ele>12.0</ele><time>2026-04-03T23:47:38Z</time></trkpt><trkpt lat="14.428137724933928" lon="121.04527674216158"><ele>12.0</ele><time>2026-04-03T23:47:39Z</time></trkpt><trkpt lat="14.427949556980892" lon="121.04527925580383"><ele>11.666666666666666</ele><time>2026-04-03T23:47:40Z</time></trkpt><trkpt lat="14.427769892461727" lon="121.04528068564827"><ele>11.333333333333332</ele><time>2026-04-03T23:47:41Z</time></trkpt><trkpt lat="14.427601077638617" lon="121.04528030076378"><ele>11.0</ele><time>2026-04-03T23:47:42Z</time></trkpt><trkpt lat="14.427440451560171" lon="121.04528256097214"><ele>11.0</ele><time>2026-04-03T23:47:43Z</time></trkpt><trkpt lat="14.42729065164892" lon="121.0452839355534"><ele>11.0</ele><time>2026-04-03T23:47:44Z</time></trkpt><trkpt lat="14.427147202830257" lon="121.04528654655579"><ele>11.0</ele><time>2026-04-03T23:47:45Z</time></trkpt><trkpt lat="14.427014538558769" lon="121.04528786549993"><ele>11.0</ele><time>2026-04-03T23:47:46Z</time></trkpt><trkpt lat="14.426889356594867" lon="121.04528983699602"><ele>11.4</ele><time>2026-04-03T23:47:47Z</time></trkpt><trkpt lat="14.426770551473366" lon="121.04528549526167"><ele>11.8</ele><time>2026-04-03T23:47:48Z</time></trkpt><trkpt lat="14.426668339218677" lon="121.04528530260478"><ele>12.200000000000001</ele><time>2026-04-03T23:47:49Z</time></trkpt><trkpt lat="14.426575724376061" lon="121.04528444235679"><ele>12.600000000000001</ele><time>2026-04-03T23:47:50Z</time></trkpt><trkpt lat="14.426503214142855" lon="121.04528483556751"><ele>13.0</ele><time>2026-04-03T23:47:51Z</time></trkpt><trkpt lat="14.426433285920426" lon="121.04528283174915"><ele>13.0</ele><time>2026-04-03T23:47:52Z</time></trkpt><trkpt lat="14.426351747580293" lon="121.04528782112067"><ele>13.0</ele><time>2026-04-03T23:47:53Z</time></trkpt><trkpt lat="14.426257391548763" lon="121.04529174620862"><ele>13.0</ele><time>2026-04-03T23:47:54Z</time></trkpt><trkpt lat="14.426149572150804" lon="121.04529459948644"><ele>13.0</ele><time>2026-04-03T23:47:55Z</time></trkpt><trkpt lat="14.426036376602472" lon="121.04529055277351"><ele>13.0</ele><time>2026-04-03T23:47:56Z</time></trkpt><trkpt lat="14.42590505931822" lon="121.0452926949154"><ele>13.0</ele><time>2026-04-03T23:47:57Z</time></trkpt><trkpt lat="14.425769912746444" lon="121.04529507891594"><ele>13.0</ele><time>2026-04-03T23:47:58Z</time></trkpt><trkpt lat="14.425629620899437" lon="121.04529422634188"><ele>13.0</ele><time>2026-04-03T23:47:59Z</time></trkpt><trkpt lat="14.425486341874134" lon="121.04529412650447"><ele>13.0</ele><time>2026-04-03T23:48:00Z</time></trkpt><trkpt lat="14.425339330736277" lon="121.04529613291864"><ele>13.0</ele><time>2026-04-03T23:48:01Z</time></trkpt><trkpt lat="14.425197506487127" lon="121.04529825750127"><ele>13.0</ele><time>2026-04-03T23:48:02Z</time></trkpt><trkpt lat="14.42506164236631" lon="121.04529970427909"><ele>13.0</ele><time>2026-04-03T23:48:03Z</time></trkpt><trkpt lat="14.424927550093452" lon="121.04529820947376"><ele>13.0</ele><time>2026-04-03T23:48:04Z</time></trkpt><trkpt lat="14.42479807987511" lon="121.04529809609764"><ele>13.0</ele><time>2026-04-03T23:48:05Z</time></trkpt><trkpt lat="14.424668189545825" lon="121.04529999021658"><ele>13.0</ele><time>2026-04-03T23:48:06Z</time></trkpt><trkpt lat="14.424532654979565" lon="121.0453044904725"><ele>13.0</ele><time>2026-04-03T23:48:07Z</time></trkpt><trkpt lat="14.424389162172016" lon="121.04530599797515"><ele>13.0</ele><time>2026-04-03T23:48:08Z</time></trkpt><trkpt lat="14.424237899360223" lon="121.04530543279989"><ele>13.0</ele><time>2026-04-03T23:48:09Z</time></trkpt><trkpt lat="14.424085421793745" lon="121.04530390261631"><ele>13.0</ele><time>2026-04-03T23:48:10Z</time></trkpt><trkpt lat="14.423946629763382" lon="121.04530503131323"><ele>13.0</ele><time>2026-04-03T23:48:11Z</time></trkpt><trkpt lat="14.423822313728087" lon="121.045305059333"><ele>13.0</ele><time>2026-04-03T23:48:12Z</time></trkpt><trkpt lat="14.423696851172215" lon="121.04530301718488"><ele>13.0</ele><time>2026-04-03T23:48:13Z</time></trkpt><trkpt lat="14.423566717625045" lon="121.04530603326442"><ele>13.0</ele><time>2026-04-03T23:48:14Z</time></trkpt><trkpt lat="14.42343511231275" lon="121.04530344239804"><ele>13.0</ele><time>2026-04-03T23:48:15Z</time></trkpt><trkpt lat="14.423307182358649" lon="121.04529628135704"><ele>13.0</ele><time>2026-04-03T23:48:16Z</time></trkpt><trkpt lat="14.423190879509466" lon="121.04528637295529"><ele>12.999999999999998</ele><time>2026-04-03T23:48:17Z</time></trkpt><trkpt lat="14.42309552494984" lon="121.04527023163163"><ele>13.0</ele><time>2026-04-03T23:48:18Z</time></trkpt><trkpt lat="14.422995024158247" lon="121.04523636589475"><ele>13.0</ele><time>2026-04-03T23:48:19Z</time></trkpt><trkpt lat="14.42291410909437" lon="121.04519578391294"><ele>13.0</ele><time>2026-04-03T23:48:20Z</time></trkpt><trkpt lat="14.422861051077936" lon="121.04514007699044"><ele>12.999999999999998</ele><time>2026-04-03T23:48:21Z</time></trkpt><trkpt lat="14.422831723506928" lon="121.04508175356102"><ele>13.0</ele><time>2026-04-03T23:48:22Z</time></trkpt><trkpt lat="14.422794523567065" lon="121.04500849527624"><ele>12.600000000000001</ele><time>2026-04-03T23:48:23Z</time></trkpt><trkpt lat="14.422770275932525" lon="121.04492560117113"><ele>12.200000000000001</ele><time>2026-04-03T23:48:24Z</time></trkpt><trkpt lat="14.422762613584144" lon="121.04483250631334"><ele>11.8</ele><time>2026-04-03T23:48:25Z</time></trkpt><trkpt lat="14.422764893715472" lon="121.0447363231154"><ele>11.4</ele><time>2026-04-03T23:48:26Z</time></trkpt><trkpt lat="14.422763004807166" lon="121.04462339954496"><ele>11.0</ele><time>2026-04-03T23:48:27Z</time></trkpt><trkpt lat="14.42276266054236" lon="121.04451324498855"><ele>11.0</ele><time>2026-04-03T23:48:28Z</time></trkpt><trkpt lat="14.42276100075887" lon="121.04439871703823"><ele>11.0</ele><time>2026-04-03T23:48:29Z</time></trkpt><trkpt lat="14.422763136972101" lon="121.04429117693762"><ele>11.0</ele><time>2026-04-03T23:48:30Z</time></trkpt><trkpt lat="14.422766246569962" lon="121.04419466522322"><ele>11.0</ele><time>2026-04-03T23:48:31Z</time></trkpt><trkpt lat="14.422766580782282" lon="121.0440949526648"><ele>11.0</ele><time>2026-04-03T23:48:32Z</time></trkpt><trkpt lat="14.42276582083914" lon="121.04400133708089"><ele>11.4</ele><time>2026-04-03T23:48:33Z</time></trkpt><trkpt lat="14.422759269062773" lon="121.04390959092389"><ele>11.8</ele><time>2026-04-03T23:48:34Z</time></trkpt><trkpt lat="14.422752920386541" lon="121.04380814721368"><ele>12.200000000000001</ele><time>2026-04-03T23:48:35Z</time></trkpt><trkpt lat="14.422750304068465" lon="121.04371086459464"><ele>12.600000000000001</ele><time>2026-04-03T23:48:36Z</time></trkpt><trkpt lat="14.422747712333075" lon="121.04360440843014"><ele>13.0</ele><time>2026-04-03T23:48:37Z</time></trkpt><trkpt lat="14.422752665672787" lon="121.04350003766626"><ele>12.999999999999998</ele><time>2026-04-03T23:48:38Z</time></trkpt><trkpt lat="14.422752047266217" lon="121.04339783752323"><ele>13.0</ele><time>2026-04-03T23:48:39Z</time></trkpt><trkpt lat="14.422751411412003" lon="121.04330559226024"><ele>13.0</ele><time>2026-04-03T23:48:40Z</time></trkpt><trkpt lat="14.422742692148368" lon="121.04323219026166"><ele>13.0</ele><time>2026-04-03T23:48:41Z</time></trkpt><trkpt lat="14.42274625647483" lon="121.04316539472805"><ele>12.999999999999998</ele><time>2026-04-03T23:48:42Z</time></trkpt><trkpt lat="14.422738959687084" lon="121.04307105699199"><ele>13.0</ele><time>2026-04-03T23:48:43Z</time></trkpt><trkpt lat="14.422737946709786" lon="121.04298344082873"><ele>13.0</ele><time>2026-04-03T23:48:44Z</time></trkpt><trkpt lat="14.422729841056343" lon="121.04288469634523"><ele>13.0</ele><time>2026-04-03T23:48:45Z</time></trkpt><trkpt lat="14.422723622606394" lon="121.04278620989918"><ele>13.0</ele><time>2026-04-03T23:48:46Z</time></trkpt><trkpt lat="14.422722098678598" lon="121.04267805673186"><ele>13.0</ele><time>2026-04-03T23:48:47Z</time></trkpt><trkpt lat="14.422722281235828" lon="121.04257738459826"><ele>13.0</ele><time>2026-04-03T23:48:48Z</time></trkpt><trkpt lat="14.422725511934507" lon="121.04246591812273"><ele>13.4</ele><time>2026-04-03T23:48:49Z</time></trkpt><trkpt lat="14.422726493165507" lon="121.04235804638586"><ele>13.8</ele><time>2026-04-03T23:48:50Z</time></trkpt><trkpt lat="14.422724218452196" lon="121.04225478463185"><ele>14.2</ele><time>2026-04-03T23:48:51Z</time></trkpt><trkpt lat="14.422719784275719" lon="121.04214908815676"><ele>14.6</ele><time>2026-04-03T23:48:52Z</time></trkpt><trkpt lat="14.422717433023578" lon="121.04204357718336"><ele>15.0</ele><time>2026-04-03T23:48:53Z</time></trkpt><trkpt lat="14.422719779802453" lon="121.04193318979401"><ele>15.0</ele><time>2026-04-03T23:48:54Z</time></trkpt><trkpt lat="14.422720555366244" lon="121.04181501551348"><ele>15.0</ele><time>2026-04-03T23:48:55Z</time></trkpt><trkpt lat="14.422719491463937" lon="121.04169498282151"><ele>15.0</ele><time>2026-04-03T23:48:56Z</time></trkpt><trkpt lat="14.42271759015677" lon="121.04155865858367"><ele>15.0</ele><time>2026-04-03T23:48:57Z</time></trkpt><trkpt lat="14.42271071087878" lon="121.0414194283058"><ele>15.2</ele><time>2026-04-03T23:48:58Z</time></trkpt><trkpt lat="14.422700737963412" lon="121.04129332106018"><ele>15.4</ele><time>2026-04-03T23:48:59Z</time></trkpt><trkpt lat="14.4226968819798" lon="121.04118166062932"><ele>15.600000000000001</ele><time>2026-04-03T23:49:00Z</time></trkpt><trkpt lat="14.422694368407186" lon="121.04109619065413"><ele>15.8</ele><time>2026-04-03T23:49:01Z</time></trkpt><trkpt lat="14.422687406256552" lon="121.04100837100712"><ele>16.0</ele><time>2026-04-03T23:49:02Z</time></trkpt><trkpt lat="14.42267545948952" lon="121.04090045099626"><ele>16.400000000000002</ele><time>2026-04-03T23:49:03Z</time></trkpt><trkpt lat="14.422669700462288" lon="121.04078732987094"><ele>16.8</ele><time>2026-04-03T23:49:04Z</time></trkpt><trkpt lat="14.422666971072179" lon="121.04066840115794"><ele>17.200000000000003</ele><time>2026-04-03T23:49:05Z</time></trkpt><trkpt lat="14.422665466774538" lon="121.04055932185231"><ele>17.6</ele><time>2026-04-03T23:49:06Z</time></trkpt><trkpt lat="14.422662939683066" lon="121.0404595176632"><ele>18.0</ele><time>2026-04-03T23:49:07Z</time></trkpt><trkpt lat="14.422656687222345" lon="121.04036841045753"><ele>18.0</ele><time>2026-04-03T23:49:08Z</time></trkpt><trkpt lat="14.422660115909132" lon="121.04028827425337"><ele>18.0</ele><time>2026-04-03T23:49:09Z</time></trkpt><trkpt lat="14.422666447474208" lon="121.04021536655848"><ele>18.0</ele><time>2026-04-03T23:49:10Z</time></trkpt><trkpt lat="14.422666594795665" lon="121.0401292212276"><ele>18.0</ele><time>2026-04-03T23:49:11Z</time></trkpt><trkpt lat="14.422667713320948" lon="121.04005451207982"><ele>18.0</ele><time>2026-04-03T23:49:12Z</time></trkpt><trkpt lat="14.42265645837849" lon="121.03994023717478"><ele>18.0</ele><time>2026-04-03T23:49:14Z</time></trkpt><trkpt lat="14.42268455624346" lon="121.0398453980484"><ele>17.666666666666668</ele><time>2026-04-03T23:49:16Z</time></trkpt><trkpt lat="14.422673851358695" lon="121.03978106292315"><ele>17.333333333333332</ele><time>2026-04-03T23:49:18Z</time></trkpt><trkpt lat="14.422672069719951" lon="121.0397100541822"><ele>17.0</ele><time>2026-04-03T23:49:20Z</time></trkpt><trkpt lat="14.42267022996851" lon="121.03963672944597"><ele>16.666666666666664</ele><time>2026-04-03T23:49:30Z</time></trkpt><trkpt lat="14.422695633528566" lon="121.03954858768736"><ele>16.333333333333332</ele><time>2026-04-03T23:49:35Z</time></trkpt><trkpt lat="14.422694254212729" lon="121.03947056645376"><ele>16.0</ele><time>2026-04-03T23:49:36Z</time></trkpt><trkpt lat="14.422690915255455" lon="121.03938017424986"><ele>16.0</ele><time>2026-04-03T23:49:37Z</time></trkpt><trkpt lat="14.42268756688173" lon="121.03927511862145"><ele>16.0</ele><time>2026-04-03T23:49:38Z</time></trkpt><trkpt lat="14.422679561523193" lon="121.03915864361478"><ele>16.0</ele><time>2026-04-03T23:49:39Z</time></trkpt><trkpt lat="14.422679622900421" lon="121.03903299092948"><ele>16.0</ele><time>2026-04-03T23:49:40Z</time></trkpt><trkpt lat="14.422688765226765" lon="121.0388995043615"><ele>16.25</ele><time>2026-04-03T23:49:41Z</time></trkpt><trkpt lat="14.42269930426249" lon="121.03876256135575"><ele>16.5</ele><time>2026-04-03T23:49:42Z</time></trkpt><trkpt lat="14.422712097118286" lon="121.03863425299575"><ele>16.75</ele><time>2026-04-03T23:49:43Z</time></trkpt><trkpt lat="14.422724659591147" lon="121.03849981291702"><ele>17.0</ele><time>2026-04-03T23:49:44Z</time></trkpt><trkpt lat="14.422738249061846" lon="121.03835889202536"><ele>17.0</ele><time>2026-04-03T23:49:45Z</time></trkpt><trkpt lat="14.422754897223651" lon="121.03821466061272"><ele>17.0</ele><time>2026-04-03T23:49:46Z</time></trkpt><trkpt lat="14.422773171233388" lon="121.0380770617534"><ele>17.0</ele><time>2026-04-03T23:49:47Z</time></trkpt><trkpt lat="14.4228004260586" lon="121.03794373687171"><ele>17.0</ele><time>2026-04-03T23:49:48Z</time></trkpt><trkpt lat="14.422820025314728" lon="121.0378066812108"><ele>17.0</ele><time>2026-04-03T23:49:49Z</time></trkpt><trkpt lat="14.422838587183646" lon="121.0376784575492"><ele>17.0</ele><time>2026-04-03T23:49:50Z</time></trkpt><trkpt lat="14.422857697990068" lon="121.03756698608416"><ele>17.0</ele><time>2026-04-03T23:49:51Z</time></trkpt><trkpt lat="14.422874586947957" lon="121.03747221589687"><ele>17.0</ele><time>2026-04-03T23:49:52Z</time></trkpt><trkpt lat="14.422890817429396" lon="121.03738965149168"><ele>17.0</ele><time>2026-04-03T23:49:53Z</time></trkpt><trkpt lat="14.42290836287452" lon="121.03730687738138"><ele>17.2</ele><time>2026-04-03T23:49:54Z</time></trkpt><trkpt lat="14.422930998399156" lon="121.0372446092825"><ele>17.4</ele><time>2026-04-03T23:49:55Z</time></trkpt><trkpt lat="14.422970222373971" lon="121.03711945550836"><ele>17.6</ele><time>2026-04-03T23:49:57Z</time></trkpt><trkpt lat="14.422993283378482" lon="121.03705802573425"><ele>17.8</ele><time>2026-04-03T23:49:58Z</time></trkpt><trkpt lat="14.423050411827983" lon="121.03693029521152"><ele>18.0</ele><time>2026-04-03T23:50:00Z</time></trkpt><trkpt lat="14.423111493134334" lon="121.03690508204028"><ele>18.0</ele><time>2026-04-03T23:50:01Z</time></trkpt><trkpt lat="14.423213529050974" lon="121.03684809158001"><ele>18.0</ele><time>2026-04-03T23:50:03Z</time></trkpt><trkpt lat="14.423302916021331" lon="121.03686357896"><ele>18.0</ele><time>2026-04-03T23:50:04Z</time></trkpt><trkpt lat="14.423383915266353" lon="121.0368650418459"><ele>18.0</ele><time>2026-04-03T23:50:05Z</time></trkpt><trkpt lat="14.423473224357668" lon="121.0368651545817"><ele>18.0</ele><time>2026-04-03T23:50:06Z</time></trkpt><trkpt lat="14.423552503277438" lon="121.03686963172403"><ele>18.0</ele><time>2026-04-03T23:50:07Z</time></trkpt><trkpt lat="14.423623916246573" lon="121.03687206474693"><ele>18.0</ele><time>2026-04-03T23:50:08Z</time></trkpt><trkpt lat="14.423706273056345" lon="121.03687481797158"><ele>18.0</ele><time>2026-04-03T23:50:10Z</time></trkpt><trkpt lat="14.423783244122546" lon="121.03682143497286"><ele>18.0</ele><time>2026-04-03T23:50:13Z</time></trkpt><trkpt lat="14.423630924288624" lon="121.03677351662006"><ele>18.0</ele><time>2026-04-03T23:50:15Z</time></trkpt><trkpt lat="14.423549653477057" lon="121.03677286824185"><ele>18.0</ele><time>2026-04-03T23:50:16Z</time></trkpt><trkpt lat="14.423475881978359" lon="121.03675184383832"><ele>18.0</ele><time>2026-04-03T23:50:17Z</time></trkpt><trkpt lat="14.42340939843819" lon="121.03675962555931"><ele>18.0</ele><time>2026-04-03T23:50:18Z</time></trkpt><trkpt lat="14.423294193034607" lon="121.03674614933418"><ele>18.0</ele><time>2026-04-03T23:50:20Z</time></trkpt><trkpt lat="14.423206613689596" lon="121.03673091124014"><ele>18.0</ele><time>2026-04-03T23:50:22Z</time></trkpt><trkpt lat="14.423144094600852" lon="121.03670346417363"><ele>18.0</ele><time>2026-04-03T23:51:48.999Z</time></trkpt><trkpt lat="14.423040733457174" lon="121.03668135265109"><ele>18.2</ele><time>2026-04-03T23:51:50.999Z</time></trkpt><trkpt lat="14.422946303882531" lon="121.03667752621092"><ele>18.4</ele><time>2026-04-03T23:51:51.999Z</time></trkpt><trkpt lat="14.42287025806074" lon="121.03667408593279"><ele>18.599999999999998</ele><time>2026-04-03T23:51:52.999Z</time></trkpt><trkpt lat="14.422780027900334" lon="121.03664680940457"><ele>18.8</ele><time>2026-04-03T23:51:53.999Z</time></trkpt><trkpt lat="14.422685730987492" lon="121.0366153745999"><ele>19.0</ele><time>2026-04-03T23:51:54.999Z</time></trkpt><trkpt lat="14.422598077919805" lon="121.03658599730593"><ele>20.0</ele><time>2026-04-03T23:51:55.999Z</time></trkpt><trkpt lat="14.422517544981796" lon="121.03655559747017"><ele>21.0</ele><time>2026-04-03T23:51:56.999Z</time></trkpt><trkpt lat="14.422394139430502" lon="121.036481063903"><ele>22.0</ele><time>2026-04-03T23:51:57.999Z</time></trkpt><trkpt lat="14.422286670356439" lon="121.03641781533638"><ele>23.0</ele><time>2026-04-03T23:51:58.999Z</time></trkpt><trkpt lat="14.422180583249812" lon="121.03635033306325"><ele>22.0</ele><time>2026-04-03T23:51:59.999Z</time></trkpt><trkpt lat="14.42207299351871" lon="121.03627749374263"><ele>21.0</ele><time>2026-04-03T23:52:00.999Z</time></trkpt><trkpt lat="14.42197090130181" lon="121.03619554041445"><ele>20.0</ele><time>2026-04-03T23:52:01.999Z</time></trkpt><trkpt lat="14.42187253482137" lon="121.03610378241214"><ele>19.0</ele><time>2026-04-03T23:52:03Z</time></trkpt><trkpt lat="14.421776336829996" lon="121.03600801388853"><ele>19.0</ele><time>2026-04-03T23:52:04Z</time></trkpt><trkpt lat="14.421684668011752" lon="121.0359088621912"><ele>19.0</ele><time>2026-04-03T23:52:05Z</time></trkpt><trkpt lat="14.421603140432333" lon="121.03581307313898"><ele>19.0</ele><time>2026-04-03T23:52:06Z</time></trkpt><trkpt lat="14.421533596912555" lon="121.03573142992884"><ele>19.0</ele><time>2026-04-03T23:52:07Z</time></trkpt><trkpt lat="14.42147962525745" lon="121.03566721941648"><ele>19.0</ele><time>2026-04-03T23:52:08Z</time></trkpt><trkpt lat="14.421418154054392" lon="121.0356062212699"><ele>19.4</ele><time>2026-04-03T23:52:09Z</time></trkpt><trkpt lat="14.421350029468194" lon="121.03553756979588"><ele>19.799999999999997</ele><time>2026-04-03T23:52:10Z</time></trkpt><trkpt lat="14.421275382192134" lon="121.03546522637538"><ele>20.200000000000003</ele><time>2026-04-03T23:52:11Z</time></trkpt><trkpt lat="14.421195775789485" lon="121.03538985649308"><ele>20.6</ele><time>2026-04-03T23:52:12Z</time></trkpt><trkpt lat="14.421114481160364" lon="121.03531668640231"><ele>21.0</ele><time>2026-04-03T23:52:13Z</time></trkpt><trkpt lat="14.421028610367237" lon="121.03524422871139"><ele>21.0</ele><time>2026-04-03T23:52:14Z</time></trkpt><trkpt lat="14.42094414867682" lon="121.03517105845383"><ele>21.0</ele><time>2026-04-03T23:52:15Z</time></trkpt><trkpt lat="14.42086810557509" lon="121.0351042605139"><ele>21.0</ele><time>2026-04-03T23:52:16Z</time></trkpt><trkpt lat="14.420793216400805" lon="121.03504059473485"><ele>21.0</ele><time>2026-04-03T23:52:17Z</time></trkpt><trkpt lat="14.420726351418818" lon="121.03497152265948"><ele>21.0</ele><time>2026-04-03T23:52:18Z</time></trkpt><trkpt lat="14.420669941319131" lon="121.03490209383982"><ele>21.333333333333332</ele><time>2026-04-03T23:52:19Z</time></trkpt><trkpt lat="14.420644935332914" lon="121.03483568429228"><ele>21.666666666666668</ele><time>2026-04-03T23:52:20Z</time></trkpt><trkpt lat="14.420625907216834" lon="121.03476792743277"><ele>22.0</ele><time>2026-04-03T23:52:21Z</time></trkpt><trkpt lat="14.420626049419784" lon="121.03469221636978"><ele>22.333333333333336</ele><time>2026-04-03T23:52:22Z</time></trkpt><trkpt lat="14.420648470711921" lon="121.03460965902381"><ele>22.666666666666668</ele><time>2026-04-03T23:52:23Z</time></trkpt><trkpt lat="14.420678852951228" lon="121.03451818357755"><ele>23.0</ele><time>2026-04-03T23:52:24Z</time></trkpt><trkpt lat="14.420693491083966" lon="121.03443257628143"><ele>23.0</ele><time>2026-04-03T23:52:25Z</time></trkpt><trkpt lat="14.42074699276625" lon="121.03433972513625"><ele>23.0</ele><time>2026-04-03T23:52:26Z</time></trkpt><trkpt lat="14.420778329470133" lon="121.03424857619171"><ele>23.0</ele><time>2026-04-03T23:52:27Z</time></trkpt><trkpt lat="14.420806654018985" lon="121.03416214212639"><ele>23.0</ele><time>2026-04-03T23:52:28Z</time></trkpt><trkpt lat="14.420841482223606" lon="121.03407687950504"><ele>23.0</ele><time>2026-04-03T23:52:29Z</time></trkpt><trkpt lat="14.42087561418054" lon="121.03397764294114"><ele>24.75</ele><time>2026-04-03T23:52:30Z</time></trkpt><trkpt lat="14.420916264540756" lon="121.03387131157108"><ele>26.5</ele><time>2026-04-03T23:52:31Z</time></trkpt><trkpt lat="14.420949259215778" lon="121.0337552022039"><ele>28.25</ele><time>2026-04-03T23:52:32Z</time></trkpt><trkpt lat="14.420985556611816" lon="121.03363630167571"><ele>30.0</ele><time>2026-04-03T23:52:33Z</time></trkpt><trkpt lat="14.421021369076556" lon="121.03350073113772"><ele>30.0</ele><time>2026-04-03T23:52:34Z</time></trkpt><trkpt lat="14.421054375626587" lon="121.03336901391299"><ele>30.0</ele><time>2026-04-03T23:52:35Z</time></trkpt><trkpt lat="14.421084211486338" lon="121.03322529675235"><ele>30.0</ele><time>2026-04-03T23:52:36Z</time></trkpt><trkpt lat="14.421118137704763" lon="121.03309097960953"><ele>30.0</ele><time>2026-04-03T23:52:37Z</time></trkpt><trkpt lat="14.421153187996412" lon="121.03294967737473"><ele>30.75</ele><time>2026-04-03T23:52:38Z</time></trkpt><trkpt lat="14.4211853340797" lon="121.0328062659734"><ele>31.5</ele><time>2026-04-03T23:52:39Z</time></trkpt><trkpt lat="14.421214365266621" lon="121.03267531979797"><ele>32.25</ele><time>2026-04-03T23:52:40Z</time></trkpt><trkpt lat="14.42124139855474" lon="121.03255912999207"><ele>33.0</ele><time>2026-04-03T23:52:41Z</time></trkpt><trkpt lat="14.421268216136328" lon="121.0324445920574"><ele>31.25</ele><time>2026-04-03T23:52:42Z</time></trkpt><trkpt lat="14.421302243064224" lon="121.03232778589552"><ele>29.5</ele><time>2026-04-03T23:52:43Z</time></trkpt><trkpt lat="14.421337983879805" lon="121.03220732439252"><ele>27.75</ele><time>2026-04-03T23:52:44Z</time></trkpt><trkpt lat="14.42136273875196" lon="121.03207583907209"><ele>26.0</ele><time>2026-04-03T23:52:45Z</time></trkpt><trkpt lat="14.421386517623269" lon="121.03194199686843"><ele>26.0</ele><time>2026-04-03T23:52:46Z</time></trkpt><trkpt lat="14.421422673615302" lon="121.03181765802589"><ele>26.0</ele><time>2026-04-03T23:52:47Z</time></trkpt><trkpt lat="14.421455748475715" lon="121.03168953790899"><ele>26.0</ele><time>2026-04-03T23:52:48Z</time></trkpt><trkpt lat="14.421486748825762" lon="121.03154211452518"><ele>26.0</ele><time>2026-04-03T23:52:49Z</time></trkpt><trkpt lat="14.421529110178154" lon="121.0314102348023"><ele>26.0</ele><time>2026-04-03T23:52:50Z</time></trkpt><trkpt lat="14.421568431875464" lon="121.03127129257074"><ele>26.0</ele><time>2026-04-03T23:52:51Z</time></trkpt><trkpt lat="14.42160266247496" lon="121.0311337088807"><ele>26.0</ele><time>2026-04-03T23:52:52Z</time></trkpt><trkpt lat="14.421632596563875" lon="121.0310004973104"><ele>26.0</ele><time>2026-04-03T23:52:53Z</time></trkpt><trkpt lat="14.421670673267258" lon="121.0308653691659"><ele>24.75</ele><time>2026-04-03T23:52:54Z</time></trkpt><trkpt lat="14.421703878373382" lon="121.03072888156785"><ele>23.5</ele><time>2026-04-03T23:52:55Z</time></trkpt><trkpt lat="14.421735792307045" lon="121.0305965883781"><ele>22.25</ele><time>2026-04-03T23:52:56Z</time></trkpt><trkpt lat="14.421765770518506" lon="121.03045540537708"><ele>21.0</ele><time>2026-04-03T23:52:57Z</time></trkpt><trkpt lat="14.421801148574701" lon="121.03032093091686"><ele>21.0</ele><time>2026-04-03T23:52:58Z</time></trkpt><trkpt lat="14.421840591095991" lon="121.03018301938951"><ele>21.0</ele><time>2026-04-03T23:52:59Z</time></trkpt><trkpt lat="14.421871881080735" lon="121.0300350954349"><ele>21.0</ele><time>2026-04-03T23:53:00Z</time></trkpt><trkpt lat="14.421903759688144" lon="121.02989453696021"><ele>21.0</ele><time>2026-04-03T23:53:01Z</time></trkpt><trkpt lat="14.421946190717502" lon="121.02975337727031"><ele>22.5</ele><time>2026-04-03T23:53:02Z</time></trkpt><trkpt lat="14.421988632016989" lon="121.02961233533638"><ele>24.0</ele><time>2026-04-03T23:53:03Z</time></trkpt><trkpt lat="14.422026402677877" lon="121.02947361054676"><ele>25.5</ele><time>2026-04-03T23:53:04Z</time></trkpt><trkpt lat="14.422052225113283" lon="121.02931803248563"><ele>27.0</ele><time>2026-04-03T23:53:05Z</time></trkpt><trkpt lat="14.422087352200037" lon="121.0291758334741"><ele>28.333333333333336</ele><time>2026-04-03T23:53:06Z</time></trkpt><trkpt lat="14.42213015612844" lon="121.02903336744316"><ele>29.666666666666668</ele><time>2026-04-03T23:53:07Z</time></trkpt><trkpt lat="14.422163178053813" lon="121.02887098110203"><ele>31.0</ele><time>2026-04-03T23:53:08Z</time></trkpt><trkpt lat="14.422202492985113" lon="121.028702301558"><ele>31.25</ele><time>2026-04-03T23:53:09Z</time></trkpt><trkpt lat="14.422234375311493" lon="121.02858309103887"><ele>31.5</ele><time>2026-04-03T23:53:10Z</time></trkpt><trkpt lat="14.422270532854922" lon="121.02843992482221"><ele>31.75</ele><time>2026-04-03T23:53:11Z</time></trkpt><trkpt lat="14.422315380867822" lon="121.02830515762813"><ele>32.0</ele><time>2026-04-03T23:53:12Z</time></trkpt><trkpt lat="14.422346332485008" lon="121.02815884711629"><ele>32.5</ele><time>2026-04-03T23:53:13Z</time></trkpt><trkpt lat="14.422383265652641" lon="121.02801340717038"><ele>33.0</ele><time>2026-04-03T23:53:14Z</time></trkpt><trkpt lat="14.422424020686428" lon="121.02787975308718"><ele>33.5</ele><time>2026-04-03T23:53:15Z</time></trkpt><trkpt lat="14.422449818917421" lon="121.02775085734379"><ele>34.0</ele><time>2026-04-03T23:53:16Z</time></trkpt><trkpt lat="14.422488129702788" lon="121.0276400131493"><ele>34.0</ele><time>2026-04-03T23:53:17Z</time></trkpt><trkpt lat="14.42251691002944" lon="121.02753481183483"><ele>34.0</ele><time>2026-04-03T23:53:18Z</time></trkpt><trkpt lat="14.422541415759667" lon="121.02744451211927"><ele>34.0</ele><time>2026-04-03T23:53:19Z</time></trkpt><trkpt lat="14.422564175127942" lon="121.02736729643536"><ele>34.0</ele><time>2026-04-03T23:53:20Z</time></trkpt><trkpt lat="14.42259772817402" lon="121.0272589447502"><ele>34.0</ele><time>2026-04-03T23:53:22Z</time></trkpt><trkpt lat="14.422603414081976" lon="121.02718656778845"><ele>33.8</ele><time>2026-04-03T23:53:24Z</time></trkpt><trkpt lat="14.42264289365765" lon="121.02707542830363"><ele>33.599999999999994</ele><time>2026-04-03T23:54:27Z</time></trkpt><trkpt lat="14.422666525273547" lon="121.026992400804"><ele>33.4</ele><time>2026-04-03T23:54:28Z</time></trkpt><trkpt lat="14.422686055145567" lon="121.02691497780165"><ele>33.199999999999996</ele><time>2026-04-03T23:54:29Z</time></trkpt><trkpt lat="14.422707891861648" lon="121.0268314350215"><ele>33.0</ele><time>2026-04-03T23:54:30Z</time></trkpt><trkpt lat="14.422750834334455" lon="121.02670772798892"><ele>34.0</ele><time>2026-04-03T23:54:31Z</time></trkpt><trkpt lat="14.4227869968089" lon="121.02658761517688"><ele>35.0</ele><time>2026-04-03T23:54:32Z</time></trkpt><trkpt lat="14.422820626420997" lon="121.02645568514036"><ele>36.0</ele><time>2026-04-03T23:54:33Z</time></trkpt><trkpt lat="14.422862090504715" lon="121.02631264032031"><ele>37.0</ele><time>2026-04-03T23:54:34Z</time></trkpt><trkpt lat="14.422896600251226" lon="121.02617093489145"><ele>37.0</ele><time>2026-04-03T23:54:35Z</time></trkpt><trkpt lat="14.422939758149976" lon="121.02602983716571"><ele>37.0</ele><time>2026-04-03T23:54:36Z</time></trkpt><trkpt lat="14.42297872057862" lon="121.02589327797251"><ele>37.0</ele><time>2026-04-03T23:54:37Z</time></trkpt><trkpt lat="14.423021409498634" lon="121.02574827008964"><ele>37.0</ele><time>2026-04-03T23:54:38Z</time></trkpt><trkpt lat="14.423059245922529" lon="121.02560966435514"><ele>37.75</ele><time>2026-04-03T23:54:39Z</time></trkpt><trkpt lat="14.423101163779247" lon="121.02547772603019"><ele>38.5</ele><time>2026-04-03T23:54:40Z</time></trkpt><trkpt lat="14.423136064373725" lon="121.02534710080414"><ele>39.25</ele><time>2026-04-03T23:54:41Z</time></trkpt><trkpt lat="14.423174315650384" lon="121.02521224452636"><ele>40.0</ele><time>2026-04-03T23:54:42Z</time></trkpt><trkpt lat="14.423202808238251" lon="121.02508722567882"><ele>43.0</ele><time>2026-04-03T23:54:43Z</time></trkpt><trkpt lat="14.423242124189933" lon="121.02494280307582"><ele>46.0</ele><time>2026-04-03T23:54:44Z</time></trkpt><trkpt lat="14.423281740615643" lon="121.02481540488841"><ele>49.0</ele><time>2026-04-03T23:54:45Z</time></trkpt><trkpt lat="14.423308069173546" lon="121.02469498109122"><ele>52.0</ele><time>2026-04-03T23:54:46Z</time></trkpt><trkpt lat="14.423333158501952" lon="121.02458163992677"><ele>51.99999999999999</ele><time>2026-04-03T23:54:47Z</time></trkpt><trkpt lat="14.423356107413706" lon="121.02447620408168"><ele>52.0</ele><time>2026-04-03T23:54:48Z</time></trkpt><trkpt lat="14.423367077082702" lon="121.02437809833187"><ele>52.0</ele><time>2026-04-03T23:54:49Z</time></trkpt><trkpt lat="14.423376547497194" lon="121.02430003350946"><ele>52.0</ele><time>2026-04-03T23:54:50Z</time></trkpt><trkpt lat="14.42339258450567" lon="121.02422460631847"><ele>51.99999999999999</ele><time>2026-04-03T23:54:52Z</time></trkpt><trkpt lat="14.423408642531953" lon="121.02415190913324"><ele>52.0</ele><time>2026-04-03T23:54:59Z</time></trkpt><trkpt lat="14.423421374048274" lon="121.02406124653854"><ele>50.75</ele><time>2026-04-03T23:56:03Z</time></trkpt><trkpt lat="14.423456772401382" lon="121.02393093337041"><ele>49.5</ele><time>2026-04-03T23:56:05Z</time></trkpt><trkpt lat="14.423481883686355" lon="121.0237701217905"><ele>48.25</ele><time>2026-04-03T23:56:07Z</time></trkpt><trkpt lat="14.423507085303386" lon="121.02366214376467"><ele>47.0</ele><time>2026-04-03T23:56:08Z</time></trkpt><trkpt lat="14.423501728060307" lon="121.02353177536615"><ele>47.0</ele><time>2026-04-03T23:56:09Z</time></trkpt><trkpt lat="14.423495814258658" lon="121.02339617760283"><ele>47.0</ele><time>2026-04-03T23:56:10Z</time></trkpt><trkpt lat="14.423488567071916" lon="121.0232559477711"><ele>47.0</ele><time>2026-04-03T23:56:11Z</time></trkpt><trkpt lat="14.423479216935446" lon="121.02311909147642"><ele>47.0</ele><time>2026-04-03T23:56:12Z</time></trkpt><trkpt lat="14.423470607977341" lon="121.02299580028297"><ele>46.83333333333333</ele><time>2026-04-03T23:56:13Z</time></trkpt><trkpt lat="14.423462324195564" lon="121.02287716607114"><ele>46.666666666666664</ele><time>2026-04-03T23:56:14Z</time></trkpt><trkpt lat="14.423455555791177" lon="121.02278023393427"><ele>46.5</ele><time>2026-04-03T23:56:15Z</time></trkpt><trkpt lat="14.423449619654786" lon="121.02269522093385"><ele>46.333333333333336</ele><time>2026-04-03T23:56:16Z</time></trkpt><trkpt lat="14.42344388930512" lon="121.02261315506777"><ele>46.16666666666667</ele><time>2026-04-03T23:56:17Z</time></trkpt><trkpt lat="14.42343841656287" lon="121.02253477859419"><ele>46.0</ele><time>2026-04-03T23:56:19Z</time></trkpt><trkpt lat="14.42343307553434" lon="121.02245828855153"><ele>46.0</ele><time>2026-04-03T23:56:21Z</time></trkpt><trkpt lat="14.423276609321501" lon="121.02244537453123"><ele>46.0</ele><time>2026-04-03T23:56:22Z</time></trkpt><trkpt lat="14.423130630782012" lon="121.02241798084196"><ele>46.0</ele><time>2026-04-03T23:56:24Z</time></trkpt><trkpt lat="14.423022323711296" lon="121.02243416825975"><ele>46.0</ele><time>2026-04-03T23:56:25Z</time></trkpt><trkpt lat="14.422919616826224" lon="121.0224552639545"><ele>46.0</ele><time>2026-04-03T23:56:26Z</time></trkpt><trkpt lat="14.42279757566384" lon="121.02247221261449"><ele>46.0</ele><time>2026-04-03T23:56:27Z</time></trkpt><trkpt lat="14.422684273367386" lon="121.02248532839636"><ele>46.0</ele><time>2026-04-03T23:56:28Z</time></trkpt><trkpt lat="14.422607146245715" lon="121.02244684513498"><ele>46.0</ele><time>2026-04-03T23:56:29Z</time></trkpt><trkpt lat="14.422514777710688" lon="121.02241379374532"><ele>46.0</ele><time>2026-04-03T23:56:30Z</time></trkpt><trkpt lat="14.422420482451825" lon="121.02235057823849"><ele>46.0</ele><time>2026-04-03T23:56:31Z</time></trkpt><trkpt lat="14.422322275831622" lon="121.02228326309698"><ele>46.0</ele><time>2026-04-03T23:56:32Z</time></trkpt><trkpt lat="14.422206206336702" lon="121.02220999261729"><ele>46.0</ele><time>2026-04-03T23:56:33Z</time></trkpt><trkpt lat="14.422089071941889" lon="121.02213231474539"><ele>46.0</ele><time>2026-04-03T23:56:34Z</time></trkpt><trkpt lat="14.421964657731989" lon="121.022050721985"><ele>45.66666666666667</ele><time>2026-04-03T23:56:35Z</time></trkpt><trkpt lat="14.421829808265338" lon="121.02196784678087"><ele>45.333333333333336</ele><time>2026-04-03T23:56:36Z</time></trkpt><trkpt lat="14.421698843821652" lon="121.02188016429332"><ele>45.0</ele><time>2026-04-03T23:56:37Z</time></trkpt><trkpt lat="14.421559866008922" lon="121.02179920342029"><ele>45.0</ele><time>2026-04-03T23:56:38.001Z</time></trkpt><trkpt lat="14.421408248138007" lon="121.0217057014119"><ele>45.0</ele><time>2026-04-03T23:56:39.001Z</time></trkpt><trkpt lat="14.421265541956743" lon="121.02161165611119"><ele>45.0</ele><time>2026-04-03T23:56:40.001Z</time></trkpt><trkpt lat="14.421116173061655" lon="121.02152142049896"><ele>44.666666666666664</ele><time>2026-04-03T23:56:41.001Z</time></trkpt><trkpt lat="14.420959863794623" lon="121.02141738703469"><ele>44.33333333333333</ele><time>2026-04-03T23:56:42.001Z</time></trkpt><trkpt lat="14.420796547987933" lon="121.02131499769072"><ele>44.0</ele><time>2026-04-03T23:56:43.001Z</time></trkpt><trkpt lat="14.420631443871558" lon="121.02121190958536"><ele>44.0</ele><time>2026-04-03T23:56:44.001Z</time></trkpt><trkpt lat="14.42046709607586" lon="121.02110601583229"><ele>44.0</ele><time>2026-04-03T23:56:45.001Z</time></trkpt><trkpt lat="14.420297709931704" lon="121.02100236239235"><ele>44.0</ele><time>2026-04-03T23:56:46.001Z</time></trkpt><trkpt lat="14.42012703559564" lon="121.02089905936556"><ele>44.0</ele><time>2026-04-03T23:56:47.001Z</time></trkpt><trkpt lat="14.419960795508464" lon="121.0207913044922"><ele>44.0</ele><time>2026-04-03T23:56:48.001Z</time></trkpt><trkpt lat="14.41979441876106" lon="121.02067788322694"><ele>44.0</ele><time>2026-04-03T23:56:49.001Z</time></trkpt><trkpt lat="14.419625466050146" lon="121.02056889216453"><ele>44.0</ele><time>2026-04-03T23:56:50.001Z</time></trkpt><trkpt lat="14.419454790205" lon="121.020462298495"><ele>44.0</ele><time>2026-04-03T23:56:51.001Z</time></trkpt><trkpt lat="14.419278893531652" lon="121.02035237172414"><ele>44.0</ele><time>2026-04-03T23:56:52.001Z</time></trkpt><trkpt lat="14.419104235745623" lon="121.02024477629284"><ele>44.0</ele><time>2026-04-03T23:56:53.001Z</time></trkpt><trkpt lat="14.418931468741263" lon="121.02013679848972"><ele>44.0</ele><time>2026-04-03T23:56:54.001Z</time></trkpt><trkpt lat="14.418753271113692" lon="121.0200232684023"><ele>44.0</ele><time>2026-04-03T23:56:55.001Z</time></trkpt><trkpt lat="14.418579802072676" lon="121.01990812647689"><ele>44.33333333333333</ele><time>2026-04-03T23:56:56.001Z</time></trkpt><trkpt lat="14.418415044521861" lon="121.0197945514616"><ele>44.666666666666664</ele><time>2026-04-03T23:56:57.001Z</time></trkpt><trkpt lat="14.418254964908213" lon="121.01969921292174"><ele>45.0</ele><time>2026-04-03T23:56:58.001Z</time></trkpt><trkpt lat="14.41810826281561" lon="121.01960411710361"><ele>45.666666666666664</ele><time>2026-04-03T23:56:59.001Z</time></trkpt><trkpt lat="14.417967657821519" lon="121.01951182383071"><ele>46.33333333333333</ele><time>2026-04-03T23:57:00.001Z</time></trkpt><trkpt lat="14.417832268832978" lon="121.01942765603383"><ele>47.0</ele><time>2026-04-03T23:57:01.001Z</time></trkpt><trkpt lat="14.41770941247487" lon="121.01935216056144"><ele>47.0</ele><time>2026-04-03T23:57:02.001Z</time></trkpt><trkpt lat="14.417589638738239" lon="121.01927545681478"><ele>47.0</ele><time>2026-04-03T23:57:03.001Z</time></trkpt><trkpt lat="14.417461273940871" lon="121.01919504078815"><ele>47.0</ele><time>2026-04-03T23:57:04.001Z</time></trkpt><trkpt lat="14.417322770244644" lon="121.01911276825433"><ele>47.0</ele><time>2026-04-03T23:57:05.001Z</time></trkpt><trkpt lat="14.417180170008011" lon="121.01902470539045"><ele>47.0</ele><time>2026-04-03T23:57:06.001Z</time></trkpt><trkpt lat="14.417037673615093" lon="121.01893196721846"><ele>47.0</ele><time>2026-04-03T23:57:07.001Z</time></trkpt><trkpt lat="14.416891341086485" lon="121.01883976648153"><ele>46.666666666666664</ele><time>2026-04-03T23:57:08.001Z</time></trkpt><trkpt lat="14.416746988502199" lon="121.018756075802"><ele>46.333333333333336</ele><time>2026-04-03T23:57:09.001Z</time></trkpt><trkpt lat="14.41660567092255" lon="121.01866963508611"><ele>46.0</ele><time>2026-04-03T23:57:10.001Z</time></trkpt><trkpt lat="14.416470170644919" lon="121.0185830309729"><ele>46.0</ele><time>2026-04-03T23:57:11.001Z</time></trkpt><trkpt lat="14.41633350730288" lon="121.01849648194883"><ele>46.0</ele><time>2026-04-03T23:57:12.001Z</time></trkpt><trkpt lat="14.416197382395392" lon="121.01841044478215"><ele>46.0</ele><time>2026-04-03T23:57:13.001Z</time></trkpt><trkpt lat="14.41605009606188" lon="121.01832327729034"><ele>45.333333333333336</ele><time>2026-04-03T23:57:14.001Z</time></trkpt><trkpt lat="14.4159067549704" lon="121.01823839650513"><ele>44.666666666666664</ele><time>2026-04-03T23:57:15.001Z</time></trkpt><trkpt lat="14.415760226177433" lon="121.01814960077957"><ele>44.0</ele><time>2026-04-03T23:57:16.001Z</time></trkpt><trkpt lat="14.41561762320906" lon="121.01805859674583"><ele>44.33333333333333</ele><time>2026-04-03T23:57:17.001Z</time></trkpt><trkpt lat="14.41546864067339" lon="121.01796347224587"><ele>44.666666666666664</ele><time>2026-04-03T23:57:18.001Z</time></trkpt><trkpt lat="14.415315789228837" lon="121.01786676461414"><ele>45.0</ele><time>2026-04-03T23:57:19.001Z</time></trkpt><trkpt lat="14.415162155843468" lon="121.01777398755694"><ele>45.0</ele><time>2026-04-03T23:57:20.001Z</time></trkpt><trkpt lat="14.4150035272168" lon="121.01767878816469"><ele>45.0</ele><time>2026-04-03T23:57:21.001Z</time></trkpt><trkpt lat="14.414849445169642" lon="121.017583873953"><ele>45.0</ele><time>2026-04-03T23:57:22.001Z</time></trkpt><trkpt lat="14.414692503865112" lon="121.01748531054868"><ele>45.0</ele><time>2026-04-03T23:57:23.001Z</time></trkpt><trkpt lat="14.414535092773479" lon="121.01738357663346"><ele>45.0</ele><time>2026-04-03T23:57:24.001Z</time></trkpt><trkpt lat="14.414395152435986" lon="121.01726571146632"><ele>45.0</ele><time>2026-04-03T23:57:25.001Z</time></trkpt><trkpt lat="14.414270373951403" lon="121.01712924062178"><ele>45.0</ele><time>2026-04-03T23:57:26.001Z</time></trkpt><trkpt lat="14.414183969394406" lon="121.01697348911722"><ele>45.0</ele><time>2026-04-03T23:57:27.001Z</time></trkpt><trkpt lat="14.414121737013904" lon="121.01680463661607"><ele>45.0</ele><time>2026-04-03T23:57:28.001Z</time></trkpt><trkpt lat="14.414066516400744" lon="121.01663892776301"><ele>45.0</ele><time>2026-04-03T23:57:29.001Z</time></trkpt><trkpt lat="14.413985805996235" lon="121.01649009824435"><ele>45.0</ele><time>2026-04-03T23:57:30.001Z</time></trkpt><trkpt lat="14.413873816864985" lon="121.01635709834378"><ele>45.0</ele><time>2026-04-03T23:57:31.001Z</time></trkpt><trkpt lat="14.413742066162325" lon="121.01624347359974"><ele>45.0</ele><time>2026-04-03T23:57:32.001Z</time></trkpt><trkpt lat="14.413597226575238" lon="121.01614434014559"><ele>45.0</ele><time>2026-04-03T23:57:33.001Z</time></trkpt><trkpt lat="14.413437978654073" lon="121.01605826538295"><ele>45.0</ele><time>2026-04-03T23:57:34.001Z</time></trkpt><trkpt lat="14.413278328091996" lon="121.01597410087449"><ele>45.0</ele><time>2026-04-03T23:57:35.001Z</time></trkpt><trkpt lat="14.41311547554527" lon="121.01587782968595"><ele>45.0</ele><time>2026-04-03T23:57:36.001Z</time></trkpt><trkpt lat="14.412954774332263" lon="121.01577775161242"><ele>45.0</ele><time>2026-04-03T23:57:37.001Z</time></trkpt><trkpt lat="14.41279302217974" lon="121.01567275634767"><ele>45.666666666666664</ele><time>2026-04-03T23:57:38.001Z</time></trkpt><trkpt lat="14.412625979949334" lon="121.01556340439049"><ele>46.33333333333333</ele><time>2026-04-03T23:57:39.001Z</time></trkpt><trkpt lat="14.41245842134763" lon="121.01545455963574"><ele>47.0</ele><time>2026-04-03T23:57:40.001Z</time></trkpt><trkpt lat="14.412289542316785" lon="121.01534804941231"><ele>48.0</ele><time>2026-04-03T23:57:41.001Z</time></trkpt><trkpt lat="14.412117346224308" lon="121.01524163632565"><ele>49.0</ele><time>2026-04-03T23:57:42.001Z</time></trkpt><trkpt lat="14.411945456569725" lon="121.01513221726043"><ele>50.0</ele><time>2026-04-03T23:57:43.001Z</time></trkpt><trkpt lat="14.411771503447376" lon="121.01502170981432"><ele>50.0</ele><time>2026-04-03T23:57:44.001Z</time></trkpt><trkpt lat="14.411595363394591" lon="121.01490902745799"><ele>50.0</ele><time>2026-04-03T23:57:45.001Z</time></trkpt><trkpt lat="14.411424906608444" lon="121.0147966138504"><ele>50.0</ele><time>2026-04-03T23:57:46.001Z</time></trkpt><trkpt lat="14.411246087118972" lon="121.01468630581807"><ele>49.333333333333336</ele><time>2026-04-03T23:57:47.001Z</time></trkpt><trkpt lat="14.411071075372815" lon="121.01457501577293"><ele>48.66666666666667</ele><time>2026-04-03T23:57:48.001Z</time></trkpt><trkpt lat="14.41089427358367" lon="121.01446373725084"><ele>48.0</ele><time>2026-04-03T23:57:49.001Z</time></trkpt><trkpt lat="14.410719131997748" lon="121.01435237572365"><ele>48.0</ele><time>2026-04-03T23:57:50.001Z</time></trkpt><trkpt lat="14.41054148015713" lon="121.0142393232901"><ele>48.0</ele><time>2026-04-03T23:57:51.001Z</time></trkpt><trkpt lat="14.41036314871487" lon="121.01412649691713"><ele>48.0</ele><time>2026-04-03T23:57:52.001Z</time></trkpt><trkpt lat="14.410185103494461" lon="121.01401311980935"><ele>48.66666666666667</ele><time>2026-04-03T23:57:53.001Z</time></trkpt><trkpt lat="14.410004215259487" lon="121.01389951362398"><ele>49.333333333333336</ele><time>2026-04-03T23:57:54.001Z</time></trkpt><trkpt lat="14.409826282685652" lon="121.01378700407965"><ele>50.0</ele><time>2026-04-03T23:57:55.001Z</time></trkpt><trkpt lat="14.409646629146136" lon="121.01367354897414"><ele>50.0</ele><time>2026-04-03T23:57:56.001Z</time></trkpt><trkpt lat="14.409467855968291" lon="121.01356004767044"><ele>50.0</ele><time>2026-04-03T23:57:57.001Z</time></trkpt><trkpt lat="14.40928702991766" lon="121.0134453269553"><ele>50.0</ele><time>2026-04-03T23:57:58.001Z</time></trkpt><trkpt lat="14.409106475099216" lon="121.01333216611813"><ele>50.0</ele><time>2026-04-03T23:57:59.001Z</time></trkpt><trkpt lat="14.408927235518192" lon="121.01321842592986"><ele>50.0</ele><time>2026-04-03T23:58:00.001Z</time></trkpt><trkpt lat="14.408745476300007" lon="121.01310285130253"><ele>50.0</ele><time>2026-04-03T23:58:01.001Z</time></trkpt><trkpt lat="14.408564722136461" lon="121.01298644503976"><ele>50.0</ele><time>2026-04-03T23:58:02Z</time></trkpt><trkpt lat="14.40838504029969" lon="121.0128697725406"><ele>50.0</ele><time>2026-04-03T23:58:03Z</time></trkpt><trkpt lat="14.408198949683733" lon="121.01275455122446"><ele>50.0</ele><time>2026-04-03T23:58:04Z</time></trkpt><trkpt lat="14.408015997239188" lon="121.01263922579717"><ele>49.66666666666667</ele><time>2026-04-03T23:58:05Z</time></trkpt><trkpt lat="14.407841315362697" lon="121.01252661403137"><ele>49.33333333333333</ele><time>2026-04-03T23:58:06Z</time></trkpt><trkpt lat="14.407678876156401" lon="121.01241984942295"><ele>49.0</ele><time>2026-04-03T23:58:07Z</time></trkpt><trkpt lat="14.40751575299052" lon="121.01231687370326"><ele>49.0</ele><time>2026-04-03T23:58:08Z</time></trkpt><trkpt lat="14.407355254075684" lon="121.0122182542989"><ele>49.0</ele><time>2026-04-03T23:58:09Z</time></trkpt><trkpt lat="14.407209216990704" lon="121.01212355258606"><ele>49.0</ele><time>2026-04-03T23:58:10Z</time></trkpt><trkpt lat="14.407061747927584" lon="121.01203106601534"><ele>49.666666666666664</ele><time>2026-04-03T23:58:11Z</time></trkpt><trkpt lat="14.406921675612567" lon="121.01194780036882"><ele>50.33333333333333</ele><time>2026-04-03T23:58:12Z</time></trkpt><trkpt lat="14.406782554600138" lon="121.01187823831393"><ele>51.0</ele><time>2026-04-03T23:58:13Z</time></trkpt><trkpt lat="14.406631678271713" lon="121.01182439962051"><ele>51.0</ele><time>2026-04-03T23:58:14Z</time></trkpt><trkpt lat="14.406474092148803" lon="121.01178501861514"><ele>51.0</ele><time>2026-04-03T23:58:15Z</time></trkpt><trkpt lat="14.40631631623366" lon="121.0117606404786"><ele>51.0</ele><time>2026-04-03T23:58:16Z</time></trkpt><trkpt lat="14.406161444063455" lon="121.01174307742347"><ele>51.25</ele><time>2026-04-03T23:58:17Z</time></trkpt><trkpt lat="14.406008167955607" lon="121.01173893527523"><ele>51.5</ele><time>2026-04-03T23:58:18Z</time></trkpt><trkpt lat="14.40586220483043" lon="121.01175289713322"><ele>51.75</ele><time>2026-04-03T23:58:19Z</time></trkpt><trkpt lat="14.405732880918617" lon="121.01178322974424"><ele>52.0</ele><time>2026-04-03T23:58:20Z</time></trkpt><trkpt lat="14.405614272535155" lon="121.01182194765113"><ele>52.0</ele><time>2026-04-03T23:58:21Z</time></trkpt><trkpt lat="14.405497039911143" lon="121.01187998135957"><ele>52.0</ele><time>2026-04-03T23:58:22Z</time></trkpt><trkpt lat="14.405393750670825" lon="121.01196473413478"><ele>52.0</ele><time>2026-04-03T23:58:23Z</time></trkpt><trkpt lat="14.405299490288257" lon="121.01205587938782"><ele>52.0</ele><time>2026-04-03T23:58:24Z</time></trkpt><trkpt lat="14.40519965117203" lon="121.01214426156692"><ele>52.25</ele><time>2026-04-03T23:58:25Z</time></trkpt><trkpt lat="14.405087896137701" lon="121.01220926708042"><ele>52.5</ele><time>2026-04-03T23:58:26Z</time></trkpt><trkpt lat="14.404965020048792" lon="121.01225155788465"><ele>52.75</ele><time>2026-04-03T23:58:27Z</time></trkpt><trkpt lat="14.4048311805526" lon="121.01226531712636"><ele>53.0</ele><time>2026-04-03T23:58:28Z</time></trkpt><trkpt lat="14.404689893602281" lon="121.01224929920251"><ele>52.66666666666667</ele><time>2026-04-03T23:58:29Z</time></trkpt><trkpt lat="14.40454469005741" lon="121.01222438971313"><ele>52.33333333333333</ele><time>2026-04-03T23:58:30Z</time></trkpt><trkpt lat="14.404394636853942" lon="121.01220513368543"><ele>52.0</ele><time>2026-04-03T23:58:31Z</time></trkpt><trkpt lat="14.404237583128973" lon="121.01218838027992"><ele>52.0</ele><time>2026-04-03T23:58:32Z</time></trkpt><trkpt lat="14.404078927787523" lon="121.0121728985504"><ele>52.0</ele><time>2026-04-03T23:58:33Z</time></trkpt><trkpt lat="14.403913894616851" lon="121.01214955114537"><ele>52.0</ele><time>2026-04-03T23:58:34Z</time></trkpt><trkpt lat="14.403751700631734" lon="121.01212804577543"><ele>51.666666666666664</ele><time>2026-04-03T23:58:35Z</time></trkpt><trkpt lat="14.403586250657035" lon="121.0121085980617"><ele>51.33333333333333</ele><time>2026-04-03T23:58:36Z</time></trkpt><trkpt lat="14.403418018828834" lon="121.01208871875919"><ele>51.0</ele><time>2026-04-03T23:58:37Z</time></trkpt><trkpt lat="14.403248820078115" lon="121.01207134278869"><ele>51.0</ele><time>2026-04-03T23:58:38Z</time></trkpt><trkpt lat="14.403071834828117" lon="121.01205439430994"><ele>51.0</ele><time>2026-04-03T23:58:39Z</time></trkpt><trkpt lat="14.402891210667075" lon="121.01203199745105"><ele>51.0</ele><time>2026-04-03T23:58:40Z</time></trkpt><trkpt lat="14.402710533989525" lon="121.01201133128356"><ele>51.33333333333333</ele><time>2026-04-03T23:58:41Z</time></trkpt><trkpt lat="14.40252685570534" lon="121.01198916635218"><ele>51.666666666666664</ele><time>2026-04-03T23:58:42Z</time></trkpt><trkpt lat="14.402347498303266" lon="121.01196472232579"><ele>52.0</ele><time>2026-04-03T23:58:43Z</time></trkpt><trkpt lat="14.402185872095965" lon="121.01194354111877"><ele>52.25</ele><time>2026-04-03T23:58:44Z</time></trkpt><trkpt lat="14.402033758716659" lon="121.01192344807443"><ele>52.5</ele><time>2026-04-03T23:58:45Z</time></trkpt><trkpt lat="14.401889190758512" lon="121.01190578362069"><ele>52.75</ele><time>2026-04-03T23:58:46Z</time></trkpt><trkpt lat="14.401751868313095" lon="121.01188772734447"><ele>53.0</ele><time>2026-04-03T23:58:47Z</time></trkpt><trkpt lat="14.40162882697707" lon="121.01187220739753"><ele>53.0</ele><time>2026-04-03T23:58:48Z</time></trkpt><trkpt lat="14.401507558848921" lon="121.0118601676691"><ele>53.0</ele><time>2026-04-03T23:58:49Z</time></trkpt><trkpt lat="14.401395495898411" lon="121.0118506350235"><ele>53.0</ele><time>2026-04-03T23:58:50Z</time></trkpt><trkpt lat="14.401293126830835" lon="121.01183754661994"><ele>53.0</ele><time>2026-04-03T23:58:51Z</time></trkpt><trkpt lat="14.401199873273354" lon="121.01182577219153"><ele>53.0</ele><time>2026-04-03T23:58:52.001Z</time></trkpt><trkpt lat="14.401115059361034" lon="121.01181500311506"><ele>53.8</ele><time>2026-04-03T23:58:53.001Z</time></trkpt><trkpt lat="14.40102959001691" lon="121.01180242381471"><ele>54.599999999999994</ele><time>2026-04-03T23:58:54.001Z</time></trkpt><trkpt lat="14.400944247354651" lon="121.0117918933935"><ele>55.400000000000006</ele><time>2026-04-03T23:58:55.001Z</time></trkpt><trkpt lat="14.400854323081113" lon="121.01178243569241"><ele>56.2</ele><time>2026-04-03T23:58:56.001Z</time></trkpt><trkpt lat="14.40075236556634" lon="121.01177113781227"><ele>57.0</ele><time>2026-04-03T23:58:57.001Z</time></trkpt><trkpt lat="14.400652236058253" lon="121.01175771753395"><ele>57.0</ele><time>2026-04-03T23:58:58.001Z</time></trkpt><trkpt lat="14.400547232547819" lon="121.01174639168258"><ele>57.0</ele><time>2026-04-03T23:58:59.001Z</time></trkpt><trkpt lat="14.4004483834376" lon="121.01173702025314"><ele>57.0</ele><time>2026-04-03T23:59:00.001Z</time></trkpt><trkpt lat="14.400349058607222" lon="121.01172944119415"><ele>57.0</ele><time>2026-04-03T23:59:01.001Z</time></trkpt><trkpt lat="14.400251672779731" lon="121.01172263872563"><ele>57.0</ele><time>2026-04-03T23:59:02.001Z</time></trkpt><trkpt lat="14.400167386128473" lon="121.01171482026433"><ele>56.0</ele><time>2026-04-03T23:59:03.001Z</time></trkpt><trkpt lat="14.40010361937338" lon="121.01171041597976"><ele>55.0</ele><time>2026-04-03T23:59:04.001Z</time></trkpt><trkpt lat="14.399999706129265" lon="121.01171293626982"><ele>54.0</ele><time>2026-04-03T23:59:06.001Z</time></trkpt><trkpt lat="14.399898035480886" lon="121.0117190940914"><ele>53.0</ele><time>2026-04-03T23:59:08.001Z</time></trkpt><trkpt lat="14.399808176678832" lon="121.01171219544064"><ele>52.0</ele><time>2026-04-03T23:59:09.001Z</time></trkpt><trkpt lat="14.399707501368415" lon="121.01169570465154"><ele>52.2</ele><time>2026-04-03T23:59:10.001Z</time></trkpt><trkpt lat="14.399602563450934" lon="121.01168216069019"><ele>52.400000000000006</ele><time>2026-04-03T23:59:11.001Z</time></trkpt><trkpt lat="14.399496070426787" lon="121.01166756178866"><ele>52.599999999999994</ele><time>2026-04-03T23:59:12.001Z</time></trkpt><trkpt lat="14.399403165104168" lon="121.01165638396942"><ele>52.8</ele><time>2026-04-03T23:59:13.001Z</time></trkpt><trkpt lat="14.399312604258363" lon="121.0116471853627"><ele>53.0</ele><time>2026-04-03T23:59:14.001Z</time></trkpt><trkpt lat="14.399219423098055" lon="121.01163668655823"><ele>53.0</ele><time>2026-04-03T23:59:15.001Z</time></trkpt><trkpt lat="14.399128494901085" lon="121.01162846083177"><ele>53.0</ele><time>2026-04-03T23:59:16.001Z</time></trkpt><trkpt lat="14.399029717797205" lon="121.01161243962288"><ele>53.0</ele><time>2026-04-03T23:59:17.001Z</time></trkpt><trkpt lat="14.398927346699999" lon="121.01159474730419"><ele>53.0</ele><time>2026-04-03T23:59:18.001Z</time></trkpt><trkpt lat="14.398818840295226" lon="121.01157268878224"><ele>53.0</ele><time>2026-04-03T23:59:19.001Z</time></trkpt><trkpt lat="14.398709257722064" lon="121.01154030542762"><ele>53.75</ele><time>2026-04-03T23:59:20.001Z</time></trkpt><trkpt lat="14.398597524716468" lon="121.01150372454492"><ele>54.5</ele><time>2026-04-03T23:59:21.001Z</time></trkpt><trkpt lat="14.398441481136047" lon="121.01145771948853"><ele>55.25</ele><time>2026-04-03T23:59:22.001Z</time></trkpt><trkpt lat="14.398306375877416" lon="121.01141119955624"><ele>56.0</ele><time>2026-04-03T23:59:23.001Z</time></trkpt><trkpt lat="14.398164939516903" lon="121.01136438897433"><ele>56.0</ele><time>2026-04-03T23:59:24.001Z</time></trkpt><trkpt lat="14.398017576546861" lon="121.01131766776649"><ele>56.0</ele><time>2026-04-03T23:59:25.001Z</time></trkpt><trkpt lat="14.397873354071491" lon="121.01126950215873"><ele>56.0</ele><time>2026-04-03T23:59:26.001Z</time></trkpt><trkpt lat="14.397736129848731" lon="121.01122266462532"><ele>55.8</ele><time>2026-04-03T23:59:27.001Z</time></trkpt><trkpt lat="14.397611255742602" lon="121.01118417876924"><ele>55.599999999999994</ele><time>2026-04-03T23:59:28.001Z</time></trkpt><trkpt lat="14.39750689169623" lon="121.01114912865847"><ele>55.4</ele><time>2026-04-03T23:59:29.001Z</time></trkpt><trkpt lat="14.397407255981001" lon="121.0111171250967"><ele>55.2</ele><time>2026-04-03T23:59:30.001Z</time></trkpt><trkpt lat="14.397326216855715" lon="121.0110896971821"><ele>55.0</ele><time>2026-04-03T23:59:31.001Z</time></trkpt><trkpt lat="14.397255929730905" lon="121.01106495963776"><ele>55.33333333333333</ele><time>2026-04-03T23:59:32.001Z</time></trkpt><trkpt lat="14.397151036834778" lon="121.0110220210869"><ele>55.666666666666664</ele><time>2026-04-03T23:59:34.001Z</time></trkpt><trkpt lat="14.39708545800888" lon="121.01099749438562"><ele>56.0</ele><time>2026-04-03T23:59:36.001Z</time></trkpt><trkpt lat="14.39699673951353" lon="121.01095621373523"><ele>56.33333333333333</ele><time>2026-04-04T00:00:08Z</time></trkpt><trkpt lat="14.396928664289762" lon="121.01093772824312"><ele>56.666666666666664</ele><time>2026-04-04T00:00:09Z</time></trkpt><trkpt lat="14.396849480393724" lon="121.01090687639955"><ele>57.0</ele><time>2026-04-04T00:00:10Z</time></trkpt><trkpt lat="14.396749039921863" lon="121.01086904242894"><ele>57.0</ele><time>2026-04-04T00:00:11Z</time></trkpt><trkpt lat="14.396647499431468" lon="121.01083471530606"><ele>57.0</ele><time>2026-04-04T00:00:12Z</time></trkpt><trkpt lat="14.396561362725555" lon="121.01080942027833"><ele>57.0</ele><time>2026-04-04T00:00:13Z</time></trkpt><trkpt lat="14.39647126158459" lon="121.01078297137055"><ele>57.0</ele><time>2026-04-04T00:00:14Z</time></trkpt><trkpt lat="14.396382008933639" lon="121.0107620782485"><ele>57.0</ele><time>2026-04-04T00:00:15Z</time></trkpt><trkpt lat="14.396283050843426" lon="121.01073307130865"><ele>57.25</ele><time>2026-04-04T00:00:16Z</time></trkpt><trkpt lat="14.396173402996535" lon="121.01070142475608"><ele>57.5</ele><time>2026-04-04T00:00:17Z</time></trkpt><trkpt lat="14.396058257479472" lon="121.01066945214072"><ele>57.75</ele><time>2026-04-04T00:00:18Z</time></trkpt><trkpt lat="14.395934134584264" lon="121.0106327104641"><ele>58.0</ele><time>2026-04-04T00:00:19Z</time></trkpt><trkpt lat="14.39580328454819" lon="121.0105914755717"><ele>58.0</ele><time>2026-04-04T00:00:20Z</time></trkpt><trkpt lat="14.395664639404295" lon="121.01054408796472"><ele>58.0</ele><time>2026-04-04T00:00:21Z</time></trkpt><trkpt lat="14.395514724117485" lon="121.01049726767086"><ele>58.0</ele><time>2026-04-04T00:00:22Z</time></trkpt><trkpt lat="14.395358807730553" lon="121.0104510199658"><ele>58.33333333333333</ele><time>2026-04-04T00:00:23Z</time></trkpt><trkpt lat="14.39520258563586" lon="121.01040546459522"><ele>58.66666666666667</ele><time>2026-04-04T00:00:24Z</time></trkpt><trkpt lat="14.39505469319914" lon="121.01035138198395"><ele>59.0</ele><time>2026-04-04T00:00:25Z</time></trkpt><trkpt lat="14.39490066157846" lon="121.01030486508198"><ele>59.0</ele><time>2026-04-04T00:00:26Z</time></trkpt><trkpt lat="14.394753199325589" lon="121.01026118426518"><ele>59.0</ele><time>2026-04-04T00:00:27Z</time></trkpt><trkpt lat="14.394603424001827" lon="121.01022386819614"><ele>59.0</ele><time>2026-04-04T00:00:28Z</time></trkpt><trkpt lat="14.394456260756844" lon="121.01018263942827"><ele>59.0</ele><time>2026-04-04T00:00:29Z</time></trkpt><trkpt lat="14.394297238540636" lon="121.01013834995709"><ele>59.0</ele><time>2026-04-04T00:00:30Z</time></trkpt><trkpt lat="14.394131614630766" lon="121.01009124361116"><ele>59.0</ele><time>2026-04-04T00:00:31Z</time></trkpt><trkpt lat="14.39395560407448" lon="121.01003926792413"><ele>59.66666666666667</ele><time>2026-04-04T00:00:32Z</time></trkpt><trkpt lat="14.393784716508405" lon="121.00999181528294"><ele>60.33333333333333</ele><time>2026-04-04T00:00:33Z</time></trkpt><trkpt lat="14.393591871715802" lon="121.00992602027836"><ele>61.0</ele><time>2026-04-04T00:00:34Z</time></trkpt><trkpt lat="14.393399218653188" lon="121.0098573689809"><ele>60.666666666666664</ele><time>2026-04-04T00:00:35Z</time></trkpt><trkpt lat="14.393229229050199" lon="121.00981432480204"><ele>60.33333333333333</ele><time>2026-04-04T00:00:36Z</time></trkpt><trkpt lat="14.393062160120577" lon="121.00974899104706"><ele>60.0</ele><time>2026-04-04T00:00:37Z</time></trkpt><trkpt lat="14.392856368250028" lon="121.00969295750895"><ele>60.0</ele><time>2026-04-04T00:00:38Z</time></trkpt><trkpt lat="14.392661231767194" lon="121.00963000316752"><ele>60.0</ele><time>2026-04-04T00:00:39Z</time></trkpt><trkpt lat="14.39246887619242" lon="121.00954959885168"><ele>60.0</ele><time>2026-04-04T00:00:40Z</time></trkpt><trkpt lat="14.392275692359163" lon="121.00948283211555"><ele>59.33333333333333</ele><time>2026-04-04T00:00:41Z</time></trkpt><trkpt lat="14.392097566408504" lon="121.00942111881862"><ele>58.666666666666664</ele><time>2026-04-04T00:00:42Z</time></trkpt><trkpt lat="14.391934858262035" lon="121.00936434132542"><ele>58.0</ele><time>2026-04-04T00:00:43Z</time></trkpt><trkpt lat="14.391779334854784" lon="121.00931998940902"><ele>58.0</ele><time>2026-04-04T00:00:44Z</time></trkpt><trkpt lat="14.391633698194784" lon="121.00926973694273"><ele>58.0</ele><time>2026-04-04T00:00:45Z</time></trkpt><trkpt lat="14.39148869386845" lon="121.00924663502965"><ele>58.0</ele><time>2026-04-04T00:00:46Z</time></trkpt><trkpt lat="14.39134306044737" lon="121.00925561945483"><ele>58.0</ele><time>2026-04-04T00:00:47Z</time></trkpt><trkpt lat="14.391194962446228" lon="121.009287116749"><ele>57.0</ele><time>2026-04-04T00:00:48Z</time></trkpt><trkpt lat="14.391036330990923" lon="121.00932533536302"><ele>56.0</ele><time>2026-04-04T00:00:49Z</time></trkpt><trkpt lat="14.390870840118088" lon="121.00935484930092"><ele>55.0</ele><time>2026-04-04T00:00:50Z</time></trkpt><trkpt lat="14.390701789685371" lon="121.0093835463193"><ele>55.0</ele><time>2026-04-04T00:00:51Z</time></trkpt><trkpt lat="14.390531344033704" lon="121.00941624249339"><ele>55.0</ele><time>2026-04-04T00:00:52Z</time></trkpt><trkpt lat="14.39035983241368" lon="121.00944230111332"><ele>55.0</ele><time>2026-04-04T00:00:53Z</time></trkpt><trkpt lat="14.390187253137293" lon="121.00946927169846"><ele>54.33333333333333</ele><time>2026-04-04T00:00:54Z</time></trkpt><trkpt lat="14.390014304087105" lon="121.00949632873699"><ele>53.66666666666667</ele><time>2026-04-04T00:00:55Z</time></trkpt><trkpt lat="14.389840674448582" lon="121.00952223157888"><ele>53.0</ele><time>2026-04-04T00:00:56Z</time></trkpt><trkpt lat="14.38966260656944" lon="121.00955220545056"><ele>51.333333333333336</ele><time>2026-04-04T00:00:57Z</time></trkpt><trkpt lat="14.389486765593352" lon="121.00958263837013"><ele>49.66666666666667</ele><time>2026-04-04T00:00:58Z</time></trkpt><trkpt lat="14.389313275823168" lon="121.00960500515613"><ele>48.0</ele><time>2026-04-04T00:00:59Z</time></trkpt><trkpt lat="14.38914434933846" lon="121.00963111228205"><ele>48.0</ele><time>2026-04-04T00:01:00Z</time></trkpt><trkpt lat="14.388974659134549" lon="121.00965645558017"><ele>48.0</ele><time>2026-04-04T00:01:01Z</time></trkpt><trkpt lat="14.388805761924797" lon="121.00968407278921"><ele>48.0</ele><time>2026-04-04T00:01:02Z</time></trkpt><trkpt lat="14.388636342909164" lon="121.00971156314688"><ele>49.66666666666667</ele><time>2026-04-04T00:01:03Z</time></trkpt><trkpt lat="14.388464206573941" lon="121.00973956238646"><ele>51.333333333333336</ele><time>2026-04-04T00:01:04Z</time></trkpt><trkpt lat="14.388290158814566" lon="121.00976921352932"><ele>53.0</ele><time>2026-04-04T00:01:05Z</time></trkpt><trkpt lat="14.38811923051685" lon="121.0097980157784"><ele>53.333333333333336</ele><time>2026-04-04T00:01:06Z</time></trkpt><trkpt lat="14.387941993067619" lon="121.00982463309396"><ele>53.66666666666667</ele><time>2026-04-04T00:01:07Z</time></trkpt><trkpt lat="14.387762611051508" lon="121.00985510807563"><ele>54.0</ele><time>2026-04-04T00:01:08Z</time></trkpt><trkpt lat="14.38757886706643" lon="121.00988724316215"><ele>54.0</ele><time>2026-04-04T00:01:09Z</time></trkpt><trkpt lat="14.38739521338518" lon="121.00992029972781"><ele>54.0</ele><time>2026-04-04T00:01:10Z</time></trkpt><trkpt lat="14.387200516849505" lon="121.00995153752959"><ele>54.0</ele><time>2026-04-04T00:01:11Z</time></trkpt><trkpt lat="14.38701003606188" lon="121.00998050615375"><ele>55.66666666666667</ele><time>2026-04-04T00:01:12Z</time></trkpt><trkpt lat="14.386819355714358" lon="121.01000602387505"><ele>57.333333333333336</ele><time>2026-04-04T00:01:13Z</time></trkpt><trkpt lat="14.386634850004542" lon="121.01003675537955"><ele>59.0</ele><time>2026-04-04T00:01:14Z</time></trkpt><trkpt lat="14.386458048749079" lon="121.0100674561631"><ele>59.0</ele><time>2026-04-04T00:01:15Z</time></trkpt><trkpt lat="14.386298977239653" lon="121.01009314660821"><ele>59.0</ele><time>2026-04-04T00:01:16Z</time></trkpt><trkpt lat="14.38614810521633" lon="121.01011621330215"><ele>59.0</ele><time>2026-04-04T00:01:17Z</time></trkpt><trkpt lat="14.386009523093918" lon="121.01012382543804"><ele>59.0</ele><time>2026-04-04T00:01:18Z</time></trkpt><trkpt lat="14.385865197003179" lon="121.01015051543538"><ele>59.0</ele><time>2026-04-04T00:01:19Z</time></trkpt><trkpt lat="14.385736773324679" lon="121.01016608227869"><ele>59.0</ele><time>2026-04-04T00:01:20Z</time></trkpt><trkpt lat="14.38561914029985" lon="121.01018194289921"><ele>59.0</ele><time>2026-04-04T00:01:21Z</time></trkpt><trkpt lat="14.385509508781412" lon="121.01020473479278"><ele>58.66666666666667</ele><time>2026-04-04T00:01:22Z</time></trkpt><trkpt lat="14.385417406364502" lon="121.0102157346499"><ele>58.333333333333336</ele><time>2026-04-04T00:01:23Z</time></trkpt><trkpt lat="14.385343638821107" lon="121.0102286145026"><ele>58.0</ele><time>2026-04-04T00:01:24Z</time></trkpt><trkpt lat="14.385271630460066" lon="121.01024214082621"><ele>57.66666666666667</ele><time>2026-04-04T00:01:26Z</time></trkpt><trkpt lat="14.385190202482306" lon="121.01025686469343"><ele>57.333333333333336</ele><time>2026-04-04T00:01:52.001Z</time></trkpt><trkpt lat="14.385115171636132" lon="121.01027285481915"><ele>57.0</ele><time>2026-04-04T00:01:53.001Z</time></trkpt><trkpt lat="14.385025929047451" lon="121.01029694426137"><ele>57.0</ele><time>2026-04-04T00:01:54.001Z</time></trkpt><trkpt lat="14.384927292815467" lon="121.01032007323248"><ele>57.0</ele><time>2026-04-04T00:01:55.001Z</time></trkpt><trkpt lat="14.384813989187267" lon="121.01036345471171"><ele>57.0</ele><time>2026-04-04T00:01:56.001Z</time></trkpt><trkpt lat="14.384699921890101" lon="121.0104180571149"><ele>57.0</ele><time>2026-04-04T00:01:57.001Z</time></trkpt><trkpt lat="14.384579991448456" lon="121.01048134719721"><ele>58.0</ele><time>2026-04-04T00:01:58.001Z</time></trkpt><trkpt lat="14.384465425048273" lon="121.01055929367344"><ele>59.0</ele><time>2026-04-04T00:01:59.001Z</time></trkpt><trkpt lat="14.384339372344613" lon="121.01065278867198"><ele>60.0</ele><time>2026-04-04T00:02:00.001Z</time></trkpt><trkpt lat="14.384208880010322" lon="121.01073932764207"><ele>61.0</ele><time>2026-04-04T00:02:01.001Z</time></trkpt><trkpt lat="14.384072456576124" lon="121.01083414877787"><ele>61.0</ele><time>2026-04-04T00:02:02.001Z</time></trkpt><trkpt lat="14.383933547888972" lon="121.01093042891654"><ele>61.0</ele><time>2026-04-04T00:02:03.001Z</time></trkpt><trkpt lat="14.383787687699641" lon="121.01102779073128"><ele>61.0</ele><time>2026-04-04T00:02:04.001Z</time></trkpt><trkpt lat="14.383637097414837" lon="121.01112877785516"><ele>61.0</ele><time>2026-04-04T00:02:05.001Z</time></trkpt><trkpt lat="14.383486747939628" lon="121.01123130634663"><ele>61.0</ele><time>2026-04-04T00:02:06.001Z</time></trkpt><trkpt lat="14.383334118631259" lon="121.01133815032564"><ele>61.0</ele><time>2026-04-04T00:02:07.001Z</time></trkpt><trkpt lat="14.383176941626871" lon="121.01144609576322"><ele>61.0</ele><time>2026-04-04T00:02:08.001Z</time></trkpt><trkpt lat="14.383015794895682" lon="121.01155796814591"><ele>61.0</ele><time>2026-04-04T00:02:09.001Z</time></trkpt><trkpt lat="14.382852054971044" lon="121.01166772481747"><ele>61.0</ele><time>2026-04-04T00:02:10.001Z</time></trkpt><trkpt lat="14.382687609356601" lon="121.01177949429727"><ele>61.666666666666664</ele><time>2026-04-04T00:02:11.001Z</time></trkpt><trkpt lat="14.382524182092176" lon="121.01189151365236"><ele>62.33333333333333</ele><time>2026-04-04T00:02:12.001Z</time></trkpt><trkpt lat="14.382358785599681" lon="121.01200435868438"><ele>63.0</ele><time>2026-04-04T00:02:13.001Z</time></trkpt><trkpt lat="14.382187402112763" lon="121.01211653753329"><ele>63.0</ele><time>2026-04-04T00:02:14Z</time></trkpt><trkpt lat="14.382020834041288" lon="121.01223055242163"><ele>63.0</ele><time>2026-04-04T00:02:15Z</time></trkpt><trkpt lat="14.381853529286321" lon="121.01234712500253"><ele>63.0</ele><time>2026-04-04T00:02:16Z</time></trkpt><trkpt lat="14.381683857270435" lon="121.01246615698012"><ele>63.0</ele><time>2026-04-04T00:02:17Z</time></trkpt><trkpt lat="14.381512341583985" lon="121.01258359889958"><ele>63.0</ele><time>2026-04-04T00:02:18Z</time></trkpt><trkpt lat="14.381340522137721" lon="121.01269941870197"><ele>63.0</ele><time>2026-04-04T00:02:19Z</time></trkpt><trkpt lat="14.381172667256292" lon="121.01281384287259"><ele>63.0</ele><time>2026-04-04T00:02:20Z</time></trkpt><trkpt lat="14.381012283562908" lon="121.01292653615518"><ele>63.0</ele><time>2026-04-04T00:02:21Z</time></trkpt><trkpt lat="14.380853276945661" lon="121.01303285462232"><ele>63.0</ele><time>2026-04-04T00:02:22Z</time></trkpt><trkpt lat="14.380696357454388" lon="121.0131335563142"><ele>63.0</ele><time>2026-04-04T00:02:23Z</time></trkpt><trkpt lat="14.38053948294474" lon="121.01323076910685"><ele>63.0</ele><time>2026-04-04T00:02:24Z</time></trkpt><trkpt lat="14.380380408588968" lon="121.01331930137025"><ele>63.0</ele><time>2026-04-04T00:02:25Z</time></trkpt><trkpt lat="14.380222944696293" lon="121.01338145139026"><ele>63.66666666666667</ele><time>2026-04-04T00:02:26Z</time></trkpt><trkpt lat="14.380058147929383" lon="121.01341514662016"><ele>64.33333333333334</ele><time>2026-04-04T00:02:27Z</time></trkpt><trkpt lat="14.379885147125815" lon="121.01343499595055"><ele>65.0</ele><time>2026-04-04T00:02:28Z</time></trkpt><trkpt lat="14.379708447141534" lon="121.01343246749661"><ele>63.66666666666667</ele><time>2026-04-04T00:02:29Z</time></trkpt><trkpt lat="14.379531647712037" lon="121.01341532985712"><ele>62.33333333333333</ele><time>2026-04-04T00:02:30Z</time></trkpt><trkpt lat="14.379350340566486" lon="121.0133867773634"><ele>61.0</ele><time>2026-04-04T00:02:31Z</time></trkpt><trkpt lat="14.379164241672372" lon="121.01335051031936"><ele>60.0</ele><time>2026-04-04T00:02:32Z</time></trkpt><trkpt lat="14.378977542472887" lon="121.01331616773636"><ele>59.0</ele><time>2026-04-04T00:02:33Z</time></trkpt><trkpt lat="14.378782927225714" lon="121.01328300354793"><ele>58.0</ele><time>2026-04-04T00:02:34Z</time></trkpt><trkpt lat="14.37859497018389" lon="121.01325056019708"><ele>58.0</ele><time>2026-04-04T00:02:35Z</time></trkpt><trkpt lat="14.378396528083352" lon="121.01321609009186"><ele>58.0</ele><time>2026-04-04T00:02:36Z</time></trkpt><trkpt lat="14.378203011935174" lon="121.013182666107"><ele>58.0</ele><time>2026-04-04T00:02:37Z</time></trkpt><trkpt lat="14.378009125549708" lon="121.0131481282982"><ele>59.666666666666664</ele><time>2026-04-04T00:02:38Z</time></trkpt><trkpt lat="14.377810531843833" lon="121.01311328465306"><ele>61.33333333333333</ele><time>2026-04-04T00:02:39Z</time></trkpt><trkpt lat="14.377617759413043" lon="121.01308071209512"><ele>63.0</ele><time>2026-04-04T00:02:40Z</time></trkpt><trkpt lat="14.377427075820957" lon="121.01304757796686"><ele>63.0</ele><time>2026-04-04T00:02:41Z</time></trkpt><trkpt lat="14.377249145008218" lon="121.01302006919599"><ele>63.0</ele><time>2026-04-04T00:02:42Z</time></trkpt><trkpt lat="14.377087790739843" lon="121.0129926882551"><ele>63.0</ele><time>2026-04-04T00:02:43Z</time></trkpt><trkpt lat="14.376948487318632" lon="121.01296598096805"><ele>63.0</ele><time>2026-04-04T00:02:44Z</time></trkpt><trkpt lat="14.37682811256576" lon="121.01294386084416"><ele>63.0</ele><time>2026-04-04T00:02:45Z</time></trkpt><trkpt lat="14.37673111699256" lon="121.0129250057228"><ele>63.0</ele><time>2026-04-04T00:02:46Z</time></trkpt><trkpt lat="14.376655276145774" lon="121.01291178080614"><ele>63.0</ele><time>2026-04-04T00:02:47Z</time></trkpt><trkpt lat="14.376584343051558" lon="121.01290958753056"><ele>63.0</ele><time>2026-04-04T00:02:50Z</time></trkpt><trkpt lat="14.37651450930318" lon="121.01289842521585"><ele>63.0</ele><time>2026-04-04T00:03:14Z</time></trkpt><trkpt lat="14.37643898147527" lon="121.01288345477882"><ele>63.599999999999994</ele><time>2026-04-04T00:03:15Z</time></trkpt><trkpt lat="14.376352107307032" lon="121.0128690625876"><ele>64.19999999999999</ele><time>2026-04-04T00:03:16Z</time></trkpt><trkpt lat="14.376251057947812" lon="121.01284936867188"><ele>64.8</ele><time>2026-04-04T00:03:17Z</time></trkpt><trkpt lat="14.376137632584161" lon="121.01282743468744"><ele>65.39999999999999</ele><time>2026-04-04T00:03:18Z</time></trkpt><trkpt lat="14.376023810039797" lon="121.01280968045069"><ele>66.0</ele><time>2026-04-04T00:03:19Z</time></trkpt><trkpt lat="14.375904863508357" lon="121.01278606399997"><ele>66.0</ele><time>2026-04-04T00:03:20Z</time></trkpt><trkpt lat="14.37579680337307" lon="121.01276243933103"><ele>66.0</ele><time>2026-04-04T00:03:21Z</time></trkpt><trkpt lat="14.3756885939056" lon="121.0127328977759"><ele>66.0</ele><time>2026-04-04T00:03:22Z</time></trkpt><trkpt lat="14.375586318955646" lon="121.01269998116483"><ele>66.0</ele><time>2026-04-04T00:03:23Z</time></trkpt><trkpt lat="14.375497187607476" lon="121.01265953993594"><ele>66.0</ele><time>2026-04-04T00:03:24Z</time></trkpt><trkpt lat="14.375412903192746" lon="121.01261302807137"><ele>66.2</ele><time>2026-04-04T00:03:25Z</time></trkpt><trkpt lat="14.375332457088701" lon="121.01257151244242"><ele>66.39999999999999</ele><time>2026-04-04T00:03:26Z</time></trkpt><trkpt lat="14.375244069205522" lon="121.01254024364883"><ele>66.6</ele><time>2026-04-04T00:03:27Z</time></trkpt><trkpt lat="14.375155794209721" lon="121.01252022370774"><ele>66.8</ele><time>2026-04-04T00:03:28Z</time></trkpt><trkpt lat="14.375059771415769" lon="121.01251617637163"><ele>67.0</ele><time>2026-04-04T00:03:29Z</time></trkpt><trkpt lat="14.374958984440267" lon="121.01252560250875"><ele>67.0</ele><time>2026-04-04T00:03:30Z</time></trkpt><trkpt lat="14.374857842030726" lon="121.01253822700623"><ele>67.0</ele><time>2026-04-04T00:03:31Z</time></trkpt><trkpt lat="14.374753044080881" lon="121.01254981846385"><ele>67.0</ele><time>2026-04-04T00:03:32Z</time></trkpt><trkpt lat="14.374645998936666" lon="121.01255997594723"><ele>67.0</ele><time>2026-04-04T00:03:33Z</time></trkpt><trkpt lat="14.374543978243466" lon="121.01256292140978"><ele>67.0</ele><time>2026-04-04T00:03:34Z</time></trkpt><trkpt lat="14.374445629251662" lon="121.01256392236209"><ele>66.6</ele><time>2026-04-04T00:03:35Z</time></trkpt><trkpt lat="14.374345584510964" lon="121.01256158487075"><ele>66.2</ele><time>2026-04-04T00:03:36Z</time></trkpt><trkpt lat="14.374243218412392" lon="121.0125472420032"><ele>65.8</ele><time>2026-04-04T00:03:37Z</time></trkpt><trkpt lat="14.374139953514554" lon="121.01251698769103"><ele>65.4</ele><time>2026-04-04T00:03:38Z</time></trkpt><trkpt lat="14.374035260839081" lon="121.0124776454093"><ele>65.0</ele><time>2026-04-04T00:03:39Z</time></trkpt><trkpt lat="14.373924589027563" lon="121.01242731554098"><ele>64.75</ele><time>2026-04-04T00:03:40Z</time></trkpt><trkpt lat="14.373814203056279" lon="121.01236640681678"><ele>64.5</ele><time>2026-04-04T00:03:41Z</time></trkpt><trkpt lat="14.373693973282789" lon="121.01230008344832"><ele>64.25</ele><time>2026-04-04T00:03:42Z</time></trkpt><trkpt lat="14.373567574014144" lon="121.01222126309293"><ele>64.0</ele><time>2026-04-04T00:03:43Z</time></trkpt><trkpt lat="14.373438831847968" lon="121.0121416662359"><ele>64.0</ele><time>2026-04-04T00:03:44Z</time></trkpt><trkpt lat="14.373292022039484" lon="121.01205866190747"><ele>64.0</ele><time>2026-04-04T00:03:45Z</time></trkpt><trkpt lat="14.373146244120434" lon="121.01197415535742"><ele>64.0</ele><time>2026-04-04T00:03:46Z</time></trkpt><trkpt lat="14.37299089900847" lon="121.0118869599286"><ele>64.0</ele><time>2026-04-04T00:03:47Z</time></trkpt><trkpt lat="14.372844877297927" lon="121.01179698864765"><ele>64.0</ele><time>2026-04-04T00:03:48Z</time></trkpt><trkpt lat="14.372686049162754" lon="121.01170299515834"><ele>64.0</ele><time>2026-04-04T00:03:49Z</time></trkpt><trkpt lat="14.372529256067093" lon="121.011614138091"><ele>64.0</ele><time>2026-04-04T00:03:50Z</time></trkpt><trkpt lat="14.372375622178035" lon="121.0115192661085"><ele>64.0</ele><time>2026-04-04T00:03:51Z</time></trkpt><trkpt lat="14.372215933345535" lon="121.0114283882938"><ele>64.0</ele><time>2026-04-04T00:03:52Z</time></trkpt><trkpt lat="14.372063709028854" lon="121.01133399843617"><ele>65.0</ele><time>2026-04-04T00:03:53Z</time></trkpt><trkpt lat="14.371905281975371" lon="121.0112444282058"><ele>66.0</ele><time>2026-04-04T00:03:54Z</time></trkpt><trkpt lat="14.371752370126451" lon="121.01114682825835"><ele>67.0</ele><time>2026-04-04T00:03:55Z</time></trkpt><trkpt lat="14.371588396965365" lon="121.01106238722411"><ele>67.0</ele><time>2026-04-04T00:03:56Z</time></trkpt><trkpt lat="14.371437627589659" lon="121.0109675737686"><ele>67.0</ele><time>2026-04-04T00:03:57Z</time></trkpt><trkpt lat="14.37127718328757" lon="121.01088034591328"><ele>67.0</ele><time>2026-04-04T00:03:58Z</time></trkpt><trkpt lat="14.371125325456626" lon="121.01078670422369"><ele>66.66666666666666</ele><time>2026-04-04T00:03:59Z</time></trkpt><trkpt lat="14.370972582410404" lon="121.01069958883318"><ele>66.33333333333333</ele><time>2026-04-04T00:04:00Z</time></trkpt><trkpt lat="14.370823319416644" lon="121.01060468446822"><ele>66.0</ele><time>2026-04-04T00:04:01Z</time></trkpt><trkpt lat="14.370674290978343" lon="121.01052285336031"><ele>65.66666666666667</ele><time>2026-04-04T00:04:02Z</time></trkpt><trkpt lat="14.370522742717343" lon="121.01044022898505"><ele>65.33333333333334</ele><time>2026-04-04T00:04:03Z</time></trkpt><trkpt lat="14.370380672720572" lon="121.01034856059397"><ele>65.0</ele><time>2026-04-04T00:04:04Z</time></trkpt><trkpt lat="14.37024805678203" lon="121.01026858287626"><ele>65.0</ele><time>2026-04-04T00:04:05Z</time></trkpt><trkpt lat="14.370115635369505" lon="121.01019257441797"><ele>65.0</ele><time>2026-04-04T00:04:06Z</time></trkpt><trkpt lat="14.369981643996057" lon="121.01011976777731"><ele>65.0</ele><time>2026-04-04T00:04:07.001Z</time></trkpt><trkpt lat="14.369836109013617" lon="121.01005408220853"><ele>66.66666666666667</ele><time>2026-04-04T00:04:08.001Z</time></trkpt><trkpt lat="14.369685393650075" lon="121.01000805589065"><ele>68.33333333333333</ele><time>2026-04-04T00:04:09.001Z</time></trkpt><trkpt lat="14.36952702533167" lon="121.00998729381779"><ele>70.0</ele><time>2026-04-04T00:04:10.001Z</time></trkpt><trkpt lat="14.36936978916613" lon="121.0099940412434"><ele>70.0</ele><time>2026-04-04T00:04:11.001Z</time></trkpt><trkpt lat="14.369199949523736" lon="121.01000794377894"><ele>70.0</ele><time>2026-04-04T00:04:12.001Z</time></trkpt><trkpt lat="14.369060104790346" lon="121.00998586016355"><ele>70.0</ele><time>2026-04-04T00:04:13.001Z</time></trkpt><trkpt lat="14.368901544407073" lon="121.00997147390989"><ele>71.0</ele><time>2026-04-04T00:04:14.001Z</time></trkpt><trkpt lat="14.368740748015917" lon="121.00996030666465"><ele>72.0</ele><time>2026-04-04T00:04:15.001Z</time></trkpt><trkpt lat="14.368576410207565" lon="121.00995488833603"><ele>73.0</ele><time>2026-04-04T00:04:16.001Z</time></trkpt><trkpt lat="14.368412971875163" lon="121.00994311695287"><ele>73.0</ele><time>2026-04-04T00:04:17.001Z</time></trkpt><trkpt lat="14.368250246286914" lon="121.00993926327808"><ele>73.0</ele><time>2026-04-04T00:04:18.001Z</time></trkpt><trkpt lat="14.368076156140978" lon="121.00993242613116"><ele>73.0</ele><time>2026-04-04T00:04:19.001Z</time></trkpt><trkpt lat="14.36791260039583" lon="121.0099206643193"><ele>74.0</ele><time>2026-04-04T00:04:20Z</time></trkpt><trkpt lat="14.36774671464585" lon="121.00990853608836"><ele>75.0</ele><time>2026-04-04T00:04:21Z</time></trkpt><trkpt lat="14.367581311022793" lon="121.00989876573239"><ele>76.0</ele><time>2026-04-04T00:04:22Z</time></trkpt><trkpt lat="14.367410726341378" lon="121.00988437602304"><ele>76.0</ele><time>2026-04-04T00:04:23Z</time></trkpt><trkpt lat="14.367245681153232" lon="121.00987687796452"><ele>76.0</ele><time>2026-04-04T00:04:24Z</time></trkpt><trkpt lat="14.367077974925138" lon="121.00986505178854"><ele>76.0</ele><time>2026-04-04T00:04:25Z</time></trkpt><trkpt lat="14.366908090041875" lon="121.00985952533647"><ele>75.66666666666666</ele><time>2026-04-04T00:04:26Z</time></trkpt><trkpt lat="14.366739031466492" lon="121.00985016742422"><ele>75.33333333333333</ele><time>2026-04-04T00:04:27Z</time></trkpt><trkpt lat="14.366566715381293" lon="121.0098406045719"><ele>75.0</ele><time>2026-04-04T00:04:28Z</time></trkpt><trkpt lat="14.366401244632124" lon="121.00982758336089"><ele>75.66666666666667</ele><time>2026-04-04T00:04:29Z</time></trkpt><trkpt lat="14.366225598656982" lon="121.00982061099789"><ele>76.33333333333334</ele><time>2026-04-04T00:04:30Z</time></trkpt><trkpt lat="14.366059988423661" lon="121.00980522300019"><ele>77.0</ele><time>2026-04-04T00:04:31Z</time></trkpt><trkpt lat="14.365889584427581" lon="121.00979682853448"><ele>77.0</ele><time>2026-04-04T00:04:32Z</time></trkpt><trkpt lat="14.365719105772886" lon="121.00978582579197"><ele>77.0</ele><time>2026-04-04T00:04:33Z</time></trkpt><trkpt lat="14.365551519127088" lon="121.00977400003188"><ele>77.0</ele><time>2026-04-04T00:04:34Z</time></trkpt><trkpt lat="14.36537135287761" lon="121.00977059270383"><ele>77.66666666666667</ele><time>2026-04-04T00:04:35Z</time></trkpt><trkpt lat="14.365194795876778" lon="121.00976037345869"><ele>78.33333333333333</ele><time>2026-04-04T00:04:36Z</time></trkpt><trkpt lat="14.365018547905931" lon="121.00975006274747"><ele>79.0</ele><time>2026-04-04T00:04:37Z</time></trkpt><trkpt lat="14.364837374328769" lon="121.00973668263846"><ele>79.33333333333333</ele><time>2026-04-04T00:04:38Z</time></trkpt><trkpt lat="14.364656054481417" lon="121.00973468184736"><ele>79.66666666666667</ele><time>2026-04-04T00:04:39Z</time></trkpt><trkpt lat="14.364480578168376" lon="121.00972391528619"><ele>80.0</ele><time>2026-04-04T00:04:40Z</time></trkpt><trkpt lat="14.36430200799102" lon="121.00971831169971"><ele>80.0</ele><time>2026-04-04T00:04:41Z</time></trkpt><trkpt lat="14.364118879283373" lon="121.00970686988086"><ele>80.0</ele><time>2026-04-04T00:04:42Z</time></trkpt><trkpt lat="14.36393735693693" lon="121.00969591794978"><ele>80.0</ele><time>2026-04-04T00:04:43Z</time></trkpt><trkpt lat="14.363748699544095" lon="121.00968760863475"><ele>80.0</ele><time>2026-04-04T00:04:44Z</time></trkpt><trkpt lat="14.363572448944112" lon="121.00967776903667"><ele>80.0</ele><time>2026-04-04T00:04:45Z</time></trkpt><trkpt lat="14.363391600819936" lon="121.00966392238152"><ele>80.0</ele><time>2026-04-04T00:04:46Z</time></trkpt><trkpt lat="14.363203948672455" lon="121.00965430816454"><ele>80.0</ele><time>2026-04-04T00:04:47Z</time></trkpt><trkpt lat="14.363015272867436" lon="121.00963880148647"><ele>80.0</ele><time>2026-04-04T00:04:48Z</time></trkpt><trkpt lat="14.36282958671947" lon="121.00962848991675"><ele>80.0</ele><time>2026-04-04T00:04:49Z</time></trkpt><trkpt lat="14.362644487579237" lon="121.00961757461302"><ele>80.0</ele><time>2026-04-04T00:04:50Z</time></trkpt><trkpt lat="14.362460454568795" lon="121.00960591530307"><ele>80.0</ele><time>2026-04-04T00:04:51Z</time></trkpt><trkpt lat="14.362271942054262" lon="121.00959804711196"><ele>80.0</ele><time>2026-04-04T00:04:52Z</time></trkpt><trkpt lat="14.362098827271351" lon="121.00959162809835"><ele>81.0</ele><time>2026-04-04T00:04:53Z</time></trkpt><trkpt lat="14.36193152561283" lon="121.00958359805513"><ele>82.0</ele><time>2026-04-04T00:04:54Z</time></trkpt><trkpt lat="14.361770177504901" lon="121.00957216065264"><ele>83.0</ele><time>2026-04-04T00:04:55Z</time></trkpt><trkpt lat="14.361602203929609" lon="121.00956825010475"><ele>83.0</ele><time>2026-04-04T00:04:56Z</time></trkpt><trkpt lat="14.361436520054559" lon="121.0095596451116"><ele>83.0</ele><time>2026-04-04T00:04:57Z</time></trkpt><trkpt lat="14.361274584138663" lon="121.00954612942758"><ele>83.0</ele><time>2026-04-04T00:04:58Z</time></trkpt><trkpt lat="14.361110656500452" lon="121.00953684147879"><ele>81.66666666666667</ele><time>2026-04-04T00:04:59Z</time></trkpt><trkpt lat="14.360948429404393" lon="121.00952269734944"><ele>80.33333333333333</ele><time>2026-04-04T00:05:00Z</time></trkpt><trkpt lat="14.360787748812802" lon="121.00951315425664"><ele>79.0</ele><time>2026-04-04T00:05:01Z</time></trkpt><trkpt lat="14.360627824488628" lon="121.00950057280112"><ele>79.0</ele><time>2026-04-04T00:05:02Z</time></trkpt><trkpt lat="14.360461118899774" lon="121.00949424446131"><ele>79.0</ele><time>2026-04-04T00:05:03Z</time></trkpt><trkpt lat="14.360303639383352" lon="121.00948152054899"><ele>79.0</ele><time>2026-04-04T00:05:04Z</time></trkpt><trkpt lat="14.360145787411287" lon="121.00947366741735"><ele>79.0</ele><time>2026-04-04T00:05:05Z</time></trkpt><trkpt lat="14.359993478424466" lon="121.00947453366963"><ele>79.0</ele><time>2026-04-04T00:05:06Z</time></trkpt><trkpt lat="14.3598623743953" lon="121.00945841896625"><ele>79.0</ele><time>2026-04-04T00:05:07Z</time></trkpt><trkpt lat="14.359724086901336" lon="121.00945289483639"><ele>79.0</ele><time>2026-04-04T00:05:08Z</time></trkpt><trkpt lat="14.359582967096662" lon="121.00944150884581"><ele>79.0</ele><time>2026-04-04T00:05:09Z</time></trkpt><trkpt lat="14.359443700291632" lon="121.00943614306568"><ele>79.0</ele><time>2026-04-04T00:05:10Z</time></trkpt><trkpt lat="14.359300521904546" lon="121.009428209642"><ele>79.0</ele><time>2026-04-04T00:05:11Z</time></trkpt><trkpt lat="14.359152262449824" lon="121.00942053286145"><ele>79.0</ele><time>2026-04-04T00:05:12Z</time></trkpt><trkpt lat="14.35900079552136" lon="121.00941345969831"><ele>79.33333333333333</ele><time>2026-04-04T00:05:13Z</time></trkpt><trkpt lat="14.358854504047233" lon="121.00939709907404"><ele>79.66666666666667</ele><time>2026-04-04T00:05:14Z</time></trkpt><trkpt lat="14.358697543576175" lon="121.00939167177522"><ele>80.0</ele><time>2026-04-04T00:05:15Z</time></trkpt><trkpt lat="14.358540676456515" lon="121.00938861008677"><ele>80.0</ele><time>2026-04-04T00:05:16Z</time></trkpt><trkpt lat="14.358387022632575" lon="121.0093737942016"><ele>80.0</ele><time>2026-04-04T00:05:17Z</time></trkpt><trkpt lat="14.3582302160466" lon="121.00937033645165"><ele>80.0</ele><time>2026-04-04T00:05:18Z</time></trkpt><trkpt lat="14.358073069413843" lon="121.00935966406658"><ele>80.33333333333334</ele><time>2026-04-04T00:05:19Z</time></trkpt><trkpt lat="14.357915658442987" lon="121.00935118550201"><ele>80.66666666666667</ele><time>2026-04-04T00:05:20Z</time></trkpt><trkpt lat="14.357757180576042" lon="121.00933367833754"><ele>81.0</ele><time>2026-04-04T00:05:21Z</time></trkpt><trkpt lat="14.357592043931692" lon="121.00933424666007"><ele>81.0</ele><time>2026-04-04T00:05:22Z</time></trkpt><trkpt lat="14.357429771672642" lon="121.00932092910443"><ele>81.0</ele><time>2026-04-04T00:05:23Z</time></trkpt><trkpt lat="14.357266243318696" lon="121.0093122412949"><ele>81.0</ele><time>2026-04-04T00:05:24Z</time></trkpt><trkpt lat="14.35710551508109" lon="121.00930465341129"><ele>81.33333333333333</ele><time>2026-04-04T00:05:25Z</time></trkpt><trkpt lat="14.356944811950335" lon="121.00930782650427"><ele>81.66666666666666</ele><time>2026-04-04T00:05:26Z</time></trkpt><trkpt lat="14.356790658918149" lon="121.00929450475597"><ele>82.0</ele><time>2026-04-04T00:05:27Z</time></trkpt><trkpt lat="14.356641584944413" lon="121.00928411822798"><ele>82.0</ele><time>2026-04-04T00:05:28Z</time></trkpt><trkpt lat="14.356497378376925" lon="121.00927364751679"><ele>82.0</ele><time>2026-04-04T00:05:29Z</time></trkpt><trkpt lat="14.356359392240664" lon="121.0092650994525"><ele>82.0</ele><time>2026-04-04T00:05:30Z</time></trkpt><trkpt lat="14.35621491713386" lon="121.00924252380953"><ele>82.0</ele><time>2026-04-04T00:05:31Z</time></trkpt><trkpt lat="14.35606776914669" lon="121.00921125252155"><ele>82.33333333333333</ele><time>2026-04-04T00:05:32Z</time></trkpt><trkpt lat="14.355918789952854" lon="121.00918675445573"><ele>82.66666666666667</ele><time>2026-04-04T00:05:33Z</time></trkpt><trkpt lat="14.35576472891334" lon="121.00915195715758"><ele>83.0</ele><time>2026-04-04T00:05:34Z</time></trkpt><trkpt lat="14.35561084901317" lon="121.00911628329699"><ele>82.0</ele><time>2026-04-04T00:05:35Z</time></trkpt><trkpt lat="14.355467250798927" lon="121.00908423780136"><ele>81.0</ele><time>2026-04-04T00:05:36Z</time></trkpt><trkpt lat="14.355331450543032" lon="121.00906097065395"><ele>80.0</ele><time>2026-04-04T00:05:37Z</time></trkpt><trkpt lat="14.355192995399891" lon="121.00903000980261"><ele>79.0</ele><time>2026-04-04T00:05:38Z</time></trkpt><trkpt lat="14.355068969488949" lon="121.00899819486051"><ele>79.0</ele><time>2026-04-04T00:05:39Z</time></trkpt><trkpt lat="14.354940923871395" lon="121.00896916852716"><ele>79.0</ele><time>2026-04-04T00:05:40Z</time></trkpt><trkpt lat="14.354827995738532" lon="121.00894898791277"><ele>79.0</ele><time>2026-04-04T00:05:41Z</time></trkpt><trkpt lat="14.354719024020932" lon="121.00892503775528"><ele>79.0</ele><time>2026-04-04T00:05:42.001Z</time></trkpt><trkpt lat="14.354624999606747" lon="121.0089004189533"><ele>79.83333333333333</ele><time>2026-04-04T00:05:43.001Z</time></trkpt><trkpt lat="14.354537410485577" lon="121.00888350593742"><ele>80.66666666666666</ele><time>2026-04-04T00:05:44.001Z</time></trkpt><trkpt lat="14.354452690346916" lon="121.00885098911588"><ele>81.5</ele><time>2026-04-04T00:05:45.001Z</time></trkpt><trkpt lat="14.354382673757371" lon="121.00881384680744"><ele>82.33333333333333</ele><time>2026-04-04T00:05:46.001Z</time></trkpt><trkpt lat="14.354319460083374" lon="121.00877256778948"><ele>83.16666666666667</ele><time>2026-04-04T00:05:47.001Z</time></trkpt><trkpt lat="14.35425229536996" lon="121.00872192020445"><ele>84.0</ele><time>2026-04-04T00:05:48.001Z</time></trkpt><trkpt lat="14.354190095891168" lon="121.00866055544604"><ele>84.0</ele><time>2026-04-04T00:05:49.001Z</time></trkpt><trkpt lat="14.354129919628976" lon="121.00860404610248"><ele>84.0</ele><time>2026-04-04T00:05:50.001Z</time></trkpt><trkpt lat="14.354076738580478" lon="121.00851975705005"><ele>84.0</ele><time>2026-04-04T00:05:51.001Z</time></trkpt><trkpt lat="14.354038816268291" lon="121.00845365787104"><ele>84.0</ele><time>2026-04-04T00:05:52.001Z</time></trkpt><trkpt lat="14.354004335988613" lon="121.0083966622744"><ele>84.0</ele><time>2026-04-04T00:05:53.001Z</time></trkpt><trkpt lat="14.353913138941676" lon="121.00838773891572"><ele>84.0</ele><time>2026-04-04T00:05:54.001Z</time></trkpt><trkpt lat="14.353797349700534" lon="121.00840907571661"><ele>83.57142857142857</ele><time>2026-04-04T00:05:56.001Z</time></trkpt><trkpt lat="14.35374830230487" lon="121.00845348254667"><ele>83.14285714285714</ele><time>2026-04-04T00:05:57.001Z</time></trkpt><trkpt lat="14.353709887480205" lon="121.00851375261962"><ele>82.71428571428572</ele><time>2026-04-04T00:05:58.001Z</time></trkpt><trkpt lat="14.353698836542232" lon="121.00858583758115"><ele>82.28571428571428</ele><time>2026-04-04T00:05:59.001Z</time></trkpt><trkpt lat="14.353694687467987" lon="121.00866803779459"><ele>81.85714285714286</ele><time>2026-04-04T00:06:00.001Z</time></trkpt><trkpt lat="14.353683787339644" lon="121.00876007475262"><ele>81.42857142857143</ele><time>2026-04-04T00:06:01.001Z</time></trkpt><trkpt lat="14.353657608359228" lon="121.00883151233211"><ele>81.0</ele><time>2026-04-04T00:06:02.001Z</time></trkpt><trkpt lat="14.353642282639944" lon="121.0089246289726"><ele>81.0</ele><time>2026-04-04T00:06:03.001Z</time></trkpt><trkpt lat="14.35362598034123" lon="121.0090181586704"><ele>81.0</ele><time>2026-04-04T00:06:04.001Z</time></trkpt><trkpt lat="14.353607413684978" lon="121.00911103096779"><ele>81.0</ele><time>2026-04-04T00:06:05.001Z</time></trkpt><trkpt lat="14.353590128747316" lon="121.00919966161959"><ele>81.0</ele><time>2026-04-04T00:06:06.001Z</time></trkpt><trkpt lat="14.353573571918577" lon="121.00928346469664"><ele>81.0</ele><time>2026-04-04T00:06:07.001Z</time></trkpt><trkpt lat="14.353555810528906" lon="121.00936759783069"><ele>81.0</ele><time>2026-04-04T00:06:08.001Z</time></trkpt><trkpt lat="14.353540026997491" lon="121.00945224956523"><ele>81.83333333333333</ele><time>2026-04-04T00:06:09.001Z</time></trkpt><trkpt lat="14.353526138769046" lon="121.00954045292283"><ele>82.66666666666667</ele><time>2026-04-04T00:06:10.001Z</time></trkpt><trkpt lat="14.353508385145226" lon="121.00962386880937"><ele>83.5</ele><time>2026-04-04T00:06:11.001Z</time></trkpt><trkpt lat="14.353492403338306" lon="121.00970350986282"><ele>84.33333333333334</ele><time>2026-04-04T00:06:12.001Z</time></trkpt><trkpt lat="14.353472166243273" lon="121.00978840812009"><ele>85.16666666666667</ele><time>2026-04-04T00:06:13.001Z</time></trkpt><trkpt lat="14.353455601238032" lon="121.00987625229014"><ele>86.0</ele><time>2026-04-04T00:06:14.001Z</time></trkpt><trkpt lat="14.353434579663856" lon="121.00996977396099"><ele>86.0</ele><time>2026-04-04T00:06:15.001Z</time></trkpt><trkpt lat="14.353409023425387" lon="121.0100539277542"><ele>86.0</ele><time>2026-04-04T00:06:16.001Z</time></trkpt><trkpt lat="14.353382346599016" lon="121.01012600895827"><ele>86.0</ele><time>2026-04-04T00:06:18.001Z</time></trkpt><trkpt lat="14.353233108668423" lon="121.0100177186639"><ele>86.0</ele><time>2026-04-04T00:06:31Z</time></trkpt><trkpt lat="14.353308994349332" lon="121.01000036472037"><ele>86.0</ele><time>2026-04-04T00:10:48Z</time></trkpt><trkpt lat="14.353369050245508" lon="121.00994695137862"><ele>86.0</ele><time>2026-04-04T00:11:25.037Z</time></trkpt><trkpt lat="14.353269618660146" lon="121.0098894562248"><ele>86.0</ele><time>2026-04-04T00:11:27.039Z</time></trkpt><trkpt lat="14.353274305049949" lon="121.01004558545236"><ele>86.0</ele><time>2026-04-04T00:12:30.018Z</time></trkpt><trkpt lat="14.353296759897294" lon="121.00997839768321"><ele>86.0</ele><time>2026-04-04T00:12:33Z</time></trkpt><trkpt lat="14.35324750304665" lon="121.0099342759402"><ele>86.0</ele><time>2026-04-04T00:12:39Z</time></trkpt><trkpt lat="14.353226634578029" lon="121.01000084001087"><ele>86.00000000000001</ele><time>2026-04-04T00:14:06Z</time></trkpt><trkpt lat="14.353190674923102" lon="121.01005573374269"><ele>86.0</ele><time>2026-04-04T00:14:17.001Z</time></trkpt><trkpt lat="14.353278542732088" lon="121.01004480973968"><ele>86.0</ele><time>2026-04-04T00:21:23.001Z</time></trkpt><trkpt lat="14.353245438478343" lon="121.00998702105323"><ele>86.0</ele><time>2026-04-04T00:21:33.001Z</time></trkpt><trkpt lat="14.353202445421703" lon="121.0099326535853"><ele>86.0</ele><time>2026-04-04T00:21:43.001Z</time></trkpt><trkpt lat="14.353270065635936" lon="121.00994061603828"><ele>86.00000000000001</ele><time>2026-04-04T00:22:38.001Z</time></trkpt><trkpt lat="14.353269331643569" lon="121.01001181610313"><ele>86.0</ele><time>2026-04-04T00:22:47.001Z</time></trkpt><trkpt lat="14.353209676396334" lon="121.01003801500703"><ele>86.0</ele><time>2026-04-04T00:23:07.001Z</time></trkpt><trkpt lat="14.353313840750607" lon="121.00995591850572"><ele>86.0</ele><time>2026-04-04T00:34:40.001Z</time></trkpt><trkpt lat="14.353268202992675" lon="121.0100315299564"><ele>86.0</ele><time>2026-04-04T00:54:47Z</time></trkpt><trkpt lat="14.353262090732725" lon="121.0101007576358"><ele>86.0</ele><time>2026-04-04T00:55:47Z</time></trkpt><trkpt lat="14.353322986598531" lon="121.01015749562083"><ele>86.0</ele><time>2026-04-04T00:55:51Z</time></trkpt><trkpt lat="14.353363248880838" lon="121.01020872422218"><ele>86.0</ele><time>2026-04-04T00:55:55Z</time></trkpt><trkpt lat="14.353397335475666" lon="121.01027024830712"><ele>86.00000000000001</ele><time>2026-04-04T00:55:58Z</time></trkpt><trkpt lat="14.353452604690801" lon="121.01022788251053"><ele>86.0</ele><time>2026-04-04T00:56:01Z</time></trkpt><trkpt lat="14.353469690117276" lon="121.01015829690337"><ele>86.0</ele><time>2026-04-04T00:56:02Z</time></trkpt><trkpt lat="14.353471234187309" lon="121.01008554169461"><ele>86.0</ele><time>2026-04-04T00:56:03.001Z</time></trkpt><trkpt lat="14.353486934739632" lon="121.01001625414715"><ele>86.0</ele><time>2026-04-04T00:56:04.001Z</time></trkpt><trkpt lat="14.353499846049829" lon="121.00994613286001"><ele>86.00000000000001</ele><time>2026-04-04T00:56:05.001Z</time></trkpt><trkpt lat="14.353514842204225" lon="121.00986960924881"><ele>86.0</ele><time>2026-04-04T00:56:06.001Z</time></trkpt><trkpt lat="14.353531658380668" lon="121.00978111856348"><ele>86.0</ele><time>2026-04-04T00:56:07.001Z</time></trkpt><trkpt lat="14.353547568266146" lon="121.0097000010485"><ele>86.0</ele><time>2026-04-04T00:56:08.001Z</time></trkpt><trkpt lat="14.35356936693237" lon="121.00960199074716"><ele>86.0</ele><time>2026-04-04T00:56:09.001Z</time></trkpt><trkpt lat="14.353587090937662" lon="121.00951854053362"><ele>86.0</ele><time>2026-04-04T00:56:10.001Z</time></trkpt><trkpt lat="14.353606870132092" lon="121.00942267070592"><ele>86.0</ele><time>2026-04-04T00:56:11.001Z</time></trkpt><trkpt lat="14.353619612384616" lon="121.00934351803343"><ele>86.0</ele><time>2026-04-04T00:56:12.001Z</time></trkpt><trkpt lat="14.353633478567936" lon="121.00927937925586"><ele>86.0</ele><time>2026-04-04T00:56:13.001Z</time></trkpt><trkpt lat="14.353644461687841" lon="121.00921528631753"><ele>86.0</ele><time>2026-04-04T00:56:14.001Z</time></trkpt><trkpt lat="14.353654965874608" lon="121.00914109608982"><ele>86.0</ele><time>2026-04-04T00:56:15.001Z</time></trkpt><trkpt lat="14.353676570651913" lon="121.00905995146604"><ele>86.0</ele><time>2026-04-04T00:56:16.001Z</time></trkpt><trkpt lat="14.353699449224619" lon="121.00897116045135"><ele>86.0</ele><time>2026-04-04T00:56:17.001Z</time></trkpt><trkpt lat="14.35372936860037" lon="121.00889460500635"><ele>86.0</ele><time>2026-04-04T00:56:18.001Z</time></trkpt><trkpt lat="14.353773819676181" lon="121.00882839349848"><ele>85.6</ele><time>2026-04-04T00:56:19.001Z</time></trkpt><trkpt lat="14.353828855598946" lon="121.00876594103342"><ele>85.19999999999999</ele><time>2026-04-04T00:56:21.001Z</time></trkpt><trkpt lat="14.353935927388655" lon="121.0087706350474"><ele>84.80000000000001</ele><time>2026-04-04T00:56:22.001Z</time></trkpt><trkpt lat="14.3540042939465" lon="121.00875424469655"><ele>84.4</ele><time>2026-04-04T00:56:23.001Z</time></trkpt><trkpt lat="14.354112885860975" lon="121.0088756589925"><ele>84.0</ele><time>2026-04-04T00:56:24.001Z</time></trkpt><trkpt lat="14.354201105577953" lon="121.00889621452284"><ele>84.0</ele><time>2026-04-04T00:56:25.001Z</time></trkpt><trkpt lat="14.354305439561411" lon="121.00891975041904"><ele>84.0</ele><time>2026-04-04T00:56:26.001Z</time></trkpt><trkpt lat="14.354411545169878" lon="121.00894299119167"><ele>84.0</ele><time>2026-04-04T00:56:27.001Z</time></trkpt><trkpt lat="14.354530016414556" lon="121.00896952082525"><ele>84.0</ele><time>2026-04-04T00:56:28.001Z</time></trkpt><trkpt lat="14.354648170946643" lon="121.00899841653892"><ele>82.75</ele><time>2026-04-04T00:56:29.001Z</time></trkpt><trkpt lat="14.354774654962247" lon="121.009024342884"><ele>81.5</ele><time>2026-04-04T00:56:30.001Z</time></trkpt><trkpt lat="14.354900767365166" lon="121.0090509934499"><ele>80.25</ele><time>2026-04-04T00:56:31.001Z</time></trkpt><trkpt lat="14.35503076733028" lon="121.0090795842827"><ele>79.0</ele><time>2026-04-04T00:56:32.001Z</time></trkpt><trkpt lat="14.355165946888192" lon="121.00911246694506"><ele>79.0</ele><time>2026-04-04T00:56:33.001Z</time></trkpt><trkpt lat="14.355302977991057" lon="121.0091480401639"><ele>79.0</ele><time>2026-04-04T00:56:34.001Z</time></trkpt><trkpt lat="14.355441926362992" lon="121.00917926181745"><ele>79.0</ele><time>2026-04-04T00:56:35.001Z</time></trkpt><trkpt lat="14.355580998954222" lon="121.00920976981871"><ele>79.0</ele><time>2026-04-04T00:56:36.001Z</time></trkpt><trkpt lat="14.355725742721114" lon="121.00923655474803"><ele>80.33333333333333</ele><time>2026-04-04T00:56:37.001Z</time></trkpt><trkpt lat="14.355868627123126" lon="121.00926885903303"><ele>81.66666666666667</ele><time>2026-04-04T00:56:38.001Z</time></trkpt><trkpt lat="14.356016706716723" lon="121.00929954028737"><ele>83.0</ele><time>2026-04-04T00:56:39.001Z</time></trkpt><trkpt lat="14.356166686312232" lon="121.00932766988434"><ele>83.0</ele><time>2026-04-04T00:56:40.001Z</time></trkpt><trkpt lat="14.356316380858402" lon="121.00934996289158"><ele>83.0</ele><time>2026-04-04T00:56:41.001Z</time></trkpt><trkpt lat="14.356472628992226" lon="121.00936847797058"><ele>83.0</ele><time>2026-04-04T00:56:42.001Z</time></trkpt><trkpt lat="14.35662371127929" lon="121.00938446880293"><ele>82.66666666666667</ele><time>2026-04-04T00:56:43.001Z</time></trkpt><trkpt lat="14.356785130392078" lon="121.00939423816983"><ele>82.33333333333333</ele><time>2026-04-04T00:56:44.001Z</time></trkpt><trkpt lat="14.356938775780817" lon="121.00940209964055"><ele>82.0</ele><time>2026-04-04T00:56:45.001Z</time></trkpt><trkpt lat="14.357109377103404" lon="121.00941056113258"><ele>81.66666666666666</ele><time>2026-04-04T00:56:46Z</time></trkpt><trkpt lat="14.357262702532907" lon="121.00942180235322"><ele>81.33333333333333</ele><time>2026-04-04T00:56:47Z</time></trkpt><trkpt lat="14.357434363509144" lon="121.00942756814496"><ele>81.0</ele><time>2026-04-04T00:56:48Z</time></trkpt><trkpt lat="14.357609212973433" lon="121.00943692046388"><ele>81.0</ele><time>2026-04-04T00:56:49Z</time></trkpt><trkpt lat="14.357778080957832" lon="121.00944785313263"><ele>81.0</ele><time>2026-04-04T00:56:50Z</time></trkpt><trkpt lat="14.357951902034962" lon="121.00945951347346"><ele>81.0</ele><time>2026-04-04T00:56:51Z</time></trkpt><trkpt lat="14.358128439204265" lon="121.00946789159823"><ele>80.66666666666667</ele><time>2026-04-04T00:56:52Z</time></trkpt><trkpt lat="14.358315715184903" lon="121.00947483844625"><ele>80.33333333333334</ele><time>2026-04-04T00:56:53Z</time></trkpt><trkpt lat="14.358491851472602" lon="121.00947865294343"><ele>80.0</ele><time>2026-04-04T00:56:54Z</time></trkpt><trkpt lat="14.358664250975872" lon="121.00949280449174"><ele>80.0</ele><time>2026-04-04T00:56:55Z</time></trkpt><trkpt lat="14.35884239388988" lon="121.00950519179563"><ele>80.0</ele><time>2026-04-04T00:56:56Z</time></trkpt><trkpt lat="14.359019211994578" lon="121.00951424879132"><ele>80.0</ele><time>2026-04-04T00:56:57Z</time></trkpt><trkpt lat="14.359198950225911" lon="121.00952125606993"><ele>79.66666666666667</ele><time>2026-04-04T00:56:58Z</time></trkpt><trkpt lat="14.359383032872257" lon="121.00952787414928"><ele>79.33333333333333</ele><time>2026-04-04T00:56:59Z</time></trkpt><trkpt lat="14.359558499499705" lon="121.00954210307378"><ele>79.0</ele><time>2026-04-04T00:57:00Z</time></trkpt><trkpt lat="14.359738460222186" lon="121.00955245871015"><ele>79.0</ele><time>2026-04-04T00:57:01Z</time></trkpt><trkpt lat="14.359919215778243" lon="121.00956297983679"><ele>79.0</ele><time>2026-04-04T00:57:02Z</time></trkpt><trkpt lat="14.360092917871096" lon="121.00957325283791"><ele>79.0</ele><time>2026-04-04T00:57:03Z</time></trkpt><trkpt lat="14.360273661921063" lon="121.0095853425374"><ele>79.0</ele><time>2026-04-04T00:57:04Z</time></trkpt><trkpt lat="14.360455136440926" lon="121.00959281136575"><ele>79.0</ele><time>2026-04-04T00:57:05Z</time></trkpt><trkpt lat="14.360635074561392" lon="121.00960148186854"><ele>79.0</ele><time>2026-04-04T00:57:06Z</time></trkpt><trkpt lat="14.360815253457641" lon="121.00961192046763"><ele>79.0</ele><time>2026-04-04T00:57:07Z</time></trkpt><trkpt lat="14.360996191601478" lon="121.00962081810088"><ele>79.0</ele><time>2026-04-04T00:57:08Z</time></trkpt><trkpt lat="14.361181109254634" lon="121.00963117797151"><ele>79.0</ele><time>2026-04-04T00:57:09Z</time></trkpt><trkpt lat="14.361367455537899" lon="121.00964045652601"><ele>80.33333333333333</ele><time>2026-04-04T00:57:10Z</time></trkpt><trkpt lat="14.361554677029734" lon="121.0096511025279"><ele>81.66666666666667</ele><time>2026-04-04T00:57:11Z</time></trkpt><trkpt lat="14.36174510510812" lon="121.00966102699377"><ele>83.0</ele><time>2026-04-04T00:57:12Z</time></trkpt><trkpt lat="14.361927690657662" lon="121.00967493355623"><ele>83.0</ele><time>2026-04-04T00:57:13Z</time></trkpt><trkpt lat="14.362124586661373" lon="121.00968039261733"><ele>83.0</ele><time>2026-04-04T00:57:14Z</time></trkpt><trkpt lat="14.362313822534482" lon="121.00969424059605"><ele>83.0</ele><time>2026-04-04T00:57:15Z</time></trkpt><trkpt lat="14.36251115223558" lon="121.00970391347293"><ele>82.0</ele><time>2026-04-04T00:57:16Z</time></trkpt><trkpt lat="14.362704785740954" lon="121.00971717885216"><ele>81.0</ele><time>2026-04-04T00:57:17Z</time></trkpt><trkpt lat="14.36290153982023" lon="121.00972085143964"><ele>80.0</ele><time>2026-04-04T00:57:18Z</time></trkpt><trkpt lat="14.363099477511556" lon="121.00973095793758"><ele>80.0</ele><time>2026-04-04T00:57:19Z</time></trkpt><trkpt lat="14.363294713818965" lon="121.00975142870318"><ele>80.0</ele><time>2026-04-04T00:57:20Z</time></trkpt><trkpt lat="14.363493802738589" lon="121.0097587504081"><ele>80.0</ele><time>2026-04-04T00:57:21Z</time></trkpt><trkpt lat="14.363695641757094" lon="121.00977018078854"><ele>80.0</ele><time>2026-04-04T00:57:22Z</time></trkpt><trkpt lat="14.363898250246015" lon="121.00977741099551"><ele>80.0</ele><time>2026-04-04T00:57:23Z</time></trkpt><trkpt lat="14.36410236780925" lon="121.00978315721272"><ele>80.0</ele><time>2026-04-04T00:57:24Z</time></trkpt><trkpt lat="14.364311125935114" lon="121.00979749394357"><ele>80.0</ele><time>2026-04-04T00:57:25Z</time></trkpt><trkpt lat="14.364510376582729" lon="121.00981436168118"><ele>80.0</ele><time>2026-04-04T00:57:26Z</time></trkpt><trkpt lat="14.364719770043527" lon="121.00981487139592"><ele>80.0</ele><time>2026-04-04T00:57:27Z</time></trkpt><trkpt lat="14.364925477239126" lon="121.0098303605108"><ele>79.66666666666667</ele><time>2026-04-04T00:57:28Z</time></trkpt><trkpt lat="14.3651304101087" lon="121.00983930999519"><ele>79.33333333333333</ele><time>2026-04-04T00:57:29Z</time></trkpt><trkpt lat="14.365336341505175" lon="121.00985008482992"><ele>79.0</ele><time>2026-04-04T00:57:30Z</time></trkpt><trkpt lat="14.365546585700162" lon="121.00986037579105"><ele>78.33333333333333</ele><time>2026-04-04T00:57:31Z</time></trkpt><trkpt lat="14.365752898225965" lon="121.00986832809761"><ele>77.66666666666667</ele><time>2026-04-04T00:57:32Z</time></trkpt><trkpt lat="14.36596461405433" lon="121.00988207923973"><ele>77.0</ele><time>2026-04-04T00:57:33Z</time></trkpt><trkpt lat="14.366175681146585" lon="121.00989158193016"><ele>76.33333333333334</ele><time>2026-04-04T00:57:34Z</time></trkpt><trkpt lat="14.366388441353845" lon="121.00989995063063"><ele>75.66666666666667</ele><time>2026-04-04T00:57:35Z</time></trkpt><trkpt lat="14.366603521722471" lon="121.00990406373158"><ele>75.0</ele><time>2026-04-04T00:57:36Z</time></trkpt><trkpt lat="14.366818914876946" lon="121.00993513860178"><ele>75.0</ele><time>2026-04-04T00:57:37Z</time></trkpt><trkpt lat="14.367021629796195" lon="121.00994348007349"><ele>75.0</ele><time>2026-04-04T00:57:38Z</time></trkpt><trkpt lat="14.367226181001843" lon="121.00995347875022"><ele>75.0</ele><time>2026-04-04T00:57:39Z</time></trkpt><trkpt lat="14.36743240919754" lon="121.00996788806393"><ele>75.0</ele><time>2026-04-04T00:57:40Z</time></trkpt><trkpt lat="14.367625885520106" lon="121.00997503628686"><ele>75.0</ele><time>2026-04-04T00:57:41Z</time></trkpt><trkpt lat="14.367816048842995" lon="121.00998159539218"><ele>75.0</ele><time>2026-04-04T00:57:42Z</time></trkpt><trkpt lat="14.367999586236207" lon="121.00999713718592"><ele>74.0</ele><time>2026-04-04T00:57:43Z</time></trkpt><trkpt lat="14.368186486616004" lon="121.01002017270329"><ele>73.0</ele><time>2026-04-04T00:57:44Z</time></trkpt><trkpt lat="14.36835654825071" lon="121.0100183473536"><ele>72.0</ele><time>2026-04-04T00:57:45Z</time></trkpt><trkpt lat="14.368532252425368" lon="121.0100229124709"><ele>72.0</ele><time>2026-04-04T00:57:46Z</time></trkpt><trkpt lat="14.368709163639913" lon="121.01003193378617"><ele>72.0</ele><time>2026-04-04T00:57:47Z</time></trkpt><trkpt lat="14.368884748748702" lon="121.01004350801934"><ele>72.0</ele><time>2026-04-04T00:57:48Z</time></trkpt><trkpt lat="14.36905885081363" lon="121.01004858055977"><ele>71.33333333333333</ele><time>2026-04-04T00:57:49Z</time></trkpt><trkpt lat="14.369231150754091" lon="121.01005634689882"><ele>70.66666666666666</ele><time>2026-04-04T00:57:50Z</time></trkpt><trkpt lat="14.369394625183249" lon="121.01006854701217"><ele>70.0</ele><time>2026-04-04T00:57:51Z</time></trkpt><trkpt lat="14.369541178844013" lon="121.01007729754069"><ele>70.0</ele><time>2026-04-04T00:57:52Z</time></trkpt><trkpt lat="14.369690717298859" lon="121.01009334043229"><ele>70.0</ele><time>2026-04-04T00:57:53Z</time></trkpt><trkpt lat="14.36983265729731" lon="121.01013262530606"><ele>70.0</ele><time>2026-04-04T00:57:54Z</time></trkpt><trkpt lat="14.369978689684809" lon="121.01016738932717"><ele>70.0</ele><time>2026-04-04T00:57:55Z</time></trkpt><trkpt lat="14.370123796904801" lon="121.01019333275654"><ele>68.66666666666666</ele><time>2026-04-04T00:57:56Z</time></trkpt><trkpt lat="14.370252043114135" lon="121.01022111965013"><ele>67.33333333333333</ele><time>2026-04-04T00:57:57Z</time></trkpt><trkpt lat="14.370333254625596" lon="121.01052705187462"><ele>66.0</ele><time>2026-04-04T00:57:58Z</time></trkpt><trkpt lat="14.370533066437291" lon="121.0105079035133"><ele>66.0</ele><time>2026-04-04T00:57:59Z</time></trkpt><trkpt lat="14.37067577586654" lon="121.01059995838594"><ele>66.0</ele><time>2026-04-04T00:58:00Z</time></trkpt><trkpt lat="14.370820726430194" lon="121.01069096569213"><ele>66.0</ele><time>2026-04-04T00:58:01Z</time></trkpt><trkpt lat="14.3709684374697" lon="121.0107795927382"><ele>66.33333333333333</ele><time>2026-04-04T00:58:02Z</time></trkpt><trkpt lat="14.371115024261316" lon="121.01087588486945"><ele>66.66666666666666</ele><time>2026-04-04T00:58:03Z</time></trkpt><trkpt lat="14.371269648832623" lon="121.0109690846546"><ele>67.0</ele><time>2026-04-04T00:58:04Z</time></trkpt><trkpt lat="14.37142545877081" lon="121.01105849649144"><ele>67.0</ele><time>2026-04-04T00:58:05Z</time></trkpt><trkpt lat="14.371585596940925" lon="121.01114612490429"><ele>67.0</ele><time>2026-04-04T00:58:06Z</time></trkpt><trkpt lat="14.371744146629487" lon="121.01123484840507"><ele>67.0</ele><time>2026-04-04T00:58:07Z</time></trkpt><trkpt lat="14.371903123245966" lon="121.01132941236904"><ele>67.0</ele><time>2026-04-04T00:58:08Z</time></trkpt><trkpt lat="14.372060757476769" lon="121.01142646176122"><ele>67.0</ele><time>2026-04-04T00:58:09Z</time></trkpt><trkpt lat="14.37221163752694" lon="121.01151811435832"><ele>67.0</ele><time>2026-04-04T00:58:10Z</time></trkpt><trkpt lat="14.372349771624528" lon="121.01160141003182"><ele>66.75</ele><time>2026-04-04T00:58:11Z</time></trkpt><trkpt lat="14.372481091157612" lon="121.01167727921748"><ele>66.5</ele><time>2026-04-04T00:58:12Z</time></trkpt><trkpt lat="14.372609087170892" lon="121.01174690741345"><ele>66.25</ele><time>2026-04-04T00:58:13Z</time></trkpt><trkpt lat="14.372729681096605" lon="121.01181328771654"><ele>66.0</ele><time>2026-04-04T00:58:14Z</time></trkpt><trkpt lat="14.372841666376223" lon="121.01187298865268"><ele>66.0</ele><time>2026-04-04T00:58:15Z</time></trkpt><trkpt lat="14.372941510237544" lon="121.01193594107404"><ele>66.0</ele><time>2026-04-04T00:58:16Z</time></trkpt><trkpt lat="14.373031525763821" lon="121.01200483982252"><ele>66.0</ele><time>2026-04-04T00:58:17Z</time></trkpt><trkpt lat="14.373089997834514" lon="121.01209748233681"><ele>66.0</ele><time>2026-04-04T00:58:18Z</time></trkpt><trkpt lat="14.373126354733408" lon="121.012200927534"><ele>66.0</ele><time>2026-04-04T00:58:19Z</time></trkpt><trkpt lat="14.373143770825235" lon="121.01231483176889"><ele>65.5</ele><time>2026-04-04T00:58:20Z</time></trkpt><trkpt lat="14.373127957969178" lon="121.01244489896908"><ele>65.0</ele><time>2026-04-04T00:58:21Z</time></trkpt><trkpt lat="14.373126418197279" lon="121.01256521504142"><ele>64.5</ele><time>2026-04-04T00:58:22Z</time></trkpt><trkpt lat="14.37313025208909" lon="121.01268941090564"><ele>64.0</ele><time>2026-04-04T00:58:23Z</time></trkpt><trkpt lat="14.373136545841765" lon="121.01281649534549"><ele>64.0</ele><time>2026-04-04T00:58:24Z</time></trkpt><trkpt lat="14.37314523816834" lon="121.01295226363467"><ele>64.0</ele><time>2026-04-04T00:58:25Z</time></trkpt><trkpt lat="14.373155652566867" lon="121.01309524744184"><ele>64.0</ele><time>2026-04-04T00:58:26Z</time></trkpt><trkpt lat="14.373169484805919" lon="121.01323812381503"><ele>64.0</ele><time>2026-04-04T00:58:27Z</time></trkpt><trkpt lat="14.373184556202837" lon="121.01336152872832"><ele>62.75</ele><time>2026-04-04T00:58:28Z</time></trkpt><trkpt lat="14.3732018793837" lon="121.01348616716997"><ele>61.5</ele><time>2026-04-04T00:58:29Z</time></trkpt><trkpt lat="14.373228751843655" lon="121.01360655215822"><ele>60.25</ele><time>2026-04-04T00:58:30Z</time></trkpt><trkpt lat="14.373265275866807" lon="121.01370899036486"><ele>59.0</ele><time>2026-04-04T00:58:31Z</time></trkpt><trkpt lat="14.3733358968255" lon="121.01380150041646"><ele>59.0</ele><time>2026-04-04T00:58:32Z</time></trkpt><trkpt lat="14.373430075384" lon="121.01387118659767"><ele>59.0</ele><time>2026-04-04T00:58:33Z</time></trkpt><trkpt lat="14.37353590330284" lon="121.01392167158049"><ele>59.0</ele><time>2026-04-04T00:58:34Z</time></trkpt><trkpt lat="14.37365651573996" lon="121.01396141654284"><ele>59.0</ele><time>2026-04-04T00:58:35Z</time></trkpt><trkpt lat="14.373792693586957" lon="121.01399876447024"><ele>60.25</ele><time>2026-04-04T00:58:36Z</time></trkpt><trkpt lat="14.373926050253253" lon="121.01403321131292"><ele>61.5</ele><time>2026-04-04T00:58:37Z</time></trkpt><trkpt lat="14.37407356318833" lon="121.01406052068958"><ele>62.75</ele><time>2026-04-04T00:58:38Z</time></trkpt><trkpt lat="14.374218650850567" lon="121.01408876509885"><ele>64.0</ele><time>2026-04-04T00:58:39Z</time></trkpt><trkpt lat="14.374377776469611" lon="121.01410310940729"><ele>64.0</ele><time>2026-04-04T00:58:40Z</time></trkpt><trkpt lat="14.374527123327875" lon="121.01411626505346"><ele>64.0</ele><time>2026-04-04T00:58:41Z</time></trkpt><trkpt lat="14.374677246021252" lon="121.01411964408922"><ele>64.0</ele><time>2026-04-04T00:58:42Z</time></trkpt><trkpt lat="14.374828081132435" lon="121.0141107797431"><ele>65.0</ele><time>2026-04-04T00:58:43Z</time></trkpt><trkpt lat="14.374977884762414" lon="121.01409764445333"><ele>66.0</ele><time>2026-04-04T00:58:44.001Z</time></trkpt><trkpt lat="14.375121435725662" lon="121.01407242410897"><ele>67.0</ele><time>2026-04-04T00:58:45.001Z</time></trkpt><trkpt lat="14.375262497372141" lon="121.01403511048227"><ele>68.0</ele><time>2026-04-04T00:58:46.001Z</time></trkpt><trkpt lat="14.375397289478864" lon="121.01397607050957"><ele>68.0</ele><time>2026-04-04T00:58:47.001Z</time></trkpt><trkpt lat="14.375519813141064" lon="121.01391915184597"><ele>68.0</ele><time>2026-04-04T00:58:48.001Z</time></trkpt><trkpt lat="14.375632230275803" lon="121.01385113266599"><ele>68.0</ele><time>2026-04-04T00:58:49.001Z</time></trkpt><trkpt lat="14.37573435890217" lon="121.01378845142908"><ele>68.0</ele><time>2026-04-04T00:58:50.001Z</time></trkpt><trkpt lat="14.375824936238303" lon="121.01372748130538"><ele>68.2</ele><time>2026-04-04T00:58:51.001Z</time></trkpt><trkpt lat="14.375911730322791" lon="121.0136486317063"><ele>68.4</ele><time>2026-04-04T00:58:52Z</time></trkpt><trkpt lat="14.375996371295466" lon="121.01357712872975"><ele>68.60000000000001</ele><time>2026-04-04T00:58:53Z</time></trkpt><trkpt lat="14.376063771620915" lon="121.01350148552028"><ele>68.8</ele><time>2026-04-04T00:58:54Z</time></trkpt><trkpt lat="14.37611803927312" lon="121.01342007751634"><ele>69.0</ele><time>2026-04-04T00:58:55Z</time></trkpt><trkpt lat="14.376153800415421" lon="121.01332338220001"><ele>68.5</ele><time>2026-04-04T00:58:56Z</time></trkpt><trkpt lat="14.376163589292801" lon="121.01322606824156"><ele>68.0</ele><time>2026-04-04T00:58:57Z</time></trkpt><trkpt lat="14.376149818786127" lon="121.01314033020486"><ele>67.5</ele><time>2026-04-04T00:58:58Z</time></trkpt><trkpt lat="14.376112989701557" lon="121.01305323795602"><ele>67.0</ele><time>2026-04-04T00:58:59Z</time></trkpt><trkpt lat="14.376079661044857" lon="121.01298761528557"><ele>66.5</ele><time>2026-04-04T00:59:00Z</time></trkpt><trkpt lat="14.376034689419148" lon="121.01291330461072"><ele>66.0</ele><time>2026-04-04T00:59:01Z</time></trkpt><trkpt lat="14.375983362961387" lon="121.01285541989598"><ele>66.0</ele><time>2026-04-04T00:59:02Z</time></trkpt><trkpt lat="14.375923722628494" lon="121.01279062843932"><ele>66.0</ele><time>2026-04-04T00:59:03Z</time></trkpt><trkpt lat="14.375796221226157" lon="121.01278941998201"><ele>66.0</ele><time>2026-04-04T00:59:04Z</time></trkpt><trkpt lat="14.375698315858969" lon="121.01274801662387"><ele>66.0</ele><time>2026-04-04T00:59:05Z</time></trkpt><trkpt lat="14.375592496761605" lon="121.01270618322124"><ele>66.0</ele><time>2026-04-04T00:59:06Z</time></trkpt><trkpt lat="14.375483050055818" lon="121.01265781133195"><ele>66.25</ele><time>2026-04-04T00:59:07Z</time></trkpt><trkpt lat="14.375379596932971" lon="121.01259252046988"><ele>66.5</ele><time>2026-04-04T00:59:08Z</time></trkpt><trkpt lat="14.375275382559307" lon="121.01251486923414"><ele>66.75</ele><time>2026-04-04T00:59:09Z</time></trkpt><trkpt lat="14.375177458370857" lon="121.01242493908734"><ele>67.0</ele><time>2026-04-04T00:59:10Z</time></trkpt><trkpt lat="14.375088627064871" lon="121.0123265935662"><ele>66.25</ele><time>2026-04-04T00:59:11Z</time></trkpt><trkpt lat="14.375001781242414" lon="121.01221478615976"><ele>65.5</ele><time>2026-04-04T00:59:12Z</time></trkpt><trkpt lat="14.374933488756094" lon="121.01209602335697"><ele>64.75</ele><time>2026-04-04T00:59:13Z</time></trkpt><trkpt lat="14.374868886184286" lon="121.01197209081154"><ele>64.0</ele><time>2026-04-04T00:59:14Z</time></trkpt><trkpt lat="14.374814427177334" lon="121.01184636263253"><ele>64.0</ele><time>2026-04-04T00:59:15Z</time></trkpt><trkpt lat="14.374776406049465" lon="121.01172608867405"><ele>64.0</ele><time>2026-04-04T00:59:16Z</time></trkpt><trkpt lat="14.374746029877317" lon="121.0116031606274"><ele>64.0</ele><time>2026-04-04T00:59:17Z</time></trkpt><trkpt lat="14.374740685323419" lon="121.01147783069602"><ele>64.0</ele><time>2026-04-04T00:59:18Z</time></trkpt><trkpt lat="14.374741256758465" lon="121.0113472002577"><ele>63.0</ele><time>2026-04-04T00:59:19Z</time></trkpt><trkpt lat="14.374739044354671" lon="121.01120199186553"><ele>62.0</ele><time>2026-04-04T00:59:20Z</time></trkpt><trkpt lat="14.374735008907434" lon="121.01105266946685"><ele>61.0</ele><time>2026-04-04T00:59:21Z</time></trkpt><trkpt lat="14.374735000353851" lon="121.01090506615253"><ele>60.0</ele><time>2026-04-04T00:59:22Z</time></trkpt><trkpt lat="14.37472833508835" lon="121.01074457734151"><ele>60.0</ele><time>2026-04-04T00:59:23Z</time></trkpt><trkpt lat="14.374733509676537" lon="121.01059638060367"><ele>60.0</ele><time>2026-04-04T00:59:24Z</time></trkpt><trkpt lat="14.374733891181284" lon="121.01044165159853"><ele>60.0</ele><time>2026-04-04T00:59:25Z</time></trkpt><trkpt lat="14.374732533811756" lon="121.01028155062767"><ele>60.0</ele><time>2026-04-04T00:59:26Z</time></trkpt><trkpt lat="14.37473621487584" lon="121.01012175289736"><ele>62.0</ele><time>2026-04-04T00:59:27Z</time></trkpt><trkpt lat="14.374736224963542" lon="121.00995846894487"><ele>64.0</ele><time>2026-04-04T00:59:28Z</time></trkpt><trkpt lat="14.37473128826066" lon="121.00978616246888"><ele>66.0</ele><time>2026-04-04T00:59:29Z</time></trkpt><trkpt lat="14.374732040813214" lon="121.0096105021338"><ele>66.0</ele><time>2026-04-04T00:59:30Z</time></trkpt><trkpt lat="14.374734033430327" lon="121.00944194641413"><ele>66.0</ele><time>2026-04-04T00:59:31Z</time></trkpt><trkpt lat="14.37473518555659" lon="121.00927131586579"><ele>66.0</ele><time>2026-04-04T00:59:32Z</time></trkpt><trkpt lat="14.374728342865334" lon="121.0090910274306"><ele>66.0</ele><time>2026-04-04T00:59:33Z</time></trkpt><trkpt lat="14.374732821609484" lon="121.00892234699617"><ele>66.0</ele><time>2026-04-04T00:59:34Z</time></trkpt><trkpt lat="14.374733576556421" lon="121.0087493915864"><ele>66.0</ele><time>2026-04-04T00:59:35Z</time></trkpt><trkpt lat="14.374735873791359" lon="121.00857440581557"><ele>66.0</ele><time>2026-04-04T00:59:36Z</time></trkpt><trkpt lat="14.374737526904113" lon="121.00841270872631"><ele>66.0</ele><time>2026-04-04T00:59:37Z</time></trkpt><trkpt lat="14.37473629171806" lon="121.00825813566742"><ele>66.0</ele><time>2026-04-04T00:59:38Z</time></trkpt><trkpt lat="14.374737250667705" lon="121.00810687121506"><ele>66.25</ele><time>2026-04-04T00:59:39Z</time></trkpt><trkpt lat="14.37473998208595" lon="121.00796287995769"><ele>66.5</ele><time>2026-04-04T00:59:40Z</time></trkpt><trkpt lat="14.37473937975233" lon="121.00782262154748"><ele>66.75</ele><time>2026-04-04T00:59:41Z</time></trkpt><trkpt lat="14.374737348484187" lon="121.0076826746006"><ele>67.0</ele><time>2026-04-04T00:59:42Z</time></trkpt><trkpt lat="14.374739231286728" lon="121.00753615597752"><ele>65.66666666666666</ele><time>2026-04-04T00:59:43Z</time></trkpt><trkpt lat="14.37473706258225" lon="121.00738232803641"><ele>64.33333333333333</ele><time>2026-04-04T00:59:44Z</time></trkpt><trkpt lat="14.374735278799527" lon="121.00721698776107"><ele>63.0</ele><time>2026-04-04T00:59:45Z</time></trkpt><trkpt lat="14.374731731870874" lon="121.00704460454988"><ele>63.0</ele><time>2026-04-04T00:59:46Z</time></trkpt><trkpt lat="14.374731956978742" lon="121.0068654452735"><ele>63.0</ele><time>2026-04-04T00:59:47Z</time></trkpt><trkpt lat="14.374733580413617" lon="121.00667828074349"><ele>63.0</ele><time>2026-04-04T00:59:48Z</time></trkpt><trkpt lat="14.374735752288325" lon="121.0064810082078"><ele>62.0</ele><time>2026-04-04T00:59:49Z</time></trkpt><trkpt lat="14.374738418654337" lon="121.00628191137434"><ele>61.0</ele><time>2026-04-04T00:59:50Z</time></trkpt><trkpt lat="14.374737791357223" lon="121.00608069168082"><ele>60.0</ele><time>2026-04-04T00:59:51Z</time></trkpt><trkpt lat="14.374737040153091" lon="121.0058801887421"><ele>60.0</ele><time>2026-04-04T00:59:52Z</time></trkpt><trkpt lat="14.374736177179098" lon="121.00567692135874"><ele>60.0</ele><time>2026-04-04T00:59:53Z</time></trkpt><trkpt lat="14.374738481131642" lon="121.00547448713426"><ele>60.0</ele><time>2026-04-04T00:59:54Z</time></trkpt><trkpt lat="14.374741767199513" lon="121.0052725948866"><ele>60.0</ele><time>2026-04-04T00:59:55Z</time></trkpt><trkpt lat="14.374744196654147" lon="121.00507225561908"><ele>60.0</ele><time>2026-04-04T00:59:56Z</time></trkpt><trkpt lat="14.374745199254807" lon="121.00486901122083"><ele>60.0</ele><time>2026-04-04T00:59:57Z</time></trkpt><trkpt lat="14.37474705223911" lon="121.00467368005026"><ele>61.66666666666667</ele><time>2026-04-04T00:59:58Z</time></trkpt><trkpt lat="14.374741910958521" lon="121.00447310658765"><ele>63.333333333333336</ele><time>2026-04-04T00:59:59Z</time></trkpt><trkpt lat="14.374727950175409" lon="121.00426718384291"><ele>65.0</ele><time>2026-04-04T01:00:00Z</time></trkpt><trkpt lat="14.374704463314432" lon="121.00406275565474"><ele>65.0</ele><time>2026-04-04T01:00:01Z</time></trkpt><trkpt lat="14.374669767716577" lon="121.0038538519586"><ele>65.0</ele><time>2026-04-04T01:00:02Z</time></trkpt><trkpt lat="14.374637660205485" lon="121.00365006929134"><ele>65.0</ele><time>2026-04-04T01:00:03Z</time></trkpt><trkpt lat="14.37460543847045" lon="121.00344582879195"><ele>66.0</ele><time>2026-04-04T01:00:04Z</time></trkpt><trkpt lat="14.374574639603463" lon="121.00323981393986"><ele>67.0</ele><time>2026-04-04T01:00:05Z</time></trkpt><trkpt lat="14.374548670181229" lon="121.00303913597112"><ele>68.0</ele><time>2026-04-04T01:00:06Z</time></trkpt><trkpt lat="14.374529560952737" lon="121.0028490536738"><ele>68.0</ele><time>2026-04-04T01:00:07Z</time></trkpt><trkpt lat="14.374523274571201" lon="121.00266856757555"><ele>68.0</ele><time>2026-04-04T01:00:08Z</time></trkpt><trkpt lat="14.374562895570767" lon="121.0024989969767"><ele>68.0</ele><time>2026-04-04T01:00:09Z</time></trkpt><trkpt lat="14.37458555544645" lon="121.00232623969461"><ele>68.0</ele><time>2026-04-04T01:00:10Z</time></trkpt><trkpt lat="14.374637104937703" lon="121.00215794020988"><ele>68.0</ele><time>2026-04-04T01:00:11Z</time></trkpt><trkpt lat="14.374680563610145" lon="121.0019922583691"><ele>68.0</ele><time>2026-04-04T01:00:12Z</time></trkpt><trkpt lat="14.374718412632895" lon="121.00182447714032"><ele>67.75</ele><time>2026-04-04T01:00:13Z</time></trkpt><trkpt lat="14.374749094089058" lon="121.0016714911446"><ele>67.5</ele><time>2026-04-04T01:00:14Z</time></trkpt><trkpt lat="14.374777173945606" lon="121.00153994926434"><ele>67.25</ele><time>2026-04-04T01:00:15Z</time></trkpt><trkpt lat="14.374802889952516" lon="121.00142749543141"><ele>67.0</ele><time>2026-04-04T01:00:16Z</time></trkpt><trkpt lat="14.374818338110588" lon="121.00134453700984"><ele>66.8</ele><time>2026-04-04T01:00:17Z</time></trkpt><trkpt lat="14.374835880751775" lon="121.0012538177475"><ele>66.6</ele><time>2026-04-04T01:00:19Z</time></trkpt><trkpt lat="14.374854743364054" lon="121.00115811615147"><ele>66.39999999999999</ele><time>2026-04-04T01:00:37Z</time></trkpt><trkpt lat="14.374868203706365" lon="121.00108262718102"><ele>66.2</ele><time>2026-04-04T01:00:38Z</time></trkpt><trkpt lat="14.374886751191923" lon="121.00099497599925"><ele>66.0</ele><time>2026-04-04T01:00:39Z</time></trkpt><trkpt lat="14.374909737559113" lon="121.00088720189802"><ele>65.5</ele><time>2026-04-04T01:00:40Z</time></trkpt><trkpt lat="14.374936681485478" lon="121.00076971418349"><ele>65.0</ele><time>2026-04-04T01:00:41Z</time></trkpt><trkpt lat="14.374990823529403" lon="121.00064783677334"><ele>64.5</ele><time>2026-04-04T01:00:42Z</time></trkpt><trkpt lat="14.37502864167764" lon="121.00051503446554"><ele>64.0</ele><time>2026-04-04T01:00:43Z</time></trkpt><trkpt lat="14.375076814948553" lon="121.00036977275484"><ele>64.0</ele><time>2026-04-04T01:00:44Z</time></trkpt><trkpt lat="14.375126210050992" lon="121.00022492311216"><ele>64.0</ele><time>2026-04-04T01:00:45Z</time></trkpt><trkpt lat="14.375186954932028" lon="121.00006859001014"><ele>64.0</ele><time>2026-04-04T01:00:46Z</time></trkpt><trkpt lat="14.375272186107193" lon="120.99992229596339"><ele>64.0</ele><time>2026-04-04T01:00:47Z</time></trkpt><trkpt lat="14.375368340712741" lon="120.99977402430295"><ele>64.0</ele><time>2026-04-04T01:00:48Z</time></trkpt><trkpt lat="14.375472386726244" lon="120.99962572934001"><ele>64.0</ele><time>2026-04-04T01:00:49Z</time></trkpt><trkpt lat="14.375577968325436" lon="120.99947769101227"><ele>63.666666666666664</ele><time>2026-04-04T01:00:50Z</time></trkpt><trkpt lat="14.375686950445273" lon="120.99933052123437"><ele>63.33333333333333</ele><time>2026-04-04T01:00:51Z</time></trkpt><trkpt lat="14.375806301858821" lon="120.99918544706145"><ele>63.0</ele><time>2026-04-04T01:00:52Z</time></trkpt><trkpt lat="14.375945420851137" lon="120.99905432050221"><ele>63.66666666666667</ele><time>2026-04-04T01:00:53Z</time></trkpt><trkpt lat="14.37609710715791" lon="120.99893293921089"><ele>64.33333333333334</ele><time>2026-04-04T01:00:54Z</time></trkpt><trkpt lat="14.376258722528934" lon="120.99882132428348"><ele>65.0</ele><time>2026-04-04T01:00:55Z</time></trkpt><trkpt lat="14.376423566714283" lon="120.99871469785597"><ele>66.33333333333334</ele><time>2026-04-04T01:00:56Z</time></trkpt><trkpt lat="14.37659153959764" lon="120.9986044677532"><ele>67.66666666666667</ele><time>2026-04-04T01:00:57Z</time></trkpt><trkpt lat="14.376758681702299" lon="120.99849332804824"><ele>69.0</ele><time>2026-04-04T01:00:58Z</time></trkpt><trkpt lat="14.376924685198603" lon="120.99837751410239"><ele>68.33333333333333</ele><time>2026-04-04T01:00:59Z</time></trkpt><trkpt lat="14.377076863416537" lon="120.99826698225289"><ele>67.66666666666666</ele><time>2026-04-04T01:01:00Z</time></trkpt><trkpt lat="14.377223427949371" lon="120.99816177064241"><ele>67.0</ele><time>2026-04-04T01:01:01Z</time></trkpt><trkpt lat="14.377366723878968" lon="120.99805908816893"><ele>66.33333333333333</ele><time>2026-04-04T01:01:02Z</time></trkpt><trkpt lat="14.377508879984914" lon="120.99795824692066"><ele>65.66666666666667</ele><time>2026-04-04T01:01:03Z</time></trkpt><trkpt lat="14.377642121312066" lon="120.99786220108928"><ele>65.0</ele><time>2026-04-04T01:01:04Z</time></trkpt><trkpt lat="14.377766162509921" lon="120.99777504665936"><ele>65.0</ele><time>2026-04-04T01:01:05Z</time></trkpt><trkpt lat="14.377883082676346" lon="120.99768820644434"><ele>65.0</ele><time>2026-04-04T01:01:06Z</time></trkpt><trkpt lat="14.377992348469679" lon="120.99760878224062"><ele>65.0</ele><time>2026-04-04T01:01:07Z</time></trkpt><trkpt lat="14.378091808318274" lon="120.99754183685096"><ele>65.0</ele><time>2026-04-04T01:01:08Z</time></trkpt><trkpt lat="14.378185553461698" lon="120.99747512056666"><ele>64.66666666666667</ele><time>2026-04-04T01:01:09Z</time></trkpt><trkpt lat="14.378270285019417" lon="120.99741409454464"><ele>64.33333333333334</ele><time>2026-04-04T01:01:10Z</time></trkpt><trkpt lat="14.378340289290504" lon="120.9973648630349"><ele>64.0</ele><time>2026-04-04T01:01:11Z</time></trkpt><trkpt lat="14.378408099862408" lon="120.99731602785545"><ele>63.66666666666667</ele><time>2026-04-04T01:01:12Z</time></trkpt><trkpt lat="14.378467236903024" lon="120.99727477335522"><ele>63.333333333333336</ele><time>2026-04-04T01:01:13Z</time></trkpt><trkpt lat="14.378551222864823" lon="120.99720971841015"><ele>63.0</ele><time>2026-04-04T01:01:15Z</time></trkpt><trkpt lat="14.378642224640279" lon="120.99714726171163"><ele>63.0</ele><time>2026-04-04T01:02:05Z</time></trkpt><trkpt lat="14.378701255250938" lon="120.99709617375996"><ele>63.0</ele><time>2026-04-04T01:02:06Z</time></trkpt><trkpt lat="14.378771734445657" lon="120.99703904297871"><ele>63.0</ele><time>2026-04-04T01:02:07Z</time></trkpt><trkpt lat="14.378856462199723" lon="120.9969775134625"><ele>63.0</ele><time>2026-04-04T01:02:08Z</time></trkpt><trkpt lat="14.378951183198689" lon="120.99691198521751"><ele>63.0</ele><time>2026-04-04T01:02:09Z</time></trkpt><trkpt lat="14.379050301053965" lon="120.99684113021581"><ele>63.0</ele><time>2026-04-04T01:02:10Z</time></trkpt><trkpt lat="14.379155640674842" lon="120.99676543358432"><ele>63.0</ele><time>2026-04-04T01:02:11Z</time></trkpt><trkpt lat="14.37926177334781" lon="120.99668753787087"><ele>63.0</ele><time>2026-04-04T01:02:12Z</time></trkpt><trkpt lat="14.379374315793997" lon="120.9966046141227"><ele>63.0</ele><time>2026-04-04T01:02:13Z</time></trkpt><trkpt lat="14.379488911985739" lon="120.99652023443556"><ele>63.0</ele><time>2026-04-04T01:02:14Z</time></trkpt><trkpt lat="14.379598708815017" lon="120.99642693494384"><ele>63.0</ele><time>2026-04-04T01:02:15Z</time></trkpt><trkpt lat="14.379707433712715" lon="120.99632439448467"><ele>63.0</ele><time>2026-04-04T01:02:16Z</time></trkpt><trkpt lat="14.379806516665687" lon="120.99621806203442"><ele>63.0</ele><time>2026-04-04T01:02:17Z</time></trkpt><trkpt lat="14.379903079451127" lon="120.99610552751729"><ele>62.33333333333333</ele><time>2026-04-04T01:02:18Z</time></trkpt><trkpt lat="14.379991078906091" lon="120.99598021168825"><ele>61.666666666666664</ele><time>2026-04-04T01:02:19Z</time></trkpt><trkpt lat="14.380072725292031" lon="120.99584920875803"><ele>61.0</ele><time>2026-04-04T01:02:20Z</time></trkpt><trkpt lat="14.3801571248694" lon="120.99571296734089"><ele>61.0</ele><time>2026-04-04T01:02:21Z</time></trkpt><trkpt lat="14.380242158887347" lon="120.99557727288382"><ele>61.0</ele><time>2026-04-04T01:02:22Z</time></trkpt><trkpt lat="14.380325469963909" lon="120.99544408324044"><ele>61.0</ele><time>2026-04-04T01:02:23Z</time></trkpt><trkpt lat="14.380404827944552" lon="120.99531594215203"><ele>61.0</ele><time>2026-04-04T01:02:24Z</time></trkpt><trkpt lat="14.380480673090952" lon="120.99519577484057"><ele>61.0</ele><time>2026-04-04T01:02:25Z</time></trkpt><trkpt lat="14.380555538116917" lon="120.9950722140743"><ele>61.0</ele><time>2026-04-04T01:02:26Z</time></trkpt><trkpt lat="14.380630869903298" lon="120.99494888880967"><ele>61.0</ele><time>2026-04-04T01:02:27Z</time></trkpt><trkpt lat="14.380693831690458" lon="120.9948188429932"><ele>61.25</ele><time>2026-04-04T01:02:28Z</time></trkpt><trkpt lat="14.380739428225231" lon="120.99467651725203"><ele>61.5</ele><time>2026-04-04T01:02:29Z</time></trkpt><trkpt lat="14.380767684685543" lon="120.9945335307663"><ele>61.75</ele><time>2026-04-04T01:02:30Z</time></trkpt><trkpt lat="14.380774275208356" lon="120.99438205965586"><ele>62.0</ele><time>2026-04-04T01:02:31Z</time></trkpt><trkpt lat="14.38076011603623" lon="120.994225776514"><ele>61.333333333333336</ele><time>2026-04-04T01:02:32Z</time></trkpt><trkpt lat="14.380742515596" lon="120.99406236776221"><ele>60.66666666666667</ele><time>2026-04-04T01:02:33Z</time></trkpt><trkpt lat="14.380726465171165" lon="120.99389181473602"><ele>60.0</ele><time>2026-04-04T01:02:34Z</time></trkpt><trkpt lat="14.380712026653114" lon="120.99371714888014"><ele>60.0</ele><time>2026-04-04T01:02:35Z</time></trkpt><trkpt lat="14.380699538093813" lon="120.99353854116413"><ele>60.0</ele><time>2026-04-04T01:02:36Z</time></trkpt><trkpt lat="14.380685131580451" lon="120.99335404217841"><ele>60.0</ele><time>2026-04-04T01:02:37Z</time></trkpt><trkpt lat="14.380672201202916" lon="120.99317325292522"><ele>59.33333333333333</ele><time>2026-04-04T01:02:38Z</time></trkpt><trkpt lat="14.38066028810236" lon="120.99298724210938"><ele>58.666666666666664</ele><time>2026-04-04T01:02:39Z</time></trkpt><trkpt lat="14.380642553292803" lon="120.99280314587357"><ele>58.0</ele><time>2026-04-04T01:02:40Z</time></trkpt><trkpt lat="14.380627507606016" lon="120.99261911028388"><ele>57.33333333333333</ele><time>2026-04-04T01:02:41Z</time></trkpt><trkpt lat="14.380611972711517" lon="120.99243404698358"><ele>56.66666666666667</ele><time>2026-04-04T01:02:42Z</time></trkpt><trkpt lat="14.38059941790815" lon="120.9922626898369"><ele>56.0</ele><time>2026-04-04T01:02:43Z</time></trkpt><trkpt lat="14.38058789295946" lon="120.99209963182135"><ele>56.0</ele><time>2026-04-04T01:02:44Z</time></trkpt><trkpt lat="14.380577373749544" lon="120.99194561036397"><ele>56.0</ele><time>2026-04-04T01:02:45Z</time></trkpt><trkpt lat="14.380577315254643" lon="120.99180021154615"><ele>56.0</ele><time>2026-04-04T01:02:46Z</time></trkpt><trkpt lat="14.38059513151323" lon="120.99166295411568"><ele>56.0</ele><time>2026-04-04T01:02:47Z</time></trkpt><trkpt lat="14.380635814475346" lon="120.99152931719554"><ele>56.25</ele><time>2026-04-04T01:02:48Z</time></trkpt><trkpt lat="14.380697302771969" lon="120.9914068904732"><ele>56.5</ele><time>2026-04-04T01:02:49Z</time></trkpt><trkpt lat="14.380775592261228" lon="120.99129194525793"><ele>56.75</ele><time>2026-04-04T01:02:50Z</time></trkpt><trkpt lat="14.380856556596122" lon="120.99118495078014"><ele>57.0</ele><time>2026-04-04T01:02:51Z</time></trkpt><trkpt lat="14.38093081353256" lon="120.99108561767488"><ele>57.0</ele><time>2026-04-04T01:02:52Z</time></trkpt><trkpt lat="14.380996328903402" lon="120.99099842365416"><ele>57.0</ele><time>2026-04-04T01:02:53Z</time></trkpt><trkpt lat="14.381050660414731" lon="120.99092773219228"><ele>57.0</ele><time>2026-04-04T01:02:54Z</time></trkpt><trkpt lat="14.381091060095885" lon="120.99087461008875"><ele>57.0</ele><time>2026-04-04T01:02:55Z</time></trkpt><trkpt lat="14.381020056691582" lon="120.99070692393335"><ele>57.0</ele><time>2026-04-04T01:03:06Z</time></trkpt><trkpt lat="14.380959180665164" lon="120.99066176126823"><ele>57.0</ele><time>2026-04-04T01:03:10Z</time></trkpt><trkpt lat="14.380850213665422" lon="120.99063010555398"><ele>57.0</ele><time>2026-04-04T01:03:12Z</time></trkpt><trkpt lat="14.380777550262458" lon="120.99062757101268"><ele>57.0</ele><time>2026-04-04T01:03:14Z</time></trkpt><trkpt lat="14.380752078377727" lon="120.99078659340579"><ele>57.0</ele><time>2026-04-04T01:03:17Z</time></trkpt><trkpt lat="14.380688763096625" lon="120.99087422328643"><ele>57.0</ele><time>2026-04-04T01:03:19Z</time></trkpt><trkpt lat="14.38065134237054" lon="120.99093190618403"><ele>57.0</ele><time>2026-04-04T01:03:20Z</time></trkpt><trkpt lat="14.38059844387141" lon="120.99101255390758"><ele>57.0</ele><time>2026-04-04T01:03:22Z</time></trkpt><trkpt lat="14.380554118042804" lon="120.99108007830179"><ele>57.0</ele><time>2026-04-04T01:03:26Z</time></trkpt><trkpt lat="14.380502404306723" lon="120.99115885716321"><ele>57.0</ele><time>2026-04-04T01:03:28Z</time></trkpt><trkpt lat="14.38045648127085" lon="120.99120654777073"><ele>57.0</ele><time>2026-04-04T01:03:32Z</time></trkpt><trkpt lat="14.380390873233443" lon="120.99119766672982"><ele>57.0</ele><time>2026-04-04T01:03:34Z</time></trkpt><trkpt lat="14.380290530453623" lon="120.99118316901445"><ele>57.0</ele><time>2026-04-04T01:03:36Z</time></trkpt><trkpt lat="14.380183680508495" lon="120.99118413436389"><ele>57.0</ele><time>2026-04-04T01:03:38Z</time></trkpt><trkpt lat="14.38011981092861" lon="120.99118471140142"><ele>57.0</ele><time>2026-04-04T01:03:39Z</time></trkpt><trkpt lat="14.379996799342543" lon="120.99118582276367"><ele>57.0</ele><time>2026-04-04T01:03:41Z</time></trkpt><trkpt lat="14.37987944527661" lon="120.99118688301327"><ele>57.0</ele><time>2026-04-04T01:03:43Z</time></trkpt><trkpt lat="14.379811254241279" lon="120.99118757298666"><ele>57.0</ele><time>2026-04-04T01:03:44Z</time></trkpt><trkpt lat="14.379693968788192" lon="120.99118894462633"><ele>57.0</ele><time>2026-04-04T01:03:46Z</time></trkpt><trkpt lat="14.379579819358414" lon="120.99119027958905"><ele>57.0</ele><time>2026-04-04T01:03:48Z</time></trkpt><trkpt lat="14.379492363873227" lon="120.99119130236984"><ele>57.0</ele><time>2026-04-04T01:03:50Z</time></trkpt><trkpt lat="14.379379368083828" lon="120.99119262384262"><ele>57.0</ele><time>2026-04-04T01:03:52Z</time></trkpt><trkpt lat="14.379260246319275" lon="120.99119401695806"><ele>57.0</ele><time>2026-04-04T01:03:54Z</time></trkpt><trkpt lat="14.379164798005508" lon="120.99119492738414"><ele>57.0</ele><time>2026-04-04T01:03:56Z</time></trkpt><trkpt lat="14.37909644774057" lon="120.99119558789141"><ele>57.0</ele><time>2026-04-04T01:04:00Z</time></trkpt><trkpt lat="14.379019806481992" lon="120.99119632851855"><ele>57.0</ele><time>2026-04-04T01:04:04Z</time></trkpt><trkpt lat="14.379004216735519" lon="120.99108460711065"><ele>57.0</ele><time>2026-04-04T01:04:11Z</time></trkpt><trkpt lat="14.379004694751687" lon="120.99098102392087"><ele>57.0</ele><time>2026-04-04T01:06:15Z</time></trkpt><trkpt lat="14.379004998294954" lon="120.9909152485974"><ele>57.0</ele><time>2026-04-04T01:06:19Z</time></trkpt><trkpt lat="14.379005436651683" lon="120.99082026078807"><ele>57.0</ele><time>2026-04-04T01:06:22Z</time></trkpt><trkpt lat="14.379005826532575" lon="120.9907357770551"><ele>57.0</ele><time>2026-04-04T01:06:26Z</time></trkpt><trkpt lat="14.378990839969585" lon="120.99067131381834"><ele>57.0</ele><time>2026-04-04T01:06:28Z</time></trkpt><trkpt lat="14.379152061000735" lon="120.99066604070602"><ele>55.2</ele><time>2026-04-04T01:06:34Z</time></trkpt><trkpt lat="14.379243684465058" lon="120.99066518808887"><ele>53.400000000000006</ele><time>2026-04-04T01:06:36Z</time></trkpt><trkpt lat="14.379323123846788" lon="120.99065388410293"><ele>51.599999999999994</ele><time>2026-04-04T01:06:39Z</time></trkpt><trkpt lat="14.379409504690576" lon="120.99066358791912"><ele>49.8</ele><time>2026-04-04T01:06:43Z</time></trkpt><trkpt lat="14.379513513219363" lon="120.9906625777631"><ele>48.0</ele><time>2026-04-04T01:06:45Z</time></trkpt><trkpt lat="14.3796255181246" lon="120.99066148994419"><ele>49.4</ele><time>2026-04-04T01:06:47Z</time></trkpt><trkpt lat="14.379741820668867" lon="120.99065045154603"><ele>50.8</ele><time>2026-04-04T01:06:49Z</time></trkpt><trkpt lat="14.379805111970906" lon="120.99064851940685"><ele>52.2</ele><time>2026-04-04T01:06:50Z</time></trkpt><trkpt lat="14.379928733909985" lon="120.9906480501548"><ele>53.6</ele><time>2026-04-04T01:06:52Z</time></trkpt><trkpt lat="14.379993575946651" lon="120.99064647790708"><ele>55.0</ele><time>2026-04-04T01:06:53Z</time></trkpt><trkpt lat="14.380102082032144" lon="120.99065544258116"><ele>55.0</ele><time>2026-04-04T01:06:55Z</time></trkpt><trkpt lat="14.380203011125166" lon="120.99065285094899"><ele>55.0</ele><time>2026-04-04T01:06:57Z</time></trkpt><trkpt lat="14.38026661297558" lon="120.99065203506879"><ele>55.0</ele><time>2026-04-04T01:07:00Z</time></trkpt><trkpt lat="14.380350813864625" lon="120.99065284652171"><ele>55.0</ele><time>2026-04-04T01:07:03Z</time></trkpt><trkpt lat="14.380461928268598" lon="120.99065111251234"><ele>55.0</ele><time>2026-04-04T01:07:05Z</time></trkpt><trkpt lat="14.38057823829064" lon="120.99065483381615"><ele>55.49999999999999</ele><time>2026-04-04T01:07:07Z</time></trkpt><trkpt lat="14.380642341712512" lon="120.99065805429575"><ele>56.0</ele><time>2026-04-04T01:07:08Z</time></trkpt><trkpt lat="14.380720694127447" lon="120.99065962569031"><ele>56.5</ele><time>2026-04-04T01:07:09Z</time></trkpt><trkpt lat="14.380828092879147" lon="120.99066018081437"><ele>57.0</ele><time>2026-04-04T01:07:11Z</time></trkpt><trkpt lat="14.380911015999084" lon="120.990681747105"><ele>57.49999999999999</ele><time>2026-04-04T01:07:13Z</time></trkpt><trkpt lat="14.380965940837404" lon="120.99072411996062"><ele>58.0</ele><time>2026-04-04T01:07:15.999Z</time></trkpt><trkpt lat="14.38102365373416" lon="120.99075383597588"><ele>57.99999999999999</ele><time>2026-04-04T01:07:35Z</time></trkpt><trkpt lat="14.3810853586139" lon="120.99078638261295"><ele>58.0</ele><time>2026-04-04T01:07:40Z</time></trkpt><trkpt lat="14.381170893707775" lon="120.99075470550059"><ele>58.0</ele><time>2026-04-04T01:07:48Z</time></trkpt><trkpt lat="14.381244510832383" lon="120.99065119735397"><ele>58.0</ele><time>2026-04-04T01:07:50Z</time></trkpt><trkpt lat="14.381292217010031" lon="120.99059729307768"><ele>57.99999999999999</ele><time>2026-04-04T01:07:51Z</time></trkpt><trkpt lat="14.381342080620879" lon="120.99053988071613"><ele>58.0</ele><time>2026-04-04T01:07:52Z</time></trkpt><trkpt lat="14.381396991605943" lon="120.99047519197389"><ele>57.83333333333333</ele><time>2026-04-04T01:07:53Z</time></trkpt><trkpt lat="14.38145163633561" lon="120.9904092411793"><ele>57.666666666666664</ele><time>2026-04-04T01:07:54Z</time></trkpt><trkpt lat="14.381507663454133" lon="120.9903402044524"><ele>57.5</ele><time>2026-04-04T01:07:55Z</time></trkpt><trkpt lat="14.381562955448475" lon="120.9902680163795"><ele>57.33333333333333</ele><time>2026-04-04T01:07:56Z</time></trkpt><trkpt lat="14.381614489606234" lon="120.99019619547843"><ele>57.166666666666664</ele><time>2026-04-04T01:07:57Z</time></trkpt><trkpt lat="14.38166635483855" lon="120.99011615464812"><ele>57.0</ele><time>2026-04-04T01:07:58Z</time></trkpt><trkpt lat="14.381710936215557" lon="120.99003344129032"><ele>56.0</ele><time>2026-04-04T01:07:59Z</time></trkpt><trkpt lat="14.381756845329996" lon="120.98994735288592"><ele>55.0</ele><time>2026-04-04T01:08:00Z</time></trkpt><trkpt lat="14.381793912816454" lon="120.98985171674477"><ele>54.0</ele><time>2026-04-04T01:08:01Z</time></trkpt><trkpt lat="14.3818275394221" lon="120.98975502057824"><ele>53.0</ele><time>2026-04-04T01:08:02Z</time></trkpt><trkpt lat="14.381854108089872" lon="120.98965110271975"><ele>52.0</ele><time>2026-04-04T01:08:03Z</time></trkpt><trkpt lat="14.381877063793302" lon="120.98955043754923"><ele>52.0</ele><time>2026-04-04T01:08:04Z</time></trkpt><trkpt lat="14.381891804603265" lon="120.9894337635481"><ele>52.0</ele><time>2026-04-04T01:08:05Z</time></trkpt><trkpt lat="14.38190525774213" lon="120.98932143517334"><ele>52.0</ele><time>2026-04-04T01:08:06Z</time></trkpt><trkpt lat="14.38191861456694" lon="120.98921280776503"><ele>52.0</ele><time>2026-04-04T01:08:07Z</time></trkpt><trkpt lat="14.381923540022544" lon="120.9890970291816"><ele>52.0</ele><time>2026-04-04T01:08:08Z</time></trkpt><trkpt lat="14.381921080354688" lon="120.98897534145725"><ele>50.2</ele><time>2026-04-04T01:08:09Z</time></trkpt><trkpt lat="14.38192125444726" lon="120.98886515129782"><ele>48.400000000000006</ele><time>2026-04-04T01:08:10Z</time></trkpt><trkpt lat="14.38191871983776" lon="120.98876646989895"><ele>46.599999999999994</ele><time>2026-04-04T01:08:11Z</time></trkpt><trkpt lat="14.381923483424725" lon="120.9886684724511"><ele>44.8</ele><time>2026-04-04T01:08:12Z</time></trkpt><trkpt lat="14.381923291493822" lon="120.98856991339056"><ele>43.0</ele><time>2026-04-04T01:08:13Z</time></trkpt><trkpt lat="14.381924109830347" lon="120.98846926036695"><ele>43.0</ele><time>2026-04-04T01:08:14Z</time></trkpt><trkpt lat="14.381929038702637" lon="120.98836661389812"><ele>43.0</ele><time>2026-04-04T01:08:15Z</time></trkpt><trkpt lat="14.381930754523328" lon="120.98826747657398"><ele>43.0</ele><time>2026-04-04T01:08:16Z</time></trkpt><trkpt lat="14.381944104058645" lon="120.98817230181014"><ele>43.0</ele><time>2026-04-04T01:08:17Z</time></trkpt><trkpt lat="14.381964969382652" lon="120.98806584969599"><ele>43.0</ele><time>2026-04-04T01:08:18Z</time></trkpt><trkpt lat="14.381996400359064" lon="120.98796528373893"><ele>43.0</ele><time>2026-04-04T01:08:19Z</time></trkpt><trkpt lat="14.382041129702719" lon="120.98784622594954"><ele>43.0</ele><time>2026-04-04T01:08:20Z</time></trkpt><trkpt lat="14.382091051793129" lon="120.98773504106288"><ele>43.0</ele><time>2026-04-04T01:08:21Z</time></trkpt><trkpt lat="14.382140249847042" lon="120.98761372251819"><ele>43.0</ele><time>2026-04-04T01:08:22Z</time></trkpt><trkpt lat="14.382192309685294" lon="120.98749555529818"><ele>43.75</ele><time>2026-04-04T01:08:23Z</time></trkpt><trkpt lat="14.38224083599538" lon="120.98737484006008"><ele>44.5</ele><time>2026-04-04T01:08:24Z</time></trkpt><trkpt lat="14.382296195875538" lon="120.98725117574988"><ele>45.25</ele><time>2026-04-04T01:08:25Z</time></trkpt><trkpt lat="14.382349542203917" lon="120.98713354454011"><ele>46.0</ele><time>2026-04-04T01:08:26Z</time></trkpt><trkpt lat="14.382401998204811" lon="120.98701810579911"><ele>46.0</ele><time>2026-04-04T01:08:27Z</time></trkpt><trkpt lat="14.382453641348004" lon="120.98690648108746"><ele>46.0</ele><time>2026-04-04T01:08:28Z</time></trkpt><trkpt lat="14.382500364021409" lon="120.9868062792142"><ele>46.0</ele><time>2026-04-04T01:08:29Z</time></trkpt><trkpt lat="14.382547991410526" lon="120.98669888206717"><ele>46.0</ele><time>2026-04-04T01:08:30Z</time></trkpt><trkpt lat="14.382596357935155" lon="120.98658825001121"><ele>45.75</ele><time>2026-04-04T01:08:31Z</time></trkpt><trkpt lat="14.382645577147377" lon="120.98647863544171"><ele>45.5</ele><time>2026-04-04T01:08:32Z</time></trkpt><trkpt lat="14.382695890840687" lon="120.98636749119089"><ele>45.25</ele><time>2026-04-04T01:08:33Z</time></trkpt><trkpt lat="14.382742200832965" lon="120.9862615223109"><ele>45.0</ele><time>2026-04-04T01:08:34Z</time></trkpt><trkpt lat="14.38279413694792" lon="120.98615007469945"><ele>45.0</ele><time>2026-04-04T01:08:35Z</time></trkpt><trkpt lat="14.382841710089924" lon="120.98604132277511"><ele>45.0</ele><time>2026-04-04T01:08:36Z</time></trkpt><trkpt lat="14.382898997015525" lon="120.98592217897775"><ele>45.0</ele><time>2026-04-04T01:08:37Z</time></trkpt><trkpt lat="14.3829532297677" lon="120.98580288873308"><ele>45.0</ele><time>2026-04-04T01:08:38Z</time></trkpt><trkpt lat="14.383006241447566" lon="120.98567793591721"><ele>45.5</ele><time>2026-04-04T01:08:39Z</time></trkpt><trkpt lat="14.38305895358178" lon="120.98556004959447"><ele>46.0</ele><time>2026-04-04T01:08:40Z</time></trkpt><trkpt lat="14.383110288095533" lon="120.98544227771092"><ele>46.5</ele><time>2026-04-04T01:08:41Z</time></trkpt><trkpt lat="14.38316830913706" lon="120.9853317043693"><ele>47.0</ele><time>2026-04-04T01:08:42Z</time></trkpt><trkpt lat="14.383218297513723" lon="120.98521480876995"><ele>47.0</ele><time>2026-04-04T01:08:43Z</time></trkpt><trkpt lat="14.383271027398036" lon="120.98511197757243"><ele>47.0</ele><time>2026-04-04T01:08:44Z</time></trkpt><trkpt lat="14.383313384129464" lon="120.98500494964757"><ele>47.0</ele><time>2026-04-04T01:08:45Z</time></trkpt><trkpt lat="14.38335761488679" lon="120.98488705368732"><ele>47.0</ele><time>2026-04-04T01:08:46Z</time></trkpt><trkpt lat="14.383399397174047" lon="120.98477498126496"><ele>45.75</ele><time>2026-04-04T01:08:47Z</time></trkpt><trkpt lat="14.383433379029878" lon="120.98465699760713"><ele>44.5</ele><time>2026-04-04T01:08:48Z</time></trkpt><trkpt lat="14.383464386563116" lon="120.98453258291866"><ele>43.25</ele><time>2026-04-04T01:08:49Z</time></trkpt><trkpt lat="14.383488980189917" lon="120.98440339166214"><ele>42.0</ele><time>2026-04-04T01:08:50Z</time></trkpt><trkpt lat="14.383517705275997" lon="120.98427919336672"><ele>43.25</ele><time>2026-04-04T01:08:51Z</time></trkpt><trkpt lat="14.38353792454281" lon="120.98414575553252"><ele>44.5</ele><time>2026-04-04T01:08:52Z</time></trkpt><trkpt lat="14.383567692920591" lon="120.98401984076132"><ele>45.75</ele><time>2026-04-04T01:08:53Z</time></trkpt><trkpt lat="14.383581237755454" lon="120.98387941407407"><ele>47.0</ele><time>2026-04-04T01:08:54Z</time></trkpt><trkpt lat="14.383585320455472" lon="120.98373761872703"><ele>47.0</ele><time>2026-04-04T01:08:55Z</time></trkpt><trkpt lat="14.383588943972958" lon="120.98361177118298"><ele>47.0</ele><time>2026-04-04T01:08:56Z</time></trkpt><trkpt lat="14.383584302217804" lon="120.98346274880059"><ele>47.0</ele><time>2026-04-04T01:08:57Z</time></trkpt><trkpt lat="14.383577825199605" lon="120.98331489855107"><ele>47.0</ele><time>2026-04-04T01:08:58Z</time></trkpt><trkpt lat="14.383573891546543" lon="120.98321182290962"><ele>46.75</ele><time>2026-04-04T01:08:59Z</time></trkpt><trkpt lat="14.383569286733813" lon="120.98308005420726"><ele>46.5</ele><time>2026-04-04T01:09:00Z</time></trkpt><trkpt lat="14.383552091477789" lon="120.98295422272784"><ele>46.25</ele><time>2026-04-04T01:09:01Z</time></trkpt><trkpt lat="14.383550124510135" lon="120.98281973733972"><ele>46.0</ele><time>2026-04-04T01:09:02Z</time></trkpt><trkpt lat="14.38354518029831" lon="120.98268201649884"><ele>46.0</ele><time>2026-04-04T01:09:03Z</time></trkpt><trkpt lat="14.383539356062506" lon="120.9825398919615"><ele>46.0</ele><time>2026-04-04T01:09:04Z</time></trkpt><trkpt lat="14.383533777465212" lon="120.98240398372889"><ele>46.0</ele><time>2026-04-04T01:09:05Z</time></trkpt><trkpt lat="14.383529132333498" lon="120.98226740677515"><ele>46.0</ele><time>2026-04-04T01:09:06Z</time></trkpt><trkpt lat="14.383524255275347" lon="120.98213367631658"><ele>45.75</ele><time>2026-04-04T01:09:07Z</time></trkpt><trkpt lat="14.383520853846486" lon="120.98199778914581"><ele>45.5</ele><time>2026-04-04T01:09:08Z</time></trkpt><trkpt lat="14.383519163353007" lon="120.98185998865344"><ele>45.25</ele><time>2026-04-04T01:09:09Z</time></trkpt><trkpt lat="14.383515877818953" lon="120.98172218888806"><ele>45.0</ele><time>2026-04-04T01:09:10Z</time></trkpt><trkpt lat="14.383511044370294" lon="120.98158549468796"><ele>44.5</ele><time>2026-04-04T01:09:11Z</time></trkpt><trkpt lat="14.383507202263745" lon="120.98145825548181"><ele>44.0</ele><time>2026-04-04T01:09:12Z</time></trkpt><trkpt lat="14.383505267492156" lon="120.9813365820499"><ele>43.5</ele><time>2026-04-04T01:09:13Z</time></trkpt><trkpt lat="14.383502254640645" lon="120.9812239485796"><ele>43.0</ele><time>2026-04-04T01:09:14Z</time></trkpt><trkpt lat="14.383500291126367" lon="120.98111958881695"><ele>43.0</ele><time>2026-04-04T01:09:15Z</time></trkpt><trkpt lat="14.383498881564021" lon="120.98103113203359"><ele>43.0</ele><time>2026-04-04T01:09:16Z</time></trkpt><trkpt lat="14.383497282795508" lon="120.98093600766009"><ele>43.0</ele><time>2026-04-04T01:09:17Z</time></trkpt><trkpt lat="14.383495030816754" lon="120.98085576831934"><ele>43.0</ele><time>2026-04-04T01:09:18Z</time></trkpt><trkpt lat="14.383485623275421" lon="120.98078284442396"><ele>43.0</ele><time>2026-04-04T01:09:19Z</time></trkpt><trkpt lat="14.383488428919796" lon="120.9807173863957"><ele>43.0</ele><time>2026-04-04T01:09:20Z</time></trkpt><trkpt lat="14.383485127095351" lon="120.98064627014317"><ele>43.25</ele><time>2026-04-04T01:09:22.999Z</time></trkpt><trkpt lat="14.383478333094843" lon="120.98053190252341"><ele>43.5</ele><time>2026-04-04T01:09:25.999Z</time></trkpt><trkpt lat="14.383412010848373" lon="120.98042635980994"><ele>43.75</ele><time>2026-04-04T01:09:26.999Z</time></trkpt><trkpt lat="14.383218310082214" lon="120.98045208774742"><ele>44.0</ele><time>2026-04-04T01:09:28.999Z</time></trkpt><trkpt lat="14.38314160368236" lon="120.98046365603864"><ele>44.0</ele><time>2026-04-04T01:09:29.999Z</time></trkpt><trkpt lat="14.383048204510429" lon="120.98047063088028"><ele>44.0</ele><time>2026-04-04T01:09:30.999Z</time></trkpt><trkpt lat="14.38296439355001" lon="120.98048085454171"><ele>44.0</ele><time>2026-04-04T01:09:31.999Z</time></trkpt><trkpt lat="14.38287740470271" lon="120.98049131275116"><ele>44.0</ele><time>2026-04-04T01:09:32.999Z</time></trkpt><trkpt lat="14.382778987721187" lon="120.98050106228423"><ele>44.0</ele><time>2026-04-04T01:09:33.999Z</time></trkpt><trkpt lat="14.38269454232308" lon="120.98050911184563"><ele>44.0</ele><time>2026-04-04T01:09:34.999Z</time></trkpt><trkpt lat="14.382603172714255" lon="120.9805313420944"><ele>44.2</ele><time>2026-04-04T01:09:35.999Z</time></trkpt><trkpt lat="14.382512070197947" lon="120.98055341645609"><ele>44.400000000000006</ele><time>2026-04-04T01:09:36.999Z</time></trkpt><trkpt lat="14.382427277457381" lon="120.98058800680444"><ele>44.6</ele><time>2026-04-04T01:09:37.999Z</time></trkpt><trkpt lat="14.382340076634529" lon="120.98061921948975"><ele>44.8</ele><time>2026-04-04T01:09:38.999Z</time></trkpt><trkpt lat="14.382250310186848" lon="120.9806566395891"><ele>45.0</ele><time>2026-04-04T01:09:39.999Z</time></trkpt><trkpt lat="14.382155847955154" lon="120.98069401785723"><ele>45.4</ele><time>2026-04-04T01:09:40.999Z</time></trkpt><trkpt lat="14.38206866060473" lon="120.98073936836077"><ele>45.8</ele><time>2026-04-04T01:09:41.999Z</time></trkpt><trkpt lat="14.381976485486629" lon="120.9807779917388"><ele>46.2</ele><time>2026-04-04T01:09:42.999Z</time></trkpt><trkpt lat="14.381886239710848" lon="120.98081390412688"><ele>46.6</ele><time>2026-04-04T01:09:43.999Z</time></trkpt><trkpt lat="14.381798696168637" lon="120.98084475149358"><ele>47.0</ele><time>2026-04-04T01:09:44.999Z</time></trkpt><trkpt lat="14.381713696299478" lon="120.98087616619677"><ele>47.0</ele><time>2026-04-04T01:09:45.999Z</time></trkpt><trkpt lat="14.381633439337076" lon="120.9808919105202"><ele>47.0</ele><time>2026-04-04T01:09:46.999Z</time></trkpt><trkpt lat="14.381563373836627" lon="120.98090943084915"><ele>47.0</ele><time>2026-04-04T01:09:47.999Z</time></trkpt><trkpt lat="14.381499004637533" lon="120.9809188869309"><ele>47.0</ele><time>2026-04-04T01:09:48.999Z</time></trkpt><trkpt lat="14.381376230574109" lon="120.98091234882887"><ele>47.0</ele><time>2026-04-04T01:09:50.999Z</time></trkpt><trkpt lat="14.38131085803042" lon="120.98089819099975"><ele>47.0</ele><time>2026-04-04T01:09:51.999Z</time></trkpt><trkpt lat="14.381257974575123" lon="120.98083804649639"><ele>47.0</ele><time>2026-04-04T01:09:52.999Z</time></trkpt><trkpt lat="14.381210693818002" lon="120.9807722288513"><ele>47.0</ele><time>2026-04-04T01:09:53.999Z</time></trkpt><trkpt lat="14.381170336629443" lon="120.98069848021383"><ele>47.0</ele><time>2026-04-04T01:09:54.999Z</time></trkpt><trkpt lat="14.381135769772362" lon="120.98061937763185"><ele>47.0</ele><time>2026-04-04T01:09:56Z</time></trkpt><trkpt lat="14.381101295813549" lon="120.98053953731512"><ele>47.0</ele><time>2026-04-04T01:09:57Z</time></trkpt><trkpt lat="14.381071202036537" lon="120.9804780578655"><ele>47.0</ele><time>2026-04-04T01:09:58Z</time></trkpt><trkpt lat="14.381023853371655" lon="120.98038543755025"><ele>47.0</ele><time>2026-04-04T01:10:00Z</time></trkpt><trkpt lat="14.380985746063068" lon="120.98033092835237"><ele>47.0</ele><time>2026-04-04T01:10:03Z</time></trkpt><trkpt lat="14.38089709106864" lon="120.98028139474938"><ele>47.0</ele><time>2026-04-04T01:10:06Z</time></trkpt><trkpt lat="14.380782415334034" lon="120.98023930635033"><ele>47.0</ele><time>2026-04-04T01:10:08Z</time></trkpt><trkpt lat="14.3806906377979" lon="120.98016507536602"><ele>47.0</ele><time>2026-04-04T01:10:10Z</time></trkpt><trkpt lat="14.38065272401765" lon="120.98006330109088"><ele>47.6</ele><time>2026-04-04T01:10:12Z</time></trkpt><trkpt lat="14.380660129909074" lon="120.97994707225878"><ele>48.2</ele><time>2026-04-04T01:10:14Z</time></trkpt><trkpt lat="14.380649905387601" lon="120.97987894153229"><ele>48.8</ele><time>2026-04-04T01:10:15Z</time></trkpt><trkpt lat="14.380655709852041" lon="120.9797913003048"><ele>49.4</ele><time>2026-04-04T01:10:17Z</time></trkpt><trkpt lat="14.380692581730077" lon="120.9797004970503"><ele>50.0</ele><time>2026-04-04T01:10:19Z</time></trkpt><trkpt lat="14.380746269972633" lon="120.97958986034233"><ele>50.0</ele><time>2026-04-04T01:10:21Z</time></trkpt><trkpt lat="14.380793287383156" lon="120.97949287859346"><ele>50.0</ele><time>2026-04-04T01:10:23Z</time></trkpt><trkpt lat="14.380825122217454" lon="120.97940987790713"><ele>50.0</ele><time>2026-04-04T01:10:24Z</time></trkpt><trkpt lat="14.380835237618106" lon="120.97932928598894"><ele>50.0</ele><time>2026-04-04T01:10:25Z</time></trkpt><trkpt lat="14.380725624941434" lon="120.97923294596144"><ele>50.0</ele><time>2026-04-04T01:10:26Z</time></trkpt><trkpt lat="14.38068435849769" lon="120.97915907207225"><ele>50.66666666666667</ele><time>2026-04-04T01:10:27Z</time></trkpt><trkpt lat="14.380667949562612" lon="120.97908828267357"><ele>51.333333333333336</ele><time>2026-04-04T01:10:28Z</time></trkpt><trkpt lat="14.380659962118898" lon="120.97900114688868"><ele>52.0</ele><time>2026-04-04T01:10:30Z</time></trkpt><trkpt lat="14.380675135866795" lon="120.97890346785064"><ele>52.66666666666667</ele><time>2026-04-04T01:10:33Z</time></trkpt><trkpt lat="14.380624337409468" lon="120.9788081493513"><ele>53.333333333333336</ele><time>2026-04-04T01:10:35Z</time></trkpt><trkpt lat="14.380578809331896" lon="120.97874081537181"><ele>54.0</ele><time>2026-04-04T01:10:39Z</time></trkpt><trkpt lat="14.380415707425385" lon="120.97873121853077"><ele>54.0</ele><time>2026-04-04T01:10:41Z</time></trkpt><trkpt lat="14.380335970208078" lon="120.97874336759845"><ele>54.0</ele><time>2026-04-04T01:10:42Z</time></trkpt><trkpt lat="14.380250426960167" lon="120.9787524797852"><ele>54.0</ele><time>2026-04-04T01:10:43Z</time></trkpt><trkpt lat="14.380166084561765" lon="120.97876209777817"><ele>54.0</ele><time>2026-04-04T01:10:44Z</time></trkpt><trkpt lat="14.38007705702915" lon="120.97877225004126"><ele>54.0</ele><time>2026-04-04T01:10:45Z</time></trkpt><trkpt lat="14.379989035474178" lon="120.97878228758796"><ele>54.0</ele><time>2026-04-04T01:10:46Z</time></trkpt><trkpt lat="14.37989845539922" lon="120.9787969005392"><ele>54.0</ele><time>2026-04-04T01:10:47Z</time></trkpt><trkpt lat="14.379807879568702" lon="120.97881262016243"><ele>54.00000000000001</ele><time>2026-04-04T01:10:48Z</time></trkpt><trkpt lat="14.379714608430058" lon="120.97882880568892"><ele>54.00000000000001</ele><time>2026-04-04T01:10:49Z</time></trkpt><trkpt lat="14.379618013729745" lon="120.97884387323073"><ele>54.0</ele><time>2026-04-04T01:10:50Z</time></trkpt><trkpt lat="14.379520957608236" lon="120.97885935597425"><ele>54.0</ele><time>2026-04-04T01:10:51Z</time></trkpt><trkpt lat="14.379415148756488" lon="120.97887356320638"><ele>54.0</ele><time>2026-04-04T01:10:52Z</time></trkpt><trkpt lat="14.379323449246343" lon="120.97891410252414"><ele>54.00000000000001</ele><time>2026-04-04T01:10:53Z</time></trkpt><trkpt lat="14.379221981289025" lon="120.97892832637434"><ele>54.00000000000001</ele><time>2026-04-04T01:10:54Z</time></trkpt><trkpt lat="14.379115151550554" lon="120.97894608165902"><ele>54.0</ele><time>2026-04-04T01:10:55Z</time></trkpt><trkpt lat="14.379007920323144" lon="120.9789618760837"><ele>54.0</ele><time>2026-04-04T01:10:56Z</time></trkpt><trkpt lat="14.37889748901215" lon="120.9789532558129"><ele>54.6</ele><time>2026-04-04T01:10:57Z</time></trkpt><trkpt lat="14.378789302660264" lon="120.97898627027851"><ele>55.2</ele><time>2026-04-04T01:10:58Z</time></trkpt><trkpt lat="14.378682009673506" lon="120.97898404746442"><ele>55.800000000000004</ele><time>2026-04-04T01:10:59Z</time></trkpt><trkpt lat="14.378575020102701" lon="120.97899889896672"><ele>56.400000000000006</ele><time>2026-04-04T01:11:00Z</time></trkpt><trkpt lat="14.378468909436636" lon="120.97902768542791"><ele>57.0</ele><time>2026-04-04T01:11:01Z</time></trkpt><trkpt lat="14.378362740078668" lon="120.97903830941621"><ele>57.0</ele><time>2026-04-04T01:11:02Z</time></trkpt><trkpt lat="14.378255422554442" lon="120.97905249943639"><ele>57.0</ele><time>2026-04-04T01:11:03Z</time></trkpt><trkpt lat="14.37815156182161" lon="120.97906355195981"><ele>57.0</ele><time>2026-04-04T01:11:04Z</time></trkpt><trkpt lat="14.378046654366551" lon="120.97907299012665"><ele>57.0</ele><time>2026-04-04T01:11:05Z</time></trkpt><trkpt lat="14.377936567672737" lon="120.97909179897755"><ele>57.0</ele><time>2026-04-04T01:11:06Z</time></trkpt><trkpt lat="14.377824304745479" lon="120.9791145925485"><ele>57.400000000000006</ele><time>2026-04-04T01:11:07Z</time></trkpt><trkpt lat="14.377713707491479" lon="120.9791343963118"><ele>57.800000000000004</ele><time>2026-04-04T01:11:08Z</time></trkpt><trkpt lat="14.377604626189282" lon="120.97915323890591"><ele>58.2</ele><time>2026-04-04T01:11:09Z</time></trkpt><trkpt lat="14.37749823046217" lon="120.97917123612864"><ele>58.6</ele><time>2026-04-04T01:11:10Z</time></trkpt><trkpt lat="14.377393108286538" lon="120.97918898150816"><ele>59.0</ele><time>2026-04-04T01:11:11Z</time></trkpt><trkpt lat="14.377282390774155" lon="120.97918817405557"><ele>58.800000000000004</ele><time>2026-04-04T01:11:12Z</time></trkpt><trkpt lat="14.3771759851842" lon="120.97920438215553"><ele>58.60000000000001</ele><time>2026-04-04T01:11:13Z</time></trkpt><trkpt lat="14.377065752639023" lon="120.97923802764454"><ele>58.4</ele><time>2026-04-04T01:11:14Z</time></trkpt><trkpt lat="14.376959056733694" lon="120.97925358218092"><ele>58.2</ele><time>2026-04-04T01:11:15Z</time></trkpt><trkpt lat="14.376842422026044" lon="120.97925594801418"><ele>58.0</ele><time>2026-04-04T01:11:16Z</time></trkpt><trkpt lat="14.37673544748509" lon="120.97928594964004"><ele>58.0</ele><time>2026-04-04T01:11:17Z</time></trkpt><trkpt lat="14.376630501219822" lon="120.97930477508352"><ele>58.0</ele><time>2026-04-04T01:11:18Z</time></trkpt><trkpt lat="14.376520097172127" lon="120.9793270037877"><ele>58.0</ele><time>2026-04-04T01:11:19Z</time></trkpt><trkpt lat="14.37641432548232" lon="120.97934583922789"><ele>58.0</ele><time>2026-04-04T01:11:20Z</time></trkpt><trkpt lat="14.37630924635702" lon="120.9793692752029"><ele>58.0</ele><time>2026-04-04T01:11:21Z</time></trkpt><trkpt lat="14.376198846656958" lon="120.9794006340783"><ele>58.75</ele><time>2026-04-04T01:11:22Z</time></trkpt><trkpt lat="14.376087461449222" lon="120.97942102187773"><ele>59.5</ele><time>2026-04-04T01:11:23Z</time></trkpt><trkpt lat="14.375974658444564" lon="120.97943870273579"><ele>60.25</ele><time>2026-04-04T01:11:24Z</time></trkpt><trkpt lat="14.37585396686282" lon="120.97946316648007"><ele>61.0</ele><time>2026-04-04T01:11:25Z</time></trkpt><trkpt lat="14.375733262546179" lon="120.9794912078723"><ele>61.0</ele><time>2026-04-04T01:11:26Z</time></trkpt><trkpt lat="14.375614141226043" lon="120.97952021251862"><ele>60.99999999999999</ele><time>2026-04-04T01:11:26.999Z</time></trkpt><trkpt lat="14.375506721543994" lon="120.97954662158551"><ele>60.99999999999999</ele><time>2026-04-04T01:11:27.999Z</time></trkpt><trkpt lat="14.375406134319798" lon="120.97957366352166"><ele>61.0</ele><time>2026-04-04T01:11:28.999Z</time></trkpt><trkpt lat="14.375311529819005" lon="120.979602034258"><ele>61.0</ele><time>2026-04-04T01:11:29.999Z</time></trkpt><trkpt lat="14.37521058899983" lon="120.979608614355"><ele>61.0</ele><time>2026-04-04T01:11:30.999Z</time></trkpt><trkpt lat="14.375112810602202" lon="120.979630104427"><ele>60.99999999999999</ele><time>2026-04-04T01:11:31.999Z</time></trkpt><trkpt lat="14.375012620987626" lon="120.97965276583686"><ele>60.99999999999999</ele><time>2026-04-04T01:11:32.999Z</time></trkpt><trkpt lat="14.374912415917949" lon="120.97967546559755"><ele>61.0</ele><time>2026-04-04T01:11:33.999Z</time></trkpt><trkpt lat="14.374812357005913" lon="120.97969806956996"><ele>61.0</ele><time>2026-04-04T01:11:34.999Z</time></trkpt><trkpt lat="14.374709197329006" lon="120.97972148610184"><ele>60.8</ele><time>2026-04-04T01:11:35.999Z</time></trkpt><trkpt lat="14.374606463390812" lon="120.97974590900435"><ele>60.599999999999994</ele><time>2026-04-04T01:11:36.999Z</time></trkpt><trkpt lat="14.374499611444605" lon="120.97977130099366"><ele>60.4</ele><time>2026-04-04T01:11:37.999Z</time></trkpt><trkpt lat="14.374395323208777" lon="120.97979608375113"><ele>60.2</ele><time>2026-04-04T01:11:38.999Z</time></trkpt><trkpt lat="14.37428855875337" lon="120.97982145494895"><ele>60.0</ele><time>2026-04-04T01:11:39.999Z</time></trkpt><trkpt lat="14.374181323700585" lon="120.97984693797957"><ele>60.0</ele><time>2026-04-04T01:11:40.999Z</time></trkpt><trkpt lat="14.374076252672085" lon="120.97987190675566"><ele>60.0</ele><time>2026-04-04T01:11:41.999Z</time></trkpt><trkpt lat="14.37396797173859" lon="120.97990323581423"><ele>60.0</ele><time>2026-04-04T01:11:42.999Z</time></trkpt><trkpt lat="14.373872106749022" lon="120.9799308917072"><ele>60.0</ele><time>2026-04-04T01:11:43.999Z</time></trkpt><trkpt lat="14.373782177196379" lon="120.97995124690954"><ele>60.0</ele><time>2026-04-04T01:11:44.999Z</time></trkpt><trkpt lat="14.373693863202591" lon="120.97997364020877"><ele>60.2</ele><time>2026-04-04T01:11:45.999Z</time></trkpt><trkpt lat="14.373599730568378" lon="120.97999737120362"><ele>60.4</ele><time>2026-04-04T01:11:46.999Z</time></trkpt><trkpt lat="14.373503833884813" lon="120.98002104366738"><ele>60.599999999999994</ele><time>2026-04-04T01:11:47.999Z</time></trkpt><trkpt lat="14.373401223628717" lon="120.98004640041566"><ele>60.8</ele><time>2026-04-04T01:11:48.999Z</time></trkpt><trkpt lat="14.373292739678497" lon="120.98007340297202"><ele>61.0</ele><time>2026-04-04T01:11:49.999Z</time></trkpt><trkpt lat="14.37318943907198" lon="120.98009911534908"><ele>60.599999999999994</ele><time>2026-04-04T01:11:50.999Z</time></trkpt><trkpt lat="14.3730884563216" lon="120.98012425079392"><ele>60.199999999999996</ele><time>2026-04-04T01:11:51.999Z</time></trkpt><trkpt lat="14.372992174031689" lon="120.98014806026823"><ele>59.800000000000004</ele><time>2026-04-04T01:11:52.999Z</time></trkpt><trkpt lat="14.372894224775912" lon="120.98017367076015"><ele>59.400000000000006</ele><time>2026-04-04T01:11:54Z</time></trkpt><trkpt lat="14.37279859470127" lon="120.98021384610274"><ele>59.0</ele><time>2026-04-04T01:11:55Z</time></trkpt><trkpt lat="14.372696408016212" lon="120.98023872295568"><ele>59.0</ele><time>2026-04-04T01:11:56Z</time></trkpt><trkpt lat="14.372588582162606" lon="120.98026307921589"><ele>59.0</ele><time>2026-04-04T01:11:57Z</time></trkpt><trkpt lat="14.372481490565708" lon="120.98029042294806"><ele>59.0</ele><time>2026-04-04T01:11:58Z</time></trkpt><trkpt lat="14.37238197812565" lon="120.98031495813106"><ele>59.0</ele><time>2026-04-04T01:11:59Z</time></trkpt><trkpt lat="14.37225566351619" lon="120.98033270205849"><ele>59.0</ele><time>2026-04-04T01:12:00Z</time></trkpt><trkpt lat="14.372137290492805" lon="120.98036130117003"><ele>59.0</ele><time>2026-04-04T01:12:01Z</time></trkpt><trkpt lat="14.372020667988762" lon="120.98038798728223"><ele>59.0</ele><time>2026-04-04T01:12:02Z</time></trkpt><trkpt lat="14.371906152188506" lon="120.98041638243933"><ele>59.0</ele><time>2026-04-04T01:12:03Z</time></trkpt><trkpt lat="14.371799609691289" lon="120.98044263448757"><ele>59.0</ele><time>2026-04-04T01:12:04Z</time></trkpt><trkpt lat="14.371697604455104" lon="120.98046988758718"><ele>59.00000000000001</ele><time>2026-04-04T01:12:05Z</time></trkpt><trkpt lat="14.371593875514328" lon="120.98049577515532"><ele>59.00000000000001</ele><time>2026-04-04T01:12:06Z</time></trkpt><trkpt lat="14.371488067241073" lon="120.9805198056993"><ele>59.0</ele><time>2026-04-04T01:12:07Z</time></trkpt><trkpt lat="14.371391460324046" lon="120.98053816574843"><ele>59.0</ele><time>2026-04-04T01:12:08Z</time></trkpt><trkpt lat="14.371304118993908" lon="120.98055806351422"><ele>59.6</ele><time>2026-04-04T01:12:09Z</time></trkpt><trkpt lat="14.371215496159703" lon="120.98058347071341"><ele>60.2</ele><time>2026-04-04T01:12:10Z</time></trkpt><trkpt lat="14.371128544998786" lon="120.98060362856056"><ele>60.800000000000004</ele><time>2026-04-04T01:12:11Z</time></trkpt><trkpt lat="14.371023935834046" lon="120.98063193548859"><ele>61.400000000000006</ele><time>2026-04-04T01:12:12Z</time></trkpt><trkpt lat="14.370925624155486" lon="120.98065443006438"><ele>62.0</ele><time>2026-04-04T01:12:13Z</time></trkpt><trkpt lat="14.370819306091596" lon="120.98067442393565"><ele>62.0</ele><time>2026-04-04T01:12:14Z</time></trkpt><trkpt lat="14.370711767691711" lon="120.98069604864556"><ele>62.0</ele><time>2026-04-04T01:12:15Z</time></trkpt><trkpt lat="14.370603365092382" lon="120.98072642863606"><ele>62.0</ele><time>2026-04-04T01:12:16Z</time></trkpt><trkpt lat="14.37050606138078" lon="120.98075921425125"><ele>62.0</ele><time>2026-04-04T01:12:17Z</time></trkpt><trkpt lat="14.370413942697226" lon="120.9807853441957"><ele>62.0</ele><time>2026-04-04T01:12:18Z</time></trkpt><trkpt lat="14.37031083706383" lon="120.9808075020681"><ele>62.0</ele><time>2026-04-04T01:12:19Z</time></trkpt><trkpt lat="14.370211185706326" lon="120.98083015284021"><ele>62.0</ele><time>2026-04-04T01:12:20Z</time></trkpt><trkpt lat="14.370105929370238" lon="120.98085700333003"><ele>62.0</ele><time>2026-04-04T01:12:21Z</time></trkpt><trkpt lat="14.37000151882992" lon="120.98088495509394"><ele>62.0</ele><time>2026-04-04T01:12:22Z</time></trkpt><trkpt lat="14.369895875060449" lon="120.9809131157152"><ele>62.0</ele><time>2026-04-04T01:12:23Z</time></trkpt><trkpt lat="14.36978516646744" lon="120.98094208024668"><ele>62.400000000000006</ele><time>2026-04-04T01:12:24Z</time></trkpt><trkpt lat="14.369674470804659" lon="120.9809696719224"><ele>62.800000000000004</ele><time>2026-04-04T01:12:25Z</time></trkpt><trkpt lat="14.369566822241524" lon="120.98099383815826"><ele>63.2</ele><time>2026-04-04T01:12:26Z</time></trkpt><trkpt lat="14.369458591971815" lon="120.98102549976497"><ele>63.6</ele><time>2026-04-04T01:12:27Z</time></trkpt><trkpt lat="14.369351176125363" lon="120.98105744692499"><ele>64.0</ele><time>2026-04-04T01:12:28Z</time></trkpt><trkpt lat="14.369236493902527" lon="120.9810852741563"><ele>64.0</ele><time>2026-04-04T01:12:29Z</time></trkpt><trkpt lat="14.369129676335714" lon="120.98110993188583"><ele>64.0</ele><time>2026-04-04T01:12:30Z</time></trkpt><trkpt lat="14.369023182287409" lon="120.98113945224509"><ele>64.0</ele><time>2026-04-04T01:12:31Z</time></trkpt><trkpt lat="14.368919498682352" lon="120.98116806102763"><ele>64.0</ele><time>2026-04-04T01:12:32Z</time></trkpt><trkpt lat="14.3688141272687" lon="120.98119401489924"><ele>64.0</ele><time>2026-04-04T01:12:33Z</time></trkpt><trkpt lat="14.368710538017634" lon="120.9812202026156"><ele>64.2</ele><time>2026-04-04T01:12:34Z</time></trkpt><trkpt lat="14.368608542740004" lon="120.98124549500308"><ele>64.4</ele><time>2026-04-04T01:12:35Z</time></trkpt><trkpt lat="14.368502697074156" lon="120.98127137688496"><ele>64.6</ele><time>2026-04-04T01:12:36Z</time></trkpt><trkpt lat="14.36839931732997" lon="120.98129606869402"><ele>64.8</ele><time>2026-04-04T01:12:37Z</time></trkpt><trkpt lat="14.368291232608033" lon="120.98132235338595"><ele>65.0</ele><time>2026-04-04T01:12:38Z</time></trkpt><trkpt lat="14.36818373113823" lon="120.98135042678774"><ele>65.0</ele><time>2026-04-04T01:12:39Z</time></trkpt><trkpt lat="14.368073888745394" lon="120.98137744303888"><ele>65.0</ele><time>2026-04-04T01:12:40Z</time></trkpt><trkpt lat="14.367965656251224" lon="120.98140503982079"><ele>65.0</ele><time>2026-04-04T01:12:41Z</time></trkpt><trkpt lat="14.367850543024982" lon="120.98143297135861"><ele>65.0</ele><time>2026-04-04T01:12:42Z</time></trkpt><trkpt lat="14.367738362645674" lon="120.98146052554026"><ele>65.75</ele><time>2026-04-04T01:12:43Z</time></trkpt><trkpt lat="14.367625392112453" lon="120.98148730646703"><ele>66.5</ele><time>2026-04-04T01:12:44Z</time></trkpt><trkpt lat="14.367513930188613" lon="120.98151947889569"><ele>67.25</ele><time>2026-04-04T01:12:45Z</time></trkpt><trkpt lat="14.367398333055137" lon="120.98154929738327"><ele>68.0</ele><time>2026-04-04T01:12:46Z</time></trkpt><trkpt lat="14.367280855852567" lon="120.981558427411"><ele>68.5</ele><time>2026-04-04T01:12:47Z</time></trkpt><trkpt lat="14.367162607065504" lon="120.98158312802853"><ele>69.0</ele><time>2026-04-04T01:12:48Z</time></trkpt><trkpt lat="14.367051024106921" lon="120.98162307524201"><ele>69.5</ele><time>2026-04-04T01:12:49Z</time></trkpt><trkpt lat="14.366940971378098" lon="120.98162038863723"><ele>70.0</ele><time>2026-04-04T01:12:50Z</time></trkpt><trkpt lat="14.366831241130518" lon="120.98163067584973"><ele>70.0</ele><time>2026-04-04T01:12:51Z</time></trkpt><trkpt lat="14.36671830398055" lon="120.98165310198475"><ele>70.0</ele><time>2026-04-04T01:12:52Z</time></trkpt><trkpt lat="14.366603638533023" lon="120.98165649360168"><ele>70.0</ele><time>2026-04-04T01:12:53Z</time></trkpt><trkpt lat="14.366489357862651" lon="120.98166057205172"><ele>70.0</ele><time>2026-04-04T01:12:54Z</time></trkpt><trkpt lat="14.36637422010225" lon="120.98165715907705"><ele>70.2</ele><time>2026-04-04T01:12:55Z</time></trkpt><trkpt lat="14.366258222002005" lon="120.98165801213992"><ele>70.4</ele><time>2026-04-04T01:12:56Z</time></trkpt><trkpt lat="14.366157565636748" lon="120.98165475072885"><ele>70.6</ele><time>2026-04-04T01:12:57Z</time></trkpt><trkpt lat="14.366045773604245" lon="120.98165169310286"><ele>70.8</ele><time>2026-04-04T01:12:58Z</time></trkpt><trkpt lat="14.365937907287643" lon="120.98164691263182"><ele>71.0</ele><time>2026-04-04T01:12:59Z</time></trkpt><trkpt lat="14.365826095403161" lon="120.98164702758702"><ele>71.0</ele><time>2026-04-04T01:13:00Z</time></trkpt><trkpt lat="14.365714624368175" lon="120.98164847948799"><ele>71.0</ele><time>2026-04-04T01:13:01Z</time></trkpt><trkpt lat="14.365596652262223" lon="120.98164822206792"><ele>71.0</ele><time>2026-04-04T01:13:02Z</time></trkpt><trkpt lat="14.36548361793171" lon="120.98164834501169"><ele>71.0</ele><time>2026-04-04T01:13:03Z</time></trkpt><trkpt lat="14.365383691995197" lon="120.9816456237516"><ele>71.0</ele><time>2026-04-04T01:13:04Z</time></trkpt><trkpt lat="14.365286920460921" lon="120.9816460154107"><ele>71.0</ele><time>2026-04-04T01:13:05Z</time></trkpt><trkpt lat="14.365182387621703" lon="120.9816483311949"><ele>71.0</ele><time>2026-04-04T01:13:06Z</time></trkpt><trkpt lat="14.365075607208508" lon="120.98164843657513"><ele>71.0</ele><time>2026-04-04T01:13:07Z</time></trkpt><trkpt lat="14.364962453787216" lon="120.98164481755465"><ele>71.0</ele><time>2026-04-04T01:13:08Z</time></trkpt><trkpt lat="14.364845296452064" lon="120.98163790229314"><ele>71.0</ele><time>2026-04-04T01:13:09Z</time></trkpt><trkpt lat="14.364720339457875" lon="120.98163778729753"><ele>71.75</ele><time>2026-04-04T01:13:10Z</time></trkpt><trkpt lat="14.36460167496152" lon="120.98163910854959"><ele>72.5</ele><time>2026-04-04T01:13:11Z</time></trkpt><trkpt lat="14.364483780392275" lon="120.98163829097238"><ele>73.25</ele><time>2026-04-04T01:13:12Z</time></trkpt><trkpt lat="14.364356786917984" lon="120.98164076541323"><ele>74.0</ele><time>2026-04-04T01:13:13Z</time></trkpt><trkpt lat="14.364239790524007" lon="120.98163548324418"><ele>74.0</ele><time>2026-04-04T01:13:14Z</time></trkpt><trkpt lat="14.364117297030553" lon="120.98163493921753"><ele>74.0</ele><time>2026-04-04T01:13:15Z</time></trkpt><trkpt lat="14.363994582937524" lon="120.98163343739424"><ele>74.0</ele><time>2026-04-04T01:13:16Z</time></trkpt><trkpt lat="14.36387290530315" lon="120.9816382763837"><ele>74.0</ele><time>2026-04-04T01:13:17Z</time></trkpt><trkpt lat="14.36373851747009" lon="120.98165278238058"><ele>73.5</ele><time>2026-04-04T01:13:18Z</time></trkpt><trkpt lat="14.36359849154598" lon="120.98163684386752"><ele>73.0</ele><time>2026-04-04T01:13:19Z</time></trkpt><trkpt lat="14.363467686001112" lon="120.98163744844433"><ele>72.5</ele><time>2026-04-04T01:13:20Z</time></trkpt><trkpt lat="14.363333047624483" lon="120.9816374484449"><ele>72.0</ele><time>2026-04-04T01:13:21Z</time></trkpt><trkpt lat="14.363205778655853" lon="120.98163723200436"><ele>72.0</ele><time>2026-04-04T01:13:22Z</time></trkpt><trkpt lat="14.363080093856597" lon="120.9816365547189"><ele>72.0</ele><time>2026-04-04T01:13:23Z</time></trkpt><trkpt lat="14.362961590484776" lon="120.98163604844513"><ele>72.0</ele><time>2026-04-04T01:13:24Z</time></trkpt><trkpt lat="14.36283674985578" lon="120.9816362428126"><ele>72.0</ele><time>2026-04-04T01:13:25Z</time></trkpt><trkpt lat="14.362714360721496" lon="120.98163944361359"><ele>72.5</ele><time>2026-04-04T01:13:26Z</time></trkpt><trkpt lat="14.362591433077688" lon="120.98165904781399"><ele>73.0</ele><time>2026-04-04T01:13:27Z</time></trkpt><trkpt lat="14.362466122575546" lon="120.98164626760847"><ele>73.5</ele><time>2026-04-04T01:13:28Z</time></trkpt><trkpt lat="14.362349755330454" lon="120.98165756829479"><ele>74.0</ele><time>2026-04-04T01:13:29Z</time></trkpt><trkpt lat="14.362230775957583" lon="120.98165610904955"><ele>73.75</ele><time>2026-04-04T01:13:30Z</time></trkpt><trkpt lat="14.362117780810175" lon="120.9816566384681"><ele>73.5</ele><time>2026-04-04T01:13:31Z</time></trkpt><trkpt lat="14.362002921702022" lon="120.98166032165965"><ele>73.25</ele><time>2026-04-04T01:13:32Z</time></trkpt><trkpt lat="14.361883232106928" lon="120.98166089553594"><ele>73.0</ele><time>2026-04-04T01:13:33Z</time></trkpt><trkpt lat="14.361765161198225" lon="120.98166359679172"><ele>73.0</ele><time>2026-04-04T01:13:34Z</time></trkpt><trkpt lat="14.361644030596484" lon="120.98166440834217"><ele>73.0</ele><time>2026-04-04T01:13:35Z</time></trkpt><trkpt lat="14.361519284340366" lon="120.98166449882446"><ele>73.0</ele><time>2026-04-04T01:13:36Z</time></trkpt><trkpt lat="14.361385862332334" lon="120.98167021861313"><ele>73.0</ele><time>2026-04-04T01:13:37Z</time></trkpt><trkpt lat="14.361256990258958" lon="120.98167351179917"><ele>73.0</ele><time>2026-04-04T01:13:38Z</time></trkpt><trkpt lat="14.361121512754039" lon="120.98167356163701"><ele>73.0</ele><time>2026-04-04T01:13:39Z</time></trkpt><trkpt lat="14.360986503871942" lon="120.98167243435505"><ele>73.0</ele><time>2026-04-04T01:13:40Z</time></trkpt><trkpt lat="14.360849553039637" lon="120.98167471366354"><ele>73.0</ele><time>2026-04-04T01:13:41Z</time></trkpt><trkpt lat="14.36071204089995" lon="120.98167466470665"><ele>73.0</ele><time>2026-04-04T01:13:42Z</time></trkpt><trkpt lat="14.360575999411939" lon="120.98167660781084"><ele>73.0</ele><time>2026-04-04T01:13:43Z</time></trkpt><trkpt lat="14.36043928284422" lon="120.98167750758923"><ele>73.0</ele><time>2026-04-04T01:13:44Z</time></trkpt><trkpt lat="14.360302444986319" lon="120.98167749597253"><ele>73.0</ele><time>2026-04-04T01:13:45Z</time></trkpt><trkpt lat="14.36016703210429" lon="120.98167820589069"><ele>73.0</ele><time>2026-04-04T01:13:46Z</time></trkpt><trkpt lat="14.360028917997441" lon="120.98167881881314"><ele>73.0</ele><time>2026-04-04T01:13:47Z</time></trkpt><trkpt lat="14.359889246603563" lon="120.98167731246758"><ele>73.0</ele><time>2026-04-04T01:13:48Z</time></trkpt><trkpt lat="14.359748910404383" lon="120.98167715338444"><ele>73.0</ele><time>2026-04-04T01:13:49Z</time></trkpt><trkpt lat="14.359612833770246" lon="120.98167790949816"><ele>73.75</ele><time>2026-04-04T01:13:50Z</time></trkpt><trkpt lat="14.359486027651174" lon="120.98167930900186"><ele>74.5</ele><time>2026-04-04T01:13:51Z</time></trkpt><trkpt lat="14.359363795807587" lon="120.98167754110453"><ele>75.25</ele><time>2026-04-04T01:13:52Z</time></trkpt><trkpt lat="14.359242851156978" lon="120.98167629521649"><ele>76.0</ele><time>2026-04-04T01:13:53Z</time></trkpt><trkpt lat="14.359119057442598" lon="120.98167432128982"><ele>76.0</ele><time>2026-04-04T01:13:54Z</time></trkpt><trkpt lat="14.358992376074635" lon="120.98167398009798"><ele>76.0</ele><time>2026-04-04T01:13:55Z</time></trkpt><trkpt lat="14.358864386203722" lon="120.98167665491893"><ele>76.0</ele><time>2026-04-04T01:13:56Z</time></trkpt><trkpt lat="14.358733485783848" lon="120.98167633734155"><ele>76.0</ele><time>2026-04-04T01:13:57Z</time></trkpt><trkpt lat="14.358604540693706" lon="120.98167571870692"><ele>75.75</ele><time>2026-04-04T01:13:58Z</time></trkpt><trkpt lat="14.358474378463558" lon="120.98167364075977"><ele>75.5</ele><time>2026-04-04T01:13:59Z</time></trkpt><trkpt lat="14.35834618360396" lon="120.98167138183373"><ele>75.25</ele><time>2026-04-04T01:14:00Z</time></trkpt><trkpt lat="14.358226662962906" lon="120.98166807348802"><ele>75.0</ele><time>2026-04-04T01:14:01Z</time></trkpt><trkpt lat="14.358123477793601" lon="120.98166794617025"><ele>75.0</ele><time>2026-04-04T01:14:02Z</time></trkpt><trkpt lat="14.358043006705323" lon="120.98166752251609"><ele>75.0</ele><time>2026-04-04T01:14:03Z</time></trkpt><trkpt lat="14.357928278063683" lon="120.98166168276958"><ele>75.0</ele><time>2026-04-04T01:14:05Z</time></trkpt><trkpt lat="14.35786334547399" lon="120.98165900779401"><ele>75.0</ele><time>2026-04-04T01:14:06Z</time></trkpt><trkpt lat="14.357798454299989" lon="120.9816533653906"><ele>75.0</ele><time>2026-04-04T01:14:07Z</time></trkpt><trkpt lat="14.357729512603798" lon="120.9816470395123"><ele>75.0</ele><time>2026-04-04T01:14:08Z</time></trkpt><trkpt lat="14.357651635871909" lon="120.98163960932008"><ele>75.4</ele><time>2026-04-04T01:14:09Z</time></trkpt><trkpt lat="14.357568122489477" lon="120.98163247022933"><ele>75.8</ele><time>2026-04-04T01:14:10Z</time></trkpt><trkpt lat="14.357482343984882" lon="120.9816263513764"><ele>76.2</ele><time>2026-04-04T01:14:11Z</time></trkpt><trkpt lat="14.357392409368844" lon="120.98161919527354"><ele>76.6</ele><time>2026-04-04T01:14:12Z</time></trkpt><trkpt lat="14.357297187944157" lon="120.98160801175638"><ele>77.0</ele><time>2026-04-04T01:14:13Z</time></trkpt><trkpt lat="14.357194913873471" lon="120.98159731987053"><ele>77.4</ele><time>2026-04-04T01:14:14Z</time></trkpt><trkpt lat="14.357094949839249" lon="120.981589198693"><ele>77.80000000000001</ele><time>2026-04-04T01:14:15Z</time></trkpt><trkpt lat="14.3569894665432" lon="120.98157777862379"><ele>78.2</ele><time>2026-04-04T01:14:16Z</time></trkpt><trkpt lat="14.356883021156452" lon="120.98156435098672"><ele>78.60000000000001</ele><time>2026-04-04T01:14:17Z</time></trkpt><trkpt lat="14.356778677951285" lon="120.9815543163802"><ele>79.0</ele><time>2026-04-04T01:14:18Z</time></trkpt><trkpt lat="14.356676451271843" lon="120.98154205262352"><ele>79.0</ele><time>2026-04-04T01:14:19Z</time></trkpt><trkpt lat="14.356573326921518" lon="120.98153186053217"><ele>79.0</ele><time>2026-04-04T01:14:20Z</time></trkpt><trkpt lat="14.356470375588861" lon="120.98152035267687"><ele>79.0</ele><time>2026-04-04T01:14:21Z</time></trkpt><trkpt lat="14.356369098543082" lon="120.98150798664173"><ele>79.0</ele><time>2026-04-04T01:14:22Z</time></trkpt><trkpt lat="14.356267799032901" lon="120.98149699264742"><ele>79.0</ele><time>2026-04-04T01:14:23Z</time></trkpt><trkpt lat="14.356164135860794" lon="120.98148729347618"><ele>79.75</ele><time>2026-04-04T01:14:24Z</time></trkpt><trkpt lat="14.356060305657918" lon="120.98147696077454"><ele>80.5</ele><time>2026-04-04T01:14:25Z</time></trkpt><trkpt lat="14.355946954270498" lon="120.98146506500765"><ele>81.25</ele><time>2026-04-04T01:14:26Z</time></trkpt><trkpt lat="14.355833648659987" lon="120.98145262687554"><ele>82.0</ele><time>2026-04-04T01:14:27Z</time></trkpt><trkpt lat="14.355714607416372" lon="120.9814417497116"><ele>82.0</ele><time>2026-04-04T01:14:28Z</time></trkpt><trkpt lat="14.355598098516504" lon="120.9814305571178"><ele>82.0</ele><time>2026-04-04T01:14:29Z</time></trkpt><trkpt lat="14.35548766969304" lon="120.98141899447381"><ele>82.0</ele><time>2026-04-04T01:14:30Z</time></trkpt><trkpt lat="14.355380420037179" lon="120.98140742568243"><ele>82.0</ele><time>2026-04-04T01:14:31Z</time></trkpt><trkpt lat="14.355271063241904" lon="120.98139393274533"><ele>82.0</ele><time>2026-04-04T01:14:32Z</time></trkpt><trkpt lat="14.355167290956986" lon="120.981377661525"><ele>82.39999999999999</ele><time>2026-04-04T01:14:33Z</time></trkpt><trkpt lat="14.355066312470393" lon="120.98136562818742"><ele>82.8</ele><time>2026-04-04T01:14:34Z</time></trkpt><trkpt lat="14.354978373535467" lon="120.98135630859915"><ele>83.2</ele><time>2026-04-04T01:14:35Z</time></trkpt><trkpt lat="14.354893189123775" lon="120.98135063440422"><ele>83.6</ele><time>2026-04-04T01:14:36Z</time></trkpt><trkpt lat="14.35482509372302" lon="120.98134818148323"><ele>84.0</ele><time>2026-04-04T01:14:37Z</time></trkpt><trkpt lat="14.35471671567638" lon="120.9813370145797"><ele>83.71428571428571</ele><time>2026-04-04T01:14:39Z</time></trkpt><trkpt lat="14.354647966598549" lon="120.9813268954222"><ele>83.42857142857143</ele><time>2026-04-04T01:14:41Z</time></trkpt><trkpt lat="14.354584200975117" lon="120.98131127922069"><ele>83.14285714285714</ele><time>2026-04-04T01:14:45Z</time></trkpt><trkpt lat="14.354500231563765" lon="120.98129448597787"><ele>82.85714285714286</ele><time>2026-04-04T01:14:52Z</time></trkpt><trkpt lat="14.354434444832625" lon="120.98128401633667"><ele>82.57142857142857</ele><time>2026-04-04T01:14:57Z</time></trkpt><trkpt lat="14.354364342837302" lon="120.98127120270618"><ele>82.28571428571428</ele><time>2026-04-04T01:15:02Z</time></trkpt><trkpt lat="14.354290152292737" lon="120.9812651003983"><ele>82.0</ele><time>2026-04-04T01:15:04Z</time></trkpt><trkpt lat="14.354185235810116" lon="120.98125770496539"><ele>81.99999999999999</ele><time>2026-04-04T01:15:06.001Z</time></trkpt><trkpt lat="14.35412227153912" lon="120.98125232698966"><ele>82.0</ele><time>2026-04-04T01:15:07.001Z</time></trkpt><trkpt lat="14.35405361706648" lon="120.98124644968962"><ele>82.0</ele><time>2026-04-04T01:15:08.001Z</time></trkpt><trkpt lat="14.353980167463702" lon="120.98124137447083"><ele>82.0</ele><time>2026-04-04T01:15:09.001Z</time></trkpt><trkpt lat="14.353901559382148" lon="120.98123667566274"><ele>82.0</ele><time>2026-04-04T01:15:10.001Z</time></trkpt><trkpt lat="14.353828074962195" lon="120.98123087278067"><ele>81.99999999999999</ele><time>2026-04-04T01:15:11.001Z</time></trkpt><trkpt lat="14.353758995685649" lon="120.98122206745902"><ele>82.0</ele><time>2026-04-04T01:15:12.001Z</time></trkpt><trkpt lat="14.353655479475272" lon="120.98120861658246"><ele>81.39999999999999</ele><time>2026-04-04T01:15:14.001Z</time></trkpt><trkpt lat="14.35356375509499" lon="120.98119806543285"><ele>80.8</ele><time>2026-04-04T01:15:16.001Z</time></trkpt><trkpt lat="14.353440769659505" lon="120.9811880526899"><ele>80.2</ele><time>2026-04-04T01:15:18.001Z</time></trkpt><trkpt lat="14.35337482407832" lon="120.98117932776253"><ele>79.6</ele><time>2026-04-04T01:15:19.001Z</time></trkpt><trkpt lat="14.353260989033442" lon="120.98116628852935"><ele>79.0</ele><time>2026-04-04T01:15:21.001Z</time></trkpt><trkpt lat="14.353167509390833" lon="120.98115837027407"><ele>79.0</ele><time>2026-04-04T01:15:23.001Z</time></trkpt><trkpt lat="14.353068423196369" lon="120.98115329392824"><ele>79.0</ele><time>2026-04-04T01:15:25.001Z</time></trkpt><trkpt lat="14.352953166079121" lon="120.98112596515911"><ele>79.0</ele><time>2026-04-04T01:15:27.001Z</time></trkpt><trkpt lat="14.352878859390277" lon="120.98113400593085"><ele>79.0</ele><time>2026-04-04T01:15:28.001Z</time></trkpt><trkpt lat="14.352803782408355" lon="120.98112527994402"><ele>79.0</ele><time>2026-04-04T01:15:29.001Z</time></trkpt><trkpt lat="14.352722803013657" lon="120.98111573911706"><ele>79.0</ele><time>2026-04-04T01:15:30.001Z</time></trkpt><trkpt lat="14.352635632047228" lon="120.98110317682726"><ele>77.8</ele><time>2026-04-04T01:15:31.001Z</time></trkpt><trkpt lat="14.352545207478224" lon="120.98109242104765"><ele>76.60000000000001</ele><time>2026-04-04T01:15:32.001Z</time></trkpt><trkpt lat="14.352453308961985" lon="120.98108404819604"><ele>75.4</ele><time>2026-04-04T01:15:33.001Z</time></trkpt><trkpt lat="14.352354602863253" lon="120.98107367705623"><ele>74.2</ele><time>2026-04-04T01:15:34.001Z</time></trkpt><trkpt lat="14.352258261985204" lon="120.98106281532002"><ele>73.0</ele><time>2026-04-04T01:15:35.001Z</time></trkpt><trkpt lat="14.352158152439209" lon="120.9810520424449"><ele>73.0</ele><time>2026-04-04T01:15:36.001Z</time></trkpt><trkpt lat="14.352057740650624" lon="120.98104551415607"><ele>73.0</ele><time>2026-04-04T01:15:37.001Z</time></trkpt><trkpt lat="14.351952862478885" lon="120.98103618686861"><ele>73.0</ele><time>2026-04-04T01:15:38.001Z</time></trkpt><trkpt lat="14.35184814215894" lon="120.98102062493227"><ele>73.0</ele><time>2026-04-04T01:15:39Z</time></trkpt><trkpt lat="14.351738092919291" lon="120.98100548617509"><ele>73.0</ele><time>2026-04-04T01:15:40Z</time></trkpt><trkpt lat="14.351633795846864" lon="120.9809943260026"><ele>73.0</ele><time>2026-04-04T01:15:41Z</time></trkpt><trkpt lat="14.351523668039395" lon="120.98098428888927"><ele>73.0</ele><time>2026-04-04T01:15:42Z</time></trkpt><trkpt lat="14.35141291133874" lon="120.9809743117276"><ele>73.0</ele><time>2026-04-04T01:15:43Z</time></trkpt><trkpt lat="14.351308935825836" lon="120.98096070572107"><ele>73.0</ele><time>2026-04-04T01:15:44Z</time></trkpt><trkpt lat="14.351200801435205" lon="120.98094528676374"><ele>73.0</ele><time>2026-04-04T01:15:45Z</time></trkpt><trkpt lat="14.351099891559814" lon="120.98093419200019"><ele>74.0</ele><time>2026-04-04T01:15:46Z</time></trkpt><trkpt lat="14.350988849924187" lon="120.98092578586366"><ele>75.0</ele><time>2026-04-04T01:15:47Z</time></trkpt><trkpt lat="14.35087970531199" lon="120.98091388576441"><ele>76.0</ele><time>2026-04-04T01:15:48Z</time></trkpt><trkpt lat="14.35076968880255" lon="120.98090097698322"><ele>77.0</ele><time>2026-04-04T01:15:49Z</time></trkpt><trkpt lat="14.3506594234212" lon="120.9808888089098"><ele>78.0</ele><time>2026-04-04T01:15:50Z</time></trkpt><trkpt lat="14.350549392813521" lon="120.98087929878378"><ele>79.0</ele><time>2026-04-04T01:15:51Z</time></trkpt><trkpt lat="14.350438103126876" lon="120.98086766473746"><ele>80.0</ele><time>2026-04-04T01:15:52Z</time></trkpt><trkpt lat="14.350329889716704" lon="120.9808581140372"><ele>81.0</ele><time>2026-04-04T01:15:53Z</time></trkpt><trkpt lat="14.350216198566901" lon="120.98085163264038"><ele>82.0</ele><time>2026-04-04T01:15:54Z</time></trkpt><trkpt lat="14.350107125549725" lon="120.9808466605079"><ele>83.0</ele><time>2026-04-04T01:15:55Z</time></trkpt><trkpt lat="14.349998401510016" lon="120.98084698492872"><ele>83.0</ele><time>2026-04-04T01:15:56Z</time></trkpt><trkpt lat="14.349888899444052" lon="120.98085468133651"><ele>83.0</ele><time>2026-04-04T01:15:57Z</time></trkpt><trkpt lat="14.349779886700885" lon="120.98086641769005"><ele>83.0</ele><time>2026-04-04T01:15:58Z</time></trkpt><trkpt lat="14.349668377736428" lon="120.98088138129678"><ele>83.0</ele><time>2026-04-04T01:15:59Z</time></trkpt><trkpt lat="14.349564055746134" lon="120.98089683324298"><ele>83.0</ele><time>2026-04-04T01:16:00Z</time></trkpt><trkpt lat="14.349468004957025" lon="120.98091251761278"><ele>83.80000000000001</ele><time>2026-04-04T01:16:01Z</time></trkpt><trkpt lat="14.349371878235576" lon="120.98092977886412"><ele>84.6</ele><time>2026-04-04T01:16:02Z</time></trkpt><trkpt lat="14.349282419699916" lon="120.98094411052007"><ele>85.4</ele><time>2026-04-04T01:16:03Z</time></trkpt><trkpt lat="14.349204704719085" lon="120.9809607586176"><ele>86.19999999999999</ele><time>2026-04-04T01:16:04Z</time></trkpt><trkpt lat="14.349089938841308" lon="120.9809834116454"><ele>87.0</ele><time>2026-04-04T01:16:06Z</time></trkpt><trkpt lat="14.34902113074145" lon="120.98099866504539"><ele>87.0</ele><time>2026-04-04T01:16:07Z</time></trkpt><trkpt lat="14.348942256876189" lon="120.98101345167353"><ele>87.0</ele><time>2026-04-04T01:16:08Z</time></trkpt><trkpt lat="14.348857225964764" lon="120.98103121786126"><ele>87.0</ele><time>2026-04-04T01:16:09Z</time></trkpt><trkpt lat="14.348777033375363" lon="120.98104493356983"><ele>87.0</ele><time>2026-04-04T01:16:10Z</time></trkpt><trkpt lat="14.348705501388933" lon="120.9810598531572"><ele>87.0</ele><time>2026-04-04T01:16:11Z</time></trkpt><trkpt lat="14.348638771027273" lon="120.98107145307785"><ele>87.0</ele><time>2026-04-04T01:16:12Z</time></trkpt><trkpt lat="14.348524305218302" lon="120.98108771007838"><ele>87.0</ele><time>2026-04-04T01:16:14Z</time></trkpt><trkpt lat="14.34842382157965" lon="120.98111020825333"><ele>87.0</ele><time>2026-04-04T01:16:16Z</time></trkpt><trkpt lat="14.348316721376337" lon="120.98112984023511"><ele>87.0</ele><time>2026-04-04T01:16:18Z</time></trkpt><trkpt lat="14.348249088447483" lon="120.98114119474612"><ele>87.0</ele><time>2026-04-04T01:16:19Z</time></trkpt><trkpt lat="14.348177625424814" lon="120.9811551721135"><ele>87.0</ele><time>2026-04-04T01:16:20Z</time></trkpt><trkpt lat="14.348095778443119" lon="120.98117463295162"><ele>87.0</ele><time>2026-04-04T01:16:21Z</time></trkpt><trkpt lat="14.348006884634213" lon="120.981194282107"><ele>87.33333333333333</ele><time>2026-04-04T01:16:22Z</time></trkpt><trkpt lat="14.347920834050178" lon="120.98121409634454"><ele>87.66666666666667</ele><time>2026-04-04T01:16:23Z</time></trkpt><trkpt lat="14.347837134735505" lon="120.98123214282474"><ele>88.0</ele><time>2026-04-04T01:16:24Z</time></trkpt><trkpt lat="14.347760952742078" lon="120.98124828997996"><ele>88.33333333333334</ele><time>2026-04-04T01:16:25Z</time></trkpt><trkpt lat="14.347688158155309" lon="120.98126166929481"><ele>88.66666666666667</ele><time>2026-04-04T01:16:26Z</time></trkpt><trkpt lat="14.347611990980836" lon="120.98127385073693"><ele>89.0</ele><time>2026-04-04T01:16:27Z</time></trkpt><trkpt lat="14.347537012131381" lon="120.98128595195648"><ele>88.99999999999999</ele><time>2026-04-04T01:16:28Z</time></trkpt><trkpt lat="14.3474642113683" lon="120.9812971880938"><ele>89.0</ele><time>2026-04-04T01:16:29Z</time></trkpt><trkpt lat="14.347400224113192" lon="120.9813074547621"><ele>89.0</ele><time>2026-04-04T01:16:30Z</time></trkpt><trkpt lat="14.34733414785111" lon="120.98132517335425"><ele>89.0</ele><time>2026-04-04T01:16:31Z</time></trkpt><trkpt lat="14.347263380462568" lon="120.98134118339128"><ele>89.0</ele><time>2026-04-04T01:16:32Z</time></trkpt><trkpt lat="14.34718431873342" lon="120.98135363842515"><ele>88.99999999999999</ele><time>2026-04-04T01:16:33Z</time></trkpt><trkpt lat="14.347099554541245" lon="120.98136840210114"><ele>89.0</ele><time>2026-04-04T01:16:34Z</time></trkpt><trkpt lat="14.3470104832879" lon="120.98138617985713"><ele>89.0</ele><time>2026-04-04T01:16:35Z</time></trkpt><trkpt lat="14.346920568903212" lon="120.98140547329281"><ele>89.0</ele><time>2026-04-04T01:16:36Z</time></trkpt><trkpt lat="14.346842100313475" lon="120.98142222202563"><ele>89.0</ele><time>2026-04-04T01:16:37Z</time></trkpt><trkpt lat="14.346777115764473" lon="120.9814372860247"><ele>89.0</ele><time>2026-04-04T01:16:38Z</time></trkpt><trkpt lat="14.346676413308693" lon="120.98146723483944"><ele>89.0</ele><time>2026-04-04T01:16:40Z</time></trkpt><trkpt lat="14.346568589005626" lon="120.98147798435069"><ele>89.0</ele><time>2026-04-04T01:16:42.001Z</time></trkpt><trkpt lat="14.346501618652615" lon="120.98149051813165"><ele>89.0</ele><time>2026-04-04T01:16:43.001Z</time></trkpt><trkpt lat="14.346431190523388" lon="120.98152101115433"><ele>89.0</ele><time>2026-04-04T01:16:44.001Z</time></trkpt><trkpt lat="14.346351415461145" lon="120.98153028173854"><ele>89.0</ele><time>2026-04-04T01:16:45.001Z</time></trkpt><trkpt lat="14.346268649599057" lon="120.98154413839138"><ele>89.0</ele><time>2026-04-04T01:16:46.001Z</time></trkpt><trkpt lat="14.346194443020813" lon="120.98156471736831"><ele>89.0</ele><time>2026-04-04T01:16:47.001Z</time></trkpt><trkpt lat="14.34611283448009" lon="120.98156609700317"><ele>89.0</ele><time>2026-04-04T01:16:48.001Z</time></trkpt><trkpt lat="14.34597823271715" lon="120.98159253415308"><ele>89.0</ele><time>2026-04-04T01:16:50.001Z</time></trkpt><trkpt lat="14.345901095958038" lon="120.9816076845972"><ele>89.0</ele><time>2026-04-04T01:16:51.001Z</time></trkpt><trkpt lat="14.345817377842913" lon="120.9816241276846"><ele>89.0</ele><time>2026-04-04T01:16:52.001Z</time></trkpt><trkpt lat="14.34572889332215" lon="120.98165489515246"><ele>89.0</ele><time>2026-04-04T01:16:53.001Z</time></trkpt><trkpt lat="14.34562575379936" lon="120.98166758444927"><ele>89.0</ele><time>2026-04-04T01:16:54.001Z</time></trkpt><trkpt lat="14.345515017772453" lon="120.98168780990743"><ele>89.0</ele><time>2026-04-04T01:16:55.001Z</time></trkpt><trkpt lat="14.345400883914076" lon="120.98170904662263"><ele>89.0</ele><time>2026-04-04T01:16:56.001Z</time></trkpt><trkpt lat="14.345287551354946" lon="120.98172701978535"><ele>89.0</ele><time>2026-04-04T01:16:57.001Z</time></trkpt><trkpt lat="14.345196752536465" lon="120.98174549611014"><ele>89.0</ele><time>2026-04-04T01:16:58.001Z</time></trkpt><trkpt lat="14.345092950672186" lon="120.98176601362691"><ele>89.0</ele><time>2026-04-04T01:17:00.001Z</time></trkpt><trkpt lat="14.344966521345468" lon="120.98179270549646"><ele>89.0</ele><time>2026-04-04T01:17:02.001Z</time></trkpt><trkpt lat="14.344888329365276" lon="120.98181010908607"><ele>89.0</ele><time>2026-04-04T01:17:03.001Z</time></trkpt><trkpt lat="14.344805132692464" lon="120.98183175926697"><ele>89.0</ele><time>2026-04-04T01:17:04.001Z</time></trkpt><trkpt lat="14.344715042817073" lon="120.98186269280437"><ele>89.0</ele><time>2026-04-04T01:17:05.001Z</time></trkpt><trkpt lat="14.344619064807025" lon="120.9819015889547"><ele>89.2</ele><time>2026-04-04T01:17:06.001Z</time></trkpt><trkpt lat="14.344522271324838" lon="120.98195122387612"><ele>89.4</ele><time>2026-04-04T01:17:07.001Z</time></trkpt><trkpt lat="14.34442514643594" lon="120.98200595331511"><ele>89.6</ele><time>2026-04-04T01:17:08.001Z</time></trkpt><trkpt lat="14.344327699727836" lon="120.98206109927996"><ele>89.8</ele><time>2026-04-04T01:17:09.001Z</time></trkpt><trkpt lat="14.34423686297867" lon="120.98212094101753"><ele>90.0</ele><time>2026-04-04T01:17:10.001Z</time></trkpt><trkpt lat="14.344145677888653" lon="120.98218075685304"><ele>90.0</ele><time>2026-04-04T01:17:11.001Z</time></trkpt><trkpt lat="14.344058180621138" lon="120.98224986637337"><ele>90.0</ele><time>2026-04-04T01:17:12.001Z</time></trkpt><trkpt lat="14.343977016743208" lon="120.98232601693734"><ele>90.0</ele><time>2026-04-04T01:17:13.001Z</time></trkpt><trkpt lat="14.343893422263866" lon="120.98240793385399"><ele>90.0</ele><time>2026-04-04T01:17:14.001Z</time></trkpt><trkpt lat="14.343808091589965" lon="120.98249425119072"><ele>91.0</ele><time>2026-04-04T01:17:15.001Z</time></trkpt><trkpt lat="14.34371839240426" lon="120.9825751612066"><ele>92.0</ele><time>2026-04-04T01:17:16.001Z</time></trkpt><trkpt lat="14.343625153697332" lon="120.98265850689185"><ele>93.0</ele><time>2026-04-04T01:17:17.001Z</time></trkpt><trkpt lat="14.343529571014468" lon="120.98274476884825"><ele>94.0</ele><time>2026-04-04T01:17:18.001Z</time></trkpt><trkpt lat="14.343435467274421" lon="120.98283218886058"><ele>94.0</ele><time>2026-04-04T01:17:19.001Z</time></trkpt><trkpt lat="14.34334562678723" lon="120.98291613336248"><ele>94.0</ele><time>2026-04-04T01:17:20.001Z</time></trkpt><trkpt lat="14.343253507733163" lon="120.98300315712471"><ele>94.0</ele><time>2026-04-04T01:17:21.001Z</time></trkpt><trkpt lat="14.343158948307083" lon="120.98309050109546"><ele>94.0</ele><time>2026-04-04T01:17:22.001Z</time></trkpt><trkpt lat="14.34306200054176" lon="120.98317420434141"><ele>94.0</ele><time>2026-04-04T01:17:23.001Z</time></trkpt><trkpt lat="14.342963453152356" lon="120.98326071763336"><ele>94.0</ele><time>2026-04-04T01:17:24.001Z</time></trkpt><trkpt lat="14.342863828907095" lon="120.98335064059366"><ele>94.0</ele><time>2026-04-04T01:17:25.001Z</time></trkpt><trkpt lat="14.3427665313667" lon="120.98343987677475"><ele>94.0</ele><time>2026-04-04T01:17:26.001Z</time></trkpt><trkpt lat="14.342669015767596" lon="120.98353025626037"><ele>94.0</ele><time>2026-04-04T01:17:27.001Z</time></trkpt><trkpt lat="14.342567526957293" lon="120.98361161442412"><ele>94.0</ele><time>2026-04-04T01:17:28.001Z</time></trkpt><trkpt lat="14.342457819199623" lon="120.98367590246039"><ele>94.0</ele><time>2026-04-04T01:17:29.001Z</time></trkpt><trkpt lat="14.34234017557003" lon="120.98372793740555"><ele>94.0</ele><time>2026-04-04T01:17:30.001Z</time></trkpt><trkpt lat="14.342219339563307" lon="120.98376504220955"><ele>94.0</ele><time>2026-04-04T01:17:31.001Z</time></trkpt><trkpt lat="14.342090384111637" lon="120.98376665454643"><ele>94.0</ele><time>2026-04-04T01:17:32.001Z</time></trkpt><trkpt lat="14.341957673673766" lon="120.98380574655737"><ele>94.0</ele><time>2026-04-04T01:17:33.001Z</time></trkpt><trkpt lat="14.341823998111295" lon="120.98382006034117"><ele>94.0</ele><time>2026-04-04T01:17:34.001Z</time></trkpt><trkpt lat="14.341691489208005" lon="120.98384187363983"><ele>94.0</ele><time>2026-04-04T01:17:35.001Z</time></trkpt><trkpt lat="14.341566144822774" lon="120.98386705656746"><ele>94.0</ele><time>2026-04-04T01:17:36.001Z</time></trkpt><trkpt lat="14.341436214217287" lon="120.98390184957988"><ele>94.0</ele><time>2026-04-04T01:17:37.001Z</time></trkpt><trkpt lat="14.341308798027494" lon="120.98393708165392"><ele>94.0</ele><time>2026-04-04T01:17:38.001Z</time></trkpt><trkpt lat="14.34118508563353" lon="120.9839810759492"><ele>94.5</ele><time>2026-04-04T01:17:39.001Z</time></trkpt><trkpt lat="14.341058581604399" lon="120.98402959702335"><ele>95.0</ele><time>2026-04-04T01:17:40.001Z</time></trkpt><trkpt lat="14.340953555386001" lon="120.9840808923006"><ele>95.5</ele><time>2026-04-04T01:17:41.001Z</time></trkpt><trkpt lat="14.340846778624606" lon="120.98414381517901"><ele>96.0</ele><time>2026-04-04T01:17:42.001Z</time></trkpt><trkpt lat="14.340740922348818" lon="120.98421825592857"><ele>96.0</ele><time>2026-04-04T01:17:43.001Z</time></trkpt><trkpt lat="14.340641707290695" lon="120.98428950671513"><ele>96.0</ele><time>2026-04-04T01:17:44.001Z</time></trkpt><trkpt lat="14.340541848308362" lon="120.98437136042008"><ele>96.0</ele><time>2026-04-04T01:17:45Z</time></trkpt><trkpt lat="14.340450218736946" lon="120.98445636255259"><ele>96.0</ele><time>2026-04-04T01:17:46Z</time></trkpt><trkpt lat="14.340375655050003" lon="120.98454054456795"><ele>96.8</ele><time>2026-04-04T01:17:47Z</time></trkpt><trkpt lat="14.340304529715496" lon="120.98462230602604"><ele>97.6</ele><time>2026-04-04T01:17:48Z</time></trkpt><trkpt lat="14.340233629369797" lon="120.98470781350609"><ele>98.4</ele><time>2026-04-04T01:17:49Z</time></trkpt><trkpt lat="14.3401598163117" lon="120.98478758013049"><ele>99.2</ele><time>2026-04-04T01:17:50Z</time></trkpt><trkpt lat="14.340089837041429" lon="120.98486545635554"><ele>100.0</ele><time>2026-04-04T01:17:51Z</time></trkpt><trkpt lat="14.340014818725992" lon="120.98494333607096"><ele>100.2</ele><time>2026-04-04T01:17:52Z</time></trkpt><trkpt lat="14.339941558600154" lon="120.98501906266151"><ele>100.4</ele><time>2026-04-04T01:17:53Z</time></trkpt><trkpt lat="14.339860852686591" lon="120.98509004717874"><ele>100.6</ele><time>2026-04-04T01:17:54Z</time></trkpt><trkpt lat="14.339776120225102" lon="120.98515527280904"><ele>100.8</ele><time>2026-04-04T01:17:55Z</time></trkpt><trkpt lat="14.339684251216148" lon="120.98521893713283"><ele>101.0</ele><time>2026-04-04T01:17:56Z</time></trkpt><trkpt lat="14.339580268346587" lon="120.98527696491078"><ele>101.0</ele><time>2026-04-04T01:17:57Z</time></trkpt><trkpt lat="14.339468702201108" lon="120.98532650799275"><ele>101.0</ele><time>2026-04-04T01:17:58Z</time></trkpt><trkpt lat="14.339346692433683" lon="120.98536710920834"><ele>101.0</ele><time>2026-04-04T01:17:59Z</time></trkpt><trkpt lat="14.339224957116667" lon="120.98540475149296"><ele>101.0</ele><time>2026-04-04T01:18:00Z</time></trkpt><trkpt lat="14.339094953653168" lon="120.98544781295979"><ele>101.0</ele><time>2026-04-04T01:18:01Z</time></trkpt><trkpt lat="14.338970508741149" lon="120.98548649799302"><ele>101.0</ele><time>2026-04-04T01:18:02Z</time></trkpt><trkpt lat="14.338838978404155" lon="120.98552537789381"><ele>101.0</ele><time>2026-04-04T01:18:03Z</time></trkpt><trkpt lat="14.338713866178852" lon="120.9855598141207"><ele>101.0</ele><time>2026-04-04T01:18:04Z</time></trkpt><trkpt lat="14.338586303715314" lon="120.98559770924102"><ele>101.25</ele><time>2026-04-04T01:18:05Z</time></trkpt><trkpt lat="14.338461979670551" lon="120.98563133423363"><ele>101.5</ele><time>2026-04-04T01:18:06Z</time></trkpt><trkpt lat="14.338346833225748" lon="120.98565896062706"><ele>101.75</ele><time>2026-04-04T01:18:07Z</time></trkpt><trkpt lat="14.338237232742626" lon="120.98568925155237"><ele>102.0</ele><time>2026-04-04T01:18:08Z</time></trkpt><trkpt lat="14.338132661788128" lon="120.98572041032166"><ele>102.16666666666667</ele><time>2026-04-04T01:18:09Z</time></trkpt><trkpt lat="14.338048485669907" lon="120.98574047436266"><ele>102.33333333333334</ele><time>2026-04-04T01:18:10Z</time></trkpt><trkpt lat="14.3379722695469" lon="120.98575539115107"><ele>102.5</ele><time>2026-04-04T01:18:11Z</time></trkpt><trkpt lat="14.337903374114953" lon="120.98577016585531"><ele>102.66666666666667</ele><time>2026-04-04T01:18:12Z</time></trkpt><trkpt lat="14.337825606800356" lon="120.98578773004898"><ele>102.83333333333334</ele><time>2026-04-04T01:18:13Z</time></trkpt><trkpt lat="14.337747484643522" lon="120.98580622950804"><ele>103.0</ele><time>2026-04-04T01:18:14Z</time></trkpt><trkpt lat="14.337654147427363" lon="120.98582247342178"><ele>103.0</ele><time>2026-04-04T01:18:15Z</time></trkpt><trkpt lat="14.337559578222113" lon="120.98583868124933"><ele>103.0</ele><time>2026-04-04T01:18:16Z</time></trkpt><trkpt lat="14.337456797545917" lon="120.98585513043605"><ele>103.0</ele><time>2026-04-04T01:18:17Z</time></trkpt><trkpt lat="14.337349735508655" lon="120.98587184052322"><ele>103.0</ele><time>2026-04-04T01:18:18Z</time></trkpt><trkpt lat="14.337243773271561" lon="120.98588650517249"><ele>103.0</ele><time>2026-04-04T01:18:19Z</time></trkpt><trkpt lat="14.337143208618999" lon="120.98589873044041"><ele>103.60000000000001</ele><time>2026-04-04T01:18:20Z</time></trkpt><trkpt lat="14.337046727531389" lon="120.98590574985856"><ele>104.2</ele><time>2026-04-04T01:18:21Z</time></trkpt><trkpt lat="14.33694554199796" lon="120.98591082167971"><ele>104.8</ele><time>2026-04-04T01:18:22Z</time></trkpt><trkpt lat="14.33684433349627" lon="120.9859132053369"><ele>105.4</ele><time>2026-04-04T01:18:23Z</time></trkpt><trkpt lat="14.336742777382884" lon="120.98591878265087"><ele>106.0</ele><time>2026-04-04T01:18:24Z</time></trkpt><trkpt lat="14.33663684684971" lon="120.98592159725668"><ele>106.0</ele><time>2026-04-04T01:18:25Z</time></trkpt><trkpt lat="14.336528567646374" lon="120.98592586576494"><ele>106.0</ele><time>2026-04-04T01:18:26Z</time></trkpt><trkpt lat="14.336416196981697" lon="120.98593201792666"><ele>106.0</ele><time>2026-04-04T01:18:27Z</time></trkpt><trkpt lat="14.33630467071808" lon="120.98593760562127"><ele>106.0</ele><time>2026-04-04T01:18:28Z</time></trkpt><trkpt lat="14.33618718186056" lon="120.98592412633128"><ele>106.0</ele><time>2026-04-04T01:18:29Z</time></trkpt><trkpt lat="14.336064780887595" lon="120.98594385377382"><ele>106.0</ele><time>2026-04-04T01:18:30Z</time></trkpt><trkpt lat="14.335944478921627" lon="120.98594302325586"><ele>106.0</ele><time>2026-04-04T01:18:31Z</time></trkpt><trkpt lat="14.335816400083036" lon="120.98594249523914"><ele>106.0</ele><time>2026-04-04T01:18:32Z</time></trkpt><trkpt lat="14.335692569919935" lon="120.98594500557368"><ele>106.0</ele><time>2026-04-04T01:18:33.001Z</time></trkpt><trkpt lat="14.33557650969923" lon="120.98594750199118"><ele>106.0</ele><time>2026-04-04T01:18:34.001Z</time></trkpt><trkpt lat="14.335465266420934" lon="120.9859511387104"><ele>106.0</ele><time>2026-04-04T01:18:35.001Z</time></trkpt><trkpt lat="14.335363928280117" lon="120.98595682283435"><ele>106.0</ele><time>2026-04-04T01:18:36.001Z</time></trkpt><trkpt lat="14.335275767377826" lon="120.98596009743763"><ele>106.0</ele><time>2026-04-04T01:18:37.001Z</time></trkpt><trkpt lat="14.335191314295127" lon="120.98596244254138"><ele>106.0</ele><time>2026-04-04T01:18:38.001Z</time></trkpt><trkpt lat="14.335091005480747" lon="120.98596573508453"><ele>106.0</ele><time>2026-04-04T01:18:39.001Z</time></trkpt><trkpt lat="14.334984254232161" lon="120.98597108157234"><ele>106.0</ele><time>2026-04-04T01:18:40.001Z</time></trkpt><trkpt lat="14.334870569508983" lon="120.98598053411762"><ele>106.0</ele><time>2026-04-04T01:18:41.001Z</time></trkpt><trkpt lat="14.33474806355483" lon="120.9860001701418"><ele>106.0</ele><time>2026-04-04T01:18:42.001Z</time></trkpt><trkpt lat="14.33462565216155" lon="120.98602612652587"><ele>106.0</ele><time>2026-04-04T01:18:43.001Z</time></trkpt><trkpt lat="14.334497452891412" lon="120.98606278287792"><ele>106.0</ele><time>2026-04-04T01:18:44.001Z</time></trkpt><trkpt lat="14.334373156520169" lon="120.98611259016485"><ele>106.0</ele><time>2026-04-04T01:18:45.001Z</time></trkpt><trkpt lat="14.334251236202686" lon="120.986174952024"><ele>106.0</ele><time>2026-04-04T01:18:46.001Z</time></trkpt><trkpt lat="14.33413117604446" lon="120.98624362659544"><ele>106.0</ele><time>2026-04-04T01:18:47.001Z</time></trkpt><trkpt lat="14.334017729097495" lon="120.98631529610125"><ele>106.0</ele><time>2026-04-04T01:18:48.001Z</time></trkpt><trkpt lat="14.333912258631372" lon="120.9863856877632"><ele>106.0</ele><time>2026-04-04T01:18:49.001Z</time></trkpt><trkpt lat="14.333807074626765" lon="120.98645886575527"><ele>106.0</ele><time>2026-04-04T01:18:50.001Z</time></trkpt><trkpt lat="14.333698636484295" lon="120.986526694693"><ele>107.0</ele><time>2026-04-04T01:18:51.001Z</time></trkpt><trkpt lat="14.333593663953717" lon="120.9865935006338"><ele>108.0</ele><time>2026-04-04T01:18:52.001Z</time></trkpt><trkpt lat="14.333495629297706" lon="120.98666074145092"><ele>109.0</ele><time>2026-04-04T01:18:53.001Z</time></trkpt><trkpt lat="14.333398799824181" lon="120.98672212093012"><ele>110.0</ele><time>2026-04-04T01:18:54.001Z</time></trkpt><trkpt lat="14.33329893557465" lon="120.98678637067918"><ele>110.5</ele><time>2026-04-04T01:18:55.001Z</time></trkpt><trkpt lat="14.333193174994825" lon="120.98685543480825"><ele>111.0</ele><time>2026-04-04T01:18:56.001Z</time></trkpt><trkpt lat="14.333084431232503" lon="120.98692837382185"><ele>111.5</ele><time>2026-04-04T01:18:57.001Z</time></trkpt><trkpt lat="14.332973653061119" lon="120.98700015394638"><ele>112.0</ele><time>2026-04-04T01:18:58.001Z</time></trkpt><trkpt lat="14.332858950187564" lon="120.98706844708293"><ele>112.25</ele><time>2026-04-04T01:18:59.001Z</time></trkpt><trkpt lat="14.33274162411355" lon="120.98713638312525"><ele>112.5</ele><time>2026-04-04T01:19:00.001Z</time></trkpt><trkpt lat="14.33262286112825" lon="120.98720599587459"><ele>112.75</ele><time>2026-04-04T01:19:01.001Z</time></trkpt><trkpt lat="14.332500971226478" lon="120.98727440276757"><ele>113.0</ele><time>2026-04-04T01:19:02.001Z</time></trkpt><trkpt lat="14.332377287123222" lon="120.9873426198134"><ele>113.0</ele><time>2026-04-04T01:19:03.001Z</time></trkpt><trkpt lat="14.332250043718709" lon="120.98740574511109"><ele>113.0</ele><time>2026-04-04T01:19:04.001Z</time></trkpt><trkpt lat="14.332120991491719" lon="120.98746891223178"><ele>113.0</ele><time>2026-04-04T01:19:05.001Z</time></trkpt><trkpt lat="14.331994250556775" lon="120.98752508111833"><ele>113.0</ele><time>2026-04-04T01:19:06.001Z</time></trkpt><trkpt lat="14.331867708373538" lon="120.98757614770844"><ele>112.5</ele><time>2026-04-04T01:19:07.001Z</time></trkpt><trkpt lat="14.331749996807698" lon="120.98762336359552"><ele>112.0</ele><time>2026-04-04T01:19:08.001Z</time></trkpt><trkpt lat="14.331631234879216" lon="120.9876714261975"><ele>111.5</ele><time>2026-04-04T01:19:09.001Z</time></trkpt><trkpt lat="14.33152075053172" lon="120.98771876209662"><ele>111.0</ele><time>2026-04-04T01:19:10.001Z</time></trkpt><trkpt lat="14.331409221904687" lon="120.98776316749347"><ele>111.5</ele><time>2026-04-04T01:19:11.001Z</time></trkpt><trkpt lat="14.331291693413753" lon="120.98778818418353"><ele>112.0</ele><time>2026-04-04T01:19:12.001Z</time></trkpt><trkpt lat="14.331173292666" lon="120.98783122449696"><ele>112.5</ele><time>2026-04-04T01:19:13.001Z</time></trkpt><trkpt lat="14.331046630438484" lon="120.98781370178081"><ele>113.0</ele><time>2026-04-04T01:19:14.001Z</time></trkpt><trkpt lat="14.330919436770804" lon="120.98781817058381"><ele>113.0</ele><time>2026-04-04T01:19:15.001Z</time></trkpt><trkpt lat="14.33079439428135" lon="120.98783850203448"><ele>113.0</ele><time>2026-04-04T01:19:16.001Z</time></trkpt><trkpt lat="14.330666554670804" lon="120.98783970330204"><ele>113.0</ele><time>2026-04-04T01:19:17.001Z</time></trkpt><trkpt lat="14.330541315815372" lon="120.98784343088266"><ele>113.0</ele><time>2026-04-04T01:19:18.001Z</time></trkpt><trkpt lat="14.330415295737842" lon="120.98784882619698"><ele>112.25</ele><time>2026-04-04T01:19:19.001Z</time></trkpt><trkpt lat="14.330296229713873" lon="120.98783683220893"><ele>111.5</ele><time>2026-04-04T01:19:20.001Z</time></trkpt><trkpt lat="14.330172162605997" lon="120.98783980650893"><ele>110.75</ele><time>2026-04-04T01:19:21.001Z</time></trkpt><trkpt lat="14.33006070706502" lon="120.98785741660288"><ele>110.0</ele><time>2026-04-04T01:19:22.001Z</time></trkpt><trkpt lat="14.32993114294223" lon="120.98785644722645"><ele>110.0</ele><time>2026-04-04T01:19:23.001Z</time></trkpt><trkpt lat="14.32980962366483" lon="120.98785402008902"><ele>110.0</ele><time>2026-04-04T01:19:24.001Z</time></trkpt><trkpt lat="14.329672353615036" lon="120.98786569382196"><ele>110.0</ele><time>2026-04-04T01:19:25.001Z</time></trkpt><trkpt lat="14.3295345586054" lon="120.98786603280196"><ele>110.0</ele><time>2026-04-04T01:19:26.001Z</time></trkpt><trkpt lat="14.3293942405519" lon="120.98787522891787"><ele>110.5</ele><time>2026-04-04T01:19:27.001Z</time></trkpt><trkpt lat="14.329255961546018" lon="120.98789324010465"><ele>111.0</ele><time>2026-04-04T01:19:28.001Z</time></trkpt><trkpt lat="14.329120478335232" lon="120.98791250475415"><ele>111.5</ele><time>2026-04-04T01:19:29.001Z</time></trkpt><trkpt lat="14.32898727984817" lon="120.98793671668943"><ele>112.0</ele><time>2026-04-04T01:19:30.001Z</time></trkpt><trkpt lat="14.328855080890873" lon="120.98794207618792"><ele>113.0</ele><time>2026-04-04T01:19:31.001Z</time></trkpt><trkpt lat="14.32872184188421" lon="120.98796496964945"><ele>114.0</ele><time>2026-04-04T01:19:32.001Z</time></trkpt><trkpt lat="14.328591300063747" lon="120.98800052520025"><ele>115.0</ele><time>2026-04-04T01:19:33.001Z</time></trkpt><trkpt lat="14.328458490697791" lon="120.98802125599254"><ele>116.0</ele><time>2026-04-04T01:19:34.001Z</time></trkpt><trkpt lat="14.328332208342346" lon="120.988045018676"><ele>116.0</ele><time>2026-04-04T01:19:35.001Z</time></trkpt><trkpt lat="14.32820679064562" lon="120.9880721272798"><ele>116.0</ele><time>2026-04-04T01:19:36.001Z</time></trkpt><trkpt lat="14.328081006739914" lon="120.98809632201008"><ele>116.0</ele><time>2026-04-04T01:19:37.001Z</time></trkpt><trkpt lat="14.327954728373058" lon="120.98811190528035"><ele>116.0</ele><time>2026-04-04T01:19:38.001Z</time></trkpt><trkpt lat="14.327831942897054" lon="120.98809321315248"><ele>115.5</ele><time>2026-04-04T01:19:39.001Z</time></trkpt><trkpt lat="14.327712363069429" lon="120.98807620821006"><ele>115.0</ele><time>2026-04-04T01:19:40.001Z</time></trkpt><trkpt lat="14.327587828241548" lon="120.98804922962428"><ele>114.5</ele><time>2026-04-04T01:19:41.001Z</time></trkpt><trkpt lat="14.327488931153583" lon="120.98799833374062"><ele>114.0</ele><time>2026-04-04T01:19:42.001Z</time></trkpt><trkpt lat="14.327401120553013" lon="120.98793351287792"><ele>114.0</ele><time>2026-04-04T01:19:43.001Z</time></trkpt><trkpt lat="14.327317800791045" lon="120.98786004306764"><ele>114.0</ele><time>2026-04-04T01:19:44.001Z</time></trkpt><trkpt lat="14.327241192084523" lon="120.98778405980582"><ele>114.0</ele><time>2026-04-04T01:19:45.001Z</time></trkpt><trkpt lat="14.327152929492351" lon="120.98770278441059"><ele>114.0</ele><time>2026-04-04T01:19:46.001Z</time></trkpt><trkpt lat="14.327073376843934" lon="120.98760290938769"><ele>114.5</ele><time>2026-04-04T01:19:47.001Z</time></trkpt><trkpt lat="14.326996943152434" lon="120.98750158436539"><ele>115.0</ele><time>2026-04-04T01:19:48.001Z</time></trkpt><trkpt lat="14.326925459925262" lon="120.98740613053307"><ele>115.5</ele><time>2026-04-04T01:19:49.001Z</time></trkpt><trkpt lat="14.326852045466952" lon="120.98731414110004"><ele>116.0</ele><time>2026-04-04T01:19:50.001Z</time></trkpt><trkpt lat="14.3267810604813" lon="120.9872209095999"><ele>116.0</ele><time>2026-04-04T01:19:51.001Z</time></trkpt><trkpt lat="14.326705911860694" lon="120.98713085373682"><ele>116.0</ele><time>2026-04-04T01:19:52.001Z</time></trkpt><trkpt lat="14.326637767361541" lon="120.98704675192272"><ele>116.0</ele><time>2026-04-04T01:19:53.001Z</time></trkpt><trkpt lat="14.326561793322442" lon="120.98696219151451"><ele>116.0</ele><time>2026-04-04T01:19:54.001Z</time></trkpt><trkpt lat="14.326476762804953" lon="120.98687648658918"><ele>116.5</ele><time>2026-04-04T01:19:55.001Z</time></trkpt><trkpt lat="14.326391242385382" lon="120.98678962155263"><ele>117.0</ele><time>2026-04-04T01:19:56.001Z</time></trkpt><trkpt lat="14.326308154257598" lon="120.98670387375816"><ele>117.5</ele><time>2026-04-04T01:19:57.001Z</time></trkpt><trkpt lat="14.326215913918194" lon="120.98661442797028"><ele>118.0</ele><time>2026-04-04T01:19:58.001Z</time></trkpt><trkpt lat="14.32612557057841" lon="120.98652597548147"><ele>118.0</ele><time>2026-04-04T01:19:59.001Z</time></trkpt><trkpt lat="14.326035206995392" lon="120.9864386770352"><ele>118.0</ele><time>2026-04-04T01:20:00.001Z</time></trkpt><trkpt lat="14.325940905174276" lon="120.98635012642171"><ele>118.0</ele><time>2026-04-04T01:20:01.001Z</time></trkpt><trkpt lat="14.32584138812756" lon="120.986261102151"><ele>118.0</ele><time>2026-04-04T01:20:02.001Z</time></trkpt><trkpt lat="14.325744018913197" lon="120.98617710419013"><ele>118.0</ele><time>2026-04-04T01:20:03.001Z</time></trkpt><trkpt lat="14.325640870555354" lon="120.98608873681252"><ele>118.0</ele><time>2026-04-04T01:20:04.001Z</time></trkpt><trkpt lat="14.325539179775536" lon="120.9860071664506"><ele>118.0</ele><time>2026-04-04T01:20:05Z</time></trkpt><trkpt lat="14.325438216686589" lon="120.98592741560782"><ele>118.0</ele><time>2026-04-04T01:20:06Z</time></trkpt><trkpt lat="14.325344850882784" lon="120.98585237916473"><ele>118.75</ele><time>2026-04-04T01:20:07Z</time></trkpt><trkpt lat="14.325253431520625" lon="120.98578107123996"><ele>119.5</ele><time>2026-04-04T01:20:08Z</time></trkpt><trkpt lat="14.325160671881276" lon="120.98570871643282"><ele>120.25</ele><time>2026-04-04T01:20:09Z</time></trkpt><trkpt lat="14.325067845225544" lon="120.98564058740757"><ele>121.0</ele><time>2026-04-04T01:20:10Z</time></trkpt><trkpt lat="14.324968313235388" lon="120.9855740587925"><ele>121.0</ele><time>2026-04-04T01:20:11Z</time></trkpt><trkpt lat="14.32486872070479" lon="120.98550697172999"><ele>121.0</ele><time>2026-04-04T01:20:12Z</time></trkpt><trkpt lat="14.324783193217185" lon="120.98542402931565"><ele>121.0</ele><time>2026-04-04T01:20:13Z</time></trkpt><trkpt lat="14.324694283052926" lon="120.98536144741378"><ele>121.0</ele><time>2026-04-04T01:20:14Z</time></trkpt><trkpt lat="14.324615198111463" lon="120.9853082726559"><ele>121.0</ele><time>2026-04-04T01:20:15Z</time></trkpt><trkpt lat="14.3245452609256" lon="120.98526681048608"><ele>121.16666666666667</ele><time>2026-04-04T01:20:16Z</time></trkpt><trkpt lat="14.324481785410489" lon="120.98523018740256"><ele>121.33333333333334</ele><time>2026-04-04T01:20:17Z</time></trkpt><trkpt lat="14.32441979488258" lon="120.98519442110451"><ele>121.5</ele><time>2026-04-04T01:20:18Z</time></trkpt><trkpt lat="14.324350392006929" lon="120.985172736088"><ele>121.66666666666666</ele><time>2026-04-04T01:20:19Z</time></trkpt><trkpt lat="14.324252677382386" lon="120.98512311252182"><ele>121.83333333333333</ele><time>2026-04-04T01:20:21Z</time></trkpt><trkpt lat="14.324174265794076" lon="120.98508544764032"><ele>122.0</ele><time>2026-04-04T01:20:23Z</time></trkpt><trkpt lat="14.324067663096791" lon="120.9850255278265"><ele>122.33333333333333</ele><time>2026-04-04T01:20:25Z</time></trkpt><trkpt lat="14.323999423564363" lon="120.98499064541835"><ele>122.66666666666666</ele><time>2026-04-04T01:20:26Z</time></trkpt><trkpt lat="14.323928575823311" lon="120.98495734751182"><ele>123.0</ele><time>2026-04-04T01:20:27Z</time></trkpt><trkpt lat="14.323861416906425" lon="120.98490855034908"><ele>123.33333333333334</ele><time>2026-04-04T01:20:28Z</time></trkpt><trkpt lat="14.323781059180378" lon="120.9848763271291"><ele>123.66666666666667</ele><time>2026-04-04T01:20:29Z</time></trkpt><trkpt lat="14.32368668554401" lon="120.98485596930085"><ele>124.0</ele><time>2026-04-04T01:20:30Z</time></trkpt><trkpt lat="14.32360076963971" lon="120.98481770812032"><ele>124.4</ele><time>2026-04-04T01:20:31Z</time></trkpt><trkpt lat="14.32351479396448" lon="120.98478223677427"><ele>124.80000000000001</ele><time>2026-04-04T01:20:32Z</time></trkpt><trkpt lat="14.323433613552055" lon="120.98474863777936"><ele>125.19999999999999</ele><time>2026-04-04T01:20:33Z</time></trkpt><trkpt lat="14.323359292829847" lon="120.98471386155279"><ele>125.6</ele><time>2026-04-04T01:20:34Z</time></trkpt><trkpt lat="14.323270396904412" lon="120.98467704352474"><ele>126.0</ele><time>2026-04-04T01:20:35Z</time></trkpt><trkpt lat="14.323175816724795" lon="120.98464192148103"><ele>126.0</ele><time>2026-04-04T01:20:36Z</time></trkpt><trkpt lat="14.323085863699584" lon="120.98459890650817"><ele>126.0</ele><time>2026-04-04T01:20:37Z</time></trkpt><trkpt lat="14.322991747240327" lon="120.98455729327999"><ele>126.0</ele><time>2026-04-04T01:20:38.001Z</time></trkpt><trkpt lat="14.322908422472002" lon="120.9845204515435"><ele>126.0</ele><time>2026-04-04T01:20:39.001Z</time></trkpt><trkpt lat="14.322784412938768" lon="120.98458185061777"><ele>126.0</ele><time>2026-04-04T01:20:40.001Z</time></trkpt><trkpt lat="14.322686591757193" lon="120.98458810366984"><ele>126.8</ele><time>2026-04-04T01:20:41.001Z</time></trkpt><trkpt lat="14.32258536724974" lon="120.98459947092876"><ele>127.6</ele><time>2026-04-04T01:20:42.001Z</time></trkpt><trkpt lat="14.322473886582344" lon="120.98460904366883"><ele>128.4</ele><time>2026-04-04T01:20:43.001Z</time></trkpt><trkpt lat="14.322355601341984" lon="120.98460926431265"><ele>129.2</ele><time>2026-04-04T01:20:44.001Z</time></trkpt><trkpt lat="14.322242560896175" lon="120.98460689280832"><ele>130.0</ele><time>2026-04-04T01:20:45.001Z</time></trkpt><trkpt lat="14.322146613781134" lon="120.98461074594675"><ele>130.6</ele><time>2026-04-04T01:20:46.001Z</time></trkpt><trkpt lat="14.322048196739967" lon="120.98460966467903"><ele>131.2</ele><time>2026-04-04T01:20:47.001Z</time></trkpt><trkpt lat="14.32194510224893" lon="120.98461286650769"><ele>131.8</ele><time>2026-04-04T01:20:48.001Z</time></trkpt><trkpt lat="14.321832917736026" lon="120.98462078941456"><ele>132.4</ele><time>2026-04-04T01:20:49.001Z</time></trkpt><trkpt lat="14.321716635791788" lon="120.9846364897617"><ele>133.0</ele><time>2026-04-04T01:20:50.001Z</time></trkpt><trkpt lat="14.321610808645975" lon="120.98464634513248"><ele>133.0</ele><time>2026-04-04T01:20:51.001Z</time></trkpt><trkpt lat="14.321523478087892" lon="120.98464769780165"><ele>133.0</ele><time>2026-04-04T01:20:52.001Z</time></trkpt><trkpt lat="14.321434410820343" lon="120.98465072701862"><ele>133.0</ele><time>2026-04-04T01:20:53.001Z</time></trkpt><trkpt lat="14.321365240457212" lon="120.9846593533964"><ele>133.0</ele><time>2026-04-04T01:20:54.001Z</time></trkpt><trkpt lat="14.321292237453761" lon="120.98466392001791"><ele>133.0</ele><time>2026-04-04T01:20:55.001Z</time></trkpt><trkpt lat="14.32122567633334" lon="120.98466856336768"><ele>133.0</ele><time>2026-04-04T01:20:56.001Z</time></trkpt><trkpt lat="14.321157272991536" lon="120.98466911368719"><ele>133.16666666666669</ele><time>2026-04-04T01:20:57.001Z</time></trkpt><trkpt lat="14.321086855648796" lon="120.98467459061648"><ele>133.33333333333334</ele><time>2026-04-04T01:20:58.001Z</time></trkpt><trkpt lat="14.32101234140826" lon="120.9846801518012"><ele>133.5</ele><time>2026-04-04T01:20:59.001Z</time></trkpt><trkpt lat="14.320937481014568" lon="120.98468617150763"><ele>133.66666666666666</ele><time>2026-04-04T01:21:00.001Z</time></trkpt><trkpt lat="14.320866483909603" lon="120.98469102815083"><ele>133.83333333333331</ele><time>2026-04-04T01:21:01.001Z</time></trkpt><trkpt lat="14.32077451372247" lon="120.98469660053709"><ele>134.0</ele><time>2026-04-04T01:21:03.001Z</time></trkpt><trkpt lat="14.320700596904853" lon="120.98471085845958"><ele>134.0</ele><time>2026-04-04T01:21:07.001Z</time></trkpt><trkpt lat="14.320627292716459" lon="120.98472978201306"><ele>134.0</ele><time>2026-04-04T01:21:09.001Z</time></trkpt><trkpt lat="14.320559592098324" lon="120.98475198615328"><ele>134.0</ele><time>2026-04-04T01:21:11.001Z</time></trkpt><trkpt lat="14.320468790619797" lon="120.98478316650218"><ele>134.0</ele><time>2026-04-04T01:21:13.001Z</time></trkpt><trkpt lat="14.320356565025438" lon="120.98483238623501"><ele>134.0</ele><time>2026-04-04T01:21:15.001Z</time></trkpt><trkpt lat="14.320293547346507" lon="120.98485880500549"><ele>134.0</ele><time>2026-04-04T01:21:16.001Z</time></trkpt><trkpt lat="14.320197951128053" lon="120.98489988272925"><ele>134.0</ele><time>2026-04-04T01:21:18.001Z</time></trkpt><trkpt lat="14.320126009341891" lon="120.98494462070916"><ele>134.0</ele><time>2026-04-04T01:21:21.001Z</time></trkpt><trkpt lat="14.32001771725303" lon="120.985003315099"><ele>134.0</ele><time>2026-04-04T01:21:23.001Z</time></trkpt><trkpt lat="14.31995955903452" lon="120.98503432964226"><ele>134.0</ele><time>2026-04-04T01:21:24.001Z</time></trkpt><trkpt lat="14.319892380292886" lon="120.98506769015822"><ele>134.0</ele><time>2026-04-04T01:21:25.001Z</time></trkpt><trkpt lat="14.319813736872138" lon="120.98510399146971"><ele>134.0</ele><time>2026-04-04T01:21:26.001Z</time></trkpt><trkpt lat="14.319729174737665" lon="120.98514228278661"><ele>133.8</ele><time>2026-04-04T01:21:27.001Z</time></trkpt><trkpt lat="14.319642225382555" lon="120.98518615124826"><ele>133.60000000000002</ele><time>2026-04-04T01:21:28.001Z</time></trkpt><trkpt lat="14.319551757280733" lon="120.98522920039002"><ele>133.4</ele><time>2026-04-04T01:21:29.001Z</time></trkpt><trkpt lat="14.319460326152482" lon="120.9852733076537"><ele>133.20000000000002</ele><time>2026-04-04T01:21:30.001Z</time></trkpt><trkpt lat="14.319367650595755" lon="120.98532241156833"><ele>133.0</ele><time>2026-04-04T01:21:31.001Z</time></trkpt><trkpt lat="14.319269936356152" lon="120.9853676536545"><ele>133.0</ele><time>2026-04-04T01:21:32.001Z</time></trkpt><trkpt lat="14.319173945557747" lon="120.98541477563906"><ele>133.0</ele><time>2026-04-04T01:21:33.001Z</time></trkpt><trkpt lat="14.319075311536169" lon="120.98546014153197"><ele>133.0</ele><time>2026-04-04T01:21:34.001Z</time></trkpt><trkpt lat="14.318981074051662" lon="120.98550354412946"><ele>133.0</ele><time>2026-04-04T01:21:35.001Z</time></trkpt><trkpt lat="14.318880448905775" lon="120.98555065916408"><ele>133.0</ele><time>2026-04-04T01:21:36.001Z</time></trkpt><trkpt lat="14.318784272767628" lon="120.9855923218211"><ele>133.6</ele><time>2026-04-04T01:21:37.001Z</time></trkpt><trkpt lat="14.318683269778575" lon="120.98564217624464"><ele>134.20000000000002</ele><time>2026-04-04T01:21:38.001Z</time></trkpt><trkpt lat="14.318583852137838" lon="120.9856878080739"><ele>134.8</ele><time>2026-04-04T01:21:39.001Z</time></trkpt><trkpt lat="14.318482794628093" lon="120.98573015767315"><ele>135.4</ele><time>2026-04-04T01:21:40.001Z</time></trkpt><trkpt lat="14.318378523091452" lon="120.98577366096097"><ele>136.0</ele><time>2026-04-04T01:21:41.001Z</time></trkpt><trkpt lat="14.318272649385351" lon="120.98581831138608"><ele>136.0</ele><time>2026-04-04T01:21:42.001Z</time></trkpt><trkpt lat="14.318172275959624" lon="120.9858595958773"><ele>136.0</ele><time>2026-04-04T01:21:43.001Z</time></trkpt><trkpt lat="14.318070136333338" lon="120.98589479841722"><ele>136.0</ele><time>2026-04-04T01:21:44.001Z</time></trkpt><trkpt lat="14.317963447259123" lon="120.98589899149229"><ele>136.0</ele><time>2026-04-04T01:21:45.001Z</time></trkpt><trkpt lat="14.317863899697059" lon="120.98594633545629"><ele>136.0</ele><time>2026-04-04T01:21:46.001Z</time></trkpt><trkpt lat="14.317754494216917" lon="120.98597465061609"><ele>136.0</ele><time>2026-04-04T01:21:47.001Z</time></trkpt><trkpt lat="14.31763901459519" lon="120.98598316035826"><ele>136.0</ele><time>2026-04-04T01:21:48.001Z</time></trkpt><trkpt lat="14.31752691157781" lon="120.98602316794894"><ele>136.0</ele><time>2026-04-04T01:21:49.001Z</time></trkpt><trkpt lat="14.317414654875538" lon="120.98602820570638"><ele>136.0</ele><time>2026-04-04T01:21:50.001Z</time></trkpt><trkpt lat="14.317303270650186" lon="120.98605048396983"><ele>136.75</ele><time>2026-04-04T01:21:51.001Z</time></trkpt><trkpt lat="14.317192480033023" lon="120.98607262187662"><ele>137.5</ele><time>2026-04-04T01:21:52.001Z</time></trkpt><trkpt lat="14.31708242540588" lon="120.98609461271938"><ele>138.25</ele><time>2026-04-04T01:21:53.001Z</time></trkpt><trkpt lat="14.31696672366947" lon="120.98612052747953"><ele>139.0</ele><time>2026-04-04T01:21:54.001Z</time></trkpt><trkpt lat="14.316858122973251" lon="120.9861613373553"><ele>139.0</ele><time>2026-04-04T01:21:55.001Z</time></trkpt><trkpt lat="14.31673478069409" lon="120.98617654483552"><ele>139.0</ele><time>2026-04-04T01:21:56.001Z</time></trkpt><trkpt lat="14.316619658609403" lon="120.98620453593287"><ele>139.0</ele><time>2026-04-04T01:21:57Z</time></trkpt><trkpt lat="14.316515262991985" lon="120.98624709182408"><ele>139.0</ele><time>2026-04-04T01:21:58Z</time></trkpt><trkpt lat="14.31640996421352" lon="120.98625552160007"><ele>139.8</ele><time>2026-04-04T01:21:59Z</time></trkpt><trkpt lat="14.316310766596832" lon="120.98629672002897"><ele>140.60000000000002</ele><time>2026-04-04T01:22:00Z</time></trkpt><trkpt lat="14.316213626474704" lon="120.98631887120334"><ele>141.4</ele><time>2026-04-04T01:22:01Z</time></trkpt><trkpt lat="14.316123416091614" lon="120.9863350796096"><ele>142.20000000000002</ele><time>2026-04-04T01:22:02Z</time></trkpt><trkpt lat="14.316031788367399" lon="120.98635488941157"><ele>143.0</ele><time>2026-04-04T01:22:03Z</time></trkpt><trkpt lat="14.315934592722623" lon="120.98637574055134"><ele>143.0</ele><time>2026-04-04T01:22:04Z</time></trkpt><trkpt lat="14.315835767687947" lon="120.98639625179216"><ele>143.0</ele><time>2026-04-04T01:22:05Z</time></trkpt><trkpt lat="14.315734541546494" lon="120.98641849671151"><ele>143.0</ele><time>2026-04-04T01:22:06Z</time></trkpt><trkpt lat="14.315633895205877" lon="120.98644378189015"><ele>143.0</ele><time>2026-04-04T01:22:07Z</time></trkpt><trkpt lat="14.315539638997908" lon="120.98646982198099"><ele>143.0</ele><time>2026-04-04T01:22:08Z</time></trkpt><trkpt lat="14.31544660400267" lon="120.9864963044962"><ele>143.4</ele><time>2026-04-04T01:22:09Z</time></trkpt><trkpt lat="14.315358837905052" lon="120.98653782665922"><ele>143.8</ele><time>2026-04-04T01:22:10Z</time></trkpt><trkpt lat="14.315272892797692" lon="120.98658583395077"><ele>144.2</ele><time>2026-04-04T01:22:11Z</time></trkpt><trkpt lat="14.315165167066343" lon="120.98661487763859"><ele>144.6</ele><time>2026-04-04T01:22:12Z</time></trkpt><trkpt lat="14.31505781727251" lon="120.98667408928829"><ele>145.0</ele><time>2026-04-04T01:22:13Z</time></trkpt><trkpt lat="14.314961662214259" lon="120.98674419309422"><ele>144.5</ele><time>2026-04-04T01:22:14Z</time></trkpt><trkpt lat="14.31484357878678" lon="120.98680561250147"><ele>144.0</ele><time>2026-04-04T01:22:15Z</time></trkpt><trkpt lat="14.314725576585491" lon="120.98686337896665"><ele>143.5</ele><time>2026-04-04T01:22:16Z</time></trkpt><trkpt lat="14.31460638422987" lon="120.98692239034871"><ele>143.0</ele><time>2026-04-04T01:22:17Z</time></trkpt><trkpt lat="14.314485023756982" lon="120.98698033017888"><ele>143.0</ele><time>2026-04-04T01:22:18Z</time></trkpt><trkpt lat="14.314370179536649" lon="120.98703424215161"><ele>143.0</ele><time>2026-04-04T01:22:19Z</time></trkpt><trkpt lat="14.314256264118459" lon="120.98709608517773"><ele>143.0</ele><time>2026-04-04T01:22:20Z</time></trkpt><trkpt lat="14.314153530512913" lon="120.98715441624174"><ele>143.0</ele><time>2026-04-04T01:22:21Z</time></trkpt><trkpt lat="14.31405476217765" lon="120.98721069484023"><ele>143.0</ele><time>2026-04-04T01:22:22Z</time></trkpt><trkpt lat="14.313954566410802" lon="120.98727236434614"><ele>143.0</ele><time>2026-04-04T01:22:23Z</time></trkpt><trkpt lat="14.313864194304964" lon="120.98733068787455"><ele>143.0</ele><time>2026-04-04T01:22:24Z</time></trkpt><trkpt lat="14.313762712523946" lon="120.98739303150704"><ele>143.0</ele><time>2026-04-04T01:22:25Z</time></trkpt><trkpt lat="14.313667099008967" lon="120.98745086019592"><ele>143.6</ele><time>2026-04-04T01:22:26Z</time></trkpt><trkpt lat="14.31357030791641" lon="120.98750926381307"><ele>144.20000000000002</ele><time>2026-04-04T01:22:27Z</time></trkpt><trkpt lat="14.313485808323113" lon="120.98756220480763"><ele>144.8</ele><time>2026-04-04T01:22:28Z</time></trkpt><trkpt lat="14.31339298902349" lon="120.98761854675213"><ele>145.4</ele><time>2026-04-04T01:22:29Z</time></trkpt><trkpt lat="14.313303388079577" lon="120.98767164760203"><ele>146.0</ele><time>2026-04-04T01:22:30Z</time></trkpt><trkpt lat="14.31321334037387" lon="120.98772728979235"><ele>146.0</ele><time>2026-04-04T01:22:31Z</time></trkpt><trkpt lat="14.313114483958786" lon="120.987768912271"><ele>146.0</ele><time>2026-04-04T01:22:32Z</time></trkpt><trkpt lat="14.313018921137301" lon="120.9878245367274"><ele>146.0</ele><time>2026-04-04T01:22:33Z</time></trkpt><trkpt lat="14.312924088961386" lon="120.98788666481492"><ele>146.0</ele><time>2026-04-04T01:22:34Z</time></trkpt><trkpt lat="14.312824764846413" lon="120.98794878992408"><ele>146.0</ele><time>2026-04-04T01:22:35Z</time></trkpt><trkpt lat="14.312728340247142" lon="120.98800902591115"><ele>147.4</ele><time>2026-04-04T01:22:36Z</time></trkpt><trkpt lat="14.312626527479958" lon="120.98807263760045"><ele>148.8</ele><time>2026-04-04T01:22:37Z</time></trkpt><trkpt lat="14.312526044008381" lon="120.98813546055429"><ele>150.20000000000002</ele><time>2026-04-04T01:22:38Z</time></trkpt><trkpt lat="14.31243137265571" lon="120.98819464973175"><ele>151.6</ele><time>2026-04-04T01:22:39Z</time></trkpt><trkpt lat="14.312345693300434" lon="120.98824821705502"><ele>153.0</ele><time>2026-04-04T01:22:40Z</time></trkpt><trkpt lat="14.312266878549819" lon="120.98829710902466"><ele>153.4</ele><time>2026-04-04T01:22:41Z</time></trkpt><trkpt lat="14.312190781497447" lon="120.98836338353617"><ele>153.8</ele><time>2026-04-04T01:22:42Z</time></trkpt><trkpt lat="14.31209549982313" lon="120.9884160380331"><ele>154.2</ele><time>2026-04-04T01:22:43Z</time></trkpt><trkpt lat="14.31199686191303" lon="120.98847707516695"><ele>154.6</ele><time>2026-04-04T01:22:44Z</time></trkpt><trkpt lat="14.311891114699863" lon="120.9885315580461"><ele>155.0</ele><time>2026-04-04T01:22:45Z</time></trkpt><trkpt lat="14.311782665601104" lon="120.98859734073649"><ele>155.0</ele><time>2026-04-04T01:22:46Z</time></trkpt><trkpt lat="14.311677294748923" lon="120.98866151974943"><ele>155.0</ele><time>2026-04-04T01:22:47Z</time></trkpt><trkpt lat="14.311574341262098" lon="120.98872434121711"><ele>155.0</ele><time>2026-04-04T01:22:48Z</time></trkpt><trkpt lat="14.311474414249831" lon="120.98878531594228"><ele>155.0</ele><time>2026-04-04T01:22:49Z</time></trkpt><trkpt lat="14.311378970458094" lon="120.9888435550456"><ele>155.4</ele><time>2026-04-04T01:22:50Z</time></trkpt><trkpt lat="14.311292418894809" lon="120.98889636817533"><ele>155.8</ele><time>2026-04-04T01:22:51Z</time></trkpt><trkpt lat="14.311207901279966" lon="120.98894794020477"><ele>156.2</ele><time>2026-04-04T01:22:52Z</time></trkpt><trkpt lat="14.311121515651504" lon="120.9890006520826"><ele>156.6</ele><time>2026-04-04T01:22:53Z</time></trkpt><trkpt lat="14.311036243020537" lon="120.98905268481771"><ele>157.0</ele><time>2026-04-04T01:22:54Z</time></trkpt><trkpt lat="14.310946061577035" lon="120.98910771287605"><ele>157.0</ele><time>2026-04-04T01:22:55Z</time></trkpt><trkpt lat="14.310856125777722" lon="120.98916220719683"><ele>157.0</ele><time>2026-04-04T01:22:56Z</time></trkpt><trkpt lat="14.310767835006196" lon="120.98921570276497"><ele>157.0</ele><time>2026-04-04T01:22:57Z</time></trkpt><trkpt lat="14.3106939840203" lon="120.98928614674352"><ele>157.0</ele><time>2026-04-04T01:22:58Z</time></trkpt><trkpt lat="14.310609273502694" lon="120.98934210454323"><ele>157.0</ele><time>2026-04-04T01:22:59Z</time></trkpt><trkpt lat="14.310528187201896" lon="120.9893978158555"><ele>157.4</ele><time>2026-04-04T01:23:00Z</time></trkpt><trkpt lat="14.310447431148859" lon="120.98944538773682"><ele>157.79999999999998</ele><time>2026-04-04T01:23:01Z</time></trkpt><trkpt lat="14.310365944507563" lon="120.98950449688088"><ele>158.2</ele><time>2026-04-04T01:23:02Z</time></trkpt><trkpt lat="14.31028343699837" lon="120.98957087917466"><ele>158.6</ele><time>2026-04-04T01:23:03Z</time></trkpt><trkpt lat="14.310195720605352" lon="120.98965282703544"><ele>159.0</ele><time>2026-04-04T01:23:04Z</time></trkpt><trkpt lat="14.310103195749367" lon="120.98973620635144"><ele>159.0</ele><time>2026-04-04T01:23:05Z</time></trkpt><trkpt lat="14.310000830557325" lon="120.98982701414215"><ele>159.0</ele><time>2026-04-04T01:23:06Z</time></trkpt><trkpt lat="14.309893526357692" lon="120.9899216284878"><ele>159.0</ele><time>2026-04-04T01:23:07Z</time></trkpt><trkpt lat="14.309779139343291" lon="120.99001871623118"><ele>159.0</ele><time>2026-04-04T01:23:08.001Z</time></trkpt><trkpt lat="14.309666491372933" lon="120.990103872307"><ele>160.0</ele><time>2026-04-04T01:23:09.001Z</time></trkpt><trkpt lat="14.309566630345055" lon="120.99020396085103"><ele>161.0</ele><time>2026-04-04T01:23:10.001Z</time></trkpt><trkpt lat="14.309475354294827" lon="120.9902903493784"><ele>162.0</ele><time>2026-04-04T01:23:11.001Z</time></trkpt><trkpt lat="14.309380921797546" lon="120.99037629493084"><ele>163.0</ele><time>2026-04-04T01:23:12.001Z</time></trkpt><trkpt lat="14.309283742937573" lon="120.99045987856458"><ele>163.0</ele><time>2026-04-04T01:23:13.001Z</time></trkpt><trkpt lat="14.309191732895973" lon="120.99054422508375"><ele>163.0</ele><time>2026-04-04T01:23:14.001Z</time></trkpt><trkpt lat="14.30909899932932" lon="120.990623105336"><ele>163.0</ele><time>2026-04-04T01:23:15.001Z</time></trkpt><trkpt lat="14.309006280604816" lon="120.99070170407158"><ele>163.0</ele><time>2026-04-04T01:23:16.001Z</time></trkpt><trkpt lat="14.308908580368195" lon="120.99077847483022"><ele>163.25</ele><time>2026-04-04T01:23:17.001Z</time></trkpt><trkpt lat="14.308809093713501" lon="120.99085261029589"><ele>163.5</ele><time>2026-04-04T01:23:18.001Z</time></trkpt><trkpt lat="14.308713933904025" lon="120.99093139165892"><ele>163.75</ele><time>2026-04-04T01:23:19.001Z</time></trkpt><trkpt lat="14.30860926581002" lon="120.99101104721687"><ele>164.0</ele><time>2026-04-04T01:23:20.001Z</time></trkpt><trkpt lat="14.308500087563024" lon="120.99109138384864"><ele>164.0</ele><time>2026-04-04T01:23:21.001Z</time></trkpt><trkpt lat="14.308388719120096" lon="120.99116831011919"><ele>164.0</ele><time>2026-04-04T01:23:22.001Z</time></trkpt><trkpt lat="14.308281157407235" lon="120.99124217267108"><ele>164.0</ele><time>2026-04-04T01:23:23.001Z</time></trkpt><trkpt lat="14.308175742313656" lon="120.99130900293953"><ele>164.0</ele><time>2026-04-04T01:23:24.001Z</time></trkpt><trkpt lat="14.308082149220441" lon="120.99137209325642"><ele>163.25</ele><time>2026-04-04T01:23:25.001Z</time></trkpt><trkpt lat="14.30798103074183" lon="120.99141485835065"><ele>162.5</ele><time>2026-04-04T01:23:26.001Z</time></trkpt><trkpt lat="14.307884307793367" lon="120.99147357136094"><ele>161.75</ele><time>2026-04-04T01:23:27.001Z</time></trkpt><trkpt lat="14.307790589140554" lon="120.99154757656656"><ele>161.0</ele><time>2026-04-04T01:23:28.001Z</time></trkpt><trkpt lat="14.307671012518027" lon="120.99158558836197"><ele>161.0</ele><time>2026-04-04T01:23:29.001Z</time></trkpt><trkpt lat="14.307558380087489" lon="120.99163660207525"><ele>161.0</ele><time>2026-04-04T01:23:30.001Z</time></trkpt><trkpt lat="14.307451188772498" lon="120.99168515141355"><ele>161.0</ele><time>2026-04-04T01:23:31.001Z</time></trkpt><trkpt lat="14.307351217610432" lon="120.99174862598969"><ele>161.0</ele><time>2026-04-04T01:23:32.001Z</time></trkpt><trkpt lat="14.307257757064267" lon="120.99180176549196"><ele>161.16666666666666</ele><time>2026-04-04T01:23:33.001Z</time></trkpt><trkpt lat="14.30716933810307" lon="120.99185085815014"><ele>161.33333333333331</ele><time>2026-04-04T01:23:34.001Z</time></trkpt><trkpt lat="14.307089018708947" lon="120.99189510787677"><ele>161.5</ele><time>2026-04-04T01:23:35.001Z</time></trkpt><trkpt lat="14.307024502821587" lon="120.99193076831274"><ele>161.66666666666666</ele><time>2026-04-04T01:23:36.001Z</time></trkpt><trkpt lat="14.306961537108014" lon="120.99196592193101"><ele>161.83333333333334</ele><time>2026-04-04T01:23:37.001Z</time></trkpt><trkpt lat="14.306896349211247" lon="120.99200157469669"><ele>162.0</ele><time>2026-04-04T01:23:38.001Z</time></trkpt><trkpt lat="14.306822221666375" lon="120.99204211677493"><ele>162.0</ele><time>2026-04-04T01:23:39.001Z</time></trkpt><trkpt lat="14.306734260543012" lon="120.99209393553946"><ele>162.0</ele><time>2026-04-04T01:23:40.001Z</time></trkpt><trkpt lat="14.306637162184101" lon="120.99214990964641"><ele>162.0</ele><time>2026-04-04T01:23:41.001Z</time></trkpt><trkpt lat="14.306537370847952" lon="120.99220881015738"><ele>162.0</ele><time>2026-04-04T01:23:42.001Z</time></trkpt><trkpt lat="14.30643523039445" lon="120.99226909720313"><ele>162.0</ele><time>2026-04-04T01:23:43.001Z</time></trkpt><trkpt lat="14.306334911679436" lon="120.9923283090464"><ele>162.75</ele><time>2026-04-04T01:23:44.001Z</time></trkpt><trkpt lat="14.30623236832306" lon="120.99237586953625"><ele>163.5</ele><time>2026-04-04T01:23:45.001Z</time></trkpt><trkpt lat="14.306125965943139" lon="120.99242281157814"><ele>164.25</ele><time>2026-04-04T01:23:46.001Z</time></trkpt><trkpt lat="14.30602697474115" lon="120.99247661012913"><ele>165.0</ele><time>2026-04-04T01:23:47.001Z</time></trkpt><trkpt lat="14.305911187341975" lon="120.99249201749195"><ele>165.0</ele><time>2026-04-04T01:23:48.001Z</time></trkpt><trkpt lat="14.30579708416964" lon="120.99252002129855"><ele>165.0</ele><time>2026-04-04T01:23:49.001Z</time></trkpt><trkpt lat="14.30568049932021" lon="120.99253518348164"><ele>165.0</ele><time>2026-04-04T01:23:50.001Z</time></trkpt><trkpt lat="14.305556342989524" lon="120.99255027144572"><ele>165.0</ele><time>2026-04-04T01:23:51.001Z</time></trkpt><trkpt lat="14.305431872725805" lon="120.99255951623435"><ele>165.0</ele><time>2026-04-04T01:23:52.001Z</time></trkpt><trkpt lat="14.305305046847092" lon="120.99256369173287"><ele>165.0</ele><time>2026-04-04T01:23:53.001Z</time></trkpt><trkpt lat="14.305180516808981" lon="120.99256779164809"><ele>165.0</ele><time>2026-04-04T01:23:54.001Z</time></trkpt><trkpt lat="14.305058218145636" lon="120.99256469857745"><ele>165.0</ele><time>2026-04-04T01:23:55.001Z</time></trkpt><trkpt lat="14.30493016779024" lon="120.99256205327917"><ele>165.0</ele><time>2026-04-04T01:23:56.001Z</time></trkpt><trkpt lat="14.304801145602175" lon="120.99255971048919"><ele>165.0</ele><time>2026-04-04T01:23:57.001Z</time></trkpt><trkpt lat="14.304675415051367" lon="120.99255682381859"><ele>165.0</ele><time>2026-04-04T01:23:58.001Z</time></trkpt><trkpt lat="14.304538215229972" lon="120.99255440802511"><ele>165.0</ele><time>2026-04-04T01:23:59.001Z</time></trkpt><trkpt lat="14.304409456821535" lon="120.99255217951479"><ele>165.25</ele><time>2026-04-04T01:24:00.001Z</time></trkpt><trkpt lat="14.304280279637497" lon="120.99254898828832"><ele>165.5</ele><time>2026-04-04T01:24:01.001Z</time></trkpt><trkpt lat="14.304145473427605" lon="120.99254552542868"><ele>165.75</ele><time>2026-04-04T01:24:02.001Z</time></trkpt><trkpt lat="14.304014740727284" lon="120.99254258074849"><ele>166.0</ele><time>2026-04-04T01:24:03Z</time></trkpt><trkpt lat="14.303883899614384" lon="120.9925392722262"><ele>166.25</ele><time>2026-04-04T01:24:04Z</time></trkpt><trkpt lat="14.303766493104245" lon="120.99253621654366"><ele>166.5</ele><time>2026-04-04T01:24:05Z</time></trkpt><trkpt lat="14.303652307400615" lon="120.99253324468845"><ele>166.75</ele><time>2026-04-04T01:24:06Z</time></trkpt><trkpt lat="14.303534256632881" lon="120.99253017223913"><ele>167.0</ele><time>2026-04-04T01:24:07Z</time></trkpt><trkpt lat="14.303418094569675" lon="120.99252714894651"><ele>167.0</ele><time>2026-04-04T01:24:08Z</time></trkpt><trkpt lat="14.303302538918974" lon="120.99252360163744"><ele>167.0</ele><time>2026-04-04T01:24:09Z</time></trkpt><trkpt lat="14.303184968044853" lon="120.99251958084812"><ele>167.0</ele><time>2026-04-04T01:24:10Z</time></trkpt><trkpt lat="14.303074757281038" lon="120.99251581176541"><ele>167.0</ele><time>2026-04-04T01:24:11Z</time></trkpt><trkpt lat="14.302958924715785" lon="120.99251150303765"><ele>167.25</ele><time>2026-04-04T01:24:12Z</time></trkpt><trkpt lat="14.302845138152756" lon="120.99250687839172"><ele>167.5</ele><time>2026-04-04T01:24:13Z</time></trkpt><trkpt lat="14.302722752176637" lon="120.99250100877047"><ele>167.75</ele><time>2026-04-04T01:24:14Z</time></trkpt><trkpt lat="14.302604225786057" lon="120.99249532425615"><ele>168.0</ele><time>2026-04-04T01:24:15Z</time></trkpt><trkpt lat="14.30248669964208" lon="120.99248606162432"><ele>168.0</ele><time>2026-04-04T01:24:16Z</time></trkpt><trkpt lat="14.302363696089197" lon="120.99247612407517"><ele>168.0</ele><time>2026-04-04T01:24:17Z</time></trkpt><trkpt lat="14.302243097286738" lon="120.99245932173892"><ele>168.0</ele><time>2026-04-04T01:24:18Z</time></trkpt><trkpt lat="14.302119122471714" lon="120.9924421370941"><ele>168.0</ele><time>2026-04-04T01:24:19Z</time></trkpt><trkpt lat="14.302001667104413" lon="120.99240672757588"><ele>168.5</ele><time>2026-04-04T01:24:20Z</time></trkpt><trkpt lat="14.301880353592427" lon="120.9923717570801"><ele>169.0</ele><time>2026-04-04T01:24:21Z</time></trkpt><trkpt lat="14.301755047104406" lon="120.99233152670097"><ele>169.5</ele><time>2026-04-04T01:24:22Z</time></trkpt><trkpt lat="14.301633803475488" lon="120.99229260071968"><ele>170.0</ele><time>2026-04-04T01:24:23Z</time></trkpt><trkpt lat="14.30152024548841" lon="120.99225614226293"><ele>169.75</ele><time>2026-04-04T01:24:24Z</time></trkpt><trkpt lat="14.301402818613536" lon="120.99221944216657"><ele>169.5</ele><time>2026-04-04T01:24:25Z</time></trkpt><trkpt lat="14.30129127740878" lon="120.99218764096365"><ele>169.25</ele><time>2026-04-04T01:24:26Z</time></trkpt><trkpt lat="14.301169460040446" lon="120.99215302940178"><ele>169.0</ele><time>2026-04-04T01:24:27Z</time></trkpt><trkpt lat="14.301043541695611" lon="120.9921172530027"><ele>169.0</ele><time>2026-04-04T01:24:28Z</time></trkpt><trkpt lat="14.300922967051763" lon="120.99208299452971"><ele>169.0</ele><time>2026-04-04T01:24:29Z</time></trkpt><trkpt lat="14.300807179391947" lon="120.99204987382747"><ele>169.0</ele><time>2026-04-04T01:24:30Z</time></trkpt><trkpt lat="14.300691761470157" lon="120.99201685479062"><ele>169.0</ele><time>2026-04-04T01:24:31Z</time></trkpt><trkpt lat="14.30057848016819" lon="120.99198467179849"><ele>169.25</ele><time>2026-04-04T01:24:32Z</time></trkpt><trkpt lat="14.3004723353636" lon="120.99195451627727"><ele>169.5</ele><time>2026-04-04T01:24:33Z</time></trkpt><trkpt lat="14.30035343551443" lon="120.9919381123746"><ele>169.75</ele><time>2026-04-04T01:24:34Z</time></trkpt><trkpt lat="14.300241556231047" lon="120.99188895241203"><ele>170.0</ele><time>2026-04-04T01:24:35Z</time></trkpt><trkpt lat="14.300127879905618" lon="120.99185685703117"><ele>170.0</ele><time>2026-04-04T01:24:36Z</time></trkpt><trkpt lat="14.30003069725737" lon="120.99186053589253"><ele>170.0</ele><time>2026-04-04T01:24:37Z</time></trkpt><trkpt lat="14.29995052783769" lon="120.99184460013387"><ele>170.0</ele><time>2026-04-04T01:24:38Z</time></trkpt><trkpt lat="14.299844079762945" lon="120.99181565057059"><ele>170.0</ele><time>2026-04-04T01:24:40Z</time></trkpt><trkpt lat="14.299776341914015" lon="120.99175470875146"><ele>170.0</ele><time>2026-04-04T01:24:42Z</time></trkpt><trkpt lat="14.299669160787428" lon="120.99172277072232"><ele>169.8</ele><time>2026-04-04T01:24:44Z</time></trkpt><trkpt lat="14.299597876876286" lon="120.99170152941436"><ele>169.6</ele><time>2026-04-04T01:24:45Z</time></trkpt><trkpt lat="14.29952016238291" lon="120.99167837190569"><ele>169.39999999999998</ele><time>2026-04-04T01:24:46Z</time></trkpt><trkpt lat="14.299428859635691" lon="120.99165116534482"><ele>169.2</ele><time>2026-04-04T01:24:47Z</time></trkpt><trkpt lat="14.299333080150273" lon="120.99162262479682"><ele>169.0</ele><time>2026-04-04T01:24:48Z</time></trkpt><trkpt lat="14.299237253652233" lon="120.99159407023927"><ele>170.0</ele><time>2026-04-04T01:24:49Z</time></trkpt><trkpt lat="14.299139918401817" lon="120.99156506607873"><ele>171.0</ele><time>2026-04-04T01:24:50Z</time></trkpt><trkpt lat="14.299045742796764" lon="120.99153557879443"><ele>172.0</ele><time>2026-04-04T01:24:51Z</time></trkpt><trkpt lat="14.298955607190717" lon="120.9915075189486"><ele>173.0</ele><time>2026-04-04T01:24:52Z</time></trkpt><trkpt lat="14.298864541719578" lon="120.99147916964348"><ele>174.0</ele><time>2026-04-04T01:24:53Z</time></trkpt><trkpt lat="14.298766223693248" lon="120.99144872344208"><ele>174.39999999999998</ele><time>2026-04-04T01:24:54Z</time></trkpt><trkpt lat="14.298669063144672" lon="120.99141881644498"><ele>174.8</ele><time>2026-04-04T01:24:55Z</time></trkpt><trkpt lat="14.298569337878893" lon="120.99138811999971"><ele>175.2</ele><time>2026-04-04T01:24:56Z</time></trkpt><trkpt lat="14.298473859804849" lon="120.9913578663763"><ele>175.60000000000002</ele><time>2026-04-04T01:24:57Z</time></trkpt><trkpt lat="14.29836987418607" lon="120.99132592572235"><ele>176.0</ele><time>2026-04-04T01:24:58Z</time></trkpt><trkpt lat="14.29827068520567" lon="120.9912955999351"><ele>176.0</ele><time>2026-04-04T01:24:59Z</time></trkpt><trkpt lat="14.298175238064422" lon="120.99126551523997"><ele>176.0</ele><time>2026-04-04T01:25:00Z</time></trkpt><trkpt lat="14.29809907427582" lon="120.99124171582078"><ele>176.0</ele><time>2026-04-04T01:25:01Z</time></trkpt><trkpt lat="14.298017922987462" lon="120.99121635793209"><ele>176.0</ele><time>2026-04-04T01:25:02Z</time></trkpt><trkpt lat="14.29795391493494" lon="120.99119635690045"><ele>176.0</ele><time>2026-04-04T01:25:03Z</time></trkpt><trkpt lat="14.297874099605876" lon="120.99117141646467"><ele>176.0</ele><time>2026-04-04T01:25:05Z</time></trkpt><trkpt lat="14.297811432109954" lon="120.99115183432923"><ele>176.20000000000002</ele><time>2026-04-04T01:25:07Z</time></trkpt><trkpt lat="14.297724449491033" lon="120.99112465428284"><ele>176.4</ele><time>2026-04-04T01:25:09Z</time></trkpt><trkpt lat="14.297588990954637" lon="120.9910823266386"><ele>176.6</ele><time>2026-04-04T01:25:11Z</time></trkpt><trkpt lat="14.297513040869712" lon="120.99105859399783"><ele>176.8</ele><time>2026-04-04T01:25:12Z</time></trkpt><trkpt lat="14.297430435581852" lon="120.99103262273313"><ele>177.0</ele><time>2026-04-04T01:25:13Z</time></trkpt><trkpt lat="14.29735664021331" lon="120.99100939983174"><ele>177.0</ele><time>2026-04-04T01:25:14Z</time></trkpt><trkpt lat="14.297288467814246" lon="120.990987946438"><ele>177.0</ele><time>2026-04-04T01:25:15Z</time></trkpt><trkpt lat="14.297213403309113" lon="120.99096432415367"><ele>177.0</ele><time>2026-04-04T01:25:16Z</time></trkpt><trkpt lat="14.297138516562967" lon="120.99094075780452"><ele>177.0</ele><time>2026-04-04T01:25:17Z</time></trkpt><trkpt lat="14.297044758314902" lon="120.99091125272123"><ele>177.0</ele><time>2026-04-04T01:25:18Z</time></trkpt><trkpt lat="14.296942628834254" lon="120.99087911320888"><ele>177.0</ele><time>2026-04-04T01:25:19Z</time></trkpt><trkpt lat="14.296853316936605" lon="120.99085232062134"><ele>177.0</ele><time>2026-04-04T01:25:20Z</time></trkpt><trkpt lat="14.296770183345009" lon="120.9908271008352"><ele>177.0</ele><time>2026-04-04T01:25:21Z</time></trkpt><trkpt lat="14.296692770166576" lon="120.99080367489864"><ele>177.0</ele><time>2026-04-04T01:25:22Z</time></trkpt><trkpt lat="14.296606408126632" lon="120.99077751716669"><ele>177.0</ele><time>2026-04-04T01:25:23Z</time></trkpt><trkpt lat="14.29651841445052" lon="120.99075109863321"><ele>177.0</ele><time>2026-04-04T01:25:24Z</time></trkpt><trkpt lat="14.29643137523278" lon="120.99072496637248"><ele>177.0</ele><time>2026-04-04T01:25:25Z</time></trkpt><trkpt lat="14.296332157970209" lon="120.99069517777747"><ele>177.2</ele><time>2026-04-04T01:25:26Z</time></trkpt><trkpt lat="14.296238177491585" lon="120.99066430934002"><ele>177.39999999999998</ele><time>2026-04-04T01:25:27Z</time></trkpt><trkpt lat="14.29614047026251" lon="120.99063329587403"><ele>177.60000000000002</ele><time>2026-04-04T01:25:28Z</time></trkpt><trkpt lat="14.296038314686383" lon="120.99060097813566"><ele>177.8</ele><time>2026-04-04T01:25:29Z</time></trkpt><trkpt lat="14.295938951977764" lon="120.99056954394466"><ele>178.0</ele><time>2026-04-04T01:25:30Z</time></trkpt><trkpt lat="14.295831994865024" lon="120.99053570721614"><ele>178.0</ele><time>2026-04-04T01:25:31Z</time></trkpt><trkpt lat="14.295730220180735" lon="120.99050350996279"><ele>178.0</ele><time>2026-04-04T01:25:32Z</time></trkpt><trkpt lat="14.295622381246144" lon="120.99046939425307"><ele>178.0</ele><time>2026-04-04T01:25:33Z</time></trkpt><trkpt lat="14.29550951346652" lon="120.9904336876285"><ele>178.0</ele><time>2026-04-04T01:25:34Z</time></trkpt><trkpt lat="14.295403436615914" lon="120.99040012936509"><ele>178.0</ele><time>2026-04-04T01:25:35.001Z</time></trkpt><trkpt lat="14.295292438237372" lon="120.99036501413627"><ele>178.0</ele><time>2026-04-04T01:25:36.001Z</time></trkpt><trkpt lat="14.295180600862352" lon="120.99033006489464"><ele>178.0</ele><time>2026-04-04T01:25:37.001Z</time></trkpt><trkpt lat="14.295071353851066" lon="120.99029596717173"><ele>178.0</ele><time>2026-04-04T01:25:38.001Z</time></trkpt><trkpt lat="14.294968038357286" lon="120.99026372076361"><ele>178.0</ele><time>2026-04-04T01:25:39.001Z</time></trkpt><trkpt lat="14.294872938380188" lon="120.99023403855671"><ele>178.0</ele><time>2026-04-04T01:25:40.001Z</time></trkpt><trkpt lat="14.294773417598831" lon="120.99020297653666"><ele>177.60000000000002</ele><time>2026-04-04T01:25:41.001Z</time></trkpt><trkpt lat="14.29467769557662" lon="120.99017310017119"><ele>177.20000000000002</ele><time>2026-04-04T01:25:42.001Z</time></trkpt><trkpt lat="14.2945813858496" lon="120.990143040376"><ele>176.8</ele><time>2026-04-04T01:25:43.001Z</time></trkpt><trkpt lat="14.294495153836367" lon="120.99011612599783"><ele>176.4</ele><time>2026-04-04T01:25:44.001Z</time></trkpt><trkpt lat="14.294402677188161" lon="120.99008726256329"><ele>176.0</ele><time>2026-04-04T01:25:45.001Z</time></trkpt><trkpt lat="14.294312721933347" lon="120.99005918597295"><ele>176.0</ele><time>2026-04-04T01:25:46.001Z</time></trkpt><trkpt lat="14.294218116147103" lon="120.99002926989643"><ele>176.0</ele><time>2026-04-04T01:25:47.001Z</time></trkpt><trkpt lat="14.294124684898149" lon="120.99000046039639"><ele>176.0</ele><time>2026-04-04T01:25:48.001Z</time></trkpt><trkpt lat="14.294025021665172" lon="120.98996983370499"><ele>176.0</ele><time>2026-04-04T01:25:49.001Z</time></trkpt><trkpt lat="14.293922577391536" lon="120.98993836062958"><ele>176.0</ele><time>2026-04-04T01:25:50.001Z</time></trkpt><trkpt lat="14.2938130790219" lon="120.98990472037106"><ele>176.75</ele><time>2026-04-04T01:25:51.001Z</time></trkpt><trkpt lat="14.293701523231505" lon="120.98987044803255"><ele>177.5</ele><time>2026-04-04T01:25:52.001Z</time></trkpt><trkpt lat="14.29358074643358" lon="120.98983334280433"><ele>178.25</ele><time>2026-04-04T01:25:53.001Z</time></trkpt><trkpt lat="14.293460562568285" lon="120.9897963699518"><ele>179.0</ele><time>2026-04-04T01:25:54.001Z</time></trkpt><trkpt lat="14.29333518178699" lon="120.98975777697422"><ele>179.0</ele><time>2026-04-04T01:25:55.001Z</time></trkpt><trkpt lat="14.293212673479152" lon="120.98972079984541"><ele>179.0</ele><time>2026-04-04T01:25:56.001Z</time></trkpt><trkpt lat="14.293087140541507" lon="120.98968233781024"><ele>179.0</ele><time>2026-04-04T01:25:57.001Z</time></trkpt><trkpt lat="14.29296729943923" lon="120.98964468805246"><ele>179.0</ele><time>2026-04-04T01:25:58.001Z</time></trkpt><trkpt lat="14.292846199581293" lon="120.98960664283703"><ele>179.25</ele><time>2026-04-04T01:25:59.001Z</time></trkpt><trkpt lat="14.292729462077013" lon="120.9895702330287"><ele>179.5</ele><time>2026-04-04T01:26:00.001Z</time></trkpt><trkpt lat="14.292607372756162" lon="120.98953240540116"><ele>179.75</ele><time>2026-04-04T01:26:01.001Z</time></trkpt><trkpt lat="14.292481752112169" lon="120.98949348364297"><ele>180.0</ele><time>2026-04-04T01:26:02.001Z</time></trkpt><trkpt lat="14.292356527152348" lon="120.98945463993182"><ele>179.75</ele><time>2026-04-04T01:26:03.001Z</time></trkpt><trkpt lat="14.292230869067968" lon="120.98941531317142"><ele>179.5</ele><time>2026-04-04T01:26:04.001Z</time></trkpt><trkpt lat="14.292109962306169" lon="120.9893774733224"><ele>179.25</ele><time>2026-04-04T01:26:05.001Z</time></trkpt><trkpt lat="14.291980047022847" lon="120.98934011902574"><ele>179.0</ele><time>2026-04-04T01:26:06.001Z</time></trkpt><trkpt lat="14.291857878786741" lon="120.98930398363197"><ele>179.0</ele><time>2026-04-04T01:26:07.001Z</time></trkpt><trkpt lat="14.291732278902428" lon="120.98926677372641"><ele>179.0</ele><time>2026-04-04T01:26:08.001Z</time></trkpt><trkpt lat="14.291619091771143" lon="120.98923331165909"><ele>179.0</ele><time>2026-04-04T01:26:09Z</time></trkpt><trkpt lat="14.291490383171324" lon="120.9891952609017"><ele>179.0</ele><time>2026-04-04T01:26:10Z</time></trkpt><trkpt lat="14.29136677336575" lon="120.9891587175259"><ele>180.25</ele><time>2026-04-04T01:26:11Z</time></trkpt><trkpt lat="14.29123576212833" lon="120.98911919647054"><ele>181.5</ele><time>2026-04-04T01:26:12Z</time></trkpt><trkpt lat="14.291111765003174" lon="120.9890814482696"><ele>182.75</ele><time>2026-04-04T01:26:13Z</time></trkpt><trkpt lat="14.290994423320623" lon="120.98904572618278"><ele>184.0</ele><time>2026-04-04T01:26:14Z</time></trkpt><trkpt lat="14.290884037477907" lon="120.98901212163445"><ele>184.0</ele><time>2026-04-04T01:26:15Z</time></trkpt><trkpt lat="14.290785011322145" lon="120.98898197529226"><ele>184.0</ele><time>2026-04-04T01:26:16Z</time></trkpt><trkpt lat="14.290678439196316" lon="120.98894938811542"><ele>184.0</ele><time>2026-04-04T01:26:17Z</time></trkpt><trkpt lat="14.290576354471126" lon="120.98891830846607"><ele>184.0</ele><time>2026-04-04T01:26:18Z</time></trkpt><trkpt lat="14.290465729362678" lon="120.98888365233637"><ele>184.0</ele><time>2026-04-04T01:26:19Z</time></trkpt><trkpt lat="14.290367031619468" lon="120.98885273276518"><ele>184.0</ele><time>2026-04-04T01:26:20Z</time></trkpt><trkpt lat="14.290271172134007" lon="120.98882270233447"><ele>184.0</ele><time>2026-04-04T01:26:21Z</time></trkpt><trkpt lat="14.290176411831547" lon="120.98879301626545"><ele>184.0</ele><time>2026-04-04T01:26:22Z</time></trkpt><trkpt lat="14.290077036892354" lon="120.98876238907415"><ele>184.0</ele><time>2026-04-04T01:26:23Z</time></trkpt><trkpt lat="14.28997351742332" lon="120.98873064348783"><ele>184.0</ele><time>2026-04-04T01:26:24Z</time></trkpt><trkpt lat="14.28985913553918" lon="120.98869556680214"><ele>183.75</ele><time>2026-04-04T01:26:25Z</time></trkpt><trkpt lat="14.289746087971015" lon="120.98866089930355"><ele>183.5</ele><time>2026-04-04T01:26:26Z</time></trkpt><trkpt lat="14.289621006220454" lon="120.98862254136641"><ele>183.25</ele><time>2026-04-04T01:26:27Z</time></trkpt><trkpt lat="14.289496749611518" lon="120.98858443646435"><ele>183.0</ele><time>2026-04-04T01:26:28Z</time></trkpt><trkpt lat="14.28936617257384" lon="120.98854429613559"><ele>183.0</ele><time>2026-04-04T01:26:29Z</time></trkpt><trkpt lat="14.289241348887725" lon="120.98850584334215"><ele>183.0</ele><time>2026-04-04T01:26:30Z</time></trkpt><trkpt lat="14.289111537475945" lon="120.98846615805189"><ele>183.0</ele><time>2026-04-04T01:26:31Z</time></trkpt><trkpt lat="14.288993542552465" lon="120.98843052591697"><ele>183.0</ele><time>2026-04-04T01:26:32Z</time></trkpt><trkpt lat="14.288882363300951" lon="120.98839695189184"><ele>183.2</ele><time>2026-04-04T01:26:33Z</time></trkpt><trkpt lat="14.288781757746467" lon="120.98836413551741"><ele>183.4</ele><time>2026-04-04T01:26:34Z</time></trkpt><trkpt lat="14.288682790126897" lon="120.98833272052276"><ele>183.6</ele><time>2026-04-04T01:26:35Z</time></trkpt><trkpt lat="14.28859142396163" lon="120.98830371843438"><ele>183.79999999999998</ele><time>2026-04-04T01:26:36Z</time></trkpt><trkpt lat="14.288504911595316" lon="120.98827625707698"><ele>184.0</ele><time>2026-04-04T01:26:37Z</time></trkpt><trkpt lat="14.288411167776754" lon="120.98824650039849"><ele>184.16666666666669</ele><time>2026-04-04T01:26:38Z</time></trkpt><trkpt lat="14.288324634257874" lon="120.98821903507177"><ele>184.33333333333334</ele><time>2026-04-04T01:26:39Z</time></trkpt><trkpt lat="14.288237984415098" lon="120.98819153282277"><ele>184.5</ele><time>2026-04-04T01:26:40Z</time></trkpt><trkpt lat="14.288163270667017" lon="120.98816694463284"><ele>184.66666666666666</ele><time>2026-04-04T01:26:41Z</time></trkpt><trkpt lat="14.288085505808084" lon="120.98814019941757"><ele>184.83333333333331</ele><time>2026-04-04T01:26:42Z</time></trkpt><trkpt lat="14.288019612537674" lon="120.98811753712312"><ele>185.0</ele><time>2026-04-04T01:26:43Z</time></trkpt><trkpt lat="14.287951796457786" lon="120.98809471804562"><ele>185.16666666666666</ele><time>2026-04-04T01:26:44Z</time></trkpt><trkpt lat="14.287848214886427" lon="120.9880598957509"><ele>185.33333333333331</ele><time>2026-04-04T01:26:46Z</time></trkpt><trkpt lat="14.287782871308702" lon="120.98805270236431"><ele>185.5</ele><time>2026-04-04T01:26:48Z</time></trkpt><trkpt lat="14.287783636066456" lon="120.98796354521602"><ele>185.66666666666666</ele><time>2026-04-04T01:26:50Z</time></trkpt><trkpt lat="14.287811503831085" lon="120.98788832446172"><ele>185.83333333333334</ele><time>2026-04-04T01:26:51Z</time></trkpt><trkpt lat="14.28783481370948" lon="120.98781252731943"><ele>186.0</ele><time>2026-04-04T01:26:52Z</time></trkpt><trkpt lat="14.287865104121288" lon="120.98772853184131"><ele>186.0</ele><time>2026-04-04T01:26:53Z</time></trkpt><trkpt lat="14.287899809131682" lon="120.98763953980372"><ele>186.0</ele><time>2026-04-04T01:26:54Z</time></trkpt><trkpt lat="14.287935115228613" lon="120.98755473558889"><ele>186.0</ele><time>2026-04-04T01:26:55Z</time></trkpt><trkpt lat="14.28797080362339" lon="120.98746699934404"><ele>186.0</ele><time>2026-04-04T01:26:56Z</time></trkpt><trkpt lat="14.288005859278634" lon="120.98738205373238"><ele>186.0</ele><time>2026-04-04T01:26:57Z</time></trkpt><trkpt lat="14.288038338088018" lon="120.98730331723766"><ele>186.0</ele><time>2026-04-04T01:26:58Z</time></trkpt><trkpt lat="14.28807086274462" lon="120.98722540574838"><ele>186.0</ele><time>2026-04-04T01:26:59Z</time></trkpt><trkpt lat="14.288104419494415" lon="120.98714202890395"><ele>186.0</ele><time>2026-04-04T01:27:00Z</time></trkpt><trkpt lat="14.288139832346678" lon="120.98705526483373"><ele>186.0</ele><time>2026-04-04T01:27:01Z</time></trkpt><trkpt lat="14.288175781584966" lon="120.98696162497238"><ele>186.0</ele><time>2026-04-04T01:27:02Z</time></trkpt><trkpt lat="14.288202558270232" lon="120.98687398996195"><ele>186.0</ele><time>2026-04-04T01:27:03Z</time></trkpt><trkpt lat="14.288237212575941" lon="120.98679249079451"><ele>186.0</ele><time>2026-04-04T01:27:04Z</time></trkpt><trkpt lat="14.288273598599703" lon="120.98669004092663"><ele>186.0</ele><time>2026-04-04T01:27:05Z</time></trkpt><trkpt lat="14.28830708370432" lon="120.98658649867659"><ele>186.0</ele><time>2026-04-04T01:27:06Z</time></trkpt><trkpt lat="14.288348721463333" lon="120.98648331976474"><ele>186.0</ele><time>2026-04-04T01:27:07Z</time></trkpt><trkpt lat="14.288396738766389" lon="120.98638841944516"><ele>186.0</ele><time>2026-04-04T01:27:08Z</time></trkpt><trkpt lat="14.288438258825684" lon="120.9862855443706"><ele>186.4</ele><time>2026-04-04T01:27:09Z</time></trkpt><trkpt lat="14.288477019971273" lon="120.98618595829811"><ele>186.8</ele><time>2026-04-04T01:27:10Z</time></trkpt><trkpt lat="14.28851581864143" lon="120.98609172129929"><ele>187.20000000000002</ele><time>2026-04-04T01:27:11Z</time></trkpt><trkpt lat="14.288552544242611" lon="120.98600298461719"><ele>187.60000000000002</ele><time>2026-04-04T01:27:12Z</time></trkpt><trkpt lat="14.288596460473983" lon="120.98590796846119"><ele>188.0</ele><time>2026-04-04T01:27:13Z</time></trkpt><trkpt lat="14.28864174253436" lon="120.9858027692632"><ele>188.0</ele><time>2026-04-04T01:27:14Z</time></trkpt><trkpt lat="14.288688413987563" lon="120.98568725605583"><ele>188.0</ele><time>2026-04-04T01:27:15Z</time></trkpt><trkpt lat="14.288735277316377" lon="120.98557682333545"><ele>188.0</ele><time>2026-04-04T01:27:16Z</time></trkpt><trkpt lat="14.28878044766313" lon="120.985454572483"><ele>188.0</ele><time>2026-04-04T01:27:17Z</time></trkpt><trkpt lat="14.288827688219458" lon="120.98533388299118"><ele>188.0</ele><time>2026-04-04T01:27:18Z</time></trkpt><trkpt lat="14.288876217978872" lon="120.9852208487424"><ele>188.0</ele><time>2026-04-04T01:27:19Z</time></trkpt><trkpt lat="14.288924792728375" lon="120.98508714984776"><ele>188.0</ele><time>2026-04-04T01:27:20Z</time></trkpt><trkpt lat="14.288972493045243" lon="120.98497320907326"><ele>188.0</ele><time>2026-04-04T01:27:21Z</time></trkpt><trkpt lat="14.289020395235902" lon="120.98486013041759"><ele>187.0</ele><time>2026-04-04T01:27:22Z</time></trkpt><trkpt lat="14.289066839566791" lon="120.9847486374987"><ele>186.0</ele><time>2026-04-04T01:27:23Z</time></trkpt><trkpt lat="14.289118713186417" lon="120.98462425487521"><ele>185.0</ele><time>2026-04-04T01:27:24Z</time></trkpt><trkpt lat="14.289163734900484" lon="120.98450763484492"><ele>184.0</ele><time>2026-04-04T01:27:25Z</time></trkpt><trkpt lat="14.289216636447884" lon="120.98438282809482"><ele>184.0</ele><time>2026-04-04T01:27:26Z</time></trkpt><trkpt lat="14.289266875854048" lon="120.98426312913713"><ele>184.0</ele><time>2026-04-04T01:27:27Z</time></trkpt><trkpt lat="14.289321563104707" lon="120.98413929358348"><ele>184.0</ele><time>2026-04-04T01:27:28Z</time></trkpt><trkpt lat="14.289371548326962" lon="120.98400590710192"><ele>184.0</ele><time>2026-04-04T01:27:29Z</time></trkpt><trkpt lat="14.28942612825512" lon="120.98386406284816"><ele>183.75</ele><time>2026-04-04T01:27:30Z</time></trkpt><trkpt lat="14.289483673751603" lon="120.9837327809134"><ele>183.5</ele><time>2026-04-04T01:27:31Z</time></trkpt><trkpt lat="14.289540868952347" lon="120.98359394784585"><ele>183.25</ele><time>2026-04-04T01:27:32Z</time></trkpt><trkpt lat="14.289598945753399" lon="120.98345766161118"><ele>183.0</ele><time>2026-04-04T01:27:33Z</time></trkpt><trkpt lat="14.289650631024694" lon="120.9833314246402"><ele>181.75</ele><time>2026-04-04T01:27:34Z</time></trkpt><trkpt lat="14.28969107313632" lon="120.98322344826583"><ele>180.5</ele><time>2026-04-04T01:27:35Z</time></trkpt><trkpt lat="14.289765668767703" lon="120.98305974061888"><ele>179.25</ele><time>2026-04-04T01:27:36Z</time></trkpt><trkpt lat="14.289821100718665" lon="120.98292365556182"><ele>178.0</ele><time>2026-04-04T01:27:37Z</time></trkpt><trkpt lat="14.289874642701" lon="120.98279456711757"><ele>177.5</ele><time>2026-04-04T01:27:38Z</time></trkpt><trkpt lat="14.28992944687279" lon="120.98266937124856"><ele>177.0</ele><time>2026-04-04T01:27:39Z</time></trkpt><trkpt lat="14.289977908405445" lon="120.98254950322094"><ele>176.5</ele><time>2026-04-04T01:27:40Z</time></trkpt><trkpt lat="14.290026509221299" lon="120.9824291527875"><ele>176.0</ele><time>2026-04-04T01:27:41Z</time></trkpt><trkpt lat="14.290070329683909" lon="120.98231469281176"><ele>176.0</ele><time>2026-04-04T01:27:42Z</time></trkpt><trkpt lat="14.290115756360503" lon="120.98219537834699"><ele>176.0</ele><time>2026-04-04T01:27:43Z</time></trkpt><trkpt lat="14.290161140729495" lon="120.98208234820414"><ele>176.0</ele><time>2026-04-04T01:27:44Z</time></trkpt><trkpt lat="14.290210038860247" lon="120.98196967040238"><ele>176.0</ele><time>2026-04-04T01:27:45Z</time></trkpt><trkpt lat="14.290259157860834" lon="120.9818532893859"><ele>176.0</ele><time>2026-04-04T01:27:46Z</time></trkpt><trkpt lat="14.290306758807642" lon="120.98173796876594"><ele>176.0</ele><time>2026-04-04T01:27:47Z</time></trkpt><trkpt lat="14.290355793176971" lon="120.98161561278307"><ele>176.0</ele><time>2026-04-04T01:27:48Z</time></trkpt><trkpt lat="14.290396530428469" lon="120.98150673975883"><ele>176.0</ele><time>2026-04-04T01:27:49Z</time></trkpt><trkpt lat="14.290446294659821" lon="120.98136576216712"><ele>175.0</ele><time>2026-04-04T01:27:50Z</time></trkpt><trkpt lat="14.290489919832481" lon="120.98120566514913"><ele>174.0</ele><time>2026-04-04T01:27:51Z</time></trkpt><trkpt lat="14.290505537292916" lon="120.9811166244927"><ele>173.0</ele><time>2026-04-04T01:27:52Z</time></trkpt><trkpt lat="14.290519159446967" lon="120.98098890829512"><ele>172.0</ele><time>2026-04-04T01:27:53Z</time></trkpt><trkpt lat="14.290525122095358" lon="120.98085261420209"><ele>170.5</ele><time>2026-04-04T01:27:54Z</time></trkpt><trkpt lat="14.29051859315064" lon="120.98072382425475"><ele>169.0</ele><time>2026-04-04T01:27:55Z</time></trkpt><trkpt lat="14.290514999831018" lon="120.98059061119399"><ele>167.5</ele><time>2026-04-04T01:27:56Z</time></trkpt><trkpt lat="14.290514069745463" lon="120.98045362679296"><ele>166.0</ele><time>2026-04-04T01:27:57Z</time></trkpt><trkpt lat="14.290513245712189" lon="120.98031780650015"><ele>166.0</ele><time>2026-04-04T01:27:58Z</time></trkpt><trkpt lat="14.290514282036536" lon="120.98018343616124"><ele>166.0</ele><time>2026-04-04T01:27:59Z</time></trkpt><trkpt lat="14.290513107131387" lon="120.98005598415963"><ele>166.0</ele><time>2026-04-04T01:28:00Z</time></trkpt><trkpt lat="14.290515463210154" lon="120.97992043439788"><ele>166.0</ele><time>2026-04-04T01:28:01Z</time></trkpt><trkpt lat="14.290519608540603" lon="120.97978570476774"><ele>167.75</ele><time>2026-04-04T01:28:02Z</time></trkpt><trkpt lat="14.290527419752495" lon="120.97965014004495"><ele>169.5</ele><time>2026-04-04T01:28:03Z</time></trkpt><trkpt lat="14.290539779050514" lon="120.97951269317348"><ele>171.25</ele><time>2026-04-04T01:28:04Z</time></trkpt><trkpt lat="14.290549942904068" lon="120.97937148189784"><ele>173.0</ele><time>2026-04-04T01:28:05Z</time></trkpt><trkpt lat="14.290560867790877" lon="120.97922716780197"><ele>173.75</ele><time>2026-04-04T01:28:06Z</time></trkpt><trkpt lat="14.290562839220106" lon="120.97909695730507"><ele>174.5</ele><time>2026-04-04T01:28:07Z</time></trkpt><trkpt lat="14.290560189926074" lon="120.97896463145405"><ele>175.25</ele><time>2026-04-04T01:28:08Z</time></trkpt><trkpt lat="14.290561335385812" lon="120.97882576689518"><ele>176.0</ele><time>2026-04-04T01:28:09Z</time></trkpt><trkpt lat="14.290561984972163" lon="120.97868905836138"><ele>176.0</ele><time>2026-04-04T01:28:10Z</time></trkpt><trkpt lat="14.290561102225213" lon="120.97855832768164"><ele>176.0</ele><time>2026-04-04T01:28:11Z</time></trkpt><trkpt lat="14.290567808901386" lon="120.9784223135418"><ele>176.0</ele><time>2026-04-04T01:28:12Z</time></trkpt><trkpt lat="14.290564242718775" lon="120.9782992920945"><ele>176.0</ele><time>2026-04-04T01:28:13Z</time></trkpt><trkpt lat="14.29057299340762" lon="120.97815479104925"><ele>177.25</ele><time>2026-04-04T01:28:14Z</time></trkpt><trkpt lat="14.290573438727037" lon="120.97801848750161"><ele>178.5</ele><time>2026-04-04T01:28:15Z</time></trkpt><trkpt lat="14.290575087134648" lon="120.97788261265285"><ele>179.75</ele><time>2026-04-04T01:28:16Z</time></trkpt><trkpt lat="14.290575681611" lon="120.97774632047701"><ele>181.0</ele><time>2026-04-04T01:28:17Z</time></trkpt><trkpt lat="14.290573655310594" lon="120.97761414175191"><ele>181.25</ele><time>2026-04-04T01:28:18Z</time></trkpt><trkpt lat="14.290578033252027" lon="120.97747383720495"><ele>181.5</ele><time>2026-04-04T01:28:19Z</time></trkpt><trkpt lat="14.290580739880978" lon="120.9773298270811"><ele>181.75</ele><time>2026-04-04T01:28:20Z</time></trkpt><trkpt lat="14.29058453979894" lon="120.97718770066113"><ele>182.0</ele><time>2026-04-04T01:28:21Z</time></trkpt><trkpt lat="14.29058365221779" lon="120.97704993753418"><ele>182.0</ele><time>2026-04-04T01:28:22Z</time></trkpt><trkpt lat="14.290586538363796" lon="120.97690622348028"><ele>182.0</ele><time>2026-04-04T01:28:23Z</time></trkpt><trkpt lat="14.290583903054243" lon="120.97676986604289"><ele>182.0</ele><time>2026-04-04T01:28:24Z</time></trkpt><trkpt lat="14.290583224321724" lon="120.9766330010468"><ele>182.0</ele><time>2026-04-04T01:28:25Z</time></trkpt><trkpt lat="14.290584056794206" lon="120.97650860300566"><ele>181.6</ele><time>2026-04-04T01:28:26Z</time></trkpt><trkpt lat="14.290585727173587" lon="120.97639323132454"><ele>181.2</ele><time>2026-04-04T01:28:27Z</time></trkpt><trkpt lat="14.290588042912885" lon="120.97628252434211"><ele>180.8</ele><time>2026-04-04T01:28:28Z</time></trkpt><trkpt lat="14.290586802926969" lon="120.97617480361917"><ele>180.4</ele><time>2026-04-04T01:28:29Z</time></trkpt><trkpt lat="14.290581932365951" lon="120.97606385256421"><ele>180.0</ele><time>2026-04-04T01:28:30Z</time></trkpt><trkpt lat="14.290583997764465" lon="120.97595330961352"><ele>179.6</ele><time>2026-04-04T01:28:31Z</time></trkpt><trkpt lat="14.290582883077889" lon="120.97584991489153"><ele>179.2</ele><time>2026-04-04T01:28:32Z</time></trkpt><trkpt lat="14.290583025769958" lon="120.97575353533227"><ele>178.8</ele><time>2026-04-04T01:28:33Z</time></trkpt><trkpt lat="14.290585483295178" lon="120.97565870023396"><ele>178.4</ele><time>2026-04-04T01:28:34Z</time></trkpt><trkpt lat="14.290588410526555" lon="120.97556161425005"><ele>178.0</ele><time>2026-04-04T01:28:35Z</time></trkpt><trkpt lat="14.290594223266215" lon="120.97545967887633"><ele>178.0</ele><time>2026-04-04T01:28:36Z</time></trkpt><trkpt lat="14.290603325553928" lon="120.97537073501499"><ele>178.0</ele><time>2026-04-04T01:28:37Z</time></trkpt><trkpt lat="14.290608988345681" lon="120.97527789207955"><ele>178.0</ele><time>2026-04-04T01:28:38Z</time></trkpt><trkpt lat="14.290618438826563" lon="120.97519456013814"><ele>178.0</ele><time>2026-04-04T01:28:39Z</time></trkpt><trkpt lat="14.29062047332009" lon="120.97512924187916"><ele>178.0</ele><time>2026-04-04T01:28:40Z</time></trkpt><trkpt lat="14.290623989284386" lon="120.9750500988977"><ele>178.0</ele><time>2026-04-04T01:28:41Z</time></trkpt><trkpt lat="14.29063888460594" lon="120.97497260862623"><ele>177.4</ele><time>2026-04-04T01:28:42Z</time></trkpt><trkpt lat="14.290663768593248" lon="120.9748839996502"><ele>176.8</ele><time>2026-04-04T01:28:43Z</time></trkpt><trkpt lat="14.290689701530342" lon="120.97478694829151"><ele>176.2</ele><time>2026-04-04T01:28:44Z</time></trkpt><trkpt lat="14.290717510922317" lon="120.97467716681139"><ele>175.6</ele><time>2026-04-04T01:28:45Z</time></trkpt><trkpt lat="14.29075412252946" lon="120.97456000035304"><ele>175.0</ele><time>2026-04-04T01:28:46Z</time></trkpt><trkpt lat="14.290796652669574" lon="120.97443928136644"><ele>175.0</ele><time>2026-04-04T01:28:47Z</time></trkpt><trkpt lat="14.290842257262181" lon="120.9743170004439"><ele>175.0</ele><time>2026-04-04T01:28:48Z</time></trkpt><trkpt lat="14.290896222873066" lon="120.97419017561316"><ele>175.0</ele><time>2026-04-04T01:28:49Z</time></trkpt><trkpt lat="14.290951501232428" lon="120.97406225974535"><ele>175.0</ele><time>2026-04-04T01:28:50Z</time></trkpt><trkpt lat="14.291010647012335" lon="120.97394900929666"><ele>174.5</ele><time>2026-04-04T01:28:51Z</time></trkpt><trkpt lat="14.291073126812629" lon="120.97383800549021"><ele>174.0</ele><time>2026-04-04T01:28:52Z</time></trkpt><trkpt lat="14.291127510440832" lon="120.97372810794504"><ele>173.5</ele><time>2026-04-04T01:28:53Z</time></trkpt><trkpt lat="14.291189347010182" lon="120.97361651543835"><ele>173.0</ele><time>2026-04-04T01:28:54Z</time></trkpt><trkpt lat="14.291254740615857" lon="120.97351340166301"><ele>173.0</ele><time>2026-04-04T01:28:55Z</time></trkpt><trkpt lat="14.291328606140482" lon="120.97342136836795"><ele>173.0</ele><time>2026-04-04T01:28:56Z</time></trkpt><trkpt lat="14.291409270970844" lon="120.97333820688635"><ele>173.0</ele><time>2026-04-04T01:28:57Z</time></trkpt><trkpt lat="14.29149585765346" lon="120.97325998025246"><ele>173.0</ele><time>2026-04-04T01:28:58Z</time></trkpt><trkpt lat="14.291591556058105" lon="120.97318114611615"><ele>172.5</ele><time>2026-04-04T01:28:59Z</time></trkpt><trkpt lat="14.291699245732916" lon="120.97310437497268"><ele>172.0</ele><time>2026-04-04T01:29:00Z</time></trkpt><trkpt lat="14.291811135259028" lon="120.9730271804227"><ele>171.5</ele><time>2026-04-04T01:29:01Z</time></trkpt><trkpt lat="14.291919918095088" lon="120.97295535126526"><ele>171.0</ele><time>2026-04-04T01:29:02Z</time></trkpt><trkpt lat="14.292021742140689" lon="120.97288112247219"><ele>171.0</ele><time>2026-04-04T01:29:03Z</time></trkpt><trkpt lat="14.292144487592966" lon="120.97281153740713"><ele>171.0</ele><time>2026-04-04T01:29:04Z</time></trkpt><trkpt lat="14.292246539002548" lon="120.97273743498297"><ele>171.0</ele><time>2026-04-04T01:29:05Z</time></trkpt><trkpt lat="14.29235507140156" lon="120.97266533231533"><ele>171.0</ele><time>2026-04-04T01:29:06Z</time></trkpt><trkpt lat="14.29246586381604" lon="120.97259312672"><ele>168.0</ele><time>2026-04-04T01:29:07Z</time></trkpt><trkpt lat="14.2925784202407" lon="120.9725157321498"><ele>165.0</ele><time>2026-04-04T01:29:08Z</time></trkpt><trkpt lat="14.292690822926627" lon="120.97244318126683"><ele>162.0</ele><time>2026-04-04T01:29:09Z</time></trkpt><trkpt lat="14.292792504407364" lon="120.97236928841711"><ele>159.0</ele><time>2026-04-04T01:29:10Z</time></trkpt><trkpt lat="14.292888611115398" lon="120.97231399095222"><ele>159.0</ele><time>2026-04-04T01:29:11Z</time></trkpt><trkpt lat="14.292967083427934" lon="120.97226009690867"><ele>159.0</ele><time>2026-04-04T01:29:12Z</time></trkpt><trkpt lat="14.29304126177923" lon="120.97221152135857"><ele>159.0</ele><time>2026-04-04T01:29:13Z</time></trkpt><trkpt lat="14.293116029502471" lon="120.97216495990959"><ele>159.0</ele><time>2026-04-04T01:29:14Z</time></trkpt><trkpt lat="14.29319028530604" lon="120.97211437111773"><ele>159.0</ele><time>2026-04-04T01:29:15Z</time></trkpt><trkpt lat="14.293265494801064" lon="120.97205482289758"><ele>159.4</ele><time>2026-04-04T01:29:16Z</time></trkpt><trkpt lat="14.293329413286006" lon="120.97197966836013"><ele>159.8</ele><time>2026-04-04T01:29:17Z</time></trkpt><trkpt lat="14.29338196879848" lon="120.97188649519873"><ele>160.20000000000002</ele><time>2026-04-04T01:29:18Z</time></trkpt><trkpt lat="14.293417219651747" lon="120.97179019908002"><ele>160.60000000000002</ele><time>2026-04-04T01:29:19Z</time></trkpt><trkpt lat="14.293443879422174" lon="120.97168673915766"><ele>161.0</ele><time>2026-04-04T01:29:20Z</time></trkpt><trkpt lat="14.293461581097503" lon="120.97159155361156"><ele>161.0</ele><time>2026-04-04T01:29:21Z</time></trkpt><trkpt lat="14.293468889332905" lon="120.97149714680512"><ele>161.0</ele><time>2026-04-04T01:29:22Z</time></trkpt><trkpt lat="14.293474378717706" lon="120.97140382425869"><ele>161.0</ele><time>2026-04-04T01:29:23Z</time></trkpt><trkpt lat="14.293463348138813" lon="120.9713028527094"><ele>161.0</ele><time>2026-04-04T01:29:24Z</time></trkpt><trkpt lat="14.293451290108298" lon="120.97119928033815"><ele>161.0</ele><time>2026-04-04T01:29:25Z</time></trkpt><trkpt lat="14.29344281582943" lon="120.97109858256418"><ele>161.0</ele><time>2026-04-04T01:29:26Z</time></trkpt><trkpt lat="14.293437969181161" lon="120.97101448888517"><ele>161.0</ele><time>2026-04-04T01:29:27Z</time></trkpt><trkpt lat="14.293422643192974" lon="120.97095144393938"><ele>161.0</ele><time>2026-04-04T01:29:28Z</time></trkpt><trkpt lat="14.293412839774279" lon="120.97087286058563"><ele>161.0</ele><time>2026-04-04T01:29:31Z</time></trkpt><trkpt lat="14.29340536020975" lon="120.97080634640791"><ele>161.0</ele><time>2026-04-04T01:30:17Z</time></trkpt><trkpt lat="14.293399674494681" lon="120.97073143368219"><ele>161.0</ele><time>2026-04-04T01:30:19Z</time></trkpt><trkpt lat="14.293389505225798" lon="120.97064536613712"><ele>161.0</ele><time>2026-04-04T01:30:20.999Z</time></trkpt><trkpt lat="14.293396809213407" lon="120.9705651718038"><ele>161.8</ele><time>2026-04-04T01:30:22.999Z</time></trkpt><trkpt lat="14.293300555179094" lon="120.97048170220869"><ele>162.60000000000002</ele><time>2026-04-04T01:30:24.999Z</time></trkpt><trkpt lat="14.293171157582737" lon="120.97051656932713"><ele>163.4</ele><time>2026-04-04T01:30:26.999Z</time></trkpt><trkpt lat="14.293105299415418" lon="120.97051226277397"><ele>164.2</ele><time>2026-04-04T01:30:27.999Z</time></trkpt><trkpt lat="14.293013183231514" lon="120.97052674781202"><ele>165.0</ele><time>2026-04-04T01:30:28.999Z</time></trkpt><trkpt lat="14.292929729937487" lon="120.97052120718999"><ele>165.5</ele><time>2026-04-04T01:30:29.999Z</time></trkpt><trkpt lat="14.292841061596219" lon="120.97049203423308"><ele>166.0</ele><time>2026-04-04T01:30:30.999Z</time></trkpt><trkpt lat="14.29277305221364" lon="120.97046765815713"><ele>166.5</ele><time>2026-04-04T01:30:31.999Z</time></trkpt><trkpt lat="14.29268921027486" lon="120.97043986218948"><ele>167.0</ele><time>2026-04-04T01:30:32.999Z</time></trkpt><trkpt lat="14.29261407367842" lon="120.97040884243819"><ele>167.5</ele><time>2026-04-04T01:30:33.999Z</time></trkpt><trkpt lat="14.29253466303214" lon="120.97036298068566"><ele>168.0</ele><time>2026-04-04T01:30:34.999Z</time></trkpt><trkpt lat="14.292454572864369" lon="120.97030867548465"><ele>168.0</ele><time>2026-04-04T01:30:36Z</time></trkpt><trkpt lat="14.292379765063854" lon="120.97023851762039"><ele>168.0</ele><time>2026-04-04T01:30:37Z</time></trkpt><trkpt lat="14.292295798853507" lon="120.97017076478625"><ele>168.0</ele><time>2026-04-04T01:30:38Z</time></trkpt><trkpt lat="14.292217418687322" lon="120.97008530796275"><ele>168.0</ele><time>2026-04-04T01:30:39Z</time></trkpt><trkpt lat="14.292142468167793" lon="120.97000918901573"><ele>168.0</ele><time>2026-04-04T01:30:40Z</time></trkpt><trkpt lat="14.292064605207548" lon="120.96993216245043"><ele>168.0</ele><time>2026-04-04T01:30:41Z</time></trkpt><trkpt lat="14.292000824248548" lon="120.969869796735"><ele>168.0</ele><time>2026-04-04T01:30:42Z</time></trkpt><trkpt lat="14.291930099843984" lon="120.96979057518514"><ele>168.0</ele><time>2026-04-04T01:30:43Z</time></trkpt><trkpt lat="14.291857296375923" lon="120.96971090354964"><ele>168.0</ele><time>2026-04-04T01:30:44Z</time></trkpt><trkpt lat="14.291784157699034" lon="120.96963246097785"><ele>168.0</ele><time>2026-04-04T01:30:45Z</time></trkpt><trkpt lat="14.291711054458085" lon="120.96954776844598"><ele>168.0</ele><time>2026-04-04T01:30:46Z</time></trkpt><trkpt lat="14.291634154276508" lon="120.96945929871012"><ele>168.0</ele><time>2026-04-04T01:30:47Z</time></trkpt><trkpt lat="14.291554302785574" lon="120.96936865884621"><ele>168.0</ele><time>2026-04-04T01:30:48Z</time></trkpt><trkpt lat="14.291470973154757" lon="120.96927694328524"><ele>168.0</ele><time>2026-04-04T01:30:49Z</time></trkpt><trkpt lat="14.291387252565608" lon="120.96919086841845"><ele>167.75</ele><time>2026-04-04T01:30:50Z</time></trkpt><trkpt lat="14.291305824882885" lon="120.96909360051626"><ele>167.5</ele><time>2026-04-04T01:30:51Z</time></trkpt><trkpt lat="14.291225463006665" lon="120.96899951800853"><ele>167.25</ele><time>2026-04-04T01:30:52Z</time></trkpt><trkpt lat="14.291139146357954" lon="120.96888969347526"><ele>167.0</ele><time>2026-04-04T01:30:53Z</time></trkpt><trkpt lat="14.291063279967402" lon="120.9688032323533"><ele>167.0</ele><time>2026-04-04T01:30:54Z</time></trkpt><trkpt lat="14.290978178996056" lon="120.96870617999006"><ele>167.0</ele><time>2026-04-04T01:30:55Z</time></trkpt><trkpt lat="14.29089478665642" lon="120.96861171586939"><ele>167.0</ele><time>2026-04-04T01:30:56Z</time></trkpt><trkpt lat="14.290812093932175" lon="120.96852331543435"><ele>167.0</ele><time>2026-04-04T01:30:57Z</time></trkpt><trkpt lat="14.290729546740922" lon="120.9684318387265"><ele>166.75</ele><time>2026-04-04T01:30:58Z</time></trkpt><trkpt lat="14.290646064892488" lon="120.96833889068635"><ele>166.5</ele><time>2026-04-04T01:30:59Z</time></trkpt><trkpt lat="14.290562077558759" lon="120.96824922961689"><ele>166.25</ele><time>2026-04-04T01:31:00Z</time></trkpt><trkpt lat="14.290481013386348" lon="120.96815874414071"><ele>166.0</ele><time>2026-04-04T01:31:01Z</time></trkpt><trkpt lat="14.29039353264816" lon="120.96806922430598"><ele>166.0</ele><time>2026-04-04T01:31:02Z</time></trkpt><trkpt lat="14.29031141592506" lon="120.96797756554956"><ele>166.0</ele><time>2026-04-04T01:31:03Z</time></trkpt><trkpt lat="14.290228346233867" lon="120.96788512753292"><ele>166.0</ele><time>2026-04-04T01:31:04Z</time></trkpt><trkpt lat="14.290148388982505" lon="120.96778993428126"><ele>166.0</ele><time>2026-04-04T01:31:05Z</time></trkpt><trkpt lat="14.29008288377469" lon="120.96767381167184"><ele>166.0</ele><time>2026-04-04T01:31:06Z</time></trkpt><trkpt lat="14.290032254947569" lon="120.96754669454907"><ele>166.0</ele><time>2026-04-04T01:31:07Z</time></trkpt><trkpt lat="14.290007613824898" lon="120.96741680547142"><ele>166.0</ele><time>2026-04-04T01:31:08Z</time></trkpt><trkpt lat="14.289994637211237" lon="120.96728526825156"><ele>166.0</ele><time>2026-04-04T01:31:09Z</time></trkpt><trkpt lat="14.289975911695231" lon="120.96715337630873"><ele>165.75</ele><time>2026-04-04T01:31:10Z</time></trkpt><trkpt lat="14.289950097096941" lon="120.9670187042764"><ele>165.5</ele><time>2026-04-04T01:31:11Z</time></trkpt><trkpt lat="14.289919657650218" lon="120.96688100198634"><ele>165.25</ele><time>2026-04-04T01:31:12Z</time></trkpt><trkpt lat="14.28989006735731" lon="120.96673816239979"><ele>165.0</ele><time>2026-04-04T01:31:13Z</time></trkpt><trkpt lat="14.289857135994701" lon="120.96658770678347"><ele>166.0</ele><time>2026-04-04T01:31:14Z</time></trkpt><trkpt lat="14.289820002105442" lon="120.96643915567303"><ele>167.0</ele><time>2026-04-04T01:31:15Z</time></trkpt><trkpt lat="14.289790717740553" lon="120.9662981115157"><ele>168.0</ele><time>2026-04-04T01:31:16Z</time></trkpt><trkpt lat="14.289765821679088" lon="120.96617647746751"><ele>169.0</ele><time>2026-04-04T01:31:17Z</time></trkpt><trkpt lat="14.289740083234202" lon="120.9660562851061"><ele>169.25</ele><time>2026-04-04T01:31:18Z</time></trkpt><trkpt lat="14.2897110481212" lon="120.96593328103735"><ele>169.5</ele><time>2026-04-04T01:31:19Z</time></trkpt><trkpt lat="14.289666845419864" lon="120.96581518224477"><ele>169.75</ele><time>2026-04-04T01:31:20Z</time></trkpt><trkpt lat="14.289610212710338" lon="120.96570460364634"><ele>170.0</ele><time>2026-04-04T01:31:21Z</time></trkpt><trkpt lat="14.289536276858634" lon="120.9655929740573"><ele>171.0</ele><time>2026-04-04T01:31:22Z</time></trkpt><trkpt lat="14.289448864835652" lon="120.96548719038546"><ele>172.0</ele><time>2026-04-04T01:31:23Z</time></trkpt><trkpt lat="14.28938050994292" lon="120.96536182445395"><ele>173.0</ele><time>2026-04-04T01:31:24Z</time></trkpt><trkpt lat="14.289298144873841" lon="120.96524456728724"><ele>174.0</ele><time>2026-04-04T01:31:25Z</time></trkpt><trkpt lat="14.289213847603556" lon="120.96512311714167"><ele>174.0</ele><time>2026-04-04T01:31:26Z</time></trkpt><trkpt lat="14.289132892078532" lon="120.96499733701846"><ele>174.0</ele><time>2026-04-04T01:31:27Z</time></trkpt><trkpt lat="14.289044233664658" lon="120.96486799673173"><ele>174.0</ele><time>2026-04-04T01:31:28Z</time></trkpt><trkpt lat="14.288961817208248" lon="120.96474709730154"><ele>174.0</ele><time>2026-04-04T01:31:29Z</time></trkpt><trkpt lat="14.288883252664613" lon="120.96462875243768"><ele>174.0</ele><time>2026-04-04T01:31:30Z</time></trkpt><trkpt lat="14.288807542571854" lon="120.96451353382426"><ele>174.0</ele><time>2026-04-04T01:31:31Z</time></trkpt><trkpt lat="14.288726953858726" lon="120.96439368859548"><ele>174.0</ele><time>2026-04-04T01:31:32Z</time></trkpt><trkpt lat="14.2886486339866" lon="120.96428088431416"><ele>174.0</ele><time>2026-04-04T01:31:33Z</time></trkpt><trkpt lat="14.288561697890568" lon="120.96416337604524"><ele>174.0</ele><time>2026-04-04T01:31:34Z</time></trkpt><trkpt lat="14.288483073688385" lon="120.96404482927309"><ele>174.0</ele><time>2026-04-04T01:31:35Z</time></trkpt><trkpt lat="14.288412144578324" lon="120.96393366077112"><ele>174.0</ele><time>2026-04-04T01:31:36Z</time></trkpt><trkpt lat="14.288341342234506" lon="120.9638238025754"><ele>174.0</ele><time>2026-04-04T01:31:37Z</time></trkpt><trkpt lat="14.2882756417081" lon="120.96370842497413"><ele>174.0</ele><time>2026-04-04T01:31:38Z</time></trkpt><trkpt lat="14.288221075497923" lon="120.96358937527617"><ele>174.0</ele><time>2026-04-04T01:31:39Z</time></trkpt><trkpt lat="14.288187336609198" lon="120.96346558533266"><ele>174.0</ele><time>2026-04-04T01:31:40Z</time></trkpt><trkpt lat="14.288165720751328" lon="120.9633356123723"><ele>174.0</ele><time>2026-04-04T01:31:41Z</time></trkpt><trkpt lat="14.288150232921362" lon="120.96320762214387"><ele>173.5</ele><time>2026-04-04T01:31:42Z</time></trkpt><trkpt lat="14.288132167761935" lon="120.96307521297666"><ele>173.0</ele><time>2026-04-04T01:31:43Z</time></trkpt><trkpt lat="14.288107802870401" lon="120.96293573222421"><ele>172.5</ele><time>2026-04-04T01:31:44Z</time></trkpt><trkpt lat="14.288087726734645" lon="120.96279822325003"><ele>172.0</ele><time>2026-04-04T01:31:45Z</time></trkpt><trkpt lat="14.28806380743419" lon="120.96265741166746"><ele>171.25</ele><time>2026-04-04T01:31:46Z</time></trkpt><trkpt lat="14.288042613769347" lon="120.96251809068137"><ele>170.5</ele><time>2026-04-04T01:31:47Z</time></trkpt><trkpt lat="14.288018454102902" lon="120.96237735120005"><ele>169.75</ele><time>2026-04-04T01:31:48Z</time></trkpt><trkpt lat="14.287992591803505" lon="120.96222931086801"><ele>169.0</ele><time>2026-04-04T01:31:49Z</time></trkpt><trkpt lat="14.287969306812858" lon="120.9620836715628"><ele>169.0</ele><time>2026-04-04T01:31:50Z</time></trkpt><trkpt lat="14.28794448958937" lon="120.96193737526885"><ele>169.0</ele><time>2026-04-04T01:31:51Z</time></trkpt><trkpt lat="14.287917913395317" lon="120.96179845643368"><ele>169.0</ele><time>2026-04-04T01:31:52Z</time></trkpt><trkpt lat="14.287883238240827" lon="120.96166199271362"><ele>169.0</ele><time>2026-04-04T01:31:53Z</time></trkpt><trkpt lat="14.287840544501236" lon="120.96152863538833"><ele>168.5</ele><time>2026-04-04T01:31:54Z</time></trkpt><trkpt lat="14.287786516040926" lon="120.96139957841592"><ele>168.0</ele><time>2026-04-04T01:31:55Z</time></trkpt><trkpt lat="14.287714935171408" lon="120.96127990925363"><ele>167.5</ele><time>2026-04-04T01:31:56Z</time></trkpt><trkpt lat="14.287639027761395" lon="120.96116539435269"><ele>167.0</ele><time>2026-04-04T01:31:57Z</time></trkpt><trkpt lat="14.287564310937416" lon="120.96104778915549"><ele>167.0</ele><time>2026-04-04T01:31:58Z</time></trkpt><trkpt lat="14.287501929530423" lon="120.96093071475562"><ele>167.0</ele><time>2026-04-04T01:31:59Z</time></trkpt><trkpt lat="14.287461032792029" lon="120.9608065241283"><ele>167.0</ele><time>2026-04-04T01:32:00Z</time></trkpt><trkpt lat="14.287394956509354" lon="120.96069455589343"><ele>167.0</ele><time>2026-04-04T01:32:01Z</time></trkpt><trkpt lat="14.287345054802584" lon="120.96057617618021"><ele>167.2</ele><time>2026-04-04T01:32:02Z</time></trkpt><trkpt lat="14.28729557151837" lon="120.96046076126224"><ele>167.39999999999998</ele><time>2026-04-04T01:32:03Z</time></trkpt><trkpt lat="14.287250963173545" lon="120.96035452844362"><ele>167.60000000000002</ele><time>2026-04-04T01:32:04Z</time></trkpt><trkpt lat="14.28722996439859" lon="120.96024937210622"><ele>167.8</ele><time>2026-04-04T01:32:05Z</time></trkpt><trkpt lat="14.287205768387842" lon="120.96014528077554"><ele>168.0</ele><time>2026-04-04T01:32:06Z</time></trkpt><trkpt lat="14.287171087938715" lon="120.96004811224778"><ele>168.5</ele><time>2026-04-04T01:32:07Z</time></trkpt><trkpt lat="14.28715482565439" lon="120.95994920477563"><ele>169.0</ele><time>2026-04-04T01:32:08Z</time></trkpt><trkpt lat="14.287145196169867" lon="120.95985947077915"><ele>169.5</ele><time>2026-04-04T01:32:09Z</time></trkpt><trkpt lat="14.287139664108302" lon="120.95979273395162"><ele>170.0</ele><time>2026-04-04T01:32:10Z</time></trkpt><trkpt lat="14.28713942455006" lon="120.95972474879349"><ele>170.5</ele><time>2026-04-04T01:32:11Z</time></trkpt><trkpt lat="14.28713100270587" lon="120.95965687099856"><ele>171.0</ele><time>2026-04-04T01:32:12Z</time></trkpt><trkpt lat="14.287127523825642" lon="120.95955210375895"><ele>171.0</ele><time>2026-04-04T01:32:14Z</time></trkpt><trkpt lat="14.287114004134638" lon="120.95948424816594"><ele>171.0</ele><time>2026-04-04T01:32:19Z</time></trkpt><trkpt lat="14.287082235872681" lon="120.95938334972011"><ele>171.0</ele><time>2026-04-04T01:32:23Z</time></trkpt><trkpt lat="14.28692500858249" lon="120.95939233264777"><ele>171.0</ele><time>2026-04-04T01:32:25Z</time></trkpt><trkpt lat="14.28679445845192" lon="120.95939580231422"><ele>171.0</ele><time>2026-04-04T01:32:26.999Z</time></trkpt><trkpt lat="14.286725205975438" lon="120.95940134379623"><ele>171.0</ele><time>2026-04-04T01:32:27.999Z</time></trkpt><trkpt lat="14.286645578522933" lon="120.95941207055776"><ele>171.0</ele><time>2026-04-04T01:32:28.999Z</time></trkpt><trkpt lat="14.2865611891655" lon="120.95942297373311"><ele>171.0</ele><time>2026-04-04T01:32:29.999Z</time></trkpt><trkpt lat="14.286483215530293" lon="120.95943305338788"><ele>171.0</ele><time>2026-04-04T01:32:30.999Z</time></trkpt><trkpt lat="14.286401531238209" lon="120.95944226766755"><ele>171.0</ele><time>2026-04-04T01:32:31.999Z</time></trkpt><trkpt lat="14.28632194574246" lon="120.9594519123692"><ele>171.4</ele><time>2026-04-04T01:32:32.999Z</time></trkpt><trkpt lat="14.286233835274459" lon="120.95946664550819"><ele>171.8</ele><time>2026-04-04T01:32:33.999Z</time></trkpt><trkpt lat="14.286138162979144" lon="120.9594809107385"><ele>172.20000000000002</ele><time>2026-04-04T01:32:34.999Z</time></trkpt><trkpt lat="14.286041415740964" lon="120.9594913247714"><ele>172.60000000000002</ele><time>2026-04-04T01:32:35.999Z</time></trkpt><trkpt lat="14.285942541592853" lon="120.95950453120119"><ele>173.0</ele><time>2026-04-04T01:32:36.999Z</time></trkpt><trkpt lat="14.285840424453115" lon="120.95951576758151"><ele>173.0</ele><time>2026-04-04T01:32:37.999Z</time></trkpt><trkpt lat="14.28573944925953" lon="120.95952845446969"><ele>173.0</ele><time>2026-04-04T01:32:38.999Z</time></trkpt><trkpt lat="14.28563987674982" lon="120.95954006968813"><ele>173.0</ele><time>2026-04-04T01:32:39.999Z</time></trkpt><trkpt lat="14.285540358500207" lon="120.95955273526393"><ele>173.0</ele><time>2026-04-04T01:32:40.999Z</time></trkpt><trkpt lat="14.285436944072908" lon="120.95956696071326"><ele>173.0</ele><time>2026-04-04T01:32:41.999Z</time></trkpt><trkpt lat="14.28533208590259" lon="120.95958073028686"><ele>174.0</ele><time>2026-04-04T01:32:42.999Z</time></trkpt><trkpt lat="14.285231276642685" lon="120.95959454213832"><ele>175.0</ele><time>2026-04-04T01:32:43.999Z</time></trkpt><trkpt lat="14.285126966372326" lon="120.95960899948645"><ele>176.0</ele><time>2026-04-04T01:32:44.999Z</time></trkpt><trkpt lat="14.285011202157158" lon="120.9596224378937"><ele>177.0</ele><time>2026-04-04T01:32:45.999Z</time></trkpt><trkpt lat="14.284905148284226" lon="120.95963605798934"><ele>178.0</ele><time>2026-04-04T01:32:46.999Z</time></trkpt><trkpt lat="14.28479746768899" lon="120.95964758405242"><ele>178.5</ele><time>2026-04-04T01:32:47.999Z</time></trkpt><trkpt lat="14.284679737593592" lon="120.95967147819111"><ele>179.0</ele><time>2026-04-04T01:32:48.999Z</time></trkpt><trkpt lat="14.284566705319893" lon="120.95969503702636"><ele>179.5</ele><time>2026-04-04T01:32:49.999Z</time></trkpt><trkpt lat="14.28445614309891" lon="120.95973404553251"><ele>180.0</ele><time>2026-04-04T01:32:51Z</time></trkpt><trkpt lat="14.284341433694296" lon="120.95978064789495"><ele>180.0</ele><time>2026-04-04T01:32:52Z</time></trkpt><trkpt lat="14.284224113812652" lon="120.95983878501322"><ele>180.0</ele><time>2026-04-04T01:32:53Z</time></trkpt><trkpt lat="14.284115412104038" lon="120.95990199393374"><ele>180.0</ele><time>2026-04-04T01:32:54Z</time></trkpt><trkpt lat="14.28400426030109" lon="120.95997609149015"><ele>180.0</ele><time>2026-04-04T01:32:55Z</time></trkpt><trkpt lat="14.283898823606933" lon="120.96004834428827"><ele>180.25</ele><time>2026-04-04T01:32:56Z</time></trkpt><trkpt lat="14.283792449546834" lon="120.96012140276063"><ele>180.5</ele><time>2026-04-04T01:32:57Z</time></trkpt><trkpt lat="14.283689607522938" lon="120.96019554506877"><ele>180.75</ele><time>2026-04-04T01:32:58Z</time></trkpt><trkpt lat="14.283587950260372" lon="120.96026423385413"><ele>181.0</ele><time>2026-04-04T01:32:59Z</time></trkpt><trkpt lat="14.28348792277328" lon="120.96033119637538"><ele>181.0</ele><time>2026-04-04T01:33:00Z</time></trkpt><trkpt lat="14.283389895110643" lon="120.96039911383137"><ele>181.0</ele><time>2026-04-04T01:33:01Z</time></trkpt><trkpt lat="14.283290400985393" lon="120.96046825475783"><ele>181.0</ele><time>2026-04-04T01:33:02Z</time></trkpt><trkpt lat="14.283190243769885" lon="120.96054399791704"><ele>181.0</ele><time>2026-04-04T01:33:03Z</time></trkpt><trkpt lat="14.283091882723282" lon="120.96061645660394"><ele>181.0</ele><time>2026-04-04T01:33:04Z</time></trkpt><trkpt lat="14.282985601514564" lon="120.96069352491925"><ele>181.0</ele><time>2026-04-04T01:33:05Z</time></trkpt><trkpt lat="14.282876642958712" lon="120.96077030716306"><ele>181.0</ele><time>2026-04-04T01:33:06Z</time></trkpt><trkpt lat="14.282775611814145" lon="120.96084575055146"><ele>181.0</ele><time>2026-04-04T01:33:07Z</time></trkpt><trkpt lat="14.2826675450733" lon="120.96091832460412"><ele>181.0</ele><time>2026-04-04T01:33:08Z</time></trkpt><trkpt lat="14.282558253163009" lon="120.96099541166613"><ele>181.0</ele><time>2026-04-04T01:33:09Z</time></trkpt><trkpt lat="14.282449588543619" lon="120.96107122705463"><ele>181.0</ele><time>2026-04-04T01:33:10Z</time></trkpt><trkpt lat="14.282339680713596" lon="120.96114711338608"><ele>181.0</ele><time>2026-04-04T01:33:11Z</time></trkpt><trkpt lat="14.282223517722247" lon="120.9612306632738"><ele>181.5</ele><time>2026-04-04T01:33:12Z</time></trkpt><trkpt lat="14.282117800704315" lon="120.96130092598884"><ele>182.0</ele><time>2026-04-04T01:33:13Z</time></trkpt><trkpt lat="14.28200704061144" lon="120.96137471065441"><ele>182.5</ele><time>2026-04-04T01:33:14Z</time></trkpt><trkpt lat="14.281901013438679" lon="120.96145227035404"><ele>183.0</ele><time>2026-04-04T01:33:15Z</time></trkpt><trkpt lat="14.281796510273981" lon="120.96152543393812"><ele>183.0</ele><time>2026-04-04T01:33:16Z</time></trkpt><trkpt lat="14.281685671939043" lon="120.96160208889616"><ele>183.0</ele><time>2026-04-04T01:33:17Z</time></trkpt><trkpt lat="14.28158292201089" lon="120.96167611773716"><ele>183.0</ele><time>2026-04-04T01:33:18Z</time></trkpt><trkpt lat="14.28147600295373" lon="120.96175247344128"><ele>183.0</ele><time>2026-04-04T01:33:19Z</time></trkpt><trkpt lat="14.281366282144239" lon="120.96183061810092"><ele>183.0</ele><time>2026-04-04T01:33:20Z</time></trkpt><trkpt lat="14.281260119314592" lon="120.96190623857314"><ele>183.0</ele><time>2026-04-04T01:33:21Z</time></trkpt><trkpt lat="14.281151315875583" lon="120.96198173179673"><ele>183.0</ele><time>2026-04-04T01:33:22Z</time></trkpt><trkpt lat="14.281043200165906" lon="120.96205696469318"><ele>183.0</ele><time>2026-04-04T01:33:23Z</time></trkpt><trkpt lat="14.280925118089897" lon="120.9621323830922"><ele>183.0</ele><time>2026-04-04T01:33:24Z</time></trkpt><trkpt lat="14.280819107612313" lon="120.96220416915716"><ele>183.0</ele><time>2026-04-04T01:33:25Z</time></trkpt><trkpt lat="14.28070362392294" lon="120.9622816705518"><ele>183.0</ele><time>2026-04-04T01:33:26Z</time></trkpt><trkpt lat="14.280593815514258" lon="120.96235519767573"><ele>183.0</ele><time>2026-04-04T01:33:27Z</time></trkpt><trkpt lat="14.280476988587704" lon="120.96243406348688"><ele>183.5</ele><time>2026-04-04T01:33:28Z</time></trkpt><trkpt lat="14.280363516109134" lon="120.96250901950665"><ele>184.0</ele><time>2026-04-04T01:33:29Z</time></trkpt><trkpt lat="14.280258150378938" lon="120.9625769693542"><ele>184.5</ele><time>2026-04-04T01:33:30Z</time></trkpt><trkpt lat="14.280151961242977" lon="120.96264752117833"><ele>185.0</ele><time>2026-04-04T01:33:31Z</time></trkpt><trkpt lat="14.280058438752453" lon="120.96271415527488"><ele>185.5</ele><time>2026-04-04T01:33:32Z</time></trkpt><trkpt lat="14.279957586238924" lon="120.96278358944645"><ele>186.0</ele><time>2026-04-04T01:33:33Z</time></trkpt><trkpt lat="14.27985168946975" lon="120.96285309193505"><ele>186.5</ele><time>2026-04-04T01:33:34Z</time></trkpt><trkpt lat="14.279749344288767" lon="120.96292073003201"><ele>187.0</ele><time>2026-04-04T01:33:35Z</time></trkpt><trkpt lat="14.279648748054456" lon="120.96298582300301"><ele>187.5</ele><time>2026-04-04T01:33:36Z</time></trkpt><trkpt lat="14.27954622577661" lon="120.96305314201774"><ele>188.0</ele><time>2026-04-04T01:33:37Z</time></trkpt><trkpt lat="14.279444761025413" lon="120.963118333452"><ele>188.5</ele><time>2026-04-04T01:33:38Z</time></trkpt><trkpt lat="14.279339014799099" lon="120.96319280905152"><ele>189.0</ele><time>2026-04-04T01:33:39Z</time></trkpt><trkpt lat="14.279227099108164" lon="120.96326693922055"><ele>189.0</ele><time>2026-04-04T01:33:40Z</time></trkpt><trkpt lat="14.279120754296333" lon="120.96333223105364"><ele>189.0</ele><time>2026-04-04T01:33:41Z</time></trkpt><trkpt lat="14.279008082538015" lon="120.96340582644147"><ele>189.0</ele><time>2026-04-04T01:33:42Z</time></trkpt><trkpt lat="14.278897658814918" lon="120.9634708152928"><ele>189.0</ele><time>2026-04-04T01:33:43Z</time></trkpt><trkpt lat="14.278787263690285" lon="120.96355063288756"><ele>190.0</ele><time>2026-04-04T01:33:44Z</time></trkpt><trkpt lat="14.278678384742012" lon="120.96362982480859"><ele>191.0</ele><time>2026-04-04T01:33:45Z</time></trkpt><trkpt lat="14.278570895222163" lon="120.96370561098415"><ele>192.0</ele><time>2026-04-04T01:33:46Z</time></trkpt><trkpt lat="14.27846375705505" lon="120.96377687066379"><ele>193.0</ele><time>2026-04-04T01:33:47Z</time></trkpt><trkpt lat="14.278360224880403" lon="120.96384467018088"><ele>193.0</ele><time>2026-04-04T01:33:48Z</time></trkpt><trkpt lat="14.278250275041442" lon="120.96391389699765"><ele>193.0</ele><time>2026-04-04T01:33:49Z</time></trkpt><trkpt lat="14.278147118545531" lon="120.96398264409197"><ele>193.0</ele><time>2026-04-04T01:33:50Z</time></trkpt><trkpt lat="14.27804148621658" lon="120.96405380944806"><ele>193.0</ele><time>2026-04-04T01:33:51Z</time></trkpt><trkpt lat="14.277932673494362" lon="120.96412469655242"><ele>194.0</ele><time>2026-04-04T01:33:52Z</time></trkpt><trkpt lat="14.277821536783716" lon="120.9642019819739"><ele>195.0</ele><time>2026-04-04T01:33:53Z</time></trkpt><trkpt lat="14.27770822516644" lon="120.96427826034561"><ele>196.0</ele><time>2026-04-04T01:33:54Z</time></trkpt><trkpt lat="14.277596515122626" lon="120.96435020157863"><ele>197.0</ele><time>2026-04-04T01:33:55Z</time></trkpt><trkpt lat="14.277480570307896" lon="120.96442262724733"><ele>197.0</ele><time>2026-04-04T01:33:56Z</time></trkpt><trkpt lat="14.277360011717874" lon="120.96449041229742"><ele>197.0</ele><time>2026-04-04T01:33:57Z</time></trkpt><trkpt lat="14.27723105699817" lon="120.96455100452926"><ele>197.0</ele><time>2026-04-04T01:33:58Z</time></trkpt><trkpt lat="14.277082645245207" lon="120.96458144945849"><ele>197.0</ele><time>2026-04-04T01:33:59Z</time></trkpt><trkpt lat="14.276949587518516" lon="120.96463760377836"><ele>197.25</ele><time>2026-04-04T01:34:00Z</time></trkpt><trkpt lat="14.276818068068721" lon="120.96467586927226"><ele>197.5</ele><time>2026-04-04T01:34:01Z</time></trkpt><trkpt lat="14.276682868415318" lon="120.96469970990266"><ele>197.75</ele><time>2026-04-04T01:34:02Z</time></trkpt><trkpt lat="14.276555368114584" lon="120.96475215632698"><ele>198.0</ele><time>2026-04-04T01:34:03Z</time></trkpt><trkpt lat="14.276423483676156" lon="120.96478952333906"><ele>198.5</ele><time>2026-04-04T01:34:04Z</time></trkpt><trkpt lat="14.276287630003957" lon="120.964830177488"><ele>199.0</ele><time>2026-04-04T01:34:05Z</time></trkpt><trkpt lat="14.276151938539542" lon="120.96485142809199"><ele>199.5</ele><time>2026-04-04T01:34:06Z</time></trkpt><trkpt lat="14.276018722013294" lon="120.96488991989526"><ele>200.0</ele><time>2026-04-04T01:34:07Z</time></trkpt><trkpt lat="14.275887535026335" lon="120.96494304492016"><ele>200.0</ele><time>2026-04-04T01:34:08Z</time></trkpt><trkpt lat="14.275752950644703" lon="120.96498096897831"><ele>200.0</ele><time>2026-04-04T01:34:09Z</time></trkpt><trkpt lat="14.27562081405826" lon="120.96501741526909"><ele>200.0</ele><time>2026-04-04T01:34:10Z</time></trkpt><trkpt lat="14.275503718896603" lon="120.96504290807245"><ele>200.0</ele><time>2026-04-04T01:34:11Z</time></trkpt><trkpt lat="14.27540003026777" lon="120.96506698252"><ele>200.8</ele><time>2026-04-04T01:34:12Z</time></trkpt><trkpt lat="14.275308852006523" lon="120.965094029138"><ele>201.6</ele><time>2026-04-04T01:34:13Z</time></trkpt><trkpt lat="14.27522042466644" lon="120.96511850849497"><ele>202.39999999999998</ele><time>2026-04-04T01:34:14Z</time></trkpt><trkpt lat="14.27511930807697" lon="120.96514366417901"><ele>203.2</ele><time>2026-04-04T01:34:15Z</time></trkpt><trkpt lat="14.275013987324288" lon="120.96516928790761"><ele>204.0</ele><time>2026-04-04T01:34:16Z</time></trkpt><trkpt lat="14.274893705850332" lon="120.96519996830051"><ele>204.0</ele><time>2026-04-04T01:34:17Z</time></trkpt><trkpt lat="14.274792266931513" lon="120.96522737375506"><ele>204.0</ele><time>2026-04-04T01:34:18Z</time></trkpt><trkpt lat="14.274707133267691" lon="120.96524851387481"><ele>204.0</ele><time>2026-04-04T01:34:19Z</time></trkpt><trkpt lat="14.274646163347494" lon="120.96527720519352"><ele>204.0</ele><time>2026-04-04T01:34:20Z</time></trkpt><trkpt lat="14.274560513433816" lon="120.96530704874317"><ele>204.0</ele><time>2026-04-04T01:34:21Z</time></trkpt><trkpt lat="14.27446485950574" lon="120.96533995557732"><ele>204.75</ele><time>2026-04-04T01:34:22Z</time></trkpt><trkpt lat="14.27435638522141" lon="120.96537278386658"><ele>205.5</ele><time>2026-04-04T01:34:23Z</time></trkpt><trkpt lat="14.274235005221634" lon="120.96540281424771"><ele>206.25</ele><time>2026-04-04T01:34:24Z</time></trkpt><trkpt lat="14.274105370665986" lon="120.96543613022801"><ele>207.0</ele><time>2026-04-04T01:34:25Z</time></trkpt><trkpt lat="14.273969643576516" lon="120.96547419817327"><ele>207.5</ele><time>2026-04-04T01:34:26Z</time></trkpt><trkpt lat="14.273831949187084" lon="120.96551428737229"><ele>208.0</ele><time>2026-04-04T01:34:27Z</time></trkpt><trkpt lat="14.273686411708216" lon="120.96555517120342"><ele>208.5</ele><time>2026-04-04T01:34:28Z</time></trkpt><trkpt lat="14.27353865427953" lon="120.96559934073873"><ele>209.0</ele><time>2026-04-04T01:34:29Z</time></trkpt><trkpt lat="14.273387230408531" lon="120.96564730908278"><ele>209.0</ele><time>2026-04-04T01:34:30Z</time></trkpt><trkpt lat="14.273232446721826" lon="120.96569820631052"><ele>209.0</ele><time>2026-04-04T01:34:31Z</time></trkpt><trkpt lat="14.273088788849236" lon="120.96576275355741"><ele>209.0</ele><time>2026-04-04T01:34:32Z</time></trkpt><trkpt lat="14.272961614629148" lon="120.96582414666541"><ele>210.25</ele><time>2026-04-04T01:34:33Z</time></trkpt><trkpt lat="14.272831110922498" lon="120.96589323321565"><ele>211.5</ele><time>2026-04-04T01:34:34Z</time></trkpt><trkpt lat="14.272706309799485" lon="120.9659590184343"><ele>212.75</ele><time>2026-04-04T01:34:35Z</time></trkpt><trkpt lat="14.27257930230702" lon="120.96602480320291"><ele>214.0</ele><time>2026-04-04T01:34:36Z</time></trkpt><trkpt lat="14.272451270172708" lon="120.96608776481013"><ele>214.0</ele><time>2026-04-04T01:34:37Z</time></trkpt><trkpt lat="14.272322162185622" lon="120.96615242359616"><ele>214.0</ele><time>2026-04-04T01:34:38Z</time></trkpt><trkpt lat="14.272197247609842" lon="120.9662117777996"><ele>214.0</ele><time>2026-04-04T01:34:39Z</time></trkpt><trkpt lat="14.272072351953225" lon="120.96627842875334"><ele>214.0</ele><time>2026-04-04T01:34:40Z</time></trkpt><trkpt lat="14.27194418441744" lon="120.96635257004456"><ele>214.0</ele><time>2026-04-04T01:34:41Z</time></trkpt><trkpt lat="14.271804364253086" lon="120.96640487983863"><ele>214.0</ele><time>2026-04-04T01:34:42Z</time></trkpt><trkpt lat="14.271679053517918" lon="120.96646767189925"><ele>214.0</ele><time>2026-04-04T01:34:43Z</time></trkpt><trkpt lat="14.271538756474852" lon="120.96653790640377"><ele>214.0</ele><time>2026-04-04T01:34:44Z</time></trkpt><trkpt lat="14.27140135516131" lon="120.9666071813749"><ele>213.33333333333331</ele><time>2026-04-04T01:34:45Z</time></trkpt><trkpt lat="14.27126347286864" lon="120.9666760392771"><ele>212.66666666666669</ele><time>2026-04-04T01:34:46Z</time></trkpt><trkpt lat="14.271125228665829" lon="120.96674736114474"><ele>212.0</ele><time>2026-04-04T01:34:47Z</time></trkpt><trkpt lat="14.270985432476346" lon="120.96681202176887"><ele>213.0</ele><time>2026-04-04T01:34:48Z</time></trkpt><trkpt lat="14.270848978333166" lon="120.96687705134455"><ele>214.0</ele><time>2026-04-04T01:34:49Z</time></trkpt><trkpt lat="14.270719273571602" lon="120.96693826639333"><ele>215.0</ele><time>2026-04-04T01:34:50Z</time></trkpt><trkpt lat="14.270589515055228" lon="120.96699906582433"><ele>216.0</ele><time>2026-04-04T01:34:51Z</time></trkpt><trkpt lat="14.270459789958668" lon="120.96705950814821"><ele>216.0</ele><time>2026-04-04T01:34:52Z</time></trkpt><trkpt lat="14.270340812259686" lon="120.96711557254571"><ele>216.0</ele><time>2026-04-04T01:34:53Z</time></trkpt><trkpt lat="14.270232481371416" lon="120.96716661955574"><ele>216.0</ele><time>2026-04-04T01:34:54Z</time></trkpt><trkpt lat="14.270125383569743" lon="120.96721960042196"><ele>216.0</ele><time>2026-04-04T01:34:55Z</time></trkpt><trkpt lat="14.270027801561614" lon="120.96726802089017"><ele>216.0</ele><time>2026-04-04T01:34:56Z</time></trkpt><trkpt lat="14.269929191365398" lon="120.96731483886332"><ele>216.00000000000003</ele><time>2026-04-04T01:34:57Z</time></trkpt><trkpt lat="14.269834078169572" lon="120.96735896588217"><ele>216.00000000000003</ele><time>2026-04-04T01:34:58Z</time></trkpt><trkpt lat="14.26973356725039" lon="120.9674055975014"><ele>216.0</ele><time>2026-04-04T01:34:59Z</time></trkpt><trkpt lat="14.269625015420335" lon="120.96745452107454"><ele>216.0</ele><time>2026-04-04T01:35:00Z</time></trkpt><trkpt lat="14.269512701291593" lon="120.9674895811298"><ele>216.25</ele><time>2026-04-04T01:35:01Z</time></trkpt><trkpt lat="14.269393490343006" lon="120.96752684373516"><ele>216.5</ele><time>2026-04-04T01:35:02Z</time></trkpt><trkpt lat="14.269265168526553" lon="120.96756073778393"><ele>216.75</ele><time>2026-04-04T01:35:03Z</time></trkpt><trkpt lat="14.269140709712634" lon="120.96759519585295"><ele>217.0</ele><time>2026-04-04T01:35:04Z</time></trkpt><trkpt lat="14.26902231252004" lon="120.96762365596098"><ele>217.5</ele><time>2026-04-04T01:35:05Z</time></trkpt><trkpt lat="14.26890065264892" lon="120.96765113790498"><ele>218.0</ele><time>2026-04-04T01:35:06Z</time></trkpt><trkpt lat="14.268780960125946" lon="120.96767817551299"><ele>218.5</ele><time>2026-04-04T01:35:07Z</time></trkpt><trkpt lat="14.268660435125105" lon="120.96770661814509"><ele>219.0</ele><time>2026-04-04T01:35:08Z</time></trkpt><trkpt lat="14.268536141194293" lon="120.96773575159251"><ele>219.0</ele><time>2026-04-04T01:35:09Z</time></trkpt><trkpt lat="14.268408291746042" lon="120.96776571843931"><ele>219.0</ele><time>2026-04-04T01:35:10Z</time></trkpt><trkpt lat="14.26827413050891" lon="120.96779678949213"><ele>219.0</ele><time>2026-04-04T01:35:11Z</time></trkpt><trkpt lat="14.268150288620477" lon="120.96782584471627"><ele>219.0</ele><time>2026-04-04T01:35:12Z</time></trkpt><trkpt lat="14.268015515129909" lon="120.96785759798553"><ele>220.0</ele><time>2026-04-04T01:35:13Z</time></trkpt><trkpt lat="14.2678886516485" lon="120.9678901279067"><ele>221.0</ele><time>2026-04-04T01:35:14Z</time></trkpt><trkpt lat="14.267758115770194" lon="120.96792331137223"><ele>222.0</ele><time>2026-04-04T01:35:15Z</time></trkpt><trkpt lat="14.267623865699326" lon="120.96795743902277"><ele>223.0</ele><time>2026-04-04T01:35:16Z</time></trkpt><trkpt lat="14.267492964114426" lon="120.96799185326459"><ele>223.0</ele><time>2026-04-04T01:35:17Z</time></trkpt><trkpt lat="14.267362743850867" lon="120.96802629814144"><ele>223.0</ele><time>2026-04-04T01:35:18Z</time></trkpt><trkpt lat="14.267226069236129" lon="120.96806172787117"><ele>223.0</ele><time>2026-04-04T01:35:19Z</time></trkpt><trkpt lat="14.267086914247082" lon="120.96809526422813"><ele>223.0</ele><time>2026-04-04T01:35:20Z</time></trkpt><trkpt lat="14.266953079985827" lon="120.96812761537836"><ele>223.0</ele><time>2026-04-04T01:35:21Z</time></trkpt><trkpt lat="14.266821660721215" lon="120.96815908692874"><ele>223.0</ele><time>2026-04-04T01:35:22Z</time></trkpt><trkpt lat="14.266709233512195" lon="120.96818601036745"><ele>223.0</ele><time>2026-04-04T01:35:23Z</time></trkpt><trkpt lat="14.26655516013036" lon="120.96822290697251"><ele>223.0</ele><time>2026-04-04T01:35:24Z</time></trkpt><trkpt lat="14.266429341044459" lon="120.96825303742514"><ele>222.75</ele><time>2026-04-04T01:35:25Z</time></trkpt><trkpt lat="14.266303337533158" lon="120.96830076948817"><ele>222.5</ele><time>2026-04-04T01:35:26Z</time></trkpt><trkpt lat="14.266168223724884" lon="120.96831556824486"><ele>222.25</ele><time>2026-04-04T01:35:27Z</time></trkpt><trkpt lat="14.266037923243449" lon="120.96836233971906"><ele>222.0</ele><time>2026-04-04T01:35:28Z</time></trkpt><trkpt lat="14.265901425751231" lon="120.96838672098178"><ele>222.0</ele><time>2026-04-04T01:35:29Z</time></trkpt><trkpt lat="14.26576735938512" lon="120.96841490500144"><ele>222.0</ele><time>2026-04-04T01:35:30Z</time></trkpt><trkpt lat="14.265629742132315" lon="120.9684499446012"><ele>222.0</ele><time>2026-04-04T01:35:31Z</time></trkpt><trkpt lat="14.265501281029938" lon="120.96848634366309"><ele>222.0</ele><time>2026-04-04T01:35:32Z</time></trkpt><trkpt lat="14.265358765548239" lon="120.96852806908274"><ele>223.33333333333331</ele><time>2026-04-04T01:35:33Z</time></trkpt><trkpt lat="14.265214883925816" lon="120.96854363290389"><ele>224.66666666666666</ele><time>2026-04-04T01:35:34Z</time></trkpt><trkpt lat="14.26505829564853" lon="120.96857892681898"><ele>226.0</ele><time>2026-04-04T01:35:35Z</time></trkpt><trkpt lat="14.26490889392544" lon="120.96861441588422"><ele>227.66666666666666</ele><time>2026-04-04T01:35:36Z</time></trkpt><trkpt lat="14.26475125184456" lon="120.96865159275909"><ele>229.33333333333331</ele><time>2026-04-04T01:35:37Z</time></trkpt><trkpt lat="14.26459644198216" lon="120.9686881309722"><ele>231.0</ele><time>2026-04-04T01:35:38Z</time></trkpt><trkpt lat="14.264435095106013" lon="120.96872621205127"><ele>231.0</ele><time>2026-04-04T01:35:39Z</time></trkpt><trkpt lat="14.264270842689001" lon="120.96877811087919"><ele>231.0</ele><time>2026-04-04T01:35:40Z</time></trkpt><trkpt lat="14.264111986436735" lon="120.9688028782382"><ele>231.0</ele><time>2026-04-04T01:35:41Z</time></trkpt><trkpt lat="14.263950792316257" lon="120.96884031254034"><ele>231.66666666666669</ele><time>2026-04-04T01:35:42Z</time></trkpt><trkpt lat="14.263801641811806" lon="120.96887532833698"><ele>232.33333333333334</ele><time>2026-04-04T01:35:43Z</time></trkpt><trkpt lat="14.263654222335362" lon="120.96891032719569"><ele>233.0</ele><time>2026-04-04T01:35:44Z</time></trkpt><trkpt lat="14.263510002669756" lon="120.96894456641677"><ele>233.0</ele><time>2026-04-04T01:35:45Z</time></trkpt><trkpt lat="14.263379814100098" lon="120.9689774342918"><ele>233.0</ele><time>2026-04-04T01:35:46Z</time></trkpt><trkpt lat="14.263249205547819" lon="120.9690103221854"><ele>233.0</ele><time>2026-04-04T01:35:47Z</time></trkpt><trkpt lat="14.26310998147056" lon="120.96904537954225"><ele>233.0</ele><time>2026-04-04T01:35:48Z</time></trkpt><trkpt lat="14.262972394909324" lon="120.96908002454711"><ele>233.0</ele><time>2026-04-04T01:35:49Z</time></trkpt><trkpt lat="14.262833167693014" lon="120.96911508267847"><ele>233.0</ele><time>2026-04-04T01:35:50Z</time></trkpt><trkpt lat="14.26269529649817" lon="120.9691497995441"><ele>233.0</ele><time>2026-04-04T01:35:51Z</time></trkpt><trkpt lat="14.262548779239282" lon="120.96917154459388"><ele>233.0</ele><time>2026-04-04T01:35:52Z</time></trkpt><trkpt lat="14.262406376577626" lon="120.9692050793782"><ele>234.66666666666669</ele><time>2026-04-04T01:35:53Z</time></trkpt><trkpt lat="14.262260934335014" lon="120.96923343543799"><ele>236.33333333333331</ele><time>2026-04-04T01:35:54Z</time></trkpt><trkpt lat="14.26210663621553" lon="120.96928128852106"><ele>238.0</ele><time>2026-04-04T01:35:55Z</time></trkpt><trkpt lat="14.261959985717287" lon="120.96933202027292"><ele>238.0</ele><time>2026-04-04T01:35:56Z</time></trkpt><trkpt lat="14.261809081840964" lon="120.96939218721167"><ele>238.0</ele><time>2026-04-04T01:35:57Z</time></trkpt><trkpt lat="14.261655843355744" lon="120.96945752997674"><ele>238.0</ele><time>2026-04-04T01:35:58Z</time></trkpt><trkpt lat="14.261507631811957" lon="120.96952614874334"><ele>238.33333333333331</ele><time>2026-04-04T01:35:59Z</time></trkpt><trkpt lat="14.261353132319856" lon="120.96960074107827"><ele>238.66666666666669</ele><time>2026-04-04T01:36:00Z</time></trkpt><trkpt lat="14.26120505823879" lon="120.96967519237019"><ele>239.0</ele><time>2026-04-04T01:36:01Z</time></trkpt><trkpt lat="14.26106152245621" lon="120.96974757823057"><ele>239.0</ele><time>2026-04-04T01:36:02Z</time></trkpt><trkpt lat="14.260923970110372" lon="120.96981697379687"><ele>239.0</ele><time>2026-04-04T01:36:03Z</time></trkpt><trkpt lat="14.260786876357347" lon="120.96988509575209"><ele>239.0</ele><time>2026-04-04T01:36:04Z</time></trkpt><trkpt lat="14.260648757413625" lon="120.96995353200076"><ele>238.25</ele><time>2026-04-04T01:36:05Z</time></trkpt><trkpt lat="14.26051187217805" lon="120.97002135663443"><ele>237.5</ele><time>2026-04-04T01:36:06Z</time></trkpt><trkpt lat="14.260375898232716" lon="120.97008577723601"><ele>236.75</ele><time>2026-04-04T01:36:07Z</time></trkpt><trkpt lat="14.260242713158501" lon="120.97015062738035"><ele>236.0</ele><time>2026-04-04T01:36:08Z</time></trkpt><trkpt lat="14.26011287222995" lon="120.97021380368447"><ele>235.75</ele><time>2026-04-04T01:36:09Z</time></trkpt><trkpt lat="14.259982268485693" lon="120.97027798918309"><ele>235.5</ele><time>2026-04-04T01:36:10Z</time></trkpt><trkpt lat="14.259855994174616" lon="120.9703474953108"><ele>235.25</ele><time>2026-04-04T01:36:11Z</time></trkpt><trkpt lat="14.259734152627498" lon="120.97041320823304"><ele>235.0</ele><time>2026-04-04T01:36:12Z</time></trkpt><trkpt lat="14.259626634479336" lon="120.97047559112902"><ele>235.49999999999997</ele><time>2026-04-04T01:36:13Z</time></trkpt><trkpt lat="14.259533174925066" lon="120.97052999658133"><ele>236.0</ele><time>2026-04-04T01:36:14Z</time></trkpt><trkpt lat="14.25945565258465" lon="120.97057603868564"><ele>236.5</ele><time>2026-04-04T01:36:15Z</time></trkpt><trkpt lat="14.259382249328189" lon="120.9706209100884"><ele>237.0</ele><time>2026-04-04T01:36:16Z</time></trkpt><trkpt lat="14.259313590757683" lon="120.97066556410877"><ele>237.49999999999997</ele><time>2026-04-04T01:36:17Z</time></trkpt><trkpt lat="14.259247184985206" lon="120.97071305459973"><ele>238.0</ele><time>2026-04-04T01:36:18Z</time></trkpt><trkpt lat="14.259170544655888" lon="120.97076786478176"><ele>238.0</ele><time>2026-04-04T01:36:19Z</time></trkpt><trkpt lat="14.25908782595694" lon="120.97083745857144"><ele>238.0</ele><time>2026-04-04T01:36:20Z</time></trkpt><trkpt lat="14.259001667563478" lon="120.97091093633537"><ele>238.0</ele><time>2026-04-04T01:36:21Z</time></trkpt><trkpt lat="14.258920304393012" lon="120.97098032464419"><ele>238.0</ele><time>2026-04-04T01:36:22Z</time></trkpt><trkpt lat="14.258835366308455" lon="120.97105276172769"><ele>238.0</ele><time>2026-04-04T01:36:23Z</time></trkpt><trkpt lat="14.258752578993818" lon="120.97112336457637"><ele>237.8</ele><time>2026-04-04T01:36:24Z</time></trkpt><trkpt lat="14.258669304493269" lon="120.97119393360148"><ele>237.60000000000002</ele><time>2026-04-04T01:36:25Z</time></trkpt><trkpt lat="14.258583056775183" lon="120.97126506695477"><ele>237.39999999999998</ele><time>2026-04-04T01:36:26Z</time></trkpt><trkpt lat="14.258496858929066" lon="120.97133615916235"><ele>237.2</ele><time>2026-04-04T01:36:27Z</time></trkpt><trkpt lat="14.258412086315579" lon="120.97140607589967"><ele>237.0</ele><time>2026-04-04T01:36:28Z</time></trkpt><trkpt lat="14.258326839344956" lon="120.97147638387244"><ele>237.0</ele><time>2026-04-04T01:36:29Z</time></trkpt><trkpt lat="14.258236381926025" lon="120.97155247206648"><ele>237.0</ele><time>2026-04-04T01:36:30Z</time></trkpt><trkpt lat="14.258144424851695" lon="120.97163002375248"><ele>237.0</ele><time>2026-04-04T01:36:31Z</time></trkpt><trkpt lat="14.258048960392095" lon="120.97171444857864"><ele>237.0</ele><time>2026-04-04T01:36:32Z</time></trkpt><trkpt lat="14.257959125524573" lon="120.97179416880022"><ele>238.0</ele><time>2026-04-04T01:36:33Z</time></trkpt><trkpt lat="14.257869117362313" lon="120.9718744018667"><ele>239.0</ele><time>2026-04-04T01:36:34Z</time></trkpt><trkpt lat="14.257781266771014" lon="120.97195324233458"><ele>240.0</ele><time>2026-04-04T01:36:35Z</time></trkpt><trkpt lat="14.257690568766092" lon="120.97202948692232"><ele>241.0</ele><time>2026-04-04T01:36:36Z</time></trkpt><trkpt lat="14.257598650837508" lon="120.97210748082748"><ele>241.0</ele><time>2026-04-04T01:36:37Z</time></trkpt><trkpt lat="14.25750350208964" lon="120.97218821612162"><ele>241.0</ele><time>2026-04-04T01:36:38Z</time></trkpt><trkpt lat="14.257407997716777" lon="120.97226925199466"><ele>241.0</ele><time>2026-04-04T01:36:39Z</time></trkpt><trkpt lat="14.257310357292567" lon="120.97235208139114"><ele>241.0</ele><time>2026-04-04T01:36:40Z</time></trkpt><trkpt lat="14.25721373023607" lon="120.97243710199376"><ele>241.25</ele><time>2026-04-04T01:36:41Z</time></trkpt><trkpt lat="14.257126690486459" lon="120.97251521260132"><ele>241.5</ele><time>2026-04-04T01:36:42Z</time></trkpt><trkpt lat="14.257041446336471" lon="120.97259171182732"><ele>241.75</ele><time>2026-04-04T01:36:43Z</time></trkpt><trkpt lat="14.256955555015642" lon="120.97266879180255"><ele>242.0</ele><time>2026-04-04T01:36:44Z</time></trkpt><trkpt lat="14.256867145157896" lon="120.97274813196279"><ele>242.2</ele><time>2026-04-04T01:36:45Z</time></trkpt><trkpt lat="14.25678429154268" lon="120.97282233615988"><ele>242.39999999999998</ele><time>2026-04-04T01:36:46Z</time></trkpt><trkpt lat="14.256695704167006" lon="120.97290152726853"><ele>242.60000000000002</ele><time>2026-04-04T01:36:47Z</time></trkpt><trkpt lat="14.256612532249209" lon="120.97297587732548"><ele>242.8</ele><time>2026-04-04T01:36:48Z</time></trkpt><trkpt lat="14.256528111606805" lon="120.97305134365918"><ele>243.0</ele><time>2026-04-04T01:36:49Z</time></trkpt><trkpt lat="14.256442339196687" lon="120.97312801836907"><ele>243.0</ele><time>2026-04-04T01:36:50Z</time></trkpt><trkpt lat="14.256358023078572" lon="120.9732011921259"><ele>243.0</ele><time>2026-04-04T01:36:51Z</time></trkpt><trkpt lat="14.256271453816547" lon="120.97327444140649"><ele>243.0</ele><time>2026-04-04T01:36:52Z</time></trkpt><trkpt lat="14.256186342088833" lon="120.9733463745352"><ele>243.0</ele><time>2026-04-04T01:36:53Z</time></trkpt><trkpt lat="14.256111080034838" lon="120.97340998284578"><ele>243.0</ele><time>2026-04-04T01:36:54Z</time></trkpt><trkpt lat="14.25605038946355" lon="120.97348148224167"><ele>243.5</ele><time>2026-04-04T01:36:55Z</time></trkpt><trkpt lat="14.255989165731606" lon="120.97353468314456"><ele>244.0</ele><time>2026-04-04T01:36:56Z</time></trkpt><trkpt lat="14.255923880130373" lon="120.9735676368635"><ele>244.5</ele><time>2026-04-04T01:36:57Z</time></trkpt><trkpt lat="14.25587443695655" lon="120.97360978343038"><ele>245.0</ele><time>2026-04-04T01:36:58Z</time></trkpt><trkpt lat="14.255810878773364" lon="120.97368416962058"><ele>245.5</ele><time>2026-04-04T01:37:00Z</time></trkpt><trkpt lat="14.255747305213706" lon="120.97372764069495"><ele>246.0</ele><time>2026-04-04T01:37:02Z</time></trkpt><trkpt lat="14.255667195539367" lon="120.97378421003648"><ele>246.20000000000002</ele><time>2026-04-04T01:37:04Z</time></trkpt><trkpt lat="14.255585694929996" lon="120.97385387247127"><ele>246.40000000000003</ele><time>2026-04-04T01:37:06Z</time></trkpt><trkpt lat="14.25553033180093" lon="120.97390047611113"><ele>246.6</ele><time>2026-04-04T01:37:07Z</time></trkpt><trkpt lat="14.255442578673948" lon="120.9739709605192"><ele>246.8</ele><time>2026-04-04T01:37:09Z</time></trkpt><trkpt lat="14.255355669495898" lon="120.97404161733697"><ele>247.0</ele><time>2026-04-04T01:37:11Z</time></trkpt><trkpt lat="14.25530598161887" lon="120.97408494663651"><ele>247.0</ele><time>2026-04-04T01:37:12Z</time></trkpt><trkpt lat="14.255248546904141" lon="120.97413495638558"><ele>247.0</ele><time>2026-04-04T01:37:13Z</time></trkpt><trkpt lat="14.255183450580644" lon="120.97418986769158"><ele>247.0</ele><time>2026-04-04T01:37:14Z</time></trkpt><trkpt lat="14.255109803172104" lon="120.974255344993"><ele>247.0</ele><time>2026-04-04T01:37:15Z</time></trkpt><trkpt lat="14.255035081469321" lon="120.97432243352543"><ele>247.0</ele><time>2026-04-04T01:37:16Z</time></trkpt><trkpt lat="14.254960949269716" lon="120.97438361577822"><ele>246.8</ele><time>2026-04-04T01:37:17Z</time></trkpt><trkpt lat="14.25488424201098" lon="120.97444946162796"><ele>246.6</ele><time>2026-04-04T01:37:18Z</time></trkpt><trkpt lat="14.254808692217226" lon="120.97451356748573"><ele>246.40000000000003</ele><time>2026-04-04T01:37:19Z</time></trkpt><trkpt lat="14.254727047252576" lon="120.97458463502913"><ele>246.20000000000002</ele><time>2026-04-04T01:37:20Z</time></trkpt><trkpt lat="14.254640659018856" lon="120.97465549726903"><ele>246.0</ele><time>2026-04-04T01:37:21Z</time></trkpt><trkpt lat="14.254553468085698" lon="120.97472968877968"><ele>246.25</ele><time>2026-04-04T01:37:22Z</time></trkpt><trkpt lat="14.25445684901205" lon="120.97480608588819"><ele>246.5</ele><time>2026-04-04T01:37:23Z</time></trkpt><trkpt lat="14.254370634055448" lon="120.9748816439413"><ele>246.75</ele><time>2026-04-04T01:37:24Z</time></trkpt><trkpt lat="14.254277968207875" lon="120.97495880940154"><ele>247.0</ele><time>2026-04-04T01:37:25Z</time></trkpt><trkpt lat="14.254198673742186" lon="120.97502608721128"><ele>247.0</ele><time>2026-04-04T01:37:26Z</time></trkpt><trkpt lat="14.254120197912474" lon="120.9750876332413"><ele>247.0</ele><time>2026-04-04T01:37:27Z</time></trkpt><trkpt lat="14.254030935689887" lon="120.9751572041297"><ele>247.0</ele><time>2026-04-04T01:37:28Z</time></trkpt><trkpt lat="14.25394432930224" lon="120.97521366437"><ele>247.0</ele><time>2026-04-04T01:37:29Z</time></trkpt><trkpt lat="14.253854047679797" lon="120.97526417204242"><ele>247.0</ele><time>2026-04-04T01:37:30Z</time></trkpt><trkpt lat="14.253766047555338" lon="120.97531254158406"><ele>247.39999999999998</ele><time>2026-04-04T01:37:31Z</time></trkpt><trkpt lat="14.2536792341109" lon="120.97533191668478"><ele>247.79999999999998</ele><time>2026-04-04T01:37:32Z</time></trkpt><trkpt lat="14.253586787625501" lon="120.97536213250811"><ele>248.2</ele><time>2026-04-04T01:37:33Z</time></trkpt><trkpt lat="14.253495282693013" lon="120.97538754931347"><ele>248.6</ele><time>2026-04-04T01:37:34Z</time></trkpt><trkpt lat="14.253387181601262" lon="120.97541446645486"><ele>249.0</ele><time>2026-04-04T01:37:35Z</time></trkpt><trkpt lat="14.253281024595847" lon="120.97543296365265"><ele>249.0</ele><time>2026-04-04T01:37:36Z</time></trkpt><trkpt lat="14.253177239871484" lon="120.97544645319553"><ele>248.99999999999997</ele><time>2026-04-04T01:37:37Z</time></trkpt><trkpt lat="14.25307806918891" lon="120.97545504865562"><ele>248.99999999999997</ele><time>2026-04-04T01:37:38Z</time></trkpt><trkpt lat="14.25297864522221" lon="120.97547661305933"><ele>249.0</ele><time>2026-04-04T01:37:39Z</time></trkpt><trkpt lat="14.25286794246003" lon="120.97547599959697"><ele>249.0</ele><time>2026-04-04T01:37:40Z</time></trkpt><trkpt lat="14.252749394844932" lon="120.97547403289747"><ele>249.75</ele><time>2026-04-04T01:37:41Z</time></trkpt><trkpt lat="14.25264043798353" lon="120.97548653961258"><ele>250.5</ele><time>2026-04-04T01:37:42Z</time></trkpt><trkpt lat="14.252519527342749" lon="120.97549287641263"><ele>251.25</ele><time>2026-04-04T01:37:43Z</time></trkpt><trkpt lat="14.252406436902431" lon="120.97548984734792"><ele>252.0</ele><time>2026-04-04T01:37:44Z</time></trkpt><trkpt lat="14.25224308400184" lon="120.97549877382086"><ele>252.75</ele><time>2026-04-04T01:37:45Z</time></trkpt><trkpt lat="14.252104053766887" lon="120.97550121164196"><ele>253.5</ele><time>2026-04-04T01:37:46Z</time></trkpt><trkpt lat="14.251959407619365" lon="120.97547850340425"><ele>254.25</ele><time>2026-04-04T01:37:47Z</time></trkpt><trkpt lat="14.251802538939929" lon="120.97548023242273"><ele>255.0</ele><time>2026-04-04T01:37:48Z</time></trkpt><trkpt lat="14.251647714589097" lon="120.97548763114423"><ele>255.0</ele><time>2026-04-04T01:37:49Z</time></trkpt><trkpt lat="14.251490013972079" lon="120.9754948029902"><ele>255.0</ele><time>2026-04-04T01:37:50Z</time></trkpt><trkpt lat="14.251342801481906" lon="120.97550149786188"><ele>255.0</ele><time>2026-04-04T01:37:51Z</time></trkpt><trkpt lat="14.251198083359323" lon="120.9755079929105"><ele>255.5</ele><time>2026-04-04T01:37:52Z</time></trkpt><trkpt lat="14.251055648177699" lon="120.97551227844188"><ele>256.0</ele><time>2026-04-04T01:37:53Z</time></trkpt><trkpt lat="14.250909927689662" lon="120.97551749386761"><ele>256.5</ele><time>2026-04-04T01:37:54Z</time></trkpt><trkpt lat="14.25077405369253" lon="120.97552341359163"><ele>257.0</ele><time>2026-04-04T01:37:55Z</time></trkpt><trkpt lat="14.250638936654779" lon="120.97552959926651"><ele>257.75</ele><time>2026-04-04T01:37:56Z</time></trkpt><trkpt lat="14.250519376007505" lon="120.97553443790139"><ele>258.5</ele><time>2026-04-04T01:37:57Z</time></trkpt><trkpt lat="14.250387335306748" lon="120.97553835559397"><ele>259.25</ele><time>2026-04-04T01:37:58Z</time></trkpt><trkpt lat="14.25026588115282" lon="120.97554077951371"><ele>260.0</ele><time>2026-04-04T01:37:59Z</time></trkpt><trkpt lat="14.250140052857736" lon="120.9755440294408"><ele>260.0</ele><time>2026-04-04T01:38:00Z</time></trkpt><trkpt lat="14.250020399268331" lon="120.97554808652103"><ele>260.0</ele><time>2026-04-04T01:38:01Z</time></trkpt><trkpt lat="14.249903149959529" lon="120.97555206206783"><ele>260.0</ele><time>2026-04-04T01:38:02Z</time></trkpt><trkpt lat="14.249790319867516" lon="120.97555557766577"><ele>260.0</ele><time>2026-04-04T01:38:03Z</time></trkpt><trkpt lat="14.249673354940834" lon="120.97555930342143"><ele>261.25</ele><time>2026-04-04T01:38:04Z</time></trkpt><trkpt lat="14.249557021069023" lon="120.9755635664973"><ele>262.5</ele><time>2026-04-04T01:38:05Z</time></trkpt><trkpt lat="14.249441460387978" lon="120.97556796964058"><ele>263.75</ele><time>2026-04-04T01:38:06Z</time></trkpt><trkpt lat="14.249308034730511" lon="120.97556944172312"><ele>265.0</ele><time>2026-04-04T01:38:07Z</time></trkpt><trkpt lat="14.24918594872952" lon="120.97557627928177"><ele>265.0</ele><time>2026-04-04T01:38:08Z</time></trkpt><trkpt lat="14.249067923061354" lon="120.97558142746983"><ele>265.0</ele><time>2026-04-04T01:38:09Z</time></trkpt><trkpt lat="14.248950298149195" lon="120.97558664160535"><ele>265.0</ele><time>2026-04-04T01:38:10Z</time></trkpt><trkpt lat="14.248826082104378" lon="120.97559218591259"><ele>265.0</ele><time>2026-04-04T01:38:11Z</time></trkpt><trkpt lat="14.248698478045874" lon="120.9755984974336"><ele>265.25</ele><time>2026-04-04T01:38:12Z</time></trkpt><trkpt lat="14.24856903446601" lon="120.97560208564074"><ele>265.5</ele><time>2026-04-04T01:38:13Z</time></trkpt><trkpt lat="14.248433407213081" lon="120.97560658422763"><ele>265.75</ele><time>2026-04-04T01:38:14Z</time></trkpt><trkpt lat="14.248294915117341" lon="120.97561043759568"><ele>266.0</ele><time>2026-04-04T01:38:15.001Z</time></trkpt><trkpt lat="14.248154649590392" lon="120.975614271467"><ele>265.75</ele><time>2026-04-04T01:38:16.001Z</time></trkpt><trkpt lat="14.248012182518213" lon="120.97561797703057"><ele>265.5</ele><time>2026-04-04T01:38:17.001Z</time></trkpt><trkpt lat="14.247881835111812" lon="120.97562136736089"><ele>265.25</ele><time>2026-04-04T01:38:18.001Z</time></trkpt><trkpt lat="14.247758423959587" lon="120.97562861616976"><ele>265.0</ele><time>2026-04-04T01:38:19.001Z</time></trkpt><trkpt lat="14.247632542967255" lon="120.9756367768003"><ele>265.0</ele><time>2026-04-04T01:38:20.001Z</time></trkpt><trkpt lat="14.247511063024776" lon="120.97564100819125"><ele>265.0</ele><time>2026-04-04T01:38:21.001Z</time></trkpt><trkpt lat="14.247389475390383" lon="120.97564752504883"><ele>265.0</ele><time>2026-04-04T01:38:22.001Z</time></trkpt><trkpt lat="14.2472713783216" lon="120.97565385479753"><ele>265.0</ele><time>2026-04-04T01:38:23.001Z</time></trkpt><trkpt lat="14.247167691896244" lon="120.97565355829094"><ele>266.2</ele><time>2026-04-04T01:38:24.001Z</time></trkpt><trkpt lat="14.247071099838731" lon="120.97565571542412"><ele>267.4</ele><time>2026-04-04T01:38:25.001Z</time></trkpt><trkpt lat="14.246990630448387" lon="120.97566270817447"><ele>268.6</ele><time>2026-04-04T01:38:26.001Z</time></trkpt><trkpt lat="14.246876358835932" lon="120.97566819731146"><ele>269.8</ele><time>2026-04-04T01:38:28.001Z</time></trkpt><trkpt lat="14.246801586031989" lon="120.97568771918517"><ele>271.0</ele><time>2026-04-04T01:38:30.001Z</time></trkpt><trkpt lat="14.246706795776287" lon="120.97567599893675"><ele>271.0</ele><time>2026-04-04T01:38:32.001Z</time></trkpt><trkpt lat="14.246640242076062" lon="120.9756788979406"><ele>271.0</ele><time>2026-04-04T01:38:33.001Z</time></trkpt><trkpt lat="14.246565717820031" lon="120.97568214411885"><ele>271.0</ele><time>2026-04-04T01:38:34.001Z</time></trkpt><trkpt lat="14.246483267299714" lon="120.97568501108721"><ele>271.0</ele><time>2026-04-04T01:38:35.001Z</time></trkpt><trkpt lat="14.24639634994016" lon="120.97568823323353"><ele>271.0</ele><time>2026-04-04T01:38:36.001Z</time></trkpt><trkpt lat="14.246308694162593" lon="120.9756914827527"><ele>271.0</ele><time>2026-04-04T01:38:37.001Z</time></trkpt><trkpt lat="14.246215758803682" lon="120.97569341184717"><ele>271.0</ele><time>2026-04-04T01:38:38.001Z</time></trkpt><trkpt lat="14.246119613490558" lon="120.9756943617649"><ele>271.0</ele><time>2026-04-04T01:38:39.001Z</time></trkpt><trkpt lat="14.246025643773944" lon="120.97569425796776"><ele>271.0</ele><time>2026-04-04T01:38:40.001Z</time></trkpt><trkpt lat="14.24592778060756" lon="120.9756965855086"><ele>271.0</ele><time>2026-04-04T01:38:41.001Z</time></trkpt><trkpt lat="14.24582815859726" lon="120.97569925604941"><ele>271.0</ele><time>2026-04-04T01:38:42.001Z</time></trkpt><trkpt lat="14.245725367661219" lon="120.97570204430619"><ele>271.0</ele><time>2026-04-04T01:38:43.001Z</time></trkpt><trkpt lat="14.245626022056054" lon="120.97570473909978"><ele>271.0</ele><time>2026-04-04T01:38:44.001Z</time></trkpt><trkpt lat="14.245526784831048" lon="120.97572094083202"><ele>271.0</ele><time>2026-04-04T01:38:45Z</time></trkpt><trkpt lat="14.245425603855864" lon="120.97572236554451"><ele>271.0</ele><time>2026-04-04T01:38:46Z</time></trkpt><trkpt lat="14.245322166198129" lon="120.9757238220332"><ele>271.0</ele><time>2026-04-04T01:38:47Z</time></trkpt><trkpt lat="14.245217363785232" lon="120.97572529773758"><ele>271.0</ele><time>2026-04-04T01:38:48Z</time></trkpt><trkpt lat="14.245110679003115" lon="120.97572679993577"><ele>271.0</ele><time>2026-04-04T01:38:49Z</time></trkpt><trkpt lat="14.244998795899413" lon="120.97573980367274"><ele>271.0</ele><time>2026-04-04T01:38:50Z</time></trkpt><trkpt lat="14.244891717778593" lon="120.97569135995286"><ele>271.0</ele><time>2026-04-04T01:38:51Z</time></trkpt><trkpt lat="14.244775240750664" lon="120.97566971179116"><ele>271.75</ele><time>2026-04-04T01:38:52Z</time></trkpt><trkpt lat="14.244649055992578" lon="120.97568983496882"><ele>272.5</ele><time>2026-04-04T01:38:53Z</time></trkpt><trkpt lat="14.244528139533742" lon="120.97566123662416"><ele>273.25</ele><time>2026-04-04T01:38:54Z</time></trkpt><trkpt lat="14.244403454220953" lon="120.97562593556444"><ele>274.0</ele><time>2026-04-04T01:38:55Z</time></trkpt><trkpt lat="14.2442776510621" lon="120.97558748688657"><ele>274.0</ele><time>2026-04-04T01:38:56Z</time></trkpt><trkpt lat="14.244147267520553" lon="120.97554886048883"><ele>274.0</ele><time>2026-04-04T01:38:57Z</time></trkpt><trkpt lat="14.244024978497036" lon="120.97547284601663"><ele>274.0</ele><time>2026-04-04T01:38:58Z</time></trkpt><trkpt lat="14.243900352807437" lon="120.97543042601085"><ele>274.0</ele><time>2026-04-04T01:38:59Z</time></trkpt><trkpt lat="14.243775976136712" lon="120.97539178684998"><ele>274.5</ele><time>2026-04-04T01:39:00Z</time></trkpt><trkpt lat="14.243645477965222" lon="120.97535124597894"><ele>275.0</ele><time>2026-04-04T01:39:01Z</time></trkpt><trkpt lat="14.243512043954212" lon="120.97530859360047"><ele>275.5</ele><time>2026-04-04T01:39:02Z</time></trkpt><trkpt lat="14.243375490288104" lon="120.97526446043628"><ele>276.0</ele><time>2026-04-04T01:39:03Z</time></trkpt><trkpt lat="14.243238098565124" lon="120.97521963790197"><ele>276.25</ele><time>2026-04-04T01:39:04Z</time></trkpt><trkpt lat="14.243099817964234" lon="120.97517452538362"><ele>276.5</ele><time>2026-04-04T01:39:05Z</time></trkpt><trkpt lat="14.24295776253766" lon="120.9751281886996"><ele>276.75</ele><time>2026-04-04T01:39:06Z</time></trkpt><trkpt lat="14.24281277621265" lon="120.97509569702761"><ele>277.0</ele><time>2026-04-04T01:39:07Z</time></trkpt><trkpt lat="14.242679536420361" lon="120.97503420555122"><ele>276.5</ele><time>2026-04-04T01:39:08Z</time></trkpt><trkpt lat="14.242543581810116" lon="120.97498792708602"><ele>276.0</ele><time>2026-04-04T01:39:09Z</time></trkpt><trkpt lat="14.242408380145985" lon="120.97494213180445"><ele>275.5</ele><time>2026-04-04T01:39:10Z</time></trkpt><trkpt lat="14.24227354213551" lon="120.97489682544621"><ele>275.0</ele><time>2026-04-04T01:39:11Z</time></trkpt><trkpt lat="14.242139821644072" lon="120.97485138391944"><ele>276.0</ele><time>2026-04-04T01:39:12Z</time></trkpt><trkpt lat="14.242013122368279" lon="120.97480837352347"><ele>277.0</ele><time>2026-04-04T01:39:13Z</time></trkpt><trkpt lat="14.241904390760185" lon="120.97477191972031"><ele>278.0</ele><time>2026-04-04T01:39:14Z</time></trkpt><trkpt lat="14.241803066500824" lon="120.97473810704027"><ele>279.0</ele><time>2026-04-04T01:39:15Z</time></trkpt><trkpt lat="14.241706515333496" lon="120.97470535989444"><ele>279.0</ele><time>2026-04-04T01:39:16Z</time></trkpt><trkpt lat="14.241607844351051" lon="120.97467189376906"><ele>279.0</ele><time>2026-04-04T01:39:17Z</time></trkpt><trkpt lat="14.241502409043543" lon="120.97463613339418"><ele>279.0</ele><time>2026-04-04T01:39:18Z</time></trkpt><trkpt lat="14.241391326006235" lon="120.97459845748662"><ele>279.0</ele><time>2026-04-04T01:39:19Z</time></trkpt><trkpt lat="14.241272440019719" lon="120.9745581350557"><ele>279.75</ele><time>2026-04-04T01:39:20Z</time></trkpt><trkpt lat="14.241154759953114" lon="120.97451819810345"><ele>280.5</ele><time>2026-04-04T01:39:21Z</time></trkpt><trkpt lat="14.241032770351811" lon="120.97447679201747"><ele>281.25</ele><time>2026-04-04T01:39:22Z</time></trkpt><trkpt lat="14.24091137111905" lon="120.97443558639971"><ele>282.0</ele><time>2026-04-04T01:39:23Z</time></trkpt><trkpt lat="14.24078965560016" lon="120.97439394956"><ele>282.0</ele><time>2026-04-04T01:39:24Z</time></trkpt><trkpt lat="14.240661709707235" lon="120.9743502377992"><ele>282.0</ele><time>2026-04-04T01:39:25Z</time></trkpt><trkpt lat="14.240533488833842" lon="120.97430817988986"><ele>282.0</ele><time>2026-04-04T01:39:26Z</time></trkpt><trkpt lat="14.240396374026197" lon="120.97426216741995"><ele>282.0</ele><time>2026-04-04T01:39:27Z</time></trkpt><trkpt lat="14.240256380566183" lon="120.97421428074799"><ele>282.0</ele><time>2026-04-04T01:39:28Z</time></trkpt><trkpt lat="14.240111509308594" lon="120.97416286854767"><ele>282.0</ele><time>2026-04-04T01:39:29Z</time></trkpt><trkpt lat="14.239964268881659" lon="120.97411082076748"><ele>282.0</ele><time>2026-04-04T01:39:30Z</time></trkpt><trkpt lat="14.23981694422302" lon="120.97407296121075"><ele>281.5</ele><time>2026-04-04T01:39:31Z</time></trkpt><trkpt lat="14.239683796243973" lon="120.97402083479577"><ele>281.0</ele><time>2026-04-04T01:39:32Z</time></trkpt><trkpt lat="14.23955575334763" lon="120.9739771287015"><ele>280.5</ele><time>2026-04-04T01:39:33Z</time></trkpt><trkpt lat="14.239428720170741" lon="120.97393640615148"><ele>280.0</ele><time>2026-04-04T01:39:34Z</time></trkpt><trkpt lat="14.239298892060356" lon="120.97389309978225"><ele>280.0</ele><time>2026-04-04T01:39:35Z</time></trkpt><trkpt lat="14.239167590101637" lon="120.97384881274091"><ele>280.0</ele><time>2026-04-04T01:39:36Z</time></trkpt><trkpt lat="14.239038924892391" lon="120.97380531100444"><ele>280.0</ele><time>2026-04-04T01:39:37Z</time></trkpt><trkpt lat="14.238908009424474" lon="120.97375936314376"><ele>280.0</ele><time>2026-04-04T01:39:38Z</time></trkpt><trkpt lat="14.238772747852815" lon="120.97371169321653"><ele>280.75</ele><time>2026-04-04T01:39:39Z</time></trkpt><trkpt lat="14.238639624546757" lon="120.97366738132597"><ele>281.5</ele><time>2026-04-04T01:39:40Z</time></trkpt><trkpt lat="14.238505636875908" lon="120.97362439717483"><ele>282.25</ele><time>2026-04-04T01:39:41Z</time></trkpt><trkpt lat="14.23836629147541" lon="120.97358023678756"><ele>283.0</ele><time>2026-04-04T01:39:42Z</time></trkpt><trkpt lat="14.238228752833667" lon="120.97353297830425"><ele>283.75</ele><time>2026-04-04T01:39:43Z</time></trkpt><trkpt lat="14.238089566545476" lon="120.97348450695097"><ele>284.5</ele><time>2026-04-04T01:39:44Z</time></trkpt><trkpt lat="14.237947549332512" lon="120.97343501322197"><ele>285.25</ele><time>2026-04-04T01:39:45Z</time></trkpt><trkpt lat="14.23780880424107" lon="120.97338660765155"><ele>286.0</ele><time>2026-04-04T01:39:46Z</time></trkpt><trkpt lat="14.237667405282206" lon="120.97333929441947"><ele>286.3333333333333</ele><time>2026-04-04T01:39:47Z</time></trkpt><trkpt lat="14.237525705430988" lon="120.9732898360227"><ele>286.6666666666667</ele><time>2026-04-04T01:39:48Z</time></trkpt><trkpt lat="14.23738217136723" lon="120.9732425603613"><ele>287.0</ele><time>2026-04-04T01:39:49Z</time></trkpt><trkpt lat="14.237234128757013" lon="120.97319798560832"><ele>287.33333333333337</ele><time>2026-04-04T01:39:50Z</time></trkpt><trkpt lat="14.237089255330917" lon="120.9731468715678"><ele>287.6666666666667</ele><time>2026-04-04T01:39:51Z</time></trkpt><trkpt lat="14.236943765070151" lon="120.97310102522098"><ele>288.0</ele><time>2026-04-04T01:39:52Z</time></trkpt><trkpt lat="14.23679246536598" lon="120.9730490175831"><ele>288.0</ele><time>2026-04-04T01:39:53Z</time></trkpt><trkpt lat="14.236645595654384" lon="120.97299696403418"><ele>288.0</ele><time>2026-04-04T01:39:54Z</time></trkpt><trkpt lat="14.236491394380703" lon="120.97294454493381"><ele>288.0</ele><time>2026-04-04T01:39:55Z</time></trkpt><trkpt lat="14.236338958467043" lon="120.97289422565872"><ele>287.6666666666667</ele><time>2026-04-04T01:39:56Z</time></trkpt><trkpt lat="14.236181174213456" lon="120.97284624562018"><ele>287.33333333333337</ele><time>2026-04-04T01:39:57Z</time></trkpt><trkpt lat="14.236027496005525" lon="120.97279681895982"><ele>287.0</ele><time>2026-04-04T01:39:58Z</time></trkpt><trkpt lat="14.235889414954597" lon="120.97274634989171"><ele>287.0</ele><time>2026-04-04T01:39:59Z</time></trkpt><trkpt lat="14.235758127985344" lon="120.97270074695703"><ele>287.0</ele><time>2026-04-04T01:40:00Z</time></trkpt><trkpt lat="14.235629990961938" lon="120.9726557211809"><ele>287.0</ele><time>2026-04-04T01:40:01Z</time></trkpt><trkpt lat="14.235500086934737" lon="120.97260898026353"><ele>287.0</ele><time>2026-04-04T01:40:02Z</time></trkpt><trkpt lat="14.235371495756185" lon="120.97256472658883"><ele>287.75</ele><time>2026-04-04T01:40:03Z</time></trkpt><trkpt lat="14.235242505124706" lon="120.9725230237715"><ele>288.5</ele><time>2026-04-04T01:40:04Z</time></trkpt><trkpt lat="14.235109782155194" lon="120.97247587440715"><ele>289.25</ele><time>2026-04-04T01:40:05Z</time></trkpt><trkpt lat="14.234975916877152" lon="120.97242464857617"><ele>290.0</ele><time>2026-04-04T01:40:06Z</time></trkpt><trkpt lat="14.234834321542593" lon="120.97237277417501"><ele>290.0</ele><time>2026-04-04T01:40:07Z</time></trkpt><trkpt lat="14.234687639124775" lon="120.97232164820515"><ele>290.0</ele><time>2026-04-04T01:40:08Z</time></trkpt><trkpt lat="14.234539438068841" lon="120.9722707080354"><ele>290.0</ele><time>2026-04-04T01:40:09Z</time></trkpt><trkpt lat="14.234386951040417" lon="120.9722298486489"><ele>290.0</ele><time>2026-04-04T01:40:10Z</time></trkpt><trkpt lat="14.23423226520053" lon="120.97218729685788"><ele>290.0</ele><time>2026-04-04T01:40:11Z</time></trkpt><trkpt lat="14.23407477233718" lon="120.97213669771587"><ele>290.0</ele><time>2026-04-04T01:40:12.001Z</time></trkpt><trkpt lat="14.233914287678983" lon="120.97208107300064"><ele>290.6666666666667</ele><time>2026-04-04T01:40:13.001Z</time></trkpt><trkpt lat="14.233749351053788" lon="120.9720219616782"><ele>291.3333333333333</ele><time>2026-04-04T01:40:14.001Z</time></trkpt><trkpt lat="14.233584109342058" lon="120.97196615116458"><ele>292.0</ele><time>2026-04-04T01:40:15.001Z</time></trkpt><trkpt lat="14.233412821861757" lon="120.97191193671992"><ele>292.0</ele><time>2026-04-04T01:40:16.001Z</time></trkpt><trkpt lat="14.233245256364418" lon="120.97184103841579"><ele>292.0</ele><time>2026-04-04T01:40:17.001Z</time></trkpt><trkpt lat="14.233077972529097" lon="120.97178422747633"><ele>292.0</ele><time>2026-04-04T01:40:18.001Z</time></trkpt><trkpt lat="14.232917733607973" lon="120.97172980870337"><ele>293.0</ele><time>2026-04-04T01:40:19.001Z</time></trkpt><trkpt lat="14.232762908224272" lon="120.97167722843683"><ele>294.0</ele><time>2026-04-04T01:40:20.001Z</time></trkpt><trkpt lat="14.232617315146776" lon="120.97162778354642"><ele>295.0</ele><time>2026-04-04T01:40:21.001Z</time></trkpt><trkpt lat="14.23246649183685" lon="120.97157651193663"><ele>295.0</ele><time>2026-04-04T01:40:22.001Z</time></trkpt><trkpt lat="14.232311757959353" lon="120.97152479086138"><ele>295.0</ele><time>2026-04-04T01:40:23.001Z</time></trkpt><trkpt lat="14.232157239340784" lon="120.9714724814041"><ele>295.0</ele><time>2026-04-04T01:40:24.001Z</time></trkpt><trkpt lat="14.231999981536259" lon="120.97141925422623"><ele>296.0</ele><time>2026-04-04T01:40:25.001Z</time></trkpt><trkpt lat="14.231840797584962" lon="120.97136537509249"><ele>297.0</ele><time>2026-04-04T01:40:26.001Z</time></trkpt><trkpt lat="14.23168166953102" lon="120.97132818218593"><ele>298.0</ele><time>2026-04-04T01:40:27.001Z</time></trkpt><trkpt lat="14.231533763647077" lon="120.97127681805634"><ele>299.5</ele><time>2026-04-04T01:40:28.001Z</time></trkpt><trkpt lat="14.231393706864951" lon="120.97121401927933"><ele>301.0</ele><time>2026-04-04T01:40:29.001Z</time></trkpt><trkpt lat="14.231255141247889" lon="120.97116697129388"><ele>302.5</ele><time>2026-04-04T01:40:30.001Z</time></trkpt><trkpt lat="14.23111403948288" lon="120.97111906219497"><ele>304.0</ele><time>2026-04-04T01:40:31.001Z</time></trkpt><trkpt lat="14.23097895516678" lon="120.97107319624209"><ele>304.0</ele><time>2026-04-04T01:40:32.001Z</time></trkpt><trkpt lat="14.230836060336243" lon="120.97104186761666"><ele>304.0</ele><time>2026-04-04T01:40:33.001Z</time></trkpt><trkpt lat="14.230698169047233" lon="120.97099427385784"><ele>304.0</ele><time>2026-04-04T01:40:34.001Z</time></trkpt><trkpt lat="14.230561999086806" lon="120.97094622666162"><ele>304.0</ele><time>2026-04-04T01:40:35.001Z</time></trkpt><trkpt lat="14.230422412496573" lon="120.97089900645884"><ele>303.0</ele><time>2026-04-04T01:40:36.001Z</time></trkpt><trkpt lat="14.230280591141058" lon="120.97085081299352"><ele>302.0</ele><time>2026-04-04T01:40:37.001Z</time></trkpt><trkpt lat="14.230137098429879" lon="120.9708005476112"><ele>301.0</ele><time>2026-04-04T01:40:38.001Z</time></trkpt><trkpt lat="14.23000557478443" lon="120.97075451431274"><ele>300.0</ele><time>2026-04-04T01:40:39.001Z</time></trkpt><trkpt lat="14.22987013028627" lon="120.97071039386566"><ele>300.25</ele><time>2026-04-04T01:40:40.001Z</time></trkpt><trkpt lat="14.229753118741463" lon="120.97067225809147"><ele>300.5</ele><time>2026-04-04T01:40:41.001Z</time></trkpt><trkpt lat="14.22963438032001" lon="120.97063480740543"><ele>300.75</ele><time>2026-04-04T01:40:42.001Z</time></trkpt><trkpt lat="14.229525511424145" lon="120.97059875384744"><ele>301.0</ele><time>2026-04-04T01:40:43.001Z</time></trkpt><trkpt lat="14.229422230144792" lon="120.97055774667625"><ele>301.0</ele><time>2026-04-04T01:40:44.001Z</time></trkpt><trkpt lat="14.229337879950451" lon="120.97052678667524"><ele>301.0</ele><time>2026-04-04T01:40:45.001Z</time></trkpt><trkpt lat="14.229251684136369" lon="120.97050155173828"><ele>301.0</ele><time>2026-04-04T01:40:46.001Z</time></trkpt><trkpt lat="14.229180430554583" lon="120.97047844575269"><ele>301.0</ele><time>2026-04-04T01:40:47.001Z</time></trkpt><trkpt lat="14.22910103746715" lon="120.9704436509324"><ele>301.0</ele><time>2026-04-04T01:40:48.001Z</time></trkpt><trkpt lat="14.229024654186516" lon="120.97042329745038"><ele>301.0</ele><time>2026-04-04T01:40:49.001Z</time></trkpt><trkpt lat="14.228934977086192" lon="120.97039585946388"><ele>301.8</ele><time>2026-04-04T01:40:50.001Z</time></trkpt><trkpt lat="14.22883778433789" lon="120.97036284072107"><ele>302.6</ele><time>2026-04-04T01:40:51.001Z</time></trkpt><trkpt lat="14.228737901117567" lon="120.97032963263585"><ele>303.4</ele><time>2026-04-04T01:40:52.001Z</time></trkpt><trkpt lat="14.22863236718694" lon="120.97029296145391"><ele>304.2</ele><time>2026-04-04T01:40:53.001Z</time></trkpt><trkpt lat="14.228524050714803" lon="120.97025727598675"><ele>305.0</ele><time>2026-04-04T01:40:54.001Z</time></trkpt><trkpt lat="14.228420673436094" lon="120.97022384804485"><ele>305.0</ele><time>2026-04-04T01:40:55.001Z</time></trkpt><trkpt lat="14.228325596044206" lon="120.97019504997871"><ele>305.0</ele><time>2026-04-04T01:40:56.001Z</time></trkpt><trkpt lat="14.228229655748914" lon="120.97016482364636"><ele>305.0</ele><time>2026-04-04T01:40:57.001Z</time></trkpt><trkpt lat="14.228125912984915" lon="120.97013223501382"><ele>305.0</ele><time>2026-04-04T01:40:58.001Z</time></trkpt><trkpt lat="14.228020304398587" lon="120.97009766194972"><ele>305.0</ele><time>2026-04-04T01:40:59.001Z</time></trkpt><trkpt lat="14.227914208886325" lon="120.9700607897707"><ele>305.25</ele><time>2026-04-04T01:41:00.001Z</time></trkpt><trkpt lat="14.227800133389144" lon="120.97002641356303"><ele>305.5</ele><time>2026-04-04T01:41:01.001Z</time></trkpt><trkpt lat="14.227684039014026" lon="120.96996727268893"><ele>305.75</ele><time>2026-04-04T01:41:02.001Z</time></trkpt><trkpt lat="14.22755387181032" lon="120.96992519641105"><ele>306.0</ele><time>2026-04-04T01:41:03.001Z</time></trkpt><trkpt lat="14.22741917069203" lon="120.96987985512169"><ele>306.3333333333333</ele><time>2026-04-04T01:41:04.001Z</time></trkpt><trkpt lat="14.227278681326816" lon="120.96983255140677"><ele>306.66666666666663</ele><time>2026-04-04T01:41:05Z</time></trkpt><trkpt lat="14.227134535328581" lon="120.96978401128028"><ele>307.0</ele><time>2026-04-04T01:41:06Z</time></trkpt><trkpt lat="14.226989214797392" lon="120.96973507563393"><ele>307.0</ele><time>2026-04-04T01:41:07Z</time></trkpt><trkpt lat="14.226847183594463" lon="120.96968724764272"><ele>307.0</ele><time>2026-04-04T01:41:08Z</time></trkpt><trkpt lat="14.226703352576669" lon="120.96965656510078"><ele>307.0</ele><time>2026-04-04T01:41:09Z</time></trkpt><trkpt lat="14.226567814863213" lon="120.96960818627204"><ele>307.0</ele><time>2026-04-04T01:41:10Z</time></trkpt><trkpt lat="14.226436542988852" lon="120.9695595237241"><ele>308.0</ele><time>2026-04-04T01:41:11Z</time></trkpt><trkpt lat="14.226305385044997" lon="120.9695093624725"><ele>309.0</ele><time>2026-04-04T01:41:12Z</time></trkpt><trkpt lat="14.2261721418002" lon="120.96946376531045"><ele>310.0</ele><time>2026-04-04T01:41:13Z</time></trkpt><trkpt lat="14.226038900494835" lon="120.96941925865973"><ele>311.0</ele><time>2026-04-04T01:41:14Z</time></trkpt><trkpt lat="14.225912958976027" lon="120.96937402447773"><ele>311.0</ele><time>2026-04-04T01:41:15Z</time></trkpt><trkpt lat="14.225796267559211" lon="120.96933466254879"><ele>311.0</ele><time>2026-04-04T01:41:16Z</time></trkpt><trkpt lat="14.225675556511144" lon="120.96929617559229"><ele>311.0</ele><time>2026-04-04T01:41:17Z</time></trkpt><trkpt lat="14.22555973586137" lon="120.96925585003257"><ele>311.0</ele><time>2026-04-04T01:41:18Z</time></trkpt><trkpt lat="14.225439960529519" lon="120.96921072869151"><ele>310.5</ele><time>2026-04-04T01:41:19Z</time></trkpt><trkpt lat="14.22531832873622" lon="120.96916477511469"><ele>310.0</ele><time>2026-04-04T01:41:20Z</time></trkpt><trkpt lat="14.225196547781012" lon="120.96912123460353"><ele>309.5</ele><time>2026-04-04T01:41:21Z</time></trkpt><trkpt lat="14.225082564434686" lon="120.96908048409442"><ele>309.0</ele><time>2026-04-04T01:41:22Z</time></trkpt><trkpt lat="14.224980493236155" lon="120.96904237120934"><ele>309.0</ele><time>2026-04-04T01:41:23Z</time></trkpt><trkpt lat="14.224883830563027" lon="120.96900669992414"><ele>309.0</ele><time>2026-04-04T01:41:24Z</time></trkpt><trkpt lat="14.224796609978114" lon="120.96897448870948"><ele>309.0</ele><time>2026-04-04T01:41:25Z</time></trkpt><trkpt lat="14.224712293937486" lon="120.96894522902748"><ele>309.0</ele><time>2026-04-04T01:41:26Z</time></trkpt><trkpt lat="14.224636619845016" lon="120.96891840373816"><ele>309.0</ele><time>2026-04-04T01:41:27Z</time></trkpt><trkpt lat="14.22455814937189" lon="120.96888970670769"><ele>309.0</ele><time>2026-04-04T01:41:28Z</time></trkpt><trkpt lat="14.22448315271191" lon="120.96886310258834"><ele>309.1666666666667</ele><time>2026-04-04T01:41:29Z</time></trkpt><trkpt lat="14.224410032042579" lon="120.96883705812012"><ele>309.3333333333333</ele><time>2026-04-04T01:41:30Z</time></trkpt><trkpt lat="14.224348007942211" lon="120.96881640873785"><ele>309.5</ele><time>2026-04-04T01:41:31Z</time></trkpt><trkpt lat="14.224242004421782" lon="120.96878519925036"><ele>309.66666666666663</ele><time>2026-04-04T01:41:33Z</time></trkpt><trkpt lat="14.2241640556094" lon="120.96876252554738"><ele>309.8333333333333</ele><time>2026-04-04T01:41:35Z</time></trkpt><trkpt lat="14.224082617415185" lon="120.96873881232001"><ele>310.0</ele><time>2026-04-04T01:42:08Z</time></trkpt><trkpt lat="14.223999562933573" lon="120.96871092884714"><ele>310.66666666666663</ele><time>2026-04-04T01:42:10Z</time></trkpt><trkpt lat="14.22388416509214" lon="120.96867601845446"><ele>311.3333333333333</ele><time>2026-04-04T01:42:12Z</time></trkpt><trkpt lat="14.22382191599727" lon="120.96865655269606"><ele>312.0</ele><time>2026-04-04T01:42:13Z</time></trkpt><trkpt lat="14.22375773473916" lon="120.96863668753925"><ele>312.6666666666667</ele><time>2026-04-04T01:42:14Z</time></trkpt><trkpt lat="14.223688927175415" lon="120.96861188253303"><ele>313.33333333333337</ele><time>2026-04-04T01:42:15Z</time></trkpt><trkpt lat="14.223615744393792" lon="120.96858615874015"><ele>314.0</ele><time>2026-04-04T01:42:16Z</time></trkpt><trkpt lat="14.22353080365737" lon="120.96855994189504"><ele>314.0</ele><time>2026-04-04T01:42:17Z</time></trkpt><trkpt lat="14.223444440569788" lon="120.96853418647993"><ele>314.0</ele><time>2026-04-04T01:42:18Z</time></trkpt><trkpt lat="14.223355006800919" lon="120.96850695478943"><ele>314.0</ele><time>2026-04-04T01:42:19Z</time></trkpt><trkpt lat="14.223266016296801" lon="120.96847929979023"><ele>314.0</ele><time>2026-04-04T01:42:20Z</time></trkpt><trkpt lat="14.22317558860789" lon="120.9684519679079"><ele>314.0</ele><time>2026-04-04T01:42:21Z</time></trkpt><trkpt lat="14.223081328935997" lon="120.96842589414806"><ele>314.2</ele><time>2026-04-04T01:42:22Z</time></trkpt><trkpt lat="14.222982545723818" lon="120.96840364930246"><ele>314.4</ele><time>2026-04-04T01:42:23Z</time></trkpt><trkpt lat="14.2228818397837" lon="120.9683820016163"><ele>314.6</ele><time>2026-04-04T01:42:24Z</time></trkpt><trkpt lat="14.222780414906675" lon="120.96836295213488"><ele>314.8</ele><time>2026-04-04T01:42:25Z</time></trkpt><trkpt lat="14.222675459438031" lon="120.96834647297919"><ele>315.0</ele><time>2026-04-04T01:42:26.001Z</time></trkpt><trkpt lat="14.222567812214812" lon="120.96833259743656"><ele>315.0</ele><time>2026-04-04T01:42:27.001Z</time></trkpt><trkpt lat="14.222460468049022" lon="120.96831865307217"><ele>315.0</ele><time>2026-04-04T01:42:28.001Z</time></trkpt><trkpt lat="14.222343552471882" lon="120.9683053301419"><ele>315.0</ele><time>2026-04-04T01:42:29.001Z</time></trkpt><trkpt lat="14.22222772582731" lon="120.9682936809604"><ele>315.0</ele><time>2026-04-04T01:42:30.001Z</time></trkpt><trkpt lat="14.222105772079548" lon="120.96828526667689"><ele>315.0</ele><time>2026-04-04T01:42:31.001Z</time></trkpt><trkpt lat="14.221983370194504" lon="120.9682790062891"><ele>315.0</ele><time>2026-04-04T01:42:32.001Z</time></trkpt><trkpt lat="14.221853360328307" lon="120.96827771623421"><ele>315.0</ele><time>2026-04-04T01:42:33.001Z</time></trkpt><trkpt lat="14.221726241470753" lon="120.96827679926096"><ele>315.0</ele><time>2026-04-04T01:42:34.001Z</time></trkpt><trkpt lat="14.221606985654013" lon="120.9682798934371"><ele>315.0</ele><time>2026-04-04T01:42:35.001Z</time></trkpt><trkpt lat="14.221486513041334" lon="120.96828371440547"><ele>315.0</ele><time>2026-04-04T01:42:36.001Z</time></trkpt><trkpt lat="14.22136444789747" lon="120.96828733331084"><ele>315.0</ele><time>2026-04-04T01:42:37.001Z</time></trkpt><trkpt lat="14.221243110808995" lon="120.9682912010026"><ele>315.0</ele><time>2026-04-04T01:42:38.001Z</time></trkpt><trkpt lat="14.221120373005999" lon="120.96829853620889"><ele>315.5</ele><time>2026-04-04T01:42:39.001Z</time></trkpt><trkpt lat="14.220993376102214" lon="120.96830541765489"><ele>316.0</ele><time>2026-04-04T01:42:40.001Z</time></trkpt><trkpt lat="14.220871274738867" lon="120.96830850698393"><ele>316.5</ele><time>2026-04-04T01:42:41.001Z</time></trkpt><trkpt lat="14.22075048354868" lon="120.96831392728444"><ele>317.0</ele><time>2026-04-04T01:42:42.001Z</time></trkpt><trkpt lat="14.220628723494785" lon="120.96832069932772"><ele>318.0</ele><time>2026-04-04T01:42:43.001Z</time></trkpt><trkpt lat="14.22050519761732" lon="120.96832810573898"><ele>319.0</ele><time>2026-04-04T01:42:44.001Z</time></trkpt><trkpt lat="14.220376518024405" lon="120.9683367759282"><ele>320.0</ele><time>2026-04-04T01:42:45.001Z</time></trkpt><trkpt lat="14.220244869041004" lon="120.96834407648944"><ele>321.0</ele><time>2026-04-04T01:42:46.001Z</time></trkpt><trkpt lat="14.220108985189068" lon="120.96835022993575"><ele>321.0</ele><time>2026-04-04T01:42:47.001Z</time></trkpt><trkpt lat="14.219976731207344" lon="120.96835646856084"><ele>321.0</ele><time>2026-04-04T01:42:48.001Z</time></trkpt><trkpt lat="14.219842885798954" lon="120.96836179554992"><ele>321.0</ele><time>2026-04-04T01:42:49.001Z</time></trkpt><trkpt lat="14.21971066663714" lon="120.9683733070159"><ele>321.0</ele><time>2026-04-04T01:42:50.001Z</time></trkpt><trkpt lat="14.219573641280888" lon="120.96838357313534"><ele>321.0</ele><time>2026-04-04T01:42:51.001Z</time></trkpt><trkpt lat="14.219434882535094" lon="120.96838818633755"><ele>321.0</ele><time>2026-04-04T01:42:52.001Z</time></trkpt><trkpt lat="14.219291755382153" lon="120.96839257161832"><ele>321.0</ele><time>2026-04-04T01:42:53.001Z</time></trkpt><trkpt lat="14.219155618567076" lon="120.96840209449138"><ele>321.0</ele><time>2026-04-04T01:42:54.001Z</time></trkpt><trkpt lat="14.219020520820754" lon="120.96841229578489"><ele>321.8</ele><time>2026-04-04T01:42:55.001Z</time></trkpt><trkpt lat="14.218895668879117" lon="120.96842141537795"><ele>322.6</ele><time>2026-04-04T01:42:56.001Z</time></trkpt><trkpt lat="14.218783103202524" lon="120.96842671921542"><ele>323.4</ele><time>2026-04-04T01:42:57.001Z</time></trkpt><trkpt lat="14.218677734779307" lon="120.96843129481448"><ele>324.2</ele><time>2026-04-04T01:42:58.001Z</time></trkpt><trkpt lat="14.218576230986809" lon="120.96844032373436"><ele>325.0</ele><time>2026-04-04T01:42:59.001Z</time></trkpt><trkpt lat="14.218474009272898" lon="120.96845138895696"><ele>325.0</ele><time>2026-04-04T01:43:00.001Z</time></trkpt><trkpt lat="14.218367467989987" lon="120.96846364059688"><ele>325.0</ele><time>2026-04-04T01:43:01.001Z</time></trkpt><trkpt lat="14.218261019520986" lon="120.96847247536188"><ele>325.0</ele><time>2026-04-04T01:43:02.001Z</time></trkpt><trkpt lat="14.218150292230423" lon="120.96847903570828"><ele>325.0</ele><time>2026-04-04T01:43:03.001Z</time></trkpt><trkpt lat="14.218038586440866" lon="120.96848665321163"><ele>325.0</ele><time>2026-04-04T01:43:04.001Z</time></trkpt><trkpt lat="14.217926897244096" lon="120.96849487018913"><ele>325.4</ele><time>2026-04-04T01:43:05.001Z</time></trkpt><trkpt lat="14.21782196026725" lon="120.96850116514354"><ele>325.8</ele><time>2026-04-04T01:43:06.001Z</time></trkpt><trkpt lat="14.217724131013831" lon="120.96850710392316"><ele>326.20000000000005</ele><time>2026-04-04T01:43:07Z</time></trkpt><trkpt lat="14.217621913253101" lon="120.96851373793568"><ele>326.6</ele><time>2026-04-04T01:43:08Z</time></trkpt><trkpt lat="14.217523695548289" lon="120.96852244143136"><ele>327.0</ele><time>2026-04-04T01:43:09Z</time></trkpt><trkpt lat="14.21743175662007" lon="120.96852921201106"><ele>327.0</ele><time>2026-04-04T01:43:10Z</time></trkpt><trkpt lat="14.217344371390686" lon="120.96853267384097"><ele>327.0</ele><time>2026-04-04T01:43:11Z</time></trkpt><trkpt lat="14.217251353289631" lon="120.96854004604045"><ele>327.0</ele><time>2026-04-04T01:43:12Z</time></trkpt><trkpt lat="14.217150380112777" lon="120.9685482817722"><ele>327.0</ele><time>2026-04-04T01:43:13Z</time></trkpt><trkpt lat="14.217039084604979" lon="120.96855887589983"><ele>327.0</ele><time>2026-04-04T01:43:14Z</time></trkpt><trkpt lat="14.216922509566068" lon="120.96857000547962"><ele>327.5</ele><time>2026-04-04T01:43:15Z</time></trkpt><trkpt lat="14.216805516765799" lon="120.96858025131343"><ele>328.0</ele><time>2026-04-04T01:43:16Z</time></trkpt><trkpt lat="14.216682252785949" lon="120.96856966151336"><ele>328.5</ele><time>2026-04-04T01:43:17Z</time></trkpt><trkpt lat="14.216564642000499" lon="120.96857583288839"><ele>329.0</ele><time>2026-04-04T01:43:18Z</time></trkpt><trkpt lat="14.216447452165259" lon="120.96858199855282"><ele>329.25</ele><time>2026-04-04T01:43:19Z</time></trkpt><trkpt lat="14.216325760129541" lon="120.96858844220515"><ele>329.5</ele><time>2026-04-04T01:43:20Z</time></trkpt><trkpt lat="14.216209871447324" lon="120.96859457856601"><ele>329.75</ele><time>2026-04-04T01:43:21Z</time></trkpt><trkpt lat="14.21609795576499" lon="120.96860050455534"><ele>330.0</ele><time>2026-04-04T01:43:22Z</time></trkpt><trkpt lat="14.215985648001942" lon="120.96860605310063"><ele>330.0</ele><time>2026-04-04T01:43:23Z</time></trkpt><trkpt lat="14.215864144189455" lon="120.96861207153908"><ele>330.0</ele><time>2026-04-04T01:43:24Z</time></trkpt><trkpt lat="14.215748696672422" lon="120.9686337501373"><ele>330.0</ele><time>2026-04-04T01:43:25Z</time></trkpt><trkpt lat="14.215637694263142" lon="120.96863710156667"><ele>330.0</ele><time>2026-04-04T01:43:26Z</time></trkpt><trkpt lat="14.215546175513952" lon="120.9686420572472"><ele>330.0</ele><time>2026-04-04T01:43:27Z</time></trkpt><trkpt lat="14.215473516226545" lon="120.9686455755774"><ele>330.6666666666667</ele><time>2026-04-04T01:43:28Z</time></trkpt><trkpt lat="14.215363152625077" lon="120.96864417824752"><ele>331.3333333333333</ele><time>2026-04-04T01:43:30Z</time></trkpt><trkpt lat="14.215256692427605" lon="120.96865493958265"><ele>332.0</ele><time>2026-04-04T01:43:32Z</time></trkpt><trkpt lat="14.21516575601649" lon="120.96864733576537"><ele>332.66666666666663</ele><time>2026-04-04T01:43:34Z</time></trkpt><trkpt lat="14.215102250614375" lon="120.96864988683552"><ele>333.3333333333333</ele><time>2026-04-04T01:43:36Z</time></trkpt><trkpt lat="14.215033388486903" lon="120.96865257837554"><ele>334.0</ele><time>2026-04-04T01:43:39Z</time></trkpt><trkpt lat="14.21495350320831" lon="120.96863669520732"><ele>334.0</ele><time>2026-04-04T01:43:45Z</time></trkpt><trkpt lat="14.214866661548742" lon="120.96863989040193"><ele>334.0</ele><time>2026-04-04T01:43:47Z</time></trkpt><trkpt lat="14.214791362675234" lon="120.96863601979743"><ele>334.0</ele><time>2026-04-04T01:43:50Z</time></trkpt><trkpt lat="14.214726245694848" lon="120.96863753081355"><ele>334.0</ele><time>2026-04-04T01:44:18Z</time></trkpt><trkpt lat="14.214660338812223" lon="120.96864111524513"><ele>334.0</ele><time>2026-04-04T01:44:21Z</time></trkpt><trkpt lat="14.214595236534462" lon="120.96864441709401"><ele>334.0</ele><time>2026-04-04T01:44:23Z</time></trkpt><trkpt lat="14.21452543855289" lon="120.96864924000357"><ele>334.0</ele><time>2026-04-04T01:44:25Z</time></trkpt><trkpt lat="14.214445614906591" lon="120.96865645300925"><ele>334.0</ele><time>2026-04-04T01:44:27Z</time></trkpt><trkpt lat="14.214381636466829" lon="120.96866199673012"><ele>334.0</ele><time>2026-04-04T01:44:29Z</time></trkpt><trkpt lat="14.21431589090901" lon="120.96866782672464"><ele>334.0</ele><time>2026-04-04T01:44:31Z</time></trkpt><trkpt lat="14.214225928923577" lon="120.96867685174368"><ele>334.0</ele><time>2026-04-04T01:44:34Z</time></trkpt><trkpt lat="14.214150067666345" lon="120.96868723399008"><ele>334.0</ele><time>2026-04-04T01:44:37Z</time></trkpt><trkpt lat="14.214060808027178" lon="120.96869705692637"><ele>334.0</ele><time>2026-04-04T01:44:40Z</time></trkpt><trkpt lat="14.213969332668405" lon="120.96871607608978"><ele>334.16666666666663</ele><time>2026-04-04T01:44:42Z</time></trkpt><trkpt lat="14.213902485898048" lon="120.96872353264159"><ele>334.3333333333333</ele><time>2026-04-04T01:44:43Z</time></trkpt><trkpt lat="14.213823070450626" lon="120.96872502771299"><ele>334.5</ele><time>2026-04-04T01:44:44Z</time></trkpt><trkpt lat="14.213737732670394" lon="120.96872260632426"><ele>334.6666666666667</ele><time>2026-04-04T01:44:45Z</time></trkpt><trkpt lat="14.21365932452237" lon="120.96872135123961"><ele>334.83333333333337</ele><time>2026-04-04T01:44:46Z</time></trkpt><trkpt lat="14.213588350949246" lon="120.96872278229739"><ele>335.0</ele><time>2026-04-04T01:44:47Z</time></trkpt><trkpt lat="14.213513894156648" lon="120.96872691195966"><ele>334.99999999999994</ele><time>2026-04-04T01:44:48Z</time></trkpt><trkpt lat="14.213438042342968" lon="120.96873165807509"><ele>335.0</ele><time>2026-04-04T01:44:49Z</time></trkpt><trkpt lat="14.213362736315647" lon="120.96873796407954"><ele>335.0</ele><time>2026-04-04T01:44:50Z</time></trkpt><trkpt lat="14.21329596069325" lon="120.96874382561927"><ele>335.0</ele><time>2026-04-04T01:44:51Z</time></trkpt><trkpt lat="14.213232835505037" lon="120.9687482402785"><ele>335.0</ele><time>2026-04-04T01:44:52Z</time></trkpt><trkpt lat="14.213168731964945" lon="120.9687510232613"><ele>334.99999999999994</ele><time>2026-04-04T01:44:53Z</time></trkpt><trkpt lat="14.213104543739732" lon="120.9687536250527"><ele>335.0</ele><time>2026-04-04T01:44:54Z</time></trkpt><trkpt lat="14.213037968541306" lon="120.96875597538202"><ele>335.83333333333337</ele><time>2026-04-04T01:44:55Z</time></trkpt><trkpt lat="14.212968831367178" lon="120.96876200950845"><ele>336.6666666666667</ele><time>2026-04-04T01:44:56Z</time></trkpt><trkpt lat="14.212904785537859" lon="120.96876682059457"><ele>337.5</ele><time>2026-04-04T01:44:57Z</time></trkpt><trkpt lat="14.2128398960845" lon="120.96877348045433"><ele>338.3333333333333</ele><time>2026-04-04T01:44:58Z</time></trkpt><trkpt lat="14.212765205590678" lon="120.96877880986352"><ele>339.16666666666663</ele><time>2026-04-04T01:44:59Z</time></trkpt><trkpt lat="14.212679234280067" lon="120.96878373857194"><ele>340.0</ele><time>2026-04-04T01:45:00Z</time></trkpt><trkpt lat="14.212578125861464" lon="120.96878564690896"><ele>340.0</ele><time>2026-04-04T01:45:01Z</time></trkpt><trkpt lat="14.212472159119661" lon="120.96878238953653"><ele>340.0</ele><time>2026-04-04T01:45:02Z</time></trkpt><trkpt lat="14.212361422212265" lon="120.96878062696737"><ele>340.0</ele><time>2026-04-04T01:45:03Z</time></trkpt><trkpt lat="14.212257323058168" lon="120.96877743771232"><ele>340.0</ele><time>2026-04-04T01:45:04Z</time></trkpt><trkpt lat="14.212155735429379" lon="120.96876982038171"><ele>340.0</ele><time>2026-04-04T01:45:05Z</time></trkpt><trkpt lat="14.21206117100263" lon="120.96876065586066"><ele>340.16666666666663</ele><time>2026-04-04T01:45:06Z</time></trkpt><trkpt lat="14.211966632712336" lon="120.9687448303696"><ele>340.3333333333333</ele><time>2026-04-04T01:45:07Z</time></trkpt><trkpt lat="14.211870753301406" lon="120.96872738978773"><ele>340.5</ele><time>2026-04-04T01:45:08Z</time></trkpt><trkpt lat="14.211787713004828" lon="120.96871091963604"><ele>340.6666666666667</ele><time>2026-04-04T01:45:09Z</time></trkpt><trkpt lat="14.211709832074208" lon="120.96869367802846"><ele>340.83333333333337</ele><time>2026-04-04T01:45:10Z</time></trkpt><trkpt lat="14.211644659784819" lon="120.96868115760329"><ele>341.0</ele><time>2026-04-04T01:45:11Z</time></trkpt><trkpt lat="14.211576665532961" lon="120.96866477283953"><ele>341.0</ele><time>2026-04-04T01:45:12Z</time></trkpt><trkpt lat="14.211511554277587" lon="120.96862909840341"><ele>341.0</ele><time>2026-04-04T01:45:13Z</time></trkpt><trkpt lat="14.211436796708384" lon="120.96860776896924"><ele>341.0</ele><time>2026-04-04T01:45:14Z</time></trkpt><trkpt lat="14.21136389112912" lon="120.96858683969187"><ele>341.0</ele><time>2026-04-04T01:45:15Z</time></trkpt><trkpt lat="14.211291626869633" lon="120.9685660574965"><ele>341.0</ele><time>2026-04-04T01:45:16Z</time></trkpt><trkpt lat="14.211227573933389" lon="120.96854761878566"><ele>341.0</ele><time>2026-04-04T01:45:17Z</time></trkpt><trkpt lat="14.211162458640736" lon="120.96852969130407"><ele>341.0</ele><time>2026-04-04T01:45:18Z</time></trkpt><trkpt lat="14.211026309223364" lon="120.96850756715375"><ele>341.83333333333337</ele><time>2026-04-04T01:45:20Z</time></trkpt><trkpt lat="14.210950757075922" lon="120.96848667728649"><ele>342.6666666666667</ele><time>2026-04-04T01:45:21Z</time></trkpt><trkpt lat="14.210875765966968" lon="120.9684638742271"><ele>343.5</ele><time>2026-04-04T01:45:22Z</time></trkpt><trkpt lat="14.21080234422315" lon="120.96844070513215"><ele>344.3333333333333</ele><time>2026-04-04T01:45:23Z</time></trkpt><trkpt lat="14.210733146867625" lon="120.96841676524396"><ele>345.16666666666663</ele><time>2026-04-04T01:45:24Z</time></trkpt><trkpt lat="14.210627390689416" lon="120.96838433035762"><ele>346.0</ele><time>2026-04-04T01:45:26Z</time></trkpt><trkpt lat="14.210500901553916" lon="120.96835033745748"><ele>346.4</ele><time>2026-04-04T01:45:28Z</time></trkpt><trkpt lat="14.210425870124272" lon="120.96833204024004"><ele>346.8</ele><time>2026-04-04T01:45:29Z</time></trkpt><trkpt lat="14.2103414456072" lon="120.96831108689295"><ele>347.2</ele><time>2026-04-04T01:45:30Z</time></trkpt><trkpt lat="14.21025008101672" lon="120.96828651777852"><ele>347.59999999999997</ele><time>2026-04-04T01:45:31Z</time></trkpt><trkpt lat="14.210162159739824" lon="120.9682452195226"><ele>348.0</ele><time>2026-04-04T01:45:32Z</time></trkpt><trkpt lat="14.210068397363155" lon="120.96821857746694"><ele>348.0</ele><time>2026-04-04T01:45:33Z</time></trkpt><trkpt lat="14.20997651147084" lon="120.96819326968331"><ele>348.0</ele><time>2026-04-04T01:45:34Z</time></trkpt><trkpt lat="14.209896786324839" lon="120.96817046073966"><ele>348.0</ele><time>2026-04-04T01:45:35Z</time></trkpt><trkpt lat="14.20980980351638" lon="120.96814580129858"><ele>348.0</ele><time>2026-04-04T01:45:36Z</time></trkpt><trkpt lat="14.2097322327949" lon="120.96812396095666"><ele>348.0</ele><time>2026-04-04T01:45:37Z</time></trkpt><trkpt lat="14.209637593607047" lon="120.96810082172173"><ele>348.0</ele><time>2026-04-04T01:45:38Z</time></trkpt><trkpt lat="14.209540534517028" lon="120.96807595281459"><ele>349.2</ele><time>2026-04-04T01:45:39Z</time></trkpt><trkpt lat="14.20944556239306" lon="120.96805141074003"><ele>350.4</ele><time>2026-04-04T01:45:40Z</time></trkpt><trkpt lat="14.209346968562391" lon="120.96802602709236"><ele>351.59999999999997</ele><time>2026-04-04T01:45:41Z</time></trkpt><trkpt lat="14.209257745026088" lon="120.96800334945418"><ele>352.79999999999995</ele><time>2026-04-04T01:45:42Z</time></trkpt><trkpt lat="14.209163242346925" lon="120.96797940819522"><ele>354.0</ele><time>2026-04-04T01:45:43Z</time></trkpt><trkpt lat="14.209080180601262" lon="120.96795822753559"><ele>354.0</ele><time>2026-04-04T01:45:44Z</time></trkpt><trkpt lat="14.2090074148166" lon="120.96793906352163"><ele>354.0</ele><time>2026-04-04T01:45:45Z</time></trkpt><trkpt lat="14.208930987026894" lon="120.96791879347843"><ele>354.0</ele><time>2026-04-04T01:45:46Z</time></trkpt><trkpt lat="14.208851436482387" lon="120.96789769485552"><ele>354.0</ele><time>2026-04-04T01:45:47Z</time></trkpt><trkpt lat="14.208766332293756" lon="120.96787512327921"><ele>354.0</ele><time>2026-04-04T01:45:48Z</time></trkpt><trkpt lat="14.20867503506197" lon="120.96785101912663"><ele>354.0</ele><time>2026-04-04T01:45:49Z</time></trkpt><trkpt lat="14.208579648093854" lon="120.96782580836987"><ele>354.4</ele><time>2026-04-04T01:45:50Z</time></trkpt><trkpt lat="14.208487531397305" lon="120.96780075222239"><ele>354.79999999999995</ele><time>2026-04-04T01:45:51Z</time></trkpt><trkpt lat="14.208386621940988" lon="120.96777539547499"><ele>355.20000000000005</ele><time>2026-04-04T01:45:52Z</time></trkpt><trkpt lat="14.208287146710619" lon="120.96775127140242"><ele>355.6</ele><time>2026-04-04T01:45:53Z</time></trkpt><trkpt lat="14.20817988520187" lon="120.967742050592"><ele>356.0</ele><time>2026-04-04T01:45:54Z</time></trkpt><trkpt lat="14.208079772759746" lon="120.96769840570438"><ele>356.25</ele><time>2026-04-04T01:45:55Z</time></trkpt><trkpt lat="14.207969753235382" lon="120.9676698322174"><ele>356.5</ele><time>2026-04-04T01:45:56Z</time></trkpt><trkpt lat="14.20785861248772" lon="120.96765792506648"><ele>356.75</ele><time>2026-04-04T01:45:57Z</time></trkpt><trkpt lat="14.207746418169217" lon="120.96762524316173"><ele>357.0</ele><time>2026-04-04T01:45:58Z</time></trkpt><trkpt lat="14.207632858691492" lon="120.96759535813864"><ele>357.0</ele><time>2026-04-04T01:45:59Z</time></trkpt><trkpt lat="14.207514359564048" lon="120.96756158744189"><ele>357.0</ele><time>2026-04-04T01:46:00Z</time></trkpt><trkpt lat="14.207400644281417" lon="120.96752934266111"><ele>357.0</ele><time>2026-04-04T01:46:01Z</time></trkpt><trkpt lat="14.20728447747615" lon="120.96749570087576"><ele>357.0</ele><time>2026-04-04T01:46:02Z</time></trkpt><trkpt lat="14.207173107813116" lon="120.96746391791609"><ele>357.20000000000005</ele><time>2026-04-04T01:46:03Z</time></trkpt><trkpt lat="14.207072961606919" lon="120.96743491735778"><ele>357.4</ele><time>2026-04-04T01:46:04Z</time></trkpt><trkpt lat="14.20698391286622" lon="120.96740602532498"><ele>357.6</ele><time>2026-04-04T01:46:05Z</time></trkpt><trkpt lat="14.206898972859706" lon="120.96737660305888"><ele>357.79999999999995</ele><time>2026-04-04T01:46:06Z</time></trkpt><trkpt lat="14.206811144095052" lon="120.96734658186706"><ele>358.0</ele><time>2026-04-04T01:46:07Z</time></trkpt><trkpt lat="14.206718849317564" lon="120.96731468629928"><ele>358.0</ele><time>2026-04-04T01:46:08Z</time></trkpt><trkpt lat="14.20662091637528" lon="120.96728281658844"><ele>358.0</ele><time>2026-04-04T01:46:09Z</time></trkpt><trkpt lat="14.206520756059986" lon="120.96724864934784"><ele>358.0</ele><time>2026-04-04T01:46:10Z</time></trkpt><trkpt lat="14.206418745602274" lon="120.96721379632037"><ele>358.0</ele><time>2026-04-04T01:46:11Z</time></trkpt><trkpt lat="14.206321123639903" lon="120.96718148375977"><ele>358.0</ele><time>2026-04-04T01:46:12Z</time></trkpt><trkpt lat="14.206230500980947" lon="120.96715029575617"><ele>358.4</ele><time>2026-04-04T01:46:13Z</time></trkpt><trkpt lat="14.2061316450991" lon="120.96711882291274"><ele>358.79999999999995</ele><time>2026-04-04T01:46:14Z</time></trkpt><trkpt lat="14.20602833550279" lon="120.96708264704486"><ele>359.2</ele><time>2026-04-04T01:46:15Z</time></trkpt><trkpt lat="14.205920269515888" lon="120.96704577913208"><ele>359.6</ele><time>2026-04-04T01:46:16Z</time></trkpt><trkpt lat="14.205805181034012" lon="120.96700849350195"><ele>360.0</ele><time>2026-04-04T01:46:17Z</time></trkpt><trkpt lat="14.205685370991633" lon="120.96697092739078"><ele>360.75</ele><time>2026-04-04T01:46:18Z</time></trkpt><trkpt lat="14.205564116226018" lon="120.96692833109482"><ele>361.5</ele><time>2026-04-04T01:46:19Z</time></trkpt><trkpt lat="14.205442536890397" lon="120.96688496438608"><ele>362.25</ele><time>2026-04-04T01:46:20Z</time></trkpt><trkpt lat="14.205324548026772" lon="120.96684173182396"><ele>363.0</ele><time>2026-04-04T01:46:21Z</time></trkpt><trkpt lat="14.205202680052281" lon="120.96680248906826"><ele>363.0</ele><time>2026-04-04T01:46:22Z</time></trkpt><trkpt lat="14.205083489697879" lon="120.96676541347215"><ele>363.0</ele><time>2026-04-04T01:46:23Z</time></trkpt><trkpt lat="14.204953315412311" lon="120.96672503494845"><ele>363.0</ele><time>2026-04-04T01:46:24Z</time></trkpt><trkpt lat="14.20483142650272" lon="120.96668416135593"><ele>363.0</ele><time>2026-04-04T01:46:25Z</time></trkpt><trkpt lat="14.204698885521646" lon="120.96664283948391"><ele>364.0</ele><time>2026-04-04T01:46:26Z</time></trkpt><trkpt lat="14.204569688506577" lon="120.96660348469626"><ele>365.0</ele><time>2026-04-04T01:46:27Z</time></trkpt><trkpt lat="14.204447566838049" lon="120.96656720125843"><ele>366.0</ele><time>2026-04-04T01:46:28Z</time></trkpt><trkpt lat="14.204338479690106" lon="120.96651574624681"><ele>367.0</ele><time>2026-04-04T01:46:29Z</time></trkpt><trkpt lat="14.20423701290501" lon="120.96648214280945"><ele>367.0</ele><time>2026-04-04T01:46:30Z</time></trkpt><trkpt lat="14.204134959771348" lon="120.96644834514274"><ele>367.0</ele><time>2026-04-04T01:46:31Z</time></trkpt><trkpt lat="14.204050808851616" lon="120.9664185150077"><ele>367.0</ele><time>2026-04-04T01:46:32Z</time></trkpt><trkpt lat="14.203956800817414" lon="120.96638643730184"><ele>367.0</ele><time>2026-04-04T01:46:33Z</time></trkpt><trkpt lat="14.203865450931099" lon="120.96635448635853"><ele>367.0</ele><time>2026-04-04T01:46:34Z</time></trkpt><trkpt lat="14.20377787242604" lon="120.96632385451052"><ele>366.40000000000003</ele><time>2026-04-04T01:46:35Z</time></trkpt><trkpt lat="14.203678573526844" lon="120.96628912327941"><ele>365.8</ele><time>2026-04-04T01:46:36Z</time></trkpt><trkpt lat="14.20358355920383" lon="120.966257151214"><ele>365.2</ele><time>2026-04-04T01:46:37Z</time></trkpt><trkpt lat="14.20349000651099" lon="120.96622629275329"><ele>364.6</ele><time>2026-04-04T01:46:38Z</time></trkpt><trkpt lat="14.203393037647617" lon="120.96619608579226"><ele>364.0</ele><time>2026-04-04T01:46:39Z</time></trkpt><trkpt lat="14.20329151431999" lon="120.9661641079987"><ele>364.0</ele><time>2026-04-04T01:46:40Z</time></trkpt><trkpt lat="14.203187895485447" lon="120.96612976648481"><ele>364.0</ele><time>2026-04-04T01:46:41Z</time></trkpt><trkpt lat="14.203087348160158" lon="120.9660958934822"><ele>364.0</ele><time>2026-04-04T01:46:42Z</time></trkpt><trkpt lat="14.202988619040346" lon="120.96606253208004"><ele>364.0</ele><time>2026-04-04T01:46:43Z</time></trkpt><trkpt lat="14.202883928608466" lon="120.96602653707518"><ele>364.0</ele><time>2026-04-04T01:46:44Z</time></trkpt><trkpt lat="14.20278637331477" lon="120.96599389704097"><ele>364.4</ele><time>2026-04-04T01:46:45Z</time></trkpt><trkpt lat="14.20268336462038" lon="120.96595918931807"><ele>364.79999999999995</ele><time>2026-04-04T01:46:46Z</time></trkpt><trkpt lat="14.202581042943047" lon="120.96592541894529"><ele>365.20000000000005</ele><time>2026-04-04T01:46:47Z</time></trkpt><trkpt lat="14.202471362812963" lon="120.96588915088472"><ele>365.6</ele><time>2026-04-04T01:46:48Z</time></trkpt><trkpt lat="14.202365490784358" lon="120.9658537540505"><ele>366.0</ele><time>2026-04-04T01:46:49Z</time></trkpt><trkpt lat="14.20225799559131" lon="120.96581781450085"><ele>366.20000000000005</ele><time>2026-04-04T01:46:50Z</time></trkpt><trkpt lat="14.202163559559649" lon="120.96577854119089"><ele>366.40000000000003</ele><time>2026-04-04T01:46:51Z</time></trkpt><trkpt lat="14.202072293215737" lon="120.96574051354912"><ele>366.6</ele><time>2026-04-04T01:46:52Z</time></trkpt><trkpt lat="14.201972070702952" lon="120.96569875416368"><ele>366.8</ele><time>2026-04-04T01:46:53Z</time></trkpt><trkpt lat="14.201873298443362" lon="120.96565759898192"><ele>367.0</ele><time>2026-04-04T01:46:54Z</time></trkpt><trkpt lat="14.201779420369434" lon="120.96560309842573"><ele>367.0</ele><time>2026-04-04T01:46:55Z</time></trkpt><trkpt lat="14.201681628439811" lon="120.96555224236167"><ele>367.0</ele><time>2026-04-04T01:46:56Z</time></trkpt><trkpt lat="14.201585259919607" lon="120.9655021265328"><ele>367.0</ele><time>2026-04-04T01:46:57Z</time></trkpt><trkpt lat="14.201481048396394" lon="120.96544793199811"><ele>367.0</ele><time>2026-04-04T01:46:58Z</time></trkpt><trkpt lat="14.201371908640867" lon="120.9653880993701"><ele>367.5</ele><time>2026-04-04T01:46:59Z</time></trkpt><trkpt lat="14.201265435989269" lon="120.9653301208134"><ele>368.0</ele><time>2026-04-04T01:47:00Z</time></trkpt><trkpt lat="14.2011580076736" lon="120.96528291518008"><ele>368.5</ele><time>2026-04-04T01:47:01Z</time></trkpt><trkpt lat="14.201056307613085" lon="120.96522429215871"><ele>369.0</ele><time>2026-04-04T01:47:02Z</time></trkpt><trkpt lat="14.200951668616518" lon="120.9651695461399"><ele>369.0</ele><time>2026-04-04T01:47:03Z</time></trkpt><trkpt lat="14.200853856596298" lon="120.96511473962468"><ele>369.0</ele><time>2026-04-04T01:47:04Z</time></trkpt><trkpt lat="14.200755708710151" lon="120.9650631587237"><ele>369.0</ele><time>2026-04-04T01:47:05Z</time></trkpt><trkpt lat="14.200657650863647" lon="120.96500964697664"><ele>369.0</ele><time>2026-04-04T01:47:06Z</time></trkpt><trkpt lat="14.200556112202849" lon="120.96495713973358"><ele>369.0</ele><time>2026-04-04T01:47:07Z</time></trkpt><trkpt lat="14.200456954453239" lon="120.96490128573483"><ele>369.1666666666667</ele><time>2026-04-04T01:47:08Z</time></trkpt><trkpt lat="14.200366054329507" lon="120.96484997209713"><ele>369.3333333333333</ele><time>2026-04-04T01:47:09Z</time></trkpt><trkpt lat="14.200304544312758" lon="120.96481487531713"><ele>369.5</ele><time>2026-04-04T01:47:10Z</time></trkpt><trkpt lat="14.200244748387995" lon="120.96476472687543"><ele>369.66666666666663</ele><time>2026-04-04T01:47:12Z</time></trkpt><trkpt lat="14.20024144671654" lon="120.96469892737014"><ele>369.8333333333333</ele><time>2026-04-04T01:47:16Z</time></trkpt><trkpt lat="14.200161849230287" lon="120.96464555055093"><ele>370.0</ele><time>2026-04-04T01:48:43Z</time></trkpt><trkpt lat="14.200107594701135" lon="120.964683864261"><ele>370.0</ele><time>2026-04-04T01:48:50Z</time></trkpt><trkpt lat="14.200026177518252" lon="120.96465547312185"><ele>370.0</ele><time>2026-04-04T01:48:52Z</time></trkpt><trkpt lat="14.199951963977272" lon="120.96462738523029"><ele>370.0</ele><time>2026-04-04T01:48:53Z</time></trkpt><trkpt lat="14.199870172213862" lon="120.96458236151733"><ele>370.0</ele><time>2026-04-04T01:48:54Z</time></trkpt><trkpt lat="14.199782117478962" lon="120.9645325929239"><ele>370.0</ele><time>2026-04-04T01:48:55Z</time></trkpt><trkpt lat="14.199690468984384" lon="120.96448437513726"><ele>370.6</ele><time>2026-04-04T01:48:56Z</time></trkpt><trkpt lat="14.19959789189501" lon="120.96443285832278"><ele>371.2</ele><time>2026-04-04T01:48:57Z</time></trkpt><trkpt lat="14.199501616936262" lon="120.96437828286614"><ele>371.79999999999995</ele><time>2026-04-04T01:48:58Z</time></trkpt><trkpt lat="14.199403983710187" lon="120.96433028938175"><ele>372.4</ele><time>2026-04-04T01:48:59Z</time></trkpt><trkpt lat="14.199310664314845" lon="120.96428269663004"><ele>373.0</ele><time>2026-04-04T01:49:00Z</time></trkpt><trkpt lat="14.199218175583828" lon="120.96423377722259"><ele>373.2</ele><time>2026-04-04T01:49:01Z</time></trkpt><trkpt lat="14.199136978926456" lon="120.96419151722037"><ele>373.4</ele><time>2026-04-04T01:49:02Z</time></trkpt><trkpt lat="14.199053001211208" lon="120.96414483656665"><ele>373.59999999999997</ele><time>2026-04-04T01:49:03Z</time></trkpt><trkpt lat="14.198974242625907" lon="120.96410401617834"><ele>373.79999999999995</ele><time>2026-04-04T01:49:04Z</time></trkpt><trkpt lat="14.198894867757422" lon="120.96406019983759"><ele>374.0</ele><time>2026-04-04T01:49:05Z</time></trkpt><trkpt lat="14.19881729746278" lon="120.96401951025707"><ele>374.1666666666667</ele><time>2026-04-04T01:49:06Z</time></trkpt><trkpt lat="14.198738150880994" lon="120.963978999051"><ele>374.33333333333337</ele><time>2026-04-04T01:49:07Z</time></trkpt><trkpt lat="14.198660543801106" lon="120.96393905511528"><ele>374.5</ele><time>2026-04-04T01:49:08Z</time></trkpt><trkpt lat="14.198590074662295" lon="120.96389842758846"><ele>374.6666666666667</ele><time>2026-04-04T01:49:09Z</time></trkpt><trkpt lat="14.198519656693858" lon="120.96385967773075"><ele>374.8333333333333</ele><time>2026-04-04T01:49:10Z</time></trkpt><trkpt lat="14.19844446258955" lon="120.96382372778665"><ele>375.0</ele><time>2026-04-04T01:49:11Z</time></trkpt><trkpt lat="14.198372152242825" lon="120.96378348600652"><ele>375.0</ele><time>2026-04-04T01:49:12Z</time></trkpt><trkpt lat="14.198296948767618" lon="120.96374435038733"><ele>375.0</ele><time>2026-04-04T01:49:13Z</time></trkpt><trkpt lat="14.198225430589396" lon="120.96368593082994"><ele>375.0</ele><time>2026-04-04T01:49:14Z</time></trkpt><trkpt lat="14.198144221986926" lon="120.96363877850246"><ele>375.0</ele><time>2026-04-04T01:49:15Z</time></trkpt><trkpt lat="14.198062326854549" lon="120.9635912275552"><ele>375.0</ele><time>2026-04-04T01:49:15.999Z</time></trkpt><trkpt lat="14.197974527036529" lon="120.96354176816877"><ele>375.4</ele><time>2026-04-04T01:49:17Z</time></trkpt><trkpt lat="14.197884091368346" lon="120.96349666531903"><ele>375.8</ele><time>2026-04-04T01:49:18Z</time></trkpt><trkpt lat="14.197786455099157" lon="120.96344797132899"><ele>376.20000000000005</ele><time>2026-04-04T01:49:18.999Z</time></trkpt><trkpt lat="14.197687777031161" lon="120.9634173236384"><ele>376.6</ele><time>2026-04-04T01:49:20Z</time></trkpt><trkpt lat="14.197598071357264" lon="120.96337518891963"><ele>377.0</ele><time>2026-04-04T01:49:21Z</time></trkpt><trkpt lat="14.197509122576967" lon="120.96333607724226"><ele>377.0</ele><time>2026-04-04T01:49:22Z</time></trkpt><trkpt lat="14.197432161710035" lon="120.96328590399706"><ele>377.0</ele><time>2026-04-04T01:49:23Z</time></trkpt><trkpt lat="14.197347948056741" lon="120.96325380533429"><ele>377.0</ele><time>2026-04-04T01:49:24Z</time></trkpt><trkpt lat="14.197263905898064" lon="120.9632398668822"><ele>377.0</ele><time>2026-04-04T01:49:25Z</time></trkpt><trkpt lat="14.197185871720706" lon="120.96320427097174"><ele>377.0</ele><time>2026-04-04T01:49:26Z</time></trkpt><trkpt lat="14.197099569742107" lon="120.9631721221033"><ele>377.0</ele><time>2026-04-04T01:49:27Z</time></trkpt><trkpt lat="14.197011148726647" lon="120.96314266170575"><ele>377.40000000000003</ele><time>2026-04-04T01:49:28Z</time></trkpt><trkpt lat="14.196917547911076" lon="120.96311335288705"><ele>377.8</ele><time>2026-04-04T01:49:29Z</time></trkpt><trkpt lat="14.19681694392209" lon="120.9630898764004"><ele>378.2</ele><time>2026-04-04T01:49:30Z</time></trkpt><trkpt lat="14.196720953582965" lon="120.96306907211877"><ele>378.6</ele><time>2026-04-04T01:49:31Z</time></trkpt><trkpt lat="14.196630655133486" lon="120.96305075224025"><ele>379.0</ele><time>2026-04-04T01:49:32Z</time></trkpt><trkpt lat="14.196536542243413" lon="120.963037758299"><ele>379.66666666666663</ele><time>2026-04-04T01:49:33Z</time></trkpt><trkpt lat="14.196457245667021" lon="120.96302445818193"><ele>380.3333333333333</ele><time>2026-04-04T01:49:34Z</time></trkpt><trkpt lat="14.196384963368757" lon="120.96301342427239"><ele>381.0</ele><time>2026-04-04T01:49:35Z</time></trkpt><trkpt lat="14.196287525142333" lon="120.96299440663923"><ele>381.6666666666667</ele><time>2026-04-04T01:49:37Z</time></trkpt><trkpt lat="14.196225687267995" lon="120.96297945383559"><ele>382.33333333333337</ele><time>2026-04-04T01:49:41Z</time></trkpt><trkpt lat="14.196120820674066" lon="120.96296759995201"><ele>383.0</ele><time>2026-04-04T01:49:46Z</time></trkpt><trkpt lat="14.196054234473685" lon="120.96295862518609"><ele>383.0</ele><time>2026-04-04T01:49:47Z</time></trkpt><trkpt lat="14.195982688281084" lon="120.96294909517601"><ele>383.0</ele><time>2026-04-04T01:49:48Z</time></trkpt><trkpt lat="14.195890411302374" lon="120.96293667409613"><ele>383.0</ele><time>2026-04-04T01:49:49Z</time></trkpt><trkpt lat="14.195793594369865" lon="120.96292342985504"><ele>383.0</ele><time>2026-04-04T01:49:50Z</time></trkpt><trkpt lat="14.195701359064184" lon="120.9629108123688"><ele>383.0</ele><time>2026-04-04T01:49:51Z</time></trkpt><trkpt lat="14.19560525217931" lon="120.96289766526073"><ele>382.59999999999997</ele><time>2026-04-04T01:49:52Z</time></trkpt><trkpt lat="14.195504934350856" lon="120.96288394211017"><ele>382.2</ele><time>2026-04-04T01:49:53Z</time></trkpt><trkpt lat="14.195412470928728" lon="120.96287129338747"><ele>381.8</ele><time>2026-04-04T01:49:54Z</time></trkpt><trkpt lat="14.19532493914794" lon="120.96286027118485"><ele>381.4</ele><time>2026-04-04T01:49:55Z</time></trkpt><trkpt lat="14.195242987442535" lon="120.96284947199192"><ele>381.0</ele><time>2026-04-04T01:49:56Z</time></trkpt><trkpt lat="14.19513882448175" lon="120.96283574591293"><ele>381.0</ele><time>2026-04-04T01:49:57Z</time></trkpt><trkpt lat="14.195038905114073" lon="120.9628225790202"><ele>381.0</ele><time>2026-04-04T01:49:58Z</time></trkpt><trkpt lat="14.194929291515956" lon="120.96280822949167"><ele>381.0</ele><time>2026-04-04T01:49:59Z</time></trkpt><trkpt lat="14.194818078120704" lon="120.96279365715321"><ele>381.0</ele><time>2026-04-04T01:50:00Z</time></trkpt><trkpt lat="14.194697271607659" lon="120.96277791313946"><ele>381.0</ele><time>2026-04-04T01:50:01Z</time></trkpt><trkpt lat="14.194580465171994" lon="120.96276135775965"><ele>381.25</ele><time>2026-04-04T01:50:02Z</time></trkpt><trkpt lat="14.194458082440418" lon="120.96274652368506"><ele>381.5</ele><time>2026-04-04T01:50:03Z</time></trkpt><trkpt lat="14.194339865290159" lon="120.96273082105466"><ele>381.75</ele><time>2026-04-04T01:50:04Z</time></trkpt><trkpt lat="14.194219143814781" lon="120.96271530623318"><ele>382.0</ele><time>2026-04-04T01:50:05Z</time></trkpt><trkpt lat="14.194094306584436" lon="120.96269972476829"><ele>382.75</ele><time>2026-04-04T01:50:06Z</time></trkpt><trkpt lat="14.19396269242591" lon="120.96268374832718"><ele>383.5</ele><time>2026-04-04T01:50:07Z</time></trkpt><trkpt lat="14.193841869066704" lon="120.96266944192716"><ele>384.25</ele><time>2026-04-04T01:50:08Z</time></trkpt><trkpt lat="14.19372574675319" lon="120.96265573883166"><ele>385.0</ele><time>2026-04-04T01:50:09Z</time></trkpt><trkpt lat="14.193617857401598" lon="120.96264334128131"><ele>385.0</ele><time>2026-04-04T01:50:10Z</time></trkpt><trkpt lat="14.193502925095943" lon="120.9626296528572"><ele>385.0</ele><time>2026-04-04T01:50:11Z</time></trkpt><trkpt lat="14.1933859174596" lon="120.9626165306474"><ele>385.0</ele><time>2026-04-04T01:50:12Z</time></trkpt><trkpt lat="14.193269438971303" lon="120.96260137497828"><ele>385.0</ele><time>2026-04-04T01:50:13Z</time></trkpt><trkpt lat="14.19314738436768" lon="120.96258555460359"><ele>385.25</ele><time>2026-04-04T01:50:14Z</time></trkpt><trkpt lat="14.193025568463321" lon="120.96256958318497"><ele>385.5</ele><time>2026-04-04T01:50:15Z</time></trkpt><trkpt lat="14.192898440320835" lon="120.96255291523187"><ele>385.75</ele><time>2026-04-04T01:50:16Z</time></trkpt><trkpt lat="14.192771607094185" lon="120.96253510794418"><ele>386.0</ele><time>2026-04-04T01:50:17Z</time></trkpt><trkpt lat="14.19264187386503" lon="120.96251686959026"><ele>386.0</ele><time>2026-04-04T01:50:18Z</time></trkpt><trkpt lat="14.192508347706426" lon="120.96249854976276"><ele>386.0</ele><time>2026-04-04T01:50:19Z</time></trkpt><trkpt lat="14.192371873096123" lon="120.96247970254805"><ele>386.0</ele><time>2026-04-04T01:50:20Z</time></trkpt><trkpt lat="14.192235733972305" lon="120.96246090166464"><ele>386.0</ele><time>2026-04-04T01:50:21Z</time></trkpt><trkpt lat="14.19210535685612" lon="120.96244289651592"><ele>386.0</ele><time>2026-04-04T01:50:22Z</time></trkpt><trkpt lat="14.191966685284001" lon="120.96242575167649"><ele>386.0</ele><time>2026-04-04T01:50:23Z</time></trkpt><trkpt lat="14.191838933193205" lon="120.96241099897863"><ele>386.0</ele><time>2026-04-04T01:50:24Z</time></trkpt><trkpt lat="14.19171699822587" lon="120.96239691803497"><ele>386.0</ele><time>2026-04-04T01:50:25Z</time></trkpt><trkpt lat="14.191581781230346" lon="120.96238130324998"><ele>386.75</ele><time>2026-04-04T01:50:26Z</time></trkpt><trkpt lat="14.191462619870153" lon="120.96236487537325"><ele>387.5</ele><time>2026-04-04T01:50:27Z</time></trkpt><trkpt lat="14.191328854955662" lon="120.9623499990496"><ele>388.25</ele><time>2026-04-04T01:50:28Z</time></trkpt><trkpt lat="14.19120797315592" lon="120.9623339218428"><ele>389.0</ele><time>2026-04-04T01:50:29Z</time></trkpt><trkpt lat="14.191081554698764" lon="120.96231713608479"><ele>389.0</ele><time>2026-04-04T01:50:30Z</time></trkpt><trkpt lat="14.190958061329631" lon="120.9623007387162"><ele>389.0</ele><time>2026-04-04T01:50:31Z</time></trkpt><trkpt lat="14.190841900879217" lon="120.9622853150073"><ele>389.0</ele><time>2026-04-04T01:50:32Z</time></trkpt><trkpt lat="14.190734411195294" lon="120.9622706690329"><ele>389.0</ele><time>2026-04-04T01:50:33Z</time></trkpt><trkpt lat="14.190626593123042" lon="120.96225629923065"><ele>388.79999999999995</ele><time>2026-04-04T01:50:34Z</time></trkpt><trkpt lat="14.190522441706973" lon="120.96224364493577"><ele>388.59999999999997</ele><time>2026-04-04T01:50:35Z</time></trkpt><trkpt lat="14.190425334260738" lon="120.96223184647144"><ele>388.4</ele><time>2026-04-04T01:50:36Z</time></trkpt><trkpt lat="14.190332686122545" lon="120.962219557711"><ele>388.2</ele><time>2026-04-04T01:50:37Z</time></trkpt><trkpt lat="14.190241045805676" lon="120.96220742441311"><ele>388.0</ele><time>2026-04-04T01:50:38Z</time></trkpt><trkpt lat="14.190146942801215" lon="120.96219496503151"><ele>388.0</ele><time>2026-04-04T01:50:39Z</time></trkpt><trkpt lat="14.19004771597697" lon="120.96217980530591"><ele>388.0</ele><time>2026-04-04T01:50:40Z</time></trkpt><trkpt lat="14.189939601257677" lon="120.9621638909482"><ele>388.0</ele><time>2026-04-04T01:50:41Z</time></trkpt><trkpt lat="14.189833422584282" lon="120.96215093476889"><ele>388.0</ele><time>2026-04-04T01:50:42Z</time></trkpt><trkpt lat="14.189737685646021" lon="120.96214072190159"><ele>388.0</ele><time>2026-04-04T01:50:43Z</time></trkpt><trkpt lat="14.189645737223568" lon="120.96213091315697"><ele>388.83333333333337</ele><time>2026-04-04T01:50:44Z</time></trkpt><trkpt lat="14.189567350672997" lon="120.96211980084871"><ele>389.6666666666667</ele><time>2026-04-04T01:50:45Z</time></trkpt><trkpt lat="14.189493652011457" lon="120.9621099774482"><ele>390.5</ele><time>2026-04-04T01:50:46Z</time></trkpt><trkpt lat="14.189420707965128" lon="120.96211739174885"><ele>391.33333333333337</ele><time>2026-04-04T01:50:47Z</time></trkpt><trkpt lat="14.189308067905039" lon="120.96209197780618"><ele>392.1666666666667</ele><time>2026-04-04T01:50:49Z</time></trkpt><trkpt lat="14.189227209589406" lon="120.9620750192936"><ele>393.0</ele><time>2026-04-04T01:50:51Z</time></trkpt><trkpt lat="14.189138805057828" lon="120.96205659284352"><ele>393.0</ele><time>2026-04-04T01:50:54Z</time></trkpt><trkpt lat="14.189077903322188" lon="120.96201564601286"><ele>393.0</ele><time>2026-04-04T01:50:57Z</time></trkpt><trkpt lat="14.188968242708757" lon="120.96194719718079"><ele>393.0</ele><time>2026-04-04T01:51:00Z</time></trkpt><trkpt lat="14.188967936225188" lon="120.96187905214323"><ele>393.0</ele><time>2026-04-04T01:51:06Z</time></trkpt><trkpt lat="14.188958773771258" lon="120.96194409100869"><ele>393.0</ele><time>2026-04-04T01:52:47Z</time></trkpt><trkpt lat="14.188858633123786" lon="120.96196513721945"><ele>393.0</ele><time>2026-04-04T01:52:48Z</time></trkpt><trkpt lat="14.188824104237126" lon="120.9620314794047"><ele>393.0</ele><time>2026-04-04T01:52:52Z</time></trkpt><trkpt lat="14.188747820064705" lon="120.96201153371025"><ele>393.0</ele><time>2026-04-04T01:52:54Z</time></trkpt><trkpt lat="14.188674826599534" lon="120.96200273706025"><ele>393.0</ele><time>2026-04-04T01:52:55Z</time></trkpt><trkpt lat="14.18859067497563" lon="120.96199259572575"><ele>393.0</ele><time>2026-04-04T01:52:56Z</time></trkpt><trkpt lat="14.188502547575808" lon="120.9619811188449"><ele>393.0</ele><time>2026-04-04T01:52:57Z</time></trkpt><trkpt lat="14.188414052315373" lon="120.96196910339998"><ele>393.0</ele><time>2026-04-04T01:52:58Z</time></trkpt><trkpt lat="14.18831389780537" lon="120.96195550492271"><ele>393.0</ele><time>2026-04-04T01:52:59Z</time></trkpt><trkpt lat="14.188216253281775" lon="120.9619422472391"><ele>393.0</ele><time>2026-04-04T01:53:00Z</time></trkpt><trkpt lat="14.18811614099484" lon="120.9619286544955"><ele>393.0</ele><time>2026-04-04T01:53:01Z</time></trkpt><trkpt lat="14.188018673354208" lon="120.96191542077543"><ele>393.0</ele><time>2026-04-04T01:53:02Z</time></trkpt><trkpt lat="14.187923122343784" lon="120.96190190661683"><ele>393.0</ele><time>2026-04-04T01:53:03Z</time></trkpt><trkpt lat="14.187822860201681" lon="120.96188920342072"><ele>393.2</ele><time>2026-04-04T01:53:04Z</time></trkpt><trkpt lat="14.187729141457671" lon="120.96187786624226"><ele>393.4</ele><time>2026-04-04T01:53:05Z</time></trkpt><trkpt lat="14.187625877261706" lon="120.96186525928003"><ele>393.59999999999997</ele><time>2026-04-04T01:53:06Z</time></trkpt><trkpt lat="14.187519793001776" lon="120.96185230803255"><ele>393.79999999999995</ele><time>2026-04-04T01:53:07Z</time></trkpt><trkpt lat="14.187416805666858" lon="120.96183981864375"><ele>394.0</ele><time>2026-04-04T01:53:08Z</time></trkpt><trkpt lat="14.187311051019908" lon="120.9618437001809"><ele>394.0</ele><time>2026-04-04T01:53:09Z</time></trkpt><trkpt lat="14.18720659136169" lon="120.96182680380886"><ele>394.0</ele><time>2026-04-04T01:53:10Z</time></trkpt><trkpt lat="14.187112048372827" lon="120.96181375444307"><ele>394.0</ele><time>2026-04-04T01:53:11Z</time></trkpt><trkpt lat="14.187010824813138" lon="120.96179962554434"><ele>394.0</ele><time>2026-04-04T01:53:12Z</time></trkpt><trkpt lat="14.186904760928828" lon="120.96178803816109"><ele>394.0</ele><time>2026-04-04T01:53:13Z</time></trkpt><trkpt lat="14.18680617117943" lon="120.9617712510984"><ele>394.0</ele><time>2026-04-04T01:53:14Z</time></trkpt><trkpt lat="14.18668737243115" lon="120.96175873831542"><ele>394.0</ele><time>2026-04-04T01:53:15Z</time></trkpt><trkpt lat="14.186582001262602" lon="120.96174709792767"><ele>394.0</ele><time>2026-04-04T01:53:16Z</time></trkpt><trkpt lat="14.186471702453701" lon="120.9617168177935"><ele>394.0</ele><time>2026-04-04T01:53:17Z</time></trkpt><trkpt lat="14.186352140174568" lon="120.96170077811456"><ele>394.75</ele><time>2026-04-04T01:53:18Z</time></trkpt><trkpt lat="14.186234441837074" lon="120.96170136215636"><ele>395.5</ele><time>2026-04-04T01:53:19Z</time></trkpt><trkpt lat="14.186115874941244" lon="120.9616830272806"><ele>396.25</ele><time>2026-04-04T01:53:20Z</time></trkpt><trkpt lat="14.18599529210463" lon="120.9616689055318"><ele>397.0</ele><time>2026-04-04T01:53:21Z</time></trkpt><trkpt lat="14.185888917783164" lon="120.96165042987674"><ele>397.0</ele><time>2026-04-04T01:53:22Z</time></trkpt><trkpt lat="14.185783326634208" lon="120.96163966000866"><ele>397.0</ele><time>2026-04-04T01:53:23Z</time></trkpt><trkpt lat="14.185678199909313" lon="120.96162603060066"><ele>397.0</ele><time>2026-04-04T01:53:24Z</time></trkpt><trkpt lat="14.185585888139" lon="120.9616143618786"><ele>397.0</ele><time>2026-04-04T01:53:25Z</time></trkpt><trkpt lat="14.185481137055469" lon="120.96159275330808"><ele>397.0</ele><time>2026-04-04T01:53:26Z</time></trkpt><trkpt lat="14.18538194946299" lon="120.96157900230156"><ele>397.40000000000003</ele><time>2026-04-04T01:53:26.999Z</time></trkpt><trkpt lat="14.185278886998297" lon="120.96156691576071"><ele>397.8</ele><time>2026-04-04T01:53:27.999Z</time></trkpt><trkpt lat="14.185174470529583" lon="120.96155025417535"><ele>398.2</ele><time>2026-04-04T01:53:28.999Z</time></trkpt><trkpt lat="14.185070584184222" lon="120.96153134308115"><ele>398.6</ele><time>2026-04-04T01:53:29.999Z</time></trkpt><trkpt lat="14.184966921448314" lon="120.96151334244627"><ele>399.0</ele><time>2026-04-04T01:53:30.999Z</time></trkpt><trkpt lat="14.18485750530466" lon="120.96149539125236"><ele>399.4</ele><time>2026-04-04T01:53:31.999Z</time></trkpt><trkpt lat="14.184748770224923" lon="120.96148378315665"><ele>399.79999999999995</ele><time>2026-04-04T01:53:32.999Z</time></trkpt><trkpt lat="14.184644689288508" lon="120.96146785122257"><ele>400.20000000000005</ele><time>2026-04-04T01:53:33.999Z</time></trkpt><trkpt lat="14.184536667594921" lon="120.96146018160196"><ele>400.6</ele><time>2026-04-04T01:53:34.999Z</time></trkpt><trkpt lat="14.18442744697463" lon="120.96144892564874"><ele>401.0</ele><time>2026-04-04T01:53:35.999Z</time></trkpt><trkpt lat="14.184321534862075" lon="120.96143600106575"><ele>401.0</ele><time>2026-04-04T01:53:36.999Z</time></trkpt><trkpt lat="14.184219661477899" lon="120.96142732738149"><ele>401.0</ele><time>2026-04-04T01:53:37.999Z</time></trkpt><trkpt lat="14.18411506507435" lon="120.96140967047984"><ele>401.0</ele><time>2026-04-04T01:53:38.999Z</time></trkpt><trkpt lat="14.184017321590186" lon="120.9613947154724"><ele>401.0</ele><time>2026-04-04T01:53:39.999Z</time></trkpt><trkpt lat="14.18391187625879" lon="120.96138114291021"><ele>401.0</ele><time>2026-04-04T01:53:40.999Z</time></trkpt><trkpt lat="14.183809383666281" lon="120.9613634088682"><ele>401.66666666666663</ele><time>2026-04-04T01:53:41.999Z</time></trkpt><trkpt lat="14.183709456529202" lon="120.96135076774435"><ele>402.3333333333333</ele><time>2026-04-04T01:53:42.999Z</time></trkpt><trkpt lat="14.183627583552104" lon="120.96133976108977"><ele>403.0</ele><time>2026-04-04T01:53:43.999Z</time></trkpt><trkpt lat="14.183553310333812" lon="120.9613353946911"><ele>403.66666666666663</ele><time>2026-04-04T01:53:45.999Z</time></trkpt><trkpt lat="14.18348994536975" lon="120.96132859304069"><ele>404.3333333333333</ele><time>2026-04-04T01:53:48.999Z</time></trkpt><trkpt lat="14.183364794544083" lon="120.96130671209592"><ele>405.0</ele><time>2026-04-04T01:53:50.999Z</time></trkpt><trkpt lat="14.183276640957986" lon="120.96129137175015"><ele>405.0</ele><time>2026-04-04T01:53:51.999Z</time></trkpt><trkpt lat="14.183181124383024" lon="120.9612839958215"><ele>405.0</ele><time>2026-04-04T01:53:52.999Z</time></trkpt><trkpt lat="14.183088613285024" lon="120.96127540261703"><ele>405.0</ele><time>2026-04-04T01:53:53.999Z</time></trkpt><trkpt lat="14.182995348133948" lon="120.96126399560895"><ele>405.0</ele><time>2026-04-04T01:53:54.999Z</time></trkpt><trkpt lat="14.182902428180068" lon="120.96125290956724"><ele>405.0</ele><time>2026-04-04T01:53:55.999Z</time></trkpt><trkpt lat="14.182818149517864" lon="120.96124112706603"><ele>405.8</ele><time>2026-04-04T01:53:56.999Z</time></trkpt><trkpt lat="14.18273073570235" lon="120.96122885392965"><ele>406.6</ele><time>2026-04-04T01:53:57.999Z</time></trkpt><trkpt lat="14.182641907701353" lon="120.9612240644501"><ele>407.4</ele><time>2026-04-04T01:53:58.999Z</time></trkpt><trkpt lat="14.182541548602444" lon="120.96119591656223"><ele>408.2</ele><time>2026-04-04T01:53:59.999Z</time></trkpt><trkpt lat="14.182432026540477" lon="120.96119174637174"><ele>409.0</ele><time>2026-04-04T01:54:00.999Z</time></trkpt><trkpt lat="14.182317649044363" lon="120.96117273966175"><ele>409.0</ele><time>2026-04-04T01:54:01.999Z</time></trkpt><trkpt lat="14.182194772711336" lon="120.9611485647525"><ele>409.0</ele><time>2026-04-04T01:54:02.999Z</time></trkpt><trkpt lat="14.182059811184194" lon="120.96112768068316"><ele>409.0</ele><time>2026-04-04T01:54:03.999Z</time></trkpt><trkpt lat="14.181920076552265" lon="120.96110898289123"><ele>409.0</ele><time>2026-04-04T01:54:04.999Z</time></trkpt><trkpt lat="14.181777579173342" lon="120.96109444182218"><ele>409.0</ele><time>2026-04-04T01:54:05.999Z</time></trkpt><trkpt lat="14.181633121711561" lon="120.96107726110111"><ele>409.0</ele><time>2026-04-04T01:54:06.999Z</time></trkpt><trkpt lat="14.181482432838555" lon="120.96105464737705"><ele>409.0</ele><time>2026-04-04T01:54:07.999Z</time></trkpt><trkpt lat="14.181330023612743" lon="120.96103401742252"><ele>410.0</ele><time>2026-04-04T01:54:09Z</time></trkpt><trkpt lat="14.181176423416646" lon="120.96101162048727"><ele>411.0</ele><time>2026-04-04T01:54:10Z</time></trkpt><trkpt lat="14.181023053657361" lon="120.96099300220364"><ele>412.0</ele><time>2026-04-04T01:54:11Z</time></trkpt><trkpt lat="14.1808686098499" lon="120.96097454298092"><ele>412.0</ele><time>2026-04-04T01:54:12Z</time></trkpt><trkpt lat="14.180721094256608" lon="120.96095076336553"><ele>412.0</ele><time>2026-04-04T01:54:13Z</time></trkpt><trkpt lat="14.180575723982228" lon="120.9609293536103"><ele>412.0</ele><time>2026-04-04T01:54:14Z</time></trkpt><trkpt lat="14.180440369196315" lon="120.96091306941287"><ele>412.0</ele><time>2026-04-04T01:54:15Z</time></trkpt><trkpt lat="14.180308066029315" lon="120.96088346552054"><ele>412.5</ele><time>2026-04-04T01:54:16Z</time></trkpt><trkpt lat="14.180179851509942" lon="120.96088190979401"><ele>413.0</ele><time>2026-04-04T01:54:17Z</time></trkpt><trkpt lat="14.18006060104885" lon="120.9608632490454"><ele>413.5</ele><time>2026-04-04T01:54:18Z</time></trkpt><trkpt lat="14.179947301313911" lon="120.96083234749213"><ele>414.0</ele><time>2026-04-04T01:54:19Z</time></trkpt><trkpt lat="14.179842542390546" lon="120.96083405883059"><ele>414.25</ele><time>2026-04-04T01:54:20Z</time></trkpt><trkpt lat="14.179732906679973" lon="120.96081969732978"><ele>414.5</ele><time>2026-04-04T01:54:21Z</time></trkpt><trkpt lat="14.179619798878809" lon="120.9608040371486"><ele>414.75</ele><time>2026-04-04T01:54:22Z</time></trkpt><trkpt lat="14.179504915163266" lon="120.96078622939864"><ele>415.0</ele><time>2026-04-04T01:54:23Z</time></trkpt><trkpt lat="14.179386299859969" lon="120.96076926562802"><ele>415.0</ele><time>2026-04-04T01:54:24Z</time></trkpt><trkpt lat="14.179265595274483" lon="120.96075169426791"><ele>415.0</ele><time>2026-04-04T01:54:25Z</time></trkpt><trkpt lat="14.179144122275291" lon="120.96073401065144"><ele>415.0</ele><time>2026-04-04T01:54:26Z</time></trkpt><trkpt lat="14.179029162660367" lon="120.9607188594659"><ele>415.0</ele><time>2026-04-04T01:54:27Z</time></trkpt><trkpt lat="14.17891479566745" lon="120.96068996561458"><ele>415.4</ele><time>2026-04-04T01:54:28Z</time></trkpt><trkpt lat="14.178812930462584" lon="120.9606924025126"><ele>415.8</ele><time>2026-04-04T01:54:29Z</time></trkpt><trkpt lat="14.178705469961683" lon="120.96067877906948"><ele>416.20000000000005</ele><time>2026-04-04T01:54:30Z</time></trkpt><trkpt lat="14.17860467583207" lon="120.96066252928621"><ele>416.6</ele><time>2026-04-04T01:54:31Z</time></trkpt><trkpt lat="14.17850175651385" lon="120.9606445290089"><ele>417.0</ele><time>2026-04-04T01:54:32Z</time></trkpt><trkpt lat="14.178400556084917" lon="120.96063023764779"><ele>417.0</ele><time>2026-04-04T01:54:33Z</time></trkpt><trkpt lat="14.178285117940046" lon="120.96061784140244"><ele>417.0</ele><time>2026-04-04T01:54:34Z</time></trkpt><trkpt lat="14.178166224980632" lon="120.96060476391776"><ele>417.0</ele><time>2026-04-04T01:54:35Z</time></trkpt><trkpt lat="14.178059119528465" lon="120.96058682353586"><ele>417.0</ele><time>2026-04-04T01:54:36Z</time></trkpt><trkpt lat="14.17794955619192" lon="120.96057360161862"><ele>418.5</ele><time>2026-04-04T01:54:37Z</time></trkpt><trkpt lat="14.177833463702392" lon="120.96056118826839"><ele>420.0</ele><time>2026-04-04T01:54:38Z</time></trkpt><trkpt lat="14.177723711177485" lon="120.9605453974567"><ele>421.5</ele><time>2026-04-04T01:54:39Z</time></trkpt><trkpt lat="14.177602463012606" lon="120.96052922836851"><ele>423.0</ele><time>2026-04-04T01:54:40Z</time></trkpt><trkpt lat="14.177487018092926" lon="120.96051185056443"><ele>423.0</ele><time>2026-04-04T01:54:41Z</time></trkpt><trkpt lat="14.17736311601272" lon="120.96049590292034"><ele>423.0</ele><time>2026-04-04T01:54:42Z</time></trkpt><trkpt lat="14.177238180251228" lon="120.96047868102532"><ele>423.0</ele><time>2026-04-04T01:54:43Z</time></trkpt><trkpt lat="14.17710735136428" lon="120.9604651835813"><ele>423.0</ele><time>2026-04-04T01:54:44Z</time></trkpt><trkpt lat="14.176994828999643" lon="120.96044903931832"><ele>423.25</ele><time>2026-04-04T01:54:45Z</time></trkpt><trkpt lat="14.176864689318593" lon="120.96042867041915"><ele>423.5</ele><time>2026-04-04T01:54:46Z</time></trkpt><trkpt lat="14.176734463659825" lon="120.96041212957242"><ele>423.75</ele><time>2026-04-04T01:54:47Z</time></trkpt><trkpt lat="14.176613520557954" lon="120.96039517378237"><ele>424.0</ele><time>2026-04-04T01:54:48Z</time></trkpt><trkpt lat="14.176491741679786" lon="120.96037832327758"><ele>424.75</ele><time>2026-04-04T01:54:49Z</time></trkpt><trkpt lat="14.17636908614841" lon="120.96036038110185"><ele>425.5</ele><time>2026-04-04T01:54:50Z</time></trkpt><trkpt lat="14.1762553365838" lon="120.96034183842305"><ele>426.25</ele><time>2026-04-04T01:54:51Z</time></trkpt><trkpt lat="14.176138512867238" lon="120.96032741538461"><ele>427.0</ele><time>2026-04-04T01:54:52Z</time></trkpt><trkpt lat="14.176022846197093" lon="120.96031375788552"><ele>427.0</ele><time>2026-04-04T01:54:53Z</time></trkpt><trkpt lat="14.175908217756653" lon="120.96030028656845"><ele>427.0</ele><time>2026-04-04T01:54:54Z</time></trkpt><trkpt lat="14.175797793632904" lon="120.96028292148078"><ele>427.0</ele><time>2026-04-04T01:54:55Z</time></trkpt><trkpt lat="14.175681529752755" lon="120.96026647782362"><ele>427.0</ele><time>2026-04-04T01:54:56Z</time></trkpt><trkpt lat="14.175570545034393" lon="120.96024853666364"><ele>428.0</ele><time>2026-04-04T01:54:57Z</time></trkpt><trkpt lat="14.175452056138365" lon="120.96023679786883"><ele>429.0</ele><time>2026-04-04T01:54:58Z</time></trkpt><trkpt lat="14.175335551087992" lon="120.9602211948027"><ele>430.0</ele><time>2026-04-04T01:54:59Z</time></trkpt><trkpt lat="14.175219579039823" lon="120.96020650621925"><ele>431.0</ele><time>2026-04-04T01:55:00Z</time></trkpt><trkpt lat="14.175098628697251" lon="120.96019360012936"><ele>431.0</ele><time>2026-04-04T01:55:01Z</time></trkpt><trkpt lat="14.174990628687429" lon="120.9601739056271"><ele>431.0</ele><time>2026-04-04T01:55:02Z</time></trkpt><trkpt lat="14.174876621681294" lon="120.96016004507442"><ele>431.0</ele><time>2026-04-04T01:55:03Z</time></trkpt><trkpt lat="14.174760471759214" lon="120.96014413177004"><ele>431.0</ele><time>2026-04-04T01:55:04Z</time></trkpt><trkpt lat="14.174640161924641" lon="120.96012958405592"><ele>431.25</ele><time>2026-04-04T01:55:05Z</time></trkpt><trkpt lat="14.17452350836085" lon="120.96011079834531"><ele>431.5</ele><time>2026-04-04T01:55:06Z</time></trkpt><trkpt lat="14.174402450587246" lon="120.96009525172563"><ele>431.75</ele><time>2026-04-04T01:55:07Z</time></trkpt><trkpt lat="14.174275922146567" lon="120.96007515670637"><ele>432.0</ele><time>2026-04-04T01:55:08Z</time></trkpt><trkpt lat="14.174150538825627" lon="120.96005669909498"><ele>432.25</ele><time>2026-04-04T01:55:09Z</time></trkpt><trkpt lat="14.174015442824413" lon="120.96004248667346"><ele>432.5</ele><time>2026-04-04T01:55:10Z</time></trkpt><trkpt lat="14.173887696107993" lon="120.96002504580875"><ele>432.75</ele><time>2026-04-04T01:55:11Z</time></trkpt><trkpt lat="14.173753739758654" lon="120.96001016194188"><ele>433.0</ele><time>2026-04-04T01:55:12Z</time></trkpt><trkpt lat="14.173620843327987" lon="120.95999337297977"><ele>433.0</ele><time>2026-04-04T01:55:13Z</time></trkpt><trkpt lat="14.173488350972113" lon="120.95997626740449"><ele>433.0</ele><time>2026-04-04T01:55:14Z</time></trkpt><trkpt lat="14.173356862633373" lon="120.95995861400053"><ele>433.0</ele><time>2026-04-04T01:55:15Z</time></trkpt><trkpt lat="14.173230963569937" lon="120.959942828945"><ele>433.0</ele><time>2026-04-04T01:55:16Z</time></trkpt><trkpt lat="14.173100789812812" lon="120.95992485447658"><ele>433.5</ele><time>2026-04-04T01:55:17Z</time></trkpt><trkpt lat="14.172973783417168" lon="120.95990879366221"><ele>434.0</ele><time>2026-04-04T01:55:18Z</time></trkpt><trkpt lat="14.172839141976224" lon="120.95988933425573"><ele>434.5</ele><time>2026-04-04T01:55:19Z</time></trkpt><trkpt lat="14.172704850733261" lon="120.95986910288852"><ele>435.0</ele><time>2026-04-04T01:55:20Z</time></trkpt><trkpt lat="14.172567380391659" lon="120.95984856801736"><ele>435.0</ele><time>2026-04-04T01:55:21Z</time></trkpt><trkpt lat="14.172428782633473" lon="120.95982821971604"><ele>435.0</ele><time>2026-04-04T01:55:22Z</time></trkpt><trkpt lat="14.172290340712552" lon="120.95981166077499"><ele>435.0</ele><time>2026-04-04T01:55:23Z</time></trkpt><trkpt lat="14.17214704236887" lon="120.95979196754332"><ele>435.0</ele><time>2026-04-04T01:55:24Z</time></trkpt><trkpt lat="14.172007228476232" lon="120.95977572720463"><ele>435.5</ele><time>2026-04-04T01:55:25Z</time></trkpt><trkpt lat="14.171864419721256" lon="120.95975659050836"><ele>436.0</ele><time>2026-04-04T01:55:26Z</time></trkpt><trkpt lat="14.171729368667142" lon="120.95973758361406"><ele>436.5</ele><time>2026-04-04T01:55:27Z</time></trkpt><trkpt lat="14.171593863712484" lon="120.95971510320645"><ele>437.0</ele><time>2026-04-04T01:55:28Z</time></trkpt><trkpt lat="14.171463477426325" lon="120.95970160322906"><ele>437.25</ele><time>2026-04-04T01:55:29Z</time></trkpt><trkpt lat="14.17133079603727" lon="120.95968539635174"><ele>437.5</ele><time>2026-04-04T01:55:30Z</time></trkpt><trkpt lat="14.171198930613812" lon="120.95966764647322"><ele>437.75</ele><time>2026-04-04T01:55:31Z</time></trkpt><trkpt lat="14.171065446799142" lon="120.95964717086834"><ele>438.0</ele><time>2026-04-04T01:55:32Z</time></trkpt><trkpt lat="14.17093664891731" lon="120.95963231862478"><ele>438.0</ele><time>2026-04-04T01:55:32.999Z</time></trkpt><trkpt lat="14.170802877926429" lon="120.9596145434104"><ele>438.0</ele><time>2026-04-04T01:55:33.999Z</time></trkpt><trkpt lat="14.17067030489047" lon="120.9595948587928"><ele>438.0</ele><time>2026-04-04T01:55:34.999Z</time></trkpt><trkpt lat="14.170540984819361" lon="120.95957852116607"><ele>438.0</ele><time>2026-04-04T01:55:35.999Z</time></trkpt><trkpt lat="14.170408354073547" lon="120.95956023238409"><ele>438.75</ele><time>2026-04-04T01:55:36.999Z</time></trkpt><trkpt lat="14.170270897036955" lon="120.95954140680684"><ele>439.5</ele><time>2026-04-04T01:55:37.999Z</time></trkpt><trkpt lat="14.170146782497907" lon="120.95952963502705"><ele>440.25</ele><time>2026-04-04T01:55:38.999Z</time></trkpt><trkpt lat="14.170012276797726" lon="120.9595064238824"><ele>441.0</ele><time>2026-04-04T01:55:39.999Z</time></trkpt><trkpt lat="14.169880541605842" lon="120.95948663902942"><ele>441.75</ele><time>2026-04-04T01:55:40.999Z</time></trkpt><trkpt lat="14.169751639563971" lon="120.95946734176532"><ele>442.5</ele><time>2026-04-04T01:55:41.999Z</time></trkpt><trkpt lat="14.169628683798315" lon="120.95945381092925"><ele>443.25</ele><time>2026-04-04T01:55:42.999Z</time></trkpt><trkpt lat="14.169518544582333" lon="120.9594390612555"><ele>444.0</ele><time>2026-04-04T01:55:43.999Z</time></trkpt><trkpt lat="14.169407846679137" lon="120.95941778191751"><ele>444.0</ele><time>2026-04-04T01:55:44.999Z</time></trkpt><trkpt lat="14.169300735915533" lon="120.95940928120534"><ele>444.0</ele><time>2026-04-04T01:55:45.999Z</time></trkpt><trkpt lat="14.169190771239425" lon="120.95939475387009"><ele>444.0</ele><time>2026-04-04T01:55:46.999Z</time></trkpt><trkpt lat="14.169083736799788" lon="120.95938180320957"><ele>444.0</ele><time>2026-04-04T01:55:47.999Z</time></trkpt><trkpt lat="14.168966606626356" lon="120.95937100716164"><ele>444.0</ele><time>2026-04-04T01:55:48.999Z</time></trkpt><trkpt lat="14.168844668435502" lon="120.95933731307014"><ele>446.0</ele><time>2026-04-04T01:55:49.999Z</time></trkpt><trkpt lat="14.168722472318203" lon="120.95931954280421"><ele>448.0</ele><time>2026-04-04T01:55:50.999Z</time></trkpt><trkpt lat="14.168599238680589" lon="120.95930204651641"><ele>450.0</ele><time>2026-04-04T01:55:51.999Z</time></trkpt><trkpt lat="14.168463805006025" lon="120.95928409972166"><ele>452.0</ele><time>2026-04-04T01:55:52.999Z</time></trkpt><trkpt lat="14.168331749416392" lon="120.95926592835316"><ele>452.0</ele><time>2026-04-04T01:55:53.999Z</time></trkpt><trkpt lat="14.168194107370931" lon="120.95924784119204"><ele>452.0</ele><time>2026-04-04T01:55:54.999Z</time></trkpt><trkpt lat="14.168061773765777" lon="120.959230073648"><ele>452.0</ele><time>2026-04-04T01:55:55.999Z</time></trkpt><trkpt lat="14.167927919557684" lon="120.95921195121652"><ele>452.0</ele><time>2026-04-04T01:55:56.999Z</time></trkpt><trkpt lat="14.167791734207396" lon="120.95919353703104"><ele>452.0</ele><time>2026-04-04T01:55:57.999Z</time></trkpt><trkpt lat="14.167658702525708" lon="120.9591755492696"><ele>452.0</ele><time>2026-04-04T01:55:58.999Z</time></trkpt><trkpt lat="14.167535847271756" lon="120.95915893750737"><ele>452.0</ele><time>2026-04-04T01:55:59.999Z</time></trkpt><trkpt lat="14.167424570204105" lon="120.9591438912669"><ele>452.0</ele><time>2026-04-04T01:56:00.999Z</time></trkpt><trkpt lat="14.167320231275562" lon="120.95912978317307"><ele>452.0</ele><time>2026-04-04T01:56:01.999Z</time></trkpt><trkpt lat="14.167200157417621" lon="120.95911439473197"><ele>452.0</ele><time>2026-04-04T01:56:02.999Z</time></trkpt><trkpt lat="14.16707584631604" lon="120.959099336051"><ele>452.0</ele><time>2026-04-04T01:56:03.999Z</time></trkpt><trkpt lat="14.166950506761934" lon="120.95907934974971"><ele>452.0</ele><time>2026-04-04T01:56:04.999Z</time></trkpt><trkpt lat="14.166814290015001" lon="120.95905960229003"><ele>452.0</ele><time>2026-04-04T01:56:05.999Z</time></trkpt><trkpt lat="14.166685681003235" lon="120.95904163659011"><ele>452.0</ele><time>2026-04-04T01:56:06.999Z</time></trkpt><trkpt lat="14.166552786042777" lon="120.95902307216036"><ele>452.0</ele><time>2026-04-04T01:56:07.999Z</time></trkpt><trkpt lat="14.16642260845782" lon="120.9590048872219"><ele>452.0</ele><time>2026-04-04T01:56:08.999Z</time></trkpt><trkpt lat="14.166297968226372" lon="120.95898773747237"><ele>453.0</ele><time>2026-04-04T01:56:09.999Z</time></trkpt><trkpt lat="14.166178910860962" lon="120.95897127576927"><ele>454.0</ele><time>2026-04-04T01:56:10.999Z</time></trkpt><trkpt lat="14.16606178303758" lon="120.95895509699174"><ele>455.0</ele><time>2026-04-04T01:56:12Z</time></trkpt><trkpt lat="14.165936693599157" lon="120.95893781848639"><ele>456.0</ele><time>2026-04-04T01:56:13Z</time></trkpt><trkpt lat="14.165812393701126" lon="120.95892064904083"><ele>456.5</ele><time>2026-04-04T01:56:14Z</time></trkpt><trkpt lat="14.165678832197095" lon="120.95890220024405"><ele>457.0</ele><time>2026-04-04T01:56:15Z</time></trkpt><trkpt lat="14.165560393986091" lon="120.95888601676847"><ele>457.5</ele><time>2026-04-04T01:56:16Z</time></trkpt><trkpt lat="14.165453918959924" lon="120.95887183519898"><ele>458.0</ele><time>2026-04-04T01:56:17Z</time></trkpt><trkpt lat="14.165324625789069" lon="120.95885819389463"><ele>458.0</ele><time>2026-04-04T01:56:18Z</time></trkpt><trkpt lat="14.165198110825552" lon="120.95884280936602"><ele>458.0</ele><time>2026-04-04T01:56:19Z</time></trkpt><trkpt lat="14.165070885455142" lon="120.95882439790714"><ele>458.0</ele><time>2026-04-04T01:56:20Z</time></trkpt><trkpt lat="14.164940464339482" lon="120.95880674860666"><ele>458.0</ele><time>2026-04-04T01:56:21Z</time></trkpt><trkpt lat="14.164828293611496" lon="120.95879156905026"><ele>459.75</ele><time>2026-04-04T01:56:22Z</time></trkpt><trkpt lat="14.164718079193444" lon="120.9587766543002"><ele>461.5</ele><time>2026-04-04T01:56:23Z</time></trkpt><trkpt lat="14.164603632637446" lon="120.9587646238819"><ele>463.25</ele><time>2026-04-04T01:56:24Z</time></trkpt><trkpt lat="14.16448206873021" lon="120.95874729039701"><ele>465.0</ele><time>2026-04-04T01:56:25Z</time></trkpt><trkpt lat="14.164353598971147" lon="120.95873142473708"><ele>465.0</ele><time>2026-04-04T01:56:26Z</time></trkpt><trkpt lat="14.164224695799073" lon="120.95871298921311"><ele>465.0</ele><time>2026-04-04T01:56:27Z</time></trkpt><trkpt lat="14.164092421294418" lon="120.9586950644638"><ele>465.0</ele><time>2026-04-04T01:56:28Z</time></trkpt><trkpt lat="14.163962168081813" lon="120.95867743284796"><ele>465.0</ele><time>2026-04-04T01:56:29Z</time></trkpt><trkpt lat="14.16383013681012" lon="120.95865962109835"><ele>466.0</ele><time>2026-04-04T01:56:30Z</time></trkpt><trkpt lat="14.163692215940452" lon="120.95864101481156"><ele>467.0</ele><time>2026-04-04T01:56:31Z</time></trkpt><trkpt lat="14.163554013725948" lon="120.9586223705634"><ele>468.0</ele><time>2026-04-04T01:56:32Z</time></trkpt><trkpt lat="14.163416171616678" lon="120.9586037748988"><ele>469.0</ele><time>2026-04-04T01:56:33Z</time></trkpt><trkpt lat="14.163278464807528" lon="120.95858519748742"><ele>470.0</ele><time>2026-04-04T01:56:34Z</time></trkpt><trkpt lat="14.163137914732783" lon="120.95856623650418"><ele>471.0</ele><time>2026-04-04T01:56:35Z</time></trkpt><trkpt lat="14.163005293932171" lon="120.95854815898117"><ele>472.0</ele><time>2026-04-04T01:56:36Z</time></trkpt><trkpt lat="14.162878317258384" lon="120.95853077728918"><ele>473.0</ele><time>2026-04-04T01:56:37Z</time></trkpt><trkpt lat="14.162762816480308" lon="120.95851640575084"><ele>473.0</ele><time>2026-04-04T01:56:38Z</time></trkpt><trkpt lat="14.16264730264972" lon="120.95850208699254"><ele>473.0</ele><time>2026-04-04T01:56:39Z</time></trkpt><trkpt lat="14.1625354756949" lon="120.95848822523978"><ele>473.0</ele><time>2026-04-04T01:56:40Z</time></trkpt><trkpt lat="14.162419368048303" lon="120.95847271455065"><ele>473.0</ele><time>2026-04-04T01:56:41Z</time></trkpt><trkpt lat="14.162299563709274" lon="120.95845673914503"><ele>474.75</ele><time>2026-04-04T01:56:42Z</time></trkpt><trkpt lat="14.16218178188497" lon="120.95844103343008"><ele>476.5</ele><time>2026-04-04T01:56:43Z</time></trkpt><trkpt lat="14.162055200481658" lon="120.95842415432914"><ele>478.25</ele><time>2026-04-04T01:56:44Z</time></trkpt><trkpt lat="14.16193289212538" lon="120.95840784489833"><ele>480.0</ele><time>2026-04-04T01:56:45Z</time></trkpt><trkpt lat="14.161811908797317" lon="120.95839128158983"><ele>480.0</ele><time>2026-04-04T01:56:46Z</time></trkpt><trkpt lat="14.161687357984956" lon="120.95837439590777"><ele>480.0</ele><time>2026-04-04T01:56:47Z</time></trkpt><trkpt lat="14.161563583008693" lon="120.95835761541007"><ele>480.0</ele><time>2026-04-04T01:56:48Z</time></trkpt><trkpt lat="14.161444378846433" lon="120.9583416508011"><ele>480.0</ele><time>2026-04-04T01:56:49Z</time></trkpt><trkpt lat="14.161325037017601" lon="120.95832582191156"><ele>480.0</ele><time>2026-04-04T01:56:50Z</time></trkpt><trkpt lat="14.161200995573244" lon="120.95830936968562"><ele>480.0</ele><time>2026-04-04T01:56:51Z</time></trkpt><trkpt lat="14.161073766518985" lon="120.95829249467579"><ele>480.0</ele><time>2026-04-04T01:56:52Z</time></trkpt><trkpt lat="14.160945257110132" lon="120.95827531673281"><ele>480.0</ele><time>2026-04-04T01:56:53Z</time></trkpt><trkpt lat="14.16081359603883" lon="120.95825756182188"><ele>480.75</ele><time>2026-04-04T01:56:54Z</time></trkpt><trkpt lat="14.16067940416505" lon="120.9582391795284"><ele>481.5</ele><time>2026-04-04T01:56:55Z</time></trkpt><trkpt lat="14.160547850441883" lon="120.95822091637282"><ele>482.25</ele><time>2026-04-04T01:56:56Z</time></trkpt><trkpt lat="14.160419465111142" lon="120.95820337096906"><ele>483.0</ele><time>2026-04-04T01:56:57Z</time></trkpt><trkpt lat="14.160294406822771" lon="120.95818628024685"><ele>483.0</ele><time>2026-04-04T01:56:58Z</time></trkpt><trkpt lat="14.160173066737014" lon="120.95816969766388"><ele>483.0</ele><time>2026-04-04T01:56:59Z</time></trkpt><trkpt lat="14.160049116477287" lon="120.95815275836969"><ele>483.0</ele><time>2026-04-04T01:57:00Z</time></trkpt><trkpt lat="14.15992149651819" lon="120.95813525811955"><ele>483.0</ele><time>2026-04-04T01:57:01Z</time></trkpt><trkpt lat="14.159791429170166" lon="120.95811801472765"><ele>484.5</ele><time>2026-04-04T01:57:02Z</time></trkpt><trkpt lat="14.15965798358872" lon="120.9581007537772"><ele>486.0</ele><time>2026-04-04T01:57:03Z</time></trkpt><trkpt lat="14.159528214984515" lon="120.95808360960822"><ele>487.5</ele><time>2026-04-04T01:57:04Z</time></trkpt><trkpt lat="14.159398322384613" lon="120.95806717974324"><ele>489.0</ele><time>2026-04-04T01:57:05Z</time></trkpt><trkpt lat="14.159271861483994" lon="120.95805064654512"><ele>489.0</ele><time>2026-04-04T01:57:06Z</time></trkpt><trkpt lat="14.159147043095968" lon="120.95803614380087"><ele>489.0</ele><time>2026-04-04T01:57:07Z</time></trkpt><trkpt lat="14.159018748251222" lon="120.95801947054916"><ele>489.0</ele><time>2026-04-04T01:57:08Z</time></trkpt><trkpt lat="14.15889102658728" lon="120.95800133594221"><ele>489.0</ele><time>2026-04-04T01:57:09Z</time></trkpt><trkpt lat="14.158755638049131" lon="120.95798365774291"><ele>490.25</ele><time>2026-04-04T01:57:10Z</time></trkpt><trkpt lat="14.158618619927216" lon="120.95796653402694"><ele>491.5</ele><time>2026-04-04T01:57:11Z</time></trkpt><trkpt lat="14.158481586011609" lon="120.9579494083384"><ele>492.75</ele><time>2026-04-04T01:57:12Z</time></trkpt><trkpt lat="14.158341605755382" lon="120.95793193170869"><ele>494.0</ele><time>2026-04-04T01:57:13Z</time></trkpt><trkpt lat="14.158201880871218" lon="120.95791457837448"><ele>494.0</ele><time>2026-04-04T01:57:14Z</time></trkpt><trkpt lat="14.158058811791015" lon="120.95789680970138"><ele>494.0</ele><time>2026-04-04T01:57:15Z</time></trkpt><trkpt lat="14.157914766795546" lon="120.9578792512882"><ele>494.0</ele><time>2026-04-04T01:57:16Z</time></trkpt><trkpt lat="14.157767174081538" lon="120.95786252003714"><ele>494.0</ele><time>2026-04-04T01:57:17Z</time></trkpt><trkpt lat="14.157623396154973" lon="120.95784373139318"><ele>494.0</ele><time>2026-04-04T01:57:18Z</time></trkpt><trkpt lat="14.157475050758839" lon="120.95782428653685"><ele>494.0</ele><time>2026-04-04T01:57:19Z</time></trkpt><trkpt lat="14.157328367812346" lon="120.95780505950215"><ele>494.0</ele><time>2026-04-04T01:57:20Z</time></trkpt><trkpt lat="14.15718778327047" lon="120.95778514616092"><ele>494.0</ele><time>2026-04-04T01:57:21Z</time></trkpt><trkpt lat="14.157064115251634" lon="120.95777102109767"><ele>494.6</ele><time>2026-04-04T01:57:22Z</time></trkpt><trkpt lat="14.156942459712289" lon="120.95777074718397"><ele>495.2</ele><time>2026-04-04T01:57:23Z</time></trkpt><trkpt lat="14.156845778989789" lon="120.95775312338212"><ele>495.80000000000007</ele><time>2026-04-04T01:57:24Z</time></trkpt><trkpt lat="14.156762426645097" lon="120.95774772766062"><ele>496.40000000000003</ele><time>2026-04-04T01:57:25Z</time></trkpt><trkpt lat="14.156657829844303" lon="120.95773609795638"><ele>497.0</ele><time>2026-04-04T01:57:26Z</time></trkpt><trkpt lat="14.156549938986595" lon="120.95772051668429"><ele>496.5</ele><time>2026-04-04T01:57:27Z</time></trkpt><trkpt lat="14.15643700827733" lon="120.95770635341992"><ele>496.0</ele><time>2026-04-04T01:57:28Z</time></trkpt><trkpt lat="14.15632332661643" lon="120.9576752809758"><ele>495.5</ele><time>2026-04-04T01:57:29Z</time></trkpt><trkpt lat="14.156199076914291" lon="120.95765790577082"><ele>495.0</ele><time>2026-04-04T01:57:30Z</time></trkpt><trkpt lat="14.156067747218652" lon="120.9576395404987"><ele>495.0</ele><time>2026-04-04T01:57:31Z</time></trkpt><trkpt lat="14.155930553406497" lon="120.95762035517626"><ele>495.0</ele><time>2026-04-04T01:57:32Z</time></trkpt><trkpt lat="14.155795167650053" lon="120.95760158137047"><ele>495.0</ele><time>2026-04-04T01:57:33Z</time></trkpt><trkpt lat="14.155656997857504" lon="120.95758292686737"><ele>495.0</ele><time>2026-04-04T01:57:34Z</time></trkpt><trkpt lat="14.1555161176312" lon="120.95757622729886"><ele>495.0</ele><time>2026-04-04T01:57:35Z</time></trkpt><trkpt lat="14.155375507188792" lon="120.9575540607126"><ele>495.0</ele><time>2026-04-04T01:57:36Z</time></trkpt><trkpt lat="14.155238172978452" lon="120.95753146502513"><ele>495.0</ele><time>2026-04-04T01:57:37Z</time></trkpt><trkpt lat="14.155099563751085" lon="120.9575116661289"><ele>495.0</ele><time>2026-04-04T01:57:38Z</time></trkpt><trkpt lat="14.154956851797982" lon="120.95749215587185"><ele>496.5</ele><time>2026-04-04T01:57:38.999Z</time></trkpt><trkpt lat="14.15482319205151" lon="120.95747072888065"><ele>498.0</ele><time>2026-04-04T01:57:39.999Z</time></trkpt><trkpt lat="14.15468673001287" lon="120.95745132853283"><ele>499.5</ele><time>2026-04-04T01:57:40.999Z</time></trkpt><trkpt lat="14.154554557609186" lon="120.95742692075194"><ele>501.0</ele><time>2026-04-04T01:57:41.999Z</time></trkpt><trkpt lat="14.154425431412056" lon="120.9574076051198"><ele>501.0</ele><time>2026-04-04T01:57:42.999Z</time></trkpt><trkpt lat="14.1542900686939" lon="120.95739892326482"><ele>501.0</ele><time>2026-04-04T01:57:43.999Z</time></trkpt><trkpt lat="14.154166633125637" lon="120.9573779290728"><ele>501.0</ele><time>2026-04-04T01:57:44.999Z</time></trkpt><trkpt lat="14.154034415514152" lon="120.95736226816146"><ele>501.0</ele><time>2026-04-04T01:57:45.999Z</time></trkpt><trkpt lat="14.15390837359052" lon="120.95734153607754"><ele>501.5</ele><time>2026-04-04T01:57:46.999Z</time></trkpt><trkpt lat="14.153773611637007" lon="120.95732833493783"><ele>502.0</ele><time>2026-04-04T01:57:47.999Z</time></trkpt><trkpt lat="14.153642196649875" lon="120.95730891740708"><ele>502.5</ele><time>2026-04-04T01:57:48.999Z</time></trkpt><trkpt lat="14.15351150571398" lon="120.9572862639491"><ele>503.0</ele><time>2026-04-04T01:57:49.999Z</time></trkpt><trkpt lat="14.153381749629851" lon="120.95726483541223"><ele>503.0</ele><time>2026-04-04T01:57:50.999Z</time></trkpt><trkpt lat="14.15324735937336" lon="120.9572510472146"><ele>503.0</ele><time>2026-04-04T01:57:51.999Z</time></trkpt><trkpt lat="14.15311593734975" lon="120.95723273480192"><ele>503.0</ele><time>2026-04-04T01:57:52.999Z</time></trkpt><trkpt lat="14.152982610193849" lon="120.95722273464273"><ele>503.0</ele><time>2026-04-04T01:57:53.999Z</time></trkpt><trkpt lat="14.152855860311691" lon="120.95720403598224"><ele>502.75</ele><time>2026-04-04T01:57:54.999Z</time></trkpt><trkpt lat="14.15273036778045" lon="120.95718356909762"><ele>502.5</ele><time>2026-04-04T01:57:55.999Z</time></trkpt><trkpt lat="14.15260206952617" lon="120.95716770155605"><ele>502.25</ele><time>2026-04-04T01:57:56.999Z</time></trkpt><trkpt lat="14.152474433350015" lon="120.9571528026137"><ele>502.0</ele><time>2026-04-04T01:57:57.999Z</time></trkpt><trkpt lat="14.15234803650516" lon="120.95713848756469"><ele>502.0</ele><time>2026-04-04T01:57:58.999Z</time></trkpt><trkpt lat="14.152224729039634" lon="120.95711309778731"><ele>502.0</ele><time>2026-04-04T01:57:59.999Z</time></trkpt><trkpt lat="14.152095990908213" lon="120.95709472432273"><ele>502.0</ele><time>2026-04-04T01:58:00.999Z</time></trkpt><trkpt lat="14.151960172783085" lon="120.95707999551225"><ele>502.0</ele><time>2026-04-04T01:58:02Z</time></trkpt><trkpt lat="14.151827738686844" lon="120.95705675925025"><ele>502.0</ele><time>2026-04-04T01:58:03Z</time></trkpt><trkpt lat="14.151690970650773" lon="120.95704566552492"><ele>502.0</ele><time>2026-04-04T01:58:04Z</time></trkpt><trkpt lat="14.151556438614598" lon="120.9570261919986"><ele>502.0</ele><time>2026-04-04T01:58:05Z</time></trkpt><trkpt lat="14.15141967157473" lon="120.95700892556002"><ele>502.0</ele><time>2026-04-04T01:58:06Z</time></trkpt><trkpt lat="14.151287104555673" lon="120.95698446398994"><ele>503.25</ele><time>2026-04-04T01:58:07Z</time></trkpt><trkpt lat="14.151145390714156" lon="120.95696900202078"><ele>504.5</ele><time>2026-04-04T01:58:08Z</time></trkpt><trkpt lat="14.151005108991834" lon="120.95694916468612"><ele>505.75</ele><time>2026-04-04T01:58:09Z</time></trkpt><trkpt lat="14.15085898453021" lon="120.95692877354766"><ele>507.0</ele><time>2026-04-04T01:58:10Z</time></trkpt><trkpt lat="14.15071546462457" lon="120.9569080471836"><ele>508.0</ele><time>2026-04-04T01:58:11Z</time></trkpt><trkpt lat="14.150564511475169" lon="120.95688693844694"><ele>509.0</ele><time>2026-04-04T01:58:12Z</time></trkpt><trkpt lat="14.150415347062347" lon="120.95686826432036"><ele>510.0</ele><time>2026-04-04T01:58:13Z</time></trkpt><trkpt lat="14.150266001790255" lon="120.95684961160333"><ele>510.0</ele><time>2026-04-04T01:58:14Z</time></trkpt><trkpt lat="14.150115248000999" lon="120.95683069349941"><ele>510.0</ele><time>2026-04-04T01:58:15Z</time></trkpt><trkpt lat="14.149964414186023" lon="120.956808605356"><ele>510.0</ele><time>2026-04-04T01:58:16Z</time></trkpt><trkpt lat="14.14980738758529" lon="120.95678785793444"><ele>510.33333333333337</ele><time>2026-04-04T01:58:17Z</time></trkpt><trkpt lat="14.14965223976984" lon="120.9567665610843"><ele>510.6666666666667</ele><time>2026-04-04T01:58:18Z</time></trkpt><trkpt lat="14.149493277735639" lon="120.956742040233"><ele>511.0</ele><time>2026-04-04T01:58:19Z</time></trkpt><trkpt lat="14.149331284444678" lon="120.95671885168278"><ele>512.0</ele><time>2026-04-04T01:58:20Z</time></trkpt><trkpt lat="14.149171650183286" lon="120.95669630058498"><ele>513.0</ele><time>2026-04-04T01:58:21Z</time></trkpt><trkpt lat="14.149016164095146" lon="120.95665538821683"><ele>514.0</ele><time>2026-04-04T01:58:22Z</time></trkpt><trkpt lat="14.148859231830746" lon="120.95663440743722"><ele>514.6666666666667</ele><time>2026-04-04T01:58:23Z</time></trkpt><trkpt lat="14.1487033756054" lon="120.95661540057765"><ele>515.3333333333334</ele><time>2026-04-04T01:58:24Z</time></trkpt><trkpt lat="14.148544909702604" lon="120.95661049028573"><ele>516.0</ele><time>2026-04-04T01:58:25Z</time></trkpt><trkpt lat="14.148384050640066" lon="120.95658621912044"><ele>517.0</ele><time>2026-04-04T01:58:26Z</time></trkpt><trkpt lat="14.148203951929041" lon="120.95656021028162"><ele>518.0</ele><time>2026-04-04T01:58:27Z</time></trkpt><trkpt lat="14.14807256583572" lon="120.95654324028557"><ele>519.0</ele><time>2026-04-04T01:58:28Z</time></trkpt><trkpt lat="14.147919191098701" lon="120.95652171410525"><ele>519.0</ele><time>2026-04-04T01:58:29Z</time></trkpt><trkpt lat="14.147766973129217" lon="120.95650209674267"><ele>519.0</ele><time>2026-04-04T01:58:30Z</time></trkpt><trkpt lat="14.147615900166468" lon="120.95648409167114"><ele>519.0</ele><time>2026-04-04T01:58:31Z</time></trkpt><trkpt lat="14.147467858954272" lon="120.9564655220156"><ele>519.0</ele><time>2026-04-04T01:58:32Z</time></trkpt><trkpt lat="14.147321441888582" lon="120.95644784497499"><ele>519.0</ele><time>2026-04-04T01:58:33Z</time></trkpt><trkpt lat="14.147180506790637" lon="120.95642965587501"><ele>519.0</ele><time>2026-04-04T01:58:34Z</time></trkpt><trkpt lat="14.147054077228198" lon="120.9564121111543"><ele>519.0</ele><time>2026-04-04T01:58:35Z</time></trkpt><trkpt lat="14.146935909418993" lon="120.95639550636224"><ele>519.0</ele><time>2026-04-04T01:58:36Z</time></trkpt><trkpt lat="14.146827174924065" lon="120.95637684480312"><ele>519.0</ele><time>2026-04-04T01:58:37Z</time></trkpt><trkpt lat="14.146718991234787" lon="120.95636425797474"><ele>519.0</ele><time>2026-04-04T01:58:38Z</time></trkpt><trkpt lat="14.146603468632044" lon="120.95634645845773"><ele>519.0</ele><time>2026-04-04T01:58:39Z</time></trkpt><trkpt lat="14.146484101760755" lon="120.95632701357162"><ele>519.25</ele><time>2026-04-04T01:58:40Z</time></trkpt><trkpt lat="14.146359407274481" lon="120.95630938163659"><ele>519.5</ele><time>2026-04-04T01:58:41Z</time></trkpt><trkpt lat="14.14622894883863" lon="120.95629541045564"><ele>519.75</ele><time>2026-04-04T01:58:42Z</time></trkpt><trkpt lat="14.146098821703891" lon="120.95627903514786"><ele>520.0</ele><time>2026-04-04T01:58:43Z</time></trkpt><trkpt lat="14.14596207585031" lon="120.9562619753159"><ele>520.0</ele><time>2026-04-04T01:58:44Z</time></trkpt><trkpt lat="14.145827118193914" lon="120.9562447063881"><ele>520.0</ele><time>2026-04-04T01:58:45Z</time></trkpt><trkpt lat="14.145693997528468" lon="120.95622617046959"><ele>520.0</ele><time>2026-04-04T01:58:46Z</time></trkpt><trkpt lat="14.14555903964361" lon="120.95620676601611"><ele>520.0</ele><time>2026-04-04T01:58:47Z</time></trkpt><trkpt lat="14.14542508187546" lon="120.95619179816075"><ele>520.0</ele><time>2026-04-04T01:58:48Z</time></trkpt><trkpt lat="14.145293527096896" lon="120.95617843993006"><ele>520.0</ele><time>2026-04-04T01:58:49Z</time></trkpt><trkpt lat="14.145166067182187" lon="120.95616595979207"><ele>520.0</ele><time>2026-04-04T01:58:50Z</time></trkpt><trkpt lat="14.145034369772317" lon="120.95613216741009"><ele>520.0</ele><time>2026-04-04T01:58:51Z</time></trkpt><trkpt lat="14.144910116298796" lon="120.95611597915808"><ele>520.6</ele><time>2026-04-04T01:58:52Z</time></trkpt><trkpt lat="14.144795563425806" lon="120.95610010494866"><ele>521.2</ele><time>2026-04-04T01:58:53Z</time></trkpt><trkpt lat="14.14468939844286" lon="120.95608519294824"><ele>521.8</ele><time>2026-04-04T01:58:54Z</time></trkpt><trkpt lat="14.144574970736175" lon="120.95606996025167"><ele>522.4</ele><time>2026-04-04T01:58:55Z</time></trkpt><trkpt lat="14.144466739010038" lon="120.95605529000505"><ele>523.0</ele><time>2026-04-04T01:58:56Z</time></trkpt><trkpt lat="14.144352060144447" lon="120.95603974587961"><ele>523.0</ele><time>2026-04-04T01:58:57Z</time></trkpt><trkpt lat="14.1442389731479" lon="120.95602402385487"><ele>523.0</ele><time>2026-04-04T01:58:58Z</time></trkpt><trkpt lat="14.144124148785476" lon="120.95600796003762"><ele>523.0</ele><time>2026-04-04T01:58:59Z</time></trkpt><trkpt lat="14.144002583879717" lon="120.955990936948"><ele>523.0</ele><time>2026-04-04T01:59:00Z</time></trkpt><trkpt lat="14.143882272074075" lon="120.95597408933043"><ele>524.5</ele><time>2026-04-04T01:59:01Z</time></trkpt><trkpt lat="14.143761040141296" lon="120.95597517887633"><ele>526.0</ele><time>2026-04-04T01:59:02Z</time></trkpt><trkpt lat="14.143646816399656" lon="120.95595765672421"><ele>527.5</ele><time>2026-04-04T01:59:03Z</time></trkpt><trkpt lat="14.143534787641181" lon="120.95593915568497"><ele>529.0</ele><time>2026-04-04T01:59:04Z</time></trkpt><trkpt lat="14.14342004420563" lon="120.95592392671594"><ele>529.0</ele><time>2026-04-04T01:59:05Z</time></trkpt><trkpt lat="14.143311480168677" lon="120.95590601875841"><ele>529.0</ele><time>2026-04-04T01:59:06Z</time></trkpt><trkpt lat="14.143200177500624" lon="120.95589169192506"><ele>529.0</ele><time>2026-04-04T01:59:07Z</time></trkpt><trkpt lat="14.143094870878066" lon="120.95588055843342"><ele>529.0</ele><time>2026-04-04T01:59:08Z</time></trkpt><trkpt lat="14.142995357952698" lon="120.95586876306166"><ele>529.0</ele><time>2026-04-04T01:59:09Z</time></trkpt><trkpt lat="14.142913831351985" lon="120.95585827967439"><ele>529.1666666666667</ele><time>2026-04-04T01:59:10Z</time></trkpt><trkpt lat="14.142829695731274" lon="120.95582948968554"><ele>529.3333333333334</ele><time>2026-04-04T01:59:11Z</time></trkpt><trkpt lat="14.142763032631066" lon="120.95582337737702"><ele>529.5</ele><time>2026-04-04T01:59:12Z</time></trkpt><trkpt lat="14.142699928412492" lon="120.95581662453462"><ele>529.6666666666666</ele><time>2026-04-04T01:59:13Z</time></trkpt><trkpt lat="14.142605843470692" lon="120.95580466945403"><ele>529.8333333333333</ele><time>2026-04-04T01:59:15Z</time></trkpt><trkpt lat="14.142499999537042" lon="120.95579094748372"><ele>530.0</ele><time>2026-04-04T01:59:17Z</time></trkpt><trkpt lat="14.142370545279128" lon="120.95577440419302"><ele>530.5714285714286</ele><time>2026-04-04T01:59:19Z</time></trkpt><trkpt lat="14.142305293913589" lon="120.95576625989167"><ele>531.1428571428571</ele><time>2026-04-04T01:59:20Z</time></trkpt><trkpt lat="14.142237917508584" lon="120.95576939658763"><ele>531.7142857142858</ele><time>2026-04-04T01:59:21Z</time></trkpt><trkpt lat="14.142171319659724" lon="120.95576032832142"><ele>532.2857142857142</ele><time>2026-04-04T01:59:22Z</time></trkpt><trkpt lat="14.142100191283012" lon="120.95575378998903"><ele>532.8571428571429</ele><time>2026-04-04T01:59:23Z</time></trkpt><trkpt lat="14.14202790994474" lon="120.95572961562517"><ele>533.4285714285714</ele><time>2026-04-04T01:59:24Z</time></trkpt><trkpt lat="14.141948680052744" lon="120.95571842513219"><ele>534.0</ele><time>2026-04-04T01:59:25Z</time></trkpt><trkpt lat="14.141864330932327" lon="120.95572218496041"><ele>534.0</ele><time>2026-04-04T01:59:26Z</time></trkpt><trkpt lat="14.141778554943775" lon="120.95571064427536"><ele>534.0</ele><time>2026-04-04T01:59:27Z</time></trkpt><trkpt lat="14.141697629942593" lon="120.95569818861014"><ele>534.0</ele><time>2026-04-04T01:59:28Z</time></trkpt><trkpt lat="14.141610641706743" lon="120.9556871861087"><ele>534.0</ele><time>2026-04-04T01:59:29Z</time></trkpt><trkpt lat="14.141521563154525" lon="120.95565783947244"><ele>534.0</ele><time>2026-04-04T01:59:30Z</time></trkpt><trkpt lat="14.141430221131403" lon="120.95564473572689"><ele>534.0</ele><time>2026-04-04T01:59:31Z</time></trkpt><trkpt lat="14.14133635017673" lon="120.95563124332772"><ele>534.6</ele><time>2026-04-04T01:59:32Z</time></trkpt><trkpt lat="14.141242452903812" lon="120.95561774680122"><ele>535.2</ele><time>2026-04-04T01:59:33Z</time></trkpt><trkpt lat="14.14114303102844" lon="120.9556034561829"><ele>535.8000000000001</ele><time>2026-04-04T01:59:34Z</time></trkpt><trkpt lat="14.141047536772255" lon="120.95558982895653"><ele>536.4</ele><time>2026-04-04T01:59:35Z</time></trkpt><trkpt lat="14.1409481305912" lon="120.95557599656978"><ele>537.0</ele><time>2026-04-04T01:59:36Z</time></trkpt><trkpt lat="14.140848261540519" lon="120.95556209977491"><ele>537.0</ele><time>2026-04-04T01:59:37Z</time></trkpt><trkpt lat="14.140745511373254" lon="120.95554780208516"><ele>537.0</ele><time>2026-04-04T01:59:38Z</time></trkpt><trkpt lat="14.140643392776521" lon="120.95553331424794"><ele>537.0</ele><time>2026-04-04T01:59:39Z</time></trkpt><trkpt lat="14.140543964456967" lon="120.95551969057416"><ele>537.0</ele><time>2026-04-04T01:59:40Z</time></trkpt><trkpt lat="14.140443255482568" lon="120.95550610945399"><ele>537.0</ele><time>2026-04-04T01:59:41Z</time></trkpt><trkpt lat="14.140341882740692" lon="120.95549251463171"><ele>537.8000000000001</ele><time>2026-04-04T01:59:42Z</time></trkpt><trkpt lat="14.140239705923923" lon="120.95547881197797"><ele>538.6</ele><time>2026-04-04T01:59:43Z</time></trkpt><trkpt lat="14.140139132240146" lon="120.955465661429"><ele>539.4000000000001</ele><time>2026-04-04T01:59:44Z</time></trkpt><trkpt lat="14.140038241399113" lon="120.95545255425061"><ele>540.2</ele><time>2026-04-04T01:59:45Z</time></trkpt><trkpt lat="14.139937114025173" lon="120.95544041322175"><ele>541.0</ele><time>2026-04-04T01:59:46Z</time></trkpt><trkpt lat="14.139831601413963" lon="120.95542797725697"><ele>541.2</ele><time>2026-04-04T01:59:47Z</time></trkpt><trkpt lat="14.139726785691932" lon="120.95541785915577"><ele>541.4000000000001</ele><time>2026-04-04T01:59:48Z</time></trkpt><trkpt lat="14.139620185270406" lon="120.95540827407696"><ele>541.6</ele><time>2026-04-04T01:59:49Z</time></trkpt><trkpt lat="14.139510188359703" lon="120.95539977884987"><ele>541.8000000000001</ele><time>2026-04-04T01:59:50Z</time></trkpt><trkpt lat="14.139403221057947" lon="120.95539489411867"><ele>542.0</ele><time>2026-04-04T01:59:51Z</time></trkpt><trkpt lat="14.139294421518434" lon="120.95539056798769"><ele>542.0</ele><time>2026-04-04T01:59:52Z</time></trkpt><trkpt lat="14.139186066683227" lon="120.95538625953918"><ele>542.0</ele><time>2026-04-04T01:59:53Z</time></trkpt><trkpt lat="14.139074943894023" lon="120.95538184103022"><ele>542.0</ele><time>2026-04-04T01:59:54Z</time></trkpt><trkpt lat="14.138967293334257" lon="120.95537756058422"><ele>542.0</ele><time>2026-04-04T01:59:55Z</time></trkpt><trkpt lat="14.138858170702957" lon="120.95537322160786"><ele>542.0</ele><time>2026-04-04T01:59:56Z</time></trkpt><trkpt lat="14.138751818257171" lon="120.95537367290649"><ele>542.25</ele><time>2026-04-04T01:59:57Z</time></trkpt><trkpt lat="14.138637963366234" lon="120.95537332072632"><ele>542.5</ele><time>2026-04-04T01:59:58Z</time></trkpt><trkpt lat="14.138522463222678" lon="120.95537296345678"><ele>542.75</ele><time>2026-04-04T01:59:59Z</time></trkpt><trkpt lat="14.138405488159465" lon="120.95537374174171"><ele>543.0</ele><time>2026-04-04T02:00:00Z</time></trkpt><trkpt lat="14.138285642931809" lon="120.95538000028306"><ele>543.4</ele><time>2026-04-04T02:00:01Z</time></trkpt><trkpt lat="14.138167926010496" lon="120.95538614767912"><ele>543.8</ele><time>2026-04-04T02:00:02Z</time></trkpt><trkpt lat="14.138053197328672" lon="120.95539231653154"><ele>544.2</ele><time>2026-04-04T02:00:03Z</time></trkpt><trkpt lat="14.137948001899332" lon="120.9553981012089"><ele>544.6</ele><time>2026-04-04T02:00:04Z</time></trkpt><trkpt lat="14.13783888828963" lon="120.95540728034342"><ele>545.0</ele><time>2026-04-04T02:00:05Z</time></trkpt><trkpt lat="14.137735189013297" lon="120.95541701772461"><ele>545.0</ele><time>2026-04-04T02:00:06Z</time></trkpt><trkpt lat="14.137632860941803" lon="120.95542694687595"><ele>545.0</ele><time>2026-04-04T02:00:07Z</time></trkpt><trkpt lat="14.137528411710559" lon="120.95543875227573"><ele>545.0</ele><time>2026-04-04T02:00:08Z</time></trkpt><trkpt lat="14.137421663519921" lon="120.95545081751517"><ele>545.0</ele><time>2026-04-04T02:00:09Z</time></trkpt><trkpt lat="14.137309658529842" lon="120.95546955396068"><ele>545.0</ele><time>2026-04-04T02:00:10Z</time></trkpt><trkpt lat="14.137200730151527" lon="120.95548695224359"><ele>545.8</ele><time>2026-04-04T02:00:11Z</time></trkpt><trkpt lat="14.137092625109243" lon="120.95550421919108"><ele>546.6</ele><time>2026-04-04T02:00:12Z</time></trkpt><trkpt lat="14.13698651290946" lon="120.95551993781682"><ele>547.4</ele><time>2026-04-04T02:00:13Z</time></trkpt><trkpt lat="14.136887242996803" lon="120.95553579555862"><ele>548.2</ele><time>2026-04-04T02:00:14Z</time></trkpt><trkpt lat="14.136785025918805" lon="120.95555190122084"><ele>549.0</ele><time>2026-04-04T02:00:15Z</time></trkpt><trkpt lat="14.136688069958863" lon="120.95560532318554"><ele>549.0</ele><time>2026-04-04T02:00:16Z</time></trkpt><trkpt lat="14.136587075816951" lon="120.95562525175389"><ele>549.0</ele><time>2026-04-04T02:00:17Z</time></trkpt><trkpt lat="14.13648565637828" lon="120.95565177578442"><ele>549.0</ele><time>2026-04-04T02:00:18Z</time></trkpt><trkpt lat="14.136386389122368" lon="120.95567813044788"><ele>549.0</ele><time>2026-04-04T02:00:19Z</time></trkpt><trkpt lat="14.136289804406864" lon="120.95570210715465"><ele>549.0</ele><time>2026-04-04T02:00:20Z</time></trkpt><trkpt lat="14.13619439612063" lon="120.95572547490198"><ele>549.3333333333334</ele><time>2026-04-04T02:00:21Z</time></trkpt><trkpt lat="14.136098782836674" lon="120.9557518697716"><ele>549.6666666666666</ele><time>2026-04-04T02:00:22Z</time></trkpt><trkpt lat="14.136011058709444" lon="120.95577693282526"><ele>550.0</ele><time>2026-04-04T02:00:23Z</time></trkpt><trkpt lat="14.13592557972477" lon="120.9558012350501"><ele>550.3333333333333</ele><time>2026-04-04T02:00:24Z</time></trkpt><trkpt lat="14.135844097167016" lon="120.9558236265961"><ele>550.6666666666666</ele><time>2026-04-04T02:00:25Z</time></trkpt><trkpt lat="14.135768503770532" lon="120.9558435338452"><ele>551.0</ele><time>2026-04-04T02:00:26Z</time></trkpt><trkpt lat="14.135695992333952" lon="120.9558630477646"><ele>550.8333333333333</ele><time>2026-04-04T02:00:27Z</time></trkpt><trkpt lat="14.135620302888087" lon="120.9558857835313"><ele>550.6666666666666</ele><time>2026-04-04T02:00:28Z</time></trkpt><trkpt lat="14.135536802910295" lon="120.9559093237944"><ele>550.5</ele><time>2026-04-04T02:00:29Z</time></trkpt><trkpt lat="14.135449794918083" lon="120.95593390005729"><ele>550.3333333333334</ele><time>2026-04-04T02:00:30Z</time></trkpt><trkpt lat="14.135365235247791" lon="120.95596036870454"><ele>550.1666666666667</ele><time>2026-04-04T02:00:31Z</time></trkpt><trkpt lat="14.135269265179533" lon="120.95595870372725"><ele>550.0</ele><time>2026-04-04T02:00:32Z</time></trkpt><trkpt lat="14.135182490766987" lon="120.95598493451303"><ele>550.0</ele><time>2026-04-04T02:00:33Z</time></trkpt><trkpt lat="14.135095460074453" lon="120.95601124276254"><ele>550.0</ele><time>2026-04-04T02:00:34Z</time></trkpt><trkpt lat="14.135007438407728" lon="120.956037822282"><ele>550.0</ele><time>2026-04-04T02:00:35Z</time></trkpt><trkpt lat="14.134918075491582" lon="120.95606459592841"><ele>550.0</ele><time>2026-04-04T02:00:36Z</time></trkpt><trkpt lat="14.134831020437" lon="120.95609067812546"><ele>550.0</ele><time>2026-04-04T02:00:37Z</time></trkpt><trkpt lat="14.134740896028195" lon="120.9561176799201"><ele>550.6</ele><time>2026-04-04T02:00:38Z</time></trkpt><trkpt lat="14.134653590144131" lon="120.95614384317797"><ele>551.2</ele><time>2026-04-04T02:00:39Z</time></trkpt><trkpt lat="14.134565133989632" lon="120.95617035386134"><ele>551.8</ele><time>2026-04-04T02:00:41Z</time></trkpt><trkpt lat="14.134491123400112" lon="120.95619253515034"><ele>552.4</ele><time>2026-04-04T02:00:44Z</time></trkpt><trkpt lat="14.134412555245627" lon="120.9562160823597"><ele>553.0</ele><time>2026-04-04T02:00:46Z</time></trkpt><trkpt lat="14.13429290247391" lon="120.95625094526287"><ele>553.0</ele><time>2026-04-04T02:00:48Z</time></trkpt><trkpt lat="14.134218654872363" lon="120.95627528824957"><ele>553.0</ele><time>2026-04-04T02:00:49Z</time></trkpt><trkpt lat="14.134145783989295" lon="120.95630739686572"><ele>553.0</ele><time>2026-04-04T02:00:50Z</time></trkpt><trkpt lat="14.134067112711778" lon="120.95632094173256"><ele>553.0</ele><time>2026-04-04T02:00:51Z</time></trkpt><trkpt lat="14.133994324655912" lon="120.95634111188424"><ele>553.0</ele><time>2026-04-04T02:00:52Z</time></trkpt><trkpt lat="14.133919189092902" lon="120.95636549376324"><ele>553.0</ele><time>2026-04-04T02:00:53Z</time></trkpt><trkpt lat="14.133842539089171" lon="120.95638980498732"><ele>553.5</ele><time>2026-04-04T02:00:54Z</time></trkpt><trkpt lat="14.13376560370559" lon="120.9564145139324"><ele>554.0</ele><time>2026-04-04T02:00:55Z</time></trkpt><trkpt lat="14.13368621538652" lon="120.95643777122784"><ele>554.5</ele><time>2026-04-04T02:00:56Z</time></trkpt><trkpt lat="14.133607304126734" lon="120.95646165714395"><ele>555.0</ele><time>2026-04-04T02:00:57Z</time></trkpt><trkpt lat="14.133522192593098" lon="120.9564879283198"><ele>555.5</ele><time>2026-04-04T02:00:58Z</time></trkpt><trkpt lat="14.133434314662372" lon="120.95651292654497"><ele>556.0</ele><time>2026-04-04T02:00:59Z</time></trkpt><trkpt lat="14.133337730398805" lon="120.95654321884959"><ele>556.0</ele><time>2026-04-04T02:01:00Z</time></trkpt><trkpt lat="14.133244559091697" lon="120.95657101653129"><ele>556.0</ele><time>2026-04-04T02:01:01Z</time></trkpt><trkpt lat="14.13314591627287" lon="120.95659956383173"><ele>556.0</ele><time>2026-04-04T02:01:02Z</time></trkpt><trkpt lat="14.133047659420646" lon="120.95662807476307"><ele>556.0</ele><time>2026-04-04T02:01:03Z</time></trkpt><trkpt lat="14.13295422287617" lon="120.95665713491188"><ele>556.0</ele><time>2026-04-04T02:01:04Z</time></trkpt><trkpt lat="14.132866877462977" lon="120.95668184307316"><ele>557.8</ele><time>2026-04-04T02:01:05Z</time></trkpt><trkpt lat="14.13277878136796" lon="120.95670874205815"><ele>559.6</ele><time>2026-04-04T02:01:06Z</time></trkpt><trkpt lat="14.13268485563906" lon="120.95674018255464"><ele>561.4</ele><time>2026-04-04T02:01:07Z</time></trkpt><trkpt lat="14.132584979785957" lon="120.95677267796007"><ele>563.2</ele><time>2026-04-04T02:01:08Z</time></trkpt><trkpt lat="14.132469853154285" lon="120.95680506251054"><ele>565.0</ele><time>2026-04-04T02:01:09Z</time></trkpt><trkpt lat="14.13235488636638" lon="120.95683709147471"><ele>565.1666666666667</ele><time>2026-04-04T02:01:10Z</time></trkpt><trkpt lat="14.13226121394132" lon="120.9568662077854"><ele>565.3333333333334</ele><time>2026-04-04T02:01:11Z</time></trkpt><trkpt lat="14.13216886308363" lon="120.95688869844804"><ele>565.5</ele><time>2026-04-04T02:01:12Z</time></trkpt><trkpt lat="14.13207933330828" lon="120.95691114453922"><ele>565.6666666666666</ele><time>2026-04-04T02:01:13Z</time></trkpt><trkpt lat="14.132008542711178" lon="120.95692660077889"><ele>565.8333333333333</ele><time>2026-04-04T02:01:14Z</time></trkpt><trkpt lat="14.131934399566049" lon="120.95694685483164"><ele>566.0</ele><time>2026-04-04T02:01:15Z</time></trkpt><trkpt lat="14.131861890984965" lon="120.95696849997643"><ele>566.0</ele><time>2026-04-04T02:01:16Z</time></trkpt><trkpt lat="14.131792799182199" lon="120.95698961157925"><ele>566.0</ele><time>2026-04-04T02:01:17Z</time></trkpt><trkpt lat="14.131731180579377" lon="120.95700881249044"><ele>566.0</ele><time>2026-04-04T02:01:18Z</time></trkpt><trkpt lat="14.131651615635247" lon="120.95703153348896"><ele>566.0</ele><time>2026-04-04T02:01:20Z</time></trkpt><trkpt lat="14.131574281699644" lon="120.95700954193211"><ele>566.0</ele><time>2026-04-04T02:01:22Z</time></trkpt><trkpt lat="14.131534517016563" lon="120.9569039122602"><ele>566.0</ele><time>2026-04-04T02:01:24Z</time></trkpt><trkpt lat="14.131485474575085" lon="120.95679780098607"><ele>566.0</ele><time>2026-04-04T02:01:26Z</time></trkpt><trkpt lat="14.131455692802879" lon="120.95673328125102"><ele>566.0</ele><time>2026-04-04T02:01:28Z</time></trkpt><trkpt lat="14.131408819859113" lon="120.95667105586858"><ele>566.0</ele><time>2026-04-04T02:01:31Z</time></trkpt><trkpt lat="14.131397793695312" lon="120.9566069041089"><ele>566.0</ele><time>2026-04-04T02:01:35Z</time></trkpt><trkpt lat="14.13135869323489" lon="120.95652241690483"><ele>566.0</ele><time>2026-04-04T02:01:37Z</time></trkpt><trkpt lat="14.131325911696397" lon="120.95645157194193"><ele>566.0</ele><time>2026-04-04T02:01:38Z</time></trkpt><trkpt lat="14.131288996664228" lon="120.95637179403057"><ele>566.0</ele><time>2026-04-04T02:01:39Z</time></trkpt><trkpt lat="14.13124820777529" lon="120.95628408692626"><ele>566.0</ele><time>2026-04-04T02:01:40Z</time></trkpt><trkpt lat="14.13118811575476" lon="120.95619331499157"><ele>566.0</ele><time>2026-04-04T02:01:41Z</time></trkpt><trkpt lat="14.131144615163702" lon="120.9560917921782"><ele>566.0</ele><time>2026-04-04T02:01:42Z</time></trkpt><trkpt lat="14.131096579635829" lon="120.95598845773242"><ele>566.0</ele><time>2026-04-04T02:01:43Z</time></trkpt><trkpt lat="14.131062789379827" lon="120.95587086714725"><ele>565.5</ele><time>2026-04-04T02:01:44Z</time></trkpt><trkpt lat="14.13099211755498" lon="120.95576881154592"><ele>565.0</ele><time>2026-04-04T02:01:45Z</time></trkpt><trkpt lat="14.1309384263725" lon="120.95565215355842"><ele>564.5</ele><time>2026-04-04T02:01:46Z</time></trkpt><trkpt lat="14.130881955268558" lon="120.95553037359156"><ele>564.0</ele><time>2026-04-04T02:01:47Z</time></trkpt><trkpt lat="14.130817456865616" lon="120.95540530406302"><ele>564.0</ele><time>2026-04-04T02:01:48Z</time></trkpt><trkpt lat="14.130748415311102" lon="120.9552786666819"><ele>564.0</ele><time>2026-04-04T02:01:49Z</time></trkpt><trkpt lat="14.130685242093382" lon="120.95515417834167"><ele>564.0</ele><time>2026-04-04T02:01:50Z</time></trkpt><trkpt lat="14.13062806608212" lon="120.95503094398326"><ele>564.0</ele><time>2026-04-04T02:01:51Z</time></trkpt><trkpt lat="14.130572588814339" lon="120.95490972373527"><ele>565.5</ele><time>2026-04-04T02:01:52Z</time></trkpt><trkpt lat="14.130516992588618" lon="120.95479114791858"><ele>567.0</ele><time>2026-04-04T02:01:53Z</time></trkpt><trkpt lat="14.130464241802189" lon="120.95467594936821"><ele>568.5</ele><time>2026-04-04T02:01:54Z</time></trkpt><trkpt lat="14.130422221306516" lon="120.95455363864693"><ele>570.0</ele><time>2026-04-04T02:01:55Z</time></trkpt><trkpt lat="14.130367413615748" lon="120.95443707785557"><ele>570.0</ele><time>2026-04-04T02:01:56Z</time></trkpt><trkpt lat="14.130314448535485" lon="120.95432443579786"><ele>570.0</ele><time>2026-04-04T02:01:57Z</time></trkpt><trkpt lat="14.130258986195267" lon="120.95420995388899"><ele>570.0</ele><time>2026-04-04T02:01:58Z</time></trkpt><trkpt lat="14.130202991820381" lon="120.9540933939043"><ele>570.0</ele><time>2026-04-04T02:01:59Z</time></trkpt><trkpt lat="14.130147626531208" lon="120.95397765181973"><ele>569.75</ele><time>2026-04-04T02:02:00Z</time></trkpt><trkpt lat="14.130093235873852" lon="120.95386417334086"><ele>569.5</ele><time>2026-04-04T02:02:01Z</time></trkpt><trkpt lat="14.13004222500881" lon="120.95375891439521"><ele>569.25</ele><time>2026-04-04T02:02:02Z</time></trkpt><trkpt lat="14.129989677403847" lon="120.95365039398729"><ele>569.0</ele><time>2026-04-04T02:02:03Z</time></trkpt><trkpt lat="14.12993866531746" lon="120.95354454886922"><ele>569.0</ele><time>2026-04-04T02:02:04Z</time></trkpt><trkpt lat="14.129874220005755" lon="120.9534450027826"><ele>569.0</ele><time>2026-04-04T02:02:05Z</time></trkpt><trkpt lat="14.129823229446945" lon="120.95333253559488"><ele>569.0</ele><time>2026-04-04T02:02:06Z</time></trkpt><trkpt lat="14.129777461842382" lon="120.95322316882766"><ele>569.0</ele><time>2026-04-04T02:02:07Z</time></trkpt><trkpt lat="14.129721431559389" lon="120.95311077468057"><ele>569.75</ele><time>2026-04-04T02:02:08Z</time></trkpt><trkpt lat="14.129668626636095" lon="120.95299480948756"><ele>570.5</ele><time>2026-04-04T02:02:09Z</time></trkpt><trkpt lat="14.129614408868157" lon="120.95287774178055"><ele>571.25</ele><time>2026-04-04T02:02:10Z</time></trkpt><trkpt lat="14.129560060115699" lon="120.95275927714896"><ele>572.0</ele><time>2026-04-04T02:02:11Z</time></trkpt><trkpt lat="14.12950597860944" lon="120.95264235387688"><ele>572.25</ele><time>2026-04-04T02:02:12Z</time></trkpt><trkpt lat="14.12945332143814" lon="120.9525301074076"><ele>572.5</ele><time>2026-04-04T02:02:13Z</time></trkpt><trkpt lat="14.129399616090035" lon="120.95241841105145"><ele>572.75</ele><time>2026-04-04T02:02:14Z</time></trkpt><trkpt lat="14.129352811159729" lon="120.95230534221793"><ele>573.0</ele><time>2026-04-04T02:02:15Z</time></trkpt><trkpt lat="14.129304096003862" lon="120.95218357186474"><ele>573.0</ele><time>2026-04-04T02:02:16Z</time></trkpt><trkpt lat="14.129246396207943" lon="120.95206559836008"><ele>573.0</ele><time>2026-04-04T02:02:17Z</time></trkpt><trkpt lat="14.129187016539912" lon="120.95194801281446"><ele>573.0</ele><time>2026-04-04T02:02:18Z</time></trkpt><trkpt lat="14.129127291691931" lon="120.95182395249005"><ele>573.0</ele><time>2026-04-04T02:02:19Z</time></trkpt><trkpt lat="14.129070452195931" lon="120.9517047544838"><ele>573.5</ele><time>2026-04-04T02:02:20Z</time></trkpt><trkpt lat="14.129008173698871" lon="120.95158621273185"><ele>574.0</ele><time>2026-04-04T02:02:21Z</time></trkpt><trkpt lat="14.128948956569635" lon="120.95146154148522"><ele>574.5</ele><time>2026-04-04T02:02:22Z</time></trkpt><trkpt lat="14.128891583547258" lon="120.95133345759095"><ele>575.0</ele><time>2026-04-04T02:02:23Z</time></trkpt><trkpt lat="14.1288285531241" lon="120.9512092176541"><ele>575.0</ele><time>2026-04-04T02:02:24Z</time></trkpt><trkpt lat="14.128784092276462" lon="120.95107830462452"><ele>575.0</ele><time>2026-04-04T02:02:25Z</time></trkpt><trkpt lat="14.128726667181398" lon="120.95095164454025"><ele>575.0</ele><time>2026-04-04T02:02:26Z</time></trkpt><trkpt lat="14.128660603816037" lon="120.9508374739252"><ele>575.0</ele><time>2026-04-04T02:02:27Z</time></trkpt><trkpt lat="14.128603831754448" lon="120.95071599804527"><ele>575.0</ele><time>2026-04-04T02:02:28Z</time></trkpt><trkpt lat="14.128553326658837" lon="120.95059356651542"><ele>575.0</ele><time>2026-04-04T02:02:29Z</time></trkpt><trkpt lat="14.12852569044607" lon="120.95045853510449"><ele>575.0</ele><time>2026-04-04T02:02:30Z</time></trkpt><trkpt lat="14.128490269468598" lon="120.95032040712778"><ele>575.0</ele><time>2026-04-04T02:02:31Z</time></trkpt><trkpt lat="14.128460450754053" lon="120.95018587424981"><ele>575.0</ele><time>2026-04-04T02:02:32Z</time></trkpt><trkpt lat="14.128432908205836" lon="120.95004825151784"><ele>575.0</ele><time>2026-04-04T02:02:33Z</time></trkpt><trkpt lat="14.128399554622119" lon="120.94991470800058"><ele>575.0</ele><time>2026-04-04T02:02:34Z</time></trkpt><trkpt lat="14.12837927481977" lon="120.94978031932327"><ele>575.0</ele><time>2026-04-04T02:02:35Z</time></trkpt><trkpt lat="14.12835669090746" lon="120.9496533387375"><ele>574.75</ele><time>2026-04-04T02:02:36Z</time></trkpt><trkpt lat="14.128339035736875" lon="120.949523607549"><ele>574.5</ele><time>2026-04-04T02:02:37Z</time></trkpt><trkpt lat="14.12832483697476" lon="120.94940044495041"><ele>574.25</ele><time>2026-04-04T02:02:38Z</time></trkpt><trkpt lat="14.128312272597459" lon="120.9492813081838"><ele>574.0</ele><time>2026-04-04T02:02:39Z</time></trkpt><trkpt lat="14.128296936833134" lon="120.9491564955251"><ele>574.75</ele><time>2026-04-04T02:02:40Z</time></trkpt><trkpt lat="14.128280074049364" lon="120.94903047577067"><ele>575.5</ele><time>2026-04-04T02:02:41Z</time></trkpt><trkpt lat="14.12826293506244" lon="120.94890566169886"><ele>576.25</ele><time>2026-04-04T02:02:42Z</time></trkpt><trkpt lat="14.128246162646066" lon="120.9487729504567"><ele>577.0</ele><time>2026-04-04T02:02:43Z</time></trkpt><trkpt lat="14.128231299331722" lon="120.9486421586007"><ele>577.5</ele><time>2026-04-04T02:02:44Z</time></trkpt><trkpt lat="14.128206828440607" lon="120.94851123433406"><ele>578.0</ele><time>2026-04-04T02:02:45Z</time></trkpt><trkpt lat="14.128192532183867" lon="120.94838922267178"><ele>578.5</ele><time>2026-04-04T02:02:46Z</time></trkpt><trkpt lat="14.128176444262374" lon="120.94826948184702"><ele>579.0</ele><time>2026-04-04T02:02:47Z</time></trkpt><trkpt lat="14.128148981234318" lon="120.94814689853065"><ele>579.75</ele><time>2026-04-04T02:02:48Z</time></trkpt><trkpt lat="14.128103212388627" lon="120.94803644988285"><ele>580.5</ele><time>2026-04-04T02:02:49Z</time></trkpt><trkpt lat="14.128055906791117" lon="120.94792721848398"><ele>581.25</ele><time>2026-04-04T02:02:50Z</time></trkpt><trkpt lat="14.128007157870355" lon="120.9478103939633"><ele>582.0</ele><time>2026-04-04T02:02:51Z</time></trkpt><trkpt lat="14.12795658250434" lon="120.94769822545733"><ele>582.0</ele><time>2026-04-04T02:02:52Z</time></trkpt><trkpt lat="14.127907393943842" lon="120.94759372548333"><ele>582.0</ele><time>2026-04-04T02:02:53Z</time></trkpt><trkpt lat="14.127849437087479" lon="120.94749235695458"><ele>582.0</ele><time>2026-04-04T02:02:54Z</time></trkpt><trkpt lat="14.127794854722111" lon="120.94738099857247"><ele>582.0</ele><time>2026-04-04T02:02:55Z</time></trkpt><trkpt lat="14.127721878227824" lon="120.94727179725575"><ele>581.25</ele><time>2026-04-04T02:02:56Z</time></trkpt><trkpt lat="14.127649572755285" lon="120.94716360008724"><ele>580.5</ele><time>2026-04-04T02:02:57Z</time></trkpt><trkpt lat="14.127581805703443" lon="120.94706219415296"><ele>579.75</ele><time>2026-04-04T02:02:58Z</time></trkpt><trkpt lat="14.127517790168817" lon="120.94695589148144"><ele>579.0</ele><time>2026-04-04T02:02:59Z</time></trkpt><trkpt lat="14.127472223169995" lon="120.9468329621446"><ele>578.25</ele><time>2026-04-04T02:03:00Z</time></trkpt><trkpt lat="14.127438688689013" lon="120.94670576957094"><ele>577.5</ele><time>2026-04-04T02:03:01Z</time></trkpt><trkpt lat="14.12741603222544" lon="120.94657317102892"><ele>576.75</ele><time>2026-04-04T02:03:02Z</time></trkpt><trkpt lat="14.12737887923318" lon="120.94644777643462"><ele>576.0</ele><time>2026-04-04T02:03:03Z</time></trkpt><trkpt lat="14.127355788423394" lon="120.94633352816643"><ele>576.0</ele><time>2026-04-04T02:03:04Z</time></trkpt><trkpt lat="14.127333517658725" lon="120.94621691887009"><ele>576.0</ele><time>2026-04-04T02:03:05Z</time></trkpt><trkpt lat="14.127315991967423" lon="120.94610073423576"><ele>576.0</ele><time>2026-04-04T02:03:06Z</time></trkpt><trkpt lat="14.127301311127432" lon="120.94598584275423"><ele>576.0</ele><time>2026-04-04T02:03:07Z</time></trkpt><trkpt lat="14.127279807104504" lon="120.94587918709033"><ele>576.0</ele><time>2026-04-04T02:03:08Z</time></trkpt><trkpt lat="14.127256874389674" lon="120.94577570737894"><ele>576.4</ele><time>2026-04-04T02:03:09Z</time></trkpt><trkpt lat="14.127236995360583" lon="120.9456664315116"><ele>576.8</ele><time>2026-04-04T02:03:10Z</time></trkpt><trkpt lat="14.12721649973495" lon="120.94555513422469"><ele>577.1999999999999</ele><time>2026-04-04T02:03:11Z</time></trkpt><trkpt lat="14.127195740201962" lon="120.94544085285936"><ele>577.6</ele><time>2026-04-04T02:03:12Z</time></trkpt><trkpt lat="14.127175458414694" lon="120.94532922940556"><ele>578.0</ele><time>2026-04-04T02:03:13Z</time></trkpt><trkpt lat="14.127148887604628" lon="120.94521011065913"><ele>578.0</ele><time>2026-04-04T02:03:14Z</time></trkpt><trkpt lat="14.127127074086674" lon="120.94508676425394"><ele>578.0</ele><time>2026-04-04T02:03:15Z</time></trkpt><trkpt lat="14.127104210818066" lon="120.94496604298949"><ele>578.0</ele><time>2026-04-04T02:03:16Z</time></trkpt><trkpt lat="14.12708305414119" lon="120.94484199363792"><ele>578.0</ele><time>2026-04-04T02:03:17Z</time></trkpt><trkpt lat="14.127056639408213" lon="120.94471166535139"><ele>578.0</ele><time>2026-04-04T02:03:18Z</time></trkpt><trkpt lat="14.127032328920103" lon="120.94458425767245"><ele>578.0</ele><time>2026-04-04T02:03:19Z</time></trkpt><trkpt lat="14.12700770973971" lon="120.9444516252339"><ele>578.0</ele><time>2026-04-04T02:03:20Z</time></trkpt><trkpt lat="14.126984742476145" lon="120.9443304586866"><ele>578.0</ele><time>2026-04-04T02:03:21Z</time></trkpt><trkpt lat="14.126960600906223" lon="120.94419672275528"><ele>577.5</ele><time>2026-04-04T02:03:22Z</time></trkpt><trkpt lat="14.126935702927785" lon="120.9440720360572"><ele>577.0</ele><time>2026-04-04T02:03:23Z</time></trkpt><trkpt lat="14.12690990691224" lon="120.94393912671865"><ele>576.5</ele><time>2026-04-04T02:03:24Z</time></trkpt><trkpt lat="14.126884247964133" lon="120.94381666425163"><ele>576.0</ele><time>2026-04-04T02:03:25Z</time></trkpt><trkpt lat="14.12685801456043" lon="120.94369192516344"><ele>576.0</ele><time>2026-04-04T02:03:26Z</time></trkpt><trkpt lat="14.126829139290429" lon="120.94356641762921"><ele>576.0</ele><time>2026-04-04T02:03:27Z</time></trkpt><trkpt lat="14.126803883549641" lon="120.94344644308612"><ele>576.0</ele><time>2026-04-04T02:03:28Z</time></trkpt><trkpt lat="14.126775882080834" lon="120.94332019261017"><ele>576.0</ele><time>2026-04-04T02:03:29Z</time></trkpt><trkpt lat="14.126746029815147" lon="120.94319786425409"><ele>576.5</ele><time>2026-04-04T02:03:30Z</time></trkpt><trkpt lat="14.12671229782013" lon="120.94305830780316"><ele>577.0</ele><time>2026-04-04T02:03:31Z</time></trkpt><trkpt lat="14.126674764574059" lon="120.94293765750746"><ele>577.5</ele><time>2026-04-04T02:03:32Z</time></trkpt><trkpt lat="14.126637955690207" lon="120.94281117421652"><ele>578.0</ele><time>2026-04-04T02:03:33Z</time></trkpt><trkpt lat="14.126604287330387" lon="120.94268405626687"><ele>578.0</ele><time>2026-04-04T02:03:34Z</time></trkpt><trkpt lat="14.126567028349685" lon="120.94256283537891"><ele>578.0</ele><time>2026-04-04T02:03:35Z</time></trkpt><trkpt lat="14.126531389146356" lon="120.9424419346384"><ele>578.0</ele><time>2026-04-04T02:03:36Z</time></trkpt><trkpt lat="14.126492813112648" lon="120.94232920459824"><ele>578.0</ele><time>2026-04-04T02:03:37Z</time></trkpt><trkpt lat="14.126450629356725" lon="120.94220340338534"><ele>578.5</ele><time>2026-04-04T02:03:38Z</time></trkpt><trkpt lat="14.126408837502135" lon="120.94207948738197"><ele>579.0</ele><time>2026-04-04T02:03:39Z</time></trkpt><trkpt lat="14.126366618984749" lon="120.94196239049508"><ele>579.5</ele><time>2026-04-04T02:03:40Z</time></trkpt><trkpt lat="14.126324229554886" lon="120.94183363736337"><ele>580.0</ele><time>2026-04-04T02:03:41Z</time></trkpt><trkpt lat="14.126274868373205" lon="120.94170922183521"><ele>581.0</ele><time>2026-04-04T02:03:42Z</time></trkpt><trkpt lat="14.126224968249774" lon="120.94158028269113"><ele>582.0</ele><time>2026-04-04T02:03:43Z</time></trkpt><trkpt lat="14.126174738123506" lon="120.94146164084354"><ele>583.0</ele><time>2026-04-04T02:03:44Z</time></trkpt><trkpt lat="14.12612996390855" lon="120.94133475544048"><ele>584.0</ele><time>2026-04-04T02:03:45Z</time></trkpt><trkpt lat="14.126074958991756" lon="120.94120390529358"><ele>584.0</ele><time>2026-04-04T02:03:46Z</time></trkpt><trkpt lat="14.126018248338706" lon="120.94107705623105"><ele>584.0</ele><time>2026-04-04T02:03:47Z</time></trkpt><trkpt lat="14.125979712076363" lon="120.94094219537936"><ele>584.0</ele><time>2026-04-04T02:03:48Z</time></trkpt><trkpt lat="14.1259268643696" lon="120.94080487324567"><ele>584.0</ele><time>2026-04-04T02:03:49Z</time></trkpt><trkpt lat="14.12587991613953" lon="120.94068294352415"><ele>582.75</ele><time>2026-04-04T02:03:50Z</time></trkpt><trkpt lat="14.125827422436936" lon="120.94054661160462"><ele>581.5</ele><time>2026-04-04T02:03:51Z</time></trkpt><trkpt lat="14.125780635476126" lon="120.94042510070933"><ele>580.25</ele><time>2026-04-04T02:03:52Z</time></trkpt><trkpt lat="14.125740420079518" lon="120.94031023094928"><ele>579.0</ele><time>2026-04-04T02:03:53Z</time></trkpt><trkpt lat="14.125704278834831" lon="120.94020072328891"><ele>579.25</ele><time>2026-04-04T02:03:54Z</time></trkpt><trkpt lat="14.125650211198295" lon="120.94003342057616"><ele>579.5</ele><time>2026-04-04T02:03:55Z</time></trkpt><trkpt lat="14.125616380927264" lon="120.93991589092704"><ele>579.75</ele><time>2026-04-04T02:03:56Z</time></trkpt><trkpt lat="14.12558634274119" lon="120.93980648872186"><ele>580.0</ele><time>2026-04-04T02:03:57Z</time></trkpt><trkpt lat="14.12556035766047" lon="120.93970020491827"><ele>580.0</ele><time>2026-04-04T02:03:58Z</time></trkpt><trkpt lat="14.125543904903797" lon="120.93959941284835"><ele>580.0</ele><time>2026-04-04T02:03:59Z</time></trkpt><trkpt lat="14.125545817494757" lon="120.93949142963685"><ele>580.0</ele><time>2026-04-04T02:04:00Z</time></trkpt><trkpt lat="14.125570617102094" lon="120.9393890124639"><ele>580.0</ele><time>2026-04-04T02:04:01Z</time></trkpt><trkpt lat="14.125595498561708" lon="120.93927651076868"><ele>580.0</ele><time>2026-04-04T02:04:02Z</time></trkpt><trkpt lat="14.125619216464647" lon="120.93916936106133"><ele>579.8</ele><time>2026-04-04T02:04:03Z</time></trkpt><trkpt lat="14.125631336386698" lon="120.93907183502876"><ele>579.6</ele><time>2026-04-04T02:04:04Z</time></trkpt><trkpt lat="14.125659901655906" lon="120.93897387492771"><ele>579.4</ele><time>2026-04-04T02:04:05Z</time></trkpt><trkpt lat="14.125691036542511" lon="120.93886905677398"><ele>579.2</ele><time>2026-04-04T02:04:06Z</time></trkpt><trkpt lat="14.125722009896142" lon="120.93874995283991"><ele>579.0</ele><time>2026-04-04T02:04:07Z</time></trkpt><trkpt lat="14.125752523817923" lon="120.93862780411332"><ele>579.0</ele><time>2026-04-04T02:04:08Z</time></trkpt><trkpt lat="14.125785471108605" lon="120.93850100083726"><ele>579.0</ele><time>2026-04-04T02:04:09Z</time></trkpt><trkpt lat="14.125816531832218" lon="120.93836438118704"><ele>579.0</ele><time>2026-04-04T02:04:10Z</time></trkpt><trkpt lat="14.125848657832861" lon="120.93822712041559"><ele>579.0</ele><time>2026-04-04T02:04:11Z</time></trkpt><trkpt lat="14.125879469575048" lon="120.93808863786745"><ele>579.0</ele><time>2026-04-04T02:04:12Z</time></trkpt><trkpt lat="14.125902534417515" lon="120.93795044053562"><ele>579.0</ele><time>2026-04-04T02:04:13Z</time></trkpt><trkpt lat="14.125902809080465" lon="120.93780882934354"><ele>579.0</ele><time>2026-04-04T02:04:14Z</time></trkpt><trkpt lat="14.12589690990438" lon="120.93766770815465"><ele>579.0</ele><time>2026-04-04T02:04:15Z</time></trkpt><trkpt lat="14.125882643278969" lon="120.9375322881897"><ele>579.75</ele><time>2026-04-04T02:04:16Z</time></trkpt><trkpt lat="14.125853196990114" lon="120.93739914238499"><ele>580.5</ele><time>2026-04-04T02:04:17Z</time></trkpt><trkpt lat="14.125823253491884" lon="120.93727513626109"><ele>581.25</ele><time>2026-04-04T02:04:18Z</time></trkpt><trkpt lat="14.125788970504088" lon="120.93714286476407"><ele>582.0</ele><time>2026-04-04T02:04:19Z</time></trkpt><trkpt lat="14.125756404025784" lon="120.93701674769774"><ele>581.5</ele><time>2026-04-04T02:04:20Z</time></trkpt><trkpt lat="14.125724644163737" lon="120.93687902723241"><ele>581.0</ele><time>2026-04-04T02:04:21Z</time></trkpt><trkpt lat="14.125691807247298" lon="120.93674391187679"><ele>580.5</ele><time>2026-04-04T02:04:22Z</time></trkpt><trkpt lat="14.125658468606593" lon="120.93660978636392"><ele>580.0</ele><time>2026-04-04T02:04:23Z</time></trkpt><trkpt lat="14.125622992287452" lon="120.93648146044207"><ele>580.0</ele><time>2026-04-04T02:04:24Z</time></trkpt><trkpt lat="14.125591258054545" lon="120.93635900683994"><ele>580.0</ele><time>2026-04-04T02:04:25Z</time></trkpt><trkpt lat="14.125566622092224" lon="120.93623583772188"><ele>580.0</ele><time>2026-04-04T02:04:26Z</time></trkpt><trkpt lat="14.12553540294339" lon="120.93612372425284"><ele>580.0</ele><time>2026-04-04T02:04:27Z</time></trkpt><trkpt lat="14.125517062557977" lon="120.93600951904011"><ele>580.0</ele><time>2026-04-04T02:04:28Z</time></trkpt><trkpt lat="14.1254909395725" lon="120.93589905656322"><ele>580.0</ele><time>2026-04-04T02:04:29Z</time></trkpt><trkpt lat="14.125464613611541" lon="120.93579200260714"><ele>580.0</ele><time>2026-04-04T02:04:30Z</time></trkpt><trkpt lat="14.125433541018495" lon="120.93567984438383"><ele>580.0</ele><time>2026-04-04T02:04:31Z</time></trkpt><trkpt lat="14.125418467604511" lon="120.93555670948273"><ele>579.4</ele><time>2026-04-04T02:04:32Z</time></trkpt><trkpt lat="14.125385157014453" lon="120.9354523682823"><ele>578.8</ele><time>2026-04-04T02:04:33Z</time></trkpt><trkpt lat="14.125362453174235" lon="120.93535601305172"><ele>578.2</ele><time>2026-04-04T02:04:34Z</time></trkpt><trkpt lat="14.12534262760684" lon="120.93526627459292"><ele>577.6</ele><time>2026-04-04T02:04:35Z</time></trkpt><trkpt lat="14.12532173885425" lon="120.9351810228069"><ele>577.0</ele><time>2026-04-04T02:04:36Z</time></trkpt><trkpt lat="14.125302069603123" lon="120.93509604894824"><ele>576.4</ele><time>2026-04-04T02:04:37Z</time></trkpt><trkpt lat="14.125279092412466" lon="120.935017227788"><ele>575.8000000000001</ele><time>2026-04-04T02:04:38Z</time></trkpt><trkpt lat="14.125255585273877" lon="120.93489294568025"><ele>575.2</ele><time>2026-04-04T02:04:40Z</time></trkpt><trkpt lat="14.125233264963766" lon="120.93477925273108"><ele>574.6</ele><time>2026-04-04T02:04:42Z</time></trkpt><trkpt lat="14.125219068125903" lon="120.93469982644811"><ele>574.0</ele><time>2026-04-04T02:04:44Z</time></trkpt><trkpt lat="14.125199103831141" lon="120.93461488222107"><ele>574.0</ele><time>2026-04-04T02:04:47Z</time></trkpt><trkpt lat="14.12517683548543" lon="120.9345241332529"><ele>574.0</ele><time>2026-04-04T02:05:56Z</time></trkpt><trkpt lat="14.125144664222638" lon="120.93440240291586"><ele>574.0</ele><time>2026-04-04T02:05:58Z</time></trkpt><trkpt lat="14.125126547611798" lon="120.93432372407831"><ele>574.0</ele><time>2026-04-04T02:05:59Z</time></trkpt><trkpt lat="14.125109824837535" lon="120.93423889613382"><ele>574.0</ele><time>2026-04-04T02:06:00Z</time></trkpt><trkpt lat="14.12508173279466" lon="120.93413696053477"><ele>573.8</ele><time>2026-04-04T02:06:01Z</time></trkpt><trkpt lat="14.125057331248943" lon="120.93403654754876"><ele>573.5999999999999</ele><time>2026-04-04T02:06:02Z</time></trkpt><trkpt lat="14.125026588944865" lon="120.93392214390073"><ele>573.4</ele><time>2026-04-04T02:06:03Z</time></trkpt><trkpt lat="14.12500282778668" lon="120.93381265235033"><ele>573.1999999999999</ele><time>2026-04-04T02:06:04Z</time></trkpt><trkpt lat="14.124978746240997" lon="120.93369934198769"><ele>573.0</ele><time>2026-04-04T02:06:05Z</time></trkpt><trkpt lat="14.124952244804591" lon="120.93357964638743"><ele>573.0</ele><time>2026-04-04T02:06:06Z</time></trkpt><trkpt lat="14.124923984796753" lon="120.9334571281464"><ele>573.0</ele><time>2026-04-04T02:06:07Z</time></trkpt><trkpt lat="14.124893082256028" lon="120.9333401026636"><ele>573.0</ele><time>2026-04-04T02:06:08Z</time></trkpt><trkpt lat="14.124855651920903" lon="120.93321510487645"><ele>573.0</ele><time>2026-04-04T02:06:09Z</time></trkpt><trkpt lat="14.12483178235428" lon="120.93308236813326"><ele>574.75</ele><time>2026-04-04T02:06:10Z</time></trkpt><trkpt lat="14.124809646044767" lon="120.93294935592004"><ele>576.5</ele><time>2026-04-04T02:06:11Z</time></trkpt><trkpt lat="14.124787114228235" lon="120.93281472822032"><ele>578.25</ele><time>2026-04-04T02:06:12Z</time></trkpt><trkpt lat="14.124764281680573" lon="120.93268272799426"><ele>580.0</ele><time>2026-04-04T02:06:13Z</time></trkpt><trkpt lat="14.12474588631756" lon="120.93254611498682"><ele>580.0</ele><time>2026-04-04T02:06:14Z</time></trkpt><trkpt lat="14.12471771215585" lon="120.9324138012719"><ele>580.0</ele><time>2026-04-04T02:06:15Z</time></trkpt><trkpt lat="14.124681327328236" lon="120.93228411908636"><ele>580.0</ele><time>2026-04-04T02:06:16Z</time></trkpt><trkpt lat="14.124640241604087" lon="120.9321487877933"><ele>580.0</ele><time>2026-04-04T02:06:17Z</time></trkpt><trkpt lat="14.124603369929767" lon="120.93201239654553"><ele>580.0</ele><time>2026-04-04T02:06:18Z</time></trkpt><trkpt lat="14.124568112325802" lon="120.93187393330587"><ele>580.0</ele><time>2026-04-04T02:06:19Z</time></trkpt><trkpt lat="14.124532227078815" lon="120.9317496637876"><ele>580.0</ele><time>2026-04-04T02:06:20Z</time></trkpt><trkpt lat="14.124493288307344" lon="120.93161229642695"><ele>580.0</ele><time>2026-04-04T02:06:21Z</time></trkpt><trkpt lat="14.124456770944679" lon="120.93148260951033"><ele>579.0</ele><time>2026-04-04T02:06:22Z</time></trkpt><trkpt lat="14.12441978249221" lon="120.93134840537601"><ele>578.0</ele><time>2026-04-04T02:06:23Z</time></trkpt><trkpt lat="14.124385586437311" lon="120.93121811935298"><ele>577.0</ele><time>2026-04-04T02:06:24Z</time></trkpt><trkpt lat="14.124347712349465" lon="120.93108570724429"><ele>576.0</ele><time>2026-04-04T02:06:25Z</time></trkpt><trkpt lat="14.124317153294992" lon="120.93094935143459"><ele>575.75</ele><time>2026-04-04T02:06:26Z</time></trkpt><trkpt lat="14.124289715483373" lon="120.93081299782246"><ele>575.5</ele><time>2026-04-04T02:06:27Z</time></trkpt><trkpt lat="14.124252086834431" lon="120.93067133722397"><ele>575.25</ele><time>2026-04-04T02:06:28Z</time></trkpt><trkpt lat="14.124221635474226" lon="120.9305333639566"><ele>575.0</ele><time>2026-04-04T02:06:29Z</time></trkpt><trkpt lat="14.124192146718768" lon="120.9304020129594"><ele>575.0</ele><time>2026-04-04T02:06:30Z</time></trkpt><trkpt lat="14.12416486462636" lon="120.930267858283"><ele>575.0</ele><time>2026-04-04T02:06:31Z</time></trkpt><trkpt lat="14.124153263510062" lon="120.93014857798462"><ele>575.0</ele><time>2026-04-04T02:06:32Z</time></trkpt><trkpt lat="14.124162109072563" lon="120.93001201469784"><ele>575.0</ele><time>2026-04-04T02:06:33Z</time></trkpt><trkpt lat="14.124182475047778" lon="120.92987482185362"><ele>574.0</ele><time>2026-04-04T02:06:34Z</time></trkpt><trkpt lat="14.124225277693458" lon="120.92974520107327"><ele>573.0</ele><time>2026-04-04T02:06:35Z</time></trkpt><trkpt lat="14.12426402319468" lon="120.92961388041499"><ele>572.0</ele><time>2026-04-04T02:06:36Z</time></trkpt><trkpt lat="14.124306891890328" lon="120.92949019689759"><ele>571.0</ele><time>2026-04-04T02:06:37Z</time></trkpt><trkpt lat="14.124343334287255" lon="120.92936069285857"><ele>571.0</ele><time>2026-04-04T02:06:38Z</time></trkpt><trkpt lat="14.124380252049672" lon="120.92926189140677"><ele>571.0</ele><time>2026-04-04T02:06:39Z</time></trkpt><trkpt lat="14.124421015159148" lon="120.9291630534884"><ele>571.0</ele><time>2026-04-04T02:06:40Z</time></trkpt><trkpt lat="14.124457835492034" lon="120.9290732388788"><ele>571.0</ele><time>2026-04-04T02:06:41Z</time></trkpt><trkpt lat="14.124497851320113" lon="120.92898985611149"><ele>571.0</ele><time>2026-04-04T02:06:42Z</time></trkpt><trkpt lat="14.124536203712355" lon="120.92891277672375"><ele>570.6666666666667</ele><time>2026-04-04T02:06:43Z</time></trkpt><trkpt lat="14.124575680130707" lon="120.92882868719002"><ele>570.3333333333334</ele><time>2026-04-04T02:06:44Z</time></trkpt><trkpt lat="14.12460601371046" lon="120.92874646536033"><ele>570.0</ele><time>2026-04-04T02:06:45Z</time></trkpt><trkpt lat="14.12461639622097" lon="120.92863658728704"><ele>569.6666666666666</ele><time>2026-04-04T02:06:47Z</time></trkpt><trkpt lat="14.12460551361715" lon="120.9285675392852"><ele>569.3333333333333</ele><time>2026-04-04T02:06:48Z</time></trkpt><trkpt lat="14.124599478883876" lon="120.92849495009031"><ele>569.0</ele><time>2026-04-04T02:06:49Z</time></trkpt><trkpt lat="14.124563634650762" lon="120.92841853418021"><ele>570.0</ele><time>2026-04-04T02:06:50Z</time></trkpt><trkpt lat="14.124511528543401" lon="120.92834942437351"><ele>571.0</ele><time>2026-04-04T02:06:51Z</time></trkpt><trkpt lat="14.12444556879327" lon="120.92829210997844"><ele>572.0</ele><time>2026-04-04T02:06:52Z</time></trkpt><trkpt lat="14.124381477830083" lon="120.92821626394561"><ele>573.0</ele><time>2026-04-04T02:06:53Z</time></trkpt><trkpt lat="14.124319794331125" lon="120.92813091491422"><ele>574.0</ele><time>2026-04-04T02:06:54Z</time></trkpt><trkpt lat="14.124249837056102" lon="120.92805210438196"><ele>574.0</ele><time>2026-04-04T02:06:55Z</time></trkpt><trkpt lat="14.124174419864119" lon="120.92796429668599"><ele>574.0</ele><time>2026-04-04T02:06:56Z</time></trkpt><trkpt lat="14.124096042828896" lon="120.9278704677653"><ele>574.0</ele><time>2026-04-04T02:06:57Z</time></trkpt><trkpt lat="14.124023795900518" lon="120.92777931499714"><ele>574.0</ele><time>2026-04-04T02:06:58Z</time></trkpt><trkpt lat="14.123950200576779" lon="120.92767982140927"><ele>574.0</ele><time>2026-04-04T02:06:59Z</time></trkpt><trkpt lat="14.123880009718265" lon="120.92758180542302"><ele>574.0</ele><time>2026-04-04T02:07:00Z</time></trkpt><trkpt lat="14.123810666088882" lon="120.92747564259271"><ele>574.0</ele><time>2026-04-04T02:07:01Z</time></trkpt><trkpt lat="14.123738073048024" lon="120.92738376480385"><ele>574.0</ele><time>2026-04-04T02:07:02Z</time></trkpt><trkpt lat="14.123681877438782" lon="120.92727860138376"><ele>574.75</ele><time>2026-04-04T02:07:03Z</time></trkpt><trkpt lat="14.123629379785894" lon="120.92716004675509"><ele>575.5</ele><time>2026-04-04T02:07:04Z</time></trkpt><trkpt lat="14.123560686563644" lon="120.92705659207745"><ele>576.25</ele><time>2026-04-04T02:07:05Z</time></trkpt><trkpt lat="14.123524059239775" lon="120.92693521792206"><ele>577.0</ele><time>2026-04-04T02:07:06Z</time></trkpt><trkpt lat="14.123490163710983" lon="120.92685391500103"><ele>577.0</ele><time>2026-04-04T02:07:07Z</time></trkpt><trkpt lat="14.123461317823114" lon="120.92678490645517"><ele>577.0</ele><time>2026-04-04T02:07:08Z</time></trkpt><trkpt lat="14.123434548141223" lon="120.92671288337843"><ele>577.0</ele><time>2026-04-04T02:07:09Z</time></trkpt><trkpt lat="14.123403009200672" lon="120.926625817873"><ele>577.0</ele><time>2026-04-04T02:07:11Z</time></trkpt><trkpt lat="14.123233697091587" lon="120.92661817801584"><ele>577.0</ele><time>2026-04-04T02:07:25Z</time></trkpt><trkpt lat="14.123121085106412" lon="120.9266603843147"><ele>577.8333333333334</ele><time>2026-04-04T02:07:27Z</time></trkpt><trkpt lat="14.123049949281834" lon="120.92667837744062"><ele>578.6666666666667</ele><time>2026-04-04T02:07:28Z</time></trkpt><trkpt lat="14.122964560609669" lon="120.92668110824242"><ele>579.5</ele><time>2026-04-04T02:07:29Z</time></trkpt><trkpt lat="14.12288027511228" lon="120.92670042950391"><ele>580.3333333333334</ele><time>2026-04-04T02:07:30Z</time></trkpt><trkpt lat="14.122788044277193" lon="120.92672339471837"><ele>581.1666666666666</ele><time>2026-04-04T02:07:31Z</time></trkpt><trkpt lat="14.122692308316847" lon="120.92675090297244"><ele>582.0</ele><time>2026-04-04T02:07:32Z</time></trkpt><trkpt lat="14.122594359299695" lon="120.92677904711485"><ele>582.0</ele><time>2026-04-04T02:07:33Z</time></trkpt><trkpt lat="14.122492682600782" lon="120.92680816618115"><ele>582.0</ele><time>2026-04-04T02:07:34Z</time></trkpt><trkpt lat="14.122389543800656" lon="120.92683756077115"><ele>582.0</ele><time>2026-04-04T02:07:35Z</time></trkpt><trkpt lat="14.122283883430235" lon="120.92686799724049"><ele>582.0</ele><time>2026-04-04T02:07:36Z</time></trkpt><trkpt lat="14.122175667045147" lon="120.92689916769183"><ele>582.0</ele><time>2026-04-04T02:07:37Z</time></trkpt><trkpt lat="14.12206491185063" lon="120.92693131384294"><ele>582.25</ele><time>2026-04-04T02:07:38Z</time></trkpt><trkpt lat="14.121946384858187" lon="120.92696562590237"><ele>582.5</ele><time>2026-04-04T02:07:39Z</time></trkpt><trkpt lat="14.12183273468659" lon="120.92699819541305"><ele>582.75</ele><time>2026-04-04T02:07:40Z</time></trkpt><trkpt lat="14.121724035215912" lon="120.92702934616824"><ele>583.0</ele><time>2026-04-04T02:07:41Z</time></trkpt><trkpt lat="14.121611427410066" lon="120.92706161696117"><ele>583.4</ele><time>2026-04-04T02:07:42Z</time></trkpt><trkpt lat="14.121506477488316" lon="120.92709195722804"><ele>583.8</ele><time>2026-04-04T02:07:43Z</time></trkpt><trkpt lat="14.121404322394323" lon="120.92712203144913"><ele>584.2</ele><time>2026-04-04T02:07:44Z</time></trkpt><trkpt lat="14.12130907383843" lon="120.92715007240122"><ele>584.6</ele><time>2026-04-04T02:07:45Z</time></trkpt><trkpt lat="14.121220295976007" lon="120.92717600978327"><ele>585.0</ele><time>2026-04-04T02:07:46Z</time></trkpt><trkpt lat="14.121139106976052" lon="120.92719942219996"><ele>585.0</ele><time>2026-04-04T02:07:47Z</time></trkpt><trkpt lat="14.121064244246833" lon="120.92722026311117"><ele>585.0</ele><time>2026-04-04T02:07:48Z</time></trkpt><trkpt lat="14.120950180805458" lon="120.92723303142547"><ele>585.0</ele><time>2026-04-04T02:07:50Z</time></trkpt><trkpt lat="14.120901549563861" lon="120.92713402096622"><ele>585.0</ele><time>2026-04-04T02:07:52Z</time></trkpt><trkpt lat="14.12086771067315" lon="120.926956922323"><ele>585.0</ele><time>2026-04-04T02:07:54Z</time></trkpt><trkpt lat="14.120836699094246" lon="120.9268573112315"><ele>585.0</ele><time>2026-04-04T02:07:55Z</time></trkpt><trkpt lat="14.12080835269902" lon="120.92675409688293"><ele>585.0</ele><time>2026-04-04T02:07:56Z</time></trkpt><trkpt lat="14.120782432095982" lon="120.92664489300589"><ele>585.0</ele><time>2026-04-04T02:07:57Z</time></trkpt><trkpt lat="14.120752566092305" lon="120.92652882904247"><ele>585.0</ele><time>2026-04-04T02:07:58Z</time></trkpt><trkpt lat="14.120723016505233" lon="120.92641851688239"><ele>584.6</ele><time>2026-04-04T02:07:59Z</time></trkpt><trkpt lat="14.120699114929597" lon="120.92631681841294"><ele>584.2</ele><time>2026-04-04T02:08:00Z</time></trkpt><trkpt lat="14.120673854466823" lon="120.92621926602989"><ele>583.8</ele><time>2026-04-04T02:08:01Z</time></trkpt><trkpt lat="14.120650243698728" lon="120.92611576241637"><ele>583.4</ele><time>2026-04-04T02:08:02Z</time></trkpt><trkpt lat="14.120617221253466" lon="120.92600526846914"><ele>583.0</ele><time>2026-04-04T02:08:03Z</time></trkpt><trkpt lat="14.12059191459986" lon="120.92589455055202"><ele>582.25</ele><time>2026-04-04T02:08:04Z</time></trkpt><trkpt lat="14.120566719679495" lon="120.9257750099876"><ele>581.5</ele><time>2026-04-04T02:08:05Z</time></trkpt><trkpt lat="14.120542309423435" lon="120.92565481234509"><ele>580.75</ele><time>2026-04-04T02:08:06Z</time></trkpt><trkpt lat="14.120516454642258" lon="120.92552566959449"><ele>580.0</ele><time>2026-04-04T02:08:07Z</time></trkpt><trkpt lat="14.120484852078992" lon="120.92540200328348"><ele>580.0</ele><time>2026-04-04T02:08:07.999Z</time></trkpt><trkpt lat="14.120454223487895" lon="120.9252828902683"><ele>580.0</ele><time>2026-04-04T02:08:08.999Z</time></trkpt><trkpt lat="14.120431680114962" lon="120.92517159992856"><ele>580.0</ele><time>2026-04-04T02:08:09.999Z</time></trkpt><trkpt lat="14.120413340088806" lon="120.92507742241723"><ele>580.0</ele><time>2026-04-04T02:08:10.999Z</time></trkpt><trkpt lat="14.120392030007311" lon="120.92498779446977"><ele>580.0</ele><time>2026-04-04T02:08:11.999Z</time></trkpt><trkpt lat="14.120367354318365" lon="120.92492187624099"><ele>579.8</ele><time>2026-04-04T02:08:12.999Z</time></trkpt><trkpt lat="14.12032927913051" lon="120.92481747241821"><ele>579.6</ele><time>2026-04-04T02:08:14.999Z</time></trkpt><trkpt lat="14.120196780654824" lon="120.92481186823568"><ele>579.4</ele><time>2026-04-04T02:08:16.999Z</time></trkpt><trkpt lat="14.120114994576047" lon="120.92483139579694"><ele>579.2</ele><time>2026-04-04T02:08:17.999Z</time></trkpt><trkpt lat="14.120037022390818" lon="120.92484530585409"><ele>579.0</ele><time>2026-04-04T02:08:18.999Z</time></trkpt><trkpt lat="14.119952816989793" lon="120.92486032790487"><ele>580.2</ele><time>2026-04-04T02:08:19.999Z</time></trkpt><trkpt lat="14.119860719548896" lon="120.92487675787235"><ele>581.4</ele><time>2026-04-04T02:08:20.999Z</time></trkpt><trkpt lat="14.11976237229054" lon="120.92489430279308"><ele>582.6</ele><time>2026-04-04T02:08:21.999Z</time></trkpt><trkpt lat="14.119655113586708" lon="120.92491343749998"><ele>583.8</ele><time>2026-04-04T02:08:22.999Z</time></trkpt><trkpt lat="14.119538344969015" lon="120.92493569285406"><ele>585.0</ele><time>2026-04-04T02:08:23.999Z</time></trkpt><trkpt lat="14.11942446723386" lon="120.92495839594811"><ele>585.0</ele><time>2026-04-04T02:08:24.999Z</time></trkpt><trkpt lat="14.11931192488425" lon="120.9249795360575"><ele>585.0</ele><time>2026-04-04T02:08:25.999Z</time></trkpt><trkpt lat="14.11919285476495" lon="120.92500291422141"><ele>585.0</ele><time>2026-04-04T02:08:26.999Z</time></trkpt><trkpt lat="14.119068266369354" lon="120.92502737583791"><ele>585.0</ele><time>2026-04-04T02:08:27.999Z</time></trkpt><trkpt lat="14.118943843329909" lon="120.9250529566737"><ele>585.5</ele><time>2026-04-04T02:08:28.999Z</time></trkpt><trkpt lat="14.118817849697042" lon="120.92507727492332"><ele>586.0</ele><time>2026-04-04T02:08:29.999Z</time></trkpt><trkpt lat="14.118689604336481" lon="120.92510236060194"><ele>586.5</ele><time>2026-04-04T02:08:30.999Z</time></trkpt><trkpt lat="14.118559204516794" lon="120.92512786770692"><ele>587.0</ele><time>2026-04-04T02:08:31.999Z</time></trkpt><trkpt lat="14.118421664988956" lon="120.92515477138711"><ele>587.0</ele><time>2026-04-04T02:08:32.999Z</time></trkpt><trkpt lat="14.118282371838728" lon="120.92518234228353"><ele>587.0</ele><time>2026-04-04T02:08:33.999Z</time></trkpt><trkpt lat="14.118141187208447" lon="120.92521038446861"><ele>587.0</ele><time>2026-04-04T02:08:34.999Z</time></trkpt><trkpt lat="14.11800450221747" lon="120.92523713284193"><ele>587.0</ele><time>2026-04-04T02:08:36Z</time></trkpt><trkpt lat="14.1178684313083" lon="120.92526358896885"><ele>588.0</ele><time>2026-04-04T02:08:37Z</time></trkpt><trkpt lat="14.117732533863403" lon="120.9252900113782"><ele>589.0</ele><time>2026-04-04T02:08:38Z</time></trkpt><trkpt lat="14.117596872273735" lon="120.92531536800699"><ele>590.0</ele><time>2026-04-04T02:08:39Z</time></trkpt><trkpt lat="14.11745778840524" lon="120.92534142598284"><ele>591.0</ele><time>2026-04-04T02:08:40Z</time></trkpt><trkpt lat="14.117318572796444" lon="120.92536805449718"><ele>591.25</ele><time>2026-04-04T02:08:41Z</time></trkpt><trkpt lat="14.117177723474205" lon="120.9253950730998"><ele>591.5</ele><time>2026-04-04T02:08:42Z</time></trkpt><trkpt lat="14.117036673387899" lon="120.92542213017153"><ele>591.75</ele><time>2026-04-04T02:08:43Z</time></trkpt><trkpt lat="14.116894172145999" lon="120.92544950842496"><ele>592.0</ele><time>2026-04-04T02:08:44Z</time></trkpt><trkpt lat="14.11676516343069" lon="120.92547342657836"><ele>592.0</ele><time>2026-04-04T02:08:45Z</time></trkpt><trkpt lat="14.116638312095798" lon="120.92549734978802"><ele>592.0</ele><time>2026-04-04T02:08:46Z</time></trkpt><trkpt lat="14.116520052262421" lon="120.92551965270583"><ele>592.0</ele><time>2026-04-04T02:08:47Z</time></trkpt><trkpt lat="14.116397767518528" lon="120.9255427146833"><ele>592.0</ele><time>2026-04-04T02:08:48Z</time></trkpt><trkpt lat="14.116266871698782" lon="120.92556740064838"><ele>593.25</ele><time>2026-04-04T02:08:49Z</time></trkpt><trkpt lat="14.116134539931155" lon="120.92559235741783"><ele>594.5</ele><time>2026-04-04T02:08:50Z</time></trkpt><trkpt lat="14.115994702380378" lon="120.92561873235248"><ele>595.75</ele><time>2026-04-04T02:08:51Z</time></trkpt><trkpt lat="14.115857052052293" lon="120.92564469827069"><ele>597.0</ele><time>2026-04-04T02:08:52Z</time></trkpt><trkpt lat="14.115726805205052" lon="120.92566926761806"><ele>597.5</ele><time>2026-04-04T02:08:53Z</time></trkpt><trkpt lat="14.115601288397364" lon="120.92569294471406"><ele>598.0</ele><time>2026-04-04T02:08:54Z</time></trkpt><trkpt lat="14.11549091345208" lon="120.92571391072609"><ele>598.5</ele><time>2026-04-04T02:08:55Z</time></trkpt><trkpt lat="14.115379058779752" lon="120.92573555720202"><ele>599.0</ele><time>2026-04-04T02:08:56Z</time></trkpt><trkpt lat="14.115261270630034" lon="120.92575835194793"><ele>599.0</ele><time>2026-04-04T02:08:57Z</time></trkpt><trkpt lat="14.115145070484457" lon="120.92577582822382"><ele>599.0</ele><time>2026-04-04T02:08:58Z</time></trkpt><trkpt lat="14.115024910564536" lon="120.92579112552721"><ele>599.0</ele><time>2026-04-04T02:08:59Z</time></trkpt><trkpt lat="14.11490185989304" lon="120.92580607985914"><ele>599.0</ele><time>2026-04-04T02:09:00Z</time></trkpt><trkpt lat="14.114772241105408" lon="120.92582814175313"><ele>599.25</ele><time>2026-04-04T02:09:01Z</time></trkpt><trkpt lat="14.114648583092903" lon="120.92584530152544"><ele>599.5</ele><time>2026-04-04T02:09:02Z</time></trkpt><trkpt lat="14.11452925438923" lon="120.92586470321193"><ele>599.75</ele><time>2026-04-04T02:09:03Z</time></trkpt><trkpt lat="14.114408819256926" lon="120.92588428479667"><ele>600.0</ele><time>2026-04-04T02:09:04Z</time></trkpt><trkpt lat="14.114287653362863" lon="120.92590398519417"><ele>600.0</ele><time>2026-04-04T02:09:05Z</time></trkpt><trkpt lat="14.114169010241463" lon="120.9259232274404"><ele>600.0</ele><time>2026-04-04T02:09:06Z</time></trkpt><trkpt lat="14.11405008120304" lon="120.92594248202374"><ele>600.0</ele><time>2026-04-04T02:09:07Z</time></trkpt><trkpt lat="14.113943488862047" lon="120.92597414586537"><ele>600.0</ele><time>2026-04-04T02:09:08Z</time></trkpt><trkpt lat="14.113845365632379" lon="120.92598618684086"><ele>600.6666666666666</ele><time>2026-04-04T02:09:09Z</time></trkpt><trkpt lat="14.113763636325789" lon="120.92599518170162"><ele>601.3333333333334</ele><time>2026-04-04T02:09:10Z</time></trkpt><trkpt lat="14.113693458554712" lon="120.92599904882248"><ele>602.0</ele><time>2026-04-04T02:09:11Z</time></trkpt><trkpt lat="14.113623422121444" lon="120.92598717070683"><ele>602.6666666666667</ele><time>2026-04-04T02:09:12Z</time></trkpt><trkpt lat="14.113547340136217" lon="120.92599158603178"><ele>603.3333333333334</ele><time>2026-04-04T02:09:13Z</time></trkpt><trkpt lat="14.113457284132357" lon="120.92599681232342"><ele>604.0</ele><time>2026-04-04T02:09:14Z</time></trkpt><trkpt lat="14.113360530261703" lon="120.92600242733481"><ele>604.0</ele><time>2026-04-04T02:09:15Z</time></trkpt><trkpt lat="14.113255057363954" lon="120.92602047188466"><ele>604.0</ele><time>2026-04-04T02:09:16Z</time></trkpt><trkpt lat="14.113148084967996" lon="120.92603586686829"><ele>604.0</ele><time>2026-04-04T02:09:17Z</time></trkpt><trkpt lat="14.113041928278905" lon="120.92605183290421"><ele>604.0</ele><time>2026-04-04T02:09:18Z</time></trkpt><trkpt lat="14.112928351468419" lon="120.92606799519088"><ele>604.0</ele><time>2026-04-04T02:09:19Z</time></trkpt><trkpt lat="14.11281050545396" lon="120.92608511265705"><ele>605.0</ele><time>2026-04-04T02:09:20Z</time></trkpt><trkpt lat="14.112693727943766" lon="120.92610220657778"><ele>606.0</ele><time>2026-04-04T02:09:21Z</time></trkpt><trkpt lat="14.112575462043102" lon="120.92611998962883"><ele>607.0</ele><time>2026-04-04T02:09:22Z</time></trkpt><trkpt lat="14.112453107473446" lon="120.92613838733195"><ele>608.0</ele><time>2026-04-04T02:09:23Z</time></trkpt><trkpt lat="14.1123330926473" lon="120.92616209134457"><ele>609.0</ele><time>2026-04-04T02:09:24Z</time></trkpt><trkpt lat="14.112213484337216" lon="120.92618382473061"><ele>610.0</ele><time>2026-04-04T02:09:25Z</time></trkpt><trkpt lat="14.112093488717862" lon="120.92620562848934"><ele>611.0</ele><time>2026-04-04T02:09:26Z</time></trkpt><trkpt lat="14.111978961232897" lon="120.92622643866834"><ele>612.0</ele><time>2026-04-04T02:09:27Z</time></trkpt><trkpt lat="14.11187699009219" lon="120.9262449672954"><ele>612.0</ele><time>2026-04-04T02:09:28Z</time></trkpt><trkpt lat="14.111780162116734" lon="120.92626256138975"><ele>612.0</ele><time>2026-04-04T02:09:29Z</time></trkpt><trkpt lat="14.111678946200499" lon="120.92628095279241"><ele>612.0</ele><time>2026-04-04T02:09:30Z</time></trkpt><trkpt lat="14.11158608824198" lon="120.92629782552062"><ele>612.0</ele><time>2026-04-04T02:09:31Z</time></trkpt><trkpt lat="14.111491352467354" lon="120.92631503944622"><ele>612.0</ele><time>2026-04-04T02:09:32Z</time></trkpt><trkpt lat="14.11139768621162" lon="120.92633196083601"><ele>612.8333333333334</ele><time>2026-04-04T02:09:33Z</time></trkpt><trkpt lat="14.111310214022742" lon="120.92634774042499"><ele>613.6666666666666</ele><time>2026-04-04T02:09:34Z</time></trkpt><trkpt lat="14.111238371712055" lon="120.92636070045158"><ele>614.5</ele><time>2026-04-04T02:09:35Z</time></trkpt><trkpt lat="14.11117620246689" lon="120.92637191548685"><ele>615.3333333333333</ele><time>2026-04-04T02:09:36Z</time></trkpt><trkpt lat="14.111104621888476" lon="120.92638482828214"><ele>616.1666666666666</ele><time>2026-04-04T02:09:37Z</time></trkpt><trkpt lat="14.111026557075553" lon="120.9264009036857"><ele>617.0</ele><time>2026-04-04T02:09:38Z</time></trkpt><trkpt lat="14.110938701099247" lon="120.92641895838135"><ele>617.0</ele><time>2026-04-04T02:09:39Z</time></trkpt><trkpt lat="14.11084366434244" lon="120.92643874964807"><ele>617.0</ele><time>2026-04-04T02:09:40Z</time></trkpt><trkpt lat="14.110740168144634" lon="120.9264603025709"><ele>617.0</ele><time>2026-04-04T02:09:41Z</time></trkpt><trkpt lat="14.11063737733047" lon="120.92648170860042"><ele>617.0</ele><time>2026-04-04T02:09:42Z</time></trkpt><trkpt lat="14.110525520394857" lon="120.92650492606293"><ele>617.0</ele><time>2026-04-04T02:09:43Z</time></trkpt><trkpt lat="14.110411516155864" lon="120.92652850749984"><ele>617.25</ele><time>2026-04-04T02:09:44Z</time></trkpt><trkpt lat="14.110293424260204" lon="120.92655035666544"><ele>617.5</ele><time>2026-04-04T02:09:45Z</time></trkpt><trkpt lat="14.1101722789069" lon="120.92657277077963"><ele>617.75</ele><time>2026-04-04T02:09:46Z</time></trkpt><trkpt lat="14.110047103387876" lon="120.92659593055733"><ele>618.0</ele><time>2026-04-04T02:09:47Z</time></trkpt><trkpt lat="14.109926772917557" lon="120.9266174650462"><ele>619.25</ele><time>2026-04-04T02:09:48Z</time></trkpt><trkpt lat="14.109804764912921" lon="120.9266400423585"><ele>620.5</ele><time>2026-04-04T02:09:49Z</time></trkpt><trkpt lat="14.109682759036295" lon="120.92666261926964"><ele>621.75</ele><time>2026-04-04T02:09:50Z</time></trkpt><trkpt lat="14.109552887459103" lon="120.92668665171158"><ele>623.0</ele><time>2026-04-04T02:09:51Z</time></trkpt><trkpt lat="14.109425298197438" lon="120.92671026188026"><ele>623.75</ele><time>2026-04-04T02:09:52Z</time></trkpt><trkpt lat="14.109295400717272" lon="120.92673360684071"><ele>624.5</ele><time>2026-04-04T02:09:53Z</time></trkpt><trkpt lat="14.109169959925712" lon="120.9267589318854"><ele>625.25</ele><time>2026-04-04T02:09:54Z</time></trkpt><trkpt lat="14.109037563849354" lon="120.9267854286437"><ele>626.0</ele><time>2026-04-04T02:09:55Z</time></trkpt><trkpt lat="14.108910136084521" lon="120.9268109130036"><ele>626.5</ele><time>2026-04-04T02:09:56Z</time></trkpt><trkpt lat="14.108783422852753" lon="120.92683624824555"><ele>627.0</ele><time>2026-04-04T02:09:57Z</time></trkpt><trkpt lat="14.108653906842175" lon="120.92686214390396"><ele>627.5</ele><time>2026-04-04T02:09:58Z</time></trkpt><trkpt lat="14.108532411915574" lon="120.92689326507845"><ele>628.0</ele><time>2026-04-04T02:09:59Z</time></trkpt><trkpt lat="14.108409955595258" lon="120.92692418791914"><ele>628.0</ele><time>2026-04-04T02:10:00Z</time></trkpt><trkpt lat="14.108286362435674" lon="120.92695539784131"><ele>628.0</ele><time>2026-04-04T02:10:01Z</time></trkpt><trkpt lat="14.10815594108212" lon="120.92698833202503"><ele>628.0</ele><time>2026-04-04T02:10:02Z</time></trkpt><trkpt lat="14.10802621809374" lon="120.92701545703576"><ele>628.0</ele><time>2026-04-04T02:10:03Z</time></trkpt><trkpt lat="14.107891269341783" lon="120.92704265946357"><ele>629.25</ele><time>2026-04-04T02:10:04Z</time></trkpt><trkpt lat="14.107753782582154" lon="120.92707037384366"><ele>630.5</ele><time>2026-04-04T02:10:05Z</time></trkpt><trkpt lat="14.107615328192743" lon="120.92709828292273"><ele>631.75</ele><time>2026-04-04T02:10:06Z</time></trkpt><trkpt lat="14.107471591462497" lon="120.92712725679047"><ele>633.0</ele><time>2026-04-04T02:10:07Z</time></trkpt><trkpt lat="14.107325671253093" lon="120.92715667080483"><ele>633.0</ele><time>2026-04-04T02:10:08Z</time></trkpt><trkpt lat="14.10717838291122" lon="120.92718636059323"><ele>633.0</ele><time>2026-04-04T02:10:09Z</time></trkpt><trkpt lat="14.10703721429266" lon="120.9272147902274"><ele>633.0</ele><time>2026-04-04T02:10:10Z</time></trkpt><trkpt lat="14.10690722116532" lon="120.9272405912176"><ele>633.0</ele><time>2026-04-04T02:10:11Z</time></trkpt><trkpt lat="14.106784633302016" lon="120.9272649223458"><ele>633.0</ele><time>2026-04-04T02:10:12Z</time></trkpt><trkpt lat="14.106657956438434" lon="120.92729573385395"><ele>633.0</ele><time>2026-04-04T02:10:13Z</time></trkpt><trkpt lat="14.106534673057899" lon="120.92732483812462"><ele>633.0</ele><time>2026-04-04T02:10:13.999Z</time></trkpt><trkpt lat="14.106408407059602" lon="120.92734930841868"><ele>633.0</ele><time>2026-04-04T02:10:14.999Z</time></trkpt><trkpt lat="14.106281333533902" lon="120.92737375064542"><ele>634.0</ele><time>2026-04-04T02:10:16Z</time></trkpt><trkpt lat="14.106150099359592" lon="120.92740163616"><ele>635.0</ele><time>2026-04-04T02:10:17Z</time></trkpt><trkpt lat="14.106023900885683" lon="120.92743056651622"><ele>636.0</ele><time>2026-04-04T02:10:18Z</time></trkpt><trkpt lat="14.105897447488127" lon="120.9274595553245"><ele>637.0</ele><time>2026-04-04T02:10:19Z</time></trkpt><trkpt lat="14.105768706096587" lon="120.92748623544755"><ele>638.75</ele><time>2026-04-04T02:10:20Z</time></trkpt><trkpt lat="14.10564845445045" lon="120.92751009038089"><ele>640.5</ele><time>2026-04-04T02:10:21Z</time></trkpt><trkpt lat="14.105524709082708" lon="120.92753463839951"><ele>642.25</ele><time>2026-04-04T02:10:22Z</time></trkpt><trkpt lat="14.105411172409624" lon="120.92755716126018"><ele>644.0</ele><time>2026-04-04T02:10:23Z</time></trkpt><trkpt lat="14.105298326592251" lon="120.9275795470732"><ele>644.5</ele><time>2026-04-04T02:10:24Z</time></trkpt><trkpt lat="14.105183335117621" lon="120.92760235852597"><ele>645.0</ele><time>2026-04-04T02:10:25Z</time></trkpt><trkpt lat="14.105061311575124" lon="120.92762656497165"><ele>645.5</ele><time>2026-04-04T02:10:26Z</time></trkpt><trkpt lat="14.10493906156452" lon="120.92764987333996"><ele>646.0</ele><time>2026-04-04T02:10:27Z</time></trkpt><trkpt lat="14.104815410623715" lon="120.92767320097265"><ele>646.5999999999999</ele><time>2026-04-04T02:10:28Z</time></trkpt><trkpt lat="14.104695654246454" lon="120.9276957938716"><ele>647.2</ele><time>2026-04-04T02:10:28.999Z</time></trkpt><trkpt lat="14.104591255743829" lon="120.92771551499247"><ele>647.8</ele><time>2026-04-04T02:10:29.999Z</time></trkpt><trkpt lat="14.104484461873483" lon="120.92773581257175"><ele>648.4000000000001</ele><time>2026-04-04T02:10:30.999Z</time></trkpt><trkpt lat="14.104379878130434" lon="120.92775569007915"><ele>649.0</ele><time>2026-04-04T02:10:31.999Z</time></trkpt><trkpt lat="14.104272161544497" lon="120.92777847525906"><ele>649.0</ele><time>2026-04-04T02:10:32.999Z</time></trkpt><trkpt lat="14.104163794628757" lon="120.92780302881069"><ele>649.0</ele><time>2026-04-04T02:10:33.999Z</time></trkpt><trkpt lat="14.10405754797733" lon="120.92782805420153"><ele>649.0</ele><time>2026-04-04T02:10:34.999Z</time></trkpt><trkpt lat="14.10394697668612" lon="120.9278548006647"><ele>649.0</ele><time>2026-04-04T02:10:35.998Z</time></trkpt><trkpt lat="14.103836039148467" lon="120.92788163571278"><ele>649.0</ele><time>2026-04-04T02:10:36.998Z</time></trkpt><trkpt lat="14.103721846112379" lon="120.92790925824366"><ele>650.0</ele><time>2026-04-04T02:10:37.998Z</time></trkpt><trkpt lat="14.103605560951586" lon="120.92793198059582"><ele>651.0</ele><time>2026-04-04T02:10:38.998Z</time></trkpt><trkpt lat="14.103485085909995" lon="120.92795552480085"><ele>652.0</ele><time>2026-04-04T02:10:39.998Z</time></trkpt><trkpt lat="14.103366533270485" lon="120.92797869331199"><ele>653.0</ele><time>2026-04-04T02:10:40.998Z</time></trkpt><trkpt lat="14.103242222955302" lon="120.92800298710353"><ele>653.75</ele><time>2026-04-04T02:10:41.998Z</time></trkpt><trkpt lat="14.103113329307412" lon="120.92802550028863"><ele>654.5</ele><time>2026-04-04T02:10:42.998Z</time></trkpt><trkpt lat="14.102987582243175" lon="120.92804800890163"><ele>655.25</ele><time>2026-04-04T02:10:43.998Z</time></trkpt><trkpt lat="14.102865413592944" lon="120.92806990855497"><ele>656.0</ele><time>2026-04-04T02:10:44.998Z</time></trkpt><trkpt lat="14.102750111132977" lon="120.92809060285494"><ele>656.0</ele><time>2026-04-04T02:10:45.998Z</time></trkpt><trkpt lat="14.10263833564922" lon="120.92811066412706"><ele>656.0</ele><time>2026-04-04T02:10:46.998Z</time></trkpt><trkpt lat="14.102529798445728" lon="120.9281287556989"><ele>656.0</ele><time>2026-04-04T02:10:47.998Z</time></trkpt><trkpt lat="14.10242102743777" lon="120.92814691112038"><ele>656.0</ele><time>2026-04-04T02:10:48.998Z</time></trkpt><trkpt lat="14.102310516825977" lon="120.92816535691517"><ele>656.0</ele><time>2026-04-04T02:10:49.998Z</time></trkpt><trkpt lat="14.102209638221453" lon="120.92818219498483"><ele>655.8</ele><time>2026-04-04T02:10:50.997Z</time></trkpt><trkpt lat="14.102116461099454" lon="120.92819774757145"><ele>655.5999999999999</ele><time>2026-04-04T02:10:51.997Z</time></trkpt><trkpt lat="14.102036677508956" lon="120.92821123260615"><ele>655.4</ele><time>2026-04-04T02:10:52.997Z</time></trkpt><trkpt lat="14.101931724399371" lon="120.92822902156719"><ele>655.2</ele><time>2026-04-04T02:10:54.997Z</time></trkpt><trkpt lat="14.10184728875476" lon="120.92824333294159"><ele>655.0</ele><time>2026-04-04T02:10:56.997Z</time></trkpt><trkpt lat="14.101756551308764" lon="120.92825871243332"><ele>655.0</ele><time>2026-04-04T02:10:58.997Z</time></trkpt><trkpt lat="14.101668517305837" lon="120.92827363370948"><ele>655.0</ele><time>2026-04-04T02:11:00.997Z</time></trkpt><trkpt lat="14.101596756679443" lon="120.92828579673986"><ele>655.0</ele><time>2026-04-04T02:11:03.997Z</time></trkpt><trkpt lat="14.101546542233468" lon="120.92823368096482"><ele>655.0</ele><time>2026-04-04T02:11:05.997Z</time></trkpt><trkpt lat="14.101531359141681" lon="120.92816784165356"><ele>655.0</ele><time>2026-04-04T02:11:06.997Z</time></trkpt><trkpt lat="14.101502952578343" lon="120.92810048057339"><ele>655.0</ele><time>2026-04-04T02:11:07.997Z</time></trkpt><trkpt lat="14.101472602386249" lon="120.92802654868649"><ele>655.0</ele><time>2026-04-04T02:11:08.997Z</time></trkpt><trkpt lat="14.101439502666102" lon="120.92794759870648"><ele>655.2</ele><time>2026-04-04T02:11:09.997Z</time></trkpt><trkpt lat="14.101400891791837" lon="120.92786109946368"><ele>655.4</ele><time>2026-04-04T02:11:10.997Z</time></trkpt><trkpt lat="14.10136294502738" lon="120.92777190187931"><ele>655.5999999999999</ele><time>2026-04-04T02:11:11.997Z</time></trkpt><trkpt lat="14.101318984243123" lon="120.92767351486165"><ele>655.8</ele><time>2026-04-04T02:11:12.997Z</time></trkpt><trkpt lat="14.101277094185052" lon="120.92757018605049"><ele>656.0</ele><time>2026-04-04T02:11:13.997Z</time></trkpt><trkpt lat="14.10122845248722" lon="120.92745912608002"><ele>656.0</ele><time>2026-04-04T02:11:14.997Z</time></trkpt><trkpt lat="14.10117847455853" lon="120.92734679997479"><ele>656.0</ele><time>2026-04-04T02:11:15.997Z</time></trkpt><trkpt lat="14.101127565514378" lon="120.92722940675259"><ele>656.0</ele><time>2026-04-04T02:11:16.997Z</time></trkpt><trkpt lat="14.10107326233625" lon="120.92710973581953"><ele>656.0</ele><time>2026-04-04T02:11:17.997Z</time></trkpt><trkpt lat="14.101021854594926" lon="120.92698519632296"><ele>656.0</ele><time>2026-04-04T02:11:18.997Z</time></trkpt><trkpt lat="14.10096513518597" lon="120.92685519014276"><ele>656.0</ele><time>2026-04-04T02:11:19.997Z</time></trkpt><trkpt lat="14.10090697035888" lon="120.92673116596998"><ele>656.0</ele><time>2026-04-04T02:11:20.997Z</time></trkpt><trkpt lat="14.100851924417668" lon="120.9266051974464"><ele>656.0</ele><time>2026-04-04T02:11:21.997Z</time></trkpt><trkpt lat="14.100795978264472" lon="120.92647976041923"><ele>655.75</ele><time>2026-04-04T02:11:22.997Z</time></trkpt><trkpt lat="14.100736226222967" lon="120.92635305056847"><ele>655.5</ele><time>2026-04-04T02:11:23.997Z</time></trkpt><trkpt lat="14.100676390930172" lon="120.92622790817482"><ele>655.25</ele><time>2026-04-04T02:11:24.997Z</time></trkpt><trkpt lat="14.100617435024134" lon="120.92610132796324"><ele>655.0</ele><time>2026-04-04T02:11:25.997Z</time></trkpt><trkpt lat="14.100563373499114" lon="120.9259783707649"><ele>655.5</ele><time>2026-04-04T02:11:26.997Z</time></trkpt><trkpt lat="14.100506628167675" lon="120.92585063098385"><ele>656.0</ele><time>2026-04-04T02:11:27.997Z</time></trkpt><trkpt lat="14.100449945694667" lon="120.92572441290106"><ele>656.5</ele><time>2026-04-04T02:11:28.997Z</time></trkpt><trkpt lat="14.100392203354456" lon="120.9255951125666"><ele>657.0</ele><time>2026-04-04T02:11:29.997Z</time></trkpt><trkpt lat="14.100336521744728" lon="120.92546711298577"><ele>657.0</ele><time>2026-04-04T02:11:30.997Z</time></trkpt><trkpt lat="14.100282520905044" lon="120.92533905464182"><ele>657.0</ele><time>2026-04-04T02:11:31.997Z</time></trkpt><trkpt lat="14.100222422327127" lon="120.92521510614543"><ele>657.0</ele><time>2026-04-04T02:11:32.997Z</time></trkpt><trkpt lat="14.100166816314507" lon="120.92509243103467"><ele>657.0</ele><time>2026-04-04T02:11:33.997Z</time></trkpt><trkpt lat="14.100111767761195" lon="120.92497224681163"><ele>657.0</ele><time>2026-04-04T02:11:34.997Z</time></trkpt><trkpt lat="14.100059862080986" lon="120.92486139024587"><ele>657.0</ele><time>2026-04-04T02:11:35.997Z</time></trkpt><trkpt lat="14.100008538332252" lon="120.9247547876673"><ele>657.0</ele><time>2026-04-04T02:11:36.997Z</time></trkpt><trkpt lat="14.099954184706688" lon="120.92464798427773"><ele>657.0</ele><time>2026-04-04T02:11:37.997Z</time></trkpt><trkpt lat="14.099906111983367" lon="120.92454098681571"><ele>656.4000000000001</ele><time>2026-04-04T02:11:38.997Z</time></trkpt><trkpt lat="14.099855151668706" lon="120.92443426943788"><ele>655.8000000000001</ele><time>2026-04-04T02:11:39.997Z</time></trkpt><trkpt lat="14.09980709817801" lon="120.92433102786347"><ele>655.2</ele><time>2026-04-04T02:11:40.997Z</time></trkpt><trkpt lat="14.099762559233273" lon="120.92423370363785"><ele>654.6</ele><time>2026-04-04T02:11:41.997Z</time></trkpt><trkpt lat="14.099730491740857" lon="120.92413962630023"><ele>654.0</ele><time>2026-04-04T02:11:42.997Z</time></trkpt><trkpt lat="14.09969865089713" lon="120.92405777521682"><ele>653.4000000000001</ele><time>2026-04-04T02:11:43.997Z</time></trkpt><trkpt lat="14.099668691316138" lon="120.92396702220321"><ele>652.8</ele><time>2026-04-04T02:11:44.997Z</time></trkpt><trkpt lat="14.099619259682791" lon="120.92386936900128"><ele>652.2</ele><time>2026-04-04T02:11:45.997Z</time></trkpt><trkpt lat="14.099581457506138" lon="120.92376583495556"><ele>651.5999999999999</ele><time>2026-04-04T02:11:46.997Z</time></trkpt><trkpt lat="14.099536159737669" lon="120.92366360944327"><ele>651.0</ele><time>2026-04-04T02:11:47.997Z</time></trkpt><trkpt lat="14.099492946725878" lon="120.92355904514747"><ele>651.0</ele><time>2026-04-04T02:11:48.997Z</time></trkpt><trkpt lat="14.099450939405829" lon="120.92345885237494"><ele>651.0</ele><time>2026-04-04T02:11:49.997Z</time></trkpt><trkpt lat="14.099412529788099" lon="120.92336525278186"><ele>651.0</ele><time>2026-04-04T02:11:50.997Z</time></trkpt><trkpt lat="14.099371209365424" lon="120.92325901905205"><ele>651.0</ele><time>2026-04-04T02:11:51.997Z</time></trkpt><trkpt lat="14.099328100008409" lon="120.92317331205757"><ele>651.0</ele><time>2026-04-04T02:11:52.997Z</time></trkpt><trkpt lat="14.099285036896571" lon="120.92307021369143"><ele>651.0</ele><time>2026-04-04T02:11:53.997Z</time></trkpt><trkpt lat="14.09923743889631" lon="120.92296966950522"><ele>651.0</ele><time>2026-04-04T02:11:54.997Z</time></trkpt><trkpt lat="14.09919506660994" lon="120.92286357470985"><ele>651.0</ele><time>2026-04-04T02:11:55.997Z</time></trkpt><trkpt lat="14.099148853718681" lon="120.92275943100081"><ele>651.0</ele><time>2026-04-04T02:11:56.997Z</time></trkpt><trkpt lat="14.099101064786637" lon="120.92265690706525"><ele>651.0</ele><time>2026-04-04T02:11:57.997Z</time></trkpt><trkpt lat="14.099063378408156" lon="120.92256383468145"><ele>646.8</ele><time>2026-04-04T02:11:58.997Z</time></trkpt><trkpt lat="14.099015232178175" lon="120.92246132353405"><ele>642.5999999999999</ele><time>2026-04-04T02:11:59.997Z</time></trkpt><trkpt lat="14.098974373145811" lon="120.92236383611963"><ele>638.4</ele><time>2026-04-04T02:12:00.997Z</time></trkpt><trkpt lat="14.098927334903811" lon="120.92226037189737"><ele>634.2</ele><time>2026-04-04T02:12:01.997Z</time></trkpt><trkpt lat="14.098884119565424" lon="120.9221552421655"><ele>630.0</ele><time>2026-04-04T02:12:02.997Z</time></trkpt><trkpt lat="14.098840422913485" lon="120.9220558976423"><ele>630.0</ele><time>2026-04-04T02:12:03.997Z</time></trkpt><trkpt lat="14.098791935320458" lon="120.92195122716132"><ele>630.0</ele><time>2026-04-04T02:12:04.997Z</time></trkpt><trkpt lat="14.098744573009284" lon="120.92184219943812"><ele>630.0</ele><time>2026-04-04T02:12:05.997Z</time></trkpt><trkpt lat="14.098698107908097" lon="120.92173874080748"><ele>630.0</ele><time>2026-04-04T02:12:06.997Z</time></trkpt><trkpt lat="14.098649724879047" lon="120.92163583094181"><ele>632.6</ele><time>2026-04-04T02:12:07.997Z</time></trkpt><trkpt lat="14.098602737465493" lon="120.92152903715852"><ele>635.2</ele><time>2026-04-04T02:12:08.997Z</time></trkpt><trkpt lat="14.098558369369513" lon="120.92143029437486"><ele>637.8</ele><time>2026-04-04T02:12:09.997Z</time></trkpt><trkpt lat="14.098511646505214" lon="120.92132805206438"><ele>640.4</ele><time>2026-04-04T02:12:10.997Z</time></trkpt><trkpt lat="14.098470125700747" lon="120.92123240127017"><ele>643.0</ele><time>2026-04-04T02:12:11.997Z</time></trkpt><trkpt lat="14.098424047008146" lon="120.92113615715485"><ele>643.0</ele><time>2026-04-04T02:12:12.997Z</time></trkpt><trkpt lat="14.098387135270567" lon="120.92104304539576"><ele>643.0</ele><time>2026-04-04T02:12:13.997Z</time></trkpt><trkpt lat="14.09834378977732" lon="120.92094817022635"><ele>643.0</ele><time>2026-04-04T02:12:14.997Z</time></trkpt><trkpt lat="14.098305800494007" lon="120.92085913062019"><ele>643.0</ele><time>2026-04-04T02:12:15.997Z</time></trkpt><trkpt lat="14.098268955752868" lon="120.92077433786709"><ele>643.0</ele><time>2026-04-04T02:12:16.997Z</time></trkpt><trkpt lat="14.098231512513049" lon="120.92069336938026"><ele>640.3333333333334</ele><time>2026-04-04T02:12:17.997Z</time></trkpt><trkpt lat="14.098194815012171" lon="120.92061588645099"><ele>637.6666666666667</ele><time>2026-04-04T02:12:18.997Z</time></trkpt><trkpt lat="14.098159493764587" lon="120.92054087548995"><ele>635.0</ele><time>2026-04-04T02:12:19.997Z</time></trkpt><trkpt lat="14.098130252591204" lon="120.9204665931841"><ele>632.3333333333334</ele><time>2026-04-04T02:12:20.997Z</time></trkpt><trkpt lat="14.098098254997767" lon="120.92040532945003"><ele>629.6666666666666</ele><time>2026-04-04T02:12:21.997Z</time></trkpt><trkpt lat="14.098067232734715" lon="120.92033900681243"><ele>627.0</ele><time>2026-04-04T02:12:22.997Z</time></trkpt><trkpt lat="14.098033976531916" lon="120.92026322332354"><ele>627.0</ele><time>2026-04-04T02:12:23.997Z</time></trkpt><trkpt lat="14.098001090290996" lon="120.92018754518121"><ele>627.0</ele><time>2026-04-04T02:12:24.997Z</time></trkpt><trkpt lat="14.097964891769914" lon="120.92010443315894"><ele>627.0</ele><time>2026-04-04T02:12:25.998Z</time></trkpt><trkpt lat="14.097928336979688" lon="120.92001749016222"><ele>627.0</ele><time>2026-04-04T02:12:26.998Z</time></trkpt><trkpt lat="14.09789228270237" lon="120.91993340306485"><ele>627.0</ele><time>2026-04-04T02:12:27.998Z</time></trkpt><trkpt lat="14.097855467531721" lon="120.91984835795387"><ele>627.0</ele><time>2026-04-04T02:12:28.998Z</time></trkpt><trkpt lat="14.097817633266493" lon="120.9197645031345"><ele>630.4000000000001</ele><time>2026-04-04T02:12:29.998Z</time></trkpt><trkpt lat="14.097779357421416" lon="120.91967983070708"><ele>633.8000000000001</ele><time>2026-04-04T02:12:30.998Z</time></trkpt><trkpt lat="14.097743700709424" lon="120.91960125619097"><ele>637.2</ele><time>2026-04-04T02:12:31.998Z</time></trkpt><trkpt lat="14.097705497112816" lon="120.91951192465395"><ele>640.6</ele><time>2026-04-04T02:12:32.998Z</time></trkpt><trkpt lat="14.097666764626808" lon="120.91942383233082"><ele>644.0</ele><time>2026-04-04T02:12:33.999Z</time></trkpt><trkpt lat="14.09762692676601" lon="120.91933681872949"><ele>644.0</ele><time>2026-04-04T02:12:34.999Z</time></trkpt><trkpt lat="14.09758593010746" lon="120.91924551283948"><ele>644.0</ele><time>2026-04-04T02:12:35.999Z</time></trkpt><trkpt lat="14.097546676876375" lon="120.91916021663559"><ele>644.0</ele><time>2026-04-04T02:12:36.999Z</time></trkpt><trkpt lat="14.097511046478028" lon="120.91907675576907"><ele>644.0</ele><time>2026-04-04T02:12:37.999Z</time></trkpt><trkpt lat="14.097475791422275" lon="120.91899381535656"><ele>644.0</ele><time>2026-04-04T02:12:38.999Z</time></trkpt><trkpt lat="14.097439341679706" lon="120.91890645404854"><ele>641.6666666666666</ele><time>2026-04-04T02:12:39.999Z</time></trkpt><trkpt lat="14.097401226715656" lon="120.91882597142516"><ele>639.3333333333333</ele><time>2026-04-04T02:12:40.999Z</time></trkpt><trkpt lat="14.097365705627665" lon="120.9187465960112"><ele>637.0</ele><time>2026-04-04T02:12:41.999Z</time></trkpt><trkpt lat="14.097332695222311" lon="120.91866427317603"><ele>634.6666666666666</ele><time>2026-04-04T02:12:42.999Z</time></trkpt><trkpt lat="14.09730675798634" lon="120.91858716165815"><ele>632.3333333333334</ele><time>2026-04-04T02:12:43.999Z</time></trkpt><trkpt lat="14.097285987896868" lon="120.91852074736518"><ele>630.0</ele><time>2026-04-04T02:12:44.999Z</time></trkpt><trkpt lat="14.097253587767545" lon="120.9184043527705"><ele>631.0</ele><time>2026-04-04T02:12:46.999Z</time></trkpt><trkpt lat="14.097156253500861" lon="120.91826249882806"><ele>632.0</ele><time>2026-04-04T02:12:47.999Z</time></trkpt><trkpt lat="14.097124105934764" lon="120.91817900356531"><ele>633.0</ele><time>2026-04-04T02:12:48.999Z</time></trkpt><trkpt lat="14.097085713993849" lon="120.91809372103855"><ele>634.0</ele><time>2026-04-04T02:12:49.999Z</time></trkpt><trkpt lat="14.097050063582687" lon="120.9180056816442"><ele>635.0</ele><time>2026-04-04T02:12:51Z</time></trkpt><trkpt lat="14.097011807632223" lon="120.9179125758079"><ele>635.0</ele><time>2026-04-04T02:12:52Z</time></trkpt><trkpt lat="14.096973454339654" lon="120.9178150798095"><ele>635.0</ele><time>2026-04-04T02:12:53Z</time></trkpt><trkpt lat="14.096938527618605" lon="120.91771962011099"><ele>635.0</ele><time>2026-04-04T02:12:54Z</time></trkpt><trkpt lat="14.096907313578834" lon="120.91763269205148"><ele>635.0</ele><time>2026-04-04T02:12:55Z</time></trkpt><trkpt lat="14.096874472669567" lon="120.91754093549238"><ele>635.0</ele><time>2026-04-04T02:12:56Z</time></trkpt><trkpt lat="14.096840388547143" lon="120.91744887304992"><ele>636.6666666666666</ele><time>2026-04-04T02:12:57Z</time></trkpt><trkpt lat="14.096803172595507" lon="120.91735514748912"><ele>638.3333333333333</ele><time>2026-04-04T02:12:58Z</time></trkpt><trkpt lat="14.09676668011452" lon="120.91727064692542"><ele>640.0</ele><time>2026-04-04T02:12:59Z</time></trkpt><trkpt lat="14.096738824274674" lon="120.9171915518955"><ele>641.6666666666666</ele><time>2026-04-04T02:13:00Z</time></trkpt><trkpt lat="14.096706898214622" lon="120.91711843834342"><ele>643.3333333333334</ele><time>2026-04-04T02:13:01Z</time></trkpt><trkpt lat="14.096676638669944" lon="120.91704144840202"><ele>645.0</ele><time>2026-04-04T02:13:02Z</time></trkpt><trkpt lat="14.096639956651613" lon="120.91695611444909"><ele>645.0</ele><time>2026-04-04T02:13:03Z</time></trkpt><trkpt lat="14.09660368618228" lon="120.91687089703825"><ele>645.0</ele><time>2026-04-04T02:13:04Z</time></trkpt><trkpt lat="14.096571861271283" lon="120.91678851300142"><ele>645.0</ele><time>2026-04-04T02:13:05Z</time></trkpt><trkpt lat="14.096537937972949" lon="120.91671217916377"><ele>645.0</ele><time>2026-04-04T02:13:06Z</time></trkpt><trkpt lat="14.09650304647551" lon="120.91663278483337"><ele>645.0</ele><time>2026-04-04T02:13:07Z</time></trkpt><trkpt lat="14.096465509030743" lon="120.91655410311964"><ele>645.0</ele><time>2026-04-04T02:13:08Z</time></trkpt><trkpt lat="14.096415394769338" lon="120.91647358838512"><ele>641.6</ele><time>2026-04-04T02:13:09Z</time></trkpt><trkpt lat="14.09636015832083" lon="120.91639795886046"><ele>638.2</ele><time>2026-04-04T02:13:10Z</time></trkpt><trkpt lat="14.096293326686153" lon="120.91632926689978"><ele>634.8</ele><time>2026-04-04T02:13:11Z</time></trkpt><trkpt lat="14.096223645055288" lon="120.91625983009358"><ele>631.4</ele><time>2026-04-04T02:13:12Z</time></trkpt><trkpt lat="14.096152245324372" lon="120.91619150404513"><ele>628.0</ele><time>2026-04-04T02:13:13Z</time></trkpt><trkpt lat="14.09607732808379" lon="120.91612833383071"><ele>628.0</ele><time>2026-04-04T02:13:14Z</time></trkpt><trkpt lat="14.095992800840637" lon="120.91606880555223"><ele>628.0</ele><time>2026-04-04T02:13:15Z</time></trkpt><trkpt lat="14.095906505496322" lon="120.91601223050448"><ele>628.0</ele><time>2026-04-04T02:13:16Z</time></trkpt><trkpt lat="14.09581998614059" lon="120.91596061351909"><ele>628.0</ele><time>2026-04-04T02:13:17Z</time></trkpt><trkpt lat="14.095735203180338" lon="120.91590636651685"><ele>628.0</ele><time>2026-04-04T02:13:18Z</time></trkpt><trkpt lat="14.09565327757901" lon="120.91585149336765"><ele>630.0</ele><time>2026-04-04T02:13:19Z</time></trkpt><trkpt lat="14.095570951285337" lon="120.915798766464"><ele>632.0</ele><time>2026-04-04T02:13:20Z</time></trkpt><trkpt lat="14.09548722416038" lon="120.91574495154555"><ele>634.0</ele><time>2026-04-04T02:13:21Z</time></trkpt><trkpt lat="14.09540496072396" lon="120.91569260459202"><ele>636.0</ele><time>2026-04-04T02:13:22Z</time></trkpt><trkpt lat="14.095318439177605" lon="120.91563082665378"><ele>638.0</ele><time>2026-04-04T02:13:23Z</time></trkpt><trkpt lat="14.095233515036847" lon="120.91556634114475"><ele>638.0</ele><time>2026-04-04T02:13:24Z</time></trkpt><trkpt lat="14.09515040187882" lon="120.91549926998253"><ele>638.0</ele><time>2026-04-04T02:13:25Z</time></trkpt><trkpt lat="14.09507112410287" lon="120.91543263766042"><ele>638.0</ele><time>2026-04-04T02:13:26Z</time></trkpt><trkpt lat="14.09499479595627" lon="120.91536978615287"><ele>638.0</ele><time>2026-04-04T02:13:27Z</time></trkpt><trkpt lat="14.094920431539135" lon="120.9153058358842"><ele>638.0</ele><time>2026-04-04T02:13:28Z</time></trkpt><trkpt lat="14.094852097772847" lon="120.9152385006737"><ele>636.0</ele><time>2026-04-04T02:13:29Z</time></trkpt><trkpt lat="14.094780529879584" lon="120.91517292888575"><ele>634.0</ele><time>2026-04-04T02:13:30Z</time></trkpt><trkpt lat="14.094705119722661" lon="120.91510772509919"><ele>632.0</ele><time>2026-04-04T02:13:31Z</time></trkpt><trkpt lat="14.09463162131951" lon="120.91503919510103"><ele>630.0</ele><time>2026-04-04T02:13:32Z</time></trkpt><trkpt lat="14.094557221759679" lon="120.91497140212577"><ele>628.0</ele><time>2026-04-04T02:13:33Z</time></trkpt><trkpt lat="14.094480754511263" lon="120.91490051240224"><ele>628.0</ele><time>2026-04-04T02:13:34Z</time></trkpt><trkpt lat="14.094403968048777" lon="120.91483017895699"><ele>628.0</ele><time>2026-04-04T02:13:35Z</time></trkpt><trkpt lat="14.094322540001079" lon="120.91475611782198"><ele>628.0</ele><time>2026-04-04T02:13:36Z</time></trkpt><trkpt lat="14.09424455128107" lon="120.91468023289828"><ele>628.0</ele><time>2026-04-04T02:13:37Z</time></trkpt><trkpt lat="14.094157993843396" lon="120.91460033251911"><ele>628.0</ele><time>2026-04-04T02:13:38Z</time></trkpt><trkpt lat="14.09407414911142" lon="120.91452137133261"><ele>629.75</ele><time>2026-04-04T02:13:39Z</time></trkpt><trkpt lat="14.093982808715765" lon="120.91443942452945"><ele>631.5</ele><time>2026-04-04T02:13:40Z</time></trkpt><trkpt lat="14.09389275970378" lon="120.9143540756485"><ele>633.25</ele><time>2026-04-04T02:13:41Z</time></trkpt><trkpt lat="14.093804683262013" lon="120.91426797269742"><ele>635.0</ele><time>2026-04-04T02:13:42Z</time></trkpt><trkpt lat="14.093716151006147" lon="120.91417947442375"><ele>635.0</ele><time>2026-04-04T02:13:43Z</time></trkpt><trkpt lat="14.09363353712241" lon="120.91408950678851"><ele>635.0</ele><time>2026-04-04T02:13:44Z</time></trkpt><trkpt lat="14.093555869009787" lon="120.91399576720883"><ele>635.0</ele><time>2026-04-04T02:13:45Z</time></trkpt><trkpt lat="14.093486424271049" lon="120.91390249994281"><ele>635.0</ele><time>2026-04-04T02:13:46Z</time></trkpt><trkpt lat="14.093439954783769" lon="120.91380073263818"><ele>635.0</ele><time>2026-04-04T02:13:47Z</time></trkpt><trkpt lat="14.093376788269351" lon="120.91369835296648"><ele>635.0</ele><time>2026-04-04T02:13:48Z</time></trkpt><trkpt lat="14.093316479834446" lon="120.91360045501816"><ele>635.0</ele><time>2026-04-04T02:13:49Z</time></trkpt><trkpt lat="14.093251648732233" lon="120.91349516533273"><ele>635.0</ele><time>2026-04-04T02:13:50Z</time></trkpt><trkpt lat="14.093183462996048" lon="120.91338482886195"><ele>630.0</ele><time>2026-04-04T02:13:51Z</time></trkpt><trkpt lat="14.09311657473293" lon="120.91329934910493"><ele>625.0</ele><time>2026-04-04T02:13:52Z</time></trkpt><trkpt lat="14.093056572307395" lon="120.9131941050244"><ele>620.0</ele><time>2026-04-04T02:13:53Z</time></trkpt><trkpt lat="14.093000151535586" lon="120.91308502174033"><ele>615.0</ele><time>2026-04-04T02:13:54Z</time></trkpt><trkpt lat="14.092940577424441" lon="120.91298147249086"><ele>615.0</ele><time>2026-04-04T02:13:55Z</time></trkpt><trkpt lat="14.09288051387506" lon="120.9128782480757"><ele>615.0</ele><time>2026-04-04T02:13:56Z</time></trkpt><trkpt lat="14.092826837098393" lon="120.91277871630672"><ele>615.0</ele><time>2026-04-04T02:13:57Z</time></trkpt><trkpt lat="14.092773508616217" lon="120.91268453520327"><ele>615.0</ele><time>2026-04-04T02:13:58Z</time></trkpt><trkpt lat="14.092719150001713" lon="120.91258739520602"><ele>615.0</ele><time>2026-04-04T02:13:59Z</time></trkpt><trkpt lat="14.092658785117028" lon="120.91249005924749"><ele>614.2</ele><time>2026-04-04T02:14:00Z</time></trkpt><trkpt lat="14.092596259723862" lon="120.91238867023273"><ele>613.4</ele><time>2026-04-04T02:14:01Z</time></trkpt><trkpt lat="14.092532364379382" lon="120.91229234886254"><ele>612.6</ele><time>2026-04-04T02:14:02Z</time></trkpt><trkpt lat="14.092469529643363" lon="120.91220160563431"><ele>611.8</ele><time>2026-04-04T02:14:03Z</time></trkpt><trkpt lat="14.092401785811209" lon="120.91211526810173"><ele>611.0</ele><time>2026-04-04T02:14:04Z</time></trkpt><trkpt lat="14.092332910941895" lon="120.91203411302665"><ele>611.0</ele><time>2026-04-04T02:14:05Z</time></trkpt><trkpt lat="14.092256051593177" lon="120.91196320447719"><ele>611.0</ele><time>2026-04-04T02:14:06Z</time></trkpt><trkpt lat="14.092176661988153" lon="120.91188237052748"><ele>611.0</ele><time>2026-04-04T02:14:07Z</time></trkpt><trkpt lat="14.092090316729266" lon="120.91181767188776"><ele>611.0</ele><time>2026-04-04T02:14:08Z</time></trkpt><trkpt lat="14.091996350033984" lon="120.91175996357907"><ele>611.0</ele><time>2026-04-04T02:14:09Z</time></trkpt><trkpt lat="14.091908949562212" lon="120.91171142250305"><ele>618.6</ele><time>2026-04-04T02:14:10Z</time></trkpt><trkpt lat="14.091807551541727" lon="120.9116911633164"><ele>626.2</ele><time>2026-04-04T02:14:11Z</time></trkpt><trkpt lat="14.091705131366306" lon="120.91166023914019"><ele>633.8000000000001</ele><time>2026-04-04T02:14:12Z</time></trkpt><trkpt lat="14.091599135586264" lon="120.91163594211794"><ele>641.4000000000001</ele><time>2026-04-04T02:14:13Z</time></trkpt><trkpt lat="14.091486344708146" lon="120.91161498974975"><ele>649.0</ele><time>2026-04-04T02:14:14Z</time></trkpt><trkpt lat="14.091370026436985" lon="120.91159680930772"><ele>649.0</ele><time>2026-04-04T02:14:15Z</time></trkpt><trkpt lat="14.09126091343478" lon="120.91158579503846"><ele>649.0</ele><time>2026-04-04T02:14:16Z</time></trkpt><trkpt lat="14.091147637086811" lon="120.9115716777763"><ele>649.0</ele><time>2026-04-04T02:14:17Z</time></trkpt><trkpt lat="14.091043471155531" lon="120.91155457506393"><ele>649.0</ele><time>2026-04-04T02:14:18Z</time></trkpt><trkpt lat="14.090944178604056" lon="120.91153967274703"><ele>649.0</ele><time>2026-04-04T02:14:19Z</time></trkpt><trkpt lat="14.090851822239276" lon="120.91150392142943"><ele>649.0</ele><time>2026-04-04T02:14:20Z</time></trkpt><trkpt lat="14.090771284376729" lon="120.9114867565421"><ele>649.0</ele><time>2026-04-04T02:14:21Z</time></trkpt><trkpt lat="14.090671134800337" lon="120.91145997374984"><ele>649.0</ele><time>2026-04-04T02:14:22Z</time></trkpt><trkpt lat="14.090571168344532" lon="120.91142929788555"><ele>649.0</ele><time>2026-04-04T02:14:23Z</time></trkpt><trkpt lat="14.090483982725512" lon="120.91140208840163"><ele>649.0</ele><time>2026-04-04T02:14:24Z</time></trkpt><trkpt lat="14.090405472591614" lon="120.91136478667485"><ele>650.3333333333334</ele><time>2026-04-04T02:14:25Z</time></trkpt><trkpt lat="14.090331843589759" lon="120.91133944082736"><ele>651.6666666666667</ele><time>2026-04-04T02:14:26Z</time></trkpt><trkpt lat="14.090264640835645" lon="120.91129831172243"><ele>653.0</ele><time>2026-04-04T02:14:27Z</time></trkpt><trkpt lat="14.090200840619378" lon="120.9112571341001"><ele>654.3333333333334</ele><time>2026-04-04T02:14:28Z</time></trkpt><trkpt lat="14.090141235635352" lon="120.91120600905992"><ele>655.6666666666666</ele><time>2026-04-04T02:14:29Z</time></trkpt><trkpt lat="14.090079120765813" lon="120.91114612780612"><ele>657.0</ele><time>2026-04-04T02:14:30Z</time></trkpt><trkpt lat="14.090016425264599" lon="120.91108649383666"><ele>657.0</ele><time>2026-04-04T02:14:31Z</time></trkpt><trkpt lat="14.089963769240002" lon="120.9110184832207"><ele>657.0</ele><time>2026-04-04T02:14:32Z</time></trkpt><trkpt lat="14.08990411157494" lon="120.91093856162678"><ele>657.0</ele><time>2026-04-04T02:14:33Z</time></trkpt><trkpt lat="14.089838705565956" lon="120.91084904107761"><ele>657.0</ele><time>2026-04-04T02:14:34Z</time></trkpt><trkpt lat="14.08977484048077" lon="120.91075219008953"><ele>657.0</ele><time>2026-04-04T02:14:35Z</time></trkpt><trkpt lat="14.089712624718054" lon="120.91065359342778"><ele>659.25</ele><time>2026-04-04T02:14:36Z</time></trkpt><trkpt lat="14.089647637839677" lon="120.91055203006064"><ele>661.5</ele><time>2026-04-04T02:14:37Z</time></trkpt><trkpt lat="14.089578568621024" lon="120.91044159108434"><ele>663.75</ele><time>2026-04-04T02:14:38Z</time></trkpt><trkpt lat="14.089510024533945" lon="120.9103293319485"><ele>666.0</ele><time>2026-04-04T02:14:39Z</time></trkpt><trkpt lat="14.089439963047703" lon="120.91022081127875"><ele>666.0</ele><time>2026-04-04T02:14:40Z</time></trkpt><trkpt lat="14.089369253746826" lon="120.91010225373408"><ele>666.0</ele><time>2026-04-04T02:14:41Z</time></trkpt><trkpt lat="14.089302471220792" lon="120.90998505944758"><ele>666.0</ele><time>2026-04-04T02:14:42Z</time></trkpt><trkpt lat="14.089235841134922" lon="120.90986950106586"><ele>666.0</ele><time>2026-04-04T02:14:43Z</time></trkpt><trkpt lat="14.089166759567522" lon="120.90975421869884"><ele>666.0</ele><time>2026-04-04T02:14:44Z</time></trkpt><trkpt lat="14.08910132239251" lon="120.90964695659298"><ele>666.0</ele><time>2026-04-04T02:14:45Z</time></trkpt><trkpt lat="14.08903496147525" lon="120.90954614605488"><ele>666.0</ele><time>2026-04-04T02:14:46Z</time></trkpt><trkpt lat="14.088974041991289" lon="120.90944966037671"><ele>666.0</ele><time>2026-04-04T02:14:47Z</time></trkpt><trkpt lat="14.088911842212372" lon="120.90935312281655"><ele>664.0</ele><time>2026-04-04T02:14:48Z</time></trkpt><trkpt lat="14.088852202077323" lon="120.90926047570875"><ele>662.0</ele><time>2026-04-04T02:14:49Z</time></trkpt><trkpt lat="14.08879201124152" lon="120.90916667394968"><ele>660.0</ele><time>2026-04-04T02:14:50Z</time></trkpt><trkpt lat="14.08872995384118" lon="120.90906982786629"><ele>658.0</ele><time>2026-04-04T02:14:51Z</time></trkpt><trkpt lat="14.088667480340849" lon="120.90897116934829"><ele>656.0</ele><time>2026-04-04T02:14:52Z</time></trkpt><trkpt lat="14.088602203639871" lon="120.90886833866054"><ele>656.0</ele><time>2026-04-04T02:14:53Z</time></trkpt><trkpt lat="14.088536625988972" lon="120.9087610938829"><ele>656.0</ele><time>2026-04-04T02:14:54Z</time></trkpt><trkpt lat="14.088470935455861" lon="120.90865565848884"><ele>656.0</ele><time>2026-04-04T02:14:55Z</time></trkpt><trkpt lat="14.088414546951483" lon="120.90855203287478"><ele>656.0</ele><time>2026-04-04T02:14:56Z</time></trkpt><trkpt lat="14.088351947397916" lon="120.90845156880994"><ele>657.0</ele><time>2026-04-04T02:14:57Z</time></trkpt><trkpt lat="14.088289973413946" lon="120.90835003825657"><ele>658.0</ele><time>2026-04-04T02:14:58Z</time></trkpt><trkpt lat="14.088229322179519" lon="120.90823817106701"><ele>659.0</ele><time>2026-04-04T02:14:59Z</time></trkpt><trkpt lat="14.088175994639125" lon="120.90812315452169"><ele>660.0</ele><time>2026-04-04T02:15:00Z</time></trkpt><trkpt lat="14.088140766277796" lon="120.90800058885053"><ele>654.75</ele><time>2026-04-04T02:15:01Z</time></trkpt><trkpt lat="14.088110075805748" lon="120.90787714041993"><ele>649.5</ele><time>2026-04-04T02:15:02Z</time></trkpt><trkpt lat="14.088096362606109" lon="120.90775067243281"><ele>644.25</ele><time>2026-04-04T02:15:03Z</time></trkpt><trkpt lat="14.088092317466096" lon="120.90761516828228"><ele>639.0</ele><time>2026-04-04T02:15:04Z</time></trkpt><trkpt lat="14.088091566973407" lon="120.9074835714509"><ele>639.0</ele><time>2026-04-04T02:15:05Z</time></trkpt><trkpt lat="14.08810245871247" lon="120.9073484280884"><ele>639.0</ele><time>2026-04-04T02:15:06Z</time></trkpt><trkpt lat="14.088111515859447" lon="120.90720395372982"><ele>639.0</ele><time>2026-04-04T02:15:07Z</time></trkpt><trkpt lat="14.08813010368332" lon="120.90706440269372"><ele>639.0</ele><time>2026-04-04T02:15:08Z</time></trkpt><trkpt lat="14.088151970798721" lon="120.90692203485557"><ele>639.0</ele><time>2026-04-04T02:15:09Z</time></trkpt><trkpt lat="14.08817163399121" lon="120.9067764269619"><ele>639.0</ele><time>2026-04-04T02:15:10Z</time></trkpt><trkpt lat="14.088191502970746" lon="120.90663196908736"><ele>639.0</ele><time>2026-04-04T02:15:11Z</time></trkpt><trkpt lat="14.088207504968393" lon="120.90649383908753"><ele>639.0</ele><time>2026-04-04T02:15:12Z</time></trkpt><trkpt lat="14.088228642763847" lon="120.90635773496304"><ele>642.5</ele><time>2026-04-04T02:15:13Z</time></trkpt><trkpt lat="14.088247832898317" lon="120.9062189466534"><ele>646.0</ele><time>2026-04-04T02:15:14Z</time></trkpt><trkpt lat="14.088268575911151" lon="120.9060768450138"><ele>649.5</ele><time>2026-04-04T02:15:15Z</time></trkpt><trkpt lat="14.088292201685057" lon="120.90594160547992"><ele>653.0</ele><time>2026-04-04T02:15:16Z</time></trkpt><trkpt lat="14.088309865743438" lon="120.9058052847063"><ele>653.0</ele><time>2026-04-04T02:15:17Z</time></trkpt><trkpt lat="14.088332724023834" lon="120.90567554444881"><ele>653.0</ele><time>2026-04-04T02:15:18Z</time></trkpt><trkpt lat="14.088351384849469" lon="120.90554854945185"><ele>653.0</ele><time>2026-04-04T02:15:19Z</time></trkpt><trkpt lat="14.088391320428643" lon="120.90541415585669"><ele>653.0</ele><time>2026-04-04T02:15:20Z</time></trkpt><trkpt lat="14.088436594486817" lon="120.90528025320002"><ele>653.0</ele><time>2026-04-04T02:15:21Z</time></trkpt><trkpt lat="14.088484541342881" lon="120.90514909415889"><ele>653.0</ele><time>2026-04-04T02:15:22Z</time></trkpt><trkpt lat="14.088539510305887" lon="120.90501137846624"><ele>653.0</ele><time>2026-04-04T02:15:23Z</time></trkpt><trkpt lat="14.0886059765352" lon="120.90487684582929"><ele>653.0</ele><time>2026-04-04T02:15:24Z</time></trkpt><trkpt lat="14.088676897552325" lon="120.90474222209681"><ele>651.0</ele><time>2026-04-04T02:15:25Z</time></trkpt><trkpt lat="14.088747366448214" lon="120.90461470759641"><ele>649.0</ele><time>2026-04-04T02:15:26Z</time></trkpt><trkpt lat="14.088815988385882" lon="120.90448658779341"><ele>647.0</ele><time>2026-04-04T02:15:27Z</time></trkpt><trkpt lat="14.088883267283272" lon="120.90436578699001"><ele>645.0</ele><time>2026-04-04T02:15:28Z</time></trkpt><trkpt lat="14.08894450806012" lon="120.90424712025055"><ele>645.25</ele><time>2026-04-04T02:15:29Z</time></trkpt><trkpt lat="14.08900241580787" lon="120.90413777705949"><ele>645.5</ele><time>2026-04-04T02:15:30Z</time></trkpt><trkpt lat="14.089054000943644" lon="120.90401577423955"><ele>645.75</ele><time>2026-04-04T02:15:31Z</time></trkpt><trkpt lat="14.089101131809779" lon="120.90391119099066"><ele>646.0</ele><time>2026-04-04T02:15:32Z</time></trkpt><trkpt lat="14.089145678401229" lon="120.90379584133775"><ele>646.0</ele><time>2026-04-04T02:15:33Z</time></trkpt><trkpt lat="14.0891745565604" lon="120.90367814183485"><ele>646.0</ele><time>2026-04-04T02:15:34Z</time></trkpt><trkpt lat="14.089192739800927" lon="120.9035556694989"><ele>646.0</ele><time>2026-04-04T02:15:35Z</time></trkpt><trkpt lat="14.089201684662697" lon="120.90343805744361"><ele>646.0</ele><time>2026-04-04T02:15:36Z</time></trkpt><trkpt lat="14.089205079609028" lon="120.90331238413997"><ele>645.75</ele><time>2026-04-04T02:15:37Z</time></trkpt><trkpt lat="14.08920307541368" lon="120.9031815363464"><ele>645.5</ele><time>2026-04-04T02:15:38Z</time></trkpt><trkpt lat="14.08919429434728" lon="120.9030563163393"><ele>645.25</ele><time>2026-04-04T02:15:39Z</time></trkpt><trkpt lat="14.089182936755684" lon="120.90292701702845"><ele>645.0</ele><time>2026-04-04T02:15:40Z</time></trkpt><trkpt lat="14.08917431318602" lon="120.90279941682753"><ele>645.0</ele><time>2026-04-04T02:15:41Z</time></trkpt><trkpt lat="14.089163623486018" lon="120.90266534142584"><ele>645.0</ele><time>2026-04-04T02:15:42Z</time></trkpt><trkpt lat="14.089155991798615" lon="120.90254213335385"><ele>645.0</ele><time>2026-04-04T02:15:43Z</time></trkpt><trkpt lat="14.089145081940911" lon="120.90241065493736"><ele>645.0</ele><time>2026-04-04T02:15:44Z</time></trkpt><trkpt lat="14.089134731329837" lon="120.90228229631188"><ele>645.0</ele><time>2026-04-04T02:15:45Z</time></trkpt><trkpt lat="14.089127492150126" lon="120.90216242282831"><ele>645.0</ele><time>2026-04-04T02:15:46Z</time></trkpt><trkpt lat="14.08912293936601" lon="120.90204206670533"><ele>645.0</ele><time>2026-04-04T02:15:47Z</time></trkpt><trkpt lat="14.089114247583513" lon="120.90192622557495"><ele>645.0</ele><time>2026-04-04T02:15:48Z</time></trkpt><trkpt lat="14.089109210766786" lon="120.90180623800481"><ele>643.75</ele><time>2026-04-04T02:15:49Z</time></trkpt><trkpt lat="14.089100913686705" lon="120.90168462289212"><ele>642.5</ele><time>2026-04-04T02:15:50Z</time></trkpt><trkpt lat="14.089090400188416" lon="120.90156994151884"><ele>641.25</ele><time>2026-04-04T02:15:51Z</time></trkpt><trkpt lat="14.089080265669669" lon="120.90144975239991"><ele>640.0</ele><time>2026-04-04T02:15:52Z</time></trkpt><trkpt lat="14.089073650728368" lon="120.90133604616285"><ele>635.8</ele><time>2026-04-04T02:15:53Z</time></trkpt><trkpt lat="14.089066078117904" lon="120.9012144373191"><ele>631.6</ele><time>2026-04-04T02:15:54Z</time></trkpt><trkpt lat="14.089057534554614" lon="120.9011021627701"><ele>627.4</ele><time>2026-04-04T02:15:55Z</time></trkpt><trkpt lat="14.089052549265132" lon="120.90100003172616"><ele>623.2</ele><time>2026-04-04T02:15:56Z</time></trkpt><trkpt lat="14.08904356410414" lon="120.9008905999109"><ele>619.0</ele><time>2026-04-04T02:15:57Z</time></trkpt><trkpt lat="14.089040416525417" lon="120.90078003573352"><ele>619.0</ele><time>2026-04-04T02:15:58Z</time></trkpt><trkpt lat="14.089036765486604" lon="120.90067230407642"><ele>619.0</ele><time>2026-04-04T02:15:59Z</time></trkpt><trkpt lat="14.089028616523388" lon="120.90057064223247"><ele>619.0</ele><time>2026-04-04T02:16:00Z</time></trkpt><trkpt lat="14.089019832537469" lon="120.90046542311971"><ele>619.0</ele><time>2026-04-04T02:16:01Z</time></trkpt><trkpt lat="14.08901149938513" lon="120.90036906913429"><ele>619.0</ele><time>2026-04-04T02:16:02Z</time></trkpt><trkpt lat="14.089005660586233" lon="120.90028768262594"><ele>619.0</ele><time>2026-04-04T02:16:03Z</time></trkpt><trkpt lat="14.088997229204454" lon="120.90020627340024"><ele>619.0</ele><time>2026-04-04T02:16:04Z</time></trkpt><trkpt lat="14.08899088481506" lon="120.90011765421686"><ele>619.0</ele><time>2026-04-04T02:16:05Z</time></trkpt><trkpt lat="14.088982914596537" lon="120.90002820865935"><ele>619.0</ele><time>2026-04-04T02:16:06Z</time></trkpt><trkpt lat="14.088970389617" lon="120.89993397001679"><ele>619.0</ele><time>2026-04-04T02:16:07Z</time></trkpt><trkpt lat="14.08895782686388" lon="120.89983771028547"><ele>619.0</ele><time>2026-04-04T02:16:08Z</time></trkpt><trkpt lat="14.088942801313875" lon="120.8997379436624"><ele>620.6666666666667</ele><time>2026-04-04T02:16:09Z</time></trkpt><trkpt lat="14.088925518821842" lon="120.89964716808026"><ele>622.3333333333334</ele><time>2026-04-04T02:16:10Z</time></trkpt><trkpt lat="14.088907428576608" lon="120.8995734268018"><ele>624.0</ele><time>2026-04-04T02:16:11Z</time></trkpt><trkpt lat="14.08887094071381" lon="120.89947183950113"><ele>625.6666666666666</ele><time>2026-04-04T02:16:13Z</time></trkpt><trkpt lat="14.088846669240635" lon="120.89938468176209"><ele>627.3333333333333</ele><time>2026-04-04T02:16:15Z</time></trkpt><trkpt lat="14.088813166824226" lon="120.89929625150346"><ele>629.0</ele><time>2026-04-04T02:16:17Z</time></trkpt><trkpt lat="14.088787051746982" lon="120.8992308090842"><ele>630.1666666666666</ele><time>2026-04-04T02:16:18Z</time></trkpt><trkpt lat="14.08875977791879" lon="120.8991574130587"><ele>631.3333333333333</ele><time>2026-04-04T02:16:19Z</time></trkpt><trkpt lat="14.088733133170638" lon="120.8990823053779"><ele>632.5</ele><time>2026-04-04T02:16:20Z</time></trkpt><trkpt lat="14.088705366536324" lon="120.89900194150208"><ele>633.6666666666666</ele><time>2026-04-04T02:16:21Z</time></trkpt><trkpt lat="14.088677454774588" lon="120.89891878183259"><ele>634.8333333333334</ele><time>2026-04-04T02:16:22Z</time></trkpt><trkpt lat="14.088650375573675" lon="120.8988362192114"><ele>636.0</ele><time>2026-04-04T02:16:23Z</time></trkpt><trkpt lat="14.088616763016143" lon="120.89873977754846"><ele>636.0</ele><time>2026-04-04T02:16:24Z</time></trkpt><trkpt lat="14.08857802925627" lon="120.89863687489516"><ele>636.0</ele><time>2026-04-04T02:16:25Z</time></trkpt><trkpt lat="14.088540563571053" lon="120.89853376849793"><ele>636.0</ele><time>2026-04-04T02:16:26Z</time></trkpt><trkpt lat="14.088504955190121" lon="120.89843197032509"><ele>636.0</ele><time>2026-04-04T02:16:27Z</time></trkpt><trkpt lat="14.088477503417472" lon="120.89833551365324"><ele>636.0</ele><time>2026-04-04T02:16:28Z</time></trkpt><trkpt lat="14.088446959895874" lon="120.89823811707639"><ele>636.8</ele><time>2026-04-04T02:16:29Z</time></trkpt><trkpt lat="14.088414302001116" lon="120.89813876949009"><ele>637.6</ele><time>2026-04-04T02:16:30Z</time></trkpt><trkpt lat="14.08837452849208" lon="120.89803554060909"><ele>638.4</ele><time>2026-04-04T02:16:31Z</time></trkpt><trkpt lat="14.08833484676443" lon="120.89792861228972"><ele>639.2</ele><time>2026-04-04T02:16:32Z</time></trkpt><trkpt lat="14.08830004690004" lon="120.89782555080524"><ele>640.0</ele><time>2026-04-04T02:16:33Z</time></trkpt><trkpt lat="14.08826338219148" lon="120.89772266692823"><ele>639.2</ele><time>2026-04-04T02:16:34Z</time></trkpt><trkpt lat="14.088228686970039" lon="120.89761893094716"><ele>638.4</ele><time>2026-04-04T02:16:35Z</time></trkpt><trkpt lat="14.088202305546716" lon="120.89750819745093"><ele>637.6</ele><time>2026-04-04T02:16:36Z</time></trkpt><trkpt lat="14.088187044169961" lon="120.89739183751661"><ele>636.8</ele><time>2026-04-04T02:16:37Z</time></trkpt><trkpt lat="14.088175846816766" lon="120.89728274937274"><ele>636.0</ele><time>2026-04-04T02:16:38Z</time></trkpt><trkpt lat="14.088166801716659" lon="120.89716333054967"><ele>636.0</ele><time>2026-04-04T02:16:39Z</time></trkpt><trkpt lat="14.088168154444828" lon="120.89704676068648"><ele>636.0</ele><time>2026-04-04T02:16:40Z</time></trkpt><trkpt lat="14.08817009966857" lon="120.89692180818287"><ele>636.0</ele><time>2026-04-04T02:16:41Z</time></trkpt><trkpt lat="14.088186053548364" lon="120.8968000944374"><ele>636.0</ele><time>2026-04-04T02:16:42Z</time></trkpt><trkpt lat="14.088202556019604" lon="120.89667653355143"><ele>636.75</ele><time>2026-04-04T02:16:43Z</time></trkpt><trkpt lat="14.088211918830888" lon="120.8965439703377"><ele>637.5</ele><time>2026-04-04T02:16:44Z</time></trkpt><trkpt lat="14.088226734070492" lon="120.89641594786116"><ele>638.25</ele><time>2026-04-04T02:16:45Z</time></trkpt><trkpt lat="14.088240702759464" lon="120.89629084360915"><ele>639.0</ele><time>2026-04-04T02:16:46Z</time></trkpt><trkpt lat="14.088255161997212" lon="120.89615967173077"><ele>640.0</ele><time>2026-04-04T02:16:47Z</time></trkpt><trkpt lat="14.08826991981842" lon="120.89603460390444"><ele>641.0</ele><time>2026-04-04T02:16:48Z</time></trkpt><trkpt lat="14.088281249074878" lon="120.89590531210415"><ele>642.0</ele><time>2026-04-04T02:16:49Z</time></trkpt><trkpt lat="14.08829325613266" lon="120.89578020366785"><ele>643.0</ele><time>2026-04-04T02:16:50Z</time></trkpt><trkpt lat="14.088298951776824" lon="120.89564916045113"><ele>644.0</ele><time>2026-04-04T02:16:51Z</time></trkpt><trkpt lat="14.088307888967558" lon="120.89551889830625"><ele>645.0</ele><time>2026-04-04T02:16:52Z</time></trkpt><trkpt lat="14.088310189958488" lon="120.89538733907654"><ele>646.0</ele><time>2026-04-04T02:16:53Z</time></trkpt><trkpt lat="14.08830697777042" lon="120.89525703081368"><ele>647.0</ele><time>2026-04-04T02:16:54Z</time></trkpt><trkpt lat="14.088300642737588" lon="120.89512315298437"><ele>646.75</ele><time>2026-04-04T02:16:55Z</time></trkpt><trkpt lat="14.088299248283324" lon="120.89499923331599"><ele>646.5</ele><time>2026-04-04T02:16:56Z</time></trkpt><trkpt lat="14.088286526809876" lon="120.89487472333657"><ele>646.25</ele><time>2026-04-04T02:16:57Z</time></trkpt><trkpt lat="14.088271781160579" lon="120.89474493741162"><ele>646.0</ele><time>2026-04-04T02:16:58Z</time></trkpt><trkpt lat="14.088258020111917" lon="120.89461302041583"><ele>645.5</ele><time>2026-04-04T02:16:59Z</time></trkpt><trkpt lat="14.088240958676039" lon="120.89447969260208"><ele>645.0</ele><time>2026-04-04T02:17:00Z</time></trkpt><trkpt lat="14.088215294621842" lon="120.89434435533725"><ele>644.5</ele><time>2026-04-04T02:17:01Z</time></trkpt><trkpt lat="14.088190212004793" lon="120.89421011946023"><ele>644.0</ele><time>2026-04-04T02:17:02Z</time></trkpt><trkpt lat="14.088166748612613" lon="120.89407874557556"><ele>643.75</ele><time>2026-04-04T02:17:03Z</time></trkpt><trkpt lat="14.088138275989943" lon="120.89394728606493"><ele>643.5</ele><time>2026-04-04T02:17:04Z</time></trkpt><trkpt lat="14.088114031717325" lon="120.89380949493899"><ele>643.25</ele><time>2026-04-04T02:17:05Z</time></trkpt><trkpt lat="14.088082168690036" lon="120.89368863431103"><ele>643.0</ele><time>2026-04-04T02:17:06Z</time></trkpt><trkpt lat="14.088050004420873" lon="120.89356356113595"><ele>643.0</ele><time>2026-04-04T02:17:07Z</time></trkpt><trkpt lat="14.08801443958009" lon="120.89344995511114"><ele>643.0</ele><time>2026-04-04T02:17:08Z</time></trkpt><trkpt lat="14.087969415707422" lon="120.89335295854242"><ele>643.0</ele><time>2026-04-04T02:17:09Z</time></trkpt><trkpt lat="14.087920720486524" lon="120.89323819340433"><ele>643.0</ele><time>2026-04-04T02:17:10Z</time></trkpt><trkpt lat="14.087871959925932" lon="120.8931285798802"><ele>643.25</ele><time>2026-04-04T02:17:11Z</time></trkpt><trkpt lat="14.087816962546547" lon="120.89302627093083"><ele>643.5</ele><time>2026-04-04T02:17:12Z</time></trkpt><trkpt lat="14.087766756126898" lon="120.89293290084741"><ele>643.75</ele><time>2026-04-04T02:17:13Z</time></trkpt><trkpt lat="14.087696868726903" lon="120.89283401515294"><ele>644.0</ele><time>2026-04-04T02:17:14Z</time></trkpt><trkpt lat="14.08763020201003" lon="120.89273848332788"><ele>644.0</ele><time>2026-04-04T02:17:15Z</time></trkpt><trkpt lat="14.087541022274882" lon="120.89264395153144"><ele>644.0</ele><time>2026-04-04T02:17:16Z</time></trkpt><trkpt lat="14.08746471176976" lon="120.89255148380018"><ele>644.0</ele><time>2026-04-04T02:17:17Z</time></trkpt><trkpt lat="14.087385744796675" lon="120.89245589327507"><ele>644.0</ele><time>2026-04-04T02:17:18Z</time></trkpt><trkpt lat="14.087305289404311" lon="120.89236407983073"><ele>638.5</ele><time>2026-04-04T02:17:19Z</time></trkpt><trkpt lat="14.087225069049092" lon="120.89227182304418"><ele>633.0</ele><time>2026-04-04T02:17:20Z</time></trkpt><trkpt lat="14.087152877921152" lon="120.89217859305137"><ele>627.5</ele><time>2026-04-04T02:17:21Z</time></trkpt><trkpt lat="14.08708027220896" lon="120.89208464382753"><ele>622.0</ele><time>2026-04-04T02:17:22Z</time></trkpt><trkpt lat="14.08701314921188" lon="120.89198967601172"><ele>622.0</ele><time>2026-04-04T02:17:23Z</time></trkpt><trkpt lat="14.086955508929222" lon="120.89189459170545"><ele>622.0</ele><time>2026-04-04T02:17:24Z</time></trkpt><trkpt lat="14.086902374483898" lon="120.89179966102319"><ele>622.0</ele><time>2026-04-04T02:17:25Z</time></trkpt><trkpt lat="14.086851647905991" lon="120.89170334419859"><ele>622.0</ele><time>2026-04-04T02:17:26Z</time></trkpt><trkpt lat="14.086808071131697" lon="120.89160600147115"><ele>622.0</ele><time>2026-04-04T02:17:27Z</time></trkpt><trkpt lat="14.086768237664028" lon="120.89151232362433"><ele>624.6</ele><time>2026-04-04T02:17:28Z</time></trkpt><trkpt lat="14.086720506854286" lon="120.89141359481688"><ele>627.2</ele><time>2026-04-04T02:17:29Z</time></trkpt><trkpt lat="14.086670188118468" lon="120.89131442295863"><ele>629.8</ele><time>2026-04-04T02:17:30Z</time></trkpt><trkpt lat="14.08662616619914" lon="120.89121112267256"><ele>632.4</ele><time>2026-04-04T02:17:31Z</time></trkpt><trkpt lat="14.086582432197726" lon="120.8911056889231"><ele>635.0</ele><time>2026-04-04T02:17:32Z</time></trkpt><trkpt lat="14.086535572852847" lon="120.89099517373643"><ele>633.2</ele><time>2026-04-04T02:17:33Z</time></trkpt><trkpt lat="14.086490935661383" lon="120.8908915595895"><ele>631.4</ele><time>2026-04-04T02:17:34Z</time></trkpt><trkpt lat="14.086445233814336" lon="120.89078944454381"><ele>629.6</ele><time>2026-04-04T02:17:35Z</time></trkpt><trkpt lat="14.08640535845303" lon="120.89069157518591"><ele>627.8</ele><time>2026-04-04T02:17:36Z</time></trkpt><trkpt lat="14.086359660442465" lon="120.89058805375834"><ele>626.0</ele><time>2026-04-04T02:17:37Z</time></trkpt><trkpt lat="14.08632220967698" lon="120.89048964468664"><ele>626.0</ele><time>2026-04-04T02:17:38Z</time></trkpt><trkpt lat="14.086280109835146" lon="120.89038958046356"><ele>626.0</ele><time>2026-04-04T02:17:39Z</time></trkpt><trkpt lat="14.086237309630883" lon="120.89029670821306"><ele>626.0</ele><time>2026-04-04T02:17:40Z</time></trkpt><trkpt lat="14.086197403936394" lon="120.89020776492711"><ele>626.0</ele><time>2026-04-04T02:17:41Z</time></trkpt><trkpt lat="14.086160555044502" lon="120.89012191718167"><ele>626.0</ele><time>2026-04-04T02:17:42Z</time></trkpt><trkpt lat="14.086120798911283" lon="120.89003333283821"><ele>627.8</ele><time>2026-04-04T02:17:43Z</time></trkpt><trkpt lat="14.086078667530634" lon="120.88994007979964"><ele>629.6</ele><time>2026-04-04T02:17:44Z</time></trkpt><trkpt lat="14.086041212349201" lon="120.88984914237109"><ele>631.4</ele><time>2026-04-04T02:17:45Z</time></trkpt><trkpt lat="14.086003110470422" lon="120.88974852582055"><ele>633.2</ele><time>2026-04-04T02:17:46Z</time></trkpt><trkpt lat="14.085966622573936" lon="120.88964613564322"><ele>635.0</ele><time>2026-04-04T02:17:47Z</time></trkpt><trkpt lat="14.085929301243832" lon="120.88953213922434"><ele>635.0</ele><time>2026-04-04T02:17:48Z</time></trkpt><trkpt lat="14.085895002051616" lon="120.88941313643755"><ele>635.0</ele><time>2026-04-04T02:17:49Z</time></trkpt><trkpt lat="14.085868972989324" lon="120.88927102141572"><ele>635.0</ele><time>2026-04-04T02:17:50Z</time></trkpt><trkpt lat="14.085841614696307" lon="120.8891905313892"><ele>635.0</ele><time>2026-04-04T02:17:51Z</time></trkpt><trkpt lat="14.085817979904007" lon="120.88910090320105"><ele>635.0</ele><time>2026-04-04T02:17:52Z</time></trkpt><trkpt lat="14.0858249615355" lon="120.8889518436417"><ele>637.25</ele><time>2026-04-04T02:17:53Z</time></trkpt><trkpt lat="14.085827208707476" lon="120.88883224593216"><ele>639.5</ele><time>2026-04-04T02:17:54Z</time></trkpt><trkpt lat="14.085837917247016" lon="120.88870372133825"><ele>641.75</ele><time>2026-04-04T02:17:55Z</time></trkpt><trkpt lat="14.085847242663572" lon="120.8885727140176"><ele>644.0</ele><time>2026-04-04T02:17:56Z</time></trkpt><trkpt lat="14.085853474731696" lon="120.88844340303588"><ele>643.75</ele><time>2026-04-04T02:17:57Z</time></trkpt><trkpt lat="14.08585921686875" lon="120.88831325309249"><ele>643.5</ele><time>2026-04-04T02:17:58Z</time></trkpt><trkpt lat="14.085862184245633" lon="120.88817973106984"><ele>643.25</ele><time>2026-04-04T02:17:59Z</time></trkpt><trkpt lat="14.085861504201423" lon="120.88805794892507"><ele>643.0</ele><time>2026-04-04T02:18:00Z</time></trkpt><trkpt lat="14.085860207372669" lon="120.88794405779088"><ele>643.0</ele><time>2026-04-04T02:18:01Z</time></trkpt><trkpt lat="14.085847880099939" lon="120.88783568593557"><ele>643.0</ele><time>2026-04-04T02:18:02Z</time></trkpt><trkpt lat="14.085837992376923" lon="120.88772187482661"><ele>643.0</ele><time>2026-04-04T02:18:03Z</time></trkpt><trkpt lat="14.085819860742939" lon="120.88760644315977"><ele>643.0</ele><time>2026-04-04T02:18:04Z</time></trkpt><trkpt lat="14.085782789787595" lon="120.88749382166671"><ele>643.0</ele><time>2026-04-04T02:18:05Z</time></trkpt><trkpt lat="14.085742201473142" lon="120.88738133072582"><ele>635.5</ele><time>2026-04-04T02:18:06Z</time></trkpt><trkpt lat="14.0857046307769" lon="120.88726670331663"><ele>628.0</ele><time>2026-04-04T02:18:07Z</time></trkpt><trkpt lat="14.085664075948639" lon="120.8871518024319"><ele>620.5</ele><time>2026-04-04T02:18:08Z</time></trkpt><trkpt lat="14.085624393424252" lon="120.8870428830704"><ele>613.0</ele><time>2026-04-04T02:18:09Z</time></trkpt><trkpt lat="14.08558566221329" lon="120.88693601141955"><ele>613.0</ele><time>2026-04-04T02:18:10Z</time></trkpt><trkpt lat="14.085548310082576" lon="120.8868304498865"><ele>613.0</ele><time>2026-04-04T02:18:11Z</time></trkpt><trkpt lat="14.08551338853806" lon="120.88673299344508"><ele>613.0</ele><time>2026-04-04T02:18:12Z</time></trkpt><trkpt lat="14.08547906882275" lon="120.88663924738401"><ele>613.0</ele><time>2026-04-04T02:18:13Z</time></trkpt><trkpt lat="14.085443208977457" lon="120.88654803081222"><ele>613.0</ele><time>2026-04-04T02:18:14Z</time></trkpt><trkpt lat="14.085425454094334" lon="120.88646272254805"><ele>614.6666666666667</ele><time>2026-04-04T02:18:15Z</time></trkpt><trkpt lat="14.085384653827036" lon="120.88638150063954"><ele>616.3333333333334</ele><time>2026-04-04T02:18:16Z</time></trkpt><trkpt lat="14.085351932688665" lon="120.88630007093495"><ele>618.0</ele><time>2026-04-04T02:18:17Z</time></trkpt><trkpt lat="14.085324128174442" lon="120.8862220087602"><ele>619.6666666666666</ele><time>2026-04-04T02:18:18Z</time></trkpt><trkpt lat="14.085296755932985" lon="120.88615302329463"><ele>621.3333333333333</ele><time>2026-04-04T02:18:19Z</time></trkpt><trkpt lat="14.085283396283215" lon="120.88608941816275"><ele>623.0</ele><time>2026-04-04T02:18:20Z</time></trkpt><trkpt lat="14.085254222334624" lon="120.88602225602338"><ele>625.0</ele><time>2026-04-04T02:18:21Z</time></trkpt><trkpt lat="14.085200364164129" lon="120.88589575988075"><ele>627.0</ele><time>2026-04-04T02:18:23Z</time></trkpt><trkpt lat="14.085178168607898" lon="120.88582851246706"><ele>629.0</ele><time>2026-04-04T02:18:24Z</time></trkpt><trkpt lat="14.085150087573453" lon="120.88575133969006"><ele>631.0</ele><time>2026-04-04T02:18:25Z</time></trkpt><trkpt lat="14.085121185883338" lon="120.88567246962717"><ele>633.0</ele><time>2026-04-04T02:18:26Z</time></trkpt><trkpt lat="14.085086690821425" lon="120.88558313111237"><ele>633.0</ele><time>2026-04-04T02:18:27Z</time></trkpt><trkpt lat="14.08505418637779" lon="120.88549535552829"><ele>633.0</ele><time>2026-04-04T02:18:28Z</time></trkpt><trkpt lat="14.085024059732499" lon="120.88540939575901"><ele>633.0</ele><time>2026-04-04T02:18:29Z</time></trkpt><trkpt lat="14.084988126503648" lon="120.88531062445013"><ele>633.0</ele><time>2026-04-04T02:18:30Z</time></trkpt><trkpt lat="14.084955977348299" lon="120.88521800421024"><ele>633.0</ele><time>2026-04-04T02:18:31Z</time></trkpt><trkpt lat="14.084922776440685" lon="120.88511844261497"><ele>629.4</ele><time>2026-04-04T02:18:32Z</time></trkpt><trkpt lat="14.084886386854981" lon="120.88502364085376"><ele>625.8</ele><time>2026-04-04T02:18:33Z</time></trkpt><trkpt lat="14.084847049634567" lon="120.88493568648884"><ele>622.2</ele><time>2026-04-04T02:18:34Z</time></trkpt><trkpt lat="14.08481303864522" lon="120.88484231517218"><ele>618.6</ele><time>2026-04-04T02:18:35Z</time></trkpt><trkpt lat="14.084783591525524" lon="120.88476085179504"><ele>615.0</ele><time>2026-04-04T02:18:36Z</time></trkpt><trkpt lat="14.084766661387905" lon="120.88468455032579"><ele>615.0</ele><time>2026-04-04T02:18:37Z</time></trkpt><trkpt lat="14.084735416890247" lon="120.88461275999711"><ele>615.0</ele><time>2026-04-04T02:18:38Z</time></trkpt><trkpt lat="14.084697608518157" lon="120.88448545950963"><ele>615.0</ele><time>2026-04-04T02:18:40Z</time></trkpt><trkpt lat="14.084661964578125" lon="120.88442550331182"><ele>615.0</ele><time>2026-04-04T02:18:41Z</time></trkpt><trkpt lat="14.084638399180065" lon="120.88434885537039"><ele>615.0</ele><time>2026-04-04T02:18:42Z</time></trkpt><trkpt lat="14.084610410843482" lon="120.88427077573124"><ele>615.0</ele><time>2026-04-04T02:18:43Z</time></trkpt><trkpt lat="14.08459649545152" lon="120.88420087290173"><ele>617.5</ele><time>2026-04-04T02:18:44Z</time></trkpt><trkpt lat="14.084555383656886" lon="120.88407998066634"><ele>620.0</ele><time>2026-04-04T02:18:46Z</time></trkpt><trkpt lat="14.08453985018841" lon="120.88401456793873"><ele>622.5</ele><time>2026-04-04T02:18:47Z</time></trkpt><trkpt lat="14.084517993106802" lon="120.8839395802854"><ele>625.0</ele><time>2026-04-04T02:18:48Z</time></trkpt><trkpt lat="14.084509187008369" lon="120.88387446150313"><ele>627.5</ele><time>2026-04-04T02:18:49Z</time></trkpt><trkpt lat="14.084483870102448" lon="120.88376556166595"><ele>630.0</ele><time>2026-04-04T02:18:51Z</time></trkpt><trkpt lat="14.084463710985961" lon="120.88369038074562"><ele>630.0</ele><time>2026-04-04T02:18:53Z</time></trkpt><trkpt lat="14.084427756083397" lon="120.88360499312374"><ele>630.0</ele><time>2026-04-04T02:18:57Z</time></trkpt><trkpt lat="14.084413515766453" lon="120.88353471339644"><ele>630.0</ele><time>2026-04-04T02:19:01Z</time></trkpt><trkpt lat="14.084398728449967" lon="120.88344924467512"><ele>630.0</ele><time>2026-04-04T02:19:04Z</time></trkpt><trkpt lat="14.08438477412831" lon="120.88335070745076"><ele>630.0</ele><time>2026-04-04T02:19:06Z</time></trkpt><trkpt lat="14.084378367523906" lon="120.88323483685608"><ele>631.6</ele><time>2026-04-04T02:19:08Z</time></trkpt><trkpt lat="14.084367657732761" lon="120.88314082596419"><ele>633.2</ele><time>2026-04-04T02:19:10Z</time></trkpt><trkpt lat="14.084338662413705" lon="120.88303360555794"><ele>634.8</ele><time>2026-04-04T02:19:12Z</time></trkpt><trkpt lat="14.084306810905222" lon="120.8829527063628"><ele>636.4</ele><time>2026-04-04T02:19:14Z</time></trkpt><trkpt lat="14.084336331087075" lon="120.88280286369734"><ele>638.0</ele><time>2026-04-04T02:19:15Z</time></trkpt><trkpt lat="14.084328860765444" lon="120.88272264975242"><ele>638.0</ele><time>2026-04-04T02:19:16Z</time></trkpt><trkpt lat="14.084319458706878" lon="120.88263947269415"><ele>638.0</ele><time>2026-04-04T02:19:17Z</time></trkpt><trkpt lat="14.084309929628327" lon="120.8825668889469"><ele>638.0</ele><time>2026-04-04T02:19:18Z</time></trkpt><trkpt lat="14.084306910285784" lon="120.88248528258667"><ele>638.0</ele><time>2026-04-04T02:19:19Z</time></trkpt><trkpt lat="14.084303846852059" lon="120.88240501864821"><ele>638.0</ele><time>2026-04-04T02:19:20Z</time></trkpt><trkpt lat="14.084300808359844" lon="120.88233119039283"><ele>638.0</ele><time>2026-04-04T02:19:21Z</time></trkpt><trkpt lat="14.08429451829282" lon="120.8822106843956"><ele>636.8</ele><time>2026-04-04T02:19:23Z</time></trkpt><trkpt lat="14.084283977432941" lon="120.88212988522314"><ele>635.5999999999999</ele><time>2026-04-04T02:19:32Z</time></trkpt><trkpt lat="14.084268085093209" lon="120.88202291422812"><ele>634.4000000000001</ele><time>2026-04-04T02:19:34Z</time></trkpt><trkpt lat="14.084258542025257" lon="120.88195806327576"><ele>633.2</ele><time>2026-04-04T02:19:35Z</time></trkpt><trkpt lat="14.084245249347411" lon="120.88181538756083"><ele>632.0</ele><time>2026-04-04T02:19:37Z</time></trkpt><trkpt lat="14.084233775320728" lon="120.88168685340416"><ele>630.7142857142858</ele><time>2026-04-04T02:19:39Z</time></trkpt><trkpt lat="14.084229424143794" lon="120.88162030475667"><ele>629.4285714285714</ele><time>2026-04-04T02:19:40Z</time></trkpt><trkpt lat="14.084220881354385" lon="120.88153885740458"><ele>628.1428571428571</ele><time>2026-04-04T02:19:41Z</time></trkpt><trkpt lat="14.084212224421625" lon="120.88147285424931"><ele>626.8571428571429</ele><time>2026-04-04T02:19:42Z</time></trkpt><trkpt lat="14.084200864724977" lon="120.88140118217615"><ele>625.5714285714286</ele><time>2026-04-04T02:19:43Z</time></trkpt><trkpt lat="14.084191507989376" lon="120.88132134042209"><ele>624.2857142857143</ele><time>2026-04-04T02:19:44Z</time></trkpt><trkpt lat="14.084181746659267" lon="120.88122892439874"><ele>623.0</ele><time>2026-04-04T02:19:45Z</time></trkpt><trkpt lat="14.084169169121497" lon="120.88113345260817"><ele>623.0</ele><time>2026-04-04T02:19:46Z</time></trkpt><trkpt lat="14.084166110572571" lon="120.88104758234962"><ele>623.0</ele><time>2026-04-04T02:19:47Z</time></trkpt><trkpt lat="14.08414800312423" lon="120.88096296561228"><ele>623.0</ele><time>2026-04-04T02:19:48Z</time></trkpt><trkpt lat="14.084140068212468" lon="120.88088200249014"><ele>623.0</ele><time>2026-04-04T02:19:49Z</time></trkpt><trkpt lat="14.084129248996046" lon="120.88079703838766"><ele>623.0</ele><time>2026-04-04T02:19:50Z</time></trkpt><trkpt lat="14.084126803391667" lon="120.8807174546089"><ele>623.0</ele><time>2026-04-04T02:19:51Z</time></trkpt><trkpt lat="14.084121141135196" lon="120.88063543164183"><ele>622.0</ele><time>2026-04-04T02:19:52Z</time></trkpt><trkpt lat="14.084114728687247" lon="120.8805519557089"><ele>621.0</ele><time>2026-04-04T02:19:53Z</time></trkpt><trkpt lat="14.08410700327649" lon="120.880474827108"><ele>620.0</ele><time>2026-04-04T02:19:54Z</time></trkpt><trkpt lat="14.08409976115983" lon="120.88039637421302"><ele>619.0</ele><time>2026-04-04T02:19:55Z</time></trkpt><trkpt lat="14.08409272017935" lon="120.88030748444996"><ele>618.0</ele><time>2026-04-04T02:19:56Z</time></trkpt><trkpt lat="14.084082062873991" lon="120.88021523616743"><ele>617.0</ele><time>2026-04-04T02:19:57Z</time></trkpt><trkpt lat="14.084077613647974" lon="120.88011579618839"><ele>611.6</ele><time>2026-04-04T02:19:58Z</time></trkpt><trkpt lat="14.08406946384174" lon="120.88000993790479"><ele>606.2</ele><time>2026-04-04T02:19:59Z</time></trkpt><trkpt lat="14.08406296595297" lon="120.87990164679606"><ele>600.8</ele><time>2026-04-04T02:20:00Z</time></trkpt><trkpt lat="14.084045724702554" lon="120.87978700384686"><ele>595.4</ele><time>2026-04-04T02:20:01Z</time></trkpt><trkpt lat="14.084024997649237" lon="120.87966179109866"><ele>590.0</ele><time>2026-04-04T02:20:02Z</time></trkpt><trkpt lat="14.08401974554305" lon="120.87954422688654"><ele>590.0</ele><time>2026-04-04T02:20:03Z</time></trkpt><trkpt lat="14.08401029532394" lon="120.87942136530194"><ele>590.0</ele><time>2026-04-04T02:20:04Z</time></trkpt><trkpt lat="14.084005714361924" lon="120.87930187235371"><ele>590.0</ele><time>2026-04-04T02:20:05Z</time></trkpt><trkpt lat="14.08399038861533" lon="120.87916735679048"><ele>590.0</ele><time>2026-04-04T02:20:06Z</time></trkpt><trkpt lat="14.08397327880841" lon="120.87904118476082"><ele>590.5</ele><time>2026-04-04T02:20:07Z</time></trkpt><trkpt lat="14.083963898090511" lon="120.8789082920217"><ele>591.0</ele><time>2026-04-04T02:20:08Z</time></trkpt><trkpt lat="14.08394519969079" lon="120.87876709683908"><ele>591.5</ele><time>2026-04-04T02:20:09Z</time></trkpt><trkpt lat="14.083961340758458" lon="120.87863085818321"><ele>592.0</ele><time>2026-04-04T02:20:10Z</time></trkpt><trkpt lat="14.08394485531292" lon="120.878492686505"><ele>595.0</ele><time>2026-04-04T02:20:11Z</time></trkpt><trkpt lat="14.083929401113249" lon="120.87836315846398"><ele>598.0</ele><time>2026-04-04T02:20:12Z</time></trkpt><trkpt lat="14.083902692141773" lon="120.87822602515013"><ele>601.0</ele><time>2026-04-04T02:20:13Z</time></trkpt><trkpt lat="14.083872478792028" lon="120.87808835303532"><ele>604.0</ele><time>2026-04-04T02:20:14Z</time></trkpt><trkpt lat="14.08383202573839" lon="120.87795297099491"><ele>604.0</ele><time>2026-04-04T02:20:15Z</time></trkpt><trkpt lat="14.083778899593344" lon="120.87781672676445"><ele>604.0</ele><time>2026-04-04T02:20:16Z</time></trkpt><trkpt lat="14.083727082890489" lon="120.87769119362642"><ele>604.0</ele><time>2026-04-04T02:20:17Z</time></trkpt><trkpt lat="14.08366739964653" lon="120.87756319388058"><ele>604.0</ele><time>2026-04-04T02:20:18Z</time></trkpt><trkpt lat="14.083615623727786" lon="120.87745281578525"><ele>607.0</ele><time>2026-04-04T02:20:19Z</time></trkpt><trkpt lat="14.083561841297353" lon="120.87733969978018"><ele>610.0</ele><time>2026-04-04T02:20:20Z</time></trkpt><trkpt lat="14.083507151655539" lon="120.87722426325014"><ele>613.0</ele><time>2026-04-04T02:20:21Z</time></trkpt><trkpt lat="14.08345055140026" lon="120.87710443040339"><ele>616.0</ele><time>2026-04-04T02:20:22Z</time></trkpt><trkpt lat="14.083395818576822" lon="120.87698909659075"><ele>616.0</ele><time>2026-04-04T02:20:23Z</time></trkpt><trkpt lat="14.083338418278576" lon="120.87686814196357"><ele>616.0</ele><time>2026-04-04T02:20:24Z</time></trkpt><trkpt lat="14.08328428850025" lon="120.87675397790157"><ele>616.0</ele><time>2026-04-04T02:20:25Z</time></trkpt><trkpt lat="14.083228477290522" lon="120.87663490874313"><ele>616.0</ele><time>2026-04-04T02:20:26Z</time></trkpt><trkpt lat="14.083168000170486" lon="120.87651704899402"><ele>614.75</ele><time>2026-04-04T02:20:27Z</time></trkpt><trkpt lat="14.08311583502981" lon="120.87639427768849"><ele>613.5</ele><time>2026-04-04T02:20:28Z</time></trkpt><trkpt lat="14.083065258927567" lon="120.87627462471461"><ele>612.25</ele><time>2026-04-04T02:20:29Z</time></trkpt><trkpt lat="14.082996934433611" lon="120.87613539096473"><ele>611.0</ele><time>2026-04-04T02:20:30Z</time></trkpt><trkpt lat="14.082935392871494" lon="120.8760098545842"><ele>612.75</ele><time>2026-04-04T02:20:31Z</time></trkpt><trkpt lat="14.082874682571502" lon="120.8758860138784"><ele>614.5</ele><time>2026-04-04T02:20:32Z</time></trkpt><trkpt lat="14.082809989948942" lon="120.87575465185363"><ele>616.25</ele><time>2026-04-04T02:20:33Z</time></trkpt><trkpt lat="14.082746576669738" lon="120.87562633951313"><ele>618.0</ele><time>2026-04-04T02:20:34Z</time></trkpt><trkpt lat="14.082682483166915" lon="120.87549799630783"><ele>618.0</ele><time>2026-04-04T02:20:35Z</time></trkpt><trkpt lat="14.082627095641545" lon="120.87537472365933"><ele>618.0</ele><time>2026-04-04T02:20:36Z</time></trkpt><trkpt lat="14.082569674322622" lon="120.87524981794157"><ele>618.0</ele><time>2026-04-04T02:20:37Z</time></trkpt><trkpt lat="14.082517225936023" lon="120.87513265309812"><ele>618.0</ele><time>2026-04-04T02:20:38Z</time></trkpt><trkpt lat="14.082456351999278" lon="120.87502559344532"><ele>616.5</ele><time>2026-04-04T02:20:39Z</time></trkpt><trkpt lat="14.08238900021113" lon="120.87492738139782"><ele>615.0</ele><time>2026-04-04T02:20:40Z</time></trkpt><trkpt lat="14.082315508256006" lon="120.87482974180993"><ele>613.5</ele><time>2026-04-04T02:20:41Z</time></trkpt><trkpt lat="14.082230187103264" lon="120.87473633143387"><ele>612.0</ele><time>2026-04-04T02:20:42Z</time></trkpt><trkpt lat="14.082147011084555" lon="120.87464839478284"><ele>612.0</ele><time>2026-04-04T02:20:43Z</time></trkpt><trkpt lat="14.082063634558146" lon="120.87456173275196"><ele>612.0</ele><time>2026-04-04T02:20:44Z</time></trkpt><trkpt lat="14.081972192884237" lon="120.87447275981278"><ele>612.0</ele><time>2026-04-04T02:20:45Z</time></trkpt><trkpt lat="14.081883039050187" lon="120.87438643132762"><ele>612.0</ele><time>2026-04-04T02:20:46Z</time></trkpt><trkpt lat="14.081776854723442" lon="120.87429091649786"><ele>612.75</ele><time>2026-04-04T02:20:47Z</time></trkpt><trkpt lat="14.081677229690333" lon="120.87419850036619"><ele>613.5</ele><time>2026-04-04T02:20:48Z</time></trkpt><trkpt lat="14.081578951340294" lon="120.87410642139803"><ele>614.25</ele><time>2026-04-04T02:20:49Z</time></trkpt><trkpt lat="14.081482900343854" lon="120.87401712758496"><ele>615.0</ele><time>2026-04-04T02:20:50Z</time></trkpt><trkpt lat="14.08139035605356" lon="120.87390622583477"><ele>615.0</ele><time>2026-04-04T02:20:51Z</time></trkpt><trkpt lat="14.081301233636601" lon="120.87381249080791"><ele>615.0</ele><time>2026-04-04T02:20:52Z</time></trkpt><trkpt lat="14.081203914339644" lon="120.87370732923078"><ele>615.0</ele><time>2026-04-04T02:20:53Z</time></trkpt><trkpt lat="14.081113329837953" lon="120.87359362681438"><ele>615.0</ele><time>2026-04-04T02:20:54Z</time></trkpt><trkpt lat="14.081024073862528" lon="120.87348046839588"><ele>616.5</ele><time>2026-04-04T02:20:55Z</time></trkpt><trkpt lat="14.080939262062596" lon="120.87337280731633"><ele>618.0</ele><time>2026-04-04T02:20:56Z</time></trkpt><trkpt lat="14.08087354870827" lon="120.8732773676406"><ele>619.5</ele><time>2026-04-04T02:20:57Z</time></trkpt><trkpt lat="14.080796567602077" lon="120.87316442791136"><ele>621.0</ele><time>2026-04-04T02:20:58Z</time></trkpt><trkpt lat="14.080731223525282" lon="120.87306980851697"><ele>618.6</ele><time>2026-04-04T02:20:59Z</time></trkpt><trkpt lat="14.08067458353523" lon="120.87298667280533"><ele>616.2</ele><time>2026-04-04T02:21:00Z</time></trkpt><trkpt lat="14.080618039407367" lon="120.87290258929895"><ele>613.8</ele><time>2026-04-04T02:21:01Z</time></trkpt><trkpt lat="14.080561432533148" lon="120.87281240827558"><ele>611.4</ele><time>2026-04-04T02:21:02Z</time></trkpt><trkpt lat="14.08050056297436" lon="120.87271779088462"><ele>609.0</ele><time>2026-04-04T02:21:03Z</time></trkpt><trkpt lat="14.080439966978375" lon="120.87262437205966"><ele>612.5</ele><time>2026-04-04T02:21:04Z</time></trkpt><trkpt lat="14.080377979083256" lon="120.87252981941371"><ele>616.0</ele><time>2026-04-04T02:21:05Z</time></trkpt><trkpt lat="14.080313497803054" lon="120.87243336111864"><ele>619.5</ele><time>2026-04-04T02:21:06Z</time></trkpt><trkpt lat="14.080249018893412" lon="120.87233744864034"><ele>623.0</ele><time>2026-04-04T02:21:07Z</time></trkpt><trkpt lat="14.080183737805994" lon="120.87224031089131"><ele>623.0</ele><time>2026-04-04T02:21:08Z</time></trkpt><trkpt lat="14.080116072841967" lon="120.87213962595246"><ele>623.0</ele><time>2026-04-04T02:21:09Z</time></trkpt><trkpt lat="14.080041824630033" lon="120.87202895595135"><ele>623.0</ele><time>2026-04-04T02:21:10Z</time></trkpt><trkpt lat="14.079962176016597" lon="120.87191204478582"><ele>623.0</ele><time>2026-04-04T02:21:11Z</time></trkpt><trkpt lat="14.079879437971375" lon="120.87179266020452"><ele>623.25</ele><time>2026-04-04T02:21:12Z</time></trkpt><trkpt lat="14.079791606542376" lon="120.87166644906121"><ele>623.5</ele><time>2026-04-04T02:21:13Z</time></trkpt><trkpt lat="14.07970051941764" lon="120.87153655854829"><ele>623.75</ele><time>2026-04-04T02:21:14Z</time></trkpt><trkpt lat="14.079617758408656" lon="120.8714194885829"><ele>624.0</ele><time>2026-04-04T02:21:15Z</time></trkpt><trkpt lat="14.079535907563516" lon="120.87130947409763"><ele>624.0</ele><time>2026-04-04T02:21:16Z</time></trkpt><trkpt lat="14.079453130137244" lon="120.8711994460467"><ele>624.0</ele><time>2026-04-04T02:21:17Z</time></trkpt><trkpt lat="14.079374319960666" lon="120.87109465261318"><ele>624.0</ele><time>2026-04-04T02:21:18Z</time></trkpt><trkpt lat="14.079292750139274" lon="120.87098618965383"><ele>624.0</ele><time>2026-04-04T02:21:19Z</time></trkpt><trkpt lat="14.079201132693706" lon="120.87087163987272"><ele>623.3333333333334</ele><time>2026-04-04T02:21:20Z</time></trkpt><trkpt lat="14.079101516240343" lon="120.87074820821765"><ele>622.6666666666667</ele><time>2026-04-04T02:21:21Z</time></trkpt><trkpt lat="14.079001755884875" lon="120.87063223759185"><ele>622.0</ele><time>2026-04-04T02:21:22Z</time></trkpt><trkpt lat="14.078899542295552" lon="120.87051373372174"><ele>614.3333333333334</ele><time>2026-04-04T02:21:23Z</time></trkpt><trkpt lat="14.078790051879247" lon="120.87040404726964"><ele>606.6666666666666</ele><time>2026-04-04T02:21:24Z</time></trkpt><trkpt lat="14.078680480757633" lon="120.87028677571568"><ele>599.0</ele><time>2026-04-04T02:21:25Z</time></trkpt><trkpt lat="14.07856884146848" lon="120.87017134203866"><ele>597.6666666666666</ele><time>2026-04-04T02:21:26Z</time></trkpt><trkpt lat="14.078447677061563" lon="120.8700577252548"><ele>596.3333333333334</ele><time>2026-04-04T02:21:27Z</time></trkpt><trkpt lat="14.078327601161696" lon="120.86994791343164"><ele>595.0</ele><time>2026-04-04T02:21:28Z</time></trkpt><trkpt lat="14.078213022387075" lon="120.86984744911294"><ele>595.0</ele><time>2026-04-04T02:21:29Z</time></trkpt><trkpt lat="14.078107845449372" lon="120.86975546015165"><ele>595.0</ele><time>2026-04-04T02:21:30Z</time></trkpt><trkpt lat="14.078005509820574" lon="120.86966568226376"><ele>595.0</ele><time>2026-04-04T02:21:31Z</time></trkpt><trkpt lat="14.077905082833478" lon="120.86957798361945"><ele>595.0</ele><time>2026-04-04T02:21:32Z</time></trkpt><trkpt lat="14.077801623708538" lon="120.86948588570164"><ele>595.0</ele><time>2026-04-04T02:21:33Z</time></trkpt><trkpt lat="14.077701425846533" lon="120.86939651253714"><ele>595.0</ele><time>2026-04-04T02:21:34Z</time></trkpt><trkpt lat="14.077614176748892" lon="120.86931150700721"><ele>595.0</ele><time>2026-04-04T02:21:35Z</time></trkpt><trkpt lat="14.077538376079996" lon="120.86922773960302"><ele>595.0</ele><time>2026-04-04T02:21:36Z</time></trkpt><trkpt lat="14.07747811344349" lon="120.86914656274892"><ele>594.4</ele><time>2026-04-04T02:21:37Z</time></trkpt><trkpt lat="14.077413173979588" lon="120.8690515686316"><ele>593.8</ele><time>2026-04-04T02:21:38Z</time></trkpt><trkpt lat="14.077364881298331" lon="120.8689607035031"><ele>593.2</ele><time>2026-04-04T02:21:39Z</time></trkpt><trkpt lat="14.07732998863649" lon="120.86887289549718"><ele>592.6</ele><time>2026-04-04T02:21:40Z</time></trkpt><trkpt lat="14.077292664022194" lon="120.86876315847114"><ele>592.0</ele><time>2026-04-04T02:21:41Z</time></trkpt><trkpt lat="14.077267790752133" lon="120.868657528912"><ele>592.0</ele><time>2026-04-04T02:21:42Z</time></trkpt><trkpt lat="14.07724710335176" lon="120.86853741648571"><ele>592.0</ele><time>2026-04-04T02:21:43Z</time></trkpt><trkpt lat="14.07722747115942" lon="120.86841276965552"><ele>592.0</ele><time>2026-04-04T02:21:44Z</time></trkpt><trkpt lat="14.07722298688141" lon="120.86829217675495"><ele>592.0</ele><time>2026-04-04T02:21:45Z</time></trkpt><trkpt lat="14.07722087257834" lon="120.86816581622442"><ele>594.2</ele><time>2026-04-04T02:21:46Z</time></trkpt><trkpt lat="14.077214592109998" lon="120.86804368907887"><ele>596.4000000000001</ele><time>2026-04-04T02:21:47Z</time></trkpt><trkpt lat="14.077209633150385" lon="120.86793725562411"><ele>598.5999999999999</ele><time>2026-04-04T02:21:48Z</time></trkpt><trkpt lat="14.077205622027382" lon="120.86785245639089"><ele>600.8</ele><time>2026-04-04T02:21:49Z</time></trkpt><trkpt lat="14.077202412860977" lon="120.86778461196542"><ele>603.0</ele><time>2026-04-04T02:21:50Z</time></trkpt><trkpt lat="14.077191394696193" lon="120.86768105195358"><ele>602.6666666666666</ele><time>2026-04-04T02:21:54Z</time></trkpt><trkpt lat="14.07718351142687" lon="120.8676082728772"><ele>602.3333333333334</ele><time>2026-04-04T02:21:55Z</time></trkpt><trkpt lat="14.077170295711948" lon="120.86752866451107"><ele>602.0</ele><time>2026-04-04T02:21:56Z</time></trkpt><trkpt lat="14.077152380455418" lon="120.86744750203661"><ele>601.6666666666667</ele><time>2026-04-04T02:21:57Z</time></trkpt><trkpt lat="14.07713428459433" lon="120.86736520413903"><ele>601.3333333333334</ele><time>2026-04-04T02:21:58Z</time></trkpt><trkpt lat="14.077106720012527" lon="120.86725788688622"><ele>601.0</ele><time>2026-04-04T02:21:59Z</time></trkpt><trkpt lat="14.077077432810057" lon="120.86714907366219"><ele>601.0</ele><time>2026-04-04T02:22:00Z</time></trkpt><trkpt lat="14.07704450520953" lon="120.8670387277776"><ele>601.0</ele><time>2026-04-04T02:22:01Z</time></trkpt><trkpt lat="14.077013946697463" lon="120.86693614662036"><ele>601.0</ele><time>2026-04-04T02:22:02Z</time></trkpt><trkpt lat="14.076979250665152" lon="120.86682279970657"><ele>601.0</ele><time>2026-04-04T02:22:03Z</time></trkpt><trkpt lat="14.076943559098117" lon="120.86671036990244"><ele>601.0</ele><time>2026-04-04T02:22:04Z</time></trkpt><trkpt lat="14.076912496893378" lon="120.86661707975824"><ele>602.1666666666667</ele><time>2026-04-04T02:22:05Z</time></trkpt><trkpt lat="14.076877259479838" lon="120.86651372958798"><ele>603.3333333333334</ele><time>2026-04-04T02:22:06Z</time></trkpt><trkpt lat="14.076849497306505" lon="120.86643230403628"><ele>604.5</ele><time>2026-04-04T02:22:07Z</time></trkpt><trkpt lat="14.076821200170397" lon="120.8663486727015"><ele>605.6666666666666</ele><time>2026-04-04T02:22:08Z</time></trkpt><trkpt lat="14.076792042007176" lon="120.8662614017098"><ele>606.8333333333333</ele><time>2026-04-04T02:22:09Z</time></trkpt><trkpt lat="14.076767470965347" lon="120.86618859365004"><ele>608.0</ele><time>2026-04-04T02:22:10Z</time></trkpt><trkpt lat="14.07674302290485" lon="120.86611769778376"><ele>608.0</ele><time>2026-04-04T02:22:11Z</time></trkpt><trkpt lat="14.076717629210162" lon="120.86604405976712"><ele>608.0</ele><time>2026-04-04T02:22:12Z</time></trkpt><trkpt lat="14.076696346040332" lon="120.86598234176455"><ele>608.0</ele><time>2026-04-04T02:22:13Z</time></trkpt><trkpt lat="14.0766667620012" lon="120.86589258304774"><ele>608.0</ele><time>2026-04-04T02:22:14Z</time></trkpt><trkpt lat="14.076638205671616" lon="120.86580641704546"><ele>608.0</ele><time>2026-04-04T02:22:15Z</time></trkpt><trkpt lat="14.076606195409148" lon="120.86570988116394"><ele>608.0</ele><time>2026-04-04T02:22:16Z</time></trkpt><trkpt lat="14.076572833915803" lon="120.8656082430727"><ele>605.25</ele><time>2026-04-04T02:22:17Z</time></trkpt><trkpt lat="14.076534685877867" lon="120.86549111983365"><ele>602.5</ele><time>2026-04-04T02:22:18Z</time></trkpt><trkpt lat="14.076495181833353" lon="120.86537167293446"><ele>599.75</ele><time>2026-04-04T02:22:19Z</time></trkpt><trkpt lat="14.076456295986395" lon="120.86525251608322"><ele>597.0</ele><time>2026-04-04T02:22:20Z</time></trkpt><trkpt lat="14.07641605929296" lon="120.86513021653357"><ele>597.5</ele><time>2026-04-04T02:22:21Z</time></trkpt><trkpt lat="14.076376655721395" lon="120.86500325558244"><ele>598.0</ele><time>2026-04-04T02:22:22Z</time></trkpt><trkpt lat="14.076336406593464" lon="120.8648737131853"><ele>598.5</ele><time>2026-04-04T02:22:23Z</time></trkpt><trkpt lat="14.076295627322684" lon="120.86474282560135"><ele>599.0</ele><time>2026-04-04T02:22:24Z</time></trkpt><trkpt lat="14.076253855570712" lon="120.8646086270026"><ele>599.0</ele><time>2026-04-04T02:22:25Z</time></trkpt><trkpt lat="14.07621402403455" lon="120.86447910707393"><ele>599.0</ele><time>2026-04-04T02:22:26Z</time></trkpt><trkpt lat="14.0761729550466" lon="120.86434426939051"><ele>599.0</ele><time>2026-04-04T02:22:27Z</time></trkpt><trkpt lat="14.076135403408413" lon="120.8642196750486"><ele>599.0</ele><time>2026-04-04T02:22:28Z</time></trkpt><trkpt lat="14.07609431975975" lon="120.86408221807427"><ele>600.5</ele><time>2026-04-04T02:22:29Z</time></trkpt><trkpt lat="14.07605511265637" lon="120.86395227637374"><ele>602.0</ele><time>2026-04-04T02:22:30Z</time></trkpt><trkpt lat="14.076021492343743" lon="120.86384093041546"><ele>603.5</ele><time>2026-04-04T02:22:31Z</time></trkpt><trkpt lat="14.075993350401296" lon="120.86374775732875"><ele>605.0</ele><time>2026-04-04T02:22:32Z</time></trkpt><trkpt lat="14.075946776487834" lon="120.86359354055152"><ele>605.0</ele><time>2026-04-04T02:22:33Z</time></trkpt><trkpt lat="14.075910086323784" lon="120.8634690316044"><ele>605.0</ele><time>2026-04-04T02:22:34Z</time></trkpt><trkpt lat="14.07587829032585" lon="120.86334813065072"><ele>605.0</ele><time>2026-04-04T02:22:35Z</time></trkpt><trkpt lat="14.075847795848329" lon="120.86323217861192"><ele>605.0</ele><time>2026-04-04T02:22:36Z</time></trkpt><trkpt lat="14.075819047211743" lon="120.86312286491304"><ele>605.4</ele><time>2026-04-04T02:22:37Z</time></trkpt><trkpt lat="14.075790155558709" lon="120.8630130081684"><ele>605.8</ele><time>2026-04-04T02:22:38Z</time></trkpt><trkpt lat="14.075748890859924" lon="120.86290874157355"><ele>606.2</ele><time>2026-04-04T02:22:39Z</time></trkpt><trkpt lat="14.075704912080479" lon="120.86279944543662"><ele>606.6</ele><time>2026-04-04T02:22:40Z</time></trkpt><trkpt lat="14.075660902293608" lon="120.86269577649763"><ele>607.0</ele><time>2026-04-04T02:22:41Z</time></trkpt><trkpt lat="14.075612086319152" lon="120.86259909438137"><ele>607.0</ele><time>2026-04-04T02:22:42Z</time></trkpt><trkpt lat="14.075560930737968" lon="120.86251203185083"><ele>607.0</ele><time>2026-04-04T02:22:43Z</time></trkpt><trkpt lat="14.07550321187437" lon="120.86242617099424"><ele>607.0</ele><time>2026-04-04T02:22:44Z</time></trkpt><trkpt lat="14.075433232374643" lon="120.86234219447532"><ele>607.0</ele><time>2026-04-04T02:22:45Z</time></trkpt><trkpt lat="14.075363733624156" lon="120.86226676602327"><ele>607.0</ele><time>2026-04-04T02:22:46Z</time></trkpt><trkpt lat="14.075282704274695" lon="120.86218960453739"><ele>607.0</ele><time>2026-04-04T02:22:47Z</time></trkpt><trkpt lat="14.075203604984" lon="120.86212135412326"><ele>607.0</ele><time>2026-04-04T02:22:48Z</time></trkpt><trkpt lat="14.075116671540068" lon="120.862045683746"><ele>607.0</ele><time>2026-04-04T02:22:49Z</time></trkpt><trkpt lat="14.075033383026616" lon="120.86197339450307"><ele>607.0</ele><time>2026-04-04T02:22:50Z</time></trkpt><trkpt lat="14.074951243783481" lon="120.8619011453819"><ele>607.0</ele><time>2026-04-04T02:22:51Z</time></trkpt><trkpt lat="14.074873241439983" lon="120.86183253505757"><ele>608.4</ele><time>2026-04-04T02:22:52Z</time></trkpt><trkpt lat="14.074790059277278" lon="120.86176147454889"><ele>609.8000000000001</ele><time>2026-04-04T02:22:53Z</time></trkpt><trkpt lat="14.074703314023974" lon="120.86168779789162"><ele>611.2</ele><time>2026-04-04T02:22:54Z</time></trkpt><trkpt lat="14.074616000810018" lon="120.861613719149"><ele>612.6</ele><time>2026-04-04T02:22:55Z</time></trkpt><trkpt lat="14.07452697575119" lon="120.86153839041704"><ele>614.0</ele><time>2026-04-04T02:22:56Z</time></trkpt><trkpt lat="14.074435184529634" lon="120.86146062106295"><ele>614.0</ele><time>2026-04-04T02:22:57Z</time></trkpt><trkpt lat="14.074345740520426" lon="120.86138504249996"><ele>614.0</ele><time>2026-04-04T02:22:58Z</time></trkpt><trkpt lat="14.074247612443575" lon="120.86130965064179"><ele>614.0</ele><time>2026-04-04T02:22:59Z</time></trkpt><trkpt lat="14.074147310421655" lon="120.86123356935923"><ele>614.0</ele><time>2026-04-04T02:23:00Z</time></trkpt><trkpt lat="14.074060854171313" lon="120.86116799050679"><ele>613.3333333333333</ele><time>2026-04-04T02:23:01Z</time></trkpt><trkpt lat="14.073970244926313" lon="120.86109926154481"><ele>612.6666666666666</ele><time>2026-04-04T02:23:02Z</time></trkpt><trkpt lat="14.073888949948843" lon="120.86104473518715"><ele>612.0</ele><time>2026-04-04T02:23:03Z</time></trkpt><trkpt lat="14.073823174379623" lon="120.86100275386656"><ele>611.3333333333334</ele><time>2026-04-04T02:23:04Z</time></trkpt><trkpt lat="14.073757949482053" lon="120.86096129345158"><ele>610.6666666666667</ele><time>2026-04-04T02:23:05Z</time></trkpt><trkpt lat="14.073697425137475" lon="120.86092255146147"><ele>610.0</ele><time>2026-04-04T02:23:06Z</time></trkpt><trkpt lat="14.073574639740484" lon="120.86084380646555"><ele>610.0</ele><time>2026-04-04T02:23:08Z</time></trkpt><trkpt lat="14.073507515682534" lon="120.86080017863424"><ele>610.0</ele><time>2026-04-04T02:23:09Z</time></trkpt><trkpt lat="14.073407756465011" lon="120.86074074283025"><ele>610.0</ele><time>2026-04-04T02:23:10Z</time></trkpt><trkpt lat="14.073320223394951" lon="120.86068992272942"><ele>610.0</ele><time>2026-04-04T02:23:11Z</time></trkpt><trkpt lat="14.073219462269908" lon="120.86063155587185"><ele>610.0</ele><time>2026-04-04T02:23:12Z</time></trkpt><trkpt lat="14.073106963976054" lon="120.86065197882908"><ele>606.75</ele><time>2026-04-04T02:23:13Z</time></trkpt><trkpt lat="14.07300639728056" lon="120.86059715275772"><ele>603.5</ele><time>2026-04-04T02:23:14Z</time></trkpt><trkpt lat="14.072899772368537" lon="120.8605396562175"><ele>600.25</ele><time>2026-04-04T02:23:15Z</time></trkpt><trkpt lat="14.072796886736572" lon="120.86046899688955"><ele>597.0</ele><time>2026-04-04T02:23:16Z</time></trkpt><trkpt lat="14.07269441247927" lon="120.86039142660024"><ele>597.0</ele><time>2026-04-04T02:23:17Z</time></trkpt><trkpt lat="14.072590283570609" lon="120.86030028192668"><ele>597.0</ele><time>2026-04-04T02:23:18Z</time></trkpt><trkpt lat="14.072530726385143" lon="120.8601591931657"><ele>597.0</ele><time>2026-04-04T02:23:19Z</time></trkpt><trkpt lat="14.072425297549428" lon="120.86005683174943"><ele>597.0</ele><time>2026-04-04T02:23:20Z</time></trkpt><trkpt lat="14.072334299205156" lon="120.85995971219334"><ele>594.5</ele><time>2026-04-04T02:23:21Z</time></trkpt><trkpt lat="14.072240842837413" lon="120.85985485659386"><ele>592.0</ele><time>2026-04-04T02:23:22Z</time></trkpt><trkpt lat="14.072152819304607" lon="120.85975001858908"><ele>589.5</ele><time>2026-04-04T02:23:23Z</time></trkpt><trkpt lat="14.072058584385895" lon="120.85964479184055"><ele>587.0</ele><time>2026-04-04T02:23:24Z</time></trkpt><trkpt lat="14.071967339628898" lon="120.8595436807552"><ele>587.0</ele><time>2026-04-04T02:23:25Z</time></trkpt><trkpt lat="14.07187788264091" lon="120.85943942640036"><ele>587.0</ele><time>2026-04-04T02:23:26Z</time></trkpt><trkpt lat="14.071772627733395" lon="120.85933916569665"><ele>587.0</ele><time>2026-04-04T02:23:27Z</time></trkpt><trkpt lat="14.071670195493816" lon="120.85923807234097"><ele>587.0</ele><time>2026-04-04T02:23:28Z</time></trkpt><trkpt lat="14.071567592915958" lon="120.85913714225372"><ele>591.0</ele><time>2026-04-04T02:23:29Z</time></trkpt><trkpt lat="14.071452345342628" lon="120.85903899407813"><ele>595.0</ele><time>2026-04-04T02:23:30Z</time></trkpt><trkpt lat="14.07133718433988" lon="120.85893752907428"><ele>599.0</ele><time>2026-04-04T02:23:31Z</time></trkpt><trkpt lat="14.071226561507554" lon="120.85883987846259"><ele>603.0</ele><time>2026-04-04T02:23:32Z</time></trkpt><trkpt lat="14.071115473515624" lon="120.85874948581476"><ele>603.0</ele><time>2026-04-04T02:23:33Z</time></trkpt><trkpt lat="14.071014503826813" lon="120.85866823259971"><ele>603.0</ele><time>2026-04-04T02:23:34Z</time></trkpt><trkpt lat="14.070921214785276" lon="120.85859355479317"><ele>603.0</ele><time>2026-04-04T02:23:35Z</time></trkpt><trkpt lat="14.070827549542365" lon="120.85851999237003"><ele>603.0</ele><time>2026-04-04T02:23:36Z</time></trkpt><trkpt lat="14.0707383432056" lon="120.85845079329266"><ele>602.0</ele><time>2026-04-04T02:23:37Z</time></trkpt><trkpt lat="14.070653865010067" lon="120.85838820229007"><ele>601.0</ele><time>2026-04-04T02:23:38Z</time></trkpt><trkpt lat="14.070575422568073" lon="120.8583310384187"><ele>600.0</ele><time>2026-04-04T02:23:39Z</time></trkpt><trkpt lat="14.070491990317379" lon="120.8582686916138"><ele>599.0</ele><time>2026-04-04T02:23:40Z</time></trkpt><trkpt lat="14.070410108213128" lon="120.85820823282019"><ele>598.0</ele><time>2026-04-04T02:23:41Z</time></trkpt><trkpt lat="14.070315031924899" lon="120.85814504050023"><ele>598.0</ele><time>2026-04-04T02:23:42Z</time></trkpt><trkpt lat="14.070226996785284" lon="120.85808679923875"><ele>598.0</ele><time>2026-04-04T02:23:43Z</time></trkpt><trkpt lat="14.070133430376014" lon="120.85801458940104"><ele>598.0</ele><time>2026-04-04T02:23:44Z</time></trkpt><trkpt lat="14.070040598695664" lon="120.85794255247184"><ele>598.0</ele><time>2026-04-04T02:23:45Z</time></trkpt><trkpt lat="14.069954495002197" lon="120.85787663670217"><ele>598.0</ele><time>2026-04-04T02:23:46Z</time></trkpt><trkpt lat="14.069870709615254" lon="120.85781291426485"><ele>598.4</ele><time>2026-04-04T02:23:47Z</time></trkpt><trkpt lat="14.069778475225005" lon="120.85774282379883"><ele>598.8</ele><time>2026-04-04T02:23:48Z</time></trkpt><trkpt lat="14.06968513815672" lon="120.85767212366262"><ele>599.2</ele><time>2026-04-04T02:23:49Z</time></trkpt><trkpt lat="14.069606569747274" lon="120.8576056927016"><ele>599.6</ele><time>2026-04-04T02:23:50Z</time></trkpt><trkpt lat="14.069527826240348" lon="120.85753220562184"><ele>600.0</ele><time>2026-04-04T02:23:51Z</time></trkpt><trkpt lat="14.069455205417285" lon="120.85746484605048"><ele>600.0</ele><time>2026-04-04T02:23:52Z</time></trkpt><trkpt lat="14.069398683011931" lon="120.85740635808641"><ele>600.0</ele><time>2026-04-04T02:23:53Z</time></trkpt><trkpt lat="14.069325440459707" lon="120.85732968542874"><ele>600.0</ele><time>2026-04-04T02:23:54Z</time></trkpt><trkpt lat="14.069283120139323" lon="120.85725862978813"><ele>600.0</ele><time>2026-04-04T02:23:55Z</time></trkpt><trkpt lat="14.069223379222636" lon="120.85717064275337"><ele>600.0</ele><time>2026-04-04T02:23:56Z</time></trkpt><trkpt lat="14.069167162236514" lon="120.8570869513523"><ele>600.0</ele><time>2026-04-04T02:23:57Z</time></trkpt><trkpt lat="14.069113231844796" lon="120.85699719197413"><ele>600.0</ele><time>2026-04-04T02:23:58Z</time></trkpt><trkpt lat="14.06906335598258" lon="120.85691229352031"><ele>600.0</ele><time>2026-04-04T02:23:59Z</time></trkpt><trkpt lat="14.069017488205152" lon="120.85682398576479"><ele>600.0</ele><time>2026-04-04T02:24:00Z</time></trkpt><trkpt lat="14.06897593570544" lon="120.85672276216452"><ele>600.0</ele><time>2026-04-04T02:24:01Z</time></trkpt><trkpt lat="14.068942791210718" lon="120.85663110115152"><ele>598.4</ele><time>2026-04-04T02:24:02Z</time></trkpt><trkpt lat="14.06891030159532" lon="120.8565412504618"><ele>596.8</ele><time>2026-04-04T02:24:03Z</time></trkpt><trkpt lat="14.068873580106317" lon="120.85644703898457"><ele>595.2</ele><time>2026-04-04T02:24:04Z</time></trkpt><trkpt lat="14.068839032822334" lon="120.85635480743363"><ele>593.6</ele><time>2026-04-04T02:24:05Z</time></trkpt><trkpt lat="14.068806492479128" lon="120.85625741092527"><ele>592.0</ele><time>2026-04-04T02:24:06Z</time></trkpt><trkpt lat="14.068774709738069" lon="120.85616550001582"><ele>592.0</ele><time>2026-04-04T02:24:07Z</time></trkpt><trkpt lat="14.068742276172665" lon="120.85607044473663"><ele>592.0</ele><time>2026-04-04T02:24:08Z</time></trkpt><trkpt lat="14.0686493409246" lon="120.85598719321783"><ele>592.0</ele><time>2026-04-04T02:24:09Z</time></trkpt><trkpt lat="14.068619322382569" lon="120.85587887788172"><ele>592.0</ele><time>2026-04-04T02:24:10Z</time></trkpt><trkpt lat="14.068583699167608" lon="120.8557692041969"><ele>592.0</ele><time>2026-04-04T02:24:11Z</time></trkpt><trkpt lat="14.068539256600591" lon="120.85565321028636"><ele>594.75</ele><time>2026-04-04T02:24:12Z</time></trkpt><trkpt lat="14.068500168710285" lon="120.85553373417885"><ele>597.5</ele><time>2026-04-04T02:24:13Z</time></trkpt><trkpt lat="14.068507537260098" lon="120.85539782197232"><ele>600.25</ele><time>2026-04-04T02:24:14Z</time></trkpt><trkpt lat="14.068467535975914" lon="120.85528902479416"><ele>603.0</ele><time>2026-04-04T02:24:15Z</time></trkpt><trkpt lat="14.06842257628469" lon="120.85519154297516"><ele>603.6</ele><time>2026-04-04T02:24:16Z</time></trkpt><trkpt lat="14.068379225596033" lon="120.85509778661556"><ele>604.1999999999999</ele><time>2026-04-04T02:24:17Z</time></trkpt><trkpt lat="14.068335368360405" lon="120.85500280385217"><ele>604.8</ele><time>2026-04-04T02:24:18Z</time></trkpt><trkpt lat="14.068292145581987" lon="120.8549091951429"><ele>605.4</ele><time>2026-04-04T02:24:19Z</time></trkpt><trkpt lat="14.068232450869976" lon="120.8548184947474"><ele>606.0</ele><time>2026-04-04T02:24:20Z</time></trkpt><trkpt lat="14.068192327231621" lon="120.85472783854121"><ele>601.8</ele><time>2026-04-04T02:24:21Z</time></trkpt><trkpt lat="14.068143412672317" lon="120.85463962769975"><ele>597.6</ele><time>2026-04-04T02:24:22Z</time></trkpt><trkpt lat="14.068081711586125" lon="120.85455920607035"><ele>593.4</ele><time>2026-04-04T02:24:23Z</time></trkpt><trkpt lat="14.068013248777104" lon="120.85448264931314"><ele>589.2</ele><time>2026-04-04T02:24:24Z</time></trkpt><trkpt lat="14.0679549295192" lon="120.85440646587715"><ele>585.0</ele><time>2026-04-04T02:24:25Z</time></trkpt><trkpt lat="14.06788014854958" lon="120.8543327836576"><ele>589.4</ele><time>2026-04-04T02:24:26Z</time></trkpt><trkpt lat="14.067810108191372" lon="120.85425946815565"><ele>593.8</ele><time>2026-04-04T02:24:27Z</time></trkpt><trkpt lat="14.067754053512925" lon="120.85416993240764"><ele>598.2</ele><time>2026-04-04T02:24:28Z</time></trkpt><trkpt lat="14.067670381893553" lon="120.85410185243636"><ele>602.6</ele><time>2026-04-04T02:24:29Z</time></trkpt><trkpt lat="14.06759476964717" lon="120.85402400781673"><ele>607.0</ele><time>2026-04-04T02:24:30Z</time></trkpt><trkpt lat="14.067522959770315" lon="120.85394294278694"><ele>607.0</ele><time>2026-04-04T02:24:31Z</time></trkpt><trkpt lat="14.067447029436122" lon="120.85386002319147"><ele>607.0</ele><time>2026-04-04T02:24:32Z</time></trkpt><trkpt lat="14.067375533862899" lon="120.853769916132"><ele>607.0</ele><time>2026-04-04T02:24:33Z</time></trkpt><trkpt lat="14.06730578561075" lon="120.85367853552768"><ele>607.0</ele><time>2026-04-04T02:24:34Z</time></trkpt><trkpt lat="14.067234663324905" lon="120.85358769832027"><ele>609.0</ele><time>2026-04-04T02:24:35Z</time></trkpt><trkpt lat="14.067166771012387" lon="120.85349260762062"><ele>611.0</ele><time>2026-04-04T02:24:36Z</time></trkpt><trkpt lat="14.067104295701725" lon="120.85339655112088"><ele>613.0</ele><time>2026-04-04T02:24:37Z</time></trkpt><trkpt lat="14.067041991529953" lon="120.853292197332"><ele>615.0</ele><time>2026-04-04T02:24:38Z</time></trkpt><trkpt lat="14.066963352795037" lon="120.85320616474299"><ele>615.0</ele><time>2026-04-04T02:24:39Z</time></trkpt><trkpt lat="14.066893297110347" lon="120.85310533007807"><ele>615.0</ele><time>2026-04-04T02:24:40Z</time></trkpt><trkpt lat="14.066829315341975" lon="120.85301198785638"><ele>615.0</ele><time>2026-04-04T02:24:41Z</time></trkpt><trkpt lat="14.066781017099949" lon="120.85291131525959"><ele>615.0</ele><time>2026-04-04T02:24:42Z</time></trkpt><trkpt lat="14.06670831203379" lon="120.85283323241687"><ele>615.0</ele><time>2026-04-04T02:24:43Z</time></trkpt><trkpt lat="14.06664659582322" lon="120.85273972990178"><ele>612.25</ele><time>2026-04-04T02:24:44Z</time></trkpt><trkpt lat="14.066598781482957" lon="120.85263866882686"><ele>609.5</ele><time>2026-04-04T02:24:45Z</time></trkpt><trkpt lat="14.06652016283009" lon="120.85255524516508"><ele>606.75</ele><time>2026-04-04T02:24:46Z</time></trkpt><trkpt lat="14.06646731126764" lon="120.85245021044916"><ele>604.0</ele><time>2026-04-04T02:24:47Z</time></trkpt><trkpt lat="14.066402829570498" lon="120.85235187714575"><ele>604.0</ele><time>2026-04-04T02:24:48Z</time></trkpt><trkpt lat="14.066340944232321" lon="120.85225272092255"><ele>604.0</ele><time>2026-04-04T02:24:49Z</time></trkpt><trkpt lat="14.066274394001718" lon="120.8521449555747"><ele>604.0</ele><time>2026-04-04T02:24:50Z</time></trkpt><trkpt lat="14.066197116516896" lon="120.85205356807667"><ele>604.0</ele><time>2026-04-04T02:24:51Z</time></trkpt><trkpt lat="14.066119890995335" lon="120.8519622420162"><ele>604.0</ele><time>2026-04-04T02:24:52Z</time></trkpt><trkpt lat="14.066042685631835" lon="120.85187092770833"><ele>604.0</ele><time>2026-04-04T02:24:53Z</time></trkpt><trkpt lat="14.065961370058918" lon="120.85177616915257"><ele>604.0</ele><time>2026-04-04T02:24:54Z</time></trkpt><trkpt lat="14.065869179968967" lon="120.85168292541395"><ele>604.0</ele><time>2026-04-04T02:24:55Z</time></trkpt><trkpt lat="14.065777194307438" lon="120.85159315236032"><ele>597.0</ele><time>2026-04-04T02:24:55.999Z</time></trkpt><trkpt lat="14.06568876293019" lon="120.85150684809915"><ele>590.0</ele><time>2026-04-04T02:24:56.999Z</time></trkpt><trkpt lat="14.065602413554625" lon="120.85142257577841"><ele>583.0</ele><time>2026-04-04T02:24:57.999Z</time></trkpt><trkpt lat="14.065523119478144" lon="120.8513314754744"><ele>576.0</ele><time>2026-04-04T02:24:58.999Z</time></trkpt><trkpt lat="14.065437671721057" lon="120.85123770871688"><ele>576.0</ele><time>2026-04-04T02:24:59.999Z</time></trkpt><trkpt lat="14.06535477699587" lon="120.85114489029787"><ele>576.0</ele><time>2026-04-04T02:25:00.999Z</time></trkpt><trkpt lat="14.065280057311597" lon="120.85106125240353"><ele>576.0</ele><time>2026-04-04T02:25:01.999Z</time></trkpt><trkpt lat="14.065203623769307" lon="120.85097588506434"><ele>576.0</ele><time>2026-04-04T02:25:02.999Z</time></trkpt><trkpt lat="14.065128782201409" lon="120.85089174837974"><ele>577.5</ele><time>2026-04-04T02:25:03.999Z</time></trkpt><trkpt lat="14.065048633582615" lon="120.85079375873421"><ele>579.0</ele><time>2026-04-04T02:25:04.999Z</time></trkpt><trkpt lat="14.064984078047177" lon="120.85069983536432"><ele>580.5</ele><time>2026-04-04T02:25:05.999Z</time></trkpt><trkpt lat="14.064921913286339" lon="120.85059630184989"><ele>582.0</ele><time>2026-04-04T02:25:06.999Z</time></trkpt><trkpt lat="14.06487543396441" lon="120.8504997777498"><ele>582.0</ele><time>2026-04-04T02:25:07.999Z</time></trkpt><trkpt lat="14.064841383472432" lon="120.85040061005681"><ele>582.0</ele><time>2026-04-04T02:25:08.999Z</time></trkpt><trkpt lat="14.064813035946587" lon="120.85029607025913"><ele>582.0</ele><time>2026-04-04T02:25:09.999Z</time></trkpt><trkpt lat="14.064794501126567" lon="120.85018317604751"><ele>582.0</ele><time>2026-04-04T02:25:10.999Z</time></trkpt><trkpt lat="14.064779194201869" lon="120.85005965954085"><ele>582.0</ele><time>2026-04-04T02:25:11.999Z</time></trkpt><trkpt lat="14.064773701429656" lon="120.8499280215868"><ele>587.25</ele><time>2026-04-04T02:25:12.999Z</time></trkpt><trkpt lat="14.064766087266715" lon="120.84979275685086"><ele>592.5</ele><time>2026-04-04T02:25:13.999Z</time></trkpt><trkpt lat="14.064778358404379" lon="120.849652709023"><ele>597.75</ele><time>2026-04-04T02:25:14.999Z</time></trkpt><trkpt lat="14.064789613947308" lon="120.84951101953216"><ele>603.0</ele><time>2026-04-04T02:25:15.999Z</time></trkpt><trkpt lat="14.06481576363796" lon="120.8493785137287"><ele>604.5</ele><time>2026-04-04T02:25:16.999Z</time></trkpt><trkpt lat="14.06482031933761" lon="120.84923382551895"><ele>606.0</ele><time>2026-04-04T02:25:17.999Z</time></trkpt><trkpt lat="14.064810729429453" lon="120.84908518177829"><ele>607.5</ele><time>2026-04-04T02:25:18.999Z</time></trkpt><trkpt lat="14.06479032487292" lon="120.84893801445908"><ele>609.0</ele><time>2026-04-04T02:25:19.999Z</time></trkpt><trkpt lat="14.064755913555596" lon="120.8487892360016"><ele>609.0</ele><time>2026-04-04T02:25:21Z</time></trkpt><trkpt lat="14.064703479386543" lon="120.84864575169317"><ele>609.0</ele><time>2026-04-04T02:25:22Z</time></trkpt><trkpt lat="14.064622053452615" lon="120.84850710140323"><ele>609.0</ele><time>2026-04-04T02:25:23Z</time></trkpt><trkpt lat="14.064529220164136" lon="120.84838817861987"><ele>606.0</ele><time>2026-04-04T02:25:24Z</time></trkpt><trkpt lat="14.064434784028345" lon="120.84828698655592"><ele>603.0</ele><time>2026-04-04T02:25:25Z</time></trkpt><trkpt lat="14.064327867704769" lon="120.84820133776604"><ele>600.0</ele><time>2026-04-04T02:25:26Z</time></trkpt><trkpt lat="14.064231939287275" lon="120.84812366200227"><ele>597.0</ele><time>2026-04-04T02:25:27Z</time></trkpt><trkpt lat="14.06414295160596" lon="120.8480535409256"><ele>598.3333333333334</ele><time>2026-04-04T02:25:28Z</time></trkpt><trkpt lat="14.064059505178365" lon="120.84798778631756"><ele>599.6666666666666</ele><time>2026-04-04T02:25:29Z</time></trkpt><trkpt lat="14.06398357496932" lon="120.84793309128499"><ele>601.0</ele><time>2026-04-04T02:25:30Z</time></trkpt><trkpt lat="14.063915837565162" lon="120.84788567889315"><ele>602.3333333333333</ele><time>2026-04-04T02:25:31Z</time></trkpt><trkpt lat="14.063851606545276" lon="120.8478408831923"><ele>603.6666666666666</ele><time>2026-04-04T02:25:32Z</time></trkpt><trkpt lat="14.06378529757106" lon="120.84779599004386"><ele>605.0</ele><time>2026-04-04T02:25:33Z</time></trkpt><trkpt lat="14.063717384119695" lon="120.84775005052465"><ele>605.0</ele><time>2026-04-04T02:25:34Z</time></trkpt><trkpt lat="14.063639749302949" lon="120.84769753506131"><ele>605.0</ele><time>2026-04-04T02:25:35Z</time></trkpt><trkpt lat="14.063564307523885" lon="120.84764650306897"><ele>605.0</ele><time>2026-04-04T02:25:36Z</time></trkpt><trkpt lat="14.063487496936746" lon="120.84759454513971"><ele>605.0</ele><time>2026-04-04T02:25:37Z</time></trkpt><trkpt lat="14.063409125591738" lon="120.84754153146784"><ele>605.0</ele><time>2026-04-04T02:25:38Z</time></trkpt><trkpt lat="14.063328145345919" lon="120.84748675301189"><ele>604.6</ele><time>2026-04-04T02:25:39Z</time></trkpt><trkpt lat="14.063248564485882" lon="120.84743292117014"><ele>604.2</ele><time>2026-04-04T02:25:40Z</time></trkpt><trkpt lat="14.063164713130652" lon="120.84737636903132"><ele>603.8</ele><time>2026-04-04T02:25:41Z</time></trkpt><trkpt lat="14.063088472214051" lon="120.8473250033373"><ele>603.4</ele><time>2026-04-04T02:25:42Z</time></trkpt><trkpt lat="14.063013228266671" lon="120.84727394972673"><ele>603.0</ele><time>2026-04-04T02:25:43Z</time></trkpt><trkpt lat="14.062928714602046" lon="120.8472163131509"><ele>603.0</ele><time>2026-04-04T02:25:44Z</time></trkpt><trkpt lat="14.062856481512865" lon="120.84716725427049"><ele>603.0</ele><time>2026-04-04T02:25:45Z</time></trkpt><trkpt lat="14.062773376274437" lon="120.8471114582178"><ele>603.0</ele><time>2026-04-04T02:25:46Z</time></trkpt><trkpt lat="14.06269251367433" lon="120.84705418683042"><ele>603.0</ele><time>2026-04-04T02:25:47Z</time></trkpt><trkpt lat="14.062617751258667" lon="120.84699999970317"><ele>603.0</ele><time>2026-04-04T02:25:48Z</time></trkpt><trkpt lat="14.062539094958183" lon="120.84694314574999"><ele>603.0</ele><time>2026-04-04T02:25:49Z</time></trkpt><trkpt lat="14.06246708203657" lon="120.84689120548103"><ele>603.0</ele><time>2026-04-04T02:25:50Z</time></trkpt><trkpt lat="14.062385798345023" lon="120.84683228904564"><ele>603.0</ele><time>2026-04-04T02:25:51Z</time></trkpt><trkpt lat="14.062304523981576" lon="120.84677387763351"><ele>603.0</ele><time>2026-04-04T02:25:52Z</time></trkpt><trkpt lat="14.062220406981185" lon="120.846713238059"><ele>603.0</ele><time>2026-04-04T02:25:53Z</time></trkpt><trkpt lat="14.062133841182414" lon="120.8466503778903"><ele>603.1999999999999</ele><time>2026-04-04T02:25:54Z</time></trkpt><trkpt lat="14.06204873131798" lon="120.84658886189479"><ele>603.4</ele><time>2026-04-04T02:25:55Z</time></trkpt><trkpt lat="14.061962116302892" lon="120.84652622950026"><ele>603.5999999999999</ele><time>2026-04-04T02:25:56Z</time></trkpt><trkpt lat="14.061854742080603" lon="120.84648503034519"><ele>603.8</ele><time>2026-04-04T02:25:57Z</time></trkpt><trkpt lat="14.061766688251604" lon="120.84642015700527"><ele>604.0</ele><time>2026-04-04T02:25:58Z</time></trkpt><trkpt lat="14.061676644496812" lon="120.84635325599162"><ele>605.2</ele><time>2026-04-04T02:25:59Z</time></trkpt><trkpt lat="14.061585104659837" lon="120.84628681466704"><ele>606.4</ele><time>2026-04-04T02:26:00Z</time></trkpt><trkpt lat="14.061491011212569" lon="120.84621741210535"><ele>607.6</ele><time>2026-04-04T02:26:01Z</time></trkpt><trkpt lat="14.061400360369309" lon="120.84614981476257"><ele>608.8</ele><time>2026-04-04T02:26:02Z</time></trkpt><trkpt lat="14.06131358582229" lon="120.84608624632202"><ele>610.0</ele><time>2026-04-04T02:26:03Z</time></trkpt><trkpt lat="14.061229469912892" lon="120.84602208199405"><ele>610.0</ele><time>2026-04-04T02:26:04Z</time></trkpt><trkpt lat="14.061151886413018" lon="120.84596219166775"><ele>610.0</ele><time>2026-04-04T02:26:05Z</time></trkpt><trkpt lat="14.061076312150917" lon="120.84590172949189"><ele>610.0</ele><time>2026-04-04T02:26:06Z</time></trkpt><trkpt lat="14.061008971840604" lon="120.84585015946202"><ele>610.0</ele><time>2026-04-04T02:26:07Z</time></trkpt><trkpt lat="14.060952469755849" lon="120.84580896292871"><ele>610.0</ele><time>2026-04-04T02:26:08Z</time></trkpt><trkpt lat="14.060863463033465" lon="120.8457410143256"><ele>610.2</ele><time>2026-04-04T02:26:10Z</time></trkpt><trkpt lat="14.060777701538242" lon="120.84566726052422"><ele>610.4</ele><time>2026-04-04T02:26:12Z</time></trkpt><trkpt lat="14.060687882319728" lon="120.84559532977016"><ele>610.6</ele><time>2026-04-04T02:26:14Z</time></trkpt><trkpt lat="14.060602707402703" lon="120.84553546971424"><ele>610.8</ele><time>2026-04-04T02:26:16Z</time></trkpt><trkpt lat="14.060520456312855" lon="120.84546848837138"><ele>611.0</ele><time>2026-04-04T02:26:18Z</time></trkpt><trkpt lat="14.060454526086732" lon="120.84541800003473"><ele>611.0</ele><time>2026-04-04T02:26:20Z</time></trkpt><trkpt lat="14.060399530850672" lon="120.84538367973069"><ele>611.0</ele><time>2026-04-04T02:26:23Z</time></trkpt><trkpt lat="14.060315002437429" lon="120.8453003144559"><ele>611.0</ele><time>2026-04-04T02:26:28Z</time></trkpt><trkpt lat="14.060251747580336" lon="120.84525929057878"><ele>611.0</ele><time>2026-04-04T02:26:30Z</time></trkpt><trkpt lat="14.060185126546392" lon="120.84522170301362"><ele>611.0</ele><time>2026-04-04T02:26:33Z</time></trkpt><trkpt lat="14.06012617879104" lon="120.84519704565238"><ele>611.0</ele><time>2026-04-04T02:26:38Z</time></trkpt><trkpt lat="14.060060461409368" lon="120.84515655855174"><ele>610.6666666666666</ele><time>2026-04-04T02:26:44Z</time></trkpt><trkpt lat="14.060010499118809" lon="120.8451155027937"><ele>610.3333333333333</ele><time>2026-04-04T02:26:48Z</time></trkpt><trkpt lat="14.059943632924188" lon="120.8450797730252"><ele>610.0</ele><time>2026-04-04T02:26:58Z</time></trkpt><trkpt lat="14.059869005866311" lon="120.84503247382968"><ele>609.6666666666666</ele><time>2026-04-04T02:27:01.999Z</time></trkpt><trkpt lat="14.059808057931757" lon="120.8450013800642"><ele>609.3333333333334</ele><time>2026-04-04T02:27:03.999Z</time></trkpt><trkpt lat="14.059725892987311" lon="120.8449630566399"><ele>609.0</ele><time>2026-04-04T02:27:06.999Z</time></trkpt><trkpt lat="14.059653354523576" lon="120.84493416676999"><ele>610.2</ele><time>2026-04-04T02:27:15.999Z</time></trkpt><trkpt lat="14.05955411154791" lon="120.8448967358564"><ele>611.4</ele><time>2026-04-04T02:27:17.999Z</time></trkpt><trkpt lat="14.059461557930652" lon="120.84486287785413"><ele>612.6</ele><time>2026-04-04T02:27:21Z</time></trkpt><trkpt lat="14.059353477668914" lon="120.84483297923836"><ele>613.8</ele><time>2026-04-04T02:27:23Z</time></trkpt><trkpt lat="14.059287826227752" lon="120.84481677358488"><ele>615.0</ele><time>2026-04-04T02:27:24Z</time></trkpt><trkpt lat="14.059218484419898" lon="120.84480900026479"><ele>615.0</ele><time>2026-04-04T02:27:25Z</time></trkpt><trkpt lat="14.059150875521693" lon="120.84480266346107"><ele>615.0</ele><time>2026-04-04T02:27:26Z</time></trkpt><trkpt lat="14.059082921340474" lon="120.8448006339047"><ele>615.0</ele><time>2026-04-04T02:27:27Z</time></trkpt><trkpt lat="14.059015882011916" lon="120.84479797222626"><ele>615.0</ele><time>2026-04-04T02:27:28Z</time></trkpt><trkpt lat="14.058948295926257" lon="120.84479549880982"><ele>615.0</ele><time>2026-04-04T02:27:29Z</time></trkpt><trkpt lat="14.058877451141296" lon="120.844796198338"><ele>615.0</ele><time>2026-04-04T02:27:30Z</time></trkpt><trkpt lat="14.058770900668737" lon="120.84480140114962"><ele>615.0</ele><time>2026-04-04T02:27:32Z</time></trkpt><trkpt lat="14.058697151672597" lon="120.84480808217212"><ele>615.75</ele><time>2026-04-04T02:27:35Z</time></trkpt><trkpt lat="14.058611159130452" lon="120.84481702860084"><ele>616.5</ele><time>2026-04-04T02:27:38Z</time></trkpt><trkpt lat="14.058528002601333" lon="120.84497069293722"><ele>617.25</ele><time>2026-04-04T02:27:42Z</time></trkpt><trkpt lat="14.058479588606055" lon="120.84506886931827"><ele>618.0</ele><time>2026-04-04T02:27:45Z</time></trkpt><trkpt lat="14.058432971764866" lon="120.84516221200518"><ele>618.0</ele><time>2026-04-04T02:27:47Z</time></trkpt><trkpt lat="14.058375769098692" lon="120.8452691425541"><ele>618.0</ele><time>2026-04-04T02:27:49Z</time></trkpt><trkpt lat="14.058342535278275" lon="120.84532947878306"><ele>618.0</ele><time>2026-04-04T02:27:50Z</time></trkpt><trkpt lat="14.058296461920778" lon="120.84541077214442"><ele>618.0</ele><time>2026-04-04T02:27:51Z</time></trkpt><trkpt lat="14.058253183272926" lon="120.84548640588176"><ele>618.0</ele><time>2026-04-04T02:27:52Z</time></trkpt><trkpt lat="14.058205662723033" lon="120.845558858986"><ele>618.0</ele><time>2026-04-04T02:27:53Z</time></trkpt><trkpt lat="14.058155131051272" lon="120.84562803262936"><ele>617.1999999999999</ele><time>2026-04-04T02:27:54Z</time></trkpt><trkpt lat="14.058096088605824" lon="120.84570271381354"><ele>616.4</ele><time>2026-04-04T02:27:55Z</time></trkpt><trkpt lat="14.058037124681396" lon="120.8457717622976"><ele>615.5999999999999</ele><time>2026-04-04T02:27:56Z</time></trkpt><trkpt lat="14.057972276480028" lon="120.8458430707666"><ele>614.8</ele><time>2026-04-04T02:27:57Z</time></trkpt><trkpt lat="14.057902639329406" lon="120.84590961087031"><ele>614.0</ele><time>2026-04-04T02:27:58Z</time></trkpt><trkpt lat="14.05783111718767" lon="120.84596663955372"><ele>615.8</ele><time>2026-04-04T02:27:59Z</time></trkpt><trkpt lat="14.057751056112373" lon="120.84602550579297"><ele>617.5999999999999</ele><time>2026-04-04T02:28:00Z</time></trkpt><trkpt lat="14.057662459709853" lon="120.84608335641528"><ele>619.4</ele><time>2026-04-04T02:28:01Z</time></trkpt><trkpt lat="14.057572982590473" lon="120.84613897023509"><ele>621.1999999999999</ele><time>2026-04-04T02:28:02Z</time></trkpt><trkpt lat="14.057476361490341" lon="120.84619928867079"><ele>623.0</ele><time>2026-04-04T02:28:03Z</time></trkpt><trkpt lat="14.057381679012973" lon="120.84625877225344"><ele>623.0</ele><time>2026-04-04T02:28:04Z</time></trkpt><trkpt lat="14.057277864017907" lon="120.84631851921102"><ele>623.0</ele><time>2026-04-04T02:28:05Z</time></trkpt><trkpt lat="14.057173325252347" lon="120.84638694153195"><ele>623.0</ele><time>2026-04-04T02:28:06Z</time></trkpt><trkpt lat="14.057060721985147" lon="120.84645968689044"><ele>623.0</ele><time>2026-04-04T02:28:07Z</time></trkpt><trkpt lat="14.056954048911413" lon="120.84652725959619"><ele>623.0</ele><time>2026-04-04T02:28:08Z</time></trkpt><trkpt lat="14.056838378660165" lon="120.84660142331535"><ele>623.0</ele><time>2026-04-04T02:28:09Z</time></trkpt><trkpt lat="14.05673662377855" lon="120.8466676269422"><ele>623.0</ele><time>2026-04-04T02:28:10Z</time></trkpt><trkpt lat="14.056619497603599" lon="120.84673837862823"><ele>623.0</ele><time>2026-04-04T02:28:11Z</time></trkpt><trkpt lat="14.05651923115212" lon="120.84680347391355"><ele>621.8</ele><time>2026-04-04T02:28:12Z</time></trkpt><trkpt lat="14.056437512157741" lon="120.84686078081553"><ele>620.5999999999999</ele><time>2026-04-04T02:28:13Z</time></trkpt><trkpt lat="14.056370310187106" lon="120.84692442027486"><ele>619.4000000000001</ele><time>2026-04-04T02:28:14Z</time></trkpt><trkpt lat="14.056307894693377" lon="120.84700089292231"><ele>618.2</ele><time>2026-04-04T02:28:15Z</time></trkpt><trkpt lat="14.056259706679388" lon="120.84708368423833"><ele>617.0</ele><time>2026-04-04T02:28:16Z</time></trkpt><trkpt lat="14.056239367902853" lon="120.84720131601165"><ele>617.0</ele><time>2026-04-04T02:28:17Z</time></trkpt><trkpt lat="14.056232921435601" lon="120.84730304681402"><ele>617.0</ele><time>2026-04-04T02:28:18Z</time></trkpt><trkpt lat="14.056222862520293" lon="120.84739248047971"><ele>617.0</ele><time>2026-04-04T02:28:19Z</time></trkpt><trkpt lat="14.056203480471124" lon="120.84748183668702"><ele>617.0</ele><time>2026-04-04T02:28:20Z</time></trkpt><trkpt lat="14.056206009148655" lon="120.84757835715976"><ele>617.0</ele><time>2026-04-04T02:28:21Z</time></trkpt><trkpt lat="14.056159873664818" lon="120.84766365516748"><ele>616.6</ele><time>2026-04-04T02:28:22Z</time></trkpt><trkpt lat="14.05610165408307" lon="120.84774486089776"><ele>616.2</ele><time>2026-04-04T02:28:23Z</time></trkpt><trkpt lat="14.056032127849308" lon="120.8478277606126"><ele>615.8</ele><time>2026-04-04T02:28:24Z</time></trkpt><trkpt lat="14.055954332389327" lon="120.84791505084246"><ele>615.4</ele><time>2026-04-04T02:28:25Z</time></trkpt><trkpt lat="14.055872431732443" lon="120.84801660750448"><ele>615.0</ele><time>2026-04-04T02:28:26Z</time></trkpt><trkpt lat="14.05579338157968" lon="120.84812206109717"><ele>616.0</ele><time>2026-04-04T02:28:27Z</time></trkpt><trkpt lat="14.05571931587932" lon="120.84822265245862"><ele>617.0</ele><time>2026-04-04T02:28:28Z</time></trkpt><trkpt lat="14.055657005268634" lon="120.84830493395197"><ele>618.0</ele><time>2026-04-04T02:28:29Z</time></trkpt><trkpt lat="14.0556068422263" lon="120.8483698348726"><ele>619.0</ele><time>2026-04-04T02:28:30Z</time></trkpt><trkpt lat="14.055560459980605" lon="120.84843678895835"><ele>620.0</ele><time>2026-04-04T02:28:31Z</time></trkpt><trkpt lat="14.055525011233616" lon="120.84850927024924"><ele>621.8</ele><time>2026-04-04T02:28:32Z</time></trkpt><trkpt lat="14.055514370419552" lon="120.84858501848977"><ele>623.6</ele><time>2026-04-04T02:28:33Z</time></trkpt><trkpt lat="14.05552927686102" lon="120.84867628139557"><ele>625.4</ele><time>2026-04-04T02:28:34Z</time></trkpt><trkpt lat="14.055567720293725" lon="120.8487541423211"><ele>627.2</ele><time>2026-04-04T02:28:35Z</time></trkpt><trkpt lat="14.055603013058558" lon="120.84885388399783"><ele>629.0</ele><time>2026-04-04T02:28:36Z</time></trkpt><trkpt lat="14.055633554359318" lon="120.8489612775396"><ele>629.0</ele><time>2026-04-04T02:28:37Z</time></trkpt><trkpt lat="14.055652284338883" lon="120.84905469100872"><ele>629.0</ele><time>2026-04-04T02:28:38Z</time></trkpt><trkpt lat="14.055635007698719" lon="120.8491398105787"><ele>629.0</ele><time>2026-04-04T02:28:39Z</time></trkpt><trkpt lat="14.055546721174295" lon="120.84919608045344"><ele>629.0</ele><time>2026-04-04T02:28:40Z</time></trkpt><trkpt lat="14.055475183639977" lon="120.84925744911024"><ele>629.0</ele><time>2026-04-04T02:28:41Z</time></trkpt><trkpt lat="14.055404157725643" lon="120.8493388718137"><ele>629.4</ele><time>2026-04-04T02:28:42Z</time></trkpt><trkpt lat="14.055356828757478" lon="120.8494405417812"><ele>629.8</ele><time>2026-04-04T02:28:43Z</time></trkpt><trkpt lat="14.055337891278095" lon="120.84955080787847"><ele>630.2</ele><time>2026-04-04T02:28:44Z</time></trkpt><trkpt lat="14.055345033644834" lon="120.8496581815119"><ele>630.6</ele><time>2026-04-04T02:28:45Z</time></trkpt><trkpt lat="14.055369613006167" lon="120.84976813310135"><ele>631.0</ele><time>2026-04-04T02:28:46Z</time></trkpt><trkpt lat="14.055389745588052" lon="120.84985553864217"><ele>631.0</ele><time>2026-04-04T02:28:47Z</time></trkpt><trkpt lat="14.055394944096479" lon="120.84994411312043"><ele>631.0</ele><time>2026-04-04T02:28:48Z</time></trkpt><trkpt lat="14.055355438015141" lon="120.85001453009284"><ele>631.0</ele><time>2026-04-04T02:28:49Z</time></trkpt><trkpt lat="14.055301129012381" lon="120.85006141015377"><ele>631.0</ele><time>2026-04-04T02:28:50Z</time></trkpt><trkpt lat="14.055233167771775" lon="120.85013921221872"><ele>631.0</ele><time>2026-04-04T02:28:51Z</time></trkpt><trkpt lat="14.055178873093348" lon="120.85021055648244"><ele>631.0</ele><time>2026-04-04T02:28:52Z</time></trkpt><trkpt lat="14.055125073892777" lon="120.85029768762031"><ele>630.8</ele><time>2026-04-04T02:28:53Z</time></trkpt><trkpt lat="14.055090834938275" lon="120.8503952920768"><ele>630.6</ele><time>2026-04-04T02:28:54Z</time></trkpt><trkpt lat="14.055076743843664" lon="120.85049949509678"><ele>630.4</ele><time>2026-04-04T02:28:55Z</time></trkpt><trkpt lat="14.055085525506247" lon="120.85059511647505"><ele>630.2</ele><time>2026-04-04T02:28:56Z</time></trkpt><trkpt lat="14.055083952927895" lon="120.85068363013339"><ele>630.0</ele><time>2026-04-04T02:28:57Z</time></trkpt><trkpt lat="14.055098502816296" lon="120.85078696170719"><ele>630.0</ele><time>2026-04-04T02:28:58Z</time></trkpt><trkpt lat="14.055128729502611" lon="120.85089137193269"><ele>630.0</ele><time>2026-04-04T02:28:59Z</time></trkpt><trkpt lat="14.055176926729466" lon="120.85097463946606"><ele>630.0</ele><time>2026-04-04T02:29:00Z</time></trkpt><trkpt lat="14.05523566442574" lon="120.8510611475091"><ele>630.0</ele><time>2026-04-04T02:29:01Z</time></trkpt><trkpt lat="14.055283992127134" lon="120.85114079012698"><ele>630.0</ele><time>2026-04-04T02:29:02Z</time></trkpt><trkpt lat="14.055290867247393" lon="120.85123427751252"><ele>628.0</ele><time>2026-04-04T02:29:03Z</time></trkpt><trkpt lat="14.055273599346862" lon="120.85131683897805"><ele>626.0</ele><time>2026-04-04T02:29:04Z</time></trkpt><trkpt lat="14.055236483318591" lon="120.85140294872079"><ele>624.0</ele><time>2026-04-04T02:29:05Z</time></trkpt><trkpt lat="14.055215748585068" lon="120.85147359303572"><ele>622.0</ele><time>2026-04-04T02:29:06Z</time></trkpt><trkpt lat="14.055192125399115" lon="120.85155862811453"><ele>620.0</ele><time>2026-04-04T02:29:07Z</time></trkpt><trkpt lat="14.055231689990086" lon="120.85164256277551"><ele>618.0</ele><time>2026-04-04T02:29:08Z</time></trkpt><trkpt lat="14.055241035391878" lon="120.85173886056397"><ele>613.8333333333334</ele><time>2026-04-04T02:29:09Z</time></trkpt><trkpt lat="14.055267171428742" lon="120.85181110153812"><ele>609.6666666666666</ele><time>2026-04-04T02:29:10Z</time></trkpt><trkpt lat="14.055298770895625" lon="120.85191305258788"><ele>605.5</ele><time>2026-04-04T02:29:12Z</time></trkpt><trkpt lat="14.055308288110732" lon="120.85198782795783"><ele>601.3333333333333</ele><time>2026-04-04T02:29:14Z</time></trkpt><trkpt lat="14.055266399332051" lon="120.85205531801535"><ele>597.1666666666666</ele><time>2026-04-04T02:29:16Z</time></trkpt><trkpt lat="14.055169949321943" lon="120.85206799127361"><ele>593.0</ele><time>2026-04-04T02:29:18Z</time></trkpt><trkpt lat="14.055088764820912" lon="120.85205329017559"><ele>593.0</ele><time>2026-04-04T02:29:19Z</time></trkpt><trkpt lat="14.054971912989393" lon="120.85210990091967"><ele>593.0</ele><time>2026-04-04T02:29:21Z</time></trkpt><trkpt lat="14.054895447715111" lon="120.85211350399321"><ele>593.0</ele><time>2026-04-04T02:29:22Z</time></trkpt><trkpt lat="14.054805704433042" lon="120.8521373498609"><ele>593.0</ele><time>2026-04-04T02:29:23Z</time></trkpt><trkpt lat="14.054723882585222" lon="120.85216812614357"><ele>593.0</ele><time>2026-04-04T02:29:24Z</time></trkpt><trkpt lat="14.05463174922212" lon="120.85221567245166"><ele>593.1999999999999</ele><time>2026-04-04T02:29:25Z</time></trkpt><trkpt lat="14.05454049290388" lon="120.85226158603334"><ele>593.4</ele><time>2026-04-04T02:29:26Z</time></trkpt><trkpt lat="14.054444326217874" lon="120.8523109468534"><ele>593.5999999999999</ele><time>2026-04-04T02:29:27Z</time></trkpt><trkpt lat="14.054364379552991" lon="120.85235407929841"><ele>593.8</ele><time>2026-04-04T02:29:28Z</time></trkpt><trkpt lat="14.054276533944892" lon="120.85239972327562"><ele>594.0</ele><time>2026-04-04T02:29:29Z</time></trkpt><trkpt lat="14.054186486157386" lon="120.85244770327031"><ele>592.0</ele><time>2026-04-04T02:29:30Z</time></trkpt><trkpt lat="14.054091987609072" lon="120.8524997679462"><ele>590.0</ele><time>2026-04-04T02:29:31Z</time></trkpt><trkpt lat="14.054006021238148" lon="120.85254770760389"><ele>588.0</ele><time>2026-04-04T02:29:32Z</time></trkpt><trkpt lat="14.053928285177248" lon="120.85259111676909"><ele>586.0</ele><time>2026-04-04T02:29:33Z</time></trkpt><trkpt lat="14.053864910163965" lon="120.85262729703256"><ele>584.0</ele><time>2026-04-04T02:29:34Z</time></trkpt><trkpt lat="14.053791598291246" lon="120.85267051275268"><ele>582.8333333333333</ele><time>2026-04-04T02:29:35Z</time></trkpt><trkpt lat="14.053712688128412" lon="120.85271831726813"><ele>581.6666666666666</ele><time>2026-04-04T02:29:36Z</time></trkpt><trkpt lat="14.053649470267468" lon="120.85277636613765"><ele>580.5</ele><time>2026-04-04T02:29:37Z</time></trkpt><trkpt lat="14.053579338686578" lon="120.85282486125608"><ele>579.3333333333334</ele><time>2026-04-04T02:29:38Z</time></trkpt><trkpt lat="14.053506876246391" lon="120.85286943718359"><ele>578.1666666666667</ele><time>2026-04-04T02:29:39Z</time></trkpt><trkpt lat="14.05343622565175" lon="120.8529175470149"><ele>577.0</ele><time>2026-04-04T02:29:40Z</time></trkpt><trkpt lat="14.05335921551332" lon="120.85297445410117"><ele>578.6</ele><time>2026-04-04T02:29:41Z</time></trkpt><trkpt lat="14.05326408415546" lon="120.85302136634103"><ele>580.2</ele><time>2026-04-04T02:29:42Z</time></trkpt><trkpt lat="14.053173037721837" lon="120.85308337854251"><ele>581.8</ele><time>2026-04-04T02:29:43Z</time></trkpt><trkpt lat="14.053081255883479" lon="120.85314600187398"><ele>583.4</ele><time>2026-04-04T02:29:44Z</time></trkpt><trkpt lat="14.052984998591752" lon="120.8532083737279"><ele>585.0</ele><time>2026-04-04T02:29:45Z</time></trkpt><trkpt lat="14.052875356534727" lon="120.85327045314322"><ele>585.0</ele><time>2026-04-04T02:29:46Z</time></trkpt><trkpt lat="14.05276460172685" lon="120.85331856948137"><ele>585.0</ele><time>2026-04-04T02:29:47Z</time></trkpt><trkpt lat="14.052645545104596" lon="120.85335667079075"><ele>585.0</ele><time>2026-04-04T02:29:48Z</time></trkpt><trkpt lat="14.052533780602396" lon="120.85340088308554"><ele>585.0</ele><time>2026-04-04T02:29:49Z</time></trkpt><trkpt lat="14.052433940541825" lon="120.85344588365133"><ele>584.6</ele><time>2026-04-04T02:29:50Z</time></trkpt><trkpt lat="14.052344488423293" lon="120.85349981241085"><ele>584.2</ele><time>2026-04-04T02:29:51Z</time></trkpt><trkpt lat="14.052263566860056" lon="120.85355721618521"><ele>583.8</ele><time>2026-04-04T02:29:52Z</time></trkpt><trkpt lat="14.052182090457489" lon="120.85361806759951"><ele>583.4</ele><time>2026-04-04T02:29:53Z</time></trkpt><trkpt lat="14.052095336717267" lon="120.85368567227165"><ele>583.0</ele><time>2026-04-04T02:29:54Z</time></trkpt><trkpt lat="14.052013306261324" lon="120.85375762351988"><ele>583.0</ele><time>2026-04-04T02:29:55Z</time></trkpt><trkpt lat="14.05193407465903" lon="120.85383107253415"><ele>583.0</ele><time>2026-04-04T02:29:56Z</time></trkpt><trkpt lat="14.051851533718821" lon="120.85388786821801"><ele>583.0</ele><time>2026-04-04T02:29:57Z</time></trkpt><trkpt lat="14.0517692606761" lon="120.8539262079104"><ele>583.0</ele><time>2026-04-04T02:29:58Z</time></trkpt><trkpt lat="14.051683725782736" lon="120.85394576847341"><ele>583.0</ele><time>2026-04-04T02:29:59Z</time></trkpt><trkpt lat="14.051583610630937" lon="120.85393527334394"><ele>579.25</ele><time>2026-04-04T02:30:00Z</time></trkpt><trkpt lat="14.051481318950707" lon="120.85391048218563"><ele>575.5</ele><time>2026-04-04T02:30:01Z</time></trkpt><trkpt lat="14.051367347862232" lon="120.85386835806109"><ele>571.75</ele><time>2026-04-04T02:30:02Z</time></trkpt><trkpt lat="14.051253790346532" lon="120.85382281862798"><ele>568.0</ele><time>2026-04-04T02:30:03Z</time></trkpt><trkpt lat="14.051132763317979" lon="120.85377433175525"><ele>568.0</ele><time>2026-04-04T02:30:04Z</time></trkpt><trkpt lat="14.051009500004248" lon="120.85372859625609"><ele>568.0</ele><time>2026-04-04T02:30:05Z</time></trkpt><trkpt lat="14.050893904883607" lon="120.8536816495892"><ele>568.0</ele><time>2026-04-04T02:30:06Z</time></trkpt><trkpt lat="14.050782239051905" lon="120.8536503472927"><ele>568.0</ele><time>2026-04-04T02:30:07Z</time></trkpt><trkpt lat="14.05067193260111" lon="120.85363752283823"><ele>567.1999999999999</ele><time>2026-04-04T02:30:08Z</time></trkpt><trkpt lat="14.050569567803752" lon="120.85361282663276"><ele>566.4</ele><time>2026-04-04T02:30:09Z</time></trkpt><trkpt lat="14.050468831848375" lon="120.85360114407446"><ele>565.5999999999999</ele><time>2026-04-04T02:30:10Z</time></trkpt><trkpt lat="14.05036759963864" lon="120.853588820031"><ele>564.8</ele><time>2026-04-04T02:30:11Z</time></trkpt><trkpt lat="14.050275739624741" lon="120.85357735529449"><ele>564.0</ele><time>2026-04-04T02:30:12Z</time></trkpt><trkpt lat="14.050196468395596" lon="120.85356845064274"><ele>564.0</ele><time>2026-04-04T02:30:13Z</time></trkpt><trkpt lat="14.050087865105802" lon="120.85355793618378"><ele>564.0</ele><time>2026-04-04T02:30:15Z</time></trkpt><trkpt lat="14.050021020058681" lon="120.85355146456052"><ele>564.0</ele><time>2026-04-04T02:30:17Z</time></trkpt><trkpt lat="14.04993333234644" lon="120.85354873277"><ele>564.0</ele><time>2026-04-04T02:31:11Z</time></trkpt><trkpt lat="14.049859146040756" lon="120.8535547119622"><ele>564.0</ele><time>2026-04-04T02:31:13Z</time></trkpt><trkpt lat="14.049755603229366" lon="120.85356210975017"><ele>564.0</ele><time>2026-04-04T02:31:15Z</time></trkpt><trkpt lat="14.049652487060158" lon="120.85357403923997"><ele>564.5</ele><time>2026-04-04T02:31:17Z</time></trkpt><trkpt lat="14.049540715099901" lon="120.853586970116"><ele>565.0</ele><time>2026-04-04T02:31:19Z</time></trkpt><trkpt lat="14.04941565451637" lon="120.85360143835035"><ele>565.5</ele><time>2026-04-04T02:31:21Z</time></trkpt><trkpt lat="14.049312040563585" lon="120.85361342542885"><ele>566.0</ele><time>2026-04-04T02:31:23Z</time></trkpt><trkpt lat="14.049188663579416" lon="120.85362769888766"><ele>566.0</ele><time>2026-04-04T02:31:25Z</time></trkpt><trkpt lat="14.049113406311799" lon="120.85363640538655"><ele>566.0</ele><time>2026-04-04T02:31:26Z</time></trkpt><trkpt lat="14.049023778091396" lon="120.85364782099893"><ele>566.0</ele><time>2026-04-04T02:31:27Z</time></trkpt><trkpt lat="14.048950369786295" lon="120.85365994567364"><ele>566.0</ele><time>2026-04-04T02:31:28Z</time></trkpt><trkpt lat="14.048873296435794" lon="120.85367422044796"><ele>566.0</ele><time>2026-04-04T02:31:29Z</time></trkpt><trkpt lat="14.048797945333341" lon="120.85368964018782"><ele>566.0</ele><time>2026-04-04T02:31:30Z</time></trkpt><trkpt lat="14.04873558908356" lon="120.85370662968992"><ele>566.0</ele><time>2026-04-04T02:31:31Z</time></trkpt><trkpt lat="14.048645794783166" lon="120.85373022343917"><ele>566.0</ele><time>2026-04-04T02:31:33Z</time></trkpt><trkpt lat="14.04854202733159" lon="120.85375982503759"><ele>566.0</ele><time>2026-04-04T02:31:35Z</time></trkpt><trkpt lat="14.048478896352108" lon="120.85377183878578"><ele>566.0</ele><time>2026-04-04T02:31:36Z</time></trkpt><trkpt lat="14.0484113698485" lon="120.85378468897646"><ele>566.0</ele><time>2026-04-04T02:31:37Z</time></trkpt><trkpt lat="14.048342138503463" lon="120.85379197033643"><ele>566.0</ele><time>2026-04-04T02:31:38Z</time></trkpt><trkpt lat="14.048264831626303" lon="120.85379810514176"><ele>567.5</ele><time>2026-04-04T02:31:39Z</time></trkpt><trkpt lat="14.048189308930805" lon="120.85380430525707"><ele>569.0</ele><time>2026-04-04T02:31:40Z</time></trkpt><trkpt lat="14.04811574446488" lon="120.85381745931328"><ele>570.5</ele><time>2026-04-04T02:31:41Z</time></trkpt><trkpt lat="14.048046683635858" lon="120.85383113207114"><ele>572.0</ele><time>2026-04-04T02:31:42Z</time></trkpt><trkpt lat="14.047957085265374" lon="120.85386001771921"><ele>573.5</ele><time>2026-04-04T02:31:43Z</time></trkpt><trkpt lat="14.047874513607924" lon="120.85389075652787"><ele>575.0</ele><time>2026-04-04T02:31:44Z</time></trkpt><trkpt lat="14.047788624918041" lon="120.853927937307"><ele>575.0</ele><time>2026-04-04T02:31:45Z</time></trkpt><trkpt lat="14.047703877929148" lon="120.85396703900932"><ele>575.0</ele><time>2026-04-04T02:31:46Z</time></trkpt><trkpt lat="14.04761385096812" lon="120.85400852853128"><ele>575.0</ele><time>2026-04-04T02:31:47Z</time></trkpt><trkpt lat="14.047523092874927" lon="120.85405048160925"><ele>575.0</ele><time>2026-04-04T02:31:48Z</time></trkpt><trkpt lat="14.047431777936438" lon="120.8540929971177"><ele>575.0</ele><time>2026-04-04T02:31:49Z</time></trkpt><trkpt lat="14.047343982381694" lon="120.85413386690452"><ele>574.0</ele><time>2026-04-04T02:31:50Z</time></trkpt><trkpt lat="14.047259925215556" lon="120.85417297995299"><ele>573.0</ele><time>2026-04-04T02:31:51Z</time></trkpt><trkpt lat="14.047174508784114" lon="120.85421274790242"><ele>572.0</ele><time>2026-04-04T02:31:52Z</time></trkpt><trkpt lat="14.047095568926094" lon="120.85424970786083"><ele>571.0</ele><time>2026-04-04T02:31:53Z</time></trkpt><trkpt lat="14.047019337222682" lon="120.85428565917124"><ele>570.0</ele><time>2026-04-04T02:31:54Z</time></trkpt><trkpt lat="14.04694894373387" lon="120.85431954279298"><ele>569.0</ele><time>2026-04-04T02:31:55Z</time></trkpt><trkpt lat="14.046865514759398" lon="120.85436603717996"><ele>567.6666666666666</ele><time>2026-04-04T02:31:56Z</time></trkpt><trkpt lat="14.046797033670616" lon="120.85441171016438"><ele>566.3333333333333</ele><time>2026-04-04T02:31:57Z</time></trkpt><trkpt lat="14.04672482194647" lon="120.8544906913182"><ele>565.0</ele><time>2026-04-04T02:31:58Z</time></trkpt><trkpt lat="14.04666027597828" lon="120.85455055285965"><ele>563.6666666666666</ele><time>2026-04-04T02:31:59Z</time></trkpt><trkpt lat="14.046596056629982" lon="120.85459973584575"><ele>562.3333333333334</ele><time>2026-04-04T02:32:00Z</time></trkpt><trkpt lat="14.046514345328713" lon="120.85464952533715"><ele>561.0</ele><time>2026-04-04T02:32:01Z</time></trkpt><trkpt lat="14.04643984042828" lon="120.85469294429926"><ele>565.4</ele><time>2026-04-04T02:32:02Z</time></trkpt><trkpt lat="14.046367483587836" lon="120.8547344636908"><ele>569.8</ele><time>2026-04-04T02:32:03Z</time></trkpt><trkpt lat="14.046296227869574" lon="120.8547788953333"><ele>574.1999999999999</ele><time>2026-04-04T02:32:04Z</time></trkpt><trkpt lat="14.046219088492034" lon="120.85484402281605"><ele>578.6</ele><time>2026-04-04T02:32:05Z</time></trkpt><trkpt lat="14.046146659783181" lon="120.85491253715328"><ele>583.0</ele><time>2026-04-04T02:32:06Z</time></trkpt><trkpt lat="14.046075712392641" lon="120.8549840602239"><ele>583.0</ele><time>2026-04-04T02:32:07Z</time></trkpt><trkpt lat="14.046001863328133" lon="120.85506768877636"><ele>583.0</ele><time>2026-04-04T02:32:08Z</time></trkpt><trkpt lat="14.04593552893777" lon="120.8551434907191"><ele>583.0</ele><time>2026-04-04T02:32:09Z</time></trkpt><trkpt lat="14.045865206060109" lon="120.85522407736698"><ele>583.0</ele><time>2026-04-04T02:32:10Z</time></trkpt><trkpt lat="14.04579981623428" lon="120.85529929703554"><ele>583.0</ele><time>2026-04-04T02:32:11Z</time></trkpt><trkpt lat="14.045735812742228" lon="120.85536670805239"><ele>581.8</ele><time>2026-04-04T02:32:12Z</time></trkpt><trkpt lat="14.045669307693455" lon="120.85543386626503"><ele>580.5999999999999</ele><time>2026-04-04T02:32:13Z</time></trkpt><trkpt lat="14.045600393857807" lon="120.8554730111108"><ele>579.4000000000001</ele><time>2026-04-04T02:32:14Z</time></trkpt><trkpt lat="14.045516604165341" lon="120.85552069410112"><ele>578.2</ele><time>2026-04-04T02:32:15Z</time></trkpt><trkpt lat="14.045424277294352" lon="120.85557371666276"><ele>577.0</ele><time>2026-04-04T02:32:16Z</time></trkpt><trkpt lat="14.0453320174491" lon="120.8556291193249"><ele>577.0</ele><time>2026-04-04T02:32:17Z</time></trkpt><trkpt lat="14.04523904977343" lon="120.85570474954392"><ele>577.0</ele><time>2026-04-04T02:32:18Z</time></trkpt><trkpt lat="14.045159999939516" lon="120.85577341846677"><ele>577.0</ele><time>2026-04-04T02:32:19Z</time></trkpt><trkpt lat="14.045081453438318" lon="120.85584101970332"><ele>577.0</ele><time>2026-04-04T02:32:20Z</time></trkpt><trkpt lat="14.045006953587906" lon="120.85590193711181"><ele>577.0</ele><time>2026-04-04T02:32:21Z</time></trkpt><trkpt lat="14.044929410384668" lon="120.85596453226368"><ele>571.1666666666667</ele><time>2026-04-04T02:32:22Z</time></trkpt><trkpt lat="14.044861646034539" lon="120.85604386497317"><ele>565.3333333333334</ele><time>2026-04-04T02:32:23Z</time></trkpt><trkpt lat="14.044801918806693" lon="120.85611338600003"><ele>559.5</ele><time>2026-04-04T02:32:24Z</time></trkpt><trkpt lat="14.044752398179279" lon="120.85617785208996"><ele>553.6666666666666</ele><time>2026-04-04T02:32:25Z</time></trkpt><trkpt lat="14.044711375437517" lon="120.85623178338493"><ele>547.8333333333333</ele><time>2026-04-04T02:32:26Z</time></trkpt><trkpt lat="14.04463851331076" lon="120.85623716623792"><ele>542.0</ele><time>2026-04-04T02:32:28Z</time></trkpt><trkpt lat="14.044515980878508" lon="120.85624774579348"><ele>542.0</ele><time>2026-04-04T02:32:30Z</time></trkpt><trkpt lat="14.044438550707019" lon="120.85625201466964"><ele>542.0</ele><time>2026-04-04T02:32:31Z</time></trkpt><trkpt lat="14.044359260016051" lon="120.8562573169616"><ele>542.0</ele><time>2026-04-04T02:32:32Z</time></trkpt><trkpt lat="14.044281605439974" lon="120.85625909894993"><ele>542.0</ele><time>2026-04-04T02:32:33Z</time></trkpt><trkpt lat="14.044207618266398" lon="120.85625011936273"><ele>542.0</ele><time>2026-04-04T02:32:34Z</time></trkpt><trkpt lat="14.044128206653511" lon="120.85622665070717"><ele>542.0</ele><time>2026-04-04T02:32:35Z</time></trkpt><trkpt lat="14.04406778782001" lon="120.85619298715721"><ele>541.0</ele><time>2026-04-04T02:32:36Z</time></trkpt><trkpt lat="14.04400531899178" lon="120.85615316537007"><ele>540.0</ele><time>2026-04-04T02:32:37Z</time></trkpt><trkpt lat="14.043943248539955" lon="120.85611261887667"><ele>539.0</ele><time>2026-04-04T02:32:38Z</time></trkpt><trkpt lat="14.043856309541738" lon="120.8560833348768"><ele>538.0</ele><time>2026-04-04T02:32:39Z</time></trkpt><trkpt lat="14.043749275578197" lon="120.85608057504498"><ele>537.0</ele><time>2026-04-04T02:32:40Z</time></trkpt><trkpt lat="14.043652010888941" lon="120.85607858509596"><ele>536.0</ele><time>2026-04-04T02:32:41Z</time></trkpt><trkpt lat="14.043542798559315" lon="120.85608202846844"><ele>536.0</ele><time>2026-04-04T02:32:42Z</time></trkpt><trkpt lat="14.043431419835374" lon="120.85610723890792"><ele>536.0</ele><time>2026-04-04T02:32:43Z</time></trkpt><trkpt lat="14.043325495270844" lon="120.85614019590028"><ele>536.0</ele><time>2026-04-04T02:32:44Z</time></trkpt><trkpt lat="14.043221143617158" lon="120.85618054304472"><ele>536.0</ele><time>2026-04-04T02:32:45Z</time></trkpt><trkpt lat="14.04311657783979" lon="120.85622333972118"><ele>536.0</ele><time>2026-04-04T02:32:46Z</time></trkpt><trkpt lat="14.043005347118708" lon="120.8562681202638"><ele>538.5</ele><time>2026-04-04T02:32:47Z</time></trkpt><trkpt lat="14.042889774598086" lon="120.8563153615785"><ele>541.0</ele><time>2026-04-04T02:32:48Z</time></trkpt><trkpt lat="14.042775711828659" lon="120.8563621387278"><ele>543.5</ele><time>2026-04-04T02:32:49Z</time></trkpt><trkpt lat="14.042656520000987" lon="120.85641130887903"><ele>546.0</ele><time>2026-04-04T02:32:50Z</time></trkpt><trkpt lat="14.04253754369452" lon="120.85645936722302"><ele>548.25</ele><time>2026-04-04T02:32:51Z</time></trkpt><trkpt lat="14.042425441545513" lon="120.85650560683524"><ele>550.5</ele><time>2026-04-04T02:32:52Z</time></trkpt><trkpt lat="14.042317584259257" lon="120.85654938427486"><ele>552.75</ele><time>2026-04-04T02:32:53Z</time></trkpt><trkpt lat="14.04221403276757" lon="120.85659153396554"><ele>555.0</ele><time>2026-04-04T02:32:54Z</time></trkpt><trkpt lat="14.042118930075127" lon="120.8566292179828"><ele>555.0</ele><time>2026-04-04T02:32:55Z</time></trkpt><trkpt lat="14.042022973317696" lon="120.85666649982286"><ele>555.0</ele><time>2026-04-04T02:32:56Z</time></trkpt><trkpt lat="14.041928827549555" lon="120.85669981651887"><ele>555.0</ele><time>2026-04-04T02:32:57Z</time></trkpt><trkpt lat="14.041829432075758" lon="120.85673159072472"><ele>555.0</ele><time>2026-04-04T02:32:58Z</time></trkpt><trkpt lat="14.041729605888992" lon="120.85676425713677"><ele>555.0</ele><time>2026-04-04T02:32:59Z</time></trkpt><trkpt lat="14.041630117997308" lon="120.85679313637613"><ele>555.2</ele><time>2026-04-04T02:33:00Z</time></trkpt><trkpt lat="14.041529889850905" lon="120.85680890502539"><ele>555.4</ele><time>2026-04-04T02:33:01Z</time></trkpt><trkpt lat="14.041426481534353" lon="120.85680835512656"><ele>555.6</ele><time>2026-04-04T02:33:02Z</time></trkpt><trkpt lat="14.041321061079953" lon="120.85678890748856"><ele>555.8</ele><time>2026-04-04T02:33:03Z</time></trkpt><trkpt lat="14.041209102469203" lon="120.85676718257072"><ele>556.0</ele><time>2026-04-04T02:33:04Z</time></trkpt><trkpt lat="14.041097252705017" lon="120.85674493792129"><ele>556.0</ele><time>2026-04-04T02:33:05Z</time></trkpt><trkpt lat="14.040980408847844" lon="120.85672869534834"><ele>556.0</ele><time>2026-04-04T02:33:06Z</time></trkpt><trkpt lat="14.040859471178043" lon="120.8567207564995"><ele>556.0</ele><time>2026-04-04T02:33:07Z</time></trkpt><trkpt lat="14.040727123379991" lon="120.85673280880145"><ele>556.0</ele><time>2026-04-04T02:33:08Z</time></trkpt><trkpt lat="14.040600130666766" lon="120.85675684607742"><ele>553.75</ele><time>2026-04-04T02:33:09Z</time></trkpt><trkpt lat="14.040481483135725" lon="120.85676769767775"><ele>551.5</ele><time>2026-04-04T02:33:10Z</time></trkpt><trkpt lat="14.040355227964257" lon="120.85677116452031"><ele>549.25</ele><time>2026-04-04T02:33:11Z</time></trkpt><trkpt lat="14.040231265011352" lon="120.85681014924997"><ele>547.0</ele><time>2026-04-04T02:33:12Z</time></trkpt><trkpt lat="14.040113521031325" lon="120.8568100993214"><ele>546.75</ele><time>2026-04-04T02:33:13Z</time></trkpt><trkpt lat="14.040001805831544" lon="120.85680536192349"><ele>546.5</ele><time>2026-04-04T02:33:14Z</time></trkpt><trkpt lat="14.039886584872956" lon="120.85679877271227"><ele>546.25</ele><time>2026-04-04T02:33:15Z</time></trkpt><trkpt lat="14.039778794238764" lon="120.856756001334"><ele>546.0</ele><time>2026-04-04T02:33:16Z</time></trkpt><trkpt lat="14.039661103586289" lon="120.85672606215996"><ele>546.0</ele><time>2026-04-04T02:33:17Z</time></trkpt><trkpt lat="14.039536028015204" lon="120.85669290332429"><ele>546.0</ele><time>2026-04-04T02:33:18Z</time></trkpt><trkpt lat="14.0394280843686" lon="120.85664088042698"><ele>546.0</ele><time>2026-04-04T02:33:19Z</time></trkpt><trkpt lat="14.039321605731415" lon="120.85660736142664"><ele>546.0</ele><time>2026-04-04T02:33:20Z</time></trkpt><trkpt lat="14.039222555857874" lon="120.8565879471248"><ele>547.0</ele><time>2026-04-04T02:33:21Z</time></trkpt><trkpt lat="14.039126571972012" lon="120.8565533251983"><ele>548.0</ele><time>2026-04-04T02:33:22Z</time></trkpt><trkpt lat="14.039033101005067" lon="120.85654848449371"><ele>549.0</ele><time>2026-04-04T02:33:23Z</time></trkpt><trkpt lat="14.038948074217522" lon="120.85655333297314"><ele>550.0</ele><time>2026-04-04T02:33:24Z</time></trkpt><trkpt lat="14.038869185146982" lon="120.8565647857138"><ele>551.0</ele><time>2026-04-04T02:33:25Z</time></trkpt><trkpt lat="14.038789722419585" lon="120.85659408759922"><ele>552.0</ele><time>2026-04-04T02:33:27Z</time></trkpt><trkpt lat="14.038728764876431" lon="120.85662472590313"><ele>552.0</ele><time>2026-04-04T02:33:29Z</time></trkpt><trkpt lat="14.038652846319223" lon="120.85667273419064"><ele>552.0</ele><time>2026-04-04T02:33:31Z</time></trkpt><trkpt lat="14.038570634639084" lon="120.85675497229451"><ele>552.0</ele><time>2026-04-04T02:33:33Z</time></trkpt><trkpt lat="14.038527539057151" lon="120.85681029004947"><ele>552.0</ele><time>2026-04-04T02:33:34Z</time></trkpt><trkpt lat="14.03843273669999" lon="120.85689773164712"><ele>552.0</ele><time>2026-04-04T02:33:36Z</time></trkpt><trkpt lat="14.03837883226273" lon="120.8569329769107"><ele>549.8333333333334</ele><time>2026-04-04T02:33:37Z</time></trkpt><trkpt lat="14.038296723770713" lon="120.85692535669425"><ele>547.6666666666666</ele><time>2026-04-04T02:33:38Z</time></trkpt><trkpt lat="14.038213804452566" lon="120.85692800461867"><ele>545.5</ele><time>2026-04-04T02:33:39Z</time></trkpt><trkpt lat="14.038140427215373" lon="120.85693120595357"><ele>543.3333333333333</ele><time>2026-04-04T02:33:40Z</time></trkpt><trkpt lat="14.038060530723639" lon="120.85694422116563"><ele>541.1666666666666</ele><time>2026-04-04T02:33:41Z</time></trkpt><trkpt lat="14.037986391820505" lon="120.85697045529969"><ele>539.0</ele><time>2026-04-04T02:33:42Z</time></trkpt><trkpt lat="14.037901020751915" lon="120.85701587859327"><ele>539.0</ele><time>2026-04-04T02:33:43Z</time></trkpt><trkpt lat="14.037824353128508" lon="120.8570701118568"><ele>539.0</ele><time>2026-04-04T02:33:44Z</time></trkpt><trkpt lat="14.037757518728469" lon="120.85714016423654"><ele>539.0</ele><time>2026-04-04T02:33:45Z</time></trkpt><trkpt lat="14.037699115297205" lon="120.85719775093928"><ele>539.0</ele><time>2026-04-04T02:33:46Z</time></trkpt><trkpt lat="14.037632438794878" lon="120.85726349523654"><ele>539.0</ele><time>2026-04-04T02:33:47Z</time></trkpt><trkpt lat="14.037603715145284" lon="120.85735142185189"><ele>539.0</ele><time>2026-04-04T02:33:48Z</time></trkpt><trkpt lat="14.03755405513852" lon="120.8574137053238"><ele>539.0</ele><time>2026-04-04T02:33:49Z</time></trkpt><trkpt lat="14.037461367782962" lon="120.85747103360158"><ele>539.0</ele><time>2026-04-04T02:33:51Z</time></trkpt><trkpt lat="14.03739776147933" lon="120.85748562572714"><ele>539.0</ele><time>2026-04-04T02:33:52Z</time></trkpt><trkpt lat="14.037311370931006" lon="120.8574996001806"><ele>539.0</ele><time>2026-04-04T02:33:53Z</time></trkpt><trkpt lat="14.037220866123082" lon="120.85751231122684"><ele>539.0</ele><time>2026-04-04T02:33:54Z</time></trkpt><trkpt lat="14.037119295231935" lon="120.85752455037583"><ele>537.6</ele><time>2026-04-04T02:33:55Z</time></trkpt><trkpt lat="14.037024316831584" lon="120.85753599173776"><ele>536.2</ele><time>2026-04-04T02:33:56Z</time></trkpt><trkpt lat="14.036919487177634" lon="120.85755730287991"><ele>534.8000000000001</ele><time>2026-04-04T02:33:57Z</time></trkpt><trkpt lat="14.036816308900221" lon="120.85758006173225"><ele>533.4</ele><time>2026-04-04T02:33:58Z</time></trkpt><trkpt lat="14.036716005406413" lon="120.8576011580712"><ele>532.0</ele><time>2026-04-04T02:33:59Z</time></trkpt><trkpt lat="14.036605836328613" lon="120.85762432938455"><ele>531.0</ele><time>2026-04-04T02:34:00Z</time></trkpt><trkpt lat="14.03650274757086" lon="120.8576320861697"><ele>530.0</ele><time>2026-04-04T02:34:01Z</time></trkpt><trkpt lat="14.036401620240062" lon="120.85762756688564"><ele>529.0</ele><time>2026-04-04T02:34:02Z</time></trkpt><trkpt lat="14.036294985882975" lon="120.85761921787282"><ele>528.0</ele><time>2026-04-04T02:34:03Z</time></trkpt><trkpt lat="14.036193811665404" lon="120.85761128213758"><ele>527.0</ele><time>2026-04-04T02:34:04Z</time></trkpt><trkpt lat="14.036089700797394" lon="120.85760286062626"><ele>527.0</ele><time>2026-04-04T02:34:05Z</time></trkpt><trkpt lat="14.035991607032797" lon="120.8576080128177"><ele>527.0</ele><time>2026-04-04T02:34:06Z</time></trkpt><trkpt lat="14.035882620557064" lon="120.85762385154213"><ele>527.0</ele><time>2026-04-04T02:34:07Z</time></trkpt><trkpt lat="14.035782664324328" lon="120.85764243934146"><ele>527.0</ele><time>2026-04-04T02:34:08Z</time></trkpt><trkpt lat="14.035690002310902" lon="120.85764999663493"><ele>527.0</ele><time>2026-04-04T02:34:09Z</time></trkpt><trkpt lat="14.035602879200965" lon="120.85764738529792"><ele>525.8333333333333</ele><time>2026-04-04T02:34:10Z</time></trkpt><trkpt lat="14.035526512205866" lon="120.85764091043823"><ele>524.6666666666666</ele><time>2026-04-04T02:34:11Z</time></trkpt><trkpt lat="14.035451337699632" lon="120.85765042981734"><ele>523.5</ele><time>2026-04-04T02:34:12Z</time></trkpt><trkpt lat="14.035377191953435" lon="120.85760490411205"><ele>522.3333333333334</ele><time>2026-04-04T02:34:13Z</time></trkpt><trkpt lat="14.035286684318365" lon="120.8575829541971"><ele>521.1666666666667</ele><time>2026-04-04T02:34:14Z</time></trkpt><trkpt lat="14.035196001715354" lon="120.85756069349706"><ele>520.0</ele><time>2026-04-04T02:34:15Z</time></trkpt><trkpt lat="14.035092832187875" lon="120.85753520827019"><ele>520.0</ele><time>2026-04-04T02:34:16Z</time></trkpt><trkpt lat="14.034985083509357" lon="120.8575255537652"><ele>520.0</ele><time>2026-04-04T02:34:17Z</time></trkpt><trkpt lat="14.034878519063561" lon="120.85749794715159"><ele>520.0</ele><time>2026-04-04T02:34:18Z</time></trkpt><trkpt lat="14.034771644478175" lon="120.85747069274844"><ele>520.0</ele><time>2026-04-04T02:34:19Z</time></trkpt><trkpt lat="14.034668546414716" lon="120.85744202585165"><ele>520.0</ele><time>2026-04-04T02:34:20Z</time></trkpt><trkpt lat="14.03457515310819" lon="120.8574054874875"><ele>520.0</ele><time>2026-04-04T02:34:21Z</time></trkpt><trkpt lat="14.034472298367128" lon="120.85738305045989"><ele>520.0</ele><time>2026-04-04T02:34:22Z</time></trkpt><trkpt lat="14.03436180071524" lon="120.85737706408511"><ele>520.0</ele><time>2026-04-04T02:34:23Z</time></trkpt><trkpt lat="14.034242717319248" lon="120.85738989392867"><ele>520.0</ele><time>2026-04-04T02:34:24Z</time></trkpt><trkpt lat="14.034124796039999" lon="120.85740689413159"><ele>519.8</ele><time>2026-04-04T02:34:25Z</time></trkpt><trkpt lat="14.034011935577295" lon="120.8574231647394"><ele>519.6</ele><time>2026-04-04T02:34:26Z</time></trkpt><trkpt lat="14.033903300888957" lon="120.85743364677782"><ele>519.4</ele><time>2026-04-04T02:34:27Z</time></trkpt><trkpt lat="14.033794160725005" lon="120.85744131412278"><ele>519.2</ele><time>2026-04-04T02:34:28Z</time></trkpt><trkpt lat="14.033678643285485" lon="120.8574342037812"><ele>519.0</ele><time>2026-04-04T02:34:29Z</time></trkpt><trkpt lat="14.03357520510747" lon="120.85742552679818"><ele>519.0</ele><time>2026-04-04T02:34:30Z</time></trkpt><trkpt lat="14.033461365154631" lon="120.85741508364063"><ele>519.0</ele><time>2026-04-04T02:34:31Z</time></trkpt><trkpt lat="14.033345238191398" lon="120.85740225129622"><ele>519.0</ele><time>2026-04-04T02:34:32Z</time></trkpt><trkpt lat="14.033237129956486" lon="120.85739021304536"><ele>519.0</ele><time>2026-04-04T02:34:33Z</time></trkpt><trkpt lat="14.0331211722149" lon="120.85738680166772"><ele>519.8</ele><time>2026-04-04T02:34:34Z</time></trkpt><trkpt lat="14.03302639446938" lon="120.85739194846522"><ele>520.5999999999999</ele><time>2026-04-04T02:34:35Z</time></trkpt><trkpt lat="14.032920110164186" lon="120.85741843867808"><ele>521.4</ele><time>2026-04-04T02:34:36Z</time></trkpt><trkpt lat="14.032816560184932" lon="120.85745063183828"><ele>522.1999999999999</ele><time>2026-04-04T02:34:37Z</time></trkpt><trkpt lat="14.032708914524038" lon="120.85750614383414"><ele>523.0</ele><time>2026-04-04T02:34:38Z</time></trkpt><trkpt lat="14.032603832250821" lon="120.8575853888806"><ele>519.25</ele><time>2026-04-04T02:34:39Z</time></trkpt><trkpt lat="14.032512450246102" lon="120.85767667550957"><ele>515.5</ele><time>2026-04-04T02:34:40Z</time></trkpt><trkpt lat="14.032416129279122" lon="120.857777078695"><ele>511.75</ele><time>2026-04-04T02:34:41Z</time></trkpt><trkpt lat="14.03232905973537" lon="120.85786837284121"><ele>508.0</ele><time>2026-04-04T02:34:42Z</time></trkpt><trkpt lat="14.032235881775323" lon="120.85797026193914"><ele>508.0</ele><time>2026-04-04T02:34:43Z</time></trkpt><trkpt lat="14.0321451600586" lon="120.85806865682407"><ele>508.0</ele><time>2026-04-04T02:34:44Z</time></trkpt><trkpt lat="14.032047399652713" lon="120.85817608247714"><ele>508.0</ele><time>2026-04-04T02:34:45Z</time></trkpt><trkpt lat="14.031954441833053" lon="120.85827866269543"><ele>508.0</ele><time>2026-04-04T02:34:46Z</time></trkpt><trkpt lat="14.031854196477347" lon="120.85838862937379"><ele>507.5</ele><time>2026-04-04T02:34:47Z</time></trkpt><trkpt lat="14.031758287677919" lon="120.85849678823634"><ele>507.0</ele><time>2026-04-04T02:34:48Z</time></trkpt><trkpt lat="14.031668920322304" lon="120.85861973445554"><ele>506.5</ele><time>2026-04-04T02:34:49Z</time></trkpt><trkpt lat="14.03157979886986" lon="120.85873155824105"><ele>506.0</ele><time>2026-04-04T02:34:50Z</time></trkpt><trkpt lat="14.031489330265495" lon="120.85884438109741"><ele>506.0</ele><time>2026-04-04T02:34:51Z</time></trkpt><trkpt lat="14.031397173443542" lon="120.85895967537455"><ele>506.0</ele><time>2026-04-04T02:34:52Z</time></trkpt><trkpt lat="14.031309021698025" lon="120.85907746897773"><ele>506.0</ele><time>2026-04-04T02:34:53Z</time></trkpt><trkpt lat="14.031225543019923" lon="120.85917642064301"><ele>506.0</ele><time>2026-04-04T02:34:54Z</time></trkpt><trkpt lat="14.03113337531922" lon="120.85924745646932"><ele>503.0</ele><time>2026-04-04T02:34:55Z</time></trkpt><trkpt lat="14.031019642007898" lon="120.85930650278573"><ele>500.0</ele><time>2026-04-04T02:34:56Z</time></trkpt><trkpt lat="14.03090082538314" lon="120.85936141097386"><ele>497.0</ele><time>2026-04-04T02:34:57Z</time></trkpt><trkpt lat="14.030780016282373" lon="120.85941779060079"><ele>494.0</ele><time>2026-04-04T02:34:58Z</time></trkpt><trkpt lat="14.03065870248696" lon="120.8594691948388"><ele>494.0</ele><time>2026-04-04T02:34:59Z</time></trkpt><trkpt lat="14.030554861551309" lon="120.85948243727395"><ele>494.0</ele><time>2026-04-04T02:35:00Z</time></trkpt><trkpt lat="14.030430855839663" lon="120.85949946471625"><ele>494.0</ele><time>2026-04-04T02:35:01Z</time></trkpt><trkpt lat="14.03031475677786" lon="120.85951107030363"><ele>494.0</ele><time>2026-04-04T02:35:02Z</time></trkpt><trkpt lat="14.03020881281437" lon="120.85952085493902"><ele>494.0</ele><time>2026-04-04T02:35:03Z</time></trkpt><trkpt lat="14.030093093378008" lon="120.8595343749896"><ele>494.0</ele><time>2026-04-04T02:35:04Z</time></trkpt><trkpt lat="14.029987111000985" lon="120.85955919076409"><ele>494.0</ele><time>2026-04-04T02:35:05Z</time></trkpt><trkpt lat="14.029894207728422" lon="120.85958389662005"><ele>494.0</ele><time>2026-04-04T02:35:06Z</time></trkpt><trkpt lat="14.02979540391781" lon="120.85965882096508"><ele>494.0</ele><time>2026-04-04T02:35:07Z</time></trkpt><trkpt lat="14.029721816984107" lon="120.85970366958178"><ele>495.4</ele><time>2026-04-04T02:35:08Z</time></trkpt><trkpt lat="14.02965056332443" lon="120.85979637262461"><ele>496.79999999999995</ele><time>2026-04-04T02:35:09Z</time></trkpt><trkpt lat="14.029583649589513" lon="120.85987062459797"><ele>498.20000000000005</ele><time>2026-04-04T02:35:10Z</time></trkpt><trkpt lat="14.029523977416266" lon="120.85993676862614"><ele>499.6</ele><time>2026-04-04T02:35:11Z</time></trkpt><trkpt lat="14.029451064417465" lon="120.8600175892364"><ele>501.0</ele><time>2026-04-04T02:35:12Z</time></trkpt><trkpt lat="14.029380395696192" lon="120.86006049092884"><ele>501.0</ele><time>2026-04-04T02:35:13Z</time></trkpt><trkpt lat="14.029299003712634" lon="120.86009563014846"><ele>501.0</ele><time>2026-04-04T02:35:14Z</time></trkpt><trkpt lat="14.029210867189882" lon="120.86013277247906"><ele>501.0</ele><time>2026-04-04T02:35:15Z</time></trkpt><trkpt lat="14.029139601884385" lon="120.86013175177115"><ele>501.0</ele><time>2026-04-04T02:35:16Z</time></trkpt><trkpt lat="14.029054160098218" lon="120.86014205576511"><ele>501.0</ele><time>2026-04-04T02:35:17Z</time></trkpt><trkpt lat="14.02896025661079" lon="120.8601524917801"><ele>501.0</ele><time>2026-04-04T02:35:18Z</time></trkpt><trkpt lat="14.028881791815433" lon="120.86015981789697"><ele>499.5</ele><time>2026-04-04T02:35:19Z</time></trkpt><trkpt lat="14.028802831021082" lon="120.86017894661993"><ele>498.0</ele><time>2026-04-04T02:35:20Z</time></trkpt><trkpt lat="14.028728869690683" lon="120.86020626108154"><ele>496.5</ele><time>2026-04-04T02:35:21Z</time></trkpt><trkpt lat="14.028637873760857" lon="120.86023980980058"><ele>495.0</ele><time>2026-04-04T02:35:22.001Z</time></trkpt><trkpt lat="14.028561665166336" lon="120.86027868651145"><ele>493.5</ele><time>2026-04-04T02:35:23.001Z</time></trkpt><trkpt lat="14.028478579842687" lon="120.86032071684954"><ele>492.0</ele><time>2026-04-04T02:35:24.001Z</time></trkpt><trkpt lat="14.028404463461596" lon="120.86035788889318"><ele>492.00000000000006</ele><time>2026-04-04T02:35:25.001Z</time></trkpt><trkpt lat="14.028320328620088" lon="120.86040008569549"><ele>492.0</ele><time>2026-04-04T02:35:26.001Z</time></trkpt><trkpt lat="14.02824539430463" lon="120.86042053597018"><ele>492.00000000000006</ele><time>2026-04-04T02:35:27.001Z</time></trkpt><trkpt lat="14.028178627606962" lon="120.86043115913166"><ele>492.00000000000006</ele><time>2026-04-04T02:35:28.001Z</time></trkpt><trkpt lat="14.028112613194512" lon="120.86043944182575"><ele>492.0</ele><time>2026-04-04T02:35:29.001Z</time></trkpt><trkpt lat="14.02804719222182" lon="120.86044381415296"><ele>492.00000000000006</ele><time>2026-04-04T02:35:30.001Z</time></trkpt><trkpt lat="14.027982159675041" lon="120.86043562241296"><ele>492.00000000000006</ele><time>2026-04-04T02:35:31.001Z</time></trkpt><trkpt lat="14.027918189700616" lon="120.86041869430885"><ele>492.1666666666667</ele><time>2026-04-04T02:35:32.001Z</time></trkpt><trkpt lat="14.027809770576345" lon="120.86037648014829"><ele>492.33333333333337</ele><time>2026-04-04T02:35:34.001Z</time></trkpt><trkpt lat="14.0277563856127" lon="120.86033999288777"><ele>492.5</ele><time>2026-04-04T02:35:35.001Z</time></trkpt><trkpt lat="14.027700418061203" lon="120.86029339023874"><ele>492.6666666666667</ele><time>2026-04-04T02:35:36.001Z</time></trkpt><trkpt lat="14.027645103298006" lon="120.86022940025377"><ele>492.83333333333337</ele><time>2026-04-04T02:35:37.001Z</time></trkpt><trkpt lat="14.027600412219849" lon="120.8601769976423"><ele>493.0</ele><time>2026-04-04T02:35:38.001Z</time></trkpt><trkpt lat="14.027559769092468" lon="120.86010149240703"><ele>494.33333333333337</ele><time>2026-04-04T02:35:40.001Z</time></trkpt><trkpt lat="14.027517614876285" lon="120.86003123538464"><ele>495.6666666666667</ele><time>2026-04-04T02:35:42.001Z</time></trkpt><trkpt lat="14.02745775026325" lon="120.85993015274036"><ele>497.0</ele><time>2026-04-04T02:35:44.001Z</time></trkpt><trkpt lat="14.027424022058387" lon="120.85986804312329"><ele>498.33333333333337</ele><time>2026-04-04T02:35:45.001Z</time></trkpt><trkpt lat="14.027389309890353" lon="120.85980139864805"><ele>499.6666666666667</ele><time>2026-04-04T02:35:46.001Z</time></trkpt><trkpt lat="14.027354695639055" lon="120.85973274424714"><ele>501.0</ele><time>2026-04-04T02:35:47.001Z</time></trkpt><trkpt lat="14.027319081366347" lon="120.85966083249635"><ele>497.3333333333333</ele><time>2026-04-04T02:35:48.001Z</time></trkpt><trkpt lat="14.027283563335512" lon="120.85959099294082"><ele>493.66666666666663</ele><time>2026-04-04T02:35:49.001Z</time></trkpt><trkpt lat="14.02723921422613" lon="120.85952932142963"><ele>490.0</ele><time>2026-04-04T02:35:50.001Z</time></trkpt><trkpt lat="14.027176132637095" lon="120.85946852096743"><ele>486.3333333333333</ele><time>2026-04-04T02:35:51.001Z</time></trkpt><trkpt lat="14.027096739966334" lon="120.85941982389558"><ele>482.66666666666663</ele><time>2026-04-04T02:35:52.001Z</time></trkpt><trkpt lat="14.027011807120827" lon="120.85937630699736"><ele>479.0</ele><time>2026-04-04T02:35:53.001Z</time></trkpt><trkpt lat="14.026915499692398" lon="120.8593375415782"><ele>479.0</ele><time>2026-04-04T02:35:54.001Z</time></trkpt><trkpt lat="14.026825147122535" lon="120.85929961881965"><ele>479.0</ele><time>2026-04-04T02:35:55.001Z</time></trkpt><trkpt lat="14.02674147372769" lon="120.85925942141152"><ele>479.0</ele><time>2026-04-04T02:35:56.001Z</time></trkpt><trkpt lat="14.02666879179632" lon="120.85921840405028"><ele>479.0</ele><time>2026-04-04T02:35:57.001Z</time></trkpt><trkpt lat="14.02658745566462" lon="120.85918026700413"><ele>479.0</ele><time>2026-04-04T02:35:58.001Z</time></trkpt><trkpt lat="14.026504932566372" lon="120.85914028855697"><ele>478.49999999999994</ele><time>2026-04-04T02:35:59.001Z</time></trkpt><trkpt lat="14.026427113505418" lon="120.85910188392764"><ele>478.0</ele><time>2026-04-04T02:36:00.001Z</time></trkpt><trkpt lat="14.02635557408673" lon="120.85906481608906"><ele>477.5</ele><time>2026-04-04T02:36:01.001Z</time></trkpt><trkpt lat="14.026268548117894" lon="120.85902574370732"><ele>477.0</ele><time>2026-04-04T02:36:02.001Z</time></trkpt><trkpt lat="14.026190867373717" lon="120.85898368363375"><ele>476.49999999999994</ele><time>2026-04-04T02:36:03.001Z</time></trkpt><trkpt lat="14.026122148630375" lon="120.85892957706895"><ele>476.0</ele><time>2026-04-04T02:36:04.001Z</time></trkpt><trkpt lat="14.02606438222465" lon="120.8588541340138"><ele>476.0</ele><time>2026-04-04T02:36:05.001Z</time></trkpt><trkpt lat="14.026010211833347" lon="120.85877467183569"><ele>476.0</ele><time>2026-04-04T02:36:06.001Z</time></trkpt><trkpt lat="14.025944795569002" lon="120.8586874931712"><ele>476.0</ele><time>2026-04-04T02:36:07.001Z</time></trkpt><trkpt lat="14.025870295100747" lon="120.8586145759926"><ele>476.0</ele><time>2026-04-04T02:36:08.001Z</time></trkpt><trkpt lat="14.025804202288468" lon="120.85856385942247"><ele>476.0</ele><time>2026-04-04T02:36:09.001Z</time></trkpt><trkpt lat="14.025692075854115" lon="120.85850063244592"><ele>476.3333333333333</ele><time>2026-04-04T02:36:11.001Z</time></trkpt><trkpt lat="14.025626346741822" lon="120.85845653590913"><ele>476.66666666666663</ele><time>2026-04-04T02:36:12.001Z</time></trkpt><trkpt lat="14.025565927899388" lon="120.85839943384086"><ele>477.0</ele><time>2026-04-04T02:36:13.001Z</time></trkpt><trkpt lat="14.025522677415546" lon="120.85832534206892"><ele>477.33333333333337</ele><time>2026-04-04T02:36:14.001Z</time></trkpt><trkpt lat="14.025488518882481" lon="120.85825213644796"><ele>477.6666666666667</ele><time>2026-04-04T02:36:15.001Z</time></trkpt><trkpt lat="14.025457740264416" lon="120.85819519417525"><ele>478.0</ele><time>2026-04-04T02:36:16.001Z</time></trkpt><trkpt lat="14.02541974687863" lon="120.8581310641254"><ele>478.00000000000006</ele><time>2026-04-04T02:36:17.001Z</time></trkpt><trkpt lat="14.025371655617485" lon="120.8580625794915"><ele>478.0</ele><time>2026-04-04T02:36:18.001Z</time></trkpt><trkpt lat="14.025315912105418" lon="120.85800310583866"><ele>478.0</ele><time>2026-04-04T02:36:19.001Z</time></trkpt><trkpt lat="14.025254586045767" lon="120.85795017167034"><ele>478.0</ele><time>2026-04-04T02:36:20.001Z</time></trkpt><trkpt lat="14.025193822854023" lon="120.85791188046788"><ele>478.00000000000006</ele><time>2026-04-04T02:36:21.001Z</time></trkpt><trkpt lat="14.025126637503487" lon="120.85788101578834"><ele>478.0</ele><time>2026-04-04T02:36:22.001Z</time></trkpt><trkpt lat="14.02504872552569" lon="120.85785594419771"><ele>476.6666666666667</ele><time>2026-04-04T02:36:23.001Z</time></trkpt><trkpt lat="14.024972129242597" lon="120.85782532057034"><ele>475.33333333333337</ele><time>2026-04-04T02:36:24.001Z</time></trkpt><trkpt lat="14.024884687776979" lon="120.85782365583252"><ele>474.0</ele><time>2026-04-04T02:36:25.001Z</time></trkpt><trkpt lat="14.024797058546488" lon="120.85783730538425"><ele>472.66666666666663</ele><time>2026-04-04T02:36:26.001Z</time></trkpt><trkpt lat="14.024709461284674" lon="120.85788113917921"><ele>471.3333333333333</ele><time>2026-04-04T02:36:27.001Z</time></trkpt><trkpt lat="14.02462760202356" lon="120.8579250666903"><ele>470.0</ele><time>2026-04-04T02:36:28.001Z</time></trkpt><trkpt lat="14.024545921810686" lon="120.85796887349349"><ele>469.99999999999994</ele><time>2026-04-04T02:36:29.001Z</time></trkpt><trkpt lat="14.024467629611035" lon="120.85801112827212"><ele>470.0</ele><time>2026-04-04T02:36:30.001Z</time></trkpt><trkpt lat="14.024394033440828" lon="120.85804601069853"><ele>470.0</ele><time>2026-04-04T02:36:31.001Z</time></trkpt><trkpt lat="14.024325113149477" lon="120.85807604224384"><ele>470.0</ele><time>2026-04-04T02:36:32.001Z</time></trkpt><trkpt lat="14.024234179064031" lon="120.85805599922045"><ele>469.99999999999994</ele><time>2026-04-04T02:36:34.001Z</time></trkpt><trkpt lat="14.024169436821223" lon="120.85804218714708"><ele>470.0</ele><time>2026-04-04T02:36:35.001Z</time></trkpt><trkpt lat="14.024122272808805" lon="120.8579806775765"><ele>468.66666666666663</ele><time>2026-04-04T02:36:36.001Z</time></trkpt><trkpt lat="14.024078238202907" lon="120.85791475222705"><ele>467.3333333333333</ele><time>2026-04-04T02:36:37.001Z</time></trkpt><trkpt lat="14.024033798185172" lon="120.85786228690311"><ele>466.0</ele><time>2026-04-04T02:36:38.001Z</time></trkpt><trkpt lat="14.023942031586056" lon="120.85779508774094"><ele>464.66666666666663</ele><time>2026-04-04T02:36:40.001Z</time></trkpt><trkpt lat="14.023859023474989" lon="120.85776966726108"><ele>463.3333333333333</ele><time>2026-04-04T02:36:42.001Z</time></trkpt><trkpt lat="14.023774324626006" lon="120.85774236859288"><ele>462.0</ele><time>2026-04-04T02:36:44.001Z</time></trkpt><trkpt lat="14.023711323693702" lon="120.85773953645848"><ele>462.0</ele><time>2026-04-04T02:36:45.001Z</time></trkpt><trkpt lat="14.023631585840592" lon="120.85773674871004"><ele>462.0</ele><time>2026-04-04T02:36:46.001Z</time></trkpt><trkpt lat="14.023539021035367" lon="120.85774737722532"><ele>462.0</ele><time>2026-04-04T02:36:47.001Z</time></trkpt><trkpt lat="14.02344608800972" lon="120.85775964222323"><ele>462.0</ele><time>2026-04-04T02:36:48.001Z</time></trkpt><trkpt lat="14.023361187469478" lon="120.8577921107719"><ele>462.0</ele><time>2026-04-04T02:36:49.001Z</time></trkpt><trkpt lat="14.023277528956209" lon="120.8578202595185"><ele>462.0</ele><time>2026-04-04T02:36:50.001Z</time></trkpt><trkpt lat="14.023191337074088" lon="120.8578804515437"><ele>462.5</ele><time>2026-04-04T02:36:51.001Z</time></trkpt><trkpt lat="14.023112381308549" lon="120.85792881224074"><ele>463.0</ele><time>2026-04-04T02:36:52.001Z</time></trkpt><trkpt lat="14.023031824337277" lon="120.8579781388384"><ele>463.5</ele><time>2026-04-04T02:36:53.001Z</time></trkpt><trkpt lat="14.022961631173105" lon="120.85798601576565"><ele>464.0</ele><time>2026-04-04T02:36:54.001Z</time></trkpt><trkpt lat="14.022872676011447" lon="120.85798527882562"><ele>464.5</ele><time>2026-04-04T02:36:55.001Z</time></trkpt><trkpt lat="14.022777028725743" lon="120.85798355932249"><ele>465.0</ele><time>2026-04-04T02:36:56.001Z</time></trkpt><trkpt lat="14.022678351601911" lon="120.8579817853501"><ele>465.0</ele><time>2026-04-04T02:36:57.001Z</time></trkpt><trkpt lat="14.022574127937464" lon="120.8579849685058"><ele>465.0</ele><time>2026-04-04T02:36:58.001Z</time></trkpt><trkpt lat="14.02246635224216" lon="120.85802314908065"><ele>465.0</ele><time>2026-04-04T02:36:59.001Z</time></trkpt><trkpt lat="14.022354404953946" lon="120.85805650719021"><ele>465.0</ele><time>2026-04-04T02:37:00.001Z</time></trkpt><trkpt lat="14.02222776235217" lon="120.85807220445795"><ele>465.75</ele><time>2026-04-04T02:37:01.001Z</time></trkpt><trkpt lat="14.022095959511743" lon="120.85810614745908"><ele>466.5</ele><time>2026-04-04T02:37:02.001Z</time></trkpt><trkpt lat="14.021975107232594" lon="120.85813698495954"><ele>467.25</ele><time>2026-04-04T02:37:03.001Z</time></trkpt><trkpt lat="14.021840353414717" lon="120.8581712882969"><ele>468.0</ele><time>2026-04-04T02:37:04.001Z</time></trkpt><trkpt lat="14.021698773372515" lon="120.85820732931485"><ele>467.75</ele><time>2026-04-04T02:37:05.001Z</time></trkpt><trkpt lat="14.021559974744696" lon="120.85824315537529"><ele>467.5</ele><time>2026-04-04T02:37:06.001Z</time></trkpt><trkpt lat="14.02142869747817" lon="120.85827725538806"><ele>467.25</ele><time>2026-04-04T02:37:07.001Z</time></trkpt><trkpt lat="14.021300312212711" lon="120.85831076679571"><ele>467.0</ele><time>2026-04-04T02:37:08.001Z</time></trkpt><trkpt lat="14.021179996419736" lon="120.85834305934343"><ele>467.0</ele><time>2026-04-04T02:37:09.001Z</time></trkpt><trkpt lat="14.021062161253502" lon="120.85837505325973"><ele>467.0</ele><time>2026-04-04T02:37:10.001Z</time></trkpt><trkpt lat="14.020951709417709" lon="120.85840526058979"><ele>467.0</ele><time>2026-04-04T02:37:11.001Z</time></trkpt><trkpt lat="14.020837538969532" lon="120.8584385383223"><ele>467.0</ele><time>2026-04-04T02:37:12.001Z</time></trkpt><trkpt lat="14.020725801566277" lon="120.85847984039033"><ele>464.75</ele><time>2026-04-04T02:37:13.001Z</time></trkpt><trkpt lat="14.020607819625726" lon="120.85852323043142"><ele>462.5</ele><time>2026-04-04T02:37:14.001Z</time></trkpt><trkpt lat="14.02049082606703" lon="120.85856426637649"><ele>460.25</ele><time>2026-04-04T02:37:15.001Z</time></trkpt><trkpt lat="14.020371358433781" lon="120.8586084299509"><ele>458.0</ele><time>2026-04-04T02:37:16.001Z</time></trkpt><trkpt lat="14.020255432302832" lon="120.85865494389482"><ele>458.0</ele><time>2026-04-04T02:37:17.001Z</time></trkpt><trkpt lat="14.020144316525696" lon="120.85870441677895"><ele>458.0</ele><time>2026-04-04T02:37:18.001Z</time></trkpt><trkpt lat="14.020048685573064" lon="120.858756713541"><ele>458.0</ele><time>2026-04-04T02:37:19.001Z</time></trkpt><trkpt lat="14.019952755874042" lon="120.85880917362414"><ele>458.0</ele><time>2026-04-04T02:37:20.001Z</time></trkpt><trkpt lat="14.019872381662962" lon="120.8589004650083"><ele>455.0</ele><time>2026-04-04T02:37:21.001Z</time></trkpt><trkpt lat="14.019770483671277" lon="120.85896479984652"><ele>452.0</ele><time>2026-04-04T02:37:22.001Z</time></trkpt><trkpt lat="14.019708187013045" lon="120.85907402984884"><ele>449.0</ele><time>2026-04-04T02:37:23.001Z</time></trkpt><trkpt lat="14.019621572061363" lon="120.85916215422614"><ele>446.0</ele><time>2026-04-04T02:37:24.001Z</time></trkpt><trkpt lat="14.019572188453067" lon="120.85928313650437"><ele>447.5</ele><time>2026-04-04T02:37:25.001Z</time></trkpt><trkpt lat="14.01949111881002" lon="120.85939034430194"><ele>449.0</ele><time>2026-04-04T02:37:26.001Z</time></trkpt><trkpt lat="14.01944254184263" lon="120.85951949770063"><ele>450.5</ele><time>2026-04-04T02:37:27.001Z</time></trkpt><trkpt lat="14.019389930215802" lon="120.85964399124668"><ele>452.0</ele><time>2026-04-04T02:37:28.001Z</time></trkpt><trkpt lat="14.019335905415216" lon="120.85977172653594"><ele>452.0</ele><time>2026-04-04T02:37:29.001Z</time></trkpt><trkpt lat="14.01927923686423" lon="120.85990452213267"><ele>452.0</ele><time>2026-04-04T02:37:30.001Z</time></trkpt><trkpt lat="14.01922434260184" lon="120.86003393411977"><ele>452.0</ele><time>2026-04-04T02:37:31.001Z</time></trkpt><trkpt lat="14.019218810013486" lon="120.8601884522493"><ele>452.0</ele><time>2026-04-04T02:37:32.001Z</time></trkpt><trkpt lat="14.019160994954794" lon="120.86032504201958"><ele>449.0</ele><time>2026-04-04T02:37:33.001Z</time></trkpt><trkpt lat="14.019112321175593" lon="120.8604496743193"><ele>446.0</ele><time>2026-04-04T02:37:34.001Z</time></trkpt><trkpt lat="14.019061238640464" lon="120.86057546280713"><ele>443.0</ele><time>2026-04-04T02:37:35.001Z</time></trkpt><trkpt lat="14.018960053396878" lon="120.86068530079244"><ele>440.0</ele><time>2026-04-04T02:37:36.001Z</time></trkpt><trkpt lat="14.018910318938039" lon="120.86081057051683"><ele>440.0</ele><time>2026-04-04T02:37:37.001Z</time></trkpt><trkpt lat="14.018858122653917" lon="120.86094119688156"><ele>440.0</ele><time>2026-04-04T02:37:38.001Z</time></trkpt><trkpt lat="14.018804117620583" lon="120.86107634984546"><ele>440.0</ele><time>2026-04-04T02:37:39.001Z</time></trkpt><trkpt lat="14.018751546396032" lon="120.8612075494426"><ele>440.0</ele><time>2026-04-04T02:37:40.001Z</time></trkpt><trkpt lat="14.018698237900796" lon="120.86133993858424"><ele>440.0</ele><time>2026-04-04T02:37:41.001Z</time></trkpt><trkpt lat="14.018642011997974" lon="120.86147962363235"><ele>440.0</ele><time>2026-04-04T02:37:42.001Z</time></trkpt><trkpt lat="14.018587245555738" lon="120.86161836694397"><ele>440.0</ele><time>2026-04-04T02:37:43.001Z</time></trkpt><trkpt lat="14.018531867784615" lon="120.86175673211156"><ele>440.0</ele><time>2026-04-04T02:37:44.001Z</time></trkpt><trkpt lat="14.01847968111846" lon="120.8618866675707"><ele>440.0</ele><time>2026-04-04T02:37:45.001Z</time></trkpt><trkpt lat="14.018423585518773" lon="120.86202707624246"><ele>440.0</ele><time>2026-04-04T02:37:46.001Z</time></trkpt><trkpt lat="14.01837097227649" lon="120.86215777489207"><ele>440.0</ele><time>2026-04-04T02:37:47.001Z</time></trkpt><trkpt lat="14.018315453067796" lon="120.86229513630829"><ele>440.0</ele><time>2026-04-04T02:37:48.001Z</time></trkpt><trkpt lat="14.018259070054604" lon="120.86243029032588"><ele>440.25</ele><time>2026-04-04T02:37:49.001Z</time></trkpt><trkpt lat="14.018203531931965" lon="120.86254553476849"><ele>440.5</ele><time>2026-04-04T02:37:50.001Z</time></trkpt><trkpt lat="14.018137116376561" lon="120.86266945337611"><ele>440.75</ele><time>2026-04-04T02:37:51.001Z</time></trkpt><trkpt lat="14.018055149082667" lon="120.8627813706414"><ele>441.0</ele><time>2026-04-04T02:37:52.001Z</time></trkpt><trkpt lat="14.017961846437073" lon="120.8628877027071"><ele>443.25</ele><time>2026-04-04T02:37:53.001Z</time></trkpt><trkpt lat="14.01786228696399" lon="120.8629970144539"><ele>445.5</ele><time>2026-04-04T02:37:54.001Z</time></trkpt><trkpt lat="14.017766600547255" lon="120.86308199218062"><ele>447.75</ele><time>2026-04-04T02:37:55.001Z</time></trkpt><trkpt lat="14.017670028118658" lon="120.86316120953717"><ele>450.0</ele><time>2026-04-04T02:37:56.001Z</time></trkpt><trkpt lat="14.017570840058017" lon="120.8632299168465"><ele>452.0</ele><time>2026-04-04T02:37:57.001Z</time></trkpt><trkpt lat="14.01748370554019" lon="120.86328928168447"><ele>454.0</ele><time>2026-04-04T02:37:58.001Z</time></trkpt><trkpt lat="14.017406662805913" lon="120.86334177108887"><ele>456.0</ele><time>2026-04-04T02:37:59.001Z</time></trkpt><trkpt lat="14.017337152525757" lon="120.86338301358249"><ele>458.0</ele><time>2026-04-04T02:38:00.001Z</time></trkpt><trkpt lat="14.017274517625362" lon="120.86342157995219"><ele>460.0</ele><time>2026-04-04T02:38:01.001Z</time></trkpt><trkpt lat="14.01718124068301" lon="120.86348602298584"><ele>460.0</ele><time>2026-04-04T02:38:03.001Z</time></trkpt><trkpt lat="14.017127377848903" lon="120.86352827647534"><ele>460.0</ele><time>2026-04-04T02:38:04.001Z</time></trkpt><trkpt lat="14.017029423240306" lon="120.86363236383274"><ele>460.0</ele><time>2026-04-04T02:38:06.001Z</time></trkpt><trkpt lat="14.01698709348449" lon="120.86370528202842"><ele>460.0</ele><time>2026-04-04T02:38:07.001Z</time></trkpt><trkpt lat="14.016952233911693" lon="120.86377880127833"><ele>460.0</ele><time>2026-04-04T02:38:08.001Z</time></trkpt><trkpt lat="14.016920151012378" lon="120.86385488353666"><ele>460.00000000000006</ele><time>2026-04-04T02:38:09.001Z</time></trkpt><trkpt lat="14.016891533562351" lon="120.86394052836908"><ele>460.0</ele><time>2026-04-04T02:38:10.001Z</time></trkpt><trkpt lat="14.016866734263822" lon="120.86401985437004"><ele>460.0</ele><time>2026-04-04T02:38:11.001Z</time></trkpt><trkpt lat="14.016840986264482" lon="120.86410221496423"><ele>460.0</ele><time>2026-04-04T02:38:12.001Z</time></trkpt><trkpt lat="14.01681539919605" lon="120.86418482155041"><ele>460.00000000000006</ele><time>2026-04-04T02:38:13.001Z</time></trkpt><trkpt lat="14.016789845950994" lon="120.86426756286367"><ele>460.0</ele><time>2026-04-04T02:38:14.001Z</time></trkpt><trkpt lat="14.016762641585146" lon="120.86435565055442"><ele>460.4</ele><time>2026-04-04T02:38:15.001Z</time></trkpt><trkpt lat="14.016734652720432" lon="120.86444627842303"><ele>460.8</ele><time>2026-04-04T02:38:16.001Z</time></trkpt><trkpt lat="14.016706231108884" lon="120.86453830747263"><ele>461.20000000000005</ele><time>2026-04-04T02:38:17.001Z</time></trkpt><trkpt lat="14.01667585668728" lon="120.8646308038002"><ele>461.6</ele><time>2026-04-04T02:38:18.001Z</time></trkpt><trkpt lat="14.016642458378879" lon="120.86472425682285"><ele>462.0</ele><time>2026-04-04T02:38:19.001Z</time></trkpt><trkpt lat="14.016609089886817" lon="120.86481775153038"><ele>461.0</ele><time>2026-04-04T02:38:20.001Z</time></trkpt><trkpt lat="14.016577847933387" lon="120.8649047106057"><ele>460.00000000000006</ele><time>2026-04-04T02:38:21.001Z</time></trkpt><trkpt lat="14.016546693761553" lon="120.86498899373166"><ele>459.00000000000006</ele><time>2026-04-04T02:38:22.001Z</time></trkpt><trkpt lat="14.016515630460024" lon="120.86507303083832"><ele>458.0</ele><time>2026-04-04T02:38:23.001Z</time></trkpt><trkpt lat="14.016481980716023" lon="120.86516464315137"><ele>457.0</ele><time>2026-04-04T02:38:24.001Z</time></trkpt><trkpt lat="14.016448750567735" lon="120.86525401842827"><ele>456.20000000000005</ele><time>2026-04-04T02:38:25.001Z</time></trkpt><trkpt lat="14.016412508497767" lon="120.86535464702838"><ele>455.40000000000003</ele><time>2026-04-04T02:38:26.001Z</time></trkpt><trkpt lat="14.01637703390451" lon="120.86545324308946"><ele>454.59999999999997</ele><time>2026-04-04T02:38:27.001Z</time></trkpt><trkpt lat="14.016338313324813" lon="120.86555935270948"><ele>453.79999999999995</ele><time>2026-04-04T02:38:28.001Z</time></trkpt><trkpt lat="14.016299879443215" lon="120.86566467666393"><ele>453.0</ele><time>2026-04-04T02:38:29.001Z</time></trkpt><trkpt lat="14.016262066388071" lon="120.86576878264113"><ele>453.0</ele><time>2026-04-04T02:38:30.001Z</time></trkpt><trkpt lat="14.016224327604666" lon="120.8658731843656"><ele>452.99999999999994</ele><time>2026-04-04T02:38:31.001Z</time></trkpt><trkpt lat="14.01618619989592" lon="120.86597866202487"><ele>452.99999999999994</ele><time>2026-04-04T02:38:32.001Z</time></trkpt><trkpt lat="14.01614830018372" lon="120.86608347999426"><ele>453.0</ele><time>2026-04-04T02:38:33.001Z</time></trkpt><trkpt lat="14.016112249836226" lon="120.86618317955607"><ele>453.0</ele><time>2026-04-04T02:38:34.001Z</time></trkpt><trkpt lat="14.016076980785897" lon="120.86628071830603"><ele>452.2</ele><time>2026-04-04T02:38:35.001Z</time></trkpt><trkpt lat="14.016031303815787" lon="120.86636859306473"><ele>451.4</ele><time>2026-04-04T02:38:36.001Z</time></trkpt><trkpt lat="14.015974722867272" lon="120.86644907627382"><ele>450.59999999999997</ele><time>2026-04-04T02:38:37.001Z</time></trkpt><trkpt lat="14.015908944243733" lon="120.86653048426423"><ele>449.79999999999995</ele><time>2026-04-04T02:38:38.001Z</time></trkpt><trkpt lat="14.015837564096909" lon="120.86661064217508"><ele>449.0</ele><time>2026-04-04T02:38:39.001Z</time></trkpt><trkpt lat="14.015767541524099" lon="120.86668657546294"><ele>447.79999999999995</ele><time>2026-04-04T02:38:40.001Z</time></trkpt><trkpt lat="14.015698765902751" lon="120.8667715717959"><ele>446.59999999999997</ele><time>2026-04-04T02:38:41.001Z</time></trkpt><trkpt lat="14.015637262401468" lon="120.86685612448322"><ele>445.4</ele><time>2026-04-04T02:38:42.001Z</time></trkpt><trkpt lat="14.015575519900922" lon="120.86694324072324"><ele>444.2</ele><time>2026-04-04T02:38:43.001Z</time></trkpt><trkpt lat="14.015509074593412" lon="120.86703733718795"><ele>443.0</ele><time>2026-04-04T02:38:44.001Z</time></trkpt><trkpt lat="14.015442504342476" lon="120.8671253732916"><ele>442.4</ele><time>2026-04-04T02:38:45.001Z</time></trkpt><trkpt lat="14.01537184247967" lon="120.86721274499665"><ele>441.79999999999995</ele><time>2026-04-04T02:38:46.001Z</time></trkpt><trkpt lat="14.015295177081319" lon="120.86729256264738"><ele>441.2</ele><time>2026-04-04T02:38:47.001Z</time></trkpt><trkpt lat="14.015217069394671" lon="120.86736562232551"><ele>440.6</ele><time>2026-04-04T02:38:48.001Z</time></trkpt><trkpt lat="14.015139245150705" lon="120.86743275138414"><ele>440.0</ele><time>2026-04-04T02:38:49.001Z</time></trkpt><trkpt lat="14.015063163343955" lon="120.86749837752589"><ele>439.0</ele><time>2026-04-04T02:38:50.001Z</time></trkpt><trkpt lat="14.014987592379802" lon="120.86756358879319"><ele>438.0</ele><time>2026-04-04T02:38:51.001Z</time></trkpt><trkpt lat="14.014913209882911" lon="120.86762780097635"><ele>437.0</ele><time>2026-04-04T02:38:52.001Z</time></trkpt><trkpt lat="14.014833585482082" lon="120.8676972549807"><ele>436.0</ele><time>2026-04-04T02:38:53.001Z</time></trkpt><trkpt lat="14.014750710071455" lon="120.86776875114487"><ele>435.0</ele><time>2026-04-04T02:38:54.001Z</time></trkpt><trkpt lat="14.014661457926566" lon="120.86784568620432"><ele>435.0</ele><time>2026-04-04T02:38:55.001Z</time></trkpt><trkpt lat="14.014569131085187" lon="120.86792896866558"><ele>435.0</ele><time>2026-04-04T02:38:56.001Z</time></trkpt><trkpt lat="14.01447529701669" lon="120.86801693450175"><ele>435.0</ele><time>2026-04-04T02:38:57.001Z</time></trkpt><trkpt lat="14.01438782784703" lon="120.86810612167997"><ele>435.0</ele><time>2026-04-04T02:38:58.001Z</time></trkpt><trkpt lat="14.014297009240941" lon="120.86820497041255"><ele>435.0</ele><time>2026-04-04T02:38:59.001Z</time></trkpt><trkpt lat="14.014209607762044" lon="120.86829897584067"><ele>435.0</ele><time>2026-04-04T02:39:00.001Z</time></trkpt><trkpt lat="14.014115822355153" lon="120.86839802240121"><ele>435.0</ele><time>2026-04-04T02:39:01.001Z</time></trkpt><trkpt lat="14.014023201901633" lon="120.86848922385582"><ele>435.0</ele><time>2026-04-04T02:39:02.001Z</time></trkpt><trkpt lat="14.01393241995574" lon="120.86857370527474"><ele>434.0</ele><time>2026-04-04T02:39:03.001Z</time></trkpt><trkpt lat="14.013841810712686" lon="120.86865387159345"><ele>433.0</ele><time>2026-04-04T02:39:04.001Z</time></trkpt><trkpt lat="14.013749977730035" lon="120.86873465108617"><ele>432.0</ele><time>2026-04-04T02:39:05.001Z</time></trkpt><trkpt lat="14.013659525503291" lon="120.86881391785839"><ele>431.0</ele><time>2026-04-04T02:39:06.001Z</time></trkpt><trkpt lat="14.013576822497988" lon="120.86888672450877"><ele>431.0</ele><time>2026-04-04T02:39:07.001Z</time></trkpt><trkpt lat="14.013496530780595" lon="120.86895840746458"><ele>431.0</ele><time>2026-04-04T02:39:08.001Z</time></trkpt><trkpt lat="14.013411275546128" lon="120.86904613499468"><ele>431.0</ele><time>2026-04-04T02:39:09.001Z</time></trkpt><trkpt lat="14.01334355145494" lon="120.86914562925806"><ele>431.0</ele><time>2026-04-04T02:39:10.001Z</time></trkpt><trkpt lat="14.013287756625527" lon="120.86926153082418"><ele>428.75</ele><time>2026-04-04T02:39:11.001Z</time></trkpt><trkpt lat="14.013252474423771" lon="120.86939614315258"><ele>426.5</ele><time>2026-04-04T02:39:12.001Z</time></trkpt><trkpt lat="14.013233069431882" lon="120.86953566011468"><ele>424.25</ele><time>2026-04-04T02:39:13.001Z</time></trkpt><trkpt lat="14.013237652318196" lon="120.86968754893672"><ele>422.0</ele><time>2026-04-04T02:39:14.001Z</time></trkpt><trkpt lat="14.013245260573688" lon="120.86983347187642"><ele>422.0</ele><time>2026-04-04T02:39:15.001Z</time></trkpt><trkpt lat="14.013252696315458" lon="120.86997765692311"><ele>422.0</ele><time>2026-04-04T02:39:16.001Z</time></trkpt><trkpt lat="14.013259731488862" lon="120.87012227760577"><ele>422.0</ele><time>2026-04-04T02:39:17.001Z</time></trkpt><trkpt lat="14.013267196468558" lon="120.87026200876672"><ele>422.0</ele><time>2026-04-04T02:39:18.001Z</time></trkpt><trkpt lat="14.013274194723783" lon="120.87039777494823"><ele>421.0</ele><time>2026-04-04T02:39:19.001Z</time></trkpt><trkpt lat="14.013280742294237" lon="120.87052512799417"><ele>420.0</ele><time>2026-04-04T02:39:20.001Z</time></trkpt><trkpt lat="14.013286981841684" lon="120.87064661897149"><ele>419.0</ele><time>2026-04-04T02:39:21.001Z</time></trkpt><trkpt lat="14.013287575424325" lon="120.87075581921845"><ele>418.0</ele><time>2026-04-04T02:39:22.001Z</time></trkpt><trkpt lat="14.01328865532961" lon="120.87084831722782"><ele>417.0</ele><time>2026-04-04T02:39:23.001Z</time></trkpt><trkpt lat="14.013289494790317" lon="120.87093471994268"><ele>416.40000000000003</ele><time>2026-04-04T02:39:24.001Z</time></trkpt><trkpt lat="14.013290236922469" lon="120.87102428981905"><ele>415.8</ele><time>2026-04-04T02:39:25.001Z</time></trkpt><trkpt lat="14.013285929329301" lon="120.87111906062921"><ele>415.2</ele><time>2026-04-04T02:39:26.001Z</time></trkpt><trkpt lat="14.013279386116785" lon="120.87122572228037"><ele>414.6</ele><time>2026-04-04T02:39:27.001Z</time></trkpt><trkpt lat="14.013263656788103" lon="120.87132895533827"><ele>414.0</ele><time>2026-04-04T02:39:28.001Z</time></trkpt><trkpt lat="14.013244212406747" lon="120.87144752576368"><ele>414.0</ele><time>2026-04-04T02:39:29.001Z</time></trkpt><trkpt lat="14.013205062661056" lon="120.87155183873226"><ele>414.0</ele><time>2026-04-04T02:39:30.001Z</time></trkpt><trkpt lat="14.013156773083683" lon="120.87165501664596"><ele>414.0</ele><time>2026-04-04T02:39:31.001Z</time></trkpt><trkpt lat="14.01309944102909" lon="120.87176179111586"><ele>414.0</ele><time>2026-04-04T02:39:32.001Z</time></trkpt><trkpt lat="14.013044023672961" lon="120.87186843417743"><ele>414.2</ele><time>2026-04-04T02:39:33.001Z</time></trkpt><trkpt lat="14.012992282795025" lon="120.87196528798037"><ele>414.4</ele><time>2026-04-04T02:39:34.001Z</time></trkpt><trkpt lat="14.012942267067716" lon="120.87205557569682"><ele>414.6</ele><time>2026-04-04T02:39:35.001Z</time></trkpt><trkpt lat="14.01289209480243" lon="120.8721461528713"><ele>414.8</ele><time>2026-04-04T02:39:36.001Z</time></trkpt><trkpt lat="14.01284487689075" lon="120.87222999213334"><ele>415.0</ele><time>2026-04-04T02:39:37.001Z</time></trkpt><trkpt lat="14.012792405443717" lon="120.87231547136352"><ele>415.0</ele><time>2026-04-04T02:39:38.001Z</time></trkpt><trkpt lat="14.012734623718426" lon="120.87239766304285"><ele>415.0</ele><time>2026-04-04T02:39:39.001Z</time></trkpt><trkpt lat="14.012677603978057" lon="120.87247443783356"><ele>415.0</ele><time>2026-04-04T02:39:40.001Z</time></trkpt><trkpt lat="14.012619127301603" lon="120.87254747860347"><ele>415.0</ele><time>2026-04-04T02:39:41.001Z</time></trkpt><trkpt lat="14.012555522234956" lon="120.87261105955437"><ele>415.0</ele><time>2026-04-04T02:39:42.001Z</time></trkpt><trkpt lat="14.012481437189614" lon="120.8726764714963"><ele>414.2</ele><time>2026-04-04T02:39:43.001Z</time></trkpt><trkpt lat="14.012408203037205" lon="120.87269803027883"><ele>413.4</ele><time>2026-04-04T02:39:44.001Z</time></trkpt><trkpt lat="14.0123119691018" lon="120.87271355718003"><ele>412.6</ele><time>2026-04-04T02:39:45.001Z</time></trkpt><trkpt lat="14.012207302925708" lon="120.8727104678061"><ele>411.8</ele><time>2026-04-04T02:39:46.001Z</time></trkpt><trkpt lat="14.012095594596572" lon="120.87270099536978"><ele>411.0</ele><time>2026-04-04T02:39:47.001Z</time></trkpt><trkpt lat="14.011980553886108" lon="120.8727046674785"><ele>411.0</ele><time>2026-04-04T02:39:48.001Z</time></trkpt><trkpt lat="14.011877081422373" lon="120.87268958918534"><ele>411.0</ele><time>2026-04-04T02:39:49.001Z</time></trkpt><trkpt lat="14.011785618977608" lon="120.8726784257795"><ele>411.0</ele><time>2026-04-04T02:39:50.001Z</time></trkpt><trkpt lat="14.011690763401704" lon="120.87266709281242"><ele>411.0</ele><time>2026-04-04T02:39:51.001Z</time></trkpt><trkpt lat="14.011590221021526" lon="120.87265457310897"><ele>411.0</ele><time>2026-04-04T02:39:52.001Z</time></trkpt><trkpt lat="14.01148638335463" lon="120.8726472361544"><ele>410.20000000000005</ele><time>2026-04-04T02:39:53.001Z</time></trkpt><trkpt lat="14.011383327779415" lon="120.87263955896813"><ele>409.40000000000003</ele><time>2026-04-04T02:39:54.001Z</time></trkpt><trkpt lat="14.01127156287844" lon="120.87263082877226"><ele>408.6</ele><time>2026-04-04T02:39:55.001Z</time></trkpt><trkpt lat="14.0111621298932" lon="120.8726248887942"><ele>407.8</ele><time>2026-04-04T02:39:56.001Z</time></trkpt><trkpt lat="14.011057176062005" lon="120.87261828384823"><ele>407.0</ele><time>2026-04-04T02:39:57.001Z</time></trkpt><trkpt lat="14.010954315223815" lon="120.87260068326145"><ele>407.0</ele><time>2026-04-04T02:39:58.001Z</time></trkpt><trkpt lat="14.010846360311179" lon="120.87257614152863"><ele>407.0</ele><time>2026-04-04T02:39:59.001Z</time></trkpt><trkpt lat="14.01073724123492" lon="120.87253886278538"><ele>407.0</ele><time>2026-04-04T02:40:00.001Z</time></trkpt><trkpt lat="14.01063151405332" lon="120.87249067690446"><ele>407.0</ele><time>2026-04-04T02:40:01.001Z</time></trkpt><trkpt lat="14.010529878938058" lon="120.87244739892256"><ele>405.8</ele><time>2026-04-04T02:40:02.001Z</time></trkpt><trkpt lat="14.010424075796118" lon="120.87242123328834"><ele>404.6</ele><time>2026-04-04T02:40:03.001Z</time></trkpt><trkpt lat="14.010327681231205" lon="120.87243026471324"><ele>403.40000000000003</ele><time>2026-04-04T02:40:04.001Z</time></trkpt><trkpt lat="14.010235224773806" lon="120.87243564672065"><ele>402.20000000000005</ele><time>2026-04-04T02:40:05.001Z</time></trkpt><trkpt lat="14.010139368060763" lon="120.87249942853518"><ele>401.0</ele><time>2026-04-04T02:40:06.001Z</time></trkpt><trkpt lat="14.010056423676094" lon="120.87259435733957"><ele>400.5</ele><time>2026-04-04T02:40:07.001Z</time></trkpt><trkpt lat="14.009986412639176" lon="120.872698918244"><ele>400.0</ele><time>2026-04-04T02:40:08.001Z</time></trkpt><trkpt lat="14.009921468343833" lon="120.8727970012351"><ele>399.5</ele><time>2026-04-04T02:40:09.001Z</time></trkpt><trkpt lat="14.009855512117333" lon="120.87289551474193"><ele>399.0</ele><time>2026-04-04T02:40:10.001Z</time></trkpt><trkpt lat="14.009795505624746" lon="120.87299148217463"><ele>399.0</ele><time>2026-04-04T02:40:11.001Z</time></trkpt><trkpt lat="14.009744697540258" lon="120.87308047760406"><ele>399.0</ele><time>2026-04-04T02:40:12.001Z</time></trkpt><trkpt lat="14.009697803866338" lon="120.87316987366111"><ele>399.0</ele><time>2026-04-04T02:40:13.001Z</time></trkpt><trkpt lat="14.009658922386306" lon="120.87327127338251"><ele>399.0</ele><time>2026-04-04T02:40:14.001Z</time></trkpt><trkpt lat="14.00962871328744" lon="120.8733563018197"><ele>399.0</ele><time>2026-04-04T02:40:15.001Z</time></trkpt><trkpt lat="14.009627376728194" lon="120.87346126572909"><ele>398.0</ele><time>2026-04-04T02:40:16.001Z</time></trkpt><trkpt lat="14.00962013013325" lon="120.8735632936859"><ele>397.0</ele><time>2026-04-04T02:40:17.001Z</time></trkpt><trkpt lat="14.009615067888836" lon="120.87366459383276"><ele>396.0</ele><time>2026-04-04T02:40:18.001Z</time></trkpt><trkpt lat="14.009609699289806" lon="120.87377202450175"><ele>395.0</ele><time>2026-04-04T02:40:19.001Z</time></trkpt><trkpt lat="14.009604170423927" lon="120.87388562139975"><ele>394.0</ele><time>2026-04-04T02:40:20.001Z</time></trkpt><trkpt lat="14.009597614208868" lon="120.8739962963205"><ele>394.0</ele><time>2026-04-04T02:40:21.001Z</time></trkpt><trkpt lat="14.009586624217365" lon="120.87410846542119"><ele>394.0</ele><time>2026-04-04T02:40:22.001Z</time></trkpt><trkpt lat="14.00957523988283" lon="120.87422092065475"><ele>394.0</ele><time>2026-04-04T02:40:23.001Z</time></trkpt><trkpt lat="14.009558482904813" lon="120.87433793461726"><ele>394.0</ele><time>2026-04-04T02:40:24.001Z</time></trkpt><trkpt lat="14.009541531148216" lon="120.87445503185792"><ele>394.0</ele><time>2026-04-04T02:40:25.001Z</time></trkpt><trkpt lat="14.009511202366484" lon="120.8745710220621"><ele>394.0</ele><time>2026-04-04T02:40:26.001Z</time></trkpt><trkpt lat="14.00948163325106" lon="120.87469757706471"><ele>394.0</ele><time>2026-04-04T02:40:27.001Z</time></trkpt><trkpt lat="14.0094513459216" lon="120.8748283520908"><ele>394.0</ele><time>2026-04-04T02:40:28.001Z</time></trkpt><trkpt lat="14.009418498200093" lon="120.87496786574"><ele>394.0</ele><time>2026-04-04T02:40:29.001Z</time></trkpt><trkpt lat="14.009385157626422" lon="120.87510958378259"><ele>392.5</ele><time>2026-04-04T02:40:30.001Z</time></trkpt><trkpt lat="14.009351710346145" lon="120.87525336827413"><ele>391.0</ele><time>2026-04-04T02:40:31.001Z</time></trkpt><trkpt lat="14.009319210623483" lon="120.87539380513489"><ele>389.5</ele><time>2026-04-04T02:40:32.001Z</time></trkpt><trkpt lat="14.009287140567674" lon="120.87553452911656"><ele>388.0</ele><time>2026-04-04T02:40:33.001Z</time></trkpt><trkpt lat="14.009255142985975" lon="120.87567573780603"><ele>388.0</ele><time>2026-04-04T02:40:34.001Z</time></trkpt><trkpt lat="14.009223039310784" lon="120.87581740952903"><ele>388.0</ele><time>2026-04-04T02:40:35.001Z</time></trkpt><trkpt lat="14.009191726723602" lon="120.87595556946016"><ele>388.0</ele><time>2026-04-04T02:40:36.001Z</time></trkpt><trkpt lat="14.009159236015167" lon="120.87609707114432"><ele>388.0</ele><time>2026-04-04T02:40:37.001Z</time></trkpt><trkpt lat="14.009136588909572" lon="120.87622735634245"><ele>386.5</ele><time>2026-04-04T02:40:38.001Z</time></trkpt><trkpt lat="14.009118577236224" lon="120.87635667044243"><ele>385.0</ele><time>2026-04-04T02:40:39.001Z</time></trkpt><trkpt lat="14.009104828444507" lon="120.8764824545932"><ele>383.5</ele><time>2026-04-04T02:40:40.001Z</time></trkpt><trkpt lat="14.009104865246753" lon="120.87661781642095"><ele>382.0</ele><time>2026-04-04T02:40:41.001Z</time></trkpt><trkpt lat="14.009102057374514" lon="120.87674099467043"><ele>383.0</ele><time>2026-04-04T02:40:42.001Z</time></trkpt><trkpt lat="14.00909611944032" lon="120.87685735570798"><ele>384.0</ele><time>2026-04-04T02:40:43.001Z</time></trkpt><trkpt lat="14.009063147945241" lon="120.87695004121437"><ele>385.0</ele><time>2026-04-04T02:40:44.001Z</time></trkpt><trkpt lat="14.009016696289077" lon="120.87702875024436"><ele>386.0</ele><time>2026-04-04T02:40:45.001Z</time></trkpt><trkpt lat="14.008960815762347" lon="120.87711071461443"><ele>387.0</ele><time>2026-04-04T02:40:46.001Z</time></trkpt><trkpt lat="14.008898771112923" lon="120.87719886804582"><ele>387.0</ele><time>2026-04-04T02:40:47.001Z</time></trkpt><trkpt lat="14.008834387837918" lon="120.87729031314888"><ele>387.0</ele><time>2026-04-04T02:40:48.001Z</time></trkpt><trkpt lat="14.008767537435439" lon="120.87738525101719"><ele>387.0</ele><time>2026-04-04T02:40:49.001Z</time></trkpt><trkpt lat="14.008701666443917" lon="120.8774779867584"><ele>387.0</ele><time>2026-04-04T02:40:50.001Z</time></trkpt><trkpt lat="14.008637059828493" lon="120.87757237074783"><ele>387.0</ele><time>2026-04-04T02:40:51.001Z</time></trkpt><trkpt lat="14.008572963046463" lon="120.87767221329023"><ele>386.25</ele><time>2026-04-04T02:40:52.001Z</time></trkpt><trkpt lat="14.008510735948995" lon="120.87776766014709"><ele>385.5</ele><time>2026-04-04T02:40:53.001Z</time></trkpt><trkpt lat="14.008446123968822" lon="120.87786537251161"><ele>384.75</ele><time>2026-04-04T02:40:54.001Z</time></trkpt><trkpt lat="14.008374144759227" lon="120.87797669399437"><ele>384.0</ele><time>2026-04-04T02:40:55.001Z</time></trkpt><trkpt lat="14.008300487991004" lon="120.87809015978439"><ele>383.0</ele><time>2026-04-04T02:40:56.001Z</time></trkpt><trkpt lat="14.008223842904306" lon="120.87820796559181"><ele>382.0</ele><time>2026-04-04T02:40:57.001Z</time></trkpt><trkpt lat="14.008146917871223" lon="120.87832739046627"><ele>381.0</ele><time>2026-04-04T02:40:58.001Z</time></trkpt><trkpt lat="14.008067844933825" lon="120.87845014987901"><ele>380.0</ele><time>2026-04-04T02:40:59.001Z</time></trkpt><trkpt lat="14.007991533166475" lon="120.878568680965"><ele>379.75</ele><time>2026-04-04T02:41:00.001Z</time></trkpt><trkpt lat="14.007919685978807" lon="120.87868042483105"><ele>379.5</ele><time>2026-04-04T02:41:01.001Z</time></trkpt><trkpt lat="14.007850677400185" lon="120.87878755472066"><ele>379.25</ele><time>2026-04-04T02:41:02.001Z</time></trkpt><trkpt lat="14.007788363822995" lon="120.87888469102599"><ele>379.0</ele><time>2026-04-04T02:41:03.001Z</time></trkpt><trkpt lat="14.00772582384918" lon="120.87898261794422"><ele>379.0</ele><time>2026-04-04T02:41:04.001Z</time></trkpt><trkpt lat="14.007670471555938" lon="120.8790692909728"><ele>379.0</ele><time>2026-04-04T02:41:05.001Z</time></trkpt><trkpt lat="14.007609663537373" lon="120.87915109130869"><ele>379.0</ele><time>2026-04-04T02:41:06.001Z</time></trkpt><trkpt lat="14.007546900440614" lon="120.87923720585356"><ele>379.0</ele><time>2026-04-04T02:41:07.001Z</time></trkpt><trkpt lat="14.007483824689231" lon="120.87932426202423"><ele>379.0</ele><time>2026-04-04T02:41:08.001Z</time></trkpt><trkpt lat="14.00742217851556" lon="120.8794093452748"><ele>379.79999999999995</ele><time>2026-04-04T02:41:09.001Z</time></trkpt><trkpt lat="14.00735852240782" lon="120.87948693517299"><ele>380.59999999999997</ele><time>2026-04-04T02:41:10.001Z</time></trkpt><trkpt lat="14.007298870125089" lon="120.87957019119312"><ele>381.4</ele><time>2026-04-04T02:41:11.001Z</time></trkpt><trkpt lat="14.00724844695225" lon="120.879645503099"><ele>382.2</ele><time>2026-04-04T02:41:12.001Z</time></trkpt><trkpt lat="14.007203895597632" lon="120.87973209769241"><ele>383.0</ele><time>2026-04-04T02:41:13.001Z</time></trkpt><trkpt lat="14.007161718319487" lon="120.87982381013128"><ele>383.0</ele><time>2026-04-04T02:41:14.001Z</time></trkpt><trkpt lat="14.007127984074707" lon="120.87993382351495"><ele>383.0</ele><time>2026-04-04T02:41:15.001Z</time></trkpt><trkpt lat="14.007098856593485" lon="120.88003131881561"><ele>383.0</ele><time>2026-04-04T02:41:16.001Z</time></trkpt><trkpt lat="14.00707567609963" lon="120.88013460627849"><ele>383.0</ele><time>2026-04-04T02:41:17.001Z</time></trkpt><trkpt lat="14.00705744025938" lon="120.88022695560868"><ele>383.0</ele><time>2026-04-04T02:41:18.001Z</time></trkpt><trkpt lat="14.007039103116508" lon="120.88031844800551"><ele>382.6666666666667</ele><time>2026-04-04T02:41:19.001Z</time></trkpt><trkpt lat="14.007021133031923" lon="120.88040810897886"><ele>382.33333333333337</ele><time>2026-04-04T02:41:20.001Z</time></trkpt><trkpt lat="14.007003187750637" lon="120.88049764622122"><ele>382.0</ele><time>2026-04-04T02:41:21.001Z</time></trkpt><trkpt lat="14.006985174651877" lon="120.88058681692381"><ele>381.6666666666667</ele><time>2026-04-04T02:41:22.001Z</time></trkpt><trkpt lat="14.006968380031825" lon="120.88066987557319"><ele>381.3333333333333</ele><time>2026-04-04T02:41:23.001Z</time></trkpt><trkpt lat="14.006950637092654" lon="120.88075804827608"><ele>381.0</ele><time>2026-04-04T02:41:24.001Z</time></trkpt><trkpt lat="14.006934151065304" lon="120.88084026704657"><ele>381.0</ele><time>2026-04-04T02:41:25.001Z</time></trkpt><trkpt lat="14.006916647514391" lon="120.88092756075977"><ele>381.0</ele><time>2026-04-04T02:41:26.001Z</time></trkpt><trkpt lat="14.006894775222742" lon="120.88101940889909"><ele>381.0</ele><time>2026-04-04T02:41:27.001Z</time></trkpt><trkpt lat="14.006869253738387" lon="120.88110981764615"><ele>381.0</ele><time>2026-04-04T02:41:28.001Z</time></trkpt><trkpt lat="14.006839992874887" lon="120.8812107423994"><ele>381.0</ele><time>2026-04-04T02:41:29.001Z</time></trkpt><trkpt lat="14.006802091361351" lon="120.8812927880318"><ele>381.20000000000005</ele><time>2026-04-04T02:41:30.001Z</time></trkpt><trkpt lat="14.0067573624534" lon="120.88139041520898"><ele>381.40000000000003</ele><time>2026-04-04T02:41:31.001Z</time></trkpt><trkpt lat="14.006714402866164" lon="120.88148418108896"><ele>381.6</ele><time>2026-04-04T02:41:32.001Z</time></trkpt><trkpt lat="14.006661161369426" lon="120.88155149009154"><ele>381.8</ele><time>2026-04-04T02:41:33.001Z</time></trkpt><trkpt lat="14.006602642701223" lon="120.8816387123905"><ele>382.0</ele><time>2026-04-04T02:41:34.001Z</time></trkpt><trkpt lat="14.006546231011512" lon="120.88172115802226"><ele>382.40000000000003</ele><time>2026-04-04T02:41:35.001Z</time></trkpt><trkpt lat="14.006483508734984" lon="120.88180577994257"><ele>382.8</ele><time>2026-04-04T02:41:36.001Z</time></trkpt><trkpt lat="14.006416314204783" lon="120.88189752631996"><ele>383.2</ele><time>2026-04-04T02:41:37.001Z</time></trkpt><trkpt lat="14.006350179532856" lon="120.8819881822016"><ele>383.6</ele><time>2026-04-04T02:41:38.001Z</time></trkpt><trkpt lat="14.006282880506989" lon="120.88208068423504"><ele>384.0</ele><time>2026-04-04T02:41:39.001Z</time></trkpt><trkpt lat="14.006217231242182" lon="120.88217112640704"><ele>384.0</ele><time>2026-04-04T02:41:40.001Z</time></trkpt><trkpt lat="14.006157568036604" lon="120.88225357187541"><ele>384.0</ele><time>2026-04-04T02:41:41.001Z</time></trkpt><trkpt lat="14.006100538967884" lon="120.88233204297387"><ele>384.0</ele><time>2026-04-04T02:41:42.001Z</time></trkpt><trkpt lat="14.006043504185733" lon="120.88241012987406"><ele>384.0</ele><time>2026-04-04T02:41:43.001Z</time></trkpt><trkpt lat="14.005983946097846" lon="120.88249142122531"><ele>384.0</ele><time>2026-04-04T02:41:44.001Z</time></trkpt><trkpt lat="14.005923995437138" lon="120.88257411747166"><ele>384.0</ele><time>2026-04-04T02:41:45.001Z</time></trkpt><trkpt lat="14.005864977569656" lon="120.88265458726737"><ele>384.0</ele><time>2026-04-04T02:41:46.001Z</time></trkpt><trkpt lat="14.005804846713884" lon="120.88273657454451"><ele>384.0</ele><time>2026-04-04T02:41:47.001Z</time></trkpt><trkpt lat="14.005741081537948" lon="120.88282351725063"><ele>384.0</ele><time>2026-04-04T02:41:48.001Z</time></trkpt><trkpt lat="14.005675549309036" lon="120.88291286922663"><ele>384.0</ele><time>2026-04-04T02:41:49.001Z</time></trkpt><trkpt lat="14.005608551396053" lon="120.8830044098008"><ele>384.0</ele><time>2026-04-04T02:41:50.001Z</time></trkpt><trkpt lat="14.005542722754512" lon="120.88309454416536"><ele>384.0</ele><time>2026-04-04T02:41:51.001Z</time></trkpt><trkpt lat="14.005490866635295" lon="120.8832083397984"><ele>384.0</ele><time>2026-04-04T02:41:52.001Z</time></trkpt><trkpt lat="14.005432964456457" lon="120.88331919051205"><ele>384.0</ele><time>2026-04-04T02:41:53.001Z</time></trkpt><trkpt lat="14.005382342198327" lon="120.88341610419187"><ele>384.4</ele><time>2026-04-04T02:41:54.001Z</time></trkpt><trkpt lat="14.005327827067704" lon="120.8835204703748"><ele>384.79999999999995</ele><time>2026-04-04T02:41:55.001Z</time></trkpt><trkpt lat="14.00528185061061" lon="120.88363116441292"><ele>385.20000000000005</ele><time>2026-04-04T02:41:56.001Z</time></trkpt><trkpt lat="14.005237253120267" lon="120.88373434227546"><ele>385.6</ele><time>2026-04-04T02:41:57.001Z</time></trkpt><trkpt lat="14.00519307195275" lon="120.8838358003085"><ele>386.0</ele><time>2026-04-04T02:41:58.001Z</time></trkpt><trkpt lat="14.005147124312316" lon="120.88393897765218"><ele>386.0</ele><time>2026-04-04T02:41:59.001Z</time></trkpt><trkpt lat="14.005105570910183" lon="120.88403742545411"><ele>386.0</ele><time>2026-04-04T02:42:00.001Z</time></trkpt><trkpt lat="14.005067644957897" lon="120.88412991218726"><ele>386.0</ele><time>2026-04-04T02:42:01.001Z</time></trkpt><trkpt lat="14.005031422088518" lon="120.88421824571243"><ele>386.0</ele><time>2026-04-04T02:42:02.001Z</time></trkpt><trkpt lat="14.004993147092485" lon="120.88430968094173"><ele>386.0</ele><time>2026-04-04T02:42:03.001Z</time></trkpt><trkpt lat="14.004952862298342" lon="120.88440358873105"><ele>385.20000000000005</ele><time>2026-04-04T02:42:04.001Z</time></trkpt><trkpt lat="14.004909061328915" lon="120.88450352218948"><ele>384.40000000000003</ele><time>2026-04-04T02:42:05.001Z</time></trkpt><trkpt lat="14.004852735687196" lon="120.88459111273313"><ele>383.6</ele><time>2026-04-04T02:42:06.001Z</time></trkpt><trkpt lat="14.00478922988267" lon="120.88469076936393"><ele>382.8</ele><time>2026-04-04T02:42:07.001Z</time></trkpt><trkpt lat="14.004726165341253" lon="120.88478135541888"><ele>382.0</ele><time>2026-04-04T02:42:08.001Z</time></trkpt><trkpt lat="14.004668742061334" lon="120.88485962739605"><ele>382.0</ele><time>2026-04-04T02:42:09.001Z</time></trkpt><trkpt lat="14.00461623296022" lon="120.88493738468473"><ele>382.0</ele><time>2026-04-04T02:42:10.001Z</time></trkpt><trkpt lat="14.00455916060855" lon="120.8850202163236"><ele>382.0</ele><time>2026-04-04T02:42:11.001Z</time></trkpt><trkpt lat="14.004502238444138" lon="120.88509801074242"><ele>382.0</ele><time>2026-04-04T02:42:12.001Z</time></trkpt><trkpt lat="14.004439400337278" lon="120.88517839216395"><ele>382.0</ele><time>2026-04-04T02:42:13.001Z</time></trkpt><trkpt lat="14.00437006611896" lon="120.88524534100085"><ele>382.0</ele><time>2026-04-04T02:42:14.001Z</time></trkpt><trkpt lat="14.004294401633368" lon="120.88530445052311"><ele>382.0</ele><time>2026-04-04T02:42:15.001Z</time></trkpt><trkpt lat="14.004205030260533" lon="120.88536497969655"><ele>382.0</ele><time>2026-04-04T02:42:16.001Z</time></trkpt><trkpt lat="14.004116171937197" lon="120.88540522745456"><ele>382.0</ele><time>2026-04-04T02:42:17.001Z</time></trkpt><trkpt lat="14.004023876718207" lon="120.88544898851764"><ele>382.0</ele><time>2026-04-04T02:42:18.001Z</time></trkpt><trkpt lat="14.003932857697707" lon="120.88549167110538"><ele>381.6</ele><time>2026-04-04T02:42:19.001Z</time></trkpt><trkpt lat="14.003839001891212" lon="120.885536579551"><ele>381.20000000000005</ele><time>2026-04-04T02:42:20.001Z</time></trkpt><trkpt lat="14.003753955571536" lon="120.88557734236531"><ele>380.8</ele><time>2026-04-04T02:42:21.001Z</time></trkpt><trkpt lat="14.003664740792429" lon="120.8856130300688"><ele>380.4</ele><time>2026-04-04T02:42:22.001Z</time></trkpt><trkpt lat="14.003566315729245" lon="120.88565790463242"><ele>380.0</ele><time>2026-04-04T02:42:23.001Z</time></trkpt><trkpt lat="14.003476733172555" lon="120.88570430307809"><ele>380.0</ele><time>2026-04-04T02:42:24.001Z</time></trkpt><trkpt lat="14.003382512831028" lon="120.88577249251462"><ele>380.0</ele><time>2026-04-04T02:42:25.001Z</time></trkpt><trkpt lat="14.003288420955139" lon="120.8858422371675"><ele>380.0</ele><time>2026-04-04T02:42:26.001Z</time></trkpt><trkpt lat="14.003191878382834" lon="120.88592419425538"><ele>380.0</ele><time>2026-04-04T02:42:27.001Z</time></trkpt><trkpt lat="14.003104215169111" lon="120.88600645440661"><ele>379.4</ele><time>2026-04-04T02:42:28.001Z</time></trkpt><trkpt lat="14.003022817037863" lon="120.88608363445825"><ele>378.8</ele><time>2026-04-04T02:42:29.001Z</time></trkpt><trkpt lat="14.002941535589839" lon="120.8861600730734"><ele>378.20000000000005</ele><time>2026-04-04T02:42:30.001Z</time></trkpt><trkpt lat="14.00285776682336" lon="120.8862345119311"><ele>377.6</ele><time>2026-04-04T02:42:31.001Z</time></trkpt><trkpt lat="14.00277739011739" lon="120.88630794638468"><ele>377.0</ele><time>2026-04-04T02:42:32.001Z</time></trkpt><trkpt lat="14.002696950458855" lon="120.88637258522361"><ele>377.0</ele><time>2026-04-04T02:42:33.001Z</time></trkpt><trkpt lat="14.002611516252143" lon="120.88643725814052"><ele>377.0</ele><time>2026-04-04T02:42:34.001Z</time></trkpt><trkpt lat="14.002525433247312" lon="120.8864984701008"><ele>377.0</ele><time>2026-04-04T02:42:35.001Z</time></trkpt><trkpt lat="14.002437609625183" lon="120.886547929285"><ele>377.0</ele><time>2026-04-04T02:42:36.001Z</time></trkpt><trkpt lat="14.002345510507327" lon="120.88659658095132"><ele>377.0</ele><time>2026-04-04T02:42:37.001Z</time></trkpt><trkpt lat="14.002254425985475" lon="120.88664469661978"><ele>376.40000000000003</ele><time>2026-04-04T02:42:38.001Z</time></trkpt><trkpt lat="14.00216305826606" lon="120.88669411921302"><ele>375.8</ele><time>2026-04-04T02:42:39.001Z</time></trkpt><trkpt lat="14.00206939269727" lon="120.88674655205715"><ele>375.2</ele><time>2026-04-04T02:42:40.001Z</time></trkpt><trkpt lat="14.001975602599726" lon="120.88679905463971"><ele>374.6</ele><time>2026-04-04T02:42:41.001Z</time></trkpt><trkpt lat="14.001875085939833" lon="120.88685784704826"><ele>374.0</ele><time>2026-04-04T02:42:42.001Z</time></trkpt><trkpt lat="14.001780759934281" lon="120.88692184879125"><ele>373.6</ele><time>2026-04-04T02:42:43.001Z</time></trkpt><trkpt lat="14.001690253076752" lon="120.88698334788253"><ele>373.2</ele><time>2026-04-04T02:42:44.001Z</time></trkpt><trkpt lat="14.001592960463634" lon="120.8870542103655"><ele>372.8</ele><time>2026-04-04T02:42:45.001Z</time></trkpt><trkpt lat="14.001507304147754" lon="120.88712423875535"><ele>372.40000000000003</ele><time>2026-04-04T02:42:46.001Z</time></trkpt><trkpt lat="14.001433778818537" lon="120.88718434944921"><ele>372.0</ele><time>2026-04-04T02:42:47.001Z</time></trkpt><trkpt lat="14.001363129594349" lon="120.88724584386924"><ele>371.8</ele><time>2026-04-04T02:42:48.001Z</time></trkpt><trkpt lat="14.001291519108566" lon="120.88730807617578"><ele>371.6</ele><time>2026-04-04T02:42:49.001Z</time></trkpt><trkpt lat="14.001212477976974" lon="120.88738396344053"><ele>371.40000000000003</ele><time>2026-04-04T02:42:50.001Z</time></trkpt><trkpt lat="14.001145741309086" lon="120.88745713040498"><ele>371.20000000000005</ele><time>2026-04-04T02:42:51.001Z</time></trkpt><trkpt lat="14.001078278944714" lon="120.88753066497833"><ele>371.0</ele><time>2026-04-04T02:42:52.001Z</time></trkpt><trkpt lat="14.001015639577293" lon="120.88763109966077"><ele>369.75</ele><time>2026-04-04T02:42:53.001Z</time></trkpt><trkpt lat="14.000954324789799" lon="120.88772483031488"><ele>368.5</ele><time>2026-04-04T02:42:54.001Z</time></trkpt><trkpt lat="14.00089337311036" lon="120.88782231699322"><ele>367.25</ele><time>2026-04-04T02:42:55.001Z</time></trkpt><trkpt lat="14.000839248412682" lon="120.88793661044443"><ele>366.0</ele><time>2026-04-04T02:42:56.001Z</time></trkpt><trkpt lat="14.000792115677896" lon="120.88803831431441"><ele>365.6</ele><time>2026-04-04T02:42:57.001Z</time></trkpt><trkpt lat="14.000748106141792" lon="120.88813826092434"><ele>365.20000000000005</ele><time>2026-04-04T02:42:58.001Z</time></trkpt><trkpt lat="14.000705077901129" lon="120.8882403004443"><ele>364.79999999999995</ele><time>2026-04-04T02:42:59.001Z</time></trkpt><trkpt lat="14.00067988107831" lon="120.88836038569774"><ele>364.4</ele><time>2026-04-04T02:43:00.001Z</time></trkpt><trkpt lat="14.000658846196488" lon="120.8884720048325"><ele>364.0</ele><time>2026-04-04T02:43:01.001Z</time></trkpt><trkpt lat="14.000664025884802" lon="120.8885883049789"><ele>364.0</ele><time>2026-04-04T02:43:02.001Z</time></trkpt><trkpt lat="14.000670409297975" lon="120.88869690802723"><ele>364.0</ele><time>2026-04-04T02:43:03.001Z</time></trkpt><trkpt lat="14.000676576382288" lon="120.88879732081648"><ele>364.0</ele><time>2026-04-04T02:43:04.001Z</time></trkpt><trkpt lat="14.000682721992245" lon="120.88889738394938"><ele>364.0</ele><time>2026-04-04T02:43:05.001Z</time></trkpt><trkpt lat="14.0006883859681" lon="120.88898960509661"><ele>364.0</ele><time>2026-04-04T02:43:06.001Z</time></trkpt><trkpt lat="14.00069364329024" lon="120.88907520493213"><ele>364.0</ele><time>2026-04-04T02:43:07.001Z</time></trkpt><trkpt lat="14.000683166401853" lon="120.88914589188582"><ele>364.0</ele><time>2026-04-04T02:43:08.001Z</time></trkpt><trkpt lat="14.00067674820648" lon="120.88922422675131"><ele>364.0</ele><time>2026-04-04T02:43:09.001Z</time></trkpt><trkpt lat="14.00067142972715" lon="120.88928913917277"><ele>364.0</ele><time>2026-04-04T02:43:10.001Z</time></trkpt><trkpt lat="14.000612197004262" lon="120.88939016763261"><ele>364.0</ele><time>2026-04-04T02:43:12.001Z</time></trkpt><trkpt lat="14.00053079905804" lon="120.88950084335936"><ele>364.0</ele><time>2026-04-04T02:43:14.001Z</time></trkpt><trkpt lat="14.000489380964108" lon="120.8895635292795"><ele>364.0</ele><time>2026-04-04T02:43:15.001Z</time></trkpt><trkpt lat="14.000436671939788" lon="120.88964330394413"><ele>364.0</ele><time>2026-04-04T02:43:16.001Z</time></trkpt><trkpt lat="14.000389101760415" lon="120.88971475800606"><ele>364.0</ele><time>2026-04-04T02:43:17.001Z</time></trkpt><trkpt lat="14.00033594278694" lon="120.88979524633817"><ele>364.0</ele><time>2026-04-04T02:43:18.001Z</time></trkpt><trkpt lat="14.00028140996345" lon="120.88988049596954"><ele>364.0</ele><time>2026-04-04T02:43:19.001Z</time></trkpt><trkpt lat="14.000223596428315" lon="120.88996028213906"><ele>364.0</ele><time>2026-04-04T02:43:20.001Z</time></trkpt><trkpt lat="14.000154110855553" lon="120.89004113738356"><ele>364.0</ele><time>2026-04-04T02:43:21.001Z</time></trkpt><trkpt lat="14.000076488023506" lon="120.89013146132861"><ele>364.0</ele><time>2026-04-04T02:43:22.001Z</time></trkpt><trkpt lat="13.999998935582921" lon="120.89022158715407"><ele>364.0</ele><time>2026-04-04T02:43:23.001Z</time></trkpt><trkpt lat="13.999920559928292" lon="120.89031034676356"><ele>362.0</ele><time>2026-04-04T02:43:24.001Z</time></trkpt><trkpt lat="13.999844145938287" lon="120.89039670678835"><ele>360.0</ele><time>2026-04-04T02:43:25.001Z</time></trkpt><trkpt lat="13.99977393146567" lon="120.89049418481224"><ele>358.0</ele><time>2026-04-04T02:43:26.001Z</time></trkpt><trkpt lat="13.999708097037747" lon="120.89059087801634"><ele>356.0</ele><time>2026-04-04T02:43:27.001Z</time></trkpt><trkpt lat="13.999646626323164" lon="120.8906881427806"><ele>356.0</ele><time>2026-04-04T02:43:28.001Z</time></trkpt><trkpt lat="13.999587201424717" lon="120.89077683349275"><ele>356.0</ele><time>2026-04-04T02:43:29.001Z</time></trkpt><trkpt lat="13.999511326480519" lon="120.89087176926371"><ele>356.0</ele><time>2026-04-04T02:43:30.001Z</time></trkpt><trkpt lat="13.999438512552787" lon="120.89093628739063"><ele>356.0</ele><time>2026-04-04T02:43:31.001Z</time></trkpt><trkpt lat="13.999354730022946" lon="120.89100415310602"><ele>356.0</ele><time>2026-04-04T02:43:32.001Z</time></trkpt><trkpt lat="13.999259717754976" lon="120.89107964805112"><ele>356.25</ele><time>2026-04-04T02:43:33.001Z</time></trkpt><trkpt lat="13.999168508628632" lon="120.89115143290556"><ele>356.5</ele><time>2026-04-04T02:43:34.001Z</time></trkpt><trkpt lat="13.999069231306098" lon="120.89123160659328"><ele>356.75</ele><time>2026-04-04T02:43:35.001Z</time></trkpt><trkpt lat="13.998983937656275" lon="120.8913106575646"><ele>357.0</ele><time>2026-04-04T02:43:36.001Z</time></trkpt><trkpt lat="13.998902415750605" lon="120.89138682736456"><ele>357.0</ele><time>2026-04-04T02:43:37.001Z</time></trkpt><trkpt lat="13.998829279862777" lon="120.89145462724845"><ele>357.0</ele><time>2026-04-04T02:43:38.001Z</time></trkpt><trkpt lat="13.99875519982899" lon="120.8915186461986"><ele>357.0</ele><time>2026-04-04T02:43:39.001Z</time></trkpt><trkpt lat="13.998669662662847" lon="120.89158606024992"><ele>357.0</ele><time>2026-04-04T02:43:40.001Z</time></trkpt><trkpt lat="13.99858729435496" lon="120.8916480394825"><ele>357.0</ele><time>2026-04-04T02:43:41.001Z</time></trkpt><trkpt lat="13.998512438512629" lon="120.89169946363172"><ele>357.0</ele><time>2026-04-04T02:43:42.001Z</time></trkpt><trkpt lat="13.998431258714003" lon="120.89175523217942"><ele>357.0</ele><time>2026-04-04T02:43:43.001Z</time></trkpt><trkpt lat="13.998362664701821" lon="120.8918023544817"><ele>357.0</ele><time>2026-04-04T02:43:44.001Z</time></trkpt><trkpt lat="13.99830236057304" lon="120.89184086112668"><ele>357.0</ele><time>2026-04-04T02:43:45.001Z</time></trkpt><trkpt lat="13.998237585764187" lon="120.89188321183883"><ele>357.0</ele><time>2026-04-04T02:43:46.001Z</time></trkpt><trkpt lat="13.998166053170781" lon="120.89192998087331"><ele>357.0</ele><time>2026-04-04T02:43:47.001Z</time></trkpt><trkpt lat="13.998085535410413" lon="120.89198262454669"><ele>357.1666666666667</ele><time>2026-04-04T02:43:48.001Z</time></trkpt><trkpt lat="13.998008281946111" lon="120.89203289328849"><ele>357.3333333333333</ele><time>2026-04-04T02:43:49.001Z</time></trkpt><trkpt lat="13.997923994255899" lon="120.89208694969142"><ele>357.5</ele><time>2026-04-04T02:43:50.001Z</time></trkpt><trkpt lat="13.997845492168672" lon="120.89214076552278"><ele>357.66666666666663</ele><time>2026-04-04T02:43:51.001Z</time></trkpt><trkpt lat="13.99777487735699" lon="120.89218983600028"><ele>357.8333333333333</ele><time>2026-04-04T02:43:52.001Z</time></trkpt><trkpt lat="13.997711060176544" lon="120.89222752268671"><ele>358.0</ele><time>2026-04-04T02:43:53.001Z</time></trkpt><trkpt lat="13.997647945010197" lon="120.89226553520156"><ele>358.0</ele><time>2026-04-04T02:43:54.001Z</time></trkpt><trkpt lat="13.997590413871759" lon="120.89230018474422"><ele>358.0</ele><time>2026-04-04T02:43:55.001Z</time></trkpt><trkpt lat="13.997478516189188" lon="120.89234583209895"><ele>358.0</ele><time>2026-04-04T02:43:57.001Z</time></trkpt><trkpt lat="13.997390061843264" lon="120.89238322486104"><ele>358.0</ele><time>2026-04-04T02:43:58.001Z</time></trkpt><trkpt lat="13.997300530045303" lon="120.89239696444102"><ele>358.0</ele><time>2026-04-04T02:43:59.001Z</time></trkpt><trkpt lat="13.9972140360021" lon="120.89240651756805"><ele>358.0</ele><time>2026-04-04T02:44:00.001Z</time></trkpt><trkpt lat="13.997115198382229" lon="120.89239890955952"><ele>358.0</ele><time>2026-04-04T02:44:01.001Z</time></trkpt><trkpt lat="13.997013453752585" lon="120.8923960760327"><ele>358.0</ele><time>2026-04-04T02:44:02.001Z</time></trkpt><trkpt lat="13.996916252659362" lon="120.89239316609762"><ele>358.0</ele><time>2026-04-04T02:44:03.001Z</time></trkpt><trkpt lat="13.996817974543845" lon="120.89238596851402"><ele>358.0</ele><time>2026-04-04T02:44:04.001Z</time></trkpt><trkpt lat="13.996715843174055" lon="120.89237764957748"><ele>358.0</ele><time>2026-04-04T02:44:05.001Z</time></trkpt><trkpt lat="13.996618878113479" lon="120.89237026701252"><ele>358.0</ele><time>2026-04-04T02:44:06.001Z</time></trkpt><trkpt lat="13.996518955445483" lon="120.89237686930001"><ele>358.0</ele><time>2026-04-04T02:44:07.001Z</time></trkpt><trkpt lat="13.99641512602061" lon="120.89236499143378"><ele>358.0</ele><time>2026-04-04T02:44:08.001Z</time></trkpt><trkpt lat="13.996308165225514" lon="120.89235167584079"><ele>358.0</ele><time>2026-04-04T02:44:09.001Z</time></trkpt><trkpt lat="13.996201653647104" lon="120.89234054416325"><ele>358.0</ele><time>2026-04-04T02:44:10.001Z</time></trkpt><trkpt lat="13.996093990413256" lon="120.89233015264418"><ele>358.0</ele><time>2026-04-04T02:44:11.001Z</time></trkpt><trkpt lat="13.995986292364213" lon="120.8923211868826"><ele>358.0</ele><time>2026-04-04T02:44:12.001Z</time></trkpt><trkpt lat="13.99587938137076" lon="120.89231163641244"><ele>358.0</ele><time>2026-04-04T02:44:13.001Z</time></trkpt><trkpt lat="13.99577101589853" lon="120.8923026165333"><ele>358.0</ele><time>2026-04-04T02:44:14.001Z</time></trkpt><trkpt lat="13.99566434080345" lon="120.89229265331892"><ele>357.79999999999995</ele><time>2026-04-04T02:44:15.001Z</time></trkpt><trkpt lat="13.995564046771129" lon="120.89228340265917"><ele>357.6</ele><time>2026-04-04T02:44:16.001Z</time></trkpt><trkpt lat="13.995460778975435" lon="120.89227189553965"><ele>357.4</ele><time>2026-04-04T02:44:17.001Z</time></trkpt><trkpt lat="13.995353556379158" lon="120.89226462815625"><ele>357.20000000000005</ele><time>2026-04-04T02:44:18.001Z</time></trkpt><trkpt lat="13.995245154892293" lon="120.89225252550548"><ele>357.0</ele><time>2026-04-04T02:44:19.001Z</time></trkpt><trkpt lat="13.99513362325148" lon="120.89224501081331"><ele>357.0</ele><time>2026-04-04T02:44:20.001Z</time></trkpt><trkpt lat="13.995021342628425" lon="120.89222909992938"><ele>357.0</ele><time>2026-04-04T02:44:21.001Z</time></trkpt><trkpt lat="13.99492046226591" lon="120.8922043743588"><ele>357.0</ele><time>2026-04-04T02:44:22.001Z</time></trkpt><trkpt lat="13.994785732737755" lon="120.89221200870692"><ele>357.0</ele><time>2026-04-04T02:44:23.001Z</time></trkpt><trkpt lat="13.994665582796946" lon="120.89219472762696"><ele>356.75</ele><time>2026-04-04T02:44:24.001Z</time></trkpt><trkpt lat="13.994539008472332" lon="120.89218370218812"><ele>356.5</ele><time>2026-04-04T02:44:25.001Z</time></trkpt><trkpt lat="13.994419045862132" lon="120.89214731038852"><ele>356.25</ele><time>2026-04-04T02:44:26.001Z</time></trkpt><trkpt lat="13.994300419201222" lon="120.89211107478503"><ele>356.0</ele><time>2026-04-04T02:44:27.001Z</time></trkpt><trkpt lat="13.99420007474603" lon="120.89206193445932"><ele>355.6</ele><time>2026-04-04T02:44:28.001Z</time></trkpt><trkpt lat="13.994106950087046" lon="120.8920067686132"><ele>355.20000000000005</ele><time>2026-04-04T02:44:29.001Z</time></trkpt><trkpt lat="13.99402292420977" lon="120.89194825952934"><ele>354.79999999999995</ele><time>2026-04-04T02:44:30.001Z</time></trkpt><trkpt lat="13.993942079153902" lon="120.89189017225799"><ele>354.4</ele><time>2026-04-04T02:44:31.001Z</time></trkpt><trkpt lat="13.993862639601039" lon="120.89182622923421"><ele>354.0</ele><time>2026-04-04T02:44:32.001Z</time></trkpt><trkpt lat="13.99379270879363" lon="120.8917447610593"><ele>353.5</ele><time>2026-04-04T02:44:33.001Z</time></trkpt><trkpt lat="13.993727746481316" lon="120.8916491269328"><ele>353.0</ele><time>2026-04-04T02:44:34.001Z</time></trkpt><trkpt lat="13.993674847718694" lon="120.89154418235552"><ele>352.5</ele><time>2026-04-04T02:44:35.001Z</time></trkpt><trkpt lat="13.993611995534165" lon="120.89144088406383"><ele>352.0</ele><time>2026-04-04T02:44:36.001Z</time></trkpt><trkpt lat="13.993536444726137" lon="120.89135738560555"><ele>352.0</ele><time>2026-04-04T02:44:37.001Z</time></trkpt><trkpt lat="13.993454534441605" lon="120.89127560444497"><ele>352.0</ele><time>2026-04-04T02:44:38.001Z</time></trkpt><trkpt lat="13.993369317889263" lon="120.89120191188874"><ele>352.0</ele><time>2026-04-04T02:44:39.001Z</time></trkpt><trkpt lat="13.993281109016104" lon="120.89113912808202"><ele>352.0</ele><time>2026-04-04T02:44:40.001Z</time></trkpt><trkpt lat="13.993189037776558" lon="120.89108070378717"><ele>352.0</ele><time>2026-04-04T02:44:41.001Z</time></trkpt><trkpt lat="13.99308681254875" lon="120.89102975541961"><ele>350.75</ele><time>2026-04-04T02:44:42.001Z</time></trkpt><trkpt lat="13.99298156759402" lon="120.8909810552956"><ele>349.5</ele><time>2026-04-04T02:44:43.001Z</time></trkpt><trkpt lat="13.992867502406883" lon="120.89094344063048"><ele>348.25</ele><time>2026-04-04T02:44:44.001Z</time></trkpt><trkpt lat="13.992749340802417" lon="120.89091260691357"><ele>347.0</ele><time>2026-04-04T02:44:45.001Z</time></trkpt><trkpt lat="13.992629147442733" lon="120.89089453475822"><ele>345.8</ele><time>2026-04-04T02:44:46.001Z</time></trkpt><trkpt lat="13.992505579417982" lon="120.89086887433403"><ele>344.6</ele><time>2026-04-04T02:44:47.001Z</time></trkpt><trkpt lat="13.992390971798065" lon="120.89084919882147"><ele>343.40000000000003</ele><time>2026-04-04T02:44:48.001Z</time></trkpt><trkpt lat="13.992286989421018" lon="120.89083113124943"><ele>342.20000000000005</ele><time>2026-04-04T02:44:49.001Z</time></trkpt><trkpt lat="13.992190355670553" lon="120.89082026966473"><ele>341.0</ele><time>2026-04-04T02:44:50.001Z</time></trkpt><trkpt lat="13.992089278565004" lon="120.89080423887616"><ele>341.0</ele><time>2026-04-04T02:44:51.001Z</time></trkpt><trkpt lat="13.991982567900456" lon="120.89078737119449"><ele>341.0</ele><time>2026-04-04T02:44:52.001Z</time></trkpt><trkpt lat="13.99187766448697" lon="120.89076969088363"><ele>341.0</ele><time>2026-04-04T02:44:53.001Z</time></trkpt><trkpt lat="13.991767061387232" lon="120.89075213341744"><ele>341.0</ele><time>2026-04-04T02:44:54.001Z</time></trkpt><trkpt lat="13.99164699870471" lon="120.89073417236666"><ele>341.0</ele><time>2026-04-04T02:44:55.001Z</time></trkpt><trkpt lat="13.991523962841091" lon="120.89071475320343"><ele>341.25</ele><time>2026-04-04T02:44:56.001Z</time></trkpt><trkpt lat="13.991397957254783" lon="120.89069197225376"><ele>341.5</ele><time>2026-04-04T02:44:57.001Z</time></trkpt><trkpt lat="13.991269892718522" lon="120.89066911103978"><ele>341.75</ele><time>2026-04-04T02:44:58.001Z</time></trkpt><trkpt lat="13.991137845947499" lon="120.89064770324642"><ele>342.0</ele><time>2026-04-04T02:44:59.001Z</time></trkpt><trkpt lat="13.991005707972805" lon="120.8906170453121"><ele>342.0</ele><time>2026-04-04T02:45:00.001Z</time></trkpt><trkpt lat="13.990883243546783" lon="120.89059720126701"><ele>342.0</ele><time>2026-04-04T02:45:01.001Z</time></trkpt><trkpt lat="13.990755236562006" lon="120.89057645910977"><ele>342.0</ele><time>2026-04-04T02:45:02.001Z</time></trkpt><trkpt lat="13.990633847631607" lon="120.89055678933633"><ele>342.0</ele><time>2026-04-04T02:45:03.001Z</time></trkpt><trkpt lat="13.990508417832514" lon="120.89055232798123"><ele>340.75</ele><time>2026-04-04T02:45:04.001Z</time></trkpt><trkpt lat="13.990380146617703" lon="120.89053086844396"><ele>339.5</ele><time>2026-04-04T02:45:05.001Z</time></trkpt><trkpt lat="13.990261424558419" lon="120.8905107861471"><ele>338.25</ele><time>2026-04-04T02:45:06.001Z</time></trkpt><trkpt lat="13.990145795983278" lon="120.89048995326958"><ele>337.0</ele><time>2026-04-04T02:45:07.001Z</time></trkpt><trkpt lat="13.990033897398229" lon="120.89046946352433"><ele>335.75</ele><time>2026-04-04T02:45:08.001Z</time></trkpt><trkpt lat="13.989912634112562" lon="120.8904515961546"><ele>334.5</ele><time>2026-04-04T02:45:09.001Z</time></trkpt><trkpt lat="13.98979142717891" lon="120.89043617795011"><ele>333.25</ele><time>2026-04-04T02:45:10.001Z</time></trkpt><trkpt lat="13.989668667666125" lon="120.89041871197527"><ele>332.0</ele><time>2026-04-04T02:45:11.001Z</time></trkpt><trkpt lat="13.989545141324564" lon="120.89040832212322"><ele>332.0</ele><time>2026-04-04T02:45:12.001Z</time></trkpt><trkpt lat="13.98942431765846" lon="120.89038392383459"><ele>332.0</ele><time>2026-04-04T02:45:13.001Z</time></trkpt><trkpt lat="13.989302792336783" lon="120.89038516072294"><ele>332.0</ele><time>2026-04-04T02:45:14.001Z</time></trkpt><trkpt lat="13.989187090108025" lon="120.89038781444239"><ele>332.0</ele><time>2026-04-04T02:45:15.001Z</time></trkpt><trkpt lat="13.989071924743703" lon="120.8904016434569"><ele>331.33333333333337</ele><time>2026-04-04T02:45:16.001Z</time></trkpt><trkpt lat="13.988975352429621" lon="120.89041537250094"><ele>330.6666666666667</ele><time>2026-04-04T02:45:17.001Z</time></trkpt><trkpt lat="13.98891336889105" lon="120.89042749485436"><ele>330.0</ele><time>2026-04-04T02:45:18.001Z</time></trkpt><trkpt lat="13.988833442659132" lon="120.89044994917744"><ele>329.3333333333333</ele><time>2026-04-04T02:45:21.001Z</time></trkpt><trkpt lat="13.988732096626094" lon="120.89047842113875"><ele>328.66666666666663</ele><time>2026-04-04T02:45:23.001Z</time></trkpt><trkpt lat="13.988652910176114" lon="120.89051259586742"><ele>328.0</ele><time>2026-04-04T02:45:24.001Z</time></trkpt><trkpt lat="13.988567879318559" lon="120.89054888914549"><ele>328.0</ele><time>2026-04-04T02:45:25.001Z</time></trkpt><trkpt lat="13.988468384194112" lon="120.89060018193747"><ele>328.0</ele><time>2026-04-04T02:45:26.001Z</time></trkpt><trkpt lat="13.98837036443082" lon="120.89066157351576"><ele>328.0</ele><time>2026-04-04T02:45:27.001Z</time></trkpt><trkpt lat="13.988266094484084" lon="120.89072238986593"><ele>328.0</ele><time>2026-04-04T02:45:28.001Z</time></trkpt><trkpt lat="13.988151990026285" lon="120.89078303133437"><ele>328.0</ele><time>2026-04-04T02:45:29.001Z</time></trkpt><trkpt lat="13.988035497257345" lon="120.89084540495749"><ele>328.0</ele><time>2026-04-04T02:45:30.001Z</time></trkpt><trkpt lat="13.987923815336174" lon="120.89090430999286"><ele>328.0</ele><time>2026-04-04T02:45:31.001Z</time></trkpt><trkpt lat="13.987815379284871" lon="120.89096052716755"><ele>328.0</ele><time>2026-04-04T02:45:32.001Z</time></trkpt><trkpt lat="13.987720443991504" lon="120.89100478072844"><ele>326.59999999999997</ele><time>2026-04-04T02:45:33.001Z</time></trkpt><trkpt lat="13.987616703577059" lon="120.89104240018567"><ele>325.2</ele><time>2026-04-04T02:45:34.001Z</time></trkpt><trkpt lat="13.987527982001971" lon="120.89106584757815"><ele>323.8</ele><time>2026-04-04T02:45:35.001Z</time></trkpt><trkpt lat="13.987428961870032" lon="120.8910881721162"><ele>322.4</ele><time>2026-04-04T02:45:36.001Z</time></trkpt><trkpt lat="13.987329910760463" lon="120.89110643125116"><ele>321.0</ele><time>2026-04-04T02:45:37.001Z</time></trkpt><trkpt lat="13.987230604180299" lon="120.89110859258192"><ele>321.0</ele><time>2026-04-04T02:45:38.001Z</time></trkpt><trkpt lat="13.987132300905708" lon="120.89111114466452"><ele>321.0</ele><time>2026-04-04T02:45:39.001Z</time></trkpt><trkpt lat="13.98703546896729" lon="120.89109844591407"><ele>321.0</ele><time>2026-04-04T02:45:40.001Z</time></trkpt><trkpt lat="13.986931002559812" lon="120.89108500298735"><ele>321.0</ele><time>2026-04-04T02:45:41.001Z</time></trkpt><trkpt lat="13.986826237596365" lon="120.89106260373569"><ele>321.0</ele><time>2026-04-04T02:45:42.001Z</time></trkpt><trkpt lat="13.98671448025526" lon="120.89104397542194"><ele>319.75</ele><time>2026-04-04T02:45:43.001Z</time></trkpt><trkpt lat="13.986608758983666" lon="120.89099631794589"><ele>318.5</ele><time>2026-04-04T02:45:44.001Z</time></trkpt><trkpt lat="13.98649985593125" lon="120.8909541048784"><ele>317.25</ele><time>2026-04-04T02:45:45.001Z</time></trkpt><trkpt lat="13.98639237433951" lon="120.89089327293236"><ele>316.0</ele><time>2026-04-04T02:45:46.001Z</time></trkpt><trkpt lat="13.986292865683703" lon="120.89082389191924"><ele>318.20000000000005</ele><time>2026-04-04T02:45:47.001Z</time></trkpt><trkpt lat="13.986199966118935" lon="120.89075137587486"><ele>320.40000000000003</ele><time>2026-04-04T02:45:48.001Z</time></trkpt><trkpt lat="13.986107017412287" lon="120.89068321048276"><ele>322.6</ele><time>2026-04-04T02:45:49.001Z</time></trkpt><trkpt lat="13.9860243576764" lon="120.8906176211846"><ele>324.8</ele><time>2026-04-04T02:45:50.001Z</time></trkpt><trkpt lat="13.985934681733246" lon="120.89055093463128"><ele>327.0</ele><time>2026-04-04T02:45:51.001Z</time></trkpt><trkpt lat="13.98584819883393" lon="120.89048850680669"><ele>326.0</ele><time>2026-04-04T02:45:52.001Z</time></trkpt><trkpt lat="13.98575329330535" lon="120.89042258642517"><ele>325.0</ele><time>2026-04-04T02:45:53.001Z</time></trkpt><trkpt lat="13.985652966281192" lon="120.89035671754853"><ele>324.0</ele><time>2026-04-04T02:45:54.001Z</time></trkpt><trkpt lat="13.985549835541292" lon="120.89029876955466"><ele>323.0</ele><time>2026-04-04T02:45:55.001Z</time></trkpt><trkpt lat="13.985440723017621" lon="120.89022949061939"><ele>323.0</ele><time>2026-04-04T02:45:56.001Z</time></trkpt><trkpt lat="13.985333684140652" lon="120.89016284425614"><ele>323.0</ele><time>2026-04-04T02:45:57.001Z</time></trkpt><trkpt lat="13.985222080434598" lon="120.89011633466576"><ele>323.0</ele><time>2026-04-04T02:45:58.001Z</time></trkpt><trkpt lat="13.985109275405668" lon="120.8900907616411"><ele>323.0</ele><time>2026-04-04T02:45:59.001Z</time></trkpt><trkpt lat="13.985000118882313" lon="120.89007315810633"><ele>322.59999999999997</ele><time>2026-04-04T02:46:00.001Z</time></trkpt><trkpt lat="13.984896157530967" lon="120.89004067644002"><ele>322.2</ele><time>2026-04-04T02:46:01.001Z</time></trkpt><trkpt lat="13.984785117917761" lon="120.89002197246312"><ele>321.8</ele><time>2026-04-04T02:46:02.001Z</time></trkpt><trkpt lat="13.984675068091919" lon="120.89000353801528"><ele>321.4</ele><time>2026-04-04T02:46:03.001Z</time></trkpt><trkpt lat="13.984568936262644" lon="120.88998581177425"><ele>321.0</ele><time>2026-04-04T02:46:04.001Z</time></trkpt><trkpt lat="13.984456250268194" lon="120.88996699085024"><ele>321.0</ele><time>2026-04-04T02:46:05.001Z</time></trkpt><trkpt lat="13.984345933484486" lon="120.88994856563401"><ele>321.0</ele><time>2026-04-04T02:46:06.001Z</time></trkpt><trkpt lat="13.984226929870527" lon="120.88993277694968"><ele>321.0</ele><time>2026-04-04T02:46:07.001Z</time></trkpt><trkpt lat="13.9841060208418" lon="120.88991291716927"><ele>321.0</ele><time>2026-04-04T02:46:08.001Z</time></trkpt><trkpt lat="13.983980868787752" lon="120.88989236045484"><ele>320.0</ele><time>2026-04-04T02:46:09.001Z</time></trkpt><trkpt lat="13.983853429565942" lon="120.88987142806396"><ele>319.0</ele><time>2026-04-04T02:46:10.001Z</time></trkpt><trkpt lat="13.983727714716313" lon="120.88986585293358"><ele>318.0</ele><time>2026-04-04T02:46:11.001Z</time></trkpt><trkpt lat="13.983611256012287" lon="120.88982454196228"><ele>317.0</ele><time>2026-04-04T02:46:12.001Z</time></trkpt><trkpt lat="13.983500332534476" lon="120.88980071793745"><ele>317.0</ele><time>2026-04-04T02:46:13.001Z</time></trkpt><trkpt lat="13.983392158462639" lon="120.88977748442808"><ele>317.0</ele><time>2026-04-04T02:46:14.001Z</time></trkpt><trkpt lat="13.983286593041454" lon="120.88975481120107"><ele>317.0</ele><time>2026-04-04T02:46:15.001Z</time></trkpt><trkpt lat="13.983177095743603" lon="120.88973129349097"><ele>317.0</ele><time>2026-04-04T02:46:16.001Z</time></trkpt><trkpt lat="13.983060449672601" lon="120.88972157623348"><ele>317.0</ele><time>2026-04-04T02:46:17.001Z</time></trkpt><trkpt lat="13.982952510477554" lon="120.88969574486143"><ele>315.75</ele><time>2026-04-04T02:46:18.001Z</time></trkpt><trkpt lat="13.982843861546721" lon="120.88965771721898"><ele>314.5</ele><time>2026-04-04T02:46:19.001Z</time></trkpt><trkpt lat="13.982726500535568" lon="120.88965688300458"><ele>313.25</ele><time>2026-04-04T02:46:20.001Z</time></trkpt><trkpt lat="13.982607355470076" lon="120.88962832889672"><ele>312.0</ele><time>2026-04-04T02:46:21.001Z</time></trkpt><trkpt lat="13.982479947414081" lon="120.88961791889078"><ele>310.5</ele><time>2026-04-04T02:46:22.001Z</time></trkpt><trkpt lat="13.982356572641498" lon="120.88961184385856"><ele>309.0</ele><time>2026-04-04T02:46:23.001Z</time></trkpt><trkpt lat="13.982230027297176" lon="120.88960561270773"><ele>307.5</ele><time>2026-04-04T02:46:24.001Z</time></trkpt><trkpt lat="13.982107556774393" lon="120.88959958220286"><ele>306.0</ele><time>2026-04-04T02:46:25.001Z</time></trkpt><trkpt lat="13.981984604791261" lon="120.88959352799041"><ele>306.0</ele><time>2026-04-04T02:46:26.001Z</time></trkpt><trkpt lat="13.981851965925642" lon="120.88958613596677"><ele>306.0</ele><time>2026-04-04T02:46:27.001Z</time></trkpt><trkpt lat="13.981718397986121" lon="120.8895786000307"><ele>306.0</ele><time>2026-04-04T02:46:28.001Z</time></trkpt><trkpt lat="13.981580667299808" lon="120.88956880254294"><ele>306.0</ele><time>2026-04-04T02:46:29.001Z</time></trkpt><trkpt lat="13.981444617678225" lon="120.88955788482511"><ele>304.75</ele><time>2026-04-04T02:46:30.001Z</time></trkpt><trkpt lat="13.981313758342448" lon="120.88953536509514"><ele>303.5</ele><time>2026-04-04T02:46:31.001Z</time></trkpt><trkpt lat="13.981199375259084" lon="120.88950910693482"><ele>302.25</ele><time>2026-04-04T02:46:32.001Z</time></trkpt><trkpt lat="13.981072605272974" lon="120.8894856490096"><ele>301.0</ele><time>2026-04-04T02:46:33.001Z</time></trkpt><trkpt lat="13.980957484396152" lon="120.88942281701456"><ele>300.5</ele><time>2026-04-04T02:46:34.001Z</time></trkpt><trkpt lat="13.980841398862985" lon="120.88935193220975"><ele>300.0</ele><time>2026-04-04T02:46:35.001Z</time></trkpt><trkpt lat="13.980735497429496" lon="120.88928426499191"><ele>299.5</ele><time>2026-04-04T02:46:36.001Z</time></trkpt><trkpt lat="13.980642809599164" lon="120.88922775125496"><ele>299.0</ele><time>2026-04-04T02:46:37.001Z</time></trkpt><trkpt lat="13.980561656054604" lon="120.88918103644667"><ele>299.0</ele><time>2026-04-04T02:46:38.001Z</time></trkpt><trkpt lat="13.980489209168164" lon="120.88913630402445"><ele>299.0</ele><time>2026-04-04T02:46:39.001Z</time></trkpt><trkpt lat="13.980412677984226" lon="120.88909481062326"><ele>299.0</ele><time>2026-04-04T02:46:40.001Z</time></trkpt><trkpt lat="13.98034474288086" lon="120.88906054094562"><ele>299.0</ele><time>2026-04-04T02:46:41.001Z</time></trkpt><trkpt lat="13.980283931151043" lon="120.88902826817407"><ele>299.0</ele><time>2026-04-04T02:46:42.001Z</time></trkpt><trkpt lat="13.98018292023777" lon="120.88897008306823"><ele>299.0</ele><time>2026-04-04T02:46:44.001Z</time></trkpt><trkpt lat="13.980123318171481" lon="120.88891710179536"><ele>299.0</ele><time>2026-04-04T02:46:46.001Z</time></trkpt><trkpt lat="13.980047479922735" lon="120.88885544220001"><ele>299.0</ele><time>2026-04-04T02:46:48.001Z</time></trkpt><trkpt lat="13.97995299643199" lon="120.88879069515255"><ele>299.0</ele><time>2026-04-04T02:46:50.001Z</time></trkpt><trkpt lat="13.979896228682101" lon="120.88875368571155"><ele>299.0</ele><time>2026-04-04T02:46:51.001Z</time></trkpt><trkpt lat="13.979833046908796" lon="120.88871781444617"><ele>299.0</ele><time>2026-04-04T02:46:52.001Z</time></trkpt><trkpt lat="13.979764995547276" lon="120.88868255393392"><ele>299.0</ele><time>2026-04-04T02:46:53.001Z</time></trkpt><trkpt lat="13.97970167821861" lon="120.88864386375829"><ele>299.0</ele><time>2026-04-04T02:46:54.001Z</time></trkpt><trkpt lat="13.979633396462864" lon="120.88861010184696"><ele>299.0</ele><time>2026-04-04T02:46:55.001Z</time></trkpt><trkpt lat="13.979542564752169" lon="120.88856816668253"><ele>299.0</ele><time>2026-04-04T02:46:56.001Z</time></trkpt><trkpt lat="13.979456489552367" lon="120.88852095986798"><ele>299.0</ele><time>2026-04-04T02:46:57.001Z</time></trkpt><trkpt lat="13.979376660986853" lon="120.88847954942803"><ele>299.0</ele><time>2026-04-04T02:46:58.001Z</time></trkpt><trkpt lat="13.979303492934104" lon="120.88844029814098"><ele>299.0</ele><time>2026-04-04T02:46:59.001Z</time></trkpt><trkpt lat="13.979239185285657" lon="120.88840826188907"><ele>298.57142857142856</ele><time>2026-04-04T02:47:00.001Z</time></trkpt><trkpt lat="13.979178643722376" lon="120.88837751438506"><ele>298.14285714285717</ele><time>2026-04-04T02:47:01.001Z</time></trkpt><trkpt lat="13.979119062101486" lon="120.88834872214893"><ele>297.7142857142857</ele><time>2026-04-04T02:47:02.001Z</time></trkpt><trkpt lat="13.979052478934358" lon="120.88831874806598"><ele>297.2857142857143</ele><time>2026-04-04T02:47:03.001Z</time></trkpt><trkpt lat="13.978982399491912" lon="120.88829516854929"><ele>296.85714285714283</ele><time>2026-04-04T02:47:04.001Z</time></trkpt><trkpt lat="13.978907022118651" lon="120.88827920759282"><ele>296.42857142857144</ele><time>2026-04-04T02:47:05.001Z</time></trkpt><trkpt lat="13.978831995563391" lon="120.88825730126887"><ele>296.0</ele><time>2026-04-04T02:47:06.001Z</time></trkpt><trkpt lat="13.978753425935574" lon="120.88824074177349"><ele>296.0</ele><time>2026-04-04T02:47:07.001Z</time></trkpt><trkpt lat="13.978665794584241" lon="120.88823376747926"><ele>296.0</ele><time>2026-04-04T02:47:08.001Z</time></trkpt><trkpt lat="13.9785772020276" lon="120.88821779108146"><ele>296.0</ele><time>2026-04-04T02:47:09.001Z</time></trkpt><trkpt lat="13.978480569772936" lon="120.88822788669242"><ele>296.0</ele><time>2026-04-04T02:47:10.001Z</time></trkpt><trkpt lat="13.978382680312402" lon="120.8882369925052"><ele>296.0</ele><time>2026-04-04T02:47:11.001Z</time></trkpt><trkpt lat="13.978287806842902" lon="120.88824958691109"><ele>295.6</ele><time>2026-04-04T02:47:12.001Z</time></trkpt><trkpt lat="13.978189122134985" lon="120.88826774238088"><ele>295.20000000000005</ele><time>2026-04-04T02:47:13.001Z</time></trkpt><trkpt lat="13.978102742149964" lon="120.88829440860853"><ele>294.79999999999995</ele><time>2026-04-04T02:47:14.001Z</time></trkpt><trkpt lat="13.978011457610638" lon="120.8883225889117"><ele>294.4</ele><time>2026-04-04T02:47:15.001Z</time></trkpt><trkpt lat="13.9779161982898" lon="120.88835037690455"><ele>294.0</ele><time>2026-04-04T02:47:16.001Z</time></trkpt><trkpt lat="13.977819695804088" lon="120.88837677929588"><ele>294.0</ele><time>2026-04-04T02:47:17.001Z</time></trkpt><trkpt lat="13.97773112550015" lon="120.88840101119258"><ele>294.0</ele><time>2026-04-04T02:47:18.001Z</time></trkpt><trkpt lat="13.977651362253681" lon="120.88841029600263"><ele>294.0</ele><time>2026-04-04T02:47:19.001Z</time></trkpt><trkpt lat="13.977566359263685" lon="120.88841855630658"><ele>294.0</ele><time>2026-04-04T02:47:20.001Z</time></trkpt><trkpt lat="13.977493753014295" lon="120.88842136559879"><ele>294.0</ele><time>2026-04-04T02:47:21.001Z</time></trkpt><trkpt lat="13.977415858540601" lon="120.88841799829305"><ele>294.0</ele><time>2026-04-04T02:47:22.001Z</time></trkpt><trkpt lat="13.97732873178624" lon="120.8884170623056"><ele>293.59999999999997</ele><time>2026-04-04T02:47:23.001Z</time></trkpt><trkpt lat="13.977247111610785" lon="120.88838291508948"><ele>293.2</ele><time>2026-04-04T02:47:24.001Z</time></trkpt><trkpt lat="13.977159553267883" lon="120.8883387975477"><ele>292.79999999999995</ele><time>2026-04-04T02:47:25.001Z</time></trkpt><trkpt lat="13.97706935004359" lon="120.88829030512866"><ele>292.4</ele><time>2026-04-04T02:47:26.001Z</time></trkpt><trkpt lat="13.976977340302412" lon="120.88824202255002"><ele>292.0</ele><time>2026-04-04T02:47:27.001Z</time></trkpt><trkpt lat="13.976877975231849" lon="120.88818723742855"><ele>292.0</ele><time>2026-04-04T02:47:28.001Z</time></trkpt><trkpt lat="13.976783191513102" lon="120.88813466968229"><ele>292.0</ele><time>2026-04-04T02:47:29.001Z</time></trkpt><trkpt lat="13.976692182352076" lon="120.88808540340275"><ele>292.0</ele><time>2026-04-04T02:47:30.001Z</time></trkpt><trkpt lat="13.976605320747007" lon="120.88804448516"><ele>292.0</ele><time>2026-04-04T02:47:31.001Z</time></trkpt><trkpt lat="13.976522013580691" lon="120.8880030681241"><ele>292.0</ele><time>2026-04-04T02:47:32.001Z</time></trkpt><trkpt lat="13.976427616967941" lon="120.88796610318744"><ele>290.4</ele><time>2026-04-04T02:47:33.001Z</time></trkpt><trkpt lat="13.976342231752724" lon="120.88791761502878"><ele>288.79999999999995</ele><time>2026-04-04T02:47:34.001Z</time></trkpt><trkpt lat="13.976228397116483" lon="120.88792415813234"><ele>287.2</ele><time>2026-04-04T02:47:35.001Z</time></trkpt><trkpt lat="13.97612697796118" lon="120.88789713976033"><ele>285.59999999999997</ele><time>2026-04-04T02:47:36.001Z</time></trkpt><trkpt lat="13.976022037501354" lon="120.88788757096104"><ele>284.0</ele><time>2026-04-04T02:47:37.001Z</time></trkpt><trkpt lat="13.975913419297298" lon="120.8878897315446"><ele>283.0</ele><time>2026-04-04T02:47:38.001Z</time></trkpt><trkpt lat="13.975805933954572" lon="120.8878588051557"><ele>282.0</ele><time>2026-04-04T02:47:39.001Z</time></trkpt><trkpt lat="13.975701889809656" lon="120.88782387387326"><ele>281.0</ele><time>2026-04-04T02:47:40.001Z</time></trkpt><trkpt lat="13.975596652890525" lon="120.88778826499485"><ele>280.0</ele><time>2026-04-04T02:47:41.001Z</time></trkpt><trkpt lat="13.97549082871672" lon="120.887753234545"><ele>279.0</ele><time>2026-04-04T02:47:42.001Z</time></trkpt><trkpt lat="13.975393646198274" lon="120.88771411553002"><ele>279.0</ele><time>2026-04-04T02:47:43.001Z</time></trkpt><trkpt lat="13.975294994503475" lon="120.88767262400759"><ele>279.0</ele><time>2026-04-04T02:47:44.001Z</time></trkpt><trkpt lat="13.9751950553154" lon="120.88762801279744"><ele>279.0</ele><time>2026-04-04T02:47:45.001Z</time></trkpt><trkpt lat="13.97510018161537" lon="120.8875812189612"><ele>279.0</ele><time>2026-04-04T02:47:46.001Z</time></trkpt><trkpt lat="13.975001182944213" lon="120.88753393336853"><ele>279.0</ele><time>2026-04-04T02:47:47.001Z</time></trkpt><trkpt lat="13.974898787450313" lon="120.88749195886871"><ele>279.0</ele><time>2026-04-04T02:47:48.001Z</time></trkpt><trkpt lat="13.974794710663298" lon="120.8874536645705"><ele>279.0</ele><time>2026-04-04T02:47:49.001Z</time></trkpt><trkpt lat="13.974689926297149" lon="120.8874074083496"><ele>279.0</ele><time>2026-04-04T02:47:50.001Z</time></trkpt><trkpt lat="13.974583009144979" lon="120.88735862479923"><ele>279.0</ele><time>2026-04-04T02:47:51.001Z</time></trkpt><trkpt lat="13.974464743443352" lon="120.88730812574767"><ele>279.0</ele><time>2026-04-04T02:47:52.001Z</time></trkpt><trkpt lat="13.974347304632026" lon="120.88725912012814"><ele>279.0</ele><time>2026-04-04T02:47:53.001Z</time></trkpt><trkpt lat="13.974228791967596" lon="120.88721150956628"><ele>279.0</ele><time>2026-04-04T02:47:54.001Z</time></trkpt><trkpt lat="13.974097250558536" lon="120.88716316840848"><ele>279.0</ele><time>2026-04-04T02:47:55.001Z</time></trkpt><trkpt lat="13.97396551116054" lon="120.8871207862118"><ele>278.25</ele><time>2026-04-04T02:47:56.001Z</time></trkpt><trkpt lat="13.97383321578116" lon="120.88708290182875"><ele>277.5</ele><time>2026-04-04T02:47:57.001Z</time></trkpt><trkpt lat="13.973705560166275" lon="120.88704851097751"><ele>276.75</ele><time>2026-04-04T02:47:58.001Z</time></trkpt><trkpt lat="13.973579385996748" lon="120.88702260905242"><ele>276.0</ele><time>2026-04-04T02:47:59.001Z</time></trkpt><trkpt lat="13.973448308227605" lon="120.88700380838995"><ele>275.75</ele><time>2026-04-04T02:48:00.001Z</time></trkpt><trkpt lat="13.973315705931066" lon="120.88698913994509"><ele>275.5</ele><time>2026-04-04T02:48:01.001Z</time></trkpt><trkpt lat="13.973181635545513" lon="120.88697573671057"><ele>275.25</ele><time>2026-04-04T02:48:02.001Z</time></trkpt><trkpt lat="13.973044327609518" lon="120.88695770621521"><ele>275.0</ele><time>2026-04-04T02:48:03.001Z</time></trkpt><trkpt lat="13.97290130344092" lon="120.88693953901127"><ele>275.0</ele><time>2026-04-04T02:48:04.001Z</time></trkpt><trkpt lat="13.972729046717417" lon="120.8869364944384"><ele>275.0</ele><time>2026-04-04T02:48:05.001Z</time></trkpt><trkpt lat="13.97255478791593" lon="120.88692906714579"><ele>275.0</ele><time>2026-04-04T02:48:06.001Z</time></trkpt><trkpt lat="13.972372935795079" lon="120.88691953006513"><ele>271.33333333333337</ele><time>2026-04-04T02:48:07.001Z</time></trkpt><trkpt lat="13.972199878163279" lon="120.88691195014904"><ele>267.6666666666667</ele><time>2026-04-04T02:48:08.001Z</time></trkpt><trkpt lat="13.972044357905975" lon="120.88690666254217"><ele>264.0</ele><time>2026-04-04T02:48:09.001Z</time></trkpt><trkpt lat="13.971906669406762" lon="120.88690343022226"><ele>264.0</ele><time>2026-04-04T02:48:10.001Z</time></trkpt><trkpt lat="13.971778534224388" lon="120.88690016579577"><ele>264.0</ele><time>2026-04-04T02:48:11.001Z</time></trkpt><trkpt lat="13.97163363446529" lon="120.8868974679053"><ele>264.0</ele><time>2026-04-04T02:48:12.001Z</time></trkpt><trkpt lat="13.971536168223324" lon="120.88689116495128"><ele>264.0</ele><time>2026-04-04T02:48:13.001Z</time></trkpt><trkpt lat="13.971430553882934" lon="120.88688659262371"><ele>261.6666666666667</ele><time>2026-04-04T02:48:14.001Z</time></trkpt><trkpt lat="13.97132580986593" lon="120.8868825886428"><ele>259.3333333333333</ele><time>2026-04-04T02:48:15.001Z</time></trkpt><trkpt lat="13.971232842903339" lon="120.88688065814102"><ele>257.0</ele><time>2026-04-04T02:48:16.001Z</time></trkpt><trkpt lat="13.971146308735175" lon="120.88687815282887"><ele>254.66666666666666</ele><time>2026-04-04T02:48:17.001Z</time></trkpt><trkpt lat="13.971069470919227" lon="120.88685919660828"><ele>252.33333333333331</ele><time>2026-04-04T02:48:18.001Z</time></trkpt><trkpt lat="13.97098482316301" lon="120.88686787136307"><ele>250.0</ele><time>2026-04-04T02:48:19.001Z</time></trkpt><trkpt lat="13.970882015825294" lon="120.88684822260663"><ele>249.4</ele><time>2026-04-04T02:48:20.001Z</time></trkpt><trkpt lat="13.970782253110569" lon="120.88684763294974"><ele>248.8</ele><time>2026-04-04T02:48:21.001Z</time></trkpt><trkpt lat="13.970693819911446" lon="120.88683477558219"><ele>248.2</ele><time>2026-04-04T02:48:22.001Z</time></trkpt><trkpt lat="13.970611225068145" lon="120.88681371591912"><ele>247.6</ele><time>2026-04-04T02:48:23.001Z</time></trkpt><trkpt lat="13.970526196988137" lon="120.88678691205233"><ele>247.0</ele><time>2026-04-04T02:48:24.001Z</time></trkpt><trkpt lat="13.970432351243009" lon="120.88675993133639"><ele>247.6</ele><time>2026-04-04T02:48:25.001Z</time></trkpt><trkpt lat="13.970329468337852" lon="120.88673308062329"><ele>248.2</ele><time>2026-04-04T02:48:26.001Z</time></trkpt><trkpt lat="13.970232089117651" lon="120.88670417586152"><ele>248.8</ele><time>2026-04-04T02:48:27.001Z</time></trkpt><trkpt lat="13.970139244654941" lon="120.88667907386906"><ele>249.4</ele><time>2026-04-04T02:48:28.001Z</time></trkpt><trkpt lat="13.970051621206846" lon="120.8866582039536"><ele>250.0</ele><time>2026-04-04T02:48:29.001Z</time></trkpt><trkpt lat="13.969956028922551" lon="120.88663203261314"><ele>250.0</ele><time>2026-04-04T02:48:30.001Z</time></trkpt><trkpt lat="13.969860241625502" lon="120.88660580631142"><ele>250.0</ele><time>2026-04-04T02:48:31.001Z</time></trkpt><trkpt lat="13.96976444840868" lon="120.88658451853976"><ele>250.0</ele><time>2026-04-04T02:48:32.001Z</time></trkpt><trkpt lat="13.969670582202214" lon="120.88655918087238"><ele>250.0</ele><time>2026-04-04T02:48:33.001Z</time></trkpt><trkpt lat="13.969579648422792" lon="120.88653327984008"><ele>250.0</ele><time>2026-04-04T02:48:34.001Z</time></trkpt><trkpt lat="13.969484460033625" lon="120.88650390947225"><ele>250.0</ele><time>2026-04-04T02:48:35.001Z</time></trkpt><trkpt lat="13.969386846553698" lon="120.88647921071122"><ele>250.0</ele><time>2026-04-04T02:48:36.001Z</time></trkpt><trkpt lat="13.969291628829446" lon="120.88645176195108"><ele>250.0</ele><time>2026-04-04T02:48:37.001Z</time></trkpt><trkpt lat="13.969199360288412" lon="120.88643533056144"><ele>250.0</ele><time>2026-04-04T02:48:38.001Z</time></trkpt><trkpt lat="13.969092795505837" lon="120.88643120414739"><ele>250.0</ele><time>2026-04-04T02:48:39.001Z</time></trkpt><trkpt lat="13.968979812787715" lon="120.88642445906977"><ele>249.0</ele><time>2026-04-04T02:48:40.001Z</time></trkpt><trkpt lat="13.968866249191542" lon="120.88644230456487"><ele>248.0</ele><time>2026-04-04T02:48:41.001Z</time></trkpt><trkpt lat="13.968748834362977" lon="120.88647889259877"><ele>247.0</ele><time>2026-04-04T02:48:42.001Z</time></trkpt><trkpt lat="13.968630026721558" lon="120.8865372354421"><ele>246.0</ele><time>2026-04-04T02:48:43.001Z</time></trkpt><trkpt lat="13.968522547114212" lon="120.88659847516418"><ele>246.0</ele><time>2026-04-04T02:48:44.001Z</time></trkpt><trkpt lat="13.968422638260833" lon="120.88666485105688"><ele>246.0</ele><time>2026-04-04T02:48:45.001Z</time></trkpt><trkpt lat="13.96832879217716" lon="120.88673167527077"><ele>246.0</ele><time>2026-04-04T02:48:46.001Z</time></trkpt><trkpt lat="13.968239907416793" lon="120.88679537778732"><ele>246.0</ele><time>2026-04-04T02:48:47.001Z</time></trkpt><trkpt lat="13.968147818401647" lon="120.88686228082862"><ele>242.5</ele><time>2026-04-04T02:48:48.001Z</time></trkpt><trkpt lat="13.968059914356536" lon="120.88692764379441"><ele>239.0</ele><time>2026-04-04T02:48:49.001Z</time></trkpt><trkpt lat="13.967972080229462" lon="120.88699406564325"><ele>235.5</ele><time>2026-04-04T02:48:50.001Z</time></trkpt><trkpt lat="13.967880405623188" lon="120.8870564272302"><ele>232.0</ele><time>2026-04-04T02:48:51.001Z</time></trkpt><trkpt lat="13.96777174265299" lon="120.88711486343202"><ele>232.0</ele><time>2026-04-04T02:48:52.001Z</time></trkpt><trkpt lat="13.96767034017325" lon="120.88716994308056"><ele>232.0</ele><time>2026-04-04T02:48:53.001Z</time></trkpt><trkpt lat="13.96756336212123" lon="120.88721002458584"><ele>232.0</ele><time>2026-04-04T02:48:54.001Z</time></trkpt><trkpt lat="13.967461157654949" lon="120.88724854449116"><ele>232.0</ele><time>2026-04-04T02:48:55.001Z</time></trkpt><trkpt lat="13.96733876135933" lon="120.88728481008471"><ele>230.25</ele><time>2026-04-04T02:48:56.001Z</time></trkpt><trkpt lat="13.967222318043758" lon="120.88730543818123"><ele>228.5</ele><time>2026-04-04T02:48:57.001Z</time></trkpt><trkpt lat="13.967099014282498" lon="120.88732462010111"><ele>226.75</ele><time>2026-04-04T02:48:58.001Z</time></trkpt><trkpt lat="13.966977828985199" lon="120.88733583040491"><ele>225.0</ele><time>2026-04-04T02:48:59.001Z</time></trkpt><trkpt lat="13.966857553839105" lon="120.88733927558349"><ele>225.0</ele><time>2026-04-04T02:49:00.001Z</time></trkpt><trkpt lat="13.966743607558021" lon="120.88734227874698"><ele>225.0</ele><time>2026-04-04T02:49:01.001Z</time></trkpt><trkpt lat="13.966629355427559" lon="120.8873422787457"><ele>225.0</ele><time>2026-04-04T02:49:02.001Z</time></trkpt><trkpt lat="13.966517164103085" lon="120.88734227874481"><ele>225.0</ele><time>2026-04-04T02:49:03.001Z</time></trkpt><trkpt lat="13.96641054318024" lon="120.88733561131545"><ele>225.0</ele><time>2026-04-04T02:49:04.001Z</time></trkpt><trkpt lat="13.966309733921134" lon="120.88732546870597"><ele>224.2</ele><time>2026-04-04T02:49:05.001Z</time></trkpt><trkpt lat="13.966209136642327" lon="120.8873098995295"><ele>223.4</ele><time>2026-04-04T02:49:06.001Z</time></trkpt><trkpt lat="13.966101754464136" lon="120.8872979907455"><ele>222.60000000000002</ele><time>2026-04-04T02:49:07.001Z</time></trkpt><trkpt lat="13.965998165261158" lon="120.88725207212413"><ele>221.8</ele><time>2026-04-04T02:49:08.001Z</time></trkpt><trkpt lat="13.96588624464174" lon="120.88721193393667"><ele>221.0</ele><time>2026-04-04T02:49:09.001Z</time></trkpt><trkpt lat="13.965780972390958" lon="120.88714255244462"><ele>218.33333333333334</ele><time>2026-04-04T02:49:10.001Z</time></trkpt><trkpt lat="13.965654724241755" lon="120.88707001528441"><ele>215.66666666666669</ele><time>2026-04-04T02:49:11.001Z</time></trkpt><trkpt lat="13.965517869865693" lon="120.88699449771305"><ele>213.0</ele><time>2026-04-04T02:49:12.001Z</time></trkpt><trkpt lat="13.965374544198761" lon="120.88691677621235"><ele>213.0</ele><time>2026-04-04T02:49:13.001Z</time></trkpt><trkpt lat="13.965220203942481" lon="120.88683293855146"><ele>213.0</ele><time>2026-04-04T02:49:14.001Z</time></trkpt><trkpt lat="13.965060814356011" lon="120.88674584382544"><ele>213.0</ele><time>2026-04-04T02:49:15.001Z</time></trkpt><trkpt lat="13.964901492624305" lon="120.8866539475973"><ele>215.66666666666669</ele><time>2026-04-04T02:49:16.001Z</time></trkpt><trkpt lat="13.964741967197964" lon="120.88655629072127"><ele>218.33333333333334</ele><time>2026-04-04T02:49:17.001Z</time></trkpt><trkpt lat="13.96459047970394" lon="120.88646545581895"><ele>221.0</ele><time>2026-04-04T02:49:18.001Z</time></trkpt><trkpt lat="13.964445855157585" lon="120.88638238719477"><ele>221.0</ele><time>2026-04-04T02:49:19.001Z</time></trkpt><trkpt lat="13.964311456871004" lon="120.88630458609285"><ele>221.0</ele><time>2026-04-04T02:49:20.001Z</time></trkpt><trkpt lat="13.964189142864464" lon="120.88623435280326"><ele>221.0</ele><time>2026-04-04T02:49:21.001Z</time></trkpt><trkpt lat="13.96407096497358" lon="120.88616596478013"><ele>221.0</ele><time>2026-04-04T02:49:22.001Z</time></trkpt><trkpt lat="13.963949929342027" lon="120.88609610197658"><ele>220.5</ele><time>2026-04-04T02:49:23.001Z</time></trkpt><trkpt lat="13.963832536471447" lon="120.88602744970224"><ele>220.0</ele><time>2026-04-04T02:49:24.001Z</time></trkpt><trkpt lat="13.963713071808886" lon="120.88595782207554"><ele>219.5</ele><time>2026-04-04T02:49:25.001Z</time></trkpt><trkpt lat="13.963596435235292" lon="120.88589182988426"><ele>219.0</ele><time>2026-04-04T02:49:26.001Z</time></trkpt><trkpt lat="13.963474665046396" lon="120.88582190888003"><ele>218.5</ele><time>2026-04-04T02:49:27.001Z</time></trkpt><trkpt lat="13.96336262936577" lon="120.88575841959214"><ele>218.0</ele><time>2026-04-04T02:49:28.001Z</time></trkpt><trkpt lat="13.963251351329475" lon="120.88569466719395"><ele>217.5</ele><time>2026-04-04T02:49:29.001Z</time></trkpt><trkpt lat="13.963143656579108" lon="120.88563391801111"><ele>217.0</ele><time>2026-04-04T02:49:30.001Z</time></trkpt><trkpt lat="13.963038268625953" lon="120.88559452789157"><ele>217.0</ele><time>2026-04-04T02:49:31.001Z</time></trkpt><trkpt lat="13.962938136985489" lon="120.88553635866973"><ele>217.0</ele><time>2026-04-04T02:49:32.001Z</time></trkpt><trkpt lat="13.962845969022723" lon="120.8854828042931"><ele>217.0</ele><time>2026-04-04T02:49:33.001Z</time></trkpt><trkpt lat="13.96275280893611" lon="120.88543056943405"><ele>217.0</ele><time>2026-04-04T02:49:34.001Z</time></trkpt><trkpt lat="13.962660906209896" lon="120.88537456452642"><ele>217.0</ele><time>2026-04-04T02:49:35.001Z</time></trkpt><trkpt lat="13.962559251934373" lon="120.88532081639295"><ele>216.0</ele><time>2026-04-04T02:49:36.001Z</time></trkpt><trkpt lat="13.962464290540009" lon="120.88527151057332"><ele>215.0</ele><time>2026-04-04T02:49:37.001Z</time></trkpt><trkpt lat="13.96236582917541" lon="120.88522014468747"><ele>214.0</ele><time>2026-04-04T02:49:38.001Z</time></trkpt><trkpt lat="13.962262566446418" lon="120.88517551708681"><ele>213.0</ele><time>2026-04-04T02:49:39.001Z</time></trkpt><trkpt lat="13.962152366781497" lon="120.88513372769448"><ele>212.0</ele><time>2026-04-04T02:49:40.001Z</time></trkpt><trkpt lat="13.962040366680137" lon="120.88509366093865"><ele>210.75</ele><time>2026-04-04T02:49:41.001Z</time></trkpt><trkpt lat="13.961924866660192" lon="120.8850327485213"><ele>209.5</ele><time>2026-04-04T02:49:42.001Z</time></trkpt><trkpt lat="13.961791030548065" lon="120.88499105920911"><ele>208.25</ele><time>2026-04-04T02:49:43.001Z</time></trkpt><trkpt lat="13.961655013713612" lon="120.88494937407722"><ele>207.0</ele><time>2026-04-04T02:49:44.001Z</time></trkpt><trkpt lat="13.961502938065179" lon="120.88490253140448"><ele>206.33333333333331</ele><time>2026-04-04T02:49:45.001Z</time></trkpt><trkpt lat="13.96134247672114" lon="120.88485264104109"><ele>205.66666666666666</ele><time>2026-04-04T02:49:46.001Z</time></trkpt><trkpt lat="13.96117124131715" lon="120.8847999032046"><ele>205.0</ele><time>2026-04-04T02:49:47.001Z</time></trkpt><trkpt lat="13.960993409213005" lon="120.884745507156"><ele>204.33333333333331</ele><time>2026-04-04T02:49:48.001Z</time></trkpt><trkpt lat="13.960818408306555" lon="120.884691978377"><ele>203.66666666666669</ele><time>2026-04-04T02:49:49.001Z</time></trkpt><trkpt lat="13.960650058394448" lon="120.88464457620287"><ele>203.0</ele><time>2026-04-04T02:49:50.001Z</time></trkpt><trkpt lat="13.960498454266926" lon="120.88460531571198"><ele>203.0</ele><time>2026-04-04T02:49:51.001Z</time></trkpt><trkpt lat="13.96036366604673" lon="120.88457026711883"><ele>203.0</ele><time>2026-04-04T02:49:52.001Z</time></trkpt><trkpt lat="13.960243432719086" lon="120.88453898313841"><ele>203.0</ele><time>2026-04-04T02:49:53.001Z</time></trkpt><trkpt lat="13.960121414144437" lon="120.88450677159271"><ele>203.0</ele><time>2026-04-04T02:49:54.001Z</time></trkpt><trkpt lat="13.95999957495786" lon="120.88447538742774"><ele>201.25</ele><time>2026-04-04T02:49:55.001Z</time></trkpt><trkpt lat="13.959880777639029" lon="120.88444458827625"><ele>199.5</ele><time>2026-04-04T02:49:56.001Z</time></trkpt><trkpt lat="13.95975207355395" lon="120.8844278465618"><ele>197.75</ele><time>2026-04-04T02:49:57.001Z</time></trkpt><trkpt lat="13.959623497890465" lon="120.88442751932254"><ele>196.0</ele><time>2026-04-04T02:49:58.001Z</time></trkpt><trkpt lat="13.959490519707234" lon="120.88443521075882"><ele>196.0</ele><time>2026-04-04T02:49:59.001Z</time></trkpt><trkpt lat="13.95934965798385" lon="120.88444487535133"><ele>196.0</ele><time>2026-04-04T02:50:00.001Z</time></trkpt><trkpt lat="13.959200548041355" lon="120.88445396395997"><ele>196.0</ele><time>2026-04-04T02:50:01.001Z</time></trkpt><trkpt lat="13.959050576966687" lon="120.88445317901422"><ele>196.0</ele><time>2026-04-04T02:50:02.001Z</time></trkpt><trkpt lat="13.958901594176428" lon="120.8844251145726"><ele>194.66666666666666</ele><time>2026-04-04T02:50:03.001Z</time></trkpt><trkpt lat="13.958748335334478" lon="120.88437716493401"><ele>193.33333333333331</ele><time>2026-04-04T02:50:04.001Z</time></trkpt><trkpt lat="13.958588399079117" lon="120.88432150893128"><ele>192.0</ele><time>2026-04-04T02:50:05.001Z</time></trkpt><trkpt lat="13.958424917173433" lon="120.88426291399"><ele>191.0</ele><time>2026-04-04T02:50:06.001Z</time></trkpt><trkpt lat="13.958264895452803" lon="120.88420104117522"><ele>190.0</ele><time>2026-04-04T02:50:07Z</time></trkpt><trkpt lat="13.958109523570092" lon="120.88413888364478"><ele>189.0</ele><time>2026-04-04T02:50:08Z</time></trkpt><trkpt lat="13.957963029477211" lon="120.8840778112179"><ele>189.0</ele><time>2026-04-04T02:50:09Z</time></trkpt><trkpt lat="13.957830035691716" lon="120.88401803707785"><ele>189.0</ele><time>2026-04-04T02:50:10Z</time></trkpt><trkpt lat="13.957710485412548" lon="120.88396097760447"><ele>189.0</ele><time>2026-04-04T02:50:11Z</time></trkpt><trkpt lat="13.957631876795102" lon="120.88384824846389"><ele>189.0</ele><time>2026-04-04T02:50:12Z</time></trkpt><trkpt lat="13.957549189861298" lon="120.883742044004"><ele>189.5</ele><time>2026-04-04T02:50:13Z</time></trkpt><trkpt lat="13.95749663086008" lon="120.88361022824235"><ele>190.0</ele><time>2026-04-04T02:50:14Z</time></trkpt><trkpt lat="13.957454680580863" lon="120.88347278966185"><ele>190.5</ele><time>2026-04-04T02:50:15Z</time></trkpt><trkpt lat="13.957415618843479" lon="120.88334033780419"><ele>191.0</ele><time>2026-04-04T02:50:16Z</time></trkpt><trkpt lat="13.95736620237951" lon="120.88322252056898"><ele>192.0</ele><time>2026-04-04T02:50:17Z</time></trkpt><trkpt lat="13.957304703886857" lon="120.88313103760795"><ele>193.0</ele><time>2026-04-04T02:50:18Z</time></trkpt><trkpt lat="13.957254682213309" lon="120.88303589770916"><ele>194.0</ele><time>2026-04-04T02:50:19Z</time></trkpt><trkpt lat="13.957168970708214" lon="120.88296076851286"><ele>195.0</ele><time>2026-04-04T02:50:20Z</time></trkpt><trkpt lat="13.957044739925784" lon="120.88292407339026"><ele>195.0</ele><time>2026-04-04T02:50:21Z</time></trkpt><trkpt lat="13.956925473611674" lon="120.8829001851356"><ele>195.0</ele><time>2026-04-04T02:50:22Z</time></trkpt><trkpt lat="13.956789184666896" lon="120.88289813297054"><ele>195.0</ele><time>2026-04-04T02:50:23Z</time></trkpt><trkpt lat="13.956656355259865" lon="120.88291204749085"><ele>195.0</ele><time>2026-04-04T02:50:24Z</time></trkpt><trkpt lat="13.956527074736742" lon="120.88292687710751"><ele>198.0</ele><time>2026-04-04T02:50:25Z</time></trkpt><trkpt lat="13.956394152168834" lon="120.88294212450157"><ele>201.0</ele><time>2026-04-04T02:50:26Z</time></trkpt><trkpt lat="13.95626194790559" lon="120.8829565423661"><ele>204.0</ele><time>2026-04-04T02:50:27Z</time></trkpt><trkpt lat="13.956128228024822" lon="120.88297099350022"><ele>207.0</ele><time>2026-04-04T02:50:28Z</time></trkpt><trkpt lat="13.955993986468712" lon="120.8829822645193"><ele>207.0</ele><time>2026-04-04T02:50:29Z</time></trkpt><trkpt lat="13.95585837900832" lon="120.8829903855963"><ele>207.0</ele><time>2026-04-04T02:50:30Z</time></trkpt><trkpt lat="13.955714403919554" lon="120.88299255471205"><ele>207.0</ele><time>2026-04-04T02:50:31Z</time></trkpt><trkpt lat="13.955567675180728" lon="120.8829947653208"><ele>207.0</ele><time>2026-04-04T02:50:32Z</time></trkpt><trkpt lat="13.955430481077816" lon="120.88297193519362"><ele>207.0</ele><time>2026-04-04T02:50:33Z</time></trkpt><trkpt lat="13.955286526021073" lon="120.88294798226696"><ele>207.0</ele><time>2026-04-04T02:50:34Z</time></trkpt><trkpt lat="13.955160631176454" lon="120.88292216479526"><ele>207.0</ele><time>2026-04-04T02:50:35Z</time></trkpt><trkpt lat="13.955037560879433" lon="120.88289584022827"><ele>207.0</ele><time>2026-04-04T02:50:36Z</time></trkpt><trkpt lat="13.95492701467921" lon="120.8828721945451"><ele>206.6</ele><time>2026-04-04T02:50:37Z</time></trkpt><trkpt lat="13.954817436505637" lon="120.88285022264476"><ele>206.2</ele><time>2026-04-04T02:50:38Z</time></trkpt><trkpt lat="13.95471154657146" lon="120.88283031552615"><ele>205.8</ele><time>2026-04-04T02:50:39Z</time></trkpt><trkpt lat="13.954617149865982" lon="120.8828124667941"><ele>205.4</ele><time>2026-04-04T02:50:40Z</time></trkpt><trkpt lat="13.95452980881205" lon="120.88279595216224"><ele>205.0</ele><time>2026-04-04T02:50:41Z</time></trkpt><trkpt lat="13.954450899756457" lon="120.88278103187527"><ele>205.0</ele><time>2026-04-04T02:50:42Z</time></trkpt><trkpt lat="13.95438017357348" lon="120.88276765881412"><ele>205.0</ele><time>2026-04-04T02:50:43Z</time></trkpt><trkpt lat="13.954318112342508" lon="120.88275592414739"><ele>205.0</ele><time>2026-04-04T02:50:44Z</time></trkpt><trkpt lat="13.95425229018299" lon="120.88274338251648"><ele>205.0</ele><time>2026-04-04T02:50:45Z</time></trkpt><trkpt lat="13.954185039294218" lon="120.88273018561713"><ele>205.0</ele><time>2026-04-04T02:50:46Z</time></trkpt><trkpt lat="13.954119513136652" lon="120.88271699358933"><ele>205.0</ele><time>2026-04-04T02:50:47Z</time></trkpt><trkpt lat="13.95404663277005" lon="120.88270232098067"><ele>205.0</ele><time>2026-04-04T02:50:48Z</time></trkpt><trkpt lat="13.953964285952758" lon="120.88268574254582"><ele>205.0</ele><time>2026-04-04T02:50:49Z</time></trkpt><trkpt lat="13.953874950356056" lon="120.8826677571107"><ele>205.0</ele><time>2026-04-04T02:50:50Z</time></trkpt><trkpt lat="13.953781248471037" lon="120.8826488926201"><ele>205.0</ele><time>2026-04-04T02:50:51Z</time></trkpt><trkpt lat="13.953676604183613" lon="120.88262979812582"><ele>205.0</ele><time>2026-04-04T02:50:52Z</time></trkpt><trkpt lat="13.953569261333723" lon="120.88261194763732"><ele>205.0</ele><time>2026-04-04T02:50:53Z</time></trkpt><trkpt lat="13.953464418615912" lon="120.88259453075409"><ele>204.8</ele><time>2026-04-04T02:50:54Z</time></trkpt><trkpt lat="13.953353716362743" lon="120.88257647814058"><ele>204.6</ele><time>2026-04-04T02:50:55Z</time></trkpt><trkpt lat="13.953246071868422" lon="120.88255894795289"><ele>204.39999999999998</ele><time>2026-04-04T02:50:56Z</time></trkpt><trkpt lat="13.95314719448529" lon="120.88254262060525"><ele>204.2</ele><time>2026-04-04T02:50:57Z</time></trkpt><trkpt lat="13.953045906629546" lon="120.88253434625966"><ele>204.0</ele><time>2026-04-04T02:50:58Z</time></trkpt><trkpt lat="13.952931284483654" lon="120.88254486424077"><ele>204.0</ele><time>2026-04-04T02:50:59Z</time></trkpt><trkpt lat="13.952841378676702" lon="120.8825939876524"><ele>204.0</ele><time>2026-04-04T02:51:00Z</time></trkpt><trkpt lat="13.9527741817598" lon="120.88263826944119"><ele>204.0</ele><time>2026-04-04T02:51:01Z</time></trkpt><trkpt lat="13.952717197846939" lon="120.88272899535838"><ele>204.0</ele><time>2026-04-04T02:51:02Z</time></trkpt><trkpt lat="13.952669322515307" lon="120.88280628576754"><ele>204.0</ele><time>2026-04-04T02:51:03Z</time></trkpt><trkpt lat="13.952617502998006" lon="120.88289049033891"><ele>204.0</ele><time>2026-04-04T02:51:04Z</time></trkpt><trkpt lat="13.952563884702073" lon="120.88297869877009"><ele>204.0</ele><time>2026-04-04T02:51:05Z</time></trkpt><trkpt lat="13.952507524477731" lon="120.88306915499876"><ele>204.0</ele><time>2026-04-04T02:51:06Z</time></trkpt><trkpt lat="13.952457623737448" lon="120.88315184750834"><ele>204.0</ele><time>2026-04-04T02:51:07Z</time></trkpt><trkpt lat="13.952392310165052" lon="120.88322142602205"><ele>204.0</ele><time>2026-04-04T02:51:08Z</time></trkpt><trkpt lat="13.952312777224172" lon="120.88325787306329"><ele>203.0</ele><time>2026-04-04T02:51:09Z</time></trkpt><trkpt lat="13.952223887066046" lon="120.88330804466882"><ele>202.0</ele><time>2026-04-04T02:51:10Z</time></trkpt><trkpt lat="13.95212319883412" lon="120.88336344372692"><ele>201.0</ele><time>2026-04-04T02:51:11Z</time></trkpt><trkpt lat="13.952019396278049" lon="120.88342063447342"><ele>200.0</ele><time>2026-04-04T02:51:12Z</time></trkpt><trkpt lat="13.951907629272075" lon="120.88348272063782"><ele>198.25</ele><time>2026-04-04T02:51:13Z</time></trkpt><trkpt lat="13.951794058420663" lon="120.88354521621352"><ele>196.5</ele><time>2026-04-04T02:51:14Z</time></trkpt><trkpt lat="13.951672855793566" lon="120.88361300187178"><ele>194.75</ele><time>2026-04-04T02:51:15Z</time></trkpt><trkpt lat="13.951554349389918" lon="120.88367998445892"><ele>193.0</ele><time>2026-04-04T02:51:16Z</time></trkpt><trkpt lat="13.951440766055633" lon="120.88374477142898"><ele>193.0</ele><time>2026-04-04T02:51:17Z</time></trkpt><trkpt lat="13.951334167927941" lon="120.8838053914143"><ele>193.0</ele><time>2026-04-04T02:51:18Z</time></trkpt><trkpt lat="13.951227578599662" lon="120.8838659454907"><ele>193.0</ele><time>2026-04-04T02:51:19Z</time></trkpt><trkpt lat="13.95112535141514" lon="120.88392404035932"><ele>193.0</ele><time>2026-04-04T02:51:20Z</time></trkpt><trkpt lat="13.951025938245532" lon="120.8839829998437"><ele>193.0</ele><time>2026-04-04T02:51:21Z</time></trkpt><trkpt lat="13.950936279250655" lon="120.88403184458309"><ele>193.0</ele><time>2026-04-04T02:51:22Z</time></trkpt><trkpt lat="13.95084866785402" lon="120.88407400213127"><ele>193.0</ele><time>2026-04-04T02:51:23Z</time></trkpt><trkpt lat="13.950768978893048" lon="120.88410496440892"><ele>193.0</ele><time>2026-04-04T02:51:24Z</time></trkpt><trkpt lat="13.950681974189104" lon="120.88412797715334"><ele>193.0</ele><time>2026-04-04T02:51:25Z</time></trkpt><trkpt lat="13.950578002043788" lon="120.884147392666"><ele>193.2</ele><time>2026-04-04T02:51:26Z</time></trkpt><trkpt lat="13.9504766917627" lon="120.88413842436916"><ele>193.4</ele><time>2026-04-04T02:51:27Z</time></trkpt><trkpt lat="13.950372309809016" lon="120.88412986744456"><ele>193.6</ele><time>2026-04-04T02:51:28Z</time></trkpt><trkpt lat="13.950255117435741" lon="120.88411603395612"><ele>193.79999999999998</ele><time>2026-04-04T02:51:29Z</time></trkpt><trkpt lat="13.950132438913624" lon="120.88410155286579"><ele>194.0</ele><time>2026-04-04T02:51:30Z</time></trkpt><trkpt lat="13.950007152900536" lon="120.88408825430015"><ele>192.75</ele><time>2026-04-04T02:51:31Z</time></trkpt><trkpt lat="13.949870924646197" lon="120.88410382822677"><ele>191.5</ele><time>2026-04-04T02:51:32Z</time></trkpt><trkpt lat="13.94974454045692" lon="120.8841143596035"><ele>190.25</ele><time>2026-04-04T02:51:33Z</time></trkpt><trkpt lat="13.949608174067805" lon="120.88412422955618"><ele>189.0</ele><time>2026-04-04T02:51:34Z</time></trkpt><trkpt lat="13.949474008089835" lon="120.88412789695293"><ele>189.0</ele><time>2026-04-04T02:51:35Z</time></trkpt><trkpt lat="13.949340167683882" lon="120.8841229294844"><ele>189.0</ele><time>2026-04-04T02:51:36Z</time></trkpt><trkpt lat="13.949214041231404" lon="120.88411753476726"><ele>189.0</ele><time>2026-04-04T02:51:37Z</time></trkpt><trkpt lat="13.94909936950274" lon="120.88411253201407"><ele>189.0</ele><time>2026-04-04T02:51:38Z</time></trkpt><trkpt lat="13.948989814021402" lon="120.88410745227785"><ele>187.2</ele><time>2026-04-04T02:51:39Z</time></trkpt><trkpt lat="13.948889982296969" lon="120.88409384466406"><ele>185.39999999999998</ele><time>2026-04-04T02:51:40Z</time></trkpt><trkpt lat="13.948792701363505" lon="120.8840695332809"><ele>183.6</ele><time>2026-04-04T02:51:41Z</time></trkpt><trkpt lat="13.948690395883107" lon="120.88403441704759"><ele>181.8</ele><time>2026-04-04T02:51:42Z</time></trkpt><trkpt lat="13.948599813614909" lon="120.88399294215482"><ele>180.0</ele><time>2026-04-04T02:51:43Z</time></trkpt><trkpt lat="13.94849614372083" lon="120.883938444361"><ele>180.0</ele><time>2026-04-04T02:51:44Z</time></trkpt><trkpt lat="13.948393122835377" lon="120.883884559131"><ele>180.0</ele><time>2026-04-04T02:51:45Z</time></trkpt><trkpt lat="13.948306236831298" lon="120.88383896319611"><ele>180.0</ele><time>2026-04-04T02:51:46Z</time></trkpt><trkpt lat="13.94822292363929" lon="120.88379509270104"><ele>180.0</ele><time>2026-04-04T02:51:47Z</time></trkpt><trkpt lat="13.948146413305045" lon="120.8837553412734"><ele>180.0</ele><time>2026-04-04T02:51:48Z</time></trkpt><trkpt lat="13.948062364438032" lon="120.8837113498698"><ele>178.2</ele><time>2026-04-04T02:51:49Z</time></trkpt><trkpt lat="13.94796760897288" lon="120.88366123447182"><ele>176.4</ele><time>2026-04-04T02:51:50Z</time></trkpt><trkpt lat="13.947871041868872" lon="120.88361215518853"><ele>174.60000000000002</ele><time>2026-04-04T02:51:51Z</time></trkpt><trkpt lat="13.947764514032643" lon="120.88355885827268"><ele>172.8</ele><time>2026-04-04T02:51:52Z</time></trkpt><trkpt lat="13.947660897777984" lon="120.88350695242742"><ele>171.0</ele><time>2026-04-04T02:51:53Z</time></trkpt><trkpt lat="13.947561037139169" lon="120.8834566950092"><ele>172.25</ele><time>2026-04-04T02:51:54Z</time></trkpt><trkpt lat="13.947450676863532" lon="120.88340125553559"><ele>173.5</ele><time>2026-04-04T02:51:55Z</time></trkpt><trkpt lat="13.94734180834842" lon="120.88334453279114"><ele>174.75</ele><time>2026-04-04T02:51:56Z</time></trkpt><trkpt lat="13.947228559125724" lon="120.88328497856057"><ele>176.0</ele><time>2026-04-04T02:51:57Z</time></trkpt><trkpt lat="13.947118739335016" lon="120.8832260650417"><ele>176.0</ele><time>2026-04-04T02:51:58Z</time></trkpt><trkpt lat="13.947015889407657" lon="120.88316360726604"><ele>176.0</ele><time>2026-04-04T02:51:59Z</time></trkpt><trkpt lat="13.94691333975461" lon="120.88309677498557"><ele>176.0</ele><time>2026-04-04T02:52:00.001Z</time></trkpt><trkpt lat="13.946812680086953" lon="120.88303062141738"><ele>176.0</ele><time>2026-04-04T02:52:01.001Z</time></trkpt><trkpt lat="13.946715449936766" lon="120.8829678723542"><ele>173.5</ele><time>2026-04-04T02:52:02.001Z</time></trkpt><trkpt lat="13.946607463480436" lon="120.88290704700384"><ele>171.0</ele><time>2026-04-04T02:52:03.001Z</time></trkpt><trkpt lat="13.94648500997729" lon="120.88284096815818"><ele>168.5</ele><time>2026-04-04T02:52:04.001Z</time></trkpt><trkpt lat="13.946366650463998" lon="120.88278256431892"><ele>166.0</ele><time>2026-04-04T02:52:05.001Z</time></trkpt><trkpt lat="13.946231707465873" lon="120.8827192082979"><ele>166.0</ele><time>2026-04-04T02:52:06.001Z</time></trkpt><trkpt lat="13.946099454630502" lon="120.88267090078921"><ele>166.0</ele><time>2026-04-04T02:52:07.001Z</time></trkpt><trkpt lat="13.9459686886584" lon="120.88262237533273"><ele>166.0</ele><time>2026-04-04T02:52:08.001Z</time></trkpt><trkpt lat="13.94582949456496" lon="120.88257146759561"><ele>166.0</ele><time>2026-04-04T02:52:09.001Z</time></trkpt><trkpt lat="13.945702122787237" lon="120.88252427139314"><ele>166.20000000000002</ele><time>2026-04-04T02:52:10.001Z</time></trkpt><trkpt lat="13.94559115174594" lon="120.88248189146316"><ele>166.4</ele><time>2026-04-04T02:52:11.001Z</time></trkpt><trkpt lat="13.945496644867351" lon="120.88244623275418"><ele>166.6</ele><time>2026-04-04T02:52:12.001Z</time></trkpt><trkpt lat="13.945423944792356" lon="120.88241196290299"><ele>166.8</ele><time>2026-04-04T02:52:13Z</time></trkpt><trkpt lat="13.945351510051154" lon="120.8823665183399"><ele>167.0</ele><time>2026-04-04T02:52:14Z</time></trkpt><trkpt lat="13.945273641878494" lon="120.88231766496679"><ele>167.0</ele><time>2026-04-04T02:52:15Z</time></trkpt><trkpt lat="13.94519534653966" lon="120.88226854326481"><ele>167.0</ele><time>2026-04-04T02:52:16Z</time></trkpt><trkpt lat="13.945130136051736" lon="120.88219370848304"><ele>167.0</ele><time>2026-04-04T02:52:17Z</time></trkpt><trkpt lat="13.945045657716316" lon="120.88211736325268"><ele>167.0</ele><time>2026-04-04T02:52:18Z</time></trkpt><trkpt lat="13.94496338419572" lon="120.88204649674455"><ele>167.0</ele><time>2026-04-04T02:52:19Z</time></trkpt><trkpt lat="13.944880828038539" lon="120.88197561931777"><ele>166.39999999999998</ele><time>2026-04-04T02:52:20Z</time></trkpt><trkpt lat="13.944801183133292" lon="120.88190791222874"><ele>165.79999999999998</ele><time>2026-04-04T02:52:21Z</time></trkpt><trkpt lat="13.944724927375956" lon="120.88183793506707"><ele>165.2</ele><time>2026-04-04T02:52:22Z</time></trkpt><trkpt lat="13.944646165419393" lon="120.8817660458673"><ele>164.6</ele><time>2026-04-04T02:52:23Z</time></trkpt><trkpt lat="13.944562991104249" lon="120.88170132315491"><ele>164.0</ele><time>2026-04-04T02:52:24Z</time></trkpt><trkpt lat="13.944486210739651" lon="120.88164491195947"><ele>163.0</ele><time>2026-04-04T02:52:25Z</time></trkpt><trkpt lat="13.944408248045281" lon="120.88159606963507"><ele>162.0</ele><time>2026-04-04T02:52:26Z</time></trkpt><trkpt lat="13.944331153961276" lon="120.88155964899416"><ele>161.0</ele><time>2026-04-04T02:52:27Z</time></trkpt><trkpt lat="13.94425312785354" lon="120.88152606266031"><ele>160.0</ele><time>2026-04-04T02:52:28Z</time></trkpt><trkpt lat="13.944166477342693" lon="120.88148896013735"><ele>159.0</ele><time>2026-04-04T02:52:29Z</time></trkpt><trkpt lat="13.944063685094378" lon="120.88146483387918"><ele>159.0</ele><time>2026-04-04T02:52:30Z</time></trkpt><trkpt lat="13.94395039360473" lon="120.88144341434864"><ele>159.0</ele><time>2026-04-04T02:52:31Z</time></trkpt><trkpt lat="13.943840400262614" lon="120.8814382364022"><ele>159.0</ele><time>2026-04-04T02:52:32Z</time></trkpt><trkpt lat="13.943733669171813" lon="120.88143668032872"><ele>159.0</ele><time>2026-04-04T02:52:33Z</time></trkpt><trkpt lat="13.943634896939882" lon="120.88143668032745"><ele>159.0</ele><time>2026-04-04T02:52:34Z</time></trkpt><trkpt lat="13.943536570380873" lon="120.88144233547598"><ele>159.0</ele><time>2026-04-04T02:52:35Z</time></trkpt><trkpt lat="13.943438103698544" lon="120.88144917974073"><ele>159.0</ele><time>2026-04-04T02:52:36Z</time></trkpt><trkpt lat="13.943327398471366" lon="120.88145619931315"><ele>159.0</ele><time>2026-04-04T02:52:37Z</time></trkpt><trkpt lat="13.943206016422707" lon="120.88147892869758"><ele>159.0</ele><time>2026-04-04T02:52:38Z</time></trkpt><trkpt lat="13.943093737240913" lon="120.88150034543028"><ele>159.0</ele><time>2026-04-04T02:52:39Z</time></trkpt><trkpt lat="13.942968391926337" lon="120.88152297137529"><ele>157.25</ele><time>2026-04-04T02:52:40Z</time></trkpt><trkpt lat="13.942852824929743" lon="120.88154196776377"><ele>155.5</ele><time>2026-04-04T02:52:41Z</time></trkpt><trkpt lat="13.942741051556615" lon="120.88155634859905"><ele>153.75</ele><time>2026-04-04T02:52:42Z</time></trkpt><trkpt lat="13.942628490131996" lon="120.88157068861685"><ele>152.0</ele><time>2026-04-04T02:52:43Z</time></trkpt><trkpt lat="13.94251358896451" lon="120.8815850767728"><ele>151.4</ele><time>2026-04-04T02:52:44Z</time></trkpt><trkpt lat="13.942414918179743" lon="120.88159375072969"><ele>150.79999999999998</ele><time>2026-04-04T02:52:45Z</time></trkpt><trkpt lat="13.94230830834531" lon="120.88159432318876"><ele>150.2</ele><time>2026-04-04T02:52:46Z</time></trkpt><trkpt lat="13.942194560417274" lon="120.88159493397903"><ele>149.6</ele><time>2026-04-04T02:52:47Z</time></trkpt><trkpt lat="13.942112040369825" lon="120.88156582187777"><ele>149.0</ele><time>2026-04-04T02:52:48Z</time></trkpt><trkpt lat="13.942015077383791" lon="120.8815361641997"><ele>149.0</ele><time>2026-04-04T02:52:49Z</time></trkpt><trkpt lat="13.94193022578639" lon="120.88149447039731"><ele>149.0</ele><time>2026-04-04T02:52:50Z</time></trkpt><trkpt lat="13.94183271995966" lon="120.88144137646168"><ele>149.0</ele><time>2026-04-04T02:52:51Z</time></trkpt><trkpt lat="13.941739740757757" lon="120.88138552142064"><ele>149.0</ele><time>2026-04-04T02:52:52Z</time></trkpt><trkpt lat="13.941644815676312" lon="120.88132556873457"><ele>149.0</ele><time>2026-04-04T02:52:53Z</time></trkpt><trkpt lat="13.941553376022162" lon="120.8812672325519"><ele>148.6</ele><time>2026-04-04T02:52:54Z</time></trkpt><trkpt lat="13.941463182781616" lon="120.88120938857841"><ele>148.2</ele><time>2026-04-04T02:52:55Z</time></trkpt><trkpt lat="13.941368299195263" lon="120.88114878737936"><ele>147.79999999999998</ele><time>2026-04-04T02:52:56Z</time></trkpt><trkpt lat="13.941274872727858" lon="120.88109110752141"><ele>147.4</ele><time>2026-04-04T02:52:57Z</time></trkpt><trkpt lat="13.941181141216532" lon="120.88103355669121"><ele>147.0</ele><time>2026-04-04T02:52:58Z</time></trkpt><trkpt lat="13.941084806041136" lon="120.88097486667148"><ele>146.0</ele><time>2026-04-04T02:52:59Z</time></trkpt><trkpt lat="13.940979723481151" lon="120.88092449286931"><ele>145.0</ele><time>2026-04-04T02:53:00Z</time></trkpt><trkpt lat="13.94087488115706" lon="120.88088098733886"><ele>144.0</ele><time>2026-04-04T02:53:01Z</time></trkpt><trkpt lat="13.940756855099252" lon="120.8808435503231"><ele>143.0</ele><time>2026-04-04T02:53:02Z</time></trkpt><trkpt lat="13.940649872227533" lon="120.88081924807727"><ele>143.0</ele><time>2026-04-04T02:53:03Z</time></trkpt><trkpt lat="13.940543457922288" lon="120.88079931205358"><ele>143.0</ele><time>2026-04-04T02:53:04Z</time></trkpt><trkpt lat="13.940430278927781" lon="120.88078806017992"><ele>143.0</ele><time>2026-04-04T02:53:05Z</time></trkpt><trkpt lat="13.940307604552766" lon="120.8807827020977"><ele>143.0</ele><time>2026-04-04T02:53:06Z</time></trkpt><trkpt lat="13.940197567891728" lon="120.88078656746941"><ele>143.0</ele><time>2026-04-04T02:53:07Z</time></trkpt><trkpt lat="13.940076935717183" lon="120.88079080503988"><ele>143.0</ele><time>2026-04-04T02:53:08Z</time></trkpt><trkpt lat="13.939961727257007" lon="120.88079430477931"><ele>143.0</ele><time>2026-04-04T02:53:09Z</time></trkpt><trkpt lat="13.939833566512764" lon="120.8807979338756"><ele>143.0</ele><time>2026-04-04T02:53:10Z</time></trkpt><trkpt lat="13.939700559762827" lon="120.88080218325527"><ele>143.5</ele><time>2026-04-04T02:53:11Z</time></trkpt><trkpt lat="13.939583720265631" lon="120.88080358028293"><ele>144.0</ele><time>2026-04-04T02:53:12Z</time></trkpt><trkpt lat="13.939457760569207" lon="120.8808037476117"><ele>144.5</ele><time>2026-04-04T02:53:13Z</time></trkpt><trkpt lat="13.93933033480571" lon="120.8808040449071"><ele>145.0</ele><time>2026-04-04T02:53:14Z</time></trkpt><trkpt lat="13.939215271790474" lon="120.88080431335857"><ele>142.75</ele><time>2026-04-04T02:53:15Z</time></trkpt><trkpt lat="13.93909087978406" lon="120.88080460357598"><ele>140.5</ele><time>2026-04-04T02:53:16Z</time></trkpt><trkpt lat="13.938953417164248" lon="120.88080492464623"><ele>138.25</ele><time>2026-04-04T02:53:17Z</time></trkpt><trkpt lat="13.938829377468771" lon="120.88080428820744"><ele>136.0</ele><time>2026-04-04T02:53:18Z</time></trkpt><trkpt lat="13.938705854467294" lon="120.88080377631573"><ele>136.0</ele><time>2026-04-04T02:53:19Z</time></trkpt><trkpt lat="13.938587035662316" lon="120.88080087538944"><ele>136.0</ele><time>2026-04-04T02:53:20Z</time></trkpt><trkpt lat="13.93847424848915" lon="120.88079663009223"><ele>136.0</ele><time>2026-04-04T02:53:21Z</time></trkpt><trkpt lat="13.938366429596003" lon="120.8807925718009"><ele>136.0</ele><time>2026-04-04T02:53:22Z</time></trkpt><trkpt lat="13.938257869968096" lon="120.88078848563205"><ele>136.0</ele><time>2026-04-04T02:53:23Z</time></trkpt><trkpt lat="13.938161805395259" lon="120.88078133439743"><ele>135.2</ele><time>2026-04-04T02:53:24Z</time></trkpt><trkpt lat="13.938074891751441" lon="120.88076624000385"><ele>134.39999999999998</ele><time>2026-04-04T02:53:25Z</time></trkpt><trkpt lat="13.937977218298144" lon="120.88073935479449"><ele>133.6</ele><time>2026-04-04T02:53:26Z</time></trkpt><trkpt lat="13.93787684831464" lon="120.88069831192288"><ele>132.79999999999998</ele><time>2026-04-04T02:53:27Z</time></trkpt><trkpt lat="13.93777165018062" lon="120.880656225003"><ele>132.0</ele><time>2026-04-04T02:53:28Z</time></trkpt><trkpt lat="13.937666499460919" lon="120.88060742428358"><ele>132.0</ele><time>2026-04-04T02:53:29Z</time></trkpt><trkpt lat="13.937563922258391" lon="120.88055101292758"><ele>132.0</ele><time>2026-04-04T02:53:30Z</time></trkpt><trkpt lat="13.937455069764608" lon="120.88049115060635"><ele>132.0</ele><time>2026-04-04T02:53:31Z</time></trkpt><trkpt lat="13.937359670554295" lon="120.88042081847367"><ele>132.0</ele><time>2026-04-04T02:53:32Z</time></trkpt><trkpt lat="13.937265942238847" lon="120.88035319584218"><ele>131.0</ele><time>2026-04-04T02:53:33Z</time></trkpt><trkpt lat="13.937179617952843" lon="120.880290915011"><ele>130.0</ele><time>2026-04-04T02:53:34Z</time></trkpt><trkpt lat="13.93708428629432" lon="120.88022256999834"><ele>129.0</ele><time>2026-04-04T02:53:35Z</time></trkpt><trkpt lat="13.936984213309119" lon="120.88015087910007"><ele>128.0</ele><time>2026-04-04T02:53:36Z</time></trkpt><trkpt lat="13.936886932975785" lon="120.8800812808746"><ele>127.80000000000001</ele><time>2026-04-04T02:53:37Z</time></trkpt><trkpt lat="13.936783448296136" lon="120.88000758638229"><ele>127.60000000000001</ele><time>2026-04-04T02:53:38Z</time></trkpt><trkpt lat="13.936691267660464" lon="120.8799421881927"><ele>127.39999999999999</ele><time>2026-04-04T02:53:39Z</time></trkpt><trkpt lat="13.936601682666259" lon="120.8798786937542"><ele>127.19999999999999</ele><time>2026-04-04T02:53:40.001Z</time></trkpt><trkpt lat="13.936522708806026" lon="120.87982246001646"><ele>127.0</ele><time>2026-04-04T02:53:41.001Z</time></trkpt><trkpt lat="13.936446409172929" lon="120.87976813263725"><ele>127.39999999999999</ele><time>2026-04-04T02:53:42.001Z</time></trkpt><trkpt lat="13.93637327215496" lon="120.8797163082428"><ele>127.79999999999998</ele><time>2026-04-04T02:53:43.001Z</time></trkpt><trkpt lat="13.93628682596507" lon="120.87965505302888"><ele>128.2</ele><time>2026-04-04T02:53:44.001Z</time></trkpt><trkpt lat="13.9362077388477" lon="120.87960619028124"><ele>128.6</ele><time>2026-04-04T02:53:45.001Z</time></trkpt><trkpt lat="13.936133085325757" lon="120.87956686388489"><ele>129.0</ele><time>2026-04-04T02:53:46.001Z</time></trkpt><trkpt lat="13.936055935853975" lon="120.87952622240556"><ele>129.0</ele><time>2026-04-04T02:53:47.001Z</time></trkpt><trkpt lat="13.935966185162217" lon="120.87950276441121"><ele>129.0</ele><time>2026-04-04T02:53:48.001Z</time></trkpt><trkpt lat="13.935898562164457" lon="120.87948098181049"><ele>129.0</ele><time>2026-04-04T02:53:49.001Z</time></trkpt><trkpt lat="13.935810648015295" lon="120.87949163938661"><ele>129.0</ele><time>2026-04-04T02:53:50.001Z</time></trkpt><trkpt lat="13.9357256209263" lon="120.87951514563566"><ele>129.0</ele><time>2026-04-04T02:53:51.001Z</time></trkpt><trkpt lat="13.935654743492309" lon="120.87953262830769"><ele>129.0</ele><time>2026-04-04T02:53:52.001Z</time></trkpt><trkpt lat="13.935573499883299" lon="120.8795665985189"><ele>129.2</ele><time>2026-04-04T02:53:53.001Z</time></trkpt><trkpt lat="13.935499239462402" lon="120.87959688001305"><ele>129.4</ele><time>2026-04-04T02:53:54.001Z</time></trkpt><trkpt lat="13.935417847857885" lon="120.87963214151875"><ele>129.6</ele><time>2026-04-04T02:53:55.001Z</time></trkpt><trkpt lat="13.935337636633275" lon="120.8796699439807"><ele>129.8</ele><time>2026-04-04T02:53:56.001Z</time></trkpt><trkpt lat="13.935246450922806" lon="120.8797129186011"><ele>130.0</ele><time>2026-04-04T02:53:57.001Z</time></trkpt><trkpt lat="13.935152826967885" lon="120.87975704230307"><ele>130.0</ele><time>2026-04-04T02:53:58.001Z</time></trkpt><trkpt lat="13.935059053290614" lon="120.87980123658372"><ele>130.0</ele><time>2026-04-04T02:53:59.001Z</time></trkpt><trkpt lat="13.934960284470227" lon="120.8798474588238"><ele>130.0</ele><time>2026-04-04T02:54:00.001Z</time></trkpt><trkpt lat="13.934860034868723" lon="120.87989428342475"><ele>130.0</ele><time>2026-04-04T02:54:01.001Z</time></trkpt><trkpt lat="13.93475841070997" lon="120.87994170695802"><ele>130.0</ele><time>2026-04-04T02:54:02.001Z</time></trkpt><trkpt lat="13.934660013298885" lon="120.87998759909544"><ele>129.2</ele><time>2026-04-04T02:54:03.001Z</time></trkpt><trkpt lat="13.934566966570042" lon="120.88003085697919"><ele>128.4</ele><time>2026-04-04T02:54:04.001Z</time></trkpt><trkpt lat="13.934476116493945" lon="120.88007645636152"><ele>127.6</ele><time>2026-04-04T02:54:05.001Z</time></trkpt><trkpt lat="13.934384833862783" lon="120.88012206361233"><ele>126.8</ele><time>2026-04-04T02:54:06.001Z</time></trkpt><trkpt lat="13.9342863821052" lon="120.88016415867241"><ele>126.0</ele><time>2026-04-04T02:54:07.001Z</time></trkpt><trkpt lat="13.934181877330921" lon="120.88020586977413"><ele>123.0</ele><time>2026-04-04T02:54:08.001Z</time></trkpt><trkpt lat="13.934072258789378" lon="120.88023046406583"><ele>120.0</ele><time>2026-04-04T02:54:09.001Z</time></trkpt><trkpt lat="13.933959079207966" lon="120.88025185063732"><ele>117.0</ele><time>2026-04-04T02:54:10.001Z</time></trkpt><trkpt lat="13.933828452477439" lon="120.8802727672116"><ele>114.0</ele><time>2026-04-04T02:54:11.001Z</time></trkpt><trkpt lat="13.933696883070201" lon="120.88029408176259"><ele>114.0</ele><time>2026-04-04T02:54:12.001Z</time></trkpt><trkpt lat="13.933561215555477" lon="120.88031495790912"><ele>114.0</ele><time>2026-04-04T02:54:13.001Z</time></trkpt><trkpt lat="13.933431370907849" lon="120.88033656547115"><ele>114.0</ele><time>2026-04-04T02:54:14.001Z</time></trkpt><trkpt lat="13.933312202265268" lon="120.88035846760093"><ele>114.0</ele><time>2026-04-04T02:54:15.001Z</time></trkpt><trkpt lat="13.933216735850174" lon="120.88037644144768"><ele>113.75</ele><time>2026-04-04T02:54:16.001Z</time></trkpt><trkpt lat="13.933098859335306" lon="120.88041747701627"><ele>113.5</ele><time>2026-04-04T02:54:17.001Z</time></trkpt><trkpt lat="13.932976553829052" lon="120.88045853666516"><ele>113.25</ele><time>2026-04-04T02:54:18.001Z</time></trkpt><trkpt lat="13.932854921977876" lon="120.88050804443861"><ele>113.0</ele><time>2026-04-04T02:54:19Z</time></trkpt><trkpt lat="13.932734080452494" lon="120.88055551916337"><ele>113.0</ele><time>2026-04-04T02:54:20Z</time></trkpt><trkpt lat="13.932615161972896" lon="120.88060221002691"><ele>113.0</ele><time>2026-04-04T02:54:21Z</time></trkpt><trkpt lat="13.932501742747585" lon="120.88064596368301"><ele>113.0</ele><time>2026-04-04T02:54:22Z</time></trkpt><trkpt lat="13.932389211880455" lon="120.88069026068146"><ele>113.0</ele><time>2026-04-04T02:54:23Z</time></trkpt><trkpt lat="13.93227832156424" lon="120.88073326749338"><ele>111.60000000000001</ele><time>2026-04-04T02:54:24Z</time></trkpt><trkpt lat="13.932175234482994" lon="120.88076785964942"><ele>110.20000000000002</ele><time>2026-04-04T02:54:25Z</time></trkpt><trkpt lat="13.932069669633353" lon="120.88080333985756"><ele>108.8</ele><time>2026-04-04T02:54:26Z</time></trkpt><trkpt lat="13.931966643732334" lon="120.88083783604199"><ele>107.4</ele><time>2026-04-04T02:54:27Z</time></trkpt><trkpt lat="13.931873408239994" lon="120.88086977571533"><ele>106.0</ele><time>2026-04-04T02:54:28Z</time></trkpt><trkpt lat="13.931781229079675" lon="120.88090183144419"><ele>106.33333333333334</ele><time>2026-04-04T02:54:29Z</time></trkpt><trkpt lat="13.931688852113648" lon="120.88093413920484"><ele>106.66666666666667</ele><time>2026-04-04T02:54:30Z</time></trkpt><trkpt lat="13.931603815137127" lon="120.88094735493792"><ele>107.0</ele><time>2026-04-04T02:54:31Z</time></trkpt><trkpt lat="13.93153151319868" lon="120.88094598748546"><ele>107.33333333333334</ele><time>2026-04-04T02:54:32Z</time></trkpt><trkpt lat="13.931453016483681" lon="120.88094484924054"><ele>107.66666666666667</ele><time>2026-04-04T02:54:33Z</time></trkpt><trkpt lat="13.93136859346073" lon="120.88093993439527"><ele>108.0</ele><time>2026-04-04T02:54:34Z</time></trkpt><trkpt lat="13.931269470028926" lon="120.88092973401423"><ele>108.0</ele><time>2026-04-04T02:54:35Z</time></trkpt><trkpt lat="13.931171184118801" lon="120.8809124893315"><ele>108.00000000000001</ele><time>2026-04-04T02:54:36Z</time></trkpt><trkpt lat="13.93106622119843" lon="120.88089180766055"><ele>108.00000000000001</ele><time>2026-04-04T02:54:37Z</time></trkpt><trkpt lat="13.930959057991391" lon="120.88086995201327"><ele>108.0</ele><time>2026-04-04T02:54:38Z</time></trkpt><trkpt lat="13.930847185677901" lon="120.88084109466374"><ele>108.0</ele><time>2026-04-04T02:54:39Z</time></trkpt><trkpt lat="13.930728902259185" lon="120.88081145830766"><ele>107.5</ele><time>2026-04-04T02:54:40Z</time></trkpt><trkpt lat="13.930605398236542" lon="120.88078093735346"><ele>107.0</ele><time>2026-04-04T02:54:41Z</time></trkpt><trkpt lat="13.930482285826153" lon="120.88075060479916"><ele>106.5</ele><time>2026-04-04T02:54:42Z</time></trkpt><trkpt lat="13.930354110571626" lon="120.88071801484342"><ele>106.0</ele><time>2026-04-04T02:54:43Z</time></trkpt><trkpt lat="13.930225192675383" lon="120.88068937826515"><ele>106.0</ele><time>2026-04-04T02:54:44Z</time></trkpt><trkpt lat="13.93010077723489" lon="120.88067192235108"><ele>106.0</ele><time>2026-04-04T02:54:45Z</time></trkpt><trkpt lat="13.929967310101663" lon="120.88065176218511"><ele>106.0</ele><time>2026-04-04T02:54:46Z</time></trkpt><trkpt lat="13.929826233392518" lon="120.88063617184551"><ele>106.0</ele><time>2026-04-04T02:54:47Z</time></trkpt><trkpt lat="13.929693848991509" lon="120.880625181912"><ele>105.8</ele><time>2026-04-04T02:54:48Z</time></trkpt><trkpt lat="13.929567170648138" lon="120.88061491980443"><ele>105.6</ele><time>2026-04-04T02:54:49Z</time></trkpt><trkpt lat="13.929447623763345" lon="120.88060504558251"><ele>105.4</ele><time>2026-04-04T02:54:50Z</time></trkpt><trkpt lat="13.92934137272534" lon="120.88059738114903"><ele>105.2</ele><time>2026-04-04T02:54:51Z</time></trkpt><trkpt lat="13.929248835325946" lon="120.88058885084276"><ele>105.0</ele><time>2026-04-04T02:54:52Z</time></trkpt><trkpt lat="13.929155498737494" lon="120.88058138788267"><ele>103.2</ele><time>2026-04-04T02:54:53Z</time></trkpt><trkpt lat="13.929066027258486" lon="120.88057416087833"><ele>101.4</ele><time>2026-04-04T02:54:54Z</time></trkpt><trkpt lat="13.928976477153991" lon="120.88056688004643"><ele>99.6</ele><time>2026-04-04T02:54:55Z</time></trkpt><trkpt lat="13.928888934950274" lon="120.88055970737544"><ele>97.8</ele><time>2026-04-04T02:54:56Z</time></trkpt><trkpt lat="13.928794556476296" lon="120.88055211043397"><ele>96.0</ele><time>2026-04-04T02:54:57Z</time></trkpt><trkpt lat="13.92869749790117" lon="120.88054465709493"><ele>96.0</ele><time>2026-04-04T02:54:58Z</time></trkpt><trkpt lat="13.928592540598968" lon="120.8805365900573"><ele>96.0</ele><time>2026-04-04T02:54:59Z</time></trkpt><trkpt lat="13.928490220667316" lon="120.88053187016305"><ele>96.0</ele><time>2026-04-04T02:55:00Z</time></trkpt><trkpt lat="13.92839106581868" lon="120.88052841537835"><ele>96.0</ele><time>2026-04-04T02:55:01Z</time></trkpt><trkpt lat="13.928297431874872" lon="120.8805249359122"><ele>96.0</ele><time>2026-04-04T02:55:02Z</time></trkpt><trkpt lat="13.928220289598002" lon="120.88052206928174"><ele>94.66666666666667</ele><time>2026-04-04T02:55:03Z</time></trkpt><trkpt lat="13.928141130553499" lon="120.88051912770796"><ele>93.33333333333333</ele><time>2026-04-04T02:55:04Z</time></trkpt><trkpt lat="13.928035811933045" lon="120.88051523074849"><ele>92.0</ele><time>2026-04-04T02:55:06Z</time></trkpt><trkpt lat="13.927967730424655" lon="120.88051273149178"><ele>90.66666666666666</ele><time>2026-04-04T03:00:06Z</time></trkpt><trkpt lat="13.927894413806374" lon="120.88050998677048"><ele>89.33333333333333</ele><time>2026-04-04T03:00:09Z</time></trkpt><trkpt lat="13.927826980845802" lon="120.88050739688397"><ele>88.0</ele><time>2026-04-04T03:00:11Z</time></trkpt><trkpt lat="13.927742008587774" lon="120.88050411159705"><ele>88.0</ele><time>2026-04-04T03:00:13Z</time></trkpt><trkpt lat="13.927623581012343" lon="120.88049964162788"><ele>88.0</ele><time>2026-04-04T03:00:15Z</time></trkpt><trkpt lat="13.927546377251929" lon="120.88049582323424"><ele>88.0</ele><time>2026-04-04T03:00:16Z</time></trkpt><trkpt lat="13.927448553935026" lon="120.88048867453604"><ele>88.0</ele><time>2026-04-04T03:00:17Z</time></trkpt><trkpt lat="13.92737328838838" lon="120.8804832406179"><ele>88.0</ele><time>2026-04-04T03:00:18Z</time></trkpt><trkpt lat="13.92726345800765" lon="120.88047464759597"><ele>85.0</ele><time>2026-04-04T03:00:19Z</time></trkpt><trkpt lat="13.927142895025106" lon="120.88046643533237"><ele>82.0</ele><time>2026-04-04T03:00:20Z</time></trkpt><trkpt lat="13.927016924006992" lon="120.88045607627801"><ele>79.0</ele><time>2026-04-04T03:00:21Z</time></trkpt><trkpt lat="13.926886227407653" lon="120.88044669377653"><ele>76.0</ele><time>2026-04-04T03:00:22Z</time></trkpt><trkpt lat="13.926752524535743" lon="120.88043709545725"><ele>75.75</ele><time>2026-04-04T03:00:23Z</time></trkpt><trkpt lat="13.926614743864391" lon="120.88042716073765"><ele>75.5</ele><time>2026-04-04T03:00:24Z</time></trkpt><trkpt lat="13.926473149255537" lon="120.88041670102356"><ele>75.25</ele><time>2026-04-04T03:00:25Z</time></trkpt><trkpt lat="13.926329006897051" lon="120.88040552000011"><ele>75.0</ele><time>2026-04-04T03:00:26Z</time></trkpt><trkpt lat="13.926183681608544" lon="120.8803941558941"><ele>75.0</ele><time>2026-04-04T03:00:27Z</time></trkpt><trkpt lat="13.926026489209546" lon="120.88038264752413"><ele>75.0</ele><time>2026-04-04T03:00:28Z</time></trkpt><trkpt lat="13.92586420673459" lon="120.88037173529577"><ele>75.0</ele><time>2026-04-04T03:00:29Z</time></trkpt><trkpt lat="13.925702871951465" lon="120.88036130977008"><ele>73.66666666666667</ele><time>2026-04-04T03:00:30.001Z</time></trkpt><trkpt lat="13.925538360385326" lon="120.88035058634907"><ele>72.33333333333334</ele><time>2026-04-04T03:00:31.001Z</time></trkpt><trkpt lat="13.925370707995578" lon="120.88033980121656"><ele>71.0</ele><time>2026-04-04T03:00:32.001Z</time></trkpt><trkpt lat="13.925197280909078" lon="120.88032806561259"><ele>69.0</ele><time>2026-04-04T03:00:33.001Z</time></trkpt><trkpt lat="13.925031576640412" lon="120.88031613627756"><ele>67.0</ele><time>2026-04-04T03:00:34.001Z</time></trkpt><trkpt lat="13.924863295589429" lon="120.88030561201536"><ele>65.0</ele><time>2026-04-04T03:00:35.001Z</time></trkpt><trkpt lat="13.924699446750727" lon="120.88029495664917"><ele>65.0</ele><time>2026-04-04T03:00:36.001Z</time></trkpt><trkpt lat="13.924544765054044" lon="120.88028376025967"><ele>65.0</ele><time>2026-04-04T03:00:37Z</time></trkpt><trkpt lat="13.924388917940226" lon="120.88027381504884"><ele>65.0</ele><time>2026-04-04T03:00:38Z</time></trkpt><trkpt lat="13.924236685327703" lon="120.88026372557731"><ele>64.66666666666667</ele><time>2026-04-04T03:00:39Z</time></trkpt><trkpt lat="13.924080214914259" lon="120.88025292202063"><ele>64.33333333333333</ele><time>2026-04-04T03:00:40Z</time></trkpt><trkpt lat="13.923930700139246" lon="120.88024348046176"><ele>64.0</ele><time>2026-04-04T03:00:41Z</time></trkpt><trkpt lat="13.923775321543745" lon="120.88023412778237"><ele>64.0</ele><time>2026-04-04T03:00:42Z</time></trkpt><trkpt lat="13.923627202073293" lon="120.88021762757207"><ele>64.0</ele><time>2026-04-04T03:00:43Z</time></trkpt><trkpt lat="13.923470078807956" lon="120.88019125618858"><ele>64.0</ele><time>2026-04-04T03:00:44Z</time></trkpt><trkpt lat="13.923321782371538" lon="120.88015502446642"><ele>64.0</ele><time>2026-04-04T03:00:45Z</time></trkpt><trkpt lat="13.923181647697396" lon="120.88011589137896"><ele>64.0</ele><time>2026-04-04T03:00:46Z</time></trkpt><trkpt lat="13.923052284523342" lon="120.88006573080413"><ele>64.0</ele><time>2026-04-04T03:00:47Z</time></trkpt><trkpt lat="13.922910022256106" lon="120.88000061980904"><ele>64.0</ele><time>2026-04-04T03:00:48Z</time></trkpt><trkpt lat="13.922770093794236" lon="120.87993660240868"><ele>64.0</ele><time>2026-04-04T03:00:49Z</time></trkpt><trkpt lat="13.922631472142916" lon="120.8798674491939"><ele>64.0</ele><time>2026-04-04T03:00:50Z</time></trkpt><trkpt lat="13.922487178901468" lon="120.87979413983686"><ele>64.0</ele><time>2026-04-04T03:00:51Z</time></trkpt><trkpt lat="13.92234119919385" lon="120.87972012278394"><ele>63.0</ele><time>2026-04-04T03:00:52Z</time></trkpt><trkpt lat="13.922191266569167" lon="120.87964182662202"><ele>62.0</ele><time>2026-04-04T03:00:53Z</time></trkpt><trkpt lat="13.922039462878795" lon="120.87955756064697"><ele>61.0</ele><time>2026-04-04T03:00:54Z</time></trkpt><trkpt lat="13.921889568461728" lon="120.87947435450414"><ele>61.0</ele><time>2026-04-04T03:00:55Z</time></trkpt><trkpt lat="13.921735742671597" lon="120.87938941439414"><ele>61.0</ele><time>2026-04-04T03:00:56Z</time></trkpt><trkpt lat="13.921584066429892" lon="120.87930636689137"><ele>61.0</ele><time>2026-04-04T03:00:57Z</time></trkpt><trkpt lat="13.921434475256579" lon="120.87922457325521"><ele>60.33333333333333</ele><time>2026-04-04T03:00:58Z</time></trkpt><trkpt lat="13.921287048773163" lon="120.87915035325508"><ele>59.66666666666667</ele><time>2026-04-04T03:00:59Z</time></trkpt><trkpt lat="13.92114412008233" lon="120.87907876531901"><ele>59.0</ele><time>2026-04-04T03:01:00Z</time></trkpt><trkpt lat="13.921007228046141" lon="120.8790102637162"><ele>58.75</ele><time>2026-04-04T03:01:01Z</time></trkpt><trkpt lat="13.920870335053966" lon="120.87894863716154"><ele>58.5</ele><time>2026-04-04T03:01:02Z</time></trkpt><trkpt lat="13.920730793762532" lon="120.87889650909528"><ele>58.25</ele><time>2026-04-04T03:01:03Z</time></trkpt><trkpt lat="13.920584124396349" lon="120.87885814332235"><ele>58.0</ele><time>2026-04-04T03:01:04Z</time></trkpt><trkpt lat="13.920429162411699" lon="120.87883450320173"><ele>58.0</ele><time>2026-04-04T03:01:05Z</time></trkpt><trkpt lat="13.920277813835007" lon="120.87882040668705"><ele>58.0</ele><time>2026-04-04T03:01:06Z</time></trkpt><trkpt lat="13.92012708450454" lon="120.878807830238"><ele>58.0</ele><time>2026-04-04T03:01:07Z</time></trkpt><trkpt lat="13.919973660341038" lon="120.87881376640134"><ele>56.75</ele><time>2026-04-04T03:01:08Z</time></trkpt><trkpt lat="13.91983701188427" lon="120.87881667467637"><ele>55.5</ele><time>2026-04-04T03:01:09Z</time></trkpt><trkpt lat="13.919704005469509" lon="120.87881950543877"><ele>54.25</ele><time>2026-04-04T03:01:10Z</time></trkpt><trkpt lat="13.919582180464053" lon="120.87882209822796"><ele>53.0</ele><time>2026-04-04T03:01:11Z</time></trkpt><trkpt lat="13.919463755720892" lon="120.87882461865058"><ele>53.00000000000001</ele><time>2026-04-04T03:01:12Z</time></trkpt><trkpt lat="13.919361420905068" lon="120.87882679663197"><ele>53.0</ele><time>2026-04-04T03:01:13Z</time></trkpt><trkpt lat="13.91927141672542" lon="120.87882871218078"><ele>53.0</ele><time>2026-04-04T03:01:14Z</time></trkpt><trkpt lat="13.919186869278276" lon="120.87883051159628"><ele>53.0</ele><time>2026-04-04T03:01:15Z</time></trkpt><trkpt lat="13.919107324066214" lon="120.87883220454867"><ele>53.00000000000001</ele><time>2026-04-04T03:01:16Z</time></trkpt><trkpt lat="13.919027691515046" lon="120.87883389935968"><ele>53.0</ele><time>2026-04-04T03:01:17Z</time></trkpt><trkpt lat="13.918955262128359" lon="120.87883273581839"><ele>53.0</ele><time>2026-04-04T03:01:18Z</time></trkpt><trkpt lat="13.918889392329094" lon="120.87882976329618"><ele>53.0</ele><time>2026-04-04T03:01:19Z</time></trkpt><trkpt lat="13.918823325879366" lon="120.87882678189992"><ele>53.0</ele><time>2026-04-04T03:01:20Z</time></trkpt><trkpt lat="13.91875642666755" lon="120.87882376292357"><ele>53.0</ele><time>2026-04-04T03:01:21Z</time></trkpt><trkpt lat="13.918678443210753" lon="120.87882024374602"><ele>53.0</ele><time>2026-04-04T03:01:22Z</time></trkpt><trkpt lat="13.918611018475769" lon="120.87881720105376"><ele>53.0</ele><time>2026-04-04T03:01:23Z</time></trkpt><trkpt lat="13.918536819182863" lon="120.87881385264471"><ele>53.0</ele><time>2026-04-04T03:01:24Z</time></trkpt><trkpt lat="13.918453541903862" lon="120.87880906580212"><ele>51.8</ele><time>2026-04-04T03:01:25Z</time></trkpt><trkpt lat="13.91837040564564" lon="120.8788046377706"><ele>50.599999999999994</ele><time>2026-04-04T03:01:26Z</time></trkpt><trkpt lat="13.918277044881568" lon="120.87879933189521"><ele>49.400000000000006</ele><time>2026-04-04T03:01:27Z</time></trkpt><trkpt lat="13.918178668572118" lon="120.87879367051637"><ele>48.2</ele><time>2026-04-04T03:01:28Z</time></trkpt><trkpt lat="13.918074369684101" lon="120.87878766830389"><ele>47.0</ele><time>2026-04-04T03:01:29Z</time></trkpt><trkpt lat="13.917965114909947" lon="120.87878145437269"><ele>47.0</ele><time>2026-04-04T03:01:30Z</time></trkpt><trkpt lat="13.917858310935127" lon="120.87877575912488"><ele>47.0</ele><time>2026-04-04T03:01:31Z</time></trkpt><trkpt lat="13.917753001721355" lon="120.87877009809449"><ele>47.0</ele><time>2026-04-04T03:01:32Z</time></trkpt><trkpt lat="13.91764932569649" lon="120.87876452485789"><ele>47.0</ele><time>2026-04-04T03:01:33Z</time></trkpt><trkpt lat="13.917546026962256" lon="120.87875860670545"><ele>47.0</ele><time>2026-04-04T03:01:34Z</time></trkpt><trkpt lat="13.91744175618264" lon="120.87875253823472"><ele>46.6</ele><time>2026-04-04T03:01:35Z</time></trkpt><trkpt lat="13.917329243793116" lon="120.87874646262931"><ele>46.2</ele><time>2026-04-04T03:01:36Z</time></trkpt><trkpt lat="13.917225395310847" lon="120.87874085486928"><ele>45.8</ele><time>2026-04-04T03:01:37Z</time></trkpt><trkpt lat="13.917113479229593" lon="120.8787347622954"><ele>45.4</ele><time>2026-04-04T03:01:38Z</time></trkpt><trkpt lat="13.917007906687974" lon="120.87872859114559"><ele>45.0</ele><time>2026-04-04T03:01:39Z</time></trkpt><trkpt lat="13.916901210771615" lon="120.87872240061549"><ele>45.0</ele><time>2026-04-04T03:01:40Z</time></trkpt><trkpt lat="13.91679472063138" lon="120.87871647786167"><ele>45.0</ele><time>2026-04-04T03:01:41Z</time></trkpt><trkpt lat="13.916680613852742" lon="120.87871013148641"><ele>45.0</ele><time>2026-04-04T03:01:42Z</time></trkpt><trkpt lat="13.916576616851462" lon="120.87870434739555"><ele>45.0</ele><time>2026-04-04T03:01:43Z</time></trkpt><trkpt lat="13.916476685891327" lon="120.87869878944943"><ele>45.0</ele><time>2026-04-04T03:01:44Z</time></trkpt><trkpt lat="13.916374301912263" lon="120.87869309507084"><ele>44.2</ele><time>2026-04-04T03:01:45Z</time></trkpt><trkpt lat="13.916264997880669" lon="120.87868701581388"><ele>43.4</ele><time>2026-04-04T03:01:46Z</time></trkpt><trkpt lat="13.916156224264782" lon="120.8786809660574"><ele>42.599999999999994</ele><time>2026-04-04T03:01:47Z</time></trkpt><trkpt lat="13.916048535668235" lon="120.8786749766482"><ele>41.8</ele><time>2026-04-04T03:01:48Z</time></trkpt><trkpt lat="13.915948097156924" lon="120.87866956944404"><ele>41.0</ele><time>2026-04-04T03:01:49Z</time></trkpt><trkpt lat="13.915850784794614" lon="120.87866438159834"><ele>39.599999999999994</ele><time>2026-04-04T03:01:50Z</time></trkpt><trkpt lat="13.915757064717434" lon="120.878659385262"><ele>38.199999999999996</ele><time>2026-04-04T03:01:51Z</time></trkpt><trkpt lat="13.915655462653996" lon="120.87865361859066"><ele>36.8</ele><time>2026-04-04T03:01:52Z</time></trkpt><trkpt lat="13.915552584832188" lon="120.87864781436734"><ele>35.4</ele><time>2026-04-04T03:01:53Z</time></trkpt><trkpt lat="13.915443845909854" lon="120.87864174722193"><ele>34.0</ele><time>2026-04-04T03:01:54Z</time></trkpt><trkpt lat="13.915339248951572" lon="120.87863591084786"><ele>34.0</ele><time>2026-04-04T03:01:55Z</time></trkpt><trkpt lat="13.91522753933684" lon="120.87862967759682"><ele>34.0</ele><time>2026-04-04T03:01:56Z</time></trkpt><trkpt lat="13.915122574211507" lon="120.8786238206794"><ele>34.0</ele><time>2026-04-04T03:01:57Z</time></trkpt><trkpt lat="13.915018329478618" lon="120.8786180039588"><ele>34.0</ele><time>2026-04-04T03:01:58Z</time></trkpt><trkpt lat="13.914915088047763" lon="120.87861224322083"><ele>34.0</ele><time>2026-04-04T03:01:59Z</time></trkpt><trkpt lat="13.914801362597858" lon="120.87860589748908"><ele>34.0</ele><time>2026-04-04T03:02:00Z</time></trkpt><trkpt lat="13.914698156056085" lon="120.87860013869745"><ele>34.0</ele><time>2026-04-04T03:02:01Z</time></trkpt><trkpt lat="13.914603889932122" lon="120.8785944953431"><ele>34.0</ele><time>2026-04-04T03:02:02Z</time></trkpt><trkpt lat="13.914499748239232" lon="120.87858833239665"><ele>34.0</ele><time>2026-04-04T03:02:03Z</time></trkpt><trkpt lat="13.914391815613348" lon="120.87858194510865"><ele>34.0</ele><time>2026-04-04T03:02:04Z</time></trkpt><trkpt lat="13.914286133571542" lon="120.87857569178937"><ele>33.0</ele><time>2026-04-04T03:02:05Z</time></trkpt><trkpt lat="13.914186058011179" lon="120.87857002154493"><ele>32.0</ele><time>2026-04-04T03:02:06Z</time></trkpt><trkpt lat="13.91409447558464" lon="120.87856483251825"><ele>31.0</ele><time>2026-04-04T03:02:07Z</time></trkpt><trkpt lat="13.914003748881997" lon="120.87855969197719"><ele>30.0</ele><time>2026-04-04T03:02:08Z</time></trkpt><trkpt lat="13.9139154933834" lon="120.87855469145278"><ele>29.0</ele><time>2026-04-04T03:02:09Z</time></trkpt><trkpt lat="13.913833550317545" lon="120.87855004858888"><ele>28.999999999999996</ele><time>2026-04-04T03:02:10Z</time></trkpt><trkpt lat="13.913756466685648" lon="120.87854568105936"><ele>29.0</ele><time>2026-04-04T03:02:11Z</time></trkpt><trkpt lat="13.913680010178265" lon="120.878541349062"><ele>29.0</ele><time>2026-04-04T03:02:12Z</time></trkpt><trkpt lat="13.913608420447957" lon="120.87853729281426"><ele>29.0</ele><time>2026-04-04T03:02:13Z</time></trkpt><trkpt lat="13.913540639916548" lon="120.87858262333819"><ele>28.999999999999996</ele><time>2026-04-04T03:02:14Z</time></trkpt><trkpt lat="13.913437289580141" lon="120.87856955007744"><ele>29.0</ele><time>2026-04-04T03:02:16Z</time></trkpt><trkpt lat="13.913367821022272" lon="120.87855982240303"><ele>28.333333333333332</ele><time>2026-04-04T03:02:19Z</time></trkpt><trkpt lat="13.913304045251868" lon="120.87855041788285"><ele>27.666666666666664</ele><time>2026-04-04T03:02:21Z</time></trkpt><trkpt lat="13.913231476514216" lon="120.87853971674079"><ele>27.0</ele><time>2026-04-04T03:02:23Z</time></trkpt><trkpt lat="13.91315547829027" lon="120.87852690926529"><ele>26.333333333333336</ele><time>2026-04-04T03:02:25Z</time></trkpt><trkpt lat="13.913068826355275" lon="120.87851287990584"><ele>25.666666666666668</ele><time>2026-04-04T03:02:27Z</time></trkpt><trkpt lat="13.91301234528266" lon="120.87862658623013"><ele>25.0</ele><time>2026-04-04T03:02:28Z</time></trkpt><trkpt lat="13.912990063445339" lon="120.87869946635826"><ele>25.000000000000004</ele><time>2026-04-04T03:02:29Z</time></trkpt><trkpt lat="13.912974576409239" lon="120.87877128881286"><ele>25.0</ele><time>2026-04-04T03:02:30Z</time></trkpt><trkpt lat="13.912938393292233" lon="120.87885138842377"><ele>25.0</ele><time>2026-04-04T03:02:31Z</time></trkpt><trkpt lat="13.912900708121052" lon="120.87893242548806"><ele>25.0</ele><time>2026-04-04T03:02:32Z</time></trkpt><trkpt lat="13.912840087054832" lon="120.87901592043106"><ele>25.000000000000004</ele><time>2026-04-04T03:02:33Z</time></trkpt><trkpt lat="13.912803408451934" lon="120.87911080537128"><ele>25.0</ele><time>2026-04-04T03:02:34Z</time></trkpt><trkpt lat="13.912763731128841" lon="120.87921344778925"><ele>24.4</ele><time>2026-04-04T03:02:35Z</time></trkpt><trkpt lat="13.912725269267343" lon="120.87931294589076"><ele>23.8</ele><time>2026-04-04T03:02:36Z</time></trkpt><trkpt lat="13.912690379892402" lon="120.8794046836583"><ele>23.200000000000003</ele><time>2026-04-04T03:02:37Z</time></trkpt><trkpt lat="13.91265239040225" lon="120.87951494002291"><ele>22.6</ele><time>2026-04-04T03:02:38Z</time></trkpt><trkpt lat="13.912614299307043" lon="120.87963264544244"><ele>22.0</ele><time>2026-04-04T03:02:39Z</time></trkpt><trkpt lat="13.9125718999917" lon="120.87976367886687"><ele>21.75</ele><time>2026-04-04T03:02:40Z</time></trkpt><trkpt lat="13.91253672949283" lon="120.87990760486645"><ele>21.5</ele><time>2026-04-04T03:02:41Z</time></trkpt><trkpt lat="13.912493157391" lon="120.8800487973174"><ele>21.25</ele><time>2026-04-04T03:02:42Z</time></trkpt><trkpt lat="13.912450308795586" lon="120.88019731156027"><ele>21.0</ele><time>2026-04-04T03:02:43Z</time></trkpt><trkpt lat="13.912411984836622" lon="120.88035129041802"><ele>21.0</ele><time>2026-04-04T03:02:44Z</time></trkpt><trkpt lat="13.912354153890929" lon="120.88049093111057"><ele>21.0</ele><time>2026-04-04T03:02:45Z</time></trkpt><trkpt lat="13.91231709587432" lon="120.8806209544507"><ele>21.0</ele><time>2026-04-04T03:02:46Z</time></trkpt><trkpt lat="13.912294317148023" lon="120.88075155756057"><ele>21.0</ele><time>2026-04-04T03:02:47Z</time></trkpt><trkpt lat="13.912245905341463" lon="120.88087878974069"><ele>20.75</ele><time>2026-04-04T03:02:48Z</time></trkpt><trkpt lat="13.912208585824805" lon="120.88101539595867"><ele>20.5</ele><time>2026-04-04T03:02:49Z</time></trkpt><trkpt lat="13.912169490298101" lon="120.88116534157436"><ele>20.25</ele><time>2026-04-04T03:02:50Z</time></trkpt><trkpt lat="13.91214054345166" lon="120.88127747852126"><ele>20.0</ele><time>2026-04-04T03:02:51Z</time></trkpt><trkpt lat="13.9121209461769" lon="120.88140317259594"><ele>20.0</ele><time>2026-04-04T03:02:52Z</time></trkpt><trkpt lat="13.91208909504596" lon="120.88154136069416"><ele>20.0</ele><time>2026-04-04T03:02:53Z</time></trkpt><trkpt lat="13.912053341274126" lon="120.88166685798015"><ele>20.0</ele><time>2026-04-04T03:02:54Z</time></trkpt><trkpt lat="13.9120212626282" lon="120.88178336371769"><ele>20.0</ele><time>2026-04-04T03:02:55Z</time></trkpt><trkpt lat="13.911969074518753" lon="120.88189715944813"><ele>19.75</ele><time>2026-04-04T03:02:56Z</time></trkpt><trkpt lat="13.911928299878163" lon="120.88201525720721"><ele>19.5</ele><time>2026-04-04T03:02:57Z</time></trkpt><trkpt lat="13.91188405790546" lon="120.88212897281774"><ele>19.25</ele><time>2026-04-04T03:02:58Z</time></trkpt><trkpt lat="13.911837645073499" lon="120.88224325233158"><ele>19.0</ele><time>2026-04-04T03:02:59Z</time></trkpt><trkpt lat="13.911789426257942" lon="120.88236197860779"><ele>19.0</ele><time>2026-04-04T03:03:00Z</time></trkpt><trkpt lat="13.911740493270567" lon="120.88247831753368"><ele>19.0</ele><time>2026-04-04T03:03:01Z</time></trkpt><trkpt lat="13.911688675805118" lon="120.88259701850687"><ele>19.0</ele><time>2026-04-04T03:03:02Z</time></trkpt><trkpt lat="13.91162504575672" lon="120.88270665100768"><ele>19.0</ele><time>2026-04-04T03:03:03Z</time></trkpt><trkpt lat="13.911558209578667" lon="120.88281762198754"><ele>18.0</ele><time>2026-04-04T03:03:04Z</time></trkpt><trkpt lat="13.911495231158922" lon="120.8829271468694"><ele>17.0</ele><time>2026-04-04T03:03:05Z</time></trkpt><trkpt lat="13.911435444444082" lon="120.88303026071915"><ele>16.0</ele><time>2026-04-04T03:03:06Z</time></trkpt><trkpt lat="13.91138028398584" lon="120.88312539568626"><ele>15.0</ele><time>2026-04-04T03:03:07Z</time></trkpt><trkpt lat="13.911322458590515" lon="120.88322512685667"><ele>15.0</ele><time>2026-04-04T03:03:08Z</time></trkpt><trkpt lat="13.911262667687037" lon="120.88332749450949"><ele>15.0</ele><time>2026-04-04T03:03:09Z</time></trkpt><trkpt lat="13.911198831417137" lon="120.8834299746996"><ele>15.0</ele><time>2026-04-04T03:03:10Z</time></trkpt><trkpt lat="13.911132877451289" lon="120.88353483306372"><ele>15.0</ele><time>2026-04-04T03:03:11Z</time></trkpt><trkpt lat="13.911070273809225" lon="120.88363436484227"><ele>15.25</ele><time>2026-04-04T03:03:12Z</time></trkpt><trkpt lat="13.911004409259137" lon="120.88373918393066"><ele>15.5</ele><time>2026-04-04T03:03:13Z</time></trkpt><trkpt lat="13.910939769393021" lon="120.88384236006458"><ele>15.75</ele><time>2026-04-04T03:03:14Z</time></trkpt><trkpt lat="13.910874605002135" lon="120.88394644787112"><ele>16.0</ele><time>2026-04-04T03:03:15Z</time></trkpt><trkpt lat="13.910808686294688" lon="120.88405173369605"><ele>16.0</ele><time>2026-04-04T03:03:16Z</time></trkpt><trkpt lat="13.910744358990208" lon="120.88415442507045"><ele>16.0</ele><time>2026-04-04T03:03:17Z</time></trkpt><trkpt lat="13.910676135533384" lon="120.88426333621678"><ele>16.0</ele><time>2026-04-04T03:03:18Z</time></trkpt><trkpt lat="13.910606359300235" lon="120.8843747261992"><ele>16.0</ele><time>2026-04-04T03:03:19Z</time></trkpt><trkpt lat="13.910534903605186" lon="120.88448879725837"><ele>16.25</ele><time>2026-04-04T03:03:20Z</time></trkpt><trkpt lat="13.91046272260621" lon="120.88460402618226"><ele>16.5</ele><time>2026-04-04T03:03:21Z</time></trkpt><trkpt lat="13.910394276199241" lon="120.8847120963043"><ele>16.75</ele><time>2026-04-04T03:03:22Z</time></trkpt><trkpt lat="13.910325461283744" lon="120.88481908196715"><ele>17.0</ele><time>2026-04-04T03:03:23Z</time></trkpt><trkpt lat="13.91025362178905" lon="120.88493618562852"><ele>17.0</ele><time>2026-04-04T03:03:24Z</time></trkpt><trkpt lat="13.910181719031083" lon="120.88505218008065"><ele>17.0</ele><time>2026-04-04T03:03:25Z</time></trkpt><trkpt lat="13.910107392857427" lon="120.88517181385745"><ele>17.0</ele><time>2026-04-04T03:03:26Z</time></trkpt><trkpt lat="13.910030868012976" lon="120.88529492889018"><ele>17.0</ele><time>2026-04-04T03:03:27Z</time></trkpt><trkpt lat="13.909952272874275" lon="120.88542137463824"><ele>17.25</ele><time>2026-04-04T03:03:28Z</time></trkpt><trkpt lat="13.909875805842981" lon="120.88554439665486"><ele>17.5</ele><time>2026-04-04T03:03:29Z</time></trkpt><trkpt lat="13.909804035176162" lon="120.88565986303263"><ele>17.75</ele><time>2026-04-04T03:03:30Z</time></trkpt><trkpt lat="13.909738029085661" lon="120.88576605523795"><ele>18.0</ele><time>2026-04-04T03:03:31Z</time></trkpt><trkpt lat="13.909672866013429" lon="120.88587089114591"><ele>18.25</ele><time>2026-04-04T03:03:32Z</time></trkpt><trkpt lat="13.909609043803425" lon="120.88597217208442"><ele>18.5</ele><time>2026-04-04T03:03:33Z</time></trkpt><trkpt lat="13.909538104069568" lon="120.88608440510322"><ele>18.75</ele><time>2026-04-04T03:03:34Z</time></trkpt><trkpt lat="13.909464792331663" lon="120.8862003908317"><ele>19.0</ele><time>2026-04-04T03:03:35Z</time></trkpt><trkpt lat="13.909386608181043" lon="120.88632408515491"><ele>19.0</ele><time>2026-04-04T03:03:36Z</time></trkpt><trkpt lat="13.909305675357686" lon="120.88645282054857"><ele>19.0</ele><time>2026-04-04T03:03:37Z</time></trkpt><trkpt lat="13.909226735575604" lon="120.88657838538661"><ele>19.0</ele><time>2026-04-04T03:03:38Z</time></trkpt><trkpt lat="13.9091459180484" lon="120.88670999789709"><ele>19.0</ele><time>2026-04-04T03:03:39Z</time></trkpt><trkpt lat="13.90906973865074" lon="120.88684257997335"><ele>18.75</ele><time>2026-04-04T03:03:40Z</time></trkpt><trkpt lat="13.908998009546309" lon="120.8869745179367"><ele>18.5</ele><time>2026-04-04T03:03:41Z</time></trkpt><trkpt lat="13.908928152165304" lon="120.88710583590321"><ele>18.25</ele><time>2026-04-04T03:03:42Z</time></trkpt><trkpt lat="13.908868441833036" lon="120.88722823356308"><ele>18.0</ele><time>2026-04-04T03:03:43Z</time></trkpt><trkpt lat="13.908814322066096" lon="120.88734385708946"><ele>18.0</ele><time>2026-04-04T03:03:44Z</time></trkpt><trkpt lat="13.90875863905128" lon="120.88746597083397"><ele>18.0</ele><time>2026-04-04T03:03:45Z</time></trkpt><trkpt lat="13.908704496953204" lon="120.88758802851657"><ele>18.0</ele><time>2026-04-04T03:03:46Z</time></trkpt><trkpt lat="13.908650804639288" lon="120.8877169449858"><ele>18.0</ele><time>2026-04-04T03:03:47Z</time></trkpt><trkpt lat="13.908596038172947" lon="120.88784727417006"><ele>18.666666666666668</ele><time>2026-04-04T03:03:48Z</time></trkpt><trkpt lat="13.908537407776691" lon="120.88798813695944"><ele>19.333333333333336</ele><time>2026-04-04T03:03:49Z</time></trkpt><trkpt lat="13.908475388195889" lon="120.88813643344311"><ele>20.0</ele><time>2026-04-04T03:03:50Z</time></trkpt><trkpt lat="13.908413609198625" lon="120.88828607936287"><ele>19.75</ele><time>2026-04-04T03:03:51Z</time></trkpt><trkpt lat="13.908353241077863" lon="120.88843188800158"><ele>19.5</ele><time>2026-04-04T03:03:52Z</time></trkpt><trkpt lat="13.908293044042631" lon="120.88857500430262"><ele>19.25</ele><time>2026-04-04T03:03:53Z</time></trkpt><trkpt lat="13.908238485252602" lon="120.88870660636363"><ele>19.0</ele><time>2026-04-04T03:03:54Z</time></trkpt><trkpt lat="13.908187049991263" lon="120.8888306741068"><ele>19.0</ele><time>2026-04-04T03:03:55Z</time></trkpt><trkpt lat="13.908137499841404" lon="120.88895019474333"><ele>19.0</ele><time>2026-04-04T03:03:56Z</time></trkpt><trkpt lat="13.908092513530354" lon="120.88905870688538"><ele>19.0</ele><time>2026-04-04T03:03:57Z</time></trkpt><trkpt lat="13.908053967153526" lon="120.88915168516294"><ele>19.0</ele><time>2026-04-04T03:03:58Z</time></trkpt><trkpt lat="13.908023010516056" lon="120.88922635611922"><ele>19.0</ele><time>2026-04-04T03:03:59Z</time></trkpt><trkpt lat="13.907991606698442" lon="120.88930210574469"><ele>19.4</ele><time>2026-04-04T03:04:00Z</time></trkpt><trkpt lat="13.907961527076095" lon="120.88937466121915"><ele>19.799999999999997</ele><time>2026-04-04T03:04:01Z</time></trkpt><trkpt lat="13.907930083674303" lon="120.88945050601721"><ele>20.200000000000003</ele><time>2026-04-04T03:04:02Z</time></trkpt><trkpt lat="13.907892854044569" lon="120.88954174994224"><ele>20.6</ele><time>2026-04-04T03:04:03Z</time></trkpt><trkpt lat="13.907853048295303" lon="120.8896388084343"><ele>21.0</ele><time>2026-04-04T03:04:04Z</time></trkpt><trkpt lat="13.907806345541339" lon="120.88975268394287"><ele>21.0</ele><time>2026-04-04T03:04:05Z</time></trkpt><trkpt lat="13.907756795795786" lon="120.8898735012693"><ele>21.0</ele><time>2026-04-04T03:04:06Z</time></trkpt><trkpt lat="13.907703630121908" lon="120.8900031353404"><ele>21.0</ele><time>2026-04-04T03:04:07Z</time></trkpt><trkpt lat="13.907647615009273" lon="120.89013919163115"><ele>21.0</ele><time>2026-04-04T03:04:08Z</time></trkpt><trkpt lat="13.907591301532525" lon="120.89027429335607"><ele>20.0</ele><time>2026-04-04T03:04:09Z</time></trkpt><trkpt lat="13.907539802330048" lon="120.89039902480982"><ele>19.0</ele><time>2026-04-04T03:04:10Z</time></trkpt><trkpt lat="13.907494147948313" lon="120.89050851419297"><ele>18.0</ele><time>2026-04-04T03:04:11Z</time></trkpt><trkpt lat="13.907446541287063" lon="120.89061972455579"><ele>17.0</ele><time>2026-04-04T03:04:12Z</time></trkpt><trkpt lat="13.907399974411296" lon="120.8907316609595"><ele>17.0</ele><time>2026-04-04T03:04:13Z</time></trkpt><trkpt lat="13.907348692116917" lon="120.89085380628781"><ele>17.0</ele><time>2026-04-04T03:04:14Z</time></trkpt><trkpt lat="13.907294773265544" lon="120.89098223142022"><ele>17.0</ele><time>2026-04-04T03:04:15Z</time></trkpt><trkpt lat="13.907237124707152" lon="120.89111954006727"><ele>17.0</ele><time>2026-04-04T03:04:16Z</time></trkpt><trkpt lat="13.907179694193776" lon="120.8912563293642"><ele>17.75</ele><time>2026-04-04T03:04:17Z</time></trkpt><trkpt lat="13.907124266240176" lon="120.8913883489306"><ele>18.5</ele><time>2026-04-04T03:04:18Z</time></trkpt><trkpt lat="13.907072043468462" lon="120.89151273429718"><ele>19.25</ele><time>2026-04-04T03:04:19Z</time></trkpt><trkpt lat="13.90700838026416" lon="120.89164057480873"><ele>20.0</ele><time>2026-04-04T03:04:20Z</time></trkpt><trkpt lat="13.906937361886886" lon="120.89177944991931"><ele>21.0</ele><time>2026-04-04T03:04:21Z</time></trkpt><trkpt lat="13.906865288252536" lon="120.89192133801309"><ele>22.0</ele><time>2026-04-04T03:04:22Z</time></trkpt><trkpt lat="13.906784987570434" lon="120.89205570649024"><ele>23.0</ele><time>2026-04-04T03:04:23Z</time></trkpt><trkpt lat="13.9067072995339" lon="120.89218537192805"><ele>21.0</ele><time>2026-04-04T03:04:24Z</time></trkpt><trkpt lat="13.906621778501263" lon="120.89231410062737"><ele>19.0</ele><time>2026-04-04T03:04:25Z</time></trkpt><trkpt lat="13.906533282659328" lon="120.89243895055466"><ele>17.0</ele><time>2026-04-04T03:04:26Z</time></trkpt><trkpt lat="13.906442643268312" lon="120.89256682455526"><ele>16.333333333333336</ele><time>2026-04-04T03:04:27Z</time></trkpt><trkpt lat="13.906345614707002" lon="120.89269094019689"><ele>15.666666666666668</ele><time>2026-04-04T03:04:28Z</time></trkpt><trkpt lat="13.90624675159318" lon="120.89281485271071"><ele>15.0</ele><time>2026-04-04T03:04:29Z</time></trkpt><trkpt lat="13.906146924704148" lon="120.89294105153685"><ele>15.0</ele><time>2026-04-04T03:04:30Z</time></trkpt><trkpt lat="13.90604624704342" lon="120.89306847888689"><ele>15.0</ele><time>2026-04-04T03:04:31Z</time></trkpt><trkpt lat="13.905943822011492" lon="120.8931981179569"><ele>15.0</ele><time>2026-04-04T03:04:32Z</time></trkpt><trkpt lat="13.905837540253245" lon="120.89333263843741"><ele>15.666666666666668</ele><time>2026-04-04T03:04:33Z</time></trkpt><trkpt lat="13.905728481095782" lon="120.89347067426702"><ele>16.333333333333336</ele><time>2026-04-04T03:04:34Z</time></trkpt><trkpt lat="13.905614689315515" lon="120.89361282079648"><ele>17.0</ele><time>2026-04-04T03:04:35Z</time></trkpt><trkpt lat="13.905499320036466" lon="120.89375924748869"><ele>17.0</ele><time>2026-04-04T03:04:36Z</time></trkpt><trkpt lat="13.905388279187198" lon="120.89390070492735"><ele>17.0</ele><time>2026-04-04T03:04:37Z</time></trkpt><trkpt lat="13.905286708058545" lon="120.89403017245988"><ele>17.0</ele><time>2026-04-04T03:04:38Z</time></trkpt><trkpt lat="13.905192032396231" lon="120.89415086524122"><ele>16.75</ele><time>2026-04-04T03:04:39Z</time></trkpt><trkpt lat="13.905102696819295" lon="120.89426475044837"><ele>16.5</ele><time>2026-04-04T03:04:40Z</time></trkpt><trkpt lat="13.90501901407725" lon="120.89437142943932"><ele>16.25</ele><time>2026-04-04T03:04:41Z</time></trkpt><trkpt lat="13.904940023445404" lon="120.89447212689615"><ele>16.0</ele><time>2026-04-04T03:04:42Z</time></trkpt><trkpt lat="13.904864306556663" lon="120.89456865097776"><ele>16.0</ele><time>2026-04-04T03:04:43Z</time></trkpt><trkpt lat="13.904793412570976" lon="120.89465902682616"><ele>16.0</ele><time>2026-04-04T03:04:44Z</time></trkpt><trkpt lat="13.90472209027677" lon="120.89474994866667"><ele>16.0</ele><time>2026-04-04T03:04:45Z</time></trkpt><trkpt lat="13.904654152927806" lon="120.89483655536883"><ele>16.0</ele><time>2026-04-04T03:04:46Z</time></trkpt><trkpt lat="13.904588788266874" lon="120.89492100342565"><ele>16.0</ele><time>2026-04-04T03:04:47Z</time></trkpt><trkpt lat="13.904518628157987" lon="120.89501039813575"><ele>15.8</ele><time>2026-04-04T03:04:48Z</time></trkpt><trkpt lat="13.904447438600686" lon="120.89510030261994"><ele>15.600000000000001</ele><time>2026-04-04T03:04:49Z</time></trkpt><trkpt lat="13.904374461356301" lon="120.89519397674353"><ele>15.4</ele><time>2026-04-04T03:04:50Z</time></trkpt><trkpt lat="13.904314331649273" lon="120.89527045834699"><ele>15.2</ele><time>2026-04-04T03:04:51Z</time></trkpt><trkpt lat="13.904268058946391" lon="120.89532931461102"><ele>15.0</ele><time>2026-04-04T03:04:52Z</time></trkpt><trkpt lat="13.904224407181491" lon="120.89538436869299"><ele>14.0</ele><time>2026-04-04T03:04:53Z</time></trkpt><trkpt lat="13.904172797342667" lon="120.89544944703717"><ele>13.0</ele><time>2026-04-04T03:04:54Z</time></trkpt><trkpt lat="13.904113988040798" lon="120.89552360369284"><ele>12.0</ele><time>2026-04-04T03:04:55Z</time></trkpt><trkpt lat="13.904046215027122" lon="120.89560906329689"><ele>11.0</ele><time>2026-04-04T03:04:56Z</time></trkpt><trkpt lat="13.903976184325998" lon="120.89569736979045"><ele>10.0</ele><time>2026-04-04T03:04:57Z</time></trkpt><trkpt lat="13.903902298499851" lon="120.89579053745192"><ele>10.0</ele><time>2026-04-04T03:04:58Z</time></trkpt><trkpt lat="13.90382805872992" lon="120.89588415144519"><ele>10.0</ele><time>2026-04-04T03:04:59Z</time></trkpt><trkpt lat="13.903755080460233" lon="120.89597617471155"><ele>10.0</ele><time>2026-04-04T03:05:00Z</time></trkpt><trkpt lat="13.903680047988018" lon="120.896070788262"><ele>10.0</ele><time>2026-04-04T03:05:01Z</time></trkpt><trkpt lat="13.903613389072763" lon="120.89615484303476"><ele>10.6</ele><time>2026-04-04T03:05:02Z</time></trkpt><trkpt lat="13.903544951857217" lon="120.89624114018712"><ele>11.2</ele><time>2026-04-04T03:05:03Z</time></trkpt><trkpt lat="13.90348767134314" lon="120.89631336888726"><ele>11.8</ele><time>2026-04-04T03:05:04Z</time></trkpt><trkpt lat="13.903421237316369" lon="120.89638794806524"><ele>12.4</ele><time>2026-04-04T03:05:05Z</time></trkpt><trkpt lat="13.903353519972807" lon="120.89647109476489"><ele>13.0</ele><time>2026-04-04T03:05:06Z</time></trkpt><trkpt lat="13.903287777231558" lon="120.89655383398463"><ele>13.0</ele><time>2026-04-04T03:05:07Z</time></trkpt><trkpt lat="13.903225142473321" lon="120.8966328314966"><ele>13.0</ele><time>2026-04-04T03:05:08Z</time></trkpt><trkpt lat="13.903164094096862" lon="120.89671015230833"><ele>13.0</ele><time>2026-04-04T03:05:09Z</time></trkpt><trkpt lat="13.903104923404651" lon="120.8967850949596"><ele>13.0</ele><time>2026-04-04T03:05:10Z</time></trkpt><trkpt lat="13.903042054588619" lon="120.89686472144476"><ele>13.0</ele><time>2026-04-04T03:05:11Z</time></trkpt><trkpt lat="13.902982773670256" lon="120.89693980368831"><ele>13.499999999999998</ele><time>2026-04-04T03:05:12Z</time></trkpt><trkpt lat="13.902928173180642" lon="120.89700895794888"><ele>14.0</ele><time>2026-04-04T03:05:13Z</time></trkpt><trkpt lat="13.902872152918448" lon="120.89707991040035"><ele>14.5</ele><time>2026-04-04T03:05:14Z</time></trkpt><trkpt lat="13.90282902623123" lon="120.89713453248075"><ele>15.0</ele><time>2026-04-04T03:05:15Z</time></trkpt><trkpt lat="13.9027862233142" lon="120.89718874453636"><ele>15.499999999999998</ele><time>2026-04-04T03:05:16Z</time></trkpt><trkpt lat="13.902715300906687" lon="120.89727857129583"><ele>16.0</ele><time>2026-04-04T03:05:18Z</time></trkpt><trkpt lat="13.902646191742603" lon="120.89736610150987"><ele>15.999999999999998</ele><time>2026-04-04T03:05:20Z</time></trkpt><trkpt lat="13.902596101727445" lon="120.89742954302062"><ele>16.0</ele><time>2026-04-04T03:05:22Z</time></trkpt><trkpt lat="13.902549373168485" lon="120.89748872706922"><ele>16.0</ele><time>2026-04-04T03:05:25Z</time></trkpt><trkpt lat="13.902500732729951" lon="120.89755033262158"><ele>16.0</ele><time>2026-04-04T03:05:29Z</time></trkpt><trkpt lat="13.902459895042654" lon="120.89760205558792"><ele>15.999999999999998</ele><time>2026-04-04T03:05:33Z</time></trkpt><trkpt lat="13.90240582399124" lon="120.8976705392706"><ele>16.0</ele><time>2026-04-04T03:05:40Z</time></trkpt><trkpt lat="13.902358312824925" lon="120.89773071453541"><ele>15.4</ele><time>2026-04-04T03:05:42Z</time></trkpt><trkpt lat="13.90229025078057" lon="120.89781664335185"><ele>14.8</ele><time>2026-04-04T03:05:44Z</time></trkpt><trkpt lat="13.902248463016587" lon="120.89786929689593"><ele>14.200000000000001</ele><time>2026-04-04T03:05:45Z</time></trkpt><trkpt lat="13.90218217594736" lon="120.89795327235073"><ele>13.600000000000001</ele><time>2026-04-04T03:05:47Z</time></trkpt><trkpt lat="13.902126790986117" lon="120.8980227667971"><ele>13.0</ele><time>2026-04-04T03:05:53Z</time></trkpt><trkpt lat="13.9020517840439" lon="120.89811691296752"><ele>13.0</ele><time>2026-04-04T03:05:55Z</time></trkpt><trkpt lat="13.901996131138906" lon="120.89818689824865"><ele>13.0</ele><time>2026-04-04T03:05:56Z</time></trkpt><trkpt lat="13.901930150718844" lon="120.89826987069519"><ele>13.0</ele><time>2026-04-04T03:05:57Z</time></trkpt><trkpt lat="13.901858163756716" lon="120.89836039658249"><ele>13.0</ele><time>2026-04-04T03:05:58Z</time></trkpt><trkpt lat="13.90178266702237" lon="120.89845682917249"><ele>13.0</ele><time>2026-04-04T03:05:59Z</time></trkpt><trkpt lat="13.901702333388549" lon="120.8985594628606"><ele>13.0</ele><time>2026-04-04T03:06:00Z</time></trkpt><trkpt lat="13.90161593120395" lon="120.89866984967868"><ele>13.0</ele><time>2026-04-04T03:06:01Z</time></trkpt><trkpt lat="13.901524102392258" lon="120.89878716951509"><ele>13.0</ele><time>2026-04-04T03:06:02Z</time></trkpt><trkpt lat="13.901428694751347" lon="120.89891004045064"><ele>13.0</ele><time>2026-04-04T03:06:03Z</time></trkpt><trkpt lat="13.9013288266411" lon="120.89903863236334"><ele>13.0</ele><time>2026-04-04T03:06:04Z</time></trkpt><trkpt lat="13.901233923964957" lon="120.89915979305383"><ele>13.0</ele><time>2026-04-04T03:06:05Z</time></trkpt><trkpt lat="13.901144669578947" lon="120.89927218812204"><ele>13.0</ele><time>2026-04-04T03:06:06Z</time></trkpt><trkpt lat="13.901060483501682" lon="120.89937815947802"><ele>13.0</ele><time>2026-04-04T03:06:07Z</time></trkpt><trkpt lat="13.900977403202363" lon="120.89948273888132"><ele>12.75</ele><time>2026-04-04T03:06:08Z</time></trkpt><trkpt lat="13.90089570387541" lon="120.8995855799328"><ele>12.5</ele><time>2026-04-04T03:06:09Z</time></trkpt><trkpt lat="13.900821784400986" lon="120.89967862797181"><ele>12.25</ele><time>2026-04-04T03:06:10Z</time></trkpt><trkpt lat="13.900754393840442" lon="120.89976345749913"><ele>12.0</ele><time>2026-04-04T03:06:11Z</time></trkpt><trkpt lat="13.900691658547563" lon="120.8998424271601"><ele>12.0</ele><time>2026-04-04T03:06:12Z</time></trkpt><trkpt lat="13.900640431664012" lon="120.89990691028841"><ele>12.0</ele><time>2026-04-04T03:06:13Z</time></trkpt><trkpt lat="13.900580852727174" lon="120.89998190679903"><ele>12.0</ele><time>2026-04-04T03:06:15Z</time></trkpt><trkpt lat="13.900525277450473" lon="120.90005186354612"><ele>12.0</ele><time>2026-04-04T03:06:18Z</time></trkpt><trkpt lat="13.900485379839848" lon="120.90010208615749"><ele>12.0</ele><time>2026-04-04T03:06:19Z</time></trkpt><trkpt lat="13.900434756060811" lon="120.90016376442699"><ele>12.0</ele><time>2026-04-04T03:06:20Z</time></trkpt><trkpt lat="13.900386678610088" lon="120.90022527830791"><ele>12.2</ele><time>2026-04-04T03:06:21Z</time></trkpt><trkpt lat="13.900328639299492" lon="120.90029889693542"><ele>12.399999999999999</ele><time>2026-04-04T03:06:22Z</time></trkpt><trkpt lat="13.900266739019566" lon="120.90037714360146"><ele>12.600000000000001</ele><time>2026-04-04T03:06:23Z</time></trkpt><trkpt lat="13.900206826951084" lon="120.9004528769835"><ele>12.8</ele><time>2026-04-04T03:06:24Z</time></trkpt><trkpt lat="13.900145918888088" lon="120.90052986939693"><ele>13.0</ele><time>2026-04-04T03:06:25Z</time></trkpt><trkpt lat="13.900085693693779" lon="120.90060599861353"><ele>12.4</ele><time>2026-04-04T03:06:26Z</time></trkpt><trkpt lat="13.900024616266503" lon="120.90068304520427"><ele>11.8</ele><time>2026-04-04T03:06:27Z</time></trkpt><trkpt lat="13.899960828150393" lon="120.90076313870637"><ele>11.2</ele><time>2026-04-04T03:06:28Z</time></trkpt><trkpt lat="13.899893143598858" lon="120.90084846010373"><ele>10.6</ele><time>2026-04-04T03:06:29Z</time></trkpt><trkpt lat="13.89982452066314" lon="120.90093515250612"><ele>10.0</ele><time>2026-04-04T03:06:30Z</time></trkpt><trkpt lat="13.899750942151673" lon="120.90102810535917"><ele>9.75</ele><time>2026-04-04T03:06:31Z</time></trkpt><trkpt lat="13.899674463868209" lon="120.90112472154941"><ele>9.5</ele><time>2026-04-04T03:06:32.001Z</time></trkpt><trkpt lat="13.899593475298094" lon="120.90122703564705"><ele>9.25</ele><time>2026-04-04T03:06:33.001Z</time></trkpt><trkpt lat="13.899512303075543" lon="120.9013295817461"><ele>9.0</ele><time>2026-04-04T03:06:34.001Z</time></trkpt><trkpt lat="13.899430119504286" lon="120.90143340551153"><ele>9.0</ele><time>2026-04-04T03:06:35.001Z</time></trkpt><trkpt lat="13.899345164937003" lon="120.90153987906463"><ele>9.0</ele><time>2026-04-04T03:06:36.001Z</time></trkpt><trkpt lat="13.899261427971634" lon="120.90164440368396"><ele>9.0</ele><time>2026-04-04T03:06:37.001Z</time></trkpt><trkpt lat="13.89917592607138" lon="120.90175113138534"><ele>9.0</ele><time>2026-04-04T03:06:38.001Z</time></trkpt><trkpt lat="13.899089562208575" lon="120.90185893501408"><ele>9.0</ele><time>2026-04-04T03:06:39.001Z</time></trkpt><trkpt lat="13.899004955720644" lon="120.90196454500638"><ele>9.0</ele><time>2026-04-04T03:06:40.001Z</time></trkpt><trkpt lat="13.898926946702165" lon="120.90206207539013"><ele>9.0</ele><time>2026-04-04T03:06:41.001Z</time></trkpt><trkpt lat="13.898855191799248" lon="120.90215201504081"><ele>9.0</ele><time>2026-04-04T03:06:42.001Z</time></trkpt><trkpt lat="13.898783836175122" lon="120.90224053887174"><ele>9.0</ele><time>2026-04-04T03:06:43.001Z</time></trkpt><trkpt lat="13.898712686761742" lon="120.90233095343869"><ele>9.0</ele><time>2026-04-04T03:06:44.001Z</time></trkpt><trkpt lat="13.898648242730864" lon="120.90241274619608"><ele>9.0</ele><time>2026-04-04T03:06:45.001Z</time></trkpt><trkpt lat="13.898584502579832" lon="120.9024935597094"><ele>9.0</ele><time>2026-04-04T03:06:46.001Z</time></trkpt><trkpt lat="13.898534805873775" lon="120.90255654015019"><ele>9.0</ele><time>2026-04-04T03:06:47.001Z</time></trkpt><trkpt lat="13.898493090891826" lon="120.9026094054174"><ele>8.8</ele><time>2026-04-04T03:06:48.001Z</time></trkpt><trkpt lat="13.898465276276333" lon="120.90267095049012"><ele>8.600000000000001</ele><time>2026-04-04T03:06:49.001Z</time></trkpt><trkpt lat="13.898379409955753" lon="120.90275347287485"><ele>8.4</ele><time>2026-04-04T03:06:51.001Z</time></trkpt><trkpt lat="13.89830546348253" lon="120.90284718498494"><ele>8.200000000000001</ele><time>2026-04-04T03:06:53.001Z</time></trkpt><trkpt lat="13.898229118692564" lon="120.90294380714275"><ele>8.0</ele><time>2026-04-04T03:06:55Z</time></trkpt><trkpt lat="13.898175963000313" lon="120.90301107605113"><ele>7.999999999999999</ele><time>2026-04-04T03:06:57Z</time></trkpt><trkpt lat="13.898135565569264" lon="120.903062199291"><ele>8.0</ele><time>2026-04-04T03:06:59Z</time></trkpt><trkpt lat="13.898071426243598" lon="120.90314336805446"><ele>8.0</ele><time>2026-04-04T03:07:01Z</time></trkpt><trkpt lat="13.898031155132545" lon="120.90319433144694"><ele>8.0</ele><time>2026-04-04T03:07:02Z</time></trkpt><trkpt lat="13.897984298886882" lon="120.90325362836109"><ele>7.999999999999999</ele><time>2026-04-04T03:07:03Z</time></trkpt><trkpt lat="13.897933961855491" lon="120.90331733022045"><ele>8.0</ele><time>2026-04-04T03:07:04Z</time></trkpt><trkpt lat="13.897882496723636" lon="120.90338245971907"><ele>8.333333333333332</ele><time>2026-04-04T03:07:05Z</time></trkpt><trkpt lat="13.897833454846657" lon="120.90344452257467"><ele>8.666666666666666</ele><time>2026-04-04T03:07:06Z</time></trkpt><trkpt lat="13.89779177001799" lon="120.90349727502549"><ele>9.0</ele><time>2026-04-04T03:07:07Z</time></trkpt><trkpt lat="13.897735269222979" lon="120.90356877718732"><ele>9.333333333333334</ele><time>2026-04-04T03:07:09Z</time></trkpt><trkpt lat="13.897690171815611" lon="120.90362584827017"><ele>9.666666666666668</ele><time>2026-04-04T03:07:11Z</time></trkpt><trkpt lat="13.897644293167115" lon="120.90368390797428"><ele>10.0</ele><time>2026-04-04T03:07:13Z</time></trkpt><trkpt lat="13.897578532280049" lon="120.90376521883844"><ele>10.0</ele><time>2026-04-04T03:07:15Z</time></trkpt><trkpt lat="13.89750687530039" lon="120.90385830549091"><ele>10.0</ele><time>2026-04-04T03:07:17Z</time></trkpt><trkpt lat="13.897435107050642" lon="120.90395283554541"><ele>10.0</ele><time>2026-04-04T03:07:19Z</time></trkpt><trkpt lat="13.897395574682227" lon="120.9040049058833"><ele>10.0</ele><time>2026-04-04T03:07:20Z</time></trkpt><trkpt lat="13.897329620062603" lon="120.90409177849146"><ele>10.0</ele><time>2026-04-04T03:07:22Z</time></trkpt><trkpt lat="13.897257305140192" lon="120.90418549867545"><ele>9.833333333333334</ele><time>2026-04-04T03:07:24Z</time></trkpt><trkpt lat="13.89718360906151" lon="120.90427993127985"><ele>9.666666666666668</ele><time>2026-04-04T03:07:26Z</time></trkpt><trkpt lat="13.89714482625811" lon="120.90435602274619"><ele>9.5</ele><time>2026-04-04T03:07:28Z</time></trkpt><trkpt lat="13.897094400435744" lon="120.9044095916299"><ele>9.333333333333334</ele><time>2026-04-04T03:07:30Z</time></trkpt><trkpt lat="13.897032522508457" lon="120.90448104317414"><ele>9.166666666666666</ele><time>2026-04-04T03:07:32Z</time></trkpt><trkpt lat="13.896982731448553" lon="120.90453870510561"><ele>9.0</ele><time>2026-04-04T03:07:34Z</time></trkpt><trkpt lat="13.896925605799023" lon="120.90461282703045"><ele>9.0</ele><time>2026-04-04T03:07:37Z</time></trkpt><trkpt lat="13.896872145267107" lon="120.90468392753593"><ele>9.0</ele><time>2026-04-04T03:07:39Z</time></trkpt><trkpt lat="13.896820140178379" lon="120.90474766528749"><ele>9.0</ele><time>2026-04-04T03:07:41Z</time></trkpt><trkpt lat="13.896772057048507" lon="120.90480957554136"><ele>9.0</ele><time>2026-04-04T03:07:43Z</time></trkpt><trkpt lat="13.89672159894245" lon="120.90486812003653"><ele>9.0</ele><time>2026-04-04T03:07:44Z</time></trkpt><trkpt lat="13.896664296656928" lon="120.90495389145671"><ele>9.0</ele><time>2026-04-04T03:07:45Z</time></trkpt><trkpt lat="13.896597379799324" lon="120.90504224189932"><ele>9.166666666666666</ele><time>2026-04-04T03:07:46Z</time></trkpt><trkpt lat="13.896531338410078" lon="120.9051268799842"><ele>9.333333333333334</ele><time>2026-04-04T03:07:47Z</time></trkpt><trkpt lat="13.896477285195719" lon="120.90518863311932"><ele>9.5</ele><time>2026-04-04T03:07:48Z</time></trkpt><trkpt lat="13.896429707858768" lon="120.90525787155377"><ele>9.666666666666668</ele><time>2026-04-04T03:07:49Z</time></trkpt><trkpt lat="13.896379981126445" lon="120.90532412897309"><ele>9.833333333333334</ele><time>2026-04-04T03:07:50Z</time></trkpt><trkpt lat="13.896324313745145" lon="120.90539374124064"><ele>10.0</ele><time>2026-04-04T03:07:51Z</time></trkpt><trkpt lat="13.896268162934392" lon="120.9054689876933"><ele>10.0</ele><time>2026-04-04T03:07:52Z</time></trkpt><trkpt lat="13.896214860337622" lon="120.90554731242267"><ele>10.0</ele><time>2026-04-04T03:07:53Z</time></trkpt><trkpt lat="13.896159368523906" lon="120.90563763119056"><ele>10.0</ele><time>2026-04-04T03:07:54Z</time></trkpt><trkpt lat="13.896093144428814" lon="120.90571085987148"><ele>10.0</ele><time>2026-04-04T03:07:55Z</time></trkpt><trkpt lat="13.896047454740213" lon="120.9057630289733"><ele>10.0</ele><time>2026-04-04T03:07:56Z</time></trkpt><trkpt lat="13.895979416005199" lon="120.90581677832809"><ele>10.0</ele><time>2026-04-04T03:07:57Z</time></trkpt><trkpt lat="13.895953442266414" lon="120.90596636528794"><ele>9.666666666666668</ele><time>2026-04-04T03:07:59Z</time></trkpt><trkpt lat="13.896059661576919" lon="120.90602628211283"><ele>9.333333333333334</ele><time>2026-04-04T03:08:00Z</time></trkpt><trkpt lat="13.896055937891514" lon="120.90609500034151"><ele>9.0</ele><time>2026-04-04T03:08:01Z</time></trkpt><trkpt lat="13.896053059318858" lon="120.90616214311859"><ele>8.666666666666666</ele><time>2026-04-04T03:08:02Z</time></trkpt><trkpt lat="13.896057479751118" lon="120.90622973507963"><ele>8.333333333333332</ele><time>2026-04-04T03:08:03Z</time></trkpt><trkpt lat="13.896061582384752" lon="120.90630031858576"><ele>8.0</ele><time>2026-04-04T03:08:04Z</time></trkpt><trkpt lat="13.896066805007468" lon="120.90639032127397"><ele>8.0</ele><time>2026-04-04T03:08:05Z</time></trkpt><trkpt lat="13.896070203711302" lon="120.9064877046148"><ele>8.0</ele><time>2026-04-04T03:08:06Z</time></trkpt><trkpt lat="13.89607133999296" lon="120.90658795830223"><ele>8.0</ele><time>2026-04-04T03:08:07Z</time></trkpt><trkpt lat="13.896072353905371" lon="120.90670128714059"><ele>8.0</ele><time>2026-04-04T03:08:08Z</time></trkpt><trkpt lat="13.896081159712246" lon="120.90681549914794"><ele>8.0</ele><time>2026-04-04T03:08:09Z</time></trkpt><trkpt lat="13.896089121132952" lon="120.90693268472647"><ele>7.75</ele><time>2026-04-04T03:08:10Z</time></trkpt><trkpt lat="13.89609421125593" lon="120.90705740583415"><ele>7.5</ele><time>2026-04-04T03:08:11Z</time></trkpt><trkpt lat="13.896102847489384" lon="120.90718129007395"><ele>7.25</ele><time>2026-04-04T03:08:12Z</time></trkpt><trkpt lat="13.896115975443015" lon="120.90731106698955"><ele>7.0</ele><time>2026-04-04T03:08:13Z</time></trkpt><trkpt lat="13.896122878384881" lon="120.90743912701276"><ele>7.0</ele><time>2026-04-04T03:08:14Z</time></trkpt><trkpt lat="13.896132119201287" lon="120.90756552588536"><ele>7.0</ele><time>2026-04-04T03:08:15.001Z</time></trkpt><trkpt lat="13.896140439184768" lon="120.90768867711436"><ele>7.0</ele><time>2026-04-04T03:08:16.001Z</time></trkpt><trkpt lat="13.896157980294971" lon="120.90781208847083"><ele>7.0</ele><time>2026-04-04T03:08:17.001Z</time></trkpt><trkpt lat="13.89616697980565" lon="120.90793739702569"><ele>7.199999999999999</ele><time>2026-04-04T03:08:18.001Z</time></trkpt><trkpt lat="13.896172096729112" lon="120.9080498380193"><ele>7.3999999999999995</ele><time>2026-04-04T03:08:19.001Z</time></trkpt><trkpt lat="13.896180235455304" lon="120.90816641880197"><ele>7.6000000000000005</ele><time>2026-04-04T03:08:20.001Z</time></trkpt><trkpt lat="13.896185543967237" lon="120.90827426365843"><ele>7.800000000000001</ele><time>2026-04-04T03:08:21.001Z</time></trkpt><trkpt lat="13.896191674299661" lon="120.90838350741404"><ele>8.0</ele><time>2026-04-04T03:08:22.001Z</time></trkpt><trkpt lat="13.896201055755993" lon="120.90849829996458"><ele>8.0</ele><time>2026-04-04T03:08:23.001Z</time></trkpt><trkpt lat="13.896215730910516" lon="120.90863159734582"><ele>8.0</ele><time>2026-04-04T03:08:24.001Z</time></trkpt><trkpt lat="13.89622435002871" lon="120.9087732677409"><ele>8.0</ele><time>2026-04-04T03:08:25.001Z</time></trkpt><trkpt lat="13.896227015996178" lon="120.90891048436245"><ele>8.0</ele><time>2026-04-04T03:08:26.001Z</time></trkpt><trkpt lat="13.896234391478144" lon="120.90903432129328"><ele>8.0</ele><time>2026-04-04T03:08:27.001Z</time></trkpt><trkpt lat="13.896243057801279" lon="120.90914363898234"><ele>8.0</ele><time>2026-04-04T03:08:28.001Z</time></trkpt><trkpt lat="13.896249748560626" lon="120.90925721902943"><ele>8.0</ele><time>2026-04-04T03:08:29.001Z</time></trkpt><trkpt lat="13.896256215732418" lon="120.90936808797157"><ele>8.0</ele><time>2026-04-04T03:08:30.001Z</time></trkpt><trkpt lat="13.896263070897945" lon="120.90948277399511"><ele>8.0</ele><time>2026-04-04T03:08:31.001Z</time></trkpt><trkpt lat="13.896270311678276" lon="120.9095990922961"><ele>8.0</ele><time>2026-04-04T03:08:32.001Z</time></trkpt><trkpt lat="13.89627895867322" lon="120.90971912180537"><ele>8.0</ele><time>2026-04-04T03:08:33.001Z</time></trkpt><trkpt lat="13.896285220211508" lon="120.90983033313692"><ele>8.0</ele><time>2026-04-04T03:08:34.001Z</time></trkpt><trkpt lat="13.896295817393202" lon="120.90994512811235"><ele>8.0</ele><time>2026-04-04T03:08:35.001Z</time></trkpt><trkpt lat="13.896304910271315" lon="120.91006468640043"><ele>7.75</ele><time>2026-04-04T03:08:36.001Z</time></trkpt><trkpt lat="13.896313945835598" lon="120.9101815215734"><ele>7.5</ele><time>2026-04-04T03:08:37.001Z</time></trkpt><trkpt lat="13.89632530885816" lon="120.91030290234927"><ele>7.25</ele><time>2026-04-04T03:08:38.001Z</time></trkpt><trkpt lat="13.896345801082155" lon="120.91042599413787"><ele>7.0</ele><time>2026-04-04T03:08:39.001Z</time></trkpt><trkpt lat="13.896358978100773" lon="120.91054550759932"><ele>7.0</ele><time>2026-04-04T03:08:40.001Z</time></trkpt><trkpt lat="13.89636688950957" lon="120.91066005633732"><ele>6.999999999999999</ele><time>2026-04-04T03:08:41.001Z</time></trkpt><trkpt lat="13.896377276420681" lon="120.9107711928407"><ele>6.999999999999999</ele><time>2026-04-04T03:08:42.001Z</time></trkpt><trkpt lat="13.896388530691652" lon="120.91087797405036"><ele>7.0</ele><time>2026-04-04T03:08:43.001Z</time></trkpt><trkpt lat="13.896400313841728" lon="120.910986914754"><ele>7.0</ele><time>2026-04-04T03:08:44.001Z</time></trkpt><trkpt lat="13.89641060160642" lon="120.91109873920193"><ele>6.75</ele><time>2026-04-04T03:08:45.001Z</time></trkpt><trkpt lat="13.896423587377658" lon="120.91121313613847"><ele>6.5</ele><time>2026-04-04T03:08:46.001Z</time></trkpt><trkpt lat="13.89644858508268" lon="120.91133802283004"><ele>6.25</ele><time>2026-04-04T03:08:47.001Z</time></trkpt><trkpt lat="13.896458728124742" lon="120.91147894462696"><ele>6.0</ele><time>2026-04-04T03:08:48.001Z</time></trkpt><trkpt lat="13.896475870471617" lon="120.91162235553378"><ele>6.25</ele><time>2026-04-04T03:08:49.001Z</time></trkpt><trkpt lat="13.896502528340921" lon="120.91177275775152"><ele>6.5</ele><time>2026-04-04T03:08:50.001Z</time></trkpt><trkpt lat="13.896513613364643" lon="120.91192425469694"><ele>6.75</ele><time>2026-04-04T03:08:51.001Z</time></trkpt><trkpt lat="13.896527337325628" lon="120.91207070323807"><ele>7.0</ele><time>2026-04-04T03:08:52.001Z</time></trkpt><trkpt lat="13.896542211877826" lon="120.91221467840428"><ele>7.0</ele><time>2026-04-04T03:08:53.001Z</time></trkpt><trkpt lat="13.896556956339243" lon="120.91235592823782"><ele>7.0</ele><time>2026-04-04T03:08:54.001Z</time></trkpt><trkpt lat="13.896571426982916" lon="120.91249619184443"><ele>7.0</ele><time>2026-04-04T03:08:55.001Z</time></trkpt><trkpt lat="13.8965789224126" lon="120.91263353254575"><ele>7.0</ele><time>2026-04-04T03:08:56.001Z</time></trkpt><trkpt lat="13.896585145040826" lon="120.91277492275337"><ele>7.0</ele><time>2026-04-04T03:08:57.001Z</time></trkpt><trkpt lat="13.896597970841505" lon="120.9129052812867"><ele>7.0</ele><time>2026-04-04T03:08:58.001Z</time></trkpt><trkpt lat="13.89661954884247" lon="120.91304886515113"><ele>7.0</ele><time>2026-04-04T03:08:59.001Z</time></trkpt><trkpt lat="13.896641680367162" lon="120.91318400315537"><ele>7.0</ele><time>2026-04-04T03:09:00.001Z</time></trkpt><trkpt lat="13.896657643701925" lon="120.91331832446467"><ele>8.0</ele><time>2026-04-04T03:09:01Z</time></trkpt><trkpt lat="13.896674707058775" lon="120.91345718686078"><ele>9.0</ele><time>2026-04-04T03:09:02Z</time></trkpt><trkpt lat="13.896689120865489" lon="120.91359865491003"><ele>10.0</ele><time>2026-04-04T03:09:03Z</time></trkpt><trkpt lat="13.896704609309074" lon="120.91373794768657"><ele>11.0</ele><time>2026-04-04T03:09:04Z</time></trkpt><trkpt lat="13.896722877059588" lon="120.91388002621274"><ele>11.0</ele><time>2026-04-04T03:09:05Z</time></trkpt><trkpt lat="13.896735269523779" lon="120.91401812872824"><ele>11.0</ele><time>2026-04-04T03:09:06Z</time></trkpt><trkpt lat="13.896750914356762" lon="120.91415747005803"><ele>11.0</ele><time>2026-04-04T03:09:07Z</time></trkpt><trkpt lat="13.89676628216088" lon="120.91429547233652"><ele>11.0</ele><time>2026-04-04T03:09:08Z</time></trkpt><trkpt lat="13.896778282250096" lon="120.91443205531151"><ele>12.25</ele><time>2026-04-04T03:09:09Z</time></trkpt><trkpt lat="13.896793765282853" lon="120.91456398860821"><ele>13.5</ele><time>2026-04-04T03:09:10Z</time></trkpt><trkpt lat="13.896808151271305" lon="120.9146927185073"><ele>14.75</ele><time>2026-04-04T03:09:11Z</time></trkpt><trkpt lat="13.896819456036228" lon="120.91481152097374"><ele>16.0</ele><time>2026-04-04T03:09:12Z</time></trkpt><trkpt lat="13.896828546258066" lon="120.91491580601813"><ele>15.999999999999998</ele><time>2026-04-04T03:09:13Z</time></trkpt><trkpt lat="13.896836750656776" lon="120.91501637816772"><ele>16.0</ele><time>2026-04-04T03:09:14Z</time></trkpt><trkpt lat="13.896843815072662" lon="120.91510141487237"><ele>16.0</ele><time>2026-04-04T03:09:15Z</time></trkpt><trkpt lat="13.896847371517712" lon="120.91516775793757"><ele>16.0</ele><time>2026-04-04T03:09:16Z</time></trkpt><trkpt lat="13.89685375625885" lon="120.91526997652616"><ele>15.999999999999998</ele><time>2026-04-04T03:09:18Z</time></trkpt><trkpt lat="13.896815421744467" lon="120.91532581121581"><ele>16.0</ele><time>2026-04-04T03:09:21Z</time></trkpt><trkpt lat="13.89674629826608" lon="120.91533968691066"><ele>16.5</ele><time>2026-04-04T03:09:23Z</time></trkpt><trkpt lat="13.896682964069436" lon="120.91535347338265"><ele>17.0</ele><time>2026-04-04T03:09:24Z</time></trkpt><trkpt lat="13.89662161414322" lon="120.91536972928205"><ele>17.5</ele><time>2026-04-04T03:09:25Z</time></trkpt><trkpt lat="13.896548246777956" lon="120.9153908219293"><ele>18.0</ele><time>2026-04-04T03:09:26Z</time></trkpt><trkpt lat="13.896470031715223" lon="120.91541189823091"><ele>18.5</ele><time>2026-04-04T03:09:27Z</time></trkpt><trkpt lat="13.89638946036443" lon="120.91543119048221"><ele>19.0</ele><time>2026-04-04T03:09:28Z</time></trkpt><trkpt lat="13.89629999298354" lon="120.91543373754887"><ele>19.0</ele><time>2026-04-04T03:09:29Z</time></trkpt><trkpt lat="13.896208592268685" lon="120.91546952307803"><ele>19.0</ele><time>2026-04-04T03:09:30Z</time></trkpt><trkpt lat="13.89610950438954" lon="120.91548185300243"><ele>19.0</ele><time>2026-04-04T03:09:31Z</time></trkpt><trkpt lat="13.896005989146213" lon="120.91549425971962"><ele>19.0</ele><time>2026-04-04T03:09:32Z</time></trkpt><trkpt lat="13.895906088248084" lon="120.91550635795092"><ele>19.0</ele><time>2026-04-04T03:09:33Z</time></trkpt><trkpt lat="13.8958021752581" lon="120.91551209656882"><ele>18.8</ele><time>2026-04-04T03:09:34Z</time></trkpt><trkpt lat="13.895698247369072" lon="120.91551874855392"><ele>18.599999999999998</ele><time>2026-04-04T03:09:35Z</time></trkpt><trkpt lat="13.89559011066673" lon="120.91552942793143"><ele>18.4</ele><time>2026-04-04T03:09:36Z</time></trkpt><trkpt lat="13.895487034035542" lon="120.91554245149558"><ele>18.2</ele><time>2026-04-04T03:09:37Z</time></trkpt><trkpt lat="13.895381031921797" lon="120.91555944773317"><ele>18.0</ele><time>2026-04-04T03:09:38Z</time></trkpt><trkpt lat="13.895276650876367" lon="120.91556747388363"><ele>18.0</ele><time>2026-04-04T03:09:39Z</time></trkpt><trkpt lat="13.895170703310026" lon="120.91556352013879"><ele>18.0</ele><time>2026-04-04T03:09:40Z</time></trkpt><trkpt lat="13.895078694169644" lon="120.91556882079615"><ele>18.0</ele><time>2026-04-04T03:09:41Z</time></trkpt><trkpt lat="13.894988635498239" lon="120.91559846488744"><ele>18.0</ele><time>2026-04-04T03:09:42Z</time></trkpt><trkpt lat="13.894902378145657" lon="120.91564404390667"><ele>18.0</ele><time>2026-04-04T03:09:43Z</time></trkpt><trkpt lat="13.894814405732934" lon="120.91570341721776"><ele>18.4</ele><time>2026-04-04T03:09:44Z</time></trkpt><trkpt lat="13.89473168445446" lon="120.91576592420819"><ele>18.8</ele><time>2026-04-04T03:09:45Z</time></trkpt><trkpt lat="13.894654274320748" lon="120.91582441781668"><ele>19.2</ele><time>2026-04-04T03:09:46Z</time></trkpt><trkpt lat="13.894571428424316" lon="120.9159141544982"><ele>19.6</ele><time>2026-04-04T03:09:47Z</time></trkpt><trkpt lat="13.894490014767088" lon="120.91599272856818"><ele>20.0</ele><time>2026-04-04T03:09:48Z</time></trkpt><trkpt lat="13.894409846299553" lon="120.91607117085152"><ele>21.2</ele><time>2026-04-04T03:09:49Z</time></trkpt><trkpt lat="13.894335483359432" lon="120.91614418663482"><ele>22.4</ele><time>2026-04-04T03:09:50Z</time></trkpt><trkpt lat="13.894257182822878" lon="120.91622106868972"><ele>23.6</ele><time>2026-04-04T03:09:51Z</time></trkpt><trkpt lat="13.894186899483785" lon="120.9162900436983"><ele>24.8</ele><time>2026-04-04T03:09:52Z</time></trkpt><trkpt lat="13.894132444070076" lon="120.91634333466735"><ele>26.0</ele><time>2026-04-04T03:09:53Z</time></trkpt><trkpt lat="13.89406968047841" lon="120.91640598171928"><ele>26.4</ele><time>2026-04-04T03:09:54Z</time></trkpt><trkpt lat="13.893999538427352" lon="120.91644367567444"><ele>26.8</ele><time>2026-04-04T03:09:55Z</time></trkpt><trkpt lat="13.893915164892247" lon="120.91648940484244"><ele>27.199999999999996</ele><time>2026-04-04T03:09:56Z</time></trkpt><trkpt lat="13.893831801492476" lon="120.9165345865282"><ele>27.599999999999998</ele><time>2026-04-04T03:09:57Z</time></trkpt><trkpt lat="13.893732322547475" lon="120.91657877834344"><ele>28.0</ele><time>2026-04-04T03:09:58Z</time></trkpt><trkpt lat="13.893642998036858" lon="120.91661456485984"><ele>28.000000000000004</ele><time>2026-04-04T03:09:59Z</time></trkpt><trkpt lat="13.893558826953775" lon="120.916647720172"><ele>28.0</ele><time>2026-04-04T03:10:00Z</time></trkpt><trkpt lat="13.893474939932183" lon="120.91668077380363"><ele>28.0</ele><time>2026-04-04T03:10:01Z</time></trkpt><trkpt lat="13.893405889793504" lon="120.91670798129037"><ele>28.0</ele><time>2026-04-04T03:10:02Z</time></trkpt><trkpt lat="13.893335976525808" lon="120.91670138881028"><ele>28.000000000000004</ele><time>2026-04-04T03:10:03Z</time></trkpt><trkpt lat="13.893258415179933" lon="120.91670605285188"><ele>28.0</ele><time>2026-04-04T03:10:04Z</time></trkpt><trkpt lat="13.893187916625568" lon="120.91667895424705"><ele>27.799999999999997</ele><time>2026-04-04T03:10:05Z</time></trkpt><trkpt lat="13.893103016161579" lon="120.91665302920975"><ele>27.599999999999998</ele><time>2026-04-04T03:10:06Z</time></trkpt><trkpt lat="13.893014887967437" lon="120.91662611860723"><ele>27.400000000000002</ele><time>2026-04-04T03:10:07Z</time></trkpt><trkpt lat="13.89290271785834" lon="120.91665962223594"><ele>27.200000000000003</ele><time>2026-04-04T03:10:08.001Z</time></trkpt><trkpt lat="13.892794836848907" lon="120.91667248925467"><ele>27.0</ele><time>2026-04-04T03:10:09.001Z</time></trkpt><trkpt lat="13.892688913325758" lon="120.91668512280192"><ele>27.0</ele><time>2026-04-04T03:10:10.001Z</time></trkpt><trkpt lat="13.892589962198757" lon="120.91669653529407"><ele>27.000000000000004</ele><time>2026-04-04T03:10:11.001Z</time></trkpt><trkpt lat="13.89250500536822" lon="120.9167060350417"><ele>27.000000000000004</ele><time>2026-04-04T03:10:12.001Z</time></trkpt><trkpt lat="13.892424815302766" lon="120.91671500177753"><ele>27.0</ele><time>2026-04-04T03:10:13.001Z</time></trkpt><trkpt lat="13.892306455646198" lon="120.91674523442049"><ele>27.0</ele><time>2026-04-04T03:10:14.001Z</time></trkpt><trkpt lat="13.892211914409419" lon="120.91677518274057"><ele>27.400000000000002</ele><time>2026-04-04T03:10:15.001Z</time></trkpt><trkpt lat="13.89212129256282" lon="120.91680388950763"><ele>27.800000000000004</ele><time>2026-04-04T03:10:16.001Z</time></trkpt><trkpt lat="13.892030105556168" lon="120.91684816688206"><ele>28.2</ele><time>2026-04-04T03:10:17.001Z</time></trkpt><trkpt lat="13.891941866976904" lon="120.91688211048806"><ele>28.6</ele><time>2026-04-04T03:10:18.001Z</time></trkpt><trkpt lat="13.891858335060393" lon="120.91692383219537"><ele>29.0</ele><time>2026-04-04T03:10:19.001Z</time></trkpt><trkpt lat="13.891774756825521" lon="120.9169760146213"><ele>28.799999999999997</ele><time>2026-04-04T03:10:20.001Z</time></trkpt><trkpt lat="13.8916839280607" lon="120.91702591503388"><ele>28.599999999999998</ele><time>2026-04-04T03:10:21.001Z</time></trkpt><trkpt lat="13.891579278123217" lon="120.91706639581203"><ele>28.4</ele><time>2026-04-04T03:10:22.001Z</time></trkpt><trkpt lat="13.891480239518021" lon="120.9171186050665"><ele>28.2</ele><time>2026-04-04T03:10:23.001Z</time></trkpt><trkpt lat="13.891381074072587" lon="120.91717104354956"><ele>28.0</ele><time>2026-04-04T03:10:24.001Z</time></trkpt><trkpt lat="13.891293293950483" lon="120.91721758472987"><ele>28.000000000000004</ele><time>2026-04-04T03:10:25.001Z</time></trkpt><trkpt lat="13.891216711751701" lon="120.91725818926211"><ele>28.0</ele><time>2026-04-04T03:10:26.001Z</time></trkpt><trkpt lat="13.891152564141311" lon="120.9172922010635"><ele>28.0</ele><time>2026-04-04T03:10:27.001Z</time></trkpt><trkpt lat="13.89111704334213" lon="120.91736611965229"><ele>28.0</ele><time>2026-04-04T03:10:28.001Z</time></trkpt><trkpt lat="13.891081950886255" lon="120.9174218242183"><ele>28.000000000000004</ele><time>2026-04-04T03:10:29.001Z</time></trkpt><trkpt lat="13.891058206157487" lon="120.91756899409779"><ele>28.0</ele><time>2026-04-04T03:10:31.001Z</time></trkpt><trkpt lat="13.891071098699722" lon="120.91766549735847"><ele>28.333333333333336</ele><time>2026-04-04T03:10:32.001Z</time></trkpt><trkpt lat="13.891071364495568" lon="120.91774976440426"><ele>28.666666666666668</ele><time>2026-04-04T03:10:33.001Z</time></trkpt><trkpt lat="13.891065547301457" lon="120.9178305969002"><ele>29.0</ele><time>2026-04-04T03:10:34.001Z</time></trkpt><trkpt lat="13.891059766619698" lon="120.91791211925784"><ele>29.333333333333336</ele><time>2026-04-04T03:10:35.001Z</time></trkpt><trkpt lat="13.891053765771725" lon="120.91799485438801"><ele>29.666666666666668</ele><time>2026-04-04T03:10:36.001Z</time></trkpt><trkpt lat="13.891048142614094" lon="120.91807191926024"><ele>30.0</ele><time>2026-04-04T03:10:37.001Z</time></trkpt><trkpt lat="13.891042804215601" lon="120.91814508157613"><ele>30.0</ele><time>2026-04-04T03:10:38.001Z</time></trkpt><trkpt lat="13.891031639451485" lon="120.91828520816291"><ele>30.0</ele><time>2026-04-04T03:10:40.001Z</time></trkpt><trkpt lat="13.891025833632186" lon="120.91835606882007"><ele>30.0</ele><time>2026-04-04T03:10:41.001Z</time></trkpt><trkpt lat="13.891044157438573" lon="120.91842766360078"><ele>30.0</ele><time>2026-04-04T03:10:42.001Z</time></trkpt><trkpt lat="13.89107398967145" lon="120.91851700448471"><ele>30.0</ele><time>2026-04-04T03:10:43.001Z</time></trkpt><trkpt lat="13.89113222987062" lon="120.91860579606123"><ele>28.8</ele><time>2026-04-04T03:10:44.001Z</time></trkpt><trkpt lat="13.891153098794181" lon="120.91872629048326"><ele>27.6</ele><time>2026-04-04T03:10:45.001Z</time></trkpt><trkpt lat="13.891181503283375" lon="120.91883125531128"><ele>26.4</ele><time>2026-04-04T03:10:47.001Z</time></trkpt><trkpt lat="13.891153201998417" lon="120.91889903773362"><ele>25.2</ele><time>2026-04-04T03:10:48.001Z</time></trkpt><trkpt lat="13.89109655495927" lon="120.91895231899422"><ele>24.0</ele><time>2026-04-04T03:10:49.001Z</time></trkpt><trkpt lat="13.891048041378927" lon="120.91902915064684"><ele>24.0</ele><time>2026-04-04T03:10:50.001Z</time></trkpt><trkpt lat="13.890973582472492" lon="120.91906379103189"><ele>24.0</ele><time>2026-04-04T03:10:51.001Z</time></trkpt><trkpt lat="13.890901804533486" lon="120.91911748158088"><ele>24.0</ele><time>2026-04-04T03:10:52.001Z</time></trkpt><trkpt lat="13.890825905114967" lon="120.91916739616892"><ele>24.0</ele><time>2026-04-04T03:10:53.001Z</time></trkpt><trkpt lat="13.890744074643667" lon="120.9192210665657"><ele>24.0</ele><time>2026-04-04T03:10:54.001Z</time></trkpt><trkpt lat="13.890660058383407" lon="120.91925162033289"><ele>24.0</ele><time>2026-04-04T03:10:55.001Z</time></trkpt><trkpt lat="13.89056566993195" lon="120.91928953701138"><ele>24.6</ele><time>2026-04-04T03:10:56.001Z</time></trkpt><trkpt lat="13.890471517019774" lon="120.91930906840467"><ele>25.2</ele><time>2026-04-04T03:10:57.001Z</time></trkpt><trkpt lat="13.890376876503527" lon="120.91933756902827"><ele>25.800000000000004</ele><time>2026-04-04T03:10:58.001Z</time></trkpt><trkpt lat="13.890287073560916" lon="120.9193831133406"><ele>26.400000000000002</ele><time>2026-04-04T03:10:59.001Z</time></trkpt><trkpt lat="13.890206011308821" lon="120.9194230099308"><ele>27.0</ele><time>2026-04-04T03:11:00.001Z</time></trkpt><trkpt lat="13.890132785322876" lon="120.91946582258365"><ele>26.666666666666668</ele><time>2026-04-04T03:11:01.001Z</time></trkpt><trkpt lat="13.890073543387754" lon="120.91950389202705"><ele>26.333333333333336</ele><time>2026-04-04T03:11:02.001Z</time></trkpt><trkpt lat="13.889978839170759" lon="120.91956518917858"><ele>26.0</ele><time>2026-04-04T03:11:04.001Z</time></trkpt><trkpt lat="13.889918800037014" lon="120.91960483086156"><ele>25.666666666666668</ele><time>2026-04-04T03:11:05.001Z</time></trkpt><trkpt lat="13.889855138151491" lon="120.91964135169583"><ele>25.333333333333336</ele><time>2026-04-04T03:11:06.001Z</time></trkpt><trkpt lat="13.889789996920898" lon="120.91967888955116"><ele>25.0</ele><time>2026-04-04T03:11:07Z</time></trkpt><trkpt lat="13.889732667067696" lon="120.91973086314177"><ele>25.0</ele><time>2026-04-04T03:11:08Z</time></trkpt><trkpt lat="13.889627217720907" lon="120.91978214158414"><ele>25.0</ele><time>2026-04-04T03:11:10Z</time></trkpt><trkpt lat="13.889525693951722" lon="120.91975911591547"><ele>25.0</ele><time>2026-04-04T03:11:12Z</time></trkpt><trkpt lat="13.889524405041191" lon="120.91965587309195"><ele>25.0</ele><time>2026-04-04T03:11:13Z</time></trkpt><trkpt lat="13.889471005851847" lon="120.91960452249599"><ele>25.0</ele><time>2026-04-04T03:11:14Z</time></trkpt><trkpt lat="13.889423150029858" lon="120.9195585026457"><ele>25.0</ele><time>2026-04-04T03:11:15Z</time></trkpt><trkpt lat="13.889334561518234" lon="120.9195345881747"><ele>25.0</ele><time>2026-04-04T03:11:16Z</time></trkpt><trkpt lat="13.889242652223501" lon="120.91955811664356"><ele>25.0</ele><time>2026-04-04T03:11:17Z</time></trkpt><trkpt lat="13.889176077784855" lon="120.9195277031852"><ele>25.0</ele><time>2026-04-04T03:11:18Z</time></trkpt><trkpt lat="13.88902575137351" lon="120.91949780937689"><ele>25.0</ele><time>2026-04-04T03:11:20Z</time></trkpt><trkpt lat="13.888943253047987" lon="120.91948140381227"><ele>23.0</ele><time>2026-04-04T03:11:21Z</time></trkpt><trkpt lat="13.888864008104479" lon="120.91945461234545"><ele>21.0</ele><time>2026-04-04T03:11:22Z</time></trkpt><trkpt lat="13.88878321206494" lon="120.91942291024021"><ele>19.0</ele><time>2026-04-04T03:11:23Z</time></trkpt><trkpt lat="13.888703780105255" lon="120.91939174338404"><ele>17.0</ele><time>2026-04-04T03:11:24Z</time></trkpt><trkpt lat="13.888605705189159" lon="120.91938056890427"><ele>15.0</ele><time>2026-04-04T03:11:25Z</time></trkpt><trkpt lat="13.888509537604744" lon="120.91939892978033"><ele>15.0</ele><time>2026-04-04T03:11:26Z</time></trkpt><trkpt lat="13.888427745241922" lon="120.9194495513534"><ele>15.0</ele><time>2026-04-04T03:11:27Z</time></trkpt><trkpt lat="13.888349568351142" lon="120.91947459458069"><ele>15.0</ele><time>2026-04-04T03:11:28Z</time></trkpt><trkpt lat="13.888285794932315" lon="120.91950318349562"><ele>15.0</ele><time>2026-04-04T03:11:29Z</time></trkpt><trkpt lat="13.888180922372586" lon="120.91954529640465"><ele>15.0</ele><time>2026-04-04T03:11:31Z</time></trkpt><trkpt lat="13.888065705545378" lon="120.91959373684725"><ele>14.833333333333334</ele><time>2026-04-04T03:11:33Z</time></trkpt><trkpt lat="13.888012973464164" lon="120.91952644997748"><ele>14.666666666666668</ele><time>2026-04-04T03:11:34Z</time></trkpt><trkpt lat="13.88789377561838" lon="120.91950139135591"><ele>14.5</ele><time>2026-04-04T03:11:36Z</time></trkpt><trkpt lat="13.887874749509223" lon="120.91940992778517"><ele>14.333333333333334</ele><time>2026-04-04T03:11:38Z</time></trkpt><trkpt lat="13.887834279037715" lon="120.91933022969611"><ele>14.166666666666668</ele><time>2026-04-04T03:11:39Z</time></trkpt><trkpt lat="13.887805060470086" lon="120.91927268988022"><ele>14.0</ele><time>2026-04-04T03:11:40Z</time></trkpt><trkpt lat="13.887659850920729" lon="120.9193253328265"><ele>15.399999999999999</ele><time>2026-04-04T03:11:47Z</time></trkpt><trkpt lat="13.887571673114174" lon="120.91936637934064"><ele>16.799999999999997</ele><time>2026-04-04T03:11:50Z</time></trkpt><trkpt lat="13.887484892266203" lon="120.91942476048999"><ele>18.200000000000003</ele><time>2026-04-04T03:11:52Z</time></trkpt><trkpt lat="13.887385842241965" lon="120.91945708987413"><ele>19.6</ele><time>2026-04-04T03:11:54Z</time></trkpt><trkpt lat="13.887305299345881" lon="120.91943938414691"><ele>21.0</ele><time>2026-04-04T03:11:56Z</time></trkpt><trkpt lat="13.887214160598093" lon="120.91944082655118"><ele>21.0</ele><time>2026-04-04T03:11:58Z</time></trkpt><trkpt lat="13.887196196037936" lon="120.91936843772731"><ele>21.0</ele><time>2026-04-04T03:12:00Z</time></trkpt><trkpt lat="13.887171655422161" lon="120.91929397474536"><ele>21.0</ele><time>2026-04-04T03:12:02Z</time></trkpt><trkpt lat="13.887141012432448" lon="120.9192073930513"><ele>21.0</ele><time>2026-04-04T03:12:04Z</time></trkpt><trkpt lat="13.887115371192342" lon="120.91913494378514"><ele>21.0</ele><time>2026-04-04T03:12:06Z</time></trkpt><trkpt lat="13.887092597437576" lon="120.91907059660731"><ele>21.0</ele><time>2026-04-04T03:12:09.001Z</time></trkpt><trkpt lat="13.886964932820254" lon="120.91906997654564"><ele>20.333333333333332</ele><time>2026-04-04T03:12:10.001Z</time></trkpt><trkpt lat="13.88689701116214" lon="120.91908183362537"><ele>19.666666666666668</ele><time>2026-04-04T03:12:11.001Z</time></trkpt><trkpt lat="13.886784648333558" lon="120.91909638875732"><ele>19.0</ele><time>2026-04-04T03:12:13.001Z</time></trkpt><trkpt lat="13.886719616818112" lon="120.91910092800471"><ele>18.333333333333336</ele><time>2026-04-04T03:12:14.001Z</time></trkpt><trkpt lat="13.886648293461832" lon="120.91910566571394"><ele>17.666666666666668</ele><time>2026-04-04T03:12:15.001Z</time></trkpt><trkpt lat="13.886576347957238" lon="120.91911044473974"><ele>17.0</ele><time>2026-04-04T03:12:16.001Z</time></trkpt><trkpt lat="13.886479246013838" lon="120.91911623112973"><ele>17.0</ele><time>2026-04-04T03:12:18.001Z</time></trkpt><trkpt lat="13.88638676037192" lon="120.91912085577277"><ele>17.0</ele><time>2026-04-04T03:12:22.001Z</time></trkpt><trkpt lat="13.886286837819757" lon="120.91915027031916"><ele>17.0</ele><time>2026-04-04T03:12:24.001Z</time></trkpt><trkpt lat="13.886206996182178" lon="120.91917799239698"><ele>17.0</ele><time>2026-04-04T03:12:27.001Z</time></trkpt><trkpt lat="13.88612068972643" lon="120.91919373469298"><ele>17.0</ele><time>2026-04-04T03:12:31.001Z</time></trkpt><trkpt lat="13.886015522671157" lon="120.91921386945374"><ele>17.0</ele><time>2026-04-04T03:12:34.001Z</time></trkpt><trkpt lat="13.88594427728502" lon="120.91922857541537"><ele>17.0</ele><time>2026-04-04T03:12:36.001Z</time></trkpt><trkpt lat="13.885857125668931" lon="120.9192468079132"><ele>17.0</ele><time>2026-04-04T03:12:38.001Z</time></trkpt><trkpt lat="13.885793929108301" lon="120.9192601719404"><ele>17.0</ele><time>2026-04-04T03:12:39.001Z</time></trkpt><trkpt lat="13.885726221635467" lon="120.9192744898785"><ele>17.0</ele><time>2026-04-04T03:12:41.001Z</time></trkpt><trkpt lat="13.885621787846988" lon="120.91931280510495"><ele>17.0</ele><time>2026-04-04T03:12:43.001Z</time></trkpt><trkpt lat="13.885542987072993" lon="120.91934336675038"><ele>17.166666666666668</ele><time>2026-04-04T03:12:45.001Z</time></trkpt><trkpt lat="13.88548125734876" lon="120.91936730765765"><ele>17.333333333333336</ele><time>2026-04-04T03:12:47.001Z</time></trkpt><trkpt lat="13.885420453282856" lon="120.91939088954652"><ele>17.5</ele><time>2026-04-04T03:12:50.001Z</time></trkpt><trkpt lat="13.88535326345708" lon="120.91938246600769"><ele>17.666666666666668</ele><time>2026-04-04T03:12:52.001Z</time></trkpt><trkpt lat="13.885243217564582" lon="120.91936754033718"><ele>17.833333333333332</ele><time>2026-04-04T03:12:54.001Z</time></trkpt><trkpt lat="13.88516512174503" lon="120.91935694809753"><ele>18.0</ele><time>2026-04-04T03:12:55.001Z</time></trkpt><trkpt lat="13.885100602428208" lon="120.91934819726923"><ele>17.0</ele><time>2026-04-04T03:12:56.001Z</time></trkpt><trkpt lat="13.885017238140154" lon="120.91939264524827"><ele>16.0</ele><time>2026-04-04T03:12:57.001Z</time></trkpt><trkpt lat="13.884938559567862" lon="120.91938848368446"><ele>15.0</ele><time>2026-04-04T03:12:58.001Z</time></trkpt><trkpt lat="13.884854078811234" lon="120.91941852228051"><ele>14.0</ele><time>2026-04-04T03:12:59.001Z</time></trkpt><trkpt lat="13.884773780191638" lon="120.91944527337262"><ele>13.0</ele><time>2026-04-04T03:13:00.001Z</time></trkpt><trkpt lat="13.88469585734645" lon="120.91947926015888"><ele>12.0</ele><time>2026-04-04T03:13:01.001Z</time></trkpt><trkpt lat="13.884616443762086" lon="120.91952904409862"><ele>12.0</ele><time>2026-04-04T03:13:02.001Z</time></trkpt><trkpt lat="13.884543712738417" lon="120.91955448694483"><ele>12.0</ele><time>2026-04-04T03:13:03.001Z</time></trkpt><trkpt lat="13.88447594736148" lon="120.91958012156276"><ele>12.0</ele><time>2026-04-04T03:13:04.001Z</time></trkpt><trkpt lat="13.884359068659048" lon="120.91963064189201"><ele>12.0</ele><time>2026-04-04T03:13:06.001Z</time></trkpt><trkpt lat="13.88429716610426" lon="120.91966333206065"><ele>12.0</ele><time>2026-04-04T03:13:07.001Z</time></trkpt><trkpt lat="13.884229875791423" lon="120.9196877766943"><ele>12.0</ele><time>2026-04-04T03:13:08.001Z</time></trkpt><trkpt lat="13.884137172213086" lon="120.9197160231952"><ele>12.0</ele><time>2026-04-04T03:13:10.001Z</time></trkpt><trkpt lat="13.88406936109951" lon="120.91972482829377"><ele>12.0</ele><time>2026-04-04T03:13:13Z</time></trkpt><trkpt lat="13.88397976351721" lon="120.91974948611822"><ele>12.0</ele><time>2026-04-04T03:13:15Z</time></trkpt><trkpt lat="13.883876818693295" lon="120.9197778171952"><ele>12.0</ele><time>2026-04-04T03:13:17Z</time></trkpt><trkpt lat="13.883806145167402" lon="120.91979726700137"><ele>12.0</ele><time>2026-04-04T03:13:18Z</time></trkpt><trkpt lat="13.883734062092028" lon="120.91981710472646"><ele>12.0</ele><time>2026-04-04T03:13:19Z</time></trkpt><trkpt lat="13.883652252515056" lon="120.91983889204234"><ele>12.0</ele><time>2026-04-04T03:13:20Z</time></trkpt><trkpt lat="13.883572276882326" lon="120.91985985399829"><ele>12.0</ele><time>2026-04-04T03:13:21Z</time></trkpt><trkpt lat="13.883500391511603" lon="120.91987869546114"><ele>12.0</ele><time>2026-04-04T03:13:22Z</time></trkpt><trkpt lat="13.88336540264042" lon="120.9198906956031"><ele>12.0</ele><time>2026-04-04T03:13:24Z</time></trkpt><trkpt lat="13.883296214037605" lon="120.91989629422939"><ele>12.0</ele><time>2026-04-04T03:13:25Z</time></trkpt><trkpt lat="13.883181548093336" lon="120.91990733629638"><ele>12.666666666666666</ele><time>2026-04-04T03:13:27Z</time></trkpt><trkpt lat="13.883101661423002" lon="120.91991671494027"><ele>13.333333333333332</ele><time>2026-04-04T03:13:29Z</time></trkpt><trkpt lat="13.883160522936926" lon="120.91994238937693"><ele>14.0</ele><time>2026-04-04T03:17:47Z</time></trkpt><trkpt lat="13.883113143696756" lon="120.92003847224828"><ele>14.666666666666666</ele><time>2026-04-04T03:18:23.001Z</time></trkpt><trkpt lat="13.883037367266695" lon="120.92006675122022"><ele>15.333333333333332</ele><time>2026-04-04T03:18:29.001Z</time></trkpt><trkpt lat="13.88311122994382" lon="120.9200701428893"><ele>16.0</ele><time>2026-04-04T03:21:36.001Z</time></trkpt><trkpt lat="13.883246362720332" lon="120.92008791033182"><ele>15.999999999999998</ele><time>2026-04-04T04:18:55Z</time></trkpt><trkpt lat="13.883151017537164" lon="120.92013423377648"><ele>16.0</ele><time>2026-04-04T04:23:54Z</time></trkpt><trkpt lat="13.883150887868174" lon="120.92005398110173"><ele>16.0</ele><time>2026-04-04T04:24:47Z</time></trkpt><trkpt lat="13.883138543479625" lon="120.91998713673814"><ele>16.0</ele><time>2026-04-04T04:24:53Z</time></trkpt><trkpt lat="13.883090280878518" lon="120.91990432900127"><ele>15.999999999999998</ele><time>2026-04-04T04:28:13Z</time></trkpt><trkpt lat="13.883008926990854" lon="120.9199223256784"><ele>16.0</ele><time>2026-04-04T04:28:41.001Z</time></trkpt><trkpt lat="13.882939946807594" lon="120.91993362959667"><ele>15.999999999999998</ele><time>2026-04-04T04:28:43.001Z</time></trkpt><trkpt lat="13.88286671093289" lon="120.91991779749515"><ele>16.0</ele><time>2026-04-04T04:28:46.001Z</time></trkpt><trkpt lat="13.882796540224536" lon="120.91995403589587"><ele>16.0</ele><time>2026-04-04T04:29:08.999Z</time></trkpt><trkpt lat="13.882729390448446" lon="120.91996957451185"><ele>16.0</ele><time>2026-04-04T04:29:10.999Z</time></trkpt><trkpt lat="13.882661365823644" lon="120.9199797268828"><ele>15.999999999999998</ele><time>2026-04-04T04:29:12.999Z</time></trkpt><trkpt lat="13.882582590102396" lon="120.91998974321884"><ele>16.0</ele><time>2026-04-04T04:29:14.999Z</time></trkpt><trkpt lat="13.882494125642905" lon="120.92000633208318"><ele>15.0</ele><time>2026-04-04T04:29:16.999Z</time></trkpt><trkpt lat="13.882409562769343" lon="120.92000880534803"><ele>14.000000000000002</ele><time>2026-04-04T04:29:18.999Z</time></trkpt><trkpt lat="13.882318369499947" lon="120.92001127682798"><ele>13.0</ele><time>2026-04-04T04:29:20.999Z</time></trkpt><trkpt lat="13.882230947148745" lon="120.91994829342804"><ele>12.0</ele><time>2026-04-04T04:29:22.999Z</time></trkpt><trkpt lat="13.882176673027258" lon="120.91986095972652"><ele>11.0</ele><time>2026-04-04T04:29:24.999Z</time></trkpt><trkpt lat="13.882109193037508" lon="120.91978572944907"><ele>11.0</ele><time>2026-04-04T04:29:26.999Z</time></trkpt><trkpt lat="13.882038509565286" lon="120.91972186765173"><ele>11.0</ele><time>2026-04-04T04:29:28.999Z</time></trkpt><trkpt lat="13.88197406333353" lon="120.91966933399718"><ele>11.0</ele><time>2026-04-04T04:29:30.999Z</time></trkpt><trkpt lat="13.881899663744129" lon="120.91964670368036"><ele>11.0</ele><time>2026-04-04T04:29:32.999Z</time></trkpt><trkpt lat="13.881818477298593" lon="120.91966408335105"><ele>11.0</ele><time>2026-04-04T04:29:34.999Z</time></trkpt><trkpt lat="13.881728848073656" lon="120.91969768821792"><ele>11.0</ele><time>2026-04-04T04:29:36.999Z</time></trkpt><trkpt lat="13.881645043267145" lon="120.9197268150879"><ele>11.0</ele><time>2026-04-04T04:29:38.999Z</time></trkpt><trkpt lat="13.88156040236286" lon="120.91974690231542"><ele>11.0</ele><time>2026-04-04T04:29:40.999Z</time></trkpt><trkpt lat="13.881457674498495" lon="120.91975927193495"><ele>11.0</ele><time>2026-04-04T04:29:42.999Z</time></trkpt><trkpt lat="13.881367694538149" lon="120.91977889372123"><ele>11.0</ele><time>2026-04-04T04:29:44.999Z</time></trkpt><trkpt lat="13.881267517525345" lon="120.91980202226367"><ele>11.0</ele><time>2026-04-04T04:29:47Z</time></trkpt><trkpt lat="13.881172069769182" lon="120.91982606974781"><ele>11.0</ele><time>2026-04-04T04:29:49Z</time></trkpt><trkpt lat="13.88108242355689" lon="120.91984644684076"><ele>11.0</ele><time>2026-04-04T04:29:51Z</time></trkpt><trkpt lat="13.88099642038822" lon="120.91987387140134"><ele>11.0</ele><time>2026-04-04T04:29:53Z</time></trkpt><trkpt lat="13.880890313426494" lon="120.91990242660356"><ele>11.0</ele><time>2026-04-04T04:29:55Z</time></trkpt><trkpt lat="13.880825885419746" lon="120.91990243465891"><ele>11.0</ele><time>2026-04-04T04:29:56Z</time></trkpt><trkpt lat="13.880724440065345" lon="120.91991738411507"><ele>13.25</ele><time>2026-04-04T04:29:58Z</time></trkpt><trkpt lat="13.880614792424577" lon="120.91990520810276"><ele>15.5</ele><time>2026-04-04T04:30:00Z</time></trkpt><trkpt lat="13.880505940846534" lon="120.91987733571516"><ele>17.75</ele><time>2026-04-04T04:30:02Z</time></trkpt><trkpt lat="13.88040109308883" lon="120.91981057675765"><ele>20.0</ele><time>2026-04-04T04:30:04Z</time></trkpt><trkpt lat="13.880309101416952" lon="120.91973958284257"><ele>20.0</ele><time>2026-04-04T04:30:06Z</time></trkpt><trkpt lat="13.880219119199536" lon="120.91967864663187"><ele>20.0</ele><time>2026-04-04T04:30:08Z</time></trkpt><trkpt lat="13.880131235498762" lon="120.91961464898141"><ele>20.0</ele><time>2026-04-04T04:30:10Z</time></trkpt><trkpt lat="13.880036444550257" lon="120.91956781735726"><ele>20.0</ele><time>2026-04-04T04:30:12Z</time></trkpt><trkpt lat="13.879947130184158" lon="120.9194936216292"><ele>20.0</ele><time>2026-04-04T04:30:14Z</time></trkpt><trkpt lat="13.879859024362029" lon="120.91941756884405"><ele>18.666666666666668</ele><time>2026-04-04T04:30:16Z</time></trkpt><trkpt lat="13.879798752047952" lon="120.91934060469504"><ele>17.333333333333336</ele><time>2026-04-04T04:30:18Z</time></trkpt><trkpt lat="13.879744215419661" lon="120.9192672955694"><ele>16.0</ele><time>2026-04-04T04:30:20Z</time></trkpt><trkpt lat="13.879692765587711" lon="120.91920247111031"><ele>14.666666666666668</ele><time>2026-04-04T04:30:22Z</time></trkpt><trkpt lat="13.879650583072323" lon="120.91914086419655"><ele>13.333333333333334</ele><time>2026-04-04T04:30:24Z</time></trkpt><trkpt lat="13.879590536193076" lon="120.91906917377293"><ele>12.0</ele><time>2026-04-04T04:30:29Z</time></trkpt><trkpt lat="13.87955374888777" lon="120.91900686023867"><ele>12.0</ele><time>2026-04-04T04:30:31Z</time></trkpt><trkpt lat="13.879461457243796" lon="120.91892939773851"><ele>12.0</ele><time>2026-04-04T04:30:33Z</time></trkpt><trkpt lat="13.879390037224674" lon="120.91883410413116"><ele>12.0</ele><time>2026-04-04T04:30:35Z</time></trkpt><trkpt lat="13.87927800740806" lon="120.91875555310764"><ele>12.0</ele><time>2026-04-04T04:30:36Z</time></trkpt><trkpt lat="13.879222973102943" lon="120.91869414965984"><ele>11.666666666666666</ele><time>2026-04-04T04:30:37Z</time></trkpt><trkpt lat="13.879161979824309" lon="120.91863656929816"><ele>11.333333333333334</ele><time>2026-04-04T04:30:38Z</time></trkpt><trkpt lat="13.87910734094633" lon="120.91857866821132"><ele>11.0</ele><time>2026-04-04T04:30:39Z</time></trkpt><trkpt lat="13.879030918365904" lon="120.91850043101634"><ele>10.666666666666668</ele><time>2026-04-04T04:30:41Z</time></trkpt><trkpt lat="13.878968616241874" lon="120.9184231097824"><ele>10.333333333333334</ele><time>2026-04-04T04:30:43Z</time></trkpt><trkpt lat="13.878907817274131" lon="120.91839978185762"><ele>10.0</ele><time>2026-04-04T04:30:45Z</time></trkpt><trkpt lat="13.878837450126232" lon="120.91843956145071"><ele>12.5</ele><time>2026-04-04T04:30:50Z</time></trkpt><trkpt lat="13.878795686900068" lon="120.91849860917502"><ele>15.0</ele><time>2026-04-04T04:30:59.996Z</time></trkpt><trkpt lat="13.878883529495265" lon="120.91868034654559"><ele>17.5</ele><time>2026-04-04T04:31:05.997Z</time></trkpt><trkpt lat="13.878938296698957" lon="120.9187573901042"><ele>20.0</ele><time>2026-04-04T04:31:07.997Z</time></trkpt><trkpt lat="13.879001776376692" lon="120.91885264521689"><ele>20.0</ele><time>2026-04-04T04:31:09.997Z</time></trkpt><trkpt lat="13.879065195007703" lon="120.91896527997152"><ele>20.0</ele><time>2026-04-04T04:31:11.997Z</time></trkpt><trkpt lat="13.8790907876899" lon="120.91903135206327"><ele>20.0</ele><time>2026-04-04T04:31:12.997Z</time></trkpt><trkpt lat="13.879119112369272" lon="120.91909104768826"><ele>20.0</ele><time>2026-04-04T04:31:13.997Z</time></trkpt><trkpt lat="13.87914773346769" lon="120.91915247437812"><ele>20.0</ele><time>2026-04-04T04:31:14.997Z</time></trkpt><trkpt lat="13.879177623112707" lon="120.91921464219305"><ele>20.0</ele><time>2026-04-04T04:31:15.997Z</time></trkpt><trkpt lat="13.879206959250903" lon="120.91927855803563"><ele>21.5</ele><time>2026-04-04T04:31:16.997Z</time></trkpt><trkpt lat="13.879234836088" lon="120.91934758895233"><ele>23.0</ele><time>2026-04-04T04:31:17.997Z</time></trkpt><trkpt lat="13.879261670495685" lon="120.91941515428677"><ele>24.5</ele><time>2026-04-04T04:31:18.998Z</time></trkpt><trkpt lat="13.87928820979634" lon="120.91947778266423"><ele>26.0</ele><time>2026-04-04T04:31:19.998Z</time></trkpt><trkpt lat="13.879311368758664" lon="120.91953885701483"><ele>27.499999999999996</ele><time>2026-04-04T04:31:20.998Z</time></trkpt><trkpt lat="13.879360073321836" lon="120.9196567832042"><ele>29.0</ele><time>2026-04-04T04:31:22.998Z</time></trkpt><trkpt lat="13.879382552775562" lon="120.9197204509429"><ele>28.999999999999996</ele><time>2026-04-04T04:31:23.998Z</time></trkpt><trkpt lat="13.879405821917173" lon="120.91978805051788"><ele>29.0</ele><time>2026-04-04T04:31:24.998Z</time></trkpt><trkpt lat="13.879431142844492" lon="120.9198582584261"><ele>29.0</ele><time>2026-04-04T04:31:25.998Z</time></trkpt><trkpt lat="13.879457317920235" lon="120.91992706797609"><ele>29.0</ele><time>2026-04-04T04:31:26.998Z</time></trkpt><trkpt lat="13.879497563226552" lon="120.92004664308936"><ele>28.999999999999996</ele><time>2026-04-04T04:31:28.998Z</time></trkpt><trkpt lat="13.879516651887373" lon="120.9201098465953"><ele>29.0</ele><time>2026-04-04T04:31:29.998Z</time></trkpt><trkpt lat="13.879541373736814" lon="120.9201760951328"><ele>29.999999999999996</ele><time>2026-04-04T04:31:30.998Z</time></trkpt><trkpt lat="13.87956246277292" lon="120.92024110536636"><ele>31.0</ele><time>2026-04-04T04:31:31.998Z</time></trkpt><trkpt lat="13.879588362167508" lon="120.92031361433676"><ele>32.0</ele><time>2026-04-04T04:31:32.998Z</time></trkpt><trkpt lat="13.879614672067891" lon="120.92038140342953"><ele>33.0</ele><time>2026-04-04T04:31:33.998Z</time></trkpt><trkpt lat="13.879640371218741" lon="120.92046020619395"><ele>34.0</ele><time>2026-04-04T04:31:34.998Z</time></trkpt><trkpt lat="13.879663321175306" lon="120.92053429269617"><ele>35.0</ele><time>2026-04-04T04:31:35.998Z</time></trkpt><trkpt lat="13.879692276872003" lon="120.92061293680013"><ele>35.0</ele><time>2026-04-04T04:31:36.998Z</time></trkpt><trkpt lat="13.879716616713482" lon="120.92068889045123"><ele>35.0</ele><time>2026-04-04T04:31:37.998Z</time></trkpt><trkpt lat="13.879739394916914" lon="120.92075107828121"><ele>35.0</ele><time>2026-04-04T04:31:38.998Z</time></trkpt><trkpt lat="13.879762409007988" lon="120.92083621231595"><ele>35.0</ele><time>2026-04-04T04:31:40.998Z</time></trkpt><trkpt lat="13.879778776130959" lon="120.92090258568885"><ele>35.0</ele><time>2026-04-04T04:31:42.998Z</time></trkpt><trkpt lat="13.879801997163787" lon="120.92097508016194"><ele>35.0</ele><time>2026-04-04T04:31:45.998Z</time></trkpt><trkpt lat="13.879775453559448" lon="120.92104132590867"><ele>35.0</ele><time>2026-04-04T04:31:49.999Z</time></trkpt><trkpt lat="13.879694620636329" lon="120.92105484343807"><ele>35.5</ele><time>2026-04-04T04:31:51.999Z</time></trkpt><trkpt lat="13.879596960166177" lon="120.92105494358428"><ele>36.0</ele><time>2026-04-04T04:31:53.999Z</time></trkpt><trkpt lat="13.879532962780006" lon="120.92107535159093"><ele>36.5</ele><time>2026-04-04T04:31:55.999Z</time></trkpt><trkpt lat="13.879496947670797" lon="120.92115863601049"><ele>37.0</ele><time>2026-04-04T04:31:57.999Z</time></trkpt><trkpt lat="13.879519007542218" lon="120.92124381572637"><ele>37.5</ele><time>2026-04-04T04:31:59.999Z</time></trkpt><trkpt lat="13.879543293891029" lon="120.92133306408631"><ele>38.0</ele><time>2026-04-04T04:32:01.999Z</time></trkpt><trkpt lat="13.879571277885864" lon="120.92143590069048"><ele>38.0</ele><time>2026-04-04T04:32:03.999Z</time></trkpt><trkpt lat="13.87959911503073" lon="120.92153819764354"><ele>38.0</ele><time>2026-04-04T04:32:05.999Z</time></trkpt><trkpt lat="13.879625618169666" lon="120.92163559234454"><ele>38.0</ele><time>2026-04-04T04:32:07.999Z</time></trkpt><trkpt lat="13.879659234015918" lon="120.92172361260188"><ele>38.0</ele><time>2026-04-04T04:32:09.999Z</time></trkpt><trkpt lat="13.87968315138109" lon="120.9218030593994"><ele>38.0</ele><time>2026-04-04T04:32:11.999Z</time></trkpt><trkpt lat="13.879703612511731" lon="120.92187168803673"><ele>38.0</ele><time>2026-04-04T04:32:13.999Z</time></trkpt><trkpt lat="13.879708518225078" lon="120.9219412516959"><ele>38.14285714285714</ele><time>2026-04-04T04:32:16.999Z</time></trkpt><trkpt lat="13.87967169826616" lon="120.92188342635664"><ele>38.28571428571429</ele><time>2026-04-04T04:32:58Z</time></trkpt><trkpt lat="13.879604292824052" lon="120.92186818129728"><ele>38.42857142857143</ele><time>2026-04-04T04:33:00.998Z</time></trkpt><trkpt lat="13.879536262795938" lon="120.92189503327158"><ele>38.57142857142857</ele><time>2026-04-04T04:33:02.998Z</time></trkpt><trkpt lat="13.879455165867633" lon="120.9219290722203"><ele>38.71428571428571</ele><time>2026-04-04T04:33:05.998Z</time></trkpt><trkpt lat="13.879464628478118" lon="120.922012072609"><ele>38.85714285714286</ele><time>2026-04-04T04:33:16.998Z</time></trkpt><trkpt lat="13.879494795739864" lon="120.92207327573855"><ele>39.0</ele><time>2026-04-04T04:33:19.999Z</time></trkpt><trkpt lat="13.879508782469593" lon="120.92213925306487"><ele>39.0</ele><time>2026-04-04T04:34:47.001Z</time></trkpt><trkpt lat="13.879493519502645" lon="120.92206557557377"><ele>39.0</ele><time>2026-04-04T04:35:16.999Z</time></trkpt><trkpt lat="13.879490185881538" lon="120.922131939761"><ele>39.0</ele><time>2026-04-04T04:36:04.997Z</time></trkpt><trkpt lat="13.879538250091596" lon="120.92220094898883"><ele>39.0</ele><time>2026-04-04T04:36:17.997Z</time></trkpt><trkpt lat="13.879460913558269" lon="120.92213664622878"><ele>39.0</ele><time>2026-04-04T04:37:00.998Z</time></trkpt><trkpt lat="13.879370964299046" lon="120.92216588059132"><ele>39.0</ele><time>2026-04-04T04:37:06.998Z</time></trkpt><trkpt lat="13.879355651804433" lon="120.92225069745442"><ele>38.75</ele><time>2026-04-04T04:37:12.038Z</time></trkpt><trkpt lat="13.879221075117059" lon="120.9224280522511"><ele>38.5</ele><time>2026-04-04T04:37:13.035Z</time></trkpt><trkpt lat="13.879161856816678" lon="120.92250157737372"><ele>38.25</ele><time>2026-04-04T04:37:16.034Z</time></trkpt><trkpt lat="13.879115311703416" lon="120.92255279101776"><ele>38.0</ele><time>2026-04-04T04:37:18.036Z</time></trkpt><trkpt lat="13.879048484342581" lon="120.92261926787344"><ele>38.0</ele><time>2026-04-04T04:37:21.03Z</time></trkpt><trkpt lat="13.878981563205205" lon="120.92268705557413"><ele>38.0</ele><time>2026-04-04T04:37:24.028Z</time></trkpt><trkpt lat="13.879182931566492" lon="120.92249570657349"><ele>38.0</ele><time>2026-04-04T04:37:32.035Z</time></trkpt><trkpt lat="13.878738429391253" lon="120.9217945563859"><ele>38.0</ele><time>2026-04-04T04:37:33.033Z</time></trkpt><trkpt lat="13.878988326541041" lon="120.9216742537239"><ele>38.0</ele><time>2026-04-04T04:37:34.033Z</time></trkpt><trkpt lat="13.879085147614434" lon="120.92188725017907"><ele>38.0</ele><time>2026-04-04T04:37:35.032Z</time></trkpt><trkpt lat="13.87908560526351" lon="120.92202391907487"><ele>38.0</ele><time>2026-04-04T04:37:36.034Z</time></trkpt><trkpt lat="13.879109335721253" lon="120.92209878139033"><ele>38.0</ele><time>2026-04-04T04:37:37.035Z</time></trkpt><trkpt lat="13.879112413547636" lon="120.92217098926"><ele>38.0</ele><time>2026-04-04T04:37:38.034Z</time></trkpt><trkpt lat="13.87917220664283" lon="120.92219650754326"><ele>38.0</ele><time>2026-04-04T04:37:42.033Z</time></trkpt><trkpt lat="13.878981612443468" lon="120.92236501388928"><ele>38.0</ele><time>2026-04-04T04:39:07.008Z</time></trkpt><trkpt lat="13.87913056318799" lon="120.92207687050127"><ele>38.0</ele><time>2026-04-04T04:40:12.009Z</time></trkpt><trkpt lat="13.879254356914485" lon="120.92208581791702"><ele>38.0</ele><time>2026-04-04T04:40:18.001Z</time></trkpt><trkpt lat="13.879315342723531" lon="120.92225073761966"><ele>38.0</ele><time>2026-04-04T04:40:19.001Z</time></trkpt><trkpt lat="13.879211330207763" lon="120.9222370212817"><ele>38.0</ele><time>2026-04-04T04:40:21.001Z</time></trkpt><trkpt lat="13.879144204054796" lon="120.92224420807308"><ele>38.0</ele><time>2026-04-04T04:40:27.994Z</time></trkpt><trkpt lat="13.879134637915437" lon="120.92217370085245"><ele>38.0</ele><time>2026-04-04T04:43:34.001Z</time></trkpt><trkpt lat="13.879075276213866" lon="120.92213238957878"><ele>38.0</ele><time>2026-04-04T04:43:52.001Z</time></trkpt><trkpt lat="13.87898111013879" lon="120.92209490021"><ele>38.0</ele><time>2026-04-04T04:44:20.002Z</time></trkpt><trkpt lat="13.879020113856097" lon="120.92215834540062"><ele>38.0</ele><time>2026-04-04T04:45:49.001Z</time></trkpt><trkpt lat="13.87908381590176" lon="120.92216755341367"><ele>38.0</ele><time>2026-04-04T04:46:04.002Z</time></trkpt><trkpt lat="13.879162871392685" lon="120.92214723703732"><ele>38.0</ele><time>2026-04-04T04:46:09.002Z</time></trkpt><trkpt lat="13.879223872595958" lon="120.922130091654"><ele>38.0</ele><time>2026-04-04T04:46:37.003Z</time></trkpt><trkpt lat="13.879188109338138" lon="120.92204958565135"><ele>38.0</ele><time>2026-04-04T04:47:13.038Z</time></trkpt><trkpt lat="13.879264642209415" lon="120.92199241970353"><ele>38.0</ele><time>2026-04-04T04:47:24.035Z</time></trkpt><trkpt lat="13.87913826494278" lon="120.92209042719595"><ele>38.0</ele><time>2026-04-04T04:47:34.034Z</time></trkpt><trkpt lat="13.8790835414166" lon="120.92216078366629"><ele>38.0</ele><time>2026-04-04T04:47:35.034Z</time></trkpt><trkpt lat="13.87909349415789" lon="120.92225080794877"><ele>38.0</ele><time>2026-04-04T04:47:36.035Z</time></trkpt><trkpt lat="13.87902161198244" lon="120.92226476606783"><ele>38.0</ele><time>2026-04-04T04:47:38.029Z</time></trkpt><trkpt lat="13.879114077508133" lon="120.92220959300329"><ele>38.0</ele><time>2026-04-04T04:47:41.029Z</time></trkpt><trkpt lat="13.87916569447454" lon="120.9222571811298"><ele>38.0</ele><time>2026-04-04T04:47:57.017Z</time></trkpt><trkpt lat="13.879188671299111" lon="120.92231837774654"><ele>38.0</ele><time>2026-04-04T04:48:04.016Z</time></trkpt><trkpt lat="13.8790910973426" lon="120.92223093482455"><ele>38.0</ele><time>2026-04-04T04:48:32.013Z</time></trkpt><trkpt lat="13.879003728031579" lon="120.92213557102788"><ele>38.0</ele><time>2026-04-04T04:48:33.013Z</time></trkpt><trkpt lat="13.880064678430761" lon="120.92125401613842"><ele>39.0</ele><time>2026-04-04T04:49:32.023Z</time></trkpt><trkpt lat="13.879604297418984" lon="120.92209176944203"><ele>39.0</ele><time>2026-04-04T04:49:35.004Z</time></trkpt><trkpt lat="13.879545198756519" lon="120.92215661564326"><ele>39.0</ele><time>2026-04-04T04:49:41.001Z</time></trkpt><trkpt lat="13.879558489319887" lon="120.922261848841"><ele>39.0</ele><time>2026-04-04T04:49:53.001Z</time></trkpt><trkpt lat="13.879566897176138" lon="120.92234312054194"><ele>39.0</ele><time>2026-04-04T04:50:01.001Z</time></trkpt><trkpt lat="13.87958682041636" lon="120.92241666823278"><ele>39.0</ele><time>2026-04-04T04:50:09.001Z</time></trkpt><trkpt lat="13.879623152166376" lon="120.92248685333564"><ele>39.0</ele><time>2026-04-04T04:50:18.001Z</time></trkpt><trkpt lat="13.87968427023003" lon="120.9225124403738"><ele>39.0</ele><time>2026-04-04T04:50:30.001Z</time></trkpt><trkpt lat="13.879750677233478" lon="120.92250760986451"><ele>39.0</ele><time>2026-04-04T04:50:36.001Z</time></trkpt><trkpt lat="13.879815766403532" lon="120.92252893631299"><ele>39.0</ele><time>2026-04-04T04:50:48.001Z</time></trkpt><trkpt lat="13.87974681314934" lon="120.92254129835064"><ele>39.0</ele><time>2026-04-04T04:51:20.002Z</time></trkpt><trkpt lat="13.879686475088363" lon="120.92252248781772"><ele>39.0</ele><time>2026-04-04T04:51:27.002Z</time></trkpt><trkpt lat="13.87964891814333" lon="120.9224636162478"><ele>39.0</ele><time>2026-04-04T04:51:36.002Z</time></trkpt><trkpt lat="13.879601182792928" lon="120.9224172031836"><ele>39.0</ele><time>2026-04-04T04:51:42.002Z</time></trkpt><trkpt lat="13.879573994220303" lon="120.92235806753716"><ele>39.0</ele><time>2026-04-04T04:51:49.001Z</time></trkpt><trkpt lat="13.879553029172328" lon="120.92229079769464"><ele>39.0</ele><time>2026-04-04T04:51:55.001Z</time></trkpt><trkpt lat="13.879528903343461" lon="120.9222216626123"><ele>39.0</ele><time>2026-04-04T04:52:02.001Z</time></trkpt><trkpt lat="13.879556177714717" lon="120.92230494739528"><ele>39.0</ele><time>2026-04-04T04:55:19.002Z</time></trkpt><trkpt lat="13.87958698692673" lon="120.92237954925048"><ele>39.0</ele><time>2026-04-04T04:55:23.002Z</time></trkpt><trkpt lat="13.879617109475546" lon="120.92245034757738"><ele>39.0</ele><time>2026-04-04T04:55:26.002Z</time></trkpt><trkpt lat="13.879643488265508" lon="120.92251477745273"><ele>39.0</ele><time>2026-04-04T04:55:29.002Z</time></trkpt><trkpt lat="13.879718924156158" lon="120.92251955481473"><ele>39.0</ele><time>2026-04-04T04:55:34.002Z</time></trkpt><trkpt lat="13.879825135384099" lon="120.92252006268107"><ele>39.0</ele><time>2026-04-04T04:55:40.002Z</time></trkpt><trkpt lat="13.879863399736415" lon="120.92257531393972"><ele>39.0</ele><time>2026-04-04T04:55:43.002Z</time></trkpt><trkpt lat="13.879932030423939" lon="120.92260519447629"><ele>39.0</ele><time>2026-04-04T04:55:47.002Z</time></trkpt><trkpt lat="13.88000680522168" lon="120.92259174090852"><ele>39.0</ele><time>2026-04-04T04:55:49.002Z</time></trkpt><trkpt lat="13.880079556709262" lon="120.92257975873166"><ele>39.0</ele><time>2026-04-04T04:55:51.002Z</time></trkpt><trkpt lat="13.88014231078444" lon="120.92257315675494"><ele>39.166666666666664</ele><time>2026-04-04T04:55:54.002Z</time></trkpt><trkpt lat="13.880238822660695" lon="120.92255363727813"><ele>39.333333333333336</ele><time>2026-04-04T04:55:57.002Z</time></trkpt><trkpt lat="13.880302011513129" lon="120.92254052188154"><ele>39.5</ele><time>2026-04-04T04:55:58.001Z</time></trkpt><trkpt lat="13.880403361920083" lon="120.92250827960855"><ele>39.66666666666667</ele><time>2026-04-04T04:56:00.001Z</time></trkpt><trkpt lat="13.880478611906362" lon="120.92249853332791"><ele>39.833333333333336</ele><time>2026-04-04T04:56:02.001Z</time></trkpt><trkpt lat="13.880521412062066" lon="120.92256194728843"><ele>40.0</ele><time>2026-04-04T04:56:05.001Z</time></trkpt><trkpt lat="13.880539290916776" lon="120.92265091989515"><ele>40.5</ele><time>2026-04-04T04:56:07.001Z</time></trkpt><trkpt lat="13.88056748398543" lon="120.92275902107419"><ele>41.0</ele><time>2026-04-04T04:56:09.001Z</time></trkpt><trkpt lat="13.880598245095165" lon="120.92287792791862"><ele>41.5</ele><time>2026-04-04T04:56:11Z</time></trkpt><trkpt lat="13.880617457236625" lon="120.92294574808064"><ele>42.0</ele><time>2026-04-04T04:56:12Z</time></trkpt><trkpt lat="13.88063278637761" lon="120.9230101000956"><ele>42.5</ele><time>2026-04-04T04:56:13Z</time></trkpt><trkpt lat="13.88065052534437" lon="120.92307977660174"><ele>43.0</ele><time>2026-04-04T04:56:14Z</time></trkpt><trkpt lat="13.880666867768824" lon="120.92314426880284"><ele>43.00000000000001</ele><time>2026-04-04T04:56:15Z</time></trkpt><trkpt lat="13.880680960553994" lon="120.92321493413051"><ele>43.0</ele><time>2026-04-04T04:56:16Z</time></trkpt><trkpt lat="13.880696873472608" lon="120.92328506721445"><ele>43.0</ele><time>2026-04-04T04:56:17Z</time></trkpt><trkpt lat="13.880713917414289" lon="120.92334779437557"><ele>43.0</ele><time>2026-04-04T04:56:18Z</time></trkpt><trkpt lat="13.880730546736617" lon="120.9234285271178"><ele>43.0</ele><time>2026-04-04T04:56:19Z</time></trkpt><trkpt lat="13.880743136634557" lon="120.92349794796056"><ele>43.00000000000001</ele><time>2026-04-04T04:56:20Z</time></trkpt><trkpt lat="13.880763314461117" lon="120.9235657939299"><ele>43.0</ele><time>2026-04-04T04:56:21Z</time></trkpt><trkpt lat="13.880776977004944" lon="120.92363158987561"><ele>45.0</ele><time>2026-04-04T04:56:22Z</time></trkpt><trkpt lat="13.8807946348558" lon="120.92369860181438"><ele>47.0</ele><time>2026-04-04T04:56:23Z</time></trkpt><trkpt lat="13.88082071437427" lon="120.92382180505572"><ele>49.0</ele><time>2026-04-04T04:56:25Z</time></trkpt><trkpt lat="13.880835280798067" lon="120.92390887625245"><ele>51.0</ele><time>2026-04-04T04:56:27Z</time></trkpt><trkpt lat="13.880852514377896" lon="120.9240080254236"><ele>52.99999999999999</ele><time>2026-04-04T04:56:29Z</time></trkpt><trkpt lat="13.880858611462694" lon="120.92408011053291"><ele>55.0</ele><time>2026-04-04T04:56:31.001Z</time></trkpt><trkpt lat="13.880808537601247" lon="120.92413951097434"><ele>54.99999999999999</ele><time>2026-04-04T04:56:35.001Z</time></trkpt><trkpt lat="13.880743436047243" lon="120.92416328150722"><ele>55.0</ele><time>2026-04-04T04:56:41.001Z</time></trkpt><trkpt lat="13.88066499478369" lon="120.9241965608106"><ele>55.0</ele><time>2026-04-04T04:56:44.001Z</time></trkpt><trkpt lat="13.880581528628541" lon="120.92423161269383"><ele>55.0</ele><time>2026-04-04T04:56:46.001Z</time></trkpt><trkpt lat="13.880491688353308" lon="120.92427433780233"><ele>54.99999999999999</ele><time>2026-04-04T04:56:48.001Z</time></trkpt><trkpt lat="13.880398073926232" lon="120.92431163379578"><ele>55.0</ele><time>2026-04-04T04:56:50.001Z</time></trkpt><trkpt lat="13.8802847497581" lon="120.9243677715647"><ele>55.49999999999999</ele><time>2026-04-04T04:56:52.001Z</time></trkpt><trkpt lat="13.880181481881905" lon="120.92440659145134"><ele>56.0</ele><time>2026-04-04T04:56:55.001Z</time></trkpt><trkpt lat="13.880106759478448" lon="120.92443395895383"><ele>56.5</ele><time>2026-04-04T04:56:57.001Z</time></trkpt><trkpt lat="13.880025887322324" lon="120.92445136097558"><ele>57.0</ele><time>2026-04-04T04:57:00.001Z</time></trkpt><trkpt lat="13.879981685856892" lon="120.92439610025642"><ele>57.49999999999999</ele><time>2026-04-04T04:57:03.001Z</time></trkpt><trkpt lat="13.88003265006216" lon="120.92444038449236"><ele>58.0</ele><time>2026-04-04T05:01:21Z</time></trkpt><trkpt lat="13.880099047380588" lon="120.92442805001406"><ele>57.99999999999999</ele><time>2026-04-04T05:01:30Z</time></trkpt><trkpt lat="13.880156350101245" lon="120.92439913501562"><ele>58.0</ele><time>2026-04-04T05:01:37.001Z</time></trkpt><trkpt lat="13.880221257149554" lon="120.92438071542361"><ele>58.0</ele><time>2026-04-04T05:01:44.001Z</time></trkpt><trkpt lat="13.88033605241333" lon="120.92437342056513"><ele>58.0</ele><time>2026-04-04T05:01:57.001Z</time></trkpt><trkpt lat="13.880441661781852" lon="120.92437052335914"><ele>57.99999999999999</ele><time>2026-04-04T05:02:13.001Z</time></trkpt><trkpt lat="13.88039609460963" lon="120.92431608420488"><ele>58.0</ele><time>2026-04-04T05:02:25Z</time></trkpt><trkpt lat="13.880314621374584" lon="120.92428635199681"><ele>58.0</ele><time>2026-04-04T05:02:30Z</time></trkpt><trkpt lat="13.88052730547438" lon="120.92493786527872"><ele>58.0</ele><time>2026-04-04T05:04:46.013Z</time></trkpt><trkpt lat="13.88043732930348" lon="120.92499809923189"><ele>58.0</ele><time>2026-04-04T05:04:52.016Z</time></trkpt><trkpt lat="13.88037398623347" lon="120.92498869471288"><ele>58.0</ele><time>2026-04-04T05:04:54.002Z</time></trkpt><trkpt lat="13.880333273855703" lon="120.92508529784247"><ele>58.0</ele><time>2026-04-04T05:06:51.015Z</time></trkpt><trkpt lat="13.88042809999442" lon="120.92509995495793"><ele>58.0</ele><time>2026-04-04T05:07:02.018Z</time></trkpt><trkpt lat="13.88050871568955" lon="120.92511804814397"><ele>57.666666666666664</ele><time>2026-04-04T05:07:06.021Z</time></trkpt><trkpt lat="13.880620383232841" lon="120.92523422238479"><ele>57.33333333333333</ele><time>2026-04-04T05:07:17.002Z</time></trkpt><trkpt lat="13.880690370634435" lon="120.92521248387244"><ele>57.0</ele><time>2026-04-04T05:07:30.001Z</time></trkpt><trkpt lat="13.880757905765067" lon="120.92520517933785"><ele>56.66666666666667</ele><time>2026-04-04T05:07:40Z</time></trkpt><trkpt lat="13.880826137596532" lon="120.92522436164269"><ele>56.333333333333336</ele><time>2026-04-04T05:07:47Z</time></trkpt><trkpt lat="13.88089152904076" lon="120.92521162208706"><ele>56.0</ele><time>2026-04-04T05:07:56Z</time></trkpt><trkpt lat="13.880935624610107" lon="120.92516409888606"><ele>55.714285714285715</ele><time>2026-04-04T05:08:05Z</time></trkpt><trkpt lat="13.880983181027553" lon="120.925116247642"><ele>55.42857142857143</ele><time>2026-04-04T05:08:15.001Z</time></trkpt><trkpt lat="13.880972063758193" lon="120.92504994928156"><ele>55.14285714285714</ele><time>2026-04-04T05:08:24.001Z</time></trkpt><trkpt lat="13.880938376186243" lon="120.924976445677"><ele>54.85714285714286</ele><time>2026-04-04T05:08:33.001Z</time></trkpt><trkpt lat="13.88095853632221" lon="120.92490349331923"><ele>54.57142857142857</ele><time>2026-04-04T05:08:38.001Z</time></trkpt><trkpt lat="13.880976288603147" lon="120.92484003373545"><ele>54.285714285714285</ele><time>2026-04-04T05:08:45.001Z</time></trkpt><trkpt lat="13.881007491059187" lon="120.92489663043342"><ele>54.0</ele><time>2026-04-04T05:08:59.001Z</time></trkpt><trkpt lat="13.880969234193254" lon="120.92495965078889"><ele>54.0</ele><time>2026-04-04T05:09:05.001Z</time></trkpt><trkpt lat="13.880968522489523" lon="120.92502729988065"><ele>54.0</ele><time>2026-04-04T05:09:12.001Z</time></trkpt><trkpt lat="13.880993326224878" lon="120.92509763539051"><ele>54.0</ele><time>2026-04-04T05:09:18.001Z</time></trkpt><trkpt lat="13.880944667059232" lon="120.92515101389424"><ele>54.0</ele><time>2026-04-04T05:09:28Z</time></trkpt><trkpt lat="13.88089321343057" lon="120.92519129000425"><ele>54.0</ele><time>2026-04-04T05:09:36Z</time></trkpt><trkpt lat="13.880857903310336" lon="120.92524651748815"><ele>54.0</ele><time>2026-04-04T05:09:44Z</time></trkpt><trkpt lat="13.880796575717476" lon="120.9252628218623"><ele>54.0</ele><time>2026-04-04T05:09:52Z</time></trkpt><trkpt lat="13.88072983003525" lon="120.92522635710394"><ele>54.285714285714285</ele><time>2026-04-04T05:09:59Z</time></trkpt><trkpt lat="13.880663361181378" lon="120.92522162906852"><ele>54.57142857142857</ele><time>2026-04-04T05:10:08Z</time></trkpt><trkpt lat="13.880601873649574" lon="120.92524844270469"><ele>54.85714285714286</ele><time>2026-04-04T05:10:15Z</time></trkpt><trkpt lat="13.880560381688971" lon="120.92519756457939"><ele>55.14285714285714</ele><time>2026-04-04T05:10:21Z</time></trkpt><trkpt lat="13.880523855517941" lon="120.92513846585271"><ele>55.42857142857143</ele><time>2026-04-04T05:10:29Z</time></trkpt><trkpt lat="13.880477067986362" lon="120.92508547055553"><ele>55.714285714285715</ele><time>2026-04-04T05:10:37.001Z</time></trkpt><trkpt lat="13.880434355115655" lon="120.92503382997766"><ele>56.0</ele><time>2026-04-04T05:10:43.001Z</time></trkpt><trkpt lat="13.88045900379568" lon="120.92496242086422"><ele>56.4</ele><time>2026-04-04T05:11:19.001Z</time></trkpt><trkpt lat="13.880577058276526" lon="120.9248621793544"><ele>56.8</ele><time>2026-04-04T05:11:52.999Z</time></trkpt><trkpt lat="13.88065663878534" lon="120.9248379759237"><ele>57.199999999999996</ele><time>2026-04-04T05:11:54.999Z</time></trkpt><trkpt lat="13.880711990841961" lon="120.92487089430811"><ele>57.599999999999994</ele><time>2026-04-04T05:11:59Z</time></trkpt><trkpt lat="13.880785117084281" lon="120.92486582206007"><ele>58.0</ele><time>2026-04-04T05:12:04.04Z</time></trkpt><trkpt lat="13.880850471251447" lon="120.92479264980061"><ele>58.0</ele><time>2026-04-04T05:12:09.04Z</time></trkpt><trkpt lat="13.8807517240464" lon="120.92488730688889"><ele>58.0</ele><time>2026-04-04T05:13:59.014Z</time></trkpt><trkpt lat="13.880453096636632" lon="120.92456272300001"><ele>58.00000000000001</ele><time>2026-04-04T05:14:00.022Z</time></trkpt><trkpt lat="13.880398236670302" lon="120.92447423369693"><ele>58.0</ele><time>2026-04-04T05:14:01.017Z</time></trkpt><trkpt lat="13.880339591368038" lon="120.92442711226529"><ele>58.00000000000001</ele><time>2026-04-04T05:14:02.019Z</time></trkpt><trkpt lat="13.880276833588217" lon="120.92441490643601"><ele>58.00000000000001</ele><time>2026-04-04T05:14:09.003Z</time></trkpt><trkpt lat="13.880209819549082" lon="120.92443856610986"><ele>58.0</ele><time>2026-04-04T05:14:19.001Z</time></trkpt><trkpt lat="13.880142137956128" lon="120.92445514306995"><ele>58.00000000000001</ele><time>2026-04-04T05:14:28.001Z</time></trkpt><trkpt lat="13.880076559752533" lon="120.92446515427856"><ele>58.00000000000001</ele><time>2026-04-04T05:14:35Z</time></trkpt><trkpt lat="13.880010689171897" lon="120.92443891920013"><ele>56.666666666666664</ele><time>2026-04-04T05:14:45Z</time></trkpt><trkpt lat="13.880020534509972" lon="120.92434920514596"><ele>55.33333333333333</ele><time>2026-04-04T05:23:28.001Z</time></trkpt><trkpt lat="13.879970356919715" lon="120.92427685001316"><ele>54.0</ele><time>2026-04-04T05:23:30.001Z</time></trkpt><trkpt lat="13.879934853666613" lon="120.92421848717944"><ele>52.66666666666667</ele><time>2026-04-04T05:23:32.001Z</time></trkpt><trkpt lat="13.879898834190106" lon="120.92413627651212"><ele>51.333333333333336</ele><time>2026-04-04T05:23:35.001Z</time></trkpt><trkpt lat="13.87986259933372" lon="120.92406166461515"><ele>50.0</ele><time>2026-04-04T05:23:38.001Z</time></trkpt><trkpt lat="13.879823771348471" lon="120.92398972593092"><ele>49.50000000000001</ele><time>2026-04-04T05:23:41.001Z</time></trkpt><trkpt lat="13.879823606294247" lon="120.92391229205803"><ele>49.0</ele><time>2026-04-04T05:23:48.001Z</time></trkpt><trkpt lat="13.879907877491034" lon="120.9238594106204"><ele>48.5</ele><time>2026-04-04T05:23:50.001Z</time></trkpt><trkpt lat="13.879979910225076" lon="120.92381207227317"><ele>48.0</ele><time>2026-04-04T05:23:52.001Z</time></trkpt><trkpt lat="13.880034049530728" lon="120.92375792048588"><ele>47.5</ele><time>2026-04-04T05:23:54.001Z</time></trkpt><trkpt lat="13.880084007638352" lon="120.92371172545619"><ele>47.0</ele><time>2026-04-04T05:23:58.001Z</time></trkpt><trkpt lat="13.88013666093518" lon="120.92366801736333"><ele>46.33333333333333</ele><time>2026-04-04T05:24:01.001Z</time></trkpt><trkpt lat="13.880206962420631" lon="120.92362386621213"><ele>45.666666666666664</ele><time>2026-04-04T05:24:03.001Z</time></trkpt><trkpt lat="13.880273150066152" lon="120.923572940359"><ele>45.0</ele><time>2026-04-04T05:24:05.001Z</time></trkpt><trkpt lat="13.880327377186038" lon="120.92351112724435"><ele>44.333333333333336</ele><time>2026-04-04T05:24:07.001Z</time></trkpt><trkpt lat="13.88035362688647" lon="120.92342394609219"><ele>43.66666666666667</ele><time>2026-04-04T05:24:09.001Z</time></trkpt><trkpt lat="13.880337802717825" lon="120.92332043774496"><ele>43.0</ele><time>2026-04-04T05:24:11.001Z</time></trkpt><trkpt lat="13.880319271815212" lon="120.92321344585058"><ele>43.0</ele><time>2026-04-04T05:24:13.001Z</time></trkpt><trkpt lat="13.88029496524302" lon="120.92309832748103"><ele>43.0</ele><time>2026-04-04T05:24:15.001Z</time></trkpt><trkpt lat="13.880270863491917" lon="120.92298559128031"><ele>43.0</ele><time>2026-04-04T05:24:17.001Z</time></trkpt><trkpt lat="13.880247167014318" lon="120.92287306938522"><ele>43.0</ele><time>2026-04-04T05:24:19.001Z</time></trkpt><trkpt lat="13.880222270658003" lon="120.92275096138268"><ele>43.0</ele><time>2026-04-04T05:24:21.001Z</time></trkpt><trkpt lat="13.880196850924445" lon="120.92263959201918"><ele>43.0</ele><time>2026-04-04T05:24:23.001Z</time></trkpt><trkpt lat="13.880189340948464" lon="120.92252017406344"><ele>43.0</ele><time>2026-04-04T05:24:25.001Z</time></trkpt><trkpt lat="13.88016489358834" lon="120.92240227669456"><ele>43.0</ele><time>2026-04-04T05:24:27.001Z</time></trkpt><trkpt lat="13.880125103875766" lon="120.92229145918901"><ele>42.4</ele><time>2026-04-04T05:24:29.001Z</time></trkpt><trkpt lat="13.880102486434533" lon="120.92217645326433"><ele>41.8</ele><time>2026-04-04T05:24:31.001Z</time></trkpt><trkpt lat="13.8800863735273" lon="120.92204666859615"><ele>41.2</ele><time>2026-04-04T05:24:33.001Z</time></trkpt><trkpt lat="13.88004825022768" lon="120.92193182070152"><ele>40.6</ele><time>2026-04-04T05:24:35.001Z</time></trkpt><trkpt lat="13.880033760096719" lon="120.92186663519978"><ele>40.0</ele><time>2026-04-04T05:24:36.001Z</time></trkpt><trkpt lat="13.87999959311295" lon="120.92174058655644"><ele>39.6</ele><time>2026-04-04T05:24:38.001Z</time></trkpt><trkpt lat="13.87998831431909" lon="120.9216408474508"><ele>39.2</ele><time>2026-04-04T05:24:40Z</time></trkpt><trkpt lat="13.879962475026257" lon="120.92153691851901"><ele>38.8</ele><time>2026-04-04T05:24:42Z</time></trkpt><trkpt lat="13.879930882350637" lon="120.92147327393849"><ele>38.4</ele><time>2026-04-04T05:24:43Z</time></trkpt><trkpt lat="13.87991667535717" lon="120.92140879262428"><ele>38.0</ele><time>2026-04-04T05:24:44Z</time></trkpt><trkpt lat="13.87989122915713" lon="120.92129037289031"><ele>38.0</ele><time>2026-04-04T05:24:46Z</time></trkpt><trkpt lat="13.879860392019381" lon="120.92119920590486"><ele>38.0</ele><time>2026-04-04T05:24:48Z</time></trkpt><trkpt lat="13.879845569714744" lon="120.92113121244284"><ele>38.0</ele><time>2026-04-04T05:24:50Z</time></trkpt><trkpt lat="13.879825531243634" lon="120.92106483641199"><ele>38.0</ele><time>2026-04-04T05:24:52Z</time></trkpt><trkpt lat="13.879796902024731" lon="120.92098182385605"><ele>38.0</ele><time>2026-04-04T05:24:54Z</time></trkpt><trkpt lat="13.879766099986456" lon="120.92088157041829"><ele>38.0</ele><time>2026-04-04T05:24:56Z</time></trkpt><trkpt lat="13.87973767968213" lon="120.92078237632465"><ele>37.4</ele><time>2026-04-04T05:24:58Z</time></trkpt><trkpt lat="13.879704924764205" lon="120.92067990643322"><ele>36.8</ele><time>2026-04-04T05:25:00Z</time></trkpt><trkpt lat="13.879684243751768" lon="120.92061758581708"><ele>36.2</ele><time>2026-04-04T05:25:01Z</time></trkpt><trkpt lat="13.879641159847345" lon="120.92048402049029"><ele>35.6</ele><time>2026-04-04T05:25:03Z</time></trkpt><trkpt lat="13.87962010597641" lon="120.92041443902623"><ele>35.0</ele><time>2026-04-04T05:25:04Z</time></trkpt><trkpt lat="13.87957652913302" lon="120.9202954793542"><ele>35.0</ele><time>2026-04-04T05:25:06Z</time></trkpt><trkpt lat="13.87955534291742" lon="120.92023427864112"><ele>35.0</ele><time>2026-04-04T05:25:07Z</time></trkpt><trkpt lat="13.879518319509732" lon="120.92012458244237"><ele>35.0</ele><time>2026-04-04T05:25:09Z</time></trkpt><trkpt lat="13.879480936675112" lon="120.92002058499331"><ele>35.0</ele><time>2026-04-04T05:25:11Z</time></trkpt><trkpt lat="13.879445617313225" lon="120.91991688532066"><ele>35.0</ele><time>2026-04-04T05:25:13Z</time></trkpt><trkpt lat="13.87940952959923" lon="120.91982035813635"><ele>34.0</ele><time>2026-04-04T05:25:15Z</time></trkpt><trkpt lat="13.879366471508126" lon="120.91969797226146"><ele>33.0</ele><time>2026-04-04T05:25:17Z</time></trkpt><trkpt lat="13.879329048671648" lon="120.9195964095509"><ele>32.0</ele><time>2026-04-04T05:25:19.001Z</time></trkpt><trkpt lat="13.87928206651562" lon="120.91948213195047"><ele>31.0</ele><time>2026-04-04T05:25:21.001Z</time></trkpt><trkpt lat="13.879254481206535" lon="120.9194177969508"><ele>30.0</ele><time>2026-04-04T05:25:22.001Z</time></trkpt><trkpt lat="13.879226103655828" lon="120.91934485255813"><ele>30.0</ele><time>2026-04-04T05:25:23.001Z</time></trkpt><trkpt lat="13.87919131188719" lon="120.91926363081518"><ele>30.0</ele><time>2026-04-04T05:25:24.001Z</time></trkpt><trkpt lat="13.879160029590526" lon="120.91918394043914"><ele>30.0</ele><time>2026-04-04T05:25:25.001Z</time></trkpt><trkpt lat="13.879128073037405" lon="120.91911329467851"><ele>30.0</ele><time>2026-04-04T05:25:26.001Z</time></trkpt><trkpt lat="13.879096797038963" lon="120.91904348195096"><ele>30.0</ele><time>2026-04-04T05:25:27.001Z</time></trkpt><trkpt lat="13.879046290966027" lon="120.91895976719209"><ele>30.0</ele><time>2026-04-04T05:25:29.001Z</time></trkpt><trkpt lat="13.87899896388671" lon="120.91888579968152"><ele>28.333333333333332</ele><time>2026-04-04T05:25:31.001Z</time></trkpt><trkpt lat="13.878943497544276" lon="120.91880423896292"><ele>26.666666666666668</ele><time>2026-04-04T05:25:33.001Z</time></trkpt><trkpt lat="13.878896063330613" lon="120.91873801501276"><ele>25.0</ele><time>2026-04-04T05:25:35.001Z</time></trkpt><trkpt lat="13.878852310046387" lon="120.91868233130039"><ele>23.333333333333336</ele><time>2026-04-04T05:25:37.001Z</time></trkpt><trkpt lat="13.878814469089207" lon="120.91862965556088"><ele>21.666666666666668</ele><time>2026-04-04T05:25:41.001Z</time></trkpt><trkpt lat="13.878772107995086" lon="120.91857206330732"><ele>20.0</ele><time>2026-04-04T05:25:47.001Z</time></trkpt><trkpt lat="13.878690851846144" lon="120.91851005068862"><ele>20.0</ele><time>2026-04-04T05:25:49.001Z</time></trkpt><trkpt lat="13.878637269984628" lon="120.91846728675942"><ele>20.0</ele><time>2026-04-04T05:25:50.001Z</time></trkpt><trkpt lat="13.87858003274973" lon="120.91841153300322"><ele>20.0</ele><time>2026-04-04T05:25:51.001Z</time></trkpt><trkpt lat="13.878521737833049" lon="120.91834913097136"><ele>20.0</ele><time>2026-04-04T05:25:52.001Z</time></trkpt><trkpt lat="13.878467308217768" lon="120.91828908144079"><ele>20.0</ele><time>2026-04-04T05:25:53.001Z</time></trkpt><trkpt lat="13.878414730233805" lon="120.91823933211005"><ele>20.0</ele><time>2026-04-04T05:25:54.001Z</time></trkpt><trkpt lat="13.878368163748426" lon="120.91819502993276"><ele>20.0</ele><time>2026-04-04T05:25:55.001Z</time></trkpt><trkpt lat="13.878300331084459" lon="120.91812402161334"><ele>19.4</ele><time>2026-04-04T05:25:57.001Z</time></trkpt><trkpt lat="13.878235376614095" lon="120.91806303046944"><ele>18.8</ele><time>2026-04-04T05:25:59.001Z</time></trkpt><trkpt lat="13.878163818753867" lon="120.91799871303652"><ele>18.2</ele><time>2026-04-04T05:26:01.001Z</time></trkpt><trkpt lat="13.878094062731801" lon="120.91792963808027"><ele>17.6</ele><time>2026-04-04T05:26:03.001Z</time></trkpt><trkpt lat="13.87803030404315" lon="120.91786142417007"><ele>17.0</ele><time>2026-04-04T05:26:05.001Z</time></trkpt><trkpt lat="13.877967491322108" lon="120.91779578050068"><ele>17.0</ele><time>2026-04-04T05:26:07.001Z</time></trkpt><trkpt lat="13.877909974268361" lon="120.91773508046973"><ele>17.0</ele><time>2026-04-04T05:26:09.001Z</time></trkpt><trkpt lat="13.877984995983626" lon="120.91760438920156"><ele>17.0</ele><time>2026-04-04T05:26:13.001Z</time></trkpt><trkpt lat="13.878053253311792" lon="120.91754544805184"><ele>17.0</ele><time>2026-04-04T05:26:15.001Z</time></trkpt><trkpt lat="13.878127358093757" lon="120.91748007460703"><ele>17.0</ele><time>2026-04-04T05:26:17.001Z</time></trkpt><trkpt lat="13.878191534204753" lon="120.91742683921885"><ele>15.5</ele><time>2026-04-04T05:26:19.001Z</time></trkpt><trkpt lat="13.878261829389874" lon="120.91735475199822"><ele>14.0</ele><time>2026-04-04T05:26:21.001Z</time></trkpt><trkpt lat="13.878354028712772" lon="120.91727723985593"><ele>12.5</ele><time>2026-04-04T05:26:23.001Z</time></trkpt><trkpt lat="13.87845507421326" lon="120.91719849294068"><ele>11.0</ele><time>2026-04-04T05:26:25.001Z</time></trkpt><trkpt lat="13.87855316073921" lon="120.91711979945457"><ele>10.4</ele><time>2026-04-04T05:26:27.001Z</time></trkpt><trkpt lat="13.878612042826395" lon="120.91707824329326"><ele>9.8</ele><time>2026-04-04T05:26:28.001Z</time></trkpt><trkpt lat="13.878672417843603" lon="120.91703824864256"><ele>9.200000000000001</ele><time>2026-04-04T05:26:29.001Z</time></trkpt><trkpt lat="13.878768654238748" lon="120.91697350361795"><ele>8.600000000000001</ele><time>2026-04-04T05:26:31.001Z</time></trkpt><trkpt lat="13.878853144438567" lon="120.91691871371313"><ele>8.0</ele><time>2026-04-04T05:26:33.001Z</time></trkpt><trkpt lat="13.878946039912439" lon="120.91685614224572"><ele>8.0</ele><time>2026-04-04T05:26:35.001Z</time></trkpt><trkpt lat="13.879048856436738" lon="120.91678358301006"><ele>8.0</ele><time>2026-04-04T05:26:37.001Z</time></trkpt><trkpt lat="13.879104026498545" lon="120.91674778269667"><ele>8.0</ele><time>2026-04-04T05:26:38.001Z</time></trkpt><trkpt lat="13.879202479726983" lon="120.91667450903222"><ele>8.0</ele><time>2026-04-04T05:26:40.001Z</time></trkpt><trkpt lat="13.879302191759031" lon="120.91660435026758"><ele>8.0</ele><time>2026-04-04T05:26:42.001Z</time></trkpt><trkpt lat="13.879410980189938" lon="120.91652835489766"><ele>8.333333333333332</ele><time>2026-04-04T05:26:44.001Z</time></trkpt><trkpt lat="13.879466696014727" lon="120.91649323516073"><ele>8.666666666666666</ele><time>2026-04-04T05:26:45Z</time></trkpt><trkpt lat="13.879547694946094" lon="120.91644670507715"><ele>9.0</ele><time>2026-04-04T05:26:47Z</time></trkpt><trkpt lat="13.8796278461275" lon="120.91639726842598"><ele>9.333333333333334</ele><time>2026-04-04T05:26:50Z</time></trkpt><trkpt lat="13.879700258434177" lon="120.91634506838781"><ele>9.666666666666668</ele><time>2026-04-04T05:26:53Z</time></trkpt><trkpt lat="13.879767288901649" lon="120.91630622424141"><ele>10.0</ele><time>2026-04-04T05:26:55Z</time></trkpt><trkpt lat="13.879841697229425" lon="120.91624659822271"><ele>10.0</ele><time>2026-04-04T05:26:57Z</time></trkpt><trkpt lat="13.879948005242603" lon="120.91617513605729"><ele>10.0</ele><time>2026-04-04T05:26:59Z</time></trkpt><trkpt lat="13.880004617844325" lon="120.9161367516839"><ele>10.0</ele><time>2026-04-04T05:27:00Z</time></trkpt><trkpt lat="13.880109755439587" lon="120.9160818626632"><ele>10.0</ele><time>2026-04-04T05:27:02Z</time></trkpt><trkpt lat="13.880168413892562" lon="120.91604782328287"><ele>10.0</ele><time>2026-04-04T05:27:03Z</time></trkpt><trkpt lat="13.88027681124214" lon="120.91597679164065"><ele>10.0</ele><time>2026-04-04T05:27:05Z</time></trkpt><trkpt lat="13.880331606037718" lon="120.91594092649231"><ele>10.0</ele><time>2026-04-04T05:27:06Z</time></trkpt><trkpt lat="13.880417110500193" lon="120.91588006262421"><ele>10.0</ele><time>2026-04-04T05:27:08Z</time></trkpt><trkpt lat="13.880493950497183" lon="120.91583316691045"><ele>10.0</ele><time>2026-04-04T05:27:10Z</time></trkpt><trkpt lat="13.880569326837" lon="120.91578023670125"><ele>10.0</ele><time>2026-04-04T05:27:12Z</time></trkpt><trkpt lat="13.880641327705774" lon="120.91573725858947"><ele>10.0</ele><time>2026-04-04T05:27:14Z</time></trkpt><trkpt lat="13.880720781663706" lon="120.91568358569013"><ele>10.0</ele><time>2026-04-04T05:27:16Z</time></trkpt><trkpt lat="13.880798021103107" lon="120.9156326845151"><ele>10.0</ele><time>2026-04-04T05:27:18Z</time></trkpt><trkpt lat="13.880851950657362" lon="120.91559694078266"><ele>10.0</ele><time>2026-04-04T05:27:20Z</time></trkpt><trkpt lat="13.880938843851768" lon="120.91554285339654"><ele>10.0</ele><time>2026-04-04T05:27:23Z</time></trkpt><trkpt lat="13.881027062173033" lon="120.91548103795164"><ele>10.0</ele><time>2026-04-04T05:27:25Z</time></trkpt><trkpt lat="13.88111673693333" lon="120.9154195858037"><ele>9.6</ele><time>2026-04-04T05:27:27Z</time></trkpt><trkpt lat="13.88121822848983" lon="120.91534912587825"><ele>9.2</ele><time>2026-04-04T05:27:29Z</time></trkpt><trkpt lat="13.881309763450023" lon="120.91529837490134"><ele>8.8</ele><time>2026-04-04T05:27:31Z</time></trkpt><trkpt lat="13.881379221667531" lon="120.9152634153605"><ele>8.4</ele><time>2026-04-04T05:27:33Z</time></trkpt><trkpt lat="13.881461187395363" lon="120.9152091248505"><ele>8.0</ele><time>2026-04-04T05:27:35Z</time></trkpt><trkpt lat="13.881569433672276" lon="120.91513899615298"><ele>7.999999999999999</ele><time>2026-04-04T05:27:37Z</time></trkpt><trkpt lat="13.881624030521968" lon="120.9150932157777"><ele>8.0</ele><time>2026-04-04T05:27:38.001Z</time></trkpt><trkpt lat="13.881696789084277" lon="120.91505000596777"><ele>8.0</ele><time>2026-04-04T05:27:39.001Z</time></trkpt><trkpt lat="13.881758375811945" lon="120.91501050034898"><ele>8.0</ele><time>2026-04-04T05:27:40.001Z</time></trkpt><trkpt lat="13.881827574105907" lon="120.9149646502788"><ele>7.999999999999999</ele><time>2026-04-04T05:27:41.001Z</time></trkpt><trkpt lat="13.881892072217406" lon="120.91492810128082"><ele>8.0</ele><time>2026-04-04T05:27:42.001Z</time></trkpt><trkpt lat="13.88195720321273" lon="120.91488639067698"><ele>8.600000000000001</ele><time>2026-04-04T05:27:43.001Z</time></trkpt><trkpt lat="13.882023331307357" lon="120.91484636158097"><ele>9.200000000000001</ele><time>2026-04-04T05:27:44.001Z</time></trkpt><trkpt lat="13.882082886961612" lon="120.91480252199337"><ele>9.8</ele><time>2026-04-04T05:27:45.001Z</time></trkpt><trkpt lat="13.882142440879035" lon="120.91476194431776"><ele>10.4</ele><time>2026-04-04T05:27:46.001Z</time></trkpt><trkpt lat="13.882241176001585" lon="120.91469879876732"><ele>11.0</ele><time>2026-04-04T05:27:48.001Z</time></trkpt><trkpt lat="13.88234635533609" lon="120.91463141081536"><ele>11.0</ele><time>2026-04-04T05:27:50.001Z</time></trkpt><trkpt lat="13.882443950817805" lon="120.91455676164072"><ele>11.0</ele><time>2026-04-04T05:27:52.001Z</time></trkpt><trkpt lat="13.882528530675286" lon="120.91450726341306"><ele>11.0</ele><time>2026-04-04T05:27:54.001Z</time></trkpt><trkpt lat="13.882600883796808" lon="120.91446075960992"><ele>11.0</ele><time>2026-04-04T05:27:56.001Z</time></trkpt><trkpt lat="13.882691132410994" lon="120.9144034548731"><ele>11.0</ele><time>2026-04-04T05:27:58.001Z</time></trkpt><trkpt lat="13.88276879398082" lon="120.91434811080407"><ele>11.0</ele><time>2026-04-04T05:28:00.001Z</time></trkpt><trkpt lat="13.882837737135455" lon="120.91430238506902"><ele>11.0</ele><time>2026-04-04T05:28:02.001Z</time></trkpt><trkpt lat="13.882892506969696" lon="120.91426003237989"><ele>11.0</ele><time>2026-04-04T05:28:04.001Z</time></trkpt><trkpt lat="13.8829515351731" lon="120.91422566757487"><ele>11.0</ele><time>2026-04-04T05:28:06.001Z</time></trkpt><trkpt lat="13.883042798932369" lon="120.91416295565791"><ele>11.0</ele><time>2026-04-04T05:28:08.001Z</time></trkpt><trkpt lat="13.883098008290638" lon="120.91412944286985"><ele>11.0</ele><time>2026-04-04T05:28:09.001Z</time></trkpt><trkpt lat="13.883206368147288" lon="120.91405859545833"><ele>11.0</ele><time>2026-04-04T05:28:11.001Z</time></trkpt><trkpt lat="13.883311993862414" lon="120.91398811619834"><ele>11.0</ele><time>2026-04-04T05:28:13.001Z</time></trkpt><trkpt lat="13.883366855681754" lon="120.91394829263645"><ele>11.0</ele><time>2026-04-04T05:28:14.001Z</time></trkpt><trkpt lat="13.883426280676717" lon="120.91390522238795"><ele>11.0</ele><time>2026-04-04T05:28:15.001Z</time></trkpt><trkpt lat="13.88348660753172" lon="120.91386349066215"><ele>11.0</ele><time>2026-04-04T05:28:16.001Z</time></trkpt><trkpt lat="13.88354864252204" lon="120.91382104381057"><ele>11.0</ele><time>2026-04-04T05:28:17.001Z</time></trkpt><trkpt lat="13.883607780164304" lon="120.91377420947352"><ele>10.833333333333332</ele><time>2026-04-04T05:28:18.001Z</time></trkpt><trkpt lat="13.883672194268105" lon="120.91372712328901"><ele>10.666666666666666</ele><time>2026-04-04T05:28:19.001Z</time></trkpt><trkpt lat="13.883741448168811" lon="120.91367935135835"><ele>10.5</ele><time>2026-04-04T05:28:20.001Z</time></trkpt><trkpt lat="13.883821836518282" lon="120.91362670513452"><ele>10.333333333333334</ele><time>2026-04-04T05:28:21.001Z</time></trkpt><trkpt lat="13.883890003534242" lon="120.913584386875"><ele>10.166666666666668</ele><time>2026-04-04T05:28:22.001Z</time></trkpt><trkpt lat="13.883945599217231" lon="120.91354909678618"><ele>10.0</ele><time>2026-04-04T05:28:23.001Z</time></trkpt><trkpt lat="13.884002298374776" lon="120.91350500735922"><ele>10.0</ele><time>2026-04-04T05:28:24.001Z</time></trkpt><trkpt lat="13.88409374438896" lon="120.91344392456321"><ele>10.0</ele><time>2026-04-04T05:28:26.001Z</time></trkpt><trkpt lat="13.88416711116958" lon="120.91339295944617"><ele>10.0</ele><time>2026-04-04T05:28:28.001Z</time></trkpt><trkpt lat="13.884234976385239" lon="120.91334864412778"><ele>10.0</ele><time>2026-04-04T05:28:30.001Z</time></trkpt><trkpt lat="13.88430484952661" lon="120.91329992294132"><ele>10.0</ele><time>2026-04-04T05:28:32.001Z</time></trkpt><trkpt lat="13.884391834286362" lon="120.91324429842487"><ele>10.0</ele><time>2026-04-04T05:28:34.001Z</time></trkpt><trkpt lat="13.884475526611151" lon="120.91318451243657"><ele>10.0</ele><time>2026-04-04T05:28:36.001Z</time></trkpt><trkpt lat="13.884546584292194" lon="120.91313983629696"><ele>10.0</ele><time>2026-04-04T05:28:38.001Z</time></trkpt><trkpt lat="13.884631050431487" lon="120.9130827753282"><ele>10.0</ele><time>2026-04-04T05:28:40.001Z</time></trkpt><trkpt lat="13.884699138099428" lon="120.91303516409724"><ele>10.0</ele><time>2026-04-04T05:28:42.001Z</time></trkpt><trkpt lat="13.88477591703557" lon="120.9129850721815"><ele>10.0</ele><time>2026-04-04T05:28:44.001Z</time></trkpt><trkpt lat="13.8848603213827" lon="120.9129335889572"><ele>10.0</ele><time>2026-04-04T05:28:46.001Z</time></trkpt><trkpt lat="13.88495323131055" lon="120.91286770104377"><ele>10.0</ele><time>2026-04-04T05:28:48.001Z</time></trkpt><trkpt lat="13.885048125739942" lon="120.9128013466744"><ele>10.0</ele><time>2026-04-04T05:28:50.001Z</time></trkpt><trkpt lat="13.885152642690477" lon="120.91273483777707"><ele>10.0</ele><time>2026-04-04T05:28:52Z</time></trkpt><trkpt lat="13.885209201930229" lon="120.91269691715252"><ele>9.833333333333334</ele><time>2026-04-04T05:28:53Z</time></trkpt><trkpt lat="13.885266163762385" lon="120.91265667259214"><ele>9.666666666666668</ele><time>2026-04-04T05:28:54Z</time></trkpt><trkpt lat="13.88532761470125" lon="120.91261471909577"><ele>9.5</ele><time>2026-04-04T05:28:55Z</time></trkpt><trkpt lat="13.885396504044534" lon="120.9125666457125"><ele>9.333333333333334</ele><time>2026-04-04T05:28:56Z</time></trkpt><trkpt lat="13.885473354027486" lon="120.91251631849002"><ele>9.166666666666666</ele><time>2026-04-04T05:28:57Z</time></trkpt><trkpt lat="13.885552562180322" lon="120.91247310704011"><ele>9.0</ele><time>2026-04-04T05:28:58Z</time></trkpt><trkpt lat="13.885614847881142" lon="120.9124327153677"><ele>9.0</ele><time>2026-04-04T05:28:59Z</time></trkpt><trkpt lat="13.885672322002955" lon="120.91238808556506"><ele>9.0</ele><time>2026-04-04T05:29:01Z</time></trkpt><trkpt lat="13.885757362181742" lon="120.91233196898737"><ele>9.0</ele><time>2026-04-04T05:29:05Z</time></trkpt><trkpt lat="13.885849618226214" lon="120.91227383472291"><ele>9.0</ele><time>2026-04-04T05:29:07Z</time></trkpt><trkpt lat="13.885913836064958" lon="120.91222847917383"><ele>9.0</ele><time>2026-04-04T05:29:08Z</time></trkpt><trkpt lat="13.88599986474741" lon="120.91218840006368"><ele>9.2</ele><time>2026-04-04T05:29:09Z</time></trkpt><trkpt lat="13.886080552093627" lon="120.91214445457408"><ele>9.4</ele><time>2026-04-04T05:29:10Z</time></trkpt><trkpt lat="13.886154346971175" lon="120.91208359429771"><ele>9.6</ele><time>2026-04-04T05:29:11Z</time></trkpt><trkpt lat="13.88623081984562" lon="120.91202933226376"><ele>9.8</ele><time>2026-04-04T05:29:12Z</time></trkpt><trkpt lat="13.886308261103393" lon="120.91197797002602"><ele>10.0</ele><time>2026-04-04T05:29:13Z</time></trkpt><trkpt lat="13.88639335988147" lon="120.91192172612125"><ele>10.0</ele><time>2026-04-04T05:29:14Z</time></trkpt><trkpt lat="13.886488575600136" lon="120.91186664823263"><ele>10.0</ele><time>2026-04-04T05:29:15Z</time></trkpt><trkpt lat="13.886578495869047" lon="120.9118134583153"><ele>10.0</ele><time>2026-04-04T05:29:16Z</time></trkpt><trkpt lat="13.886668065352671" lon="120.9117576369685"><ele>10.0</ele><time>2026-04-04T05:29:17Z</time></trkpt><trkpt lat="13.886749901139602" lon="120.91170234987821"><ele>10.0</ele><time>2026-04-04T05:29:18Z</time></trkpt><trkpt lat="13.886834290961298" lon="120.91165216495418"><ele>9.666666666666668</ele><time>2026-04-04T05:29:19Z</time></trkpt><trkpt lat="13.886917962375572" lon="120.91160322014682"><ele>9.333333333333334</ele><time>2026-04-04T05:29:20Z</time></trkpt><trkpt lat="13.886997657734202" lon="120.9115485983528"><ele>9.0</ele><time>2026-04-04T05:29:21Z</time></trkpt><trkpt lat="13.88707355739934" lon="120.9114960158947"><ele>8.666666666666666</ele><time>2026-04-04T05:29:22Z</time></trkpt><trkpt lat="13.887137166120858" lon="120.91145658907702"><ele>8.333333333333332</ele><time>2026-04-04T05:29:23Z</time></trkpt><trkpt lat="13.887198731430669" lon="120.91141219571342"><ele>8.0</ele><time>2026-04-04T05:29:24Z</time></trkpt><trkpt lat="13.88727591603196" lon="120.91135062886266"><ele>7.999999999999999</ele><time>2026-04-04T05:29:26Z</time></trkpt><trkpt lat="13.88732841103072" lon="120.91131320831724"><ele>8.0</ele><time>2026-04-04T05:29:28Z</time></trkpt><trkpt lat="13.887427888441467" lon="120.91126257940734"><ele>8.0</ele><time>2026-04-04T05:29:30Z</time></trkpt><trkpt lat="13.887492324747226" lon="120.91122473033568"><ele>8.0</ele><time>2026-04-04T05:29:31Z</time></trkpt><trkpt lat="13.887564954210555" lon="120.91117707994376"><ele>7.999999999999999</ele><time>2026-04-04T05:29:32Z</time></trkpt><trkpt lat="13.887637504557427" lon="120.91112924607931"><ele>8.0</ele><time>2026-04-04T05:29:33Z</time></trkpt><trkpt lat="13.887712353534093" lon="120.9110795425017"><ele>7.800000000000001</ele><time>2026-04-04T05:29:34Z</time></trkpt><trkpt lat="13.887795631806" lon="120.91102693707928"><ele>7.6000000000000005</ele><time>2026-04-04T05:29:35Z</time></trkpt><trkpt lat="13.887880898842585" lon="120.91097151603304"><ele>7.3999999999999995</ele><time>2026-04-04T05:29:36Z</time></trkpt><trkpt lat="13.887970253632108" lon="120.91091575076697"><ele>7.199999999999999</ele><time>2026-04-04T05:29:37Z</time></trkpt><trkpt lat="13.888062596448524" lon="120.91085276888225"><ele>7.0</ele><time>2026-04-04T05:29:38.001Z</time></trkpt><trkpt lat="13.888159970630669" lon="120.91078825288254"><ele>6.75</ele><time>2026-04-04T05:29:39.001Z</time></trkpt><trkpt lat="13.888257702865667" lon="120.91072277925008"><ele>6.5</ele><time>2026-04-04T05:29:40.001Z</time></trkpt><trkpt lat="13.888363786178973" lon="120.91065472031839"><ele>6.25</ele><time>2026-04-04T05:29:41.001Z</time></trkpt><trkpt lat="13.888461820475065" lon="120.9105856607532"><ele>6.0</ele><time>2026-04-04T05:29:42.001Z</time></trkpt><trkpt lat="13.888562699206688" lon="120.91051602621864"><ele>5.75</ele><time>2026-04-04T05:29:43.001Z</time></trkpt><trkpt lat="13.888663695551399" lon="120.9104451763847"><ele>5.5</ele><time>2026-04-04T05:29:44.001Z</time></trkpt><trkpt lat="13.888766960691452" lon="120.91037681577907"><ele>5.25</ele><time>2026-04-04T05:29:45.001Z</time></trkpt><trkpt lat="13.888869720663724" lon="120.91031169219289"><ele>5.0</ele><time>2026-04-04T05:29:46.001Z</time></trkpt><trkpt lat="13.888974777799108" lon="120.91024459551406"><ele>5.0</ele><time>2026-04-04T05:29:47.001Z</time></trkpt><trkpt lat="13.8890819519" lon="120.91017848980081"><ele>5.0</ele><time>2026-04-04T05:29:48.001Z</time></trkpt><trkpt lat="13.889186721477417" lon="120.91011002988232"><ele>5.0</ele><time>2026-04-04T05:29:49.001Z</time></trkpt><trkpt lat="13.889298107763274" lon="120.91003512429836"><ele>5.0</ele><time>2026-04-04T05:29:50.001Z</time></trkpt><trkpt lat="13.889404062230962" lon="120.9099695389018"><ele>5.0</ele><time>2026-04-04T05:29:51.001Z</time></trkpt><trkpt lat="13.889508058970025" lon="120.9099079676606"><ele>5.0</ele><time>2026-04-04T05:29:52.001Z</time></trkpt><trkpt lat="13.889603059936178" lon="120.90985290183619"><ele>5.0</ele><time>2026-04-04T05:29:53.001Z</time></trkpt><trkpt lat="13.889693472216683" lon="120.9098028208639"><ele>5.0</ele><time>2026-04-04T05:29:54.001Z</time></trkpt><trkpt lat="13.889786831433513" lon="120.90974808514981"><ele>5.0</ele><time>2026-04-04T05:29:55.001Z</time></trkpt><trkpt lat="13.88987502924667" lon="120.90969561215694"><ele>5.0</ele><time>2026-04-04T05:29:56.001Z</time></trkpt><trkpt lat="13.889954176596303" lon="120.90964711991602"><ele>5.0</ele><time>2026-04-04T05:29:57.001Z</time></trkpt><trkpt lat="13.890027730027553" lon="120.90960315273631"><ele>5.0</ele><time>2026-04-04T05:29:58.001Z</time></trkpt><trkpt lat="13.890100706074831" lon="120.90956177976858"><ele>5.0</ele><time>2026-04-04T05:29:59.001Z</time></trkpt><trkpt lat="13.890178923340127" lon="120.90951293049999"><ele>5.0</ele><time>2026-04-04T05:30:00.001Z</time></trkpt><trkpt lat="13.890257675946305" lon="120.90946680288644"><ele>5.0</ele><time>2026-04-04T05:30:01.001Z</time></trkpt><trkpt lat="13.890340957683827" lon="120.90941964439432"><ele>5.4</ele><time>2026-04-04T05:30:02.001Z</time></trkpt><trkpt lat="13.89042782034442" lon="120.9093696695757"><ele>5.8</ele><time>2026-04-04T05:30:03.001Z</time></trkpt><trkpt lat="13.890513669847069" lon="120.90932011063116"><ele>6.199999999999999</ele><time>2026-04-04T05:30:04.001Z</time></trkpt><trkpt lat="13.890601435908927" lon="120.90926965574653"><ele>6.6</ele><time>2026-04-04T05:30:05.001Z</time></trkpt><trkpt lat="13.890695653885462" lon="120.90921512732535"><ele>7.0</ele><time>2026-04-04T05:30:06.001Z</time></trkpt><trkpt lat="13.890788623426285" lon="120.90916006385011"><ele>7.0</ele><time>2026-04-04T05:30:07.001Z</time></trkpt><trkpt lat="13.890886073690213" lon="120.90910539013947"><ele>6.999999999999999</ele><time>2026-04-04T05:30:08.001Z</time></trkpt><trkpt lat="13.890985416805059" lon="120.9090483754793"><ele>6.999999999999999</ele><time>2026-04-04T05:30:09.001Z</time></trkpt><trkpt lat="13.891084907365046" lon="120.90899282573395"><ele>7.0</ele><time>2026-04-04T05:30:10.001Z</time></trkpt><trkpt lat="13.891174480072278" lon="120.90894179973256"><ele>7.0</ele><time>2026-04-04T05:30:11.001Z</time></trkpt><trkpt lat="13.891271613143896" lon="120.90888652596082"><ele>7.199999999999999</ele><time>2026-04-04T05:30:12.001Z</time></trkpt><trkpt lat="13.891365060614953" lon="120.90883473775898"><ele>7.3999999999999995</ele><time>2026-04-04T05:30:13.001Z</time></trkpt><trkpt lat="13.891458193209099" lon="120.90878501158663"><ele>7.6000000000000005</ele><time>2026-04-04T05:30:14.001Z</time></trkpt><trkpt lat="13.891555056776635" lon="120.90872694988508"><ele>7.800000000000001</ele><time>2026-04-04T05:30:15.001Z</time></trkpt><trkpt lat="13.891655603211477" lon="120.90866692283912"><ele>8.0</ele><time>2026-04-04T05:30:16.001Z</time></trkpt><trkpt lat="13.891745279249823" lon="120.90861389443803"><ele>7.5</ele><time>2026-04-04T05:30:17.001Z</time></trkpt><trkpt lat="13.891841001397701" lon="120.90855631263138"><ele>7.0</ele><time>2026-04-04T05:30:18.001Z</time></trkpt><trkpt lat="13.891938840154145" lon="120.9084973933163"><ele>6.5</ele><time>2026-04-04T05:30:19.001Z</time></trkpt><trkpt lat="13.892037692804319" lon="120.9084377944384"><ele>6.0</ele><time>2026-04-04T05:30:20.001Z</time></trkpt><trkpt lat="13.892134703046848" lon="120.90837658954591"><ele>6.0</ele><time>2026-04-04T05:30:21.001Z</time></trkpt><trkpt lat="13.892233897729952" lon="120.90831826494536"><ele>6.0</ele><time>2026-04-04T05:30:22.001Z</time></trkpt><trkpt lat="13.892332786923095" lon="120.90825543507952"><ele>6.0</ele><time>2026-04-04T05:30:23.001Z</time></trkpt><trkpt lat="13.892430872573042" lon="120.90819628384476"><ele>6.0</ele><time>2026-04-04T05:30:24.001Z</time></trkpt><trkpt lat="13.892532577347176" lon="120.90813608724238"><ele>6.0</ele><time>2026-04-04T05:30:25.001Z</time></trkpt><trkpt lat="13.892627156889358" lon="120.9080757817176"><ele>6.0</ele><time>2026-04-04T05:30:26.001Z</time></trkpt><trkpt lat="13.892727402873012" lon="120.90801807510614"><ele>6.0</ele><time>2026-04-04T05:30:27.001Z</time></trkpt><trkpt lat="13.892823824747126" lon="120.9079617409249"><ele>6.0</ele><time>2026-04-04T05:30:28.001Z</time></trkpt><trkpt lat="13.892922782531173" lon="120.90790537561587"><ele>6.0</ele><time>2026-04-04T05:30:29.001Z</time></trkpt><trkpt lat="13.893018190790208" lon="120.90784987281927"><ele>6.0</ele><time>2026-04-04T05:30:30.001Z</time></trkpt><trkpt lat="13.893115047301183" lon="120.90779929886946"><ele>6.0</ele><time>2026-04-04T05:30:31.001Z</time></trkpt><trkpt lat="13.893211562270375" lon="120.9077449559429"><ele>6.0</ele><time>2026-04-04T05:30:32.001Z</time></trkpt><trkpt lat="13.893305910083882" lon="120.9076950913079"><ele>6.0</ele><time>2026-04-04T05:30:33.001Z</time></trkpt><trkpt lat="13.893398194866782" lon="120.90764655628537"><ele>6.0</ele><time>2026-04-04T05:30:34.001Z</time></trkpt><trkpt lat="13.89349267175212" lon="120.90759707289864"><ele>6.0</ele><time>2026-04-04T05:30:35.001Z</time></trkpt><trkpt lat="13.893588308398845" lon="120.90754647824019"><ele>6.0</ele><time>2026-04-04T05:30:36.001Z</time></trkpt><trkpt lat="13.893683860914296" lon="120.90750005728823"><ele>6.0</ele><time>2026-04-04T05:30:37.001Z</time></trkpt><trkpt lat="13.893765478648959" lon="120.90745777160845"><ele>6.0</ele><time>2026-04-04T05:30:38.001Z</time></trkpt><trkpt lat="13.893845307062639" lon="120.9074218131052"><ele>6.285714285714285</ele><time>2026-04-04T05:30:39.001Z</time></trkpt><trkpt lat="13.89391479258212" lon="120.90738528996133"><ele>6.571428571428571</ele><time>2026-04-04T05:30:40.001Z</time></trkpt><trkpt lat="13.893980452046963" lon="120.9073531236563"><ele>6.857142857142857</ele><time>2026-04-04T05:30:41.001Z</time></trkpt><trkpt lat="13.894044730401333" lon="120.90732326952627"><ele>7.142857142857142</ele><time>2026-04-04T05:30:42.001Z</time></trkpt><trkpt lat="13.894117642966313" lon="120.90729290802149"><ele>7.428571428571428</ele><time>2026-04-04T05:30:43.001Z</time></trkpt><trkpt lat="13.894184772419198" lon="120.90726078254346"><ele>7.7142857142857135</ele><time>2026-04-04T05:30:44.001Z</time></trkpt><trkpt lat="13.894249202836205" lon="120.90723442523465"><ele>8.0</ele><time>2026-04-04T05:30:45.001Z</time></trkpt><trkpt lat="13.894309106089638" lon="120.9072054998374"><ele>8.166666666666666</ele><time>2026-04-04T05:30:46.001Z</time></trkpt><trkpt lat="13.894378879506196" lon="120.90717535727472"><ele>8.333333333333332</ele><time>2026-04-04T05:30:47.001Z</time></trkpt><trkpt lat="13.894451858075202" lon="120.90714052698455"><ele>8.5</ele><time>2026-04-04T05:30:48.001Z</time></trkpt><trkpt lat="13.894527638820975" lon="120.90710590162332"><ele>8.666666666666666</ele><time>2026-04-04T05:30:49.001Z</time></trkpt><trkpt lat="13.894604875985792" lon="120.90706832786162"><ele>8.833333333333334</ele><time>2026-04-04T05:30:50.001Z</time></trkpt><trkpt lat="13.894671443981267" lon="120.90703353698787"><ele>9.0</ele><time>2026-04-04T05:30:51.001Z</time></trkpt><trkpt lat="13.894733234095678" lon="120.90699655959052"><ele>9.0</ele><time>2026-04-04T05:30:52.001Z</time></trkpt><trkpt lat="13.89480434249596" lon="120.90695593899314"><ele>9.0</ele><time>2026-04-04T05:30:53.001Z</time></trkpt><trkpt lat="13.894871039200805" lon="120.90691445990586"><ele>9.0</ele><time>2026-04-04T05:30:54.001Z</time></trkpt><trkpt lat="13.894947284611199" lon="120.90686977399808"><ele>9.0</ele><time>2026-04-04T05:30:55.001Z</time></trkpt><trkpt lat="13.895021096943003" lon="120.90682289019435"><ele>9.0</ele><time>2026-04-04T05:30:56.001Z</time></trkpt><trkpt lat="13.895101768535614" lon="120.90676727135052"><ele>9.0</ele><time>2026-04-04T05:30:57Z</time></trkpt><trkpt lat="13.895177540058114" lon="120.90671213070522"><ele>8.833333333333334</ele><time>2026-04-04T05:30:58Z</time></trkpt><trkpt lat="13.89524899745424" lon="120.9066567307917"><ele>8.666666666666666</ele><time>2026-04-04T05:30:59Z</time></trkpt><trkpt lat="13.895320452754765" lon="120.90660258157472"><ele>8.5</ele><time>2026-04-04T05:31:00Z</time></trkpt><trkpt lat="13.895385445480914" lon="120.90655062499903"><ele>8.333333333333332</ele><time>2026-04-04T05:31:01Z</time></trkpt><trkpt lat="13.895454038718462" lon="120.90649531451896"><ele>8.166666666666666</ele><time>2026-04-04T05:31:02Z</time></trkpt><trkpt lat="13.895513376743109" lon="120.90643891998243"><ele>8.0</ele><time>2026-04-04T05:31:03Z</time></trkpt><trkpt lat="13.895567512006277" lon="120.90638088648703"><ele>8.0</ele><time>2026-04-04T05:31:04Z</time></trkpt><trkpt lat="13.895627542711441" lon="120.90632330633808"><ele>8.0</ele><time>2026-04-04T05:31:05Z</time></trkpt><trkpt lat="13.895679530015471" lon="120.90628032526142"><ele>8.0</ele><time>2026-04-04T05:31:06Z</time></trkpt><trkpt lat="13.895769352251335" lon="120.90618672497932"><ele>8.0</ele><time>2026-04-04T05:31:08Z</time></trkpt><trkpt lat="13.895819967051056" lon="120.90613447702913"><ele>8.0</ele><time>2026-04-04T05:31:09Z</time></trkpt><trkpt lat="13.895905576667435" lon="120.90606279488816"><ele>7.999999999999999</ele><time>2026-04-04T05:31:11Z</time></trkpt><trkpt lat="13.895964609455595" lon="120.90602135297017"><ele>8.0</ele><time>2026-04-04T05:31:13Z</time></trkpt><trkpt lat="13.896015961457419" lon="120.90597455642217"><ele>8.0</ele><time>2026-04-04T05:31:17Z</time></trkpt><trkpt lat="13.896065966290433" lon="120.90592851534221"><ele>8.0</ele><time>2026-04-04T05:31:25Z</time></trkpt><trkpt lat="13.896123649932692" lon="120.90588052474222"><ele>7.999999999999999</ele><time>2026-04-04T05:31:27Z</time></trkpt><trkpt lat="13.896202985858494" lon="120.90577339019576"><ele>8.0</ele><time>2026-04-04T05:31:29Z</time></trkpt><trkpt lat="13.896237109661298" lon="120.90570545001253"><ele>8.333333333333332</ele><time>2026-04-04T05:31:30Z</time></trkpt><trkpt lat="13.896280378854737" lon="120.9056264165172"><ele>8.666666666666666</ele><time>2026-04-04T05:31:31Z</time></trkpt><trkpt lat="13.89631439232763" lon="120.90555383197787"><ele>9.0</ele><time>2026-04-04T05:31:32Z</time></trkpt><trkpt lat="13.896357441782826" lon="120.90547897342779"><ele>9.333333333333334</ele><time>2026-04-04T05:31:33Z</time></trkpt><trkpt lat="13.896400622766086" lon="120.90540666097507"><ele>9.666666666666668</ele><time>2026-04-04T05:31:34Z</time></trkpt><trkpt lat="13.896448710921911" lon="120.90533697391334"><ele>10.0</ele><time>2026-04-04T05:31:35.001Z</time></trkpt><trkpt lat="13.896490239109294" lon="120.90527673349533"><ele>10.0</ele><time>2026-04-04T05:31:36.001Z</time></trkpt><trkpt lat="13.896532313690455" lon="120.90521984777168"><ele>10.0</ele><time>2026-04-04T05:31:37.001Z</time></trkpt><trkpt lat="13.896605190696695" lon="120.90512904908915"><ele>10.0</ele><time>2026-04-04T05:31:39.001Z</time></trkpt><trkpt lat="13.896655535084802" lon="120.9050685516711"><ele>10.0</ele><time>2026-04-04T05:31:41.001Z</time></trkpt><trkpt lat="13.896700315465916" lon="120.90500851687145"><ele>10.0</ele><time>2026-04-04T05:31:43.001Z</time></trkpt><trkpt lat="13.896748882682019" lon="120.90495057849205"><ele>10.0</ele><time>2026-04-04T05:31:46.001Z</time></trkpt><trkpt lat="13.896803326375062" lon="120.90487330143355"><ele>9.8</ele><time>2026-04-04T05:31:48.001Z</time></trkpt><trkpt lat="13.896866757490345" lon="120.9047712370805"><ele>9.6</ele><time>2026-04-04T05:31:50.001Z</time></trkpt><trkpt lat="13.896942192515937" lon="120.90468352285164"><ele>9.4</ele><time>2026-04-04T05:31:52.001Z</time></trkpt><trkpt lat="13.897014877658185" lon="120.90459152552256"><ele>9.2</ele><time>2026-04-04T05:31:54.001Z</time></trkpt><trkpt lat="13.89707294170463" lon="120.9045188111394"><ele>9.0</ele><time>2026-04-04T05:31:56.001Z</time></trkpt><trkpt lat="13.897133794561798" lon="120.90444447855423"><ele>9.0</ele><time>2026-04-04T05:31:59.001Z</time></trkpt><trkpt lat="13.897178003992972" lon="120.90439355969237"><ele>9.0</ele><time>2026-04-04T05:32:01.001Z</time></trkpt><trkpt lat="13.897229042501923" lon="120.90433077969894"><ele>9.0</ele><time>2026-04-04T05:32:03.001Z</time></trkpt><trkpt lat="13.897271056211231" lon="120.90428044929153"><ele>9.0</ele><time>2026-04-04T05:32:05.001Z</time></trkpt><trkpt lat="13.897323253473711" lon="120.9042198115382"><ele>9.0</ele><time>2026-04-04T05:32:07.001Z</time></trkpt><trkpt lat="13.897410574136611" lon="120.90412671168586"><ele>9.0</ele><time>2026-04-04T05:32:09.001Z</time></trkpt><trkpt lat="13.897461270423426" lon="120.90407697012914"><ele>9.2</ele><time>2026-04-04T05:32:11.001Z</time></trkpt><trkpt lat="13.897509511480788" lon="120.90401502580566"><ele>9.4</ele><time>2026-04-04T05:32:12.001Z</time></trkpt><trkpt lat="13.897566026272628" lon="120.90393195981238"><ele>9.6</ele><time>2026-04-04T05:32:14.001Z</time></trkpt><trkpt lat="13.897614088330052" lon="120.90386127764408"><ele>9.8</ele><time>2026-04-04T05:32:16.001Z</time></trkpt><trkpt lat="13.89767703883433" lon="120.9037780228921"><ele>10.0</ele><time>2026-04-04T05:32:18.001Z</time></trkpt><trkpt lat="13.897739053527928" lon="120.903693137059"><ele>10.2</ele><time>2026-04-04T05:32:20.001Z</time></trkpt><trkpt lat="13.897817772779756" lon="120.90360861240573"><ele>10.4</ele><time>2026-04-04T05:32:22.001Z</time></trkpt><trkpt lat="13.897857242748168" lon="120.90355707363929"><ele>10.600000000000001</ele><time>2026-04-04T05:32:23.001Z</time></trkpt><trkpt lat="13.897932083203923" lon="120.90346300775937"><ele>10.8</ele><time>2026-04-04T05:32:25.001Z</time></trkpt><trkpt lat="13.897987099418863" lon="120.90338937609943"><ele>11.0</ele><time>2026-04-04T05:32:27.001Z</time></trkpt><trkpt lat="13.898035817025459" lon="120.90331905545615"><ele>10.5</ele><time>2026-04-04T05:32:29.001Z</time></trkpt><trkpt lat="13.898077894756689" lon="120.90325762759981"><ele>10.0</ele><time>2026-04-04T05:32:31.001Z</time></trkpt><trkpt lat="13.898124728161035" lon="120.90320528488537"><ele>9.5</ele><time>2026-04-04T05:32:33.001Z</time></trkpt><trkpt lat="13.898177327282584" lon="120.903137630182"><ele>9.0</ele><time>2026-04-04T05:32:36.001Z</time></trkpt><trkpt lat="13.898230336385405" lon="120.90307163211857"><ele>8.5</ele><time>2026-04-04T05:32:39.001Z</time></trkpt><trkpt lat="13.898267504439374" lon="120.90300595926793"><ele>8.0</ele><time>2026-04-04T05:32:41.001Z</time></trkpt><trkpt lat="13.898334396648252" lon="120.90294140987517"><ele>8.0</ele><time>2026-04-04T05:32:43.001Z</time></trkpt><trkpt lat="13.898400433241035" lon="120.90285610595252"><ele>8.0</ele><time>2026-04-04T05:32:45.001Z</time></trkpt><trkpt lat="13.898477438991852" lon="120.90276941245064"><ele>8.0</ele><time>2026-04-04T05:32:47.001Z</time></trkpt><trkpt lat="13.8985207217842" lon="120.90271776381857"><ele>8.0</ele><time>2026-04-04T05:32:48.001Z</time></trkpt><trkpt lat="13.898594701725663" lon="120.90263261571026"><ele>8.0</ele><time>2026-04-04T05:32:50.001Z</time></trkpt><trkpt lat="13.898671289764145" lon="120.90254094960012"><ele>8.166666666666666</ele><time>2026-04-04T05:32:52.001Z</time></trkpt><trkpt lat="13.89870912851414" lon="120.90248623287229"><ele>8.333333333333332</ele><time>2026-04-04T05:32:53.001Z</time></trkpt><trkpt lat="13.898789822366501" lon="120.90238748922721"><ele>8.5</ele><time>2026-04-04T05:32:55.001Z</time></trkpt><trkpt lat="13.898829668653251" lon="120.90233722703287"><ele>8.666666666666666</ele><time>2026-04-04T05:32:56.001Z</time></trkpt><trkpt lat="13.898873050228694" lon="120.90228201658542"><ele>8.833333333333334</ele><time>2026-04-04T05:32:57.001Z</time></trkpt><trkpt lat="13.898913376287359" lon="120.90222495040831"><ele>9.0</ele><time>2026-04-04T05:32:58.001Z</time></trkpt><trkpt lat="13.898957085379225" lon="120.90216868674256"><ele>9.0</ele><time>2026-04-04T05:32:59.001Z</time></trkpt><trkpt lat="13.899003330115372" lon="120.90211254061266"><ele>9.0</ele><time>2026-04-04T05:33:00.001Z</time></trkpt><trkpt lat="13.899048927161733" lon="120.90205018207955"><ele>9.0</ele><time>2026-04-04T05:33:01.001Z</time></trkpt><trkpt lat="13.899101208504396" lon="120.90198590171391"><ele>9.0</ele><time>2026-04-04T05:33:02.001Z</time></trkpt><trkpt lat="13.89914929762481" lon="120.90192915072986"><ele>9.0</ele><time>2026-04-04T05:33:03Z</time></trkpt><trkpt lat="13.899201448409082" lon="120.90186444497942"><ele>9.0</ele><time>2026-04-04T05:33:04Z</time></trkpt><trkpt lat="13.899256189979756" lon="120.90179802985698"><ele>9.0</ele><time>2026-04-04T05:33:05Z</time></trkpt><trkpt lat="13.899306716663293" lon="120.90173273058274"><ele>9.0</ele><time>2026-04-04T05:33:06Z</time></trkpt><trkpt lat="13.89936317581727" lon="120.90166462989669"><ele>9.0</ele><time>2026-04-04T05:33:07Z</time></trkpt><trkpt lat="13.899420063017933" lon="120.90159156856221"><ele>9.0</ele><time>2026-04-04T05:33:08Z</time></trkpt><trkpt lat="13.899474070098641" lon="120.90151954511961"><ele>9.0</ele><time>2026-04-04T05:33:09Z</time></trkpt><trkpt lat="13.89953189285192" lon="120.90144468233574"><ele>9.0</ele><time>2026-04-04T05:33:10Z</time></trkpt><trkpt lat="13.899592191718249" lon="120.90136750849894"><ele>9.0</ele><time>2026-04-04T05:33:11Z</time></trkpt><trkpt lat="13.899652700283688" lon="120.90128491168933"><ele>9.0</ele><time>2026-04-04T05:33:12Z</time></trkpt><trkpt lat="13.899723029108825" lon="120.90119974516658"><ele>9.0</ele><time>2026-04-04T05:33:13Z</time></trkpt><trkpt lat="13.899794107156414" lon="120.90111524007678"><ele>9.0</ele><time>2026-04-04T05:33:14Z</time></trkpt><trkpt lat="13.899869673161806" lon="120.9010247465508"><ele>9.0</ele><time>2026-04-04T05:33:15Z</time></trkpt><trkpt lat="13.899947323116715" lon="120.9009341429444"><ele>9.25</ele><time>2026-04-04T05:33:16Z</time></trkpt><trkpt lat="13.900022239753532" lon="120.90083646247255"><ele>9.5</ele><time>2026-04-04T05:33:17Z</time></trkpt><trkpt lat="13.900098958239411" lon="120.90074196996487"><ele>9.75</ele><time>2026-04-04T05:33:18Z</time></trkpt><trkpt lat="13.900175557608483" lon="120.90064415920389"><ele>10.0</ele><time>2026-04-04T05:33:19Z</time></trkpt><trkpt lat="13.900248579642483" lon="120.90054939090884"><ele>10.75</ele><time>2026-04-04T05:33:20Z</time></trkpt><trkpt lat="13.900316976737082" lon="120.90045925428765"><ele>11.5</ele><time>2026-04-04T05:33:21Z</time></trkpt><trkpt lat="13.900389030584059" lon="120.90036720940799"><ele>12.25</ele><time>2026-04-04T05:33:22Z</time></trkpt><trkpt lat="13.900459110050694" lon="120.90027958634454"><ele>13.0</ele><time>2026-04-04T05:33:23Z</time></trkpt><trkpt lat="13.900531528048282" lon="120.90018837424876"><ele>13.0</ele><time>2026-04-04T05:33:24Z</time></trkpt><trkpt lat="13.900602158070129" lon="120.90009717238976"><ele>13.0</ele><time>2026-04-04T05:33:25Z</time></trkpt><trkpt lat="13.90068307512651" lon="120.90000175165444"><ele>13.0</ele><time>2026-04-04T05:33:26Z</time></trkpt><trkpt lat="13.900756898221642" lon="120.89991037763417"><ele>13.0</ele><time>2026-04-04T05:33:27Z</time></trkpt><trkpt lat="13.900831750784393" lon="120.89981452223046"><ele>12.75</ele><time>2026-04-04T05:33:28Z</time></trkpt><trkpt lat="13.900910046479105" lon="120.89971688618995"><ele>12.5</ele><time>2026-04-04T05:33:29Z</time></trkpt><trkpt lat="13.900987674804126" lon="120.89961907427639"><ele>12.25</ele><time>2026-04-04T05:33:30Z</time></trkpt><trkpt lat="13.901063086762736" lon="120.89952317745787"><ele>12.0</ele><time>2026-04-04T05:33:31Z</time></trkpt><trkpt lat="13.901142836795419" lon="120.89942342836473"><ele>12.25</ele><time>2026-04-04T05:33:32Z</time></trkpt><trkpt lat="13.901222975248807" lon="120.89932410912311"><ele>12.5</ele><time>2026-04-04T05:33:33Z</time></trkpt><trkpt lat="13.901302557867831" lon="120.89922651587689"><ele>12.75</ele><time>2026-04-04T05:33:34Z</time></trkpt><trkpt lat="13.901383665885197" lon="120.89912503106925"><ele>13.0</ele><time>2026-04-04T05:33:35Z</time></trkpt><trkpt lat="13.901466332752422" lon="120.89902241663161"><ele>13.0</ele><time>2026-04-04T05:33:36.001Z</time></trkpt><trkpt lat="13.901538257666425" lon="120.8989244412208"><ele>13.0</ele><time>2026-04-04T05:33:37.001Z</time></trkpt><trkpt lat="13.901619001278556" lon="120.89882237945932"><ele>13.0</ele><time>2026-04-04T05:33:38.001Z</time></trkpt><trkpt lat="13.901701302532395" lon="120.89871614188436"><ele>13.0</ele><time>2026-04-04T05:33:39.001Z</time></trkpt><trkpt lat="13.901777722808927" lon="120.89862107742844"><ele>13.0</ele><time>2026-04-04T05:33:40.001Z</time></trkpt><trkpt lat="13.901855205840372" lon="120.89852366369138"><ele>13.0</ele><time>2026-04-04T05:33:41.001Z</time></trkpt><trkpt lat="13.901933891262667" lon="120.89842204560618"><ele>13.0</ele><time>2026-04-04T05:33:42.001Z</time></trkpt><trkpt lat="13.90201440818154" lon="120.89831992535063"><ele>13.0</ele><time>2026-04-04T05:33:43.001Z</time></trkpt><trkpt lat="13.902092908174728" lon="120.89822348416033"><ele>13.0</ele><time>2026-04-04T05:33:44.001Z</time></trkpt><trkpt lat="13.90216954106311" lon="120.89812718666028"><ele>13.0</ele><time>2026-04-04T05:33:45.001Z</time></trkpt><trkpt lat="13.902246806981477" lon="120.89802948316957"><ele>13.0</ele><time>2026-04-04T05:33:46.001Z</time></trkpt><trkpt lat="13.902323337246468" lon="120.89793018091419"><ele>13.0</ele><time>2026-04-04T05:33:47.001Z</time></trkpt><trkpt lat="13.902396374169498" lon="120.89783623278035"><ele>13.0</ele><time>2026-04-04T05:33:48.001Z</time></trkpt><trkpt lat="13.902469780980837" lon="120.89773829441738"><ele>13.0</ele><time>2026-04-04T05:33:49.001Z</time></trkpt><trkpt lat="13.902543608740912" lon="120.89764523936016"><ele>13.0</ele><time>2026-04-04T05:33:50.001Z</time></trkpt><trkpt lat="13.902622868520723" lon="120.89754473828457"><ele>13.0</ele><time>2026-04-04T05:33:51.001Z</time></trkpt><trkpt lat="13.902694112924122" lon="120.89745156424244"><ele>13.75</ele><time>2026-04-04T05:33:52.001Z</time></trkpt><trkpt lat="13.902770553256197" lon="120.89735533918179"><ele>14.5</ele><time>2026-04-04T05:33:53.001Z</time></trkpt><trkpt lat="13.902846829013141" lon="120.89726406239215"><ele>15.25</ele><time>2026-04-04T05:33:54.001Z</time></trkpt><trkpt lat="13.902918617522703" lon="120.8971712364219"><ele>16.0</ele><time>2026-04-04T05:33:55.001Z</time></trkpt><trkpt lat="13.90299120893046" lon="120.89707639660118"><ele>16.0</ele><time>2026-04-04T05:33:56.001Z</time></trkpt><trkpt lat="13.903056855827712" lon="120.8969908912624"><ele>16.0</ele><time>2026-04-04T05:33:57.001Z</time></trkpt><trkpt lat="13.903127671776407" lon="120.89690144906943"><ele>16.0</ele><time>2026-04-04T05:33:58.001Z</time></trkpt><trkpt lat="13.903199450535253" lon="120.89680646010822"><ele>16.0</ele><time>2026-04-04T05:33:59.001Z</time></trkpt><trkpt lat="13.903265309616268" lon="120.89671717701087"><ele>16.0</ele><time>2026-04-04T05:34:00.001Z</time></trkpt><trkpt lat="13.90333312140521" lon="120.89662343422702"><ele>15.75</ele><time>2026-04-04T05:34:01.001Z</time></trkpt><trkpt lat="13.903402916009266" lon="120.89652854629466"><ele>15.5</ele><time>2026-04-04T05:34:02.001Z</time></trkpt><trkpt lat="13.903468823134629" lon="120.89643765931453"><ele>15.25</ele><time>2026-04-04T05:34:03.001Z</time></trkpt><trkpt lat="13.903546541246083" lon="120.89634176855957"><ele>15.0</ele><time>2026-04-04T05:34:04.001Z</time></trkpt><trkpt lat="13.903624738098355" lon="120.89625331270703"><ele>15.0</ele><time>2026-04-04T05:34:05.001Z</time></trkpt><trkpt lat="13.903702114657923" lon="120.89616123794124"><ele>15.0</ele><time>2026-04-04T05:34:06.001Z</time></trkpt><trkpt lat="13.9037806795982" lon="120.89606905737341"><ele>15.0</ele><time>2026-04-04T05:34:07.001Z</time></trkpt><trkpt lat="13.903853792864544" lon="120.89598114588576"><ele>15.0</ele><time>2026-04-04T05:34:08.001Z</time></trkpt><trkpt lat="13.903930274650275" lon="120.89588945994291"><ele>13.75</ele><time>2026-04-04T05:34:09.001Z</time></trkpt><trkpt lat="13.904004964544294" lon="120.89579928407329"><ele>12.5</ele><time>2026-04-04T05:34:10.001Z</time></trkpt><trkpt lat="13.904079979158388" lon="120.89570764953378"><ele>11.25</ele><time>2026-04-04T05:34:11.001Z</time></trkpt><trkpt lat="13.904153439452609" lon="120.89561529586584"><ele>10.0</ele><time>2026-04-04T05:34:12.001Z</time></trkpt><trkpt lat="13.904223332342065" lon="120.89552464311352"><ele>11.25</ele><time>2026-04-04T05:34:13.001Z</time></trkpt><trkpt lat="13.904299102984824" lon="120.89543498545285"><ele>12.5</ele><time>2026-04-04T05:34:14.001Z</time></trkpt><trkpt lat="13.904373205281509" lon="120.89534344008213"><ele>13.75</ele><time>2026-04-04T05:34:15.001Z</time></trkpt><trkpt lat="13.90444339438111" lon="120.89525193994992"><ele>15.0</ele><time>2026-04-04T05:34:16.001Z</time></trkpt><trkpt lat="13.904515671303795" lon="120.8951621573278"><ele>15.25</ele><time>2026-04-04T05:34:17.001Z</time></trkpt><trkpt lat="13.904587144966468" lon="120.89507543835911"><ele>15.5</ele><time>2026-04-04T05:34:18.001Z</time></trkpt><trkpt lat="13.904657010580479" lon="120.89499461722113"><ele>15.75</ele><time>2026-04-04T05:34:19.001Z</time></trkpt><trkpt lat="13.90473555548556" lon="120.8949058079812"><ele>16.0</ele><time>2026-04-04T05:34:20.001Z</time></trkpt><trkpt lat="13.904815003695367" lon="120.89481469019852"><ele>16.0</ele><time>2026-04-04T05:34:21.001Z</time></trkpt><trkpt lat="13.904901895480856" lon="120.89471100705477"><ele>16.0</ele><time>2026-04-04T05:34:22.001Z</time></trkpt><trkpt lat="13.904984874772747" lon="120.89459739931655"><ele>16.0</ele><time>2026-04-04T05:34:23.001Z</time></trkpt><trkpt lat="13.905067363361301" lon="120.89447993382514"><ele>16.0</ele><time>2026-04-04T05:34:24.001Z</time></trkpt><trkpt lat="13.905148380903102" lon="120.89437719706004"><ele>16.25</ele><time>2026-04-04T05:34:25.001Z</time></trkpt><trkpt lat="13.905226911410535" lon="120.89427732394927"><ele>16.5</ele><time>2026-04-04T05:34:26.001Z</time></trkpt><trkpt lat="13.905307860581962" lon="120.8941745568962"><ele>16.75</ele><time>2026-04-04T05:34:27.001Z</time></trkpt><trkpt lat="13.905384643876843" lon="120.89407451037792"><ele>17.0</ele><time>2026-04-04T05:34:28.001Z</time></trkpt><trkpt lat="13.90546448149558" lon="120.89397353646297"><ele>17.0</ele><time>2026-04-04T05:34:29.001Z</time></trkpt><trkpt lat="13.905540783866059" lon="120.89387261442228"><ele>17.0</ele><time>2026-04-04T05:34:30.001Z</time></trkpt><trkpt lat="13.905616240859722" lon="120.89377079209832"><ele>17.0</ele><time>2026-04-04T05:34:31.001Z</time></trkpt><trkpt lat="13.90569637391516" lon="120.89367159681801"><ele>17.0</ele><time>2026-04-04T05:34:32.001Z</time></trkpt><trkpt lat="13.905778580520401" lon="120.89357213770164"><ele>17.0</ele><time>2026-04-04T05:34:33.001Z</time></trkpt><trkpt lat="13.905857638141972" lon="120.89346914696273"><ele>17.0</ele><time>2026-04-04T05:34:34.001Z</time></trkpt><trkpt lat="13.905938022922166" lon="120.8933641543822"><ele>17.0</ele><time>2026-04-04T05:34:35.001Z</time></trkpt><trkpt lat="13.906023549968957" lon="120.89325044407124"><ele>17.0</ele><time>2026-04-04T05:34:36.001Z</time></trkpt><trkpt lat="13.906111796941998" lon="120.89313455008751"><ele>16.5</ele><time>2026-04-04T05:34:37.001Z</time></trkpt><trkpt lat="13.90620204679734" lon="120.89301638226372"><ele>16.0</ele><time>2026-04-04T05:34:38.001Z</time></trkpt><trkpt lat="13.906294750463614" lon="120.89290070780636"><ele>15.5</ele><time>2026-04-04T05:34:39.001Z</time></trkpt><trkpt lat="13.906382953841735" lon="120.89278770774597"><ele>15.0</ele><time>2026-04-04T05:34:40.001Z</time></trkpt><trkpt lat="13.906471345526871" lon="120.89267005637608"><ele>15.5</ele><time>2026-04-04T05:34:41.001Z</time></trkpt><trkpt lat="13.906553613357868" lon="120.89255334273696"><ele>16.0</ele><time>2026-04-04T05:34:42.001Z</time></trkpt><trkpt lat="13.906637130028846" lon="120.89243671472163"><ele>16.5</ele><time>2026-04-04T05:34:43.001Z</time></trkpt><trkpt lat="13.906714954932898" lon="120.89232590582151"><ele>17.0</ele><time>2026-04-04T05:34:44.001Z</time></trkpt><trkpt lat="13.906789895444575" lon="120.89221608678452"><ele>18.5</ele><time>2026-04-04T05:34:45.001Z</time></trkpt><trkpt lat="13.9068584104378" lon="120.89210773095787"><ele>20.0</ele><time>2026-04-04T05:34:46.001Z</time></trkpt><trkpt lat="13.906919593875921" lon="120.89199833497184"><ele>21.5</ele><time>2026-04-04T05:34:47.001Z</time></trkpt><trkpt lat="13.906980037563025" lon="120.89189212994195"><ele>23.0</ele><time>2026-04-04T05:34:48.001Z</time></trkpt><trkpt lat="13.907039122021153" lon="120.8917941461969"><ele>22.25</ele><time>2026-04-04T05:34:49.001Z</time></trkpt><trkpt lat="13.90709012646979" lon="120.89168664431536"><ele>21.5</ele><time>2026-04-04T05:34:50.001Z</time></trkpt><trkpt lat="13.907136471456626" lon="120.89156931121583"><ele>20.75</ele><time>2026-04-04T05:34:51.001Z</time></trkpt><trkpt lat="13.907183352174398" lon="120.89145271320189"><ele>20.0</ele><time>2026-04-04T05:34:52.001Z</time></trkpt><trkpt lat="13.907235200417622" lon="120.89133510177078"><ele>20.0</ele><time>2026-04-04T05:34:53.001Z</time></trkpt><trkpt lat="13.907288390770615" lon="120.89121769410806"><ele>20.0</ele><time>2026-04-04T05:34:54.001Z</time></trkpt><trkpt lat="13.907340112169928" lon="120.89109156962932"><ele>20.0</ele><time>2026-04-04T05:34:55.001Z</time></trkpt><trkpt lat="13.907387946902416" lon="120.8909699135837"><ele>20.0</ele><time>2026-04-04T05:34:56.001Z</time></trkpt><trkpt lat="13.90743735750252" lon="120.89084483884788"><ele>20.25</ele><time>2026-04-04T05:34:57.001Z</time></trkpt><trkpt lat="13.907485256002733" lon="120.89072761672931"><ele>20.5</ele><time>2026-04-04T05:34:58.001Z</time></trkpt><trkpt lat="13.907536300465662" lon="120.89060521306679"><ele>20.75</ele><time>2026-04-04T05:34:59.001Z</time></trkpt><trkpt lat="13.90757694762728" lon="120.89049410187404"><ele>21.0</ele><time>2026-04-04T05:35:00.001Z</time></trkpt><trkpt lat="13.90762314069301" lon="120.89038509203544"><ele>21.0</ele><time>2026-04-04T05:35:01.001Z</time></trkpt><trkpt lat="13.907663303706038" lon="120.89028441575856"><ele>21.0</ele><time>2026-04-04T05:35:02.001Z</time></trkpt><trkpt lat="13.90770788038266" lon="120.89018058962436"><ele>21.0</ele><time>2026-04-04T05:35:03.001Z</time></trkpt><trkpt lat="13.907753005353856" lon="120.89007297960221"><ele>21.0</ele><time>2026-04-04T05:35:04.001Z</time></trkpt><trkpt lat="13.907794610559419" lon="120.88996497584473"><ele>21.0</ele><time>2026-04-04T05:35:05.001Z</time></trkpt><trkpt lat="13.907835394685849" lon="120.88985620970972"><ele>21.0</ele><time>2026-04-04T05:35:06.001Z</time></trkpt><trkpt lat="13.907880137373487" lon="120.88974428579131"><ele>21.0</ele><time>2026-04-04T05:35:07.001Z</time></trkpt><trkpt lat="13.907927285258165" lon="120.88963700427054"><ele>21.0</ele><time>2026-04-04T05:35:08.001Z</time></trkpt><trkpt lat="13.907972354910349" lon="120.88953237906351"><ele>21.0</ele><time>2026-04-04T05:35:09Z</time></trkpt><trkpt lat="13.908013395190272" lon="120.88943940242183"><ele>21.0</ele><time>2026-04-04T05:35:10Z</time></trkpt><trkpt lat="13.908050024292235" lon="120.88935235092029"><ele>21.0</ele><time>2026-04-04T05:35:11Z</time></trkpt><trkpt lat="13.908086099408315" lon="120.88926734333175"><ele>21.0</ele><time>2026-04-04T05:35:12Z</time></trkpt><trkpt lat="13.90812744223923" lon="120.88917362442855"><ele>21.0</ele><time>2026-04-04T05:35:13Z</time></trkpt><trkpt lat="13.908170012331276" lon="120.88908718365329"><ele>21.0</ele><time>2026-04-04T05:35:14Z</time></trkpt><trkpt lat="13.908212738132692" lon="120.88899882974687"><ele>21.0</ele><time>2026-04-04T05:35:15Z</time></trkpt><trkpt lat="13.90824984154428" lon="120.88890628438831"><ele>21.0</ele><time>2026-04-04T05:35:16Z</time></trkpt><trkpt lat="13.908286356157907" lon="120.88881761225417"><ele>21.0</ele><time>2026-04-04T05:35:17Z</time></trkpt><trkpt lat="13.908323171531457" lon="120.8887270441356"><ele>21.0</ele><time>2026-04-04T05:35:18Z</time></trkpt><trkpt lat="13.908361667736724" lon="120.88864117819965"><ele>21.0</ele><time>2026-04-04T05:35:19Z</time></trkpt><trkpt lat="13.90839649807133" lon="120.88855131802744"><ele>21.0</ele><time>2026-04-04T05:35:20Z</time></trkpt><trkpt lat="13.90843196978829" lon="120.88846570375453"><ele>20.8</ele><time>2026-04-04T05:35:21Z</time></trkpt><trkpt lat="13.908465062666336" lon="120.88838478901746"><ele>20.6</ele><time>2026-04-04T05:35:22Z</time></trkpt><trkpt lat="13.908499678618368" lon="120.88829818312527"><ele>20.4</ele><time>2026-04-04T05:35:23Z</time></trkpt><trkpt lat="13.908535226040648" lon="120.88821072508955"><ele>20.2</ele><time>2026-04-04T05:35:24Z</time></trkpt><trkpt lat="13.908572594241825" lon="120.888124236768"><ele>20.0</ele><time>2026-04-04T05:35:25Z</time></trkpt><trkpt lat="13.908610891035392" lon="120.88803424284102"><ele>20.0</ele><time>2026-04-04T05:35:26Z</time></trkpt><trkpt lat="13.908647653522758" lon="120.88794838014067"><ele>20.0</ele><time>2026-04-04T05:35:27Z</time></trkpt><trkpt lat="13.90868611018792" lon="120.88785543148892"><ele>20.0</ele><time>2026-04-04T05:35:28Z</time></trkpt><trkpt lat="13.908727457163476" lon="120.88775439036999"><ele>20.0</ele><time>2026-04-04T05:35:29Z</time></trkpt><trkpt lat="13.908769159963807" lon="120.88764766492473"><ele>20.0</ele><time>2026-04-04T05:35:30Z</time></trkpt><trkpt lat="13.908816801482004" lon="120.88753445802949"><ele>19.5</ele><time>2026-04-04T05:35:31Z</time></trkpt><trkpt lat="13.908862320980587" lon="120.88741486402714"><ele>19.0</ele><time>2026-04-04T05:35:32Z</time></trkpt><trkpt lat="13.908912739447322" lon="120.88728560349027"><ele>18.5</ele><time>2026-04-04T05:35:33Z</time></trkpt><trkpt lat="13.908972877926116" lon="120.88716497406608"><ele>18.0</ele><time>2026-04-04T05:35:34.001Z</time></trkpt><trkpt lat="13.909038585925728" lon="120.88703995879061"><ele>18.0</ele><time>2026-04-04T05:35:35.001Z</time></trkpt><trkpt lat="13.909107329028155" lon="120.88692011741539"><ele>18.0</ele><time>2026-04-04T05:35:36.001Z</time></trkpt><trkpt lat="13.909182072313463" lon="120.88679446459898"><ele>18.0</ele><time>2026-04-04T05:35:37.001Z</time></trkpt><trkpt lat="13.90926023026051" lon="120.88667247149726"><ele>18.0</ele><time>2026-04-04T05:35:38.001Z</time></trkpt><trkpt lat="13.909340260157611" lon="120.88654597503542"><ele>18.25</ele><time>2026-04-04T05:35:39.001Z</time></trkpt><trkpt lat="13.909419233686135" lon="120.88641717416645"><ele>18.5</ele><time>2026-04-04T05:35:40.001Z</time></trkpt><trkpt lat="13.909498156145805" lon="120.88628914176778"><ele>18.75</ele><time>2026-04-04T05:35:41.001Z</time></trkpt><trkpt lat="13.909579759688148" lon="120.88615690421621"><ele>19.0</ele><time>2026-04-04T05:35:42.001Z</time></trkpt><trkpt lat="13.90966056466785" lon="120.8860262478006"><ele>18.666666666666664</ele><time>2026-04-04T05:35:43.001Z</time></trkpt><trkpt lat="13.9097414263049" lon="120.88589414291881"><ele>18.333333333333332</ele><time>2026-04-04T05:35:44.001Z</time></trkpt><trkpt lat="13.909824972162145" lon="120.88575950940299"><ele>18.0</ele><time>2026-04-04T05:35:45.001Z</time></trkpt><trkpt lat="13.909909682693291" lon="120.88562638759723"><ele>18.0</ele><time>2026-04-04T05:35:46.001Z</time></trkpt><trkpt lat="13.909991181861038" lon="120.88549309320766"><ele>18.0</ele><time>2026-04-04T05:35:47.001Z</time></trkpt><trkpt lat="13.91007648077614" lon="120.88536104751645"><ele>18.0</ele><time>2026-04-04T05:35:48.001Z</time></trkpt><trkpt lat="13.910159695212112" lon="120.88523112088225"><ele>18.25</ele><time>2026-04-04T05:35:49.001Z</time></trkpt><trkpt lat="13.910239159379957" lon="120.88509987735503"><ele>18.5</ele><time>2026-04-04T05:35:50.001Z</time></trkpt><trkpt lat="13.910318218267987" lon="120.88497092620533"><ele>18.75</ele><time>2026-04-04T05:35:51.001Z</time></trkpt><trkpt lat="13.910400307102783" lon="120.88484124134676"><ele>19.0</ele><time>2026-04-04T05:35:52.001Z</time></trkpt><trkpt lat="13.910483585236122" lon="120.88470744877618"><ele>18.333333333333332</ele><time>2026-04-04T05:35:53.001Z</time></trkpt><trkpt lat="13.910567029356175" lon="120.88457204150441"><ele>17.666666666666668</ele><time>2026-04-04T05:35:54.001Z</time></trkpt><trkpt lat="13.910648155767317" lon="120.88443200476635"><ele>17.0</ele><time>2026-04-04T05:35:55.001Z</time></trkpt><trkpt lat="13.910736670968236" lon="120.88429349175003"><ele>16.666666666666668</ele><time>2026-04-04T05:35:56.001Z</time></trkpt><trkpt lat="13.910820383209058" lon="120.88415787716208"><ele>16.333333333333332</ele><time>2026-04-04T05:35:57.001Z</time></trkpt><trkpt lat="13.910901628442502" lon="120.88401810274972"><ele>16.0</ele><time>2026-04-04T05:35:58.001Z</time></trkpt><trkpt lat="13.910985074422213" lon="120.88388343709676"><ele>16.0</ele><time>2026-04-04T05:35:59.001Z</time></trkpt><trkpt lat="13.911066570718889" lon="120.88375219715448"><ele>16.0</ele><time>2026-04-04T05:36:00.001Z</time></trkpt><trkpt lat="13.91115107688321" lon="120.88361740007181"><ele>16.0</ele><time>2026-04-04T05:36:01.001Z</time></trkpt><trkpt lat="13.911229053369361" lon="120.88348878750836"><ele>15.666666666666666</ele><time>2026-04-04T05:36:02.001Z</time></trkpt><trkpt lat="13.911317064854773" lon="120.88335541630471"><ele>15.333333333333332</ele><time>2026-04-04T05:36:03.001Z</time></trkpt><trkpt lat="13.911396834624728" lon="120.88322427118217"><ele>15.0</ele><time>2026-04-04T05:36:04.001Z</time></trkpt><trkpt lat="13.911478623279644" lon="120.8830893397449"><ele>15.0</ele><time>2026-04-04T05:36:05.001Z</time></trkpt><trkpt lat="13.911556601638628" lon="120.8829542510384"><ele>15.0</ele><time>2026-04-04T05:36:06.001Z</time></trkpt><trkpt lat="13.91163633464883" lon="120.88282069294807"><ele>15.0</ele><time>2026-04-04T05:36:07.001Z</time></trkpt><trkpt lat="13.911711178863829" lon="120.88268486589203"><ele>16.0</ele><time>2026-04-04T05:36:08.001Z</time></trkpt><trkpt lat="13.911780229941957" lon="120.88255055657595"><ele>17.0</ele><time>2026-04-04T05:36:09.001Z</time></trkpt><trkpt lat="13.911841722196796" lon="120.88242282299771"><ele>18.0</ele><time>2026-04-04T05:36:10.001Z</time></trkpt><trkpt lat="13.911895038614642" lon="120.88229397757482"><ele>19.0</ele><time>2026-04-04T05:36:11.001Z</time></trkpt><trkpt lat="13.91193785495499" lon="120.88216799056337"><ele>19.0</ele><time>2026-04-04T05:36:12.001Z</time></trkpt><trkpt lat="13.911988083886213" lon="120.88203621111626"><ele>19.0</ele><time>2026-04-04T05:36:13.001Z</time></trkpt><trkpt lat="13.912031172405053" lon="120.88190733325648"><ele>19.0</ele><time>2026-04-04T05:36:14.001Z</time></trkpt><trkpt lat="13.912073652117996" lon="120.88177061399017"><ele>19.0</ele><time>2026-04-04T05:36:15.001Z</time></trkpt><trkpt lat="13.912109708187666" lon="120.88162825279879"><ele>19.25</ele><time>2026-04-04T05:36:16.001Z</time></trkpt><trkpt lat="13.912144435377666" lon="120.88148697263081"><ele>19.5</ele><time>2026-04-04T05:36:17.001Z</time></trkpt><trkpt lat="13.912182963778148" lon="120.88134681194377"><ele>19.75</ele><time>2026-04-04T05:36:18.001Z</time></trkpt><trkpt lat="13.912218458601776" lon="120.8812095887676"><ele>20.0</ele><time>2026-04-04T05:36:19.001Z</time></trkpt><trkpt lat="13.912256572972513" lon="120.8810707067203"><ele>20.0</ele><time>2026-04-04T05:36:20.001Z</time></trkpt><trkpt lat="13.912291614042207" lon="120.88093285568637"><ele>20.0</ele><time>2026-04-04T05:36:21.001Z</time></trkpt><trkpt lat="13.912329646839186" lon="120.88079653609557"><ele>20.0</ele><time>2026-04-04T05:36:22.001Z</time></trkpt><trkpt lat="13.91237170420483" lon="120.88065786247337"><ele>20.0</ele><time>2026-04-04T05:36:23.001Z</time></trkpt><trkpt lat="13.912414812872482" lon="120.8805242123033"><ele>20.0</ele><time>2026-04-04T05:36:24.001Z</time></trkpt><trkpt lat="13.912450514921506" lon="120.88038850573516"><ele>20.0</ele><time>2026-04-04T05:36:25.001Z</time></trkpt><trkpt lat="13.912492075784506" lon="120.88024971187565"><ele>20.0</ele><time>2026-04-04T05:36:26.001Z</time></trkpt><trkpt lat="13.912531439540635" lon="120.88011823316928"><ele>20.0</ele><time>2026-04-04T05:36:27.001Z</time></trkpt><trkpt lat="13.912572595442755" lon="120.8799803461091"><ele>20.5</ele><time>2026-04-04T05:36:28.001Z</time></trkpt><trkpt lat="13.912613607219347" lon="120.8798470972829"><ele>21.0</ele><time>2026-04-04T05:36:29.001Z</time></trkpt><trkpt lat="13.912656389618526" lon="120.87971008388605"><ele>21.5</ele><time>2026-04-04T05:36:30.001Z</time></trkpt><trkpt lat="13.91270104966222" lon="120.87957373653667"><ele>22.0</ele><time>2026-04-04T05:36:31.001Z</time></trkpt><trkpt lat="13.912751697034762" lon="120.8794361428375"><ele>22.0</ele><time>2026-04-04T05:36:32.001Z</time></trkpt><trkpt lat="13.912799099509852" lon="120.87929854375726"><ele>22.0</ele><time>2026-04-04T05:36:33.001Z</time></trkpt><trkpt lat="13.912846978542614" lon="120.87917075980913"><ele>22.0</ele><time>2026-04-04T05:36:34.001Z</time></trkpt><trkpt lat="13.912890112932166" lon="120.87905450008603"><ele>22.0</ele><time>2026-04-04T05:36:35.001Z</time></trkpt><trkpt lat="13.912931608850421" lon="120.8789546553055"><ele>22.5</ele><time>2026-04-04T05:36:36.001Z</time></trkpt><trkpt lat="13.912972601731674" lon="120.87887564520821"><ele>23.0</ele><time>2026-04-04T05:36:37.001Z</time></trkpt><trkpt lat="13.913007456550115" lon="120.87880096751219"><ele>23.5</ele><time>2026-04-04T05:36:38.001Z</time></trkpt><trkpt lat="13.913036485160218" lon="120.87873780277359"><ele>24.0</ele><time>2026-04-04T05:36:39.001Z</time></trkpt><trkpt lat="13.913075389106313" lon="120.87862894839185"><ele>24.500000000000004</ele><time>2026-04-04T05:36:41.001Z</time></trkpt><trkpt lat="13.913113212036476" lon="120.87854658151322"><ele>25.0</ele><time>2026-04-04T05:36:49.001Z</time></trkpt><trkpt lat="13.913151638889557" lon="120.8784752081968"><ele>24.8</ele><time>2026-04-04T05:36:51.001Z</time></trkpt><trkpt lat="13.913210199182771" lon="120.8783530990001"><ele>24.6</ele><time>2026-04-04T05:36:53.001Z</time></trkpt><trkpt lat="13.913248882414893" lon="120.87827565532167"><ele>24.4</ele><time>2026-04-04T05:36:54.001Z</time></trkpt><trkpt lat="13.913283232864986" lon="120.87817599131337"><ele>24.2</ele><time>2026-04-04T05:36:55.001Z</time></trkpt><trkpt lat="13.913319500097197" lon="120.87806485329747"><ele>24.0</ele><time>2026-04-04T05:36:56.001Z</time></trkpt><trkpt lat="13.91335834330531" lon="120.87794984944293"><ele>24.0</ele><time>2026-04-04T05:36:57.001Z</time></trkpt><trkpt lat="13.913396333056328" lon="120.87783180886768"><ele>24.0</ele><time>2026-04-04T05:36:58.001Z</time></trkpt><trkpt lat="13.913432079061112" lon="120.87771410194449"><ele>24.0</ele><time>2026-04-04T05:36:59.001Z</time></trkpt><trkpt lat="13.91346411868481" lon="120.87758624755443"><ele>24.0</ele><time>2026-04-04T05:37:00.001Z</time></trkpt><trkpt lat="13.913481400877794" lon="120.87745608711165"><ele>24.25</ele><time>2026-04-04T05:37:01.001Z</time></trkpt><trkpt lat="13.913489427464093" lon="120.8773218230273"><ele>24.5</ele><time>2026-04-04T05:37:02.001Z</time></trkpt><trkpt lat="13.913497073354845" lon="120.87718928723599"><ele>24.75</ele><time>2026-04-04T05:37:03.001Z</time></trkpt><trkpt lat="13.913499685615177" lon="120.87705316466514"><ele>25.0</ele><time>2026-04-04T05:37:04.001Z</time></trkpt><trkpt lat="13.913494748565425" lon="120.8769125253107"><ele>25.0</ele><time>2026-04-04T05:37:05.001Z</time></trkpt><trkpt lat="13.913488471488032" lon="120.87677221754876"><ele>25.0</ele><time>2026-04-04T05:37:06.001Z</time></trkpt><trkpt lat="13.91347970742642" lon="120.87663094179865"><ele>25.0</ele><time>2026-04-04T05:37:07.001Z</time></trkpt><trkpt lat="13.913464553326975" lon="120.8764904137337"><ele>25.0</ele><time>2026-04-04T05:37:08.001Z</time></trkpt><trkpt lat="13.913443991293674" lon="120.87634519353135"><ele>25.25</ele><time>2026-04-04T05:37:09.001Z</time></trkpt><trkpt lat="13.913431810473885" lon="120.87619545523583"><ele>25.5</ele><time>2026-04-04T05:37:10.001Z</time></trkpt><trkpt lat="13.91341536858361" lon="120.87604652675788"><ele>25.75</ele><time>2026-04-04T05:37:11.001Z</time></trkpt><trkpt lat="13.913390844656913" lon="120.87590021413182"><ele>26.0</ele><time>2026-04-04T05:37:12.001Z</time></trkpt><trkpt lat="13.913366001182029" lon="120.87575156723531"><ele>25.25</ele><time>2026-04-04T05:37:13.001Z</time></trkpt><trkpt lat="13.913342157157421" lon="120.87560330772666"><ele>24.5</ele><time>2026-04-04T05:37:14.001Z</time></trkpt><trkpt lat="13.913316255719643" lon="120.87545773899933"><ele>23.75</ele><time>2026-04-04T05:37:15.001Z</time></trkpt><trkpt lat="13.91329239473807" lon="120.87531347317746"><ele>23.0</ele><time>2026-04-04T05:37:16.001Z</time></trkpt><trkpt lat="13.913272328350793" lon="120.87516767103504"><ele>22.75</ele><time>2026-04-04T05:37:17.001Z</time></trkpt><trkpt lat="13.913251653102925" lon="120.87501912826175"><ele>22.5</ele><time>2026-04-04T05:37:18.001Z</time></trkpt><trkpt lat="13.913232632040671" lon="120.8748728344394"><ele>22.25</ele><time>2026-04-04T05:37:19.001Z</time></trkpt><trkpt lat="13.913205100017757" lon="120.87473093739851"><ele>22.0</ele><time>2026-04-04T05:37:20Z</time></trkpt><trkpt lat="13.91318046411465" lon="120.87457992382453"><ele>22.0</ele><time>2026-04-04T05:37:21Z</time></trkpt><trkpt lat="13.913157140319408" lon="120.8744372303261"><ele>22.0</ele><time>2026-04-04T05:37:22Z</time></trkpt><trkpt lat="13.913136329544827" lon="120.87429111745736"><ele>22.0</ele><time>2026-04-04T05:37:23.001Z</time></trkpt><trkpt lat="13.913113258820328" lon="120.87414908935743"><ele>22.0</ele><time>2026-04-04T05:37:24.001Z</time></trkpt><trkpt lat="13.913087984502713" lon="120.87400248249942"><ele>21.25</ele><time>2026-04-04T05:37:25.001Z</time></trkpt><trkpt lat="13.913054771816597" lon="120.87386031919581"><ele>20.5</ele><time>2026-04-04T05:37:26.001Z</time></trkpt><trkpt lat="13.913032129305066" lon="120.87371686942147"><ele>19.75</ele><time>2026-04-04T05:37:27.001Z</time></trkpt><trkpt lat="13.912994651007834" lon="120.87356643432817"><ele>19.0</ele><time>2026-04-04T05:37:28.001Z</time></trkpt><trkpt lat="13.912959752061681" lon="120.87341916338623"><ele>18.5</ele><time>2026-04-04T05:37:29.001Z</time></trkpt><trkpt lat="13.912922044647114" lon="120.87327487155217"><ele>18.0</ele><time>2026-04-04T05:37:30.001Z</time></trkpt><trkpt lat="13.91287986601066" lon="120.87312607854217"><ele>17.5</ele><time>2026-04-04T05:37:31.001Z</time></trkpt><trkpt lat="13.912833326584456" lon="120.87298027714684"><ele>17.0</ele><time>2026-04-04T05:37:32.001Z</time></trkpt><trkpt lat="13.912776891353582" lon="120.87282830715237"><ele>17.0</ele><time>2026-04-04T05:37:33.001Z</time></trkpt><trkpt lat="13.912733734643329" lon="120.87268975761872"><ele>17.0</ele><time>2026-04-04T05:37:34.001Z</time></trkpt><trkpt lat="13.912681199301417" lon="120.87253948796665"><ele>17.0</ele><time>2026-04-04T05:37:35.001Z</time></trkpt><trkpt lat="13.912627061823795" lon="120.87239059387464"><ele>16.666666666666668</ele><time>2026-04-04T05:37:36.001Z</time></trkpt><trkpt lat="13.912573492843542" lon="120.87223921198614"><ele>16.333333333333332</ele><time>2026-04-04T05:37:37.001Z</time></trkpt><trkpt lat="13.912522899510714" lon="120.87209381102859"><ele>16.0</ele><time>2026-04-04T05:37:38.001Z</time></trkpt><trkpt lat="13.912472639313581" lon="120.87194658654467"><ele>16.0</ele><time>2026-04-04T05:37:39.001Z</time></trkpt><trkpt lat="13.912422680664546" lon="120.87179953052676"><ele>16.0</ele><time>2026-04-04T05:37:40.001Z</time></trkpt><trkpt lat="13.912371928070765" lon="120.87165561883204"><ele>16.0</ele><time>2026-04-04T05:37:41.001Z</time></trkpt><trkpt lat="13.912320789028495" lon="120.87151205835909"><ele>16.0</ele><time>2026-04-04T05:37:42.001Z</time></trkpt><trkpt lat="13.91227546562313" lon="120.87136997806647"><ele>16.6</ele><time>2026-04-04T05:37:43.001Z</time></trkpt><trkpt lat="13.912228126477975" lon="120.87123029599725"><ele>17.200000000000003</ele><time>2026-04-04T05:37:44.001Z</time></trkpt><trkpt lat="13.912194325772196" lon="120.8711358492037"><ele>17.799999999999997</ele><time>2026-04-04T05:37:45.001Z</time></trkpt><trkpt lat="13.912160114170463" lon="120.8710575316202"><ele>18.4</ele><time>2026-04-04T05:37:46.001Z</time></trkpt><trkpt lat="13.912151820787189" lon="120.87096447028038"><ele>19.0</ele><time>2026-04-04T05:37:48.001Z</time></trkpt><trkpt lat="13.912127861049097" lon="120.87084540760823"><ele>19.2</ele><time>2026-04-04T05:37:50.001Z</time></trkpt><trkpt lat="13.912103270171993" lon="120.87077977826446"><ele>19.4</ele><time>2026-04-04T05:37:51.001Z</time></trkpt><trkpt lat="13.912072882102374" lon="120.87068319417716"><ele>19.6</ele><time>2026-04-04T05:37:52.001Z</time></trkpt><trkpt lat="13.912052379382695" lon="120.87058746439202"><ele>19.8</ele><time>2026-04-04T05:37:53.001Z</time></trkpt><trkpt lat="13.912031537938455" lon="120.87048290265395"><ele>20.0</ele><time>2026-04-04T05:37:54.001Z</time></trkpt><trkpt lat="13.912007766951206" lon="120.87036921952564"><ele>20.0</ele><time>2026-04-04T05:37:55.001Z</time></trkpt><trkpt lat="13.911978504069172" lon="120.8702402177655"><ele>20.0</ele><time>2026-04-04T05:37:56.001Z</time></trkpt><trkpt lat="13.911951446830154" lon="120.8701108520931"><ele>20.0</ele><time>2026-04-04T05:37:57.001Z</time></trkpt><trkpt lat="13.911925246776125" lon="120.8699723597074"><ele>20.0</ele><time>2026-04-04T05:37:58.001Z</time></trkpt><trkpt lat="13.911896524889716" lon="120.86982692780094"><ele>21.0</ele><time>2026-04-04T05:37:59.001Z</time></trkpt><trkpt lat="13.911865327129378" lon="120.86967731954634"><ele>22.0</ele><time>2026-04-04T05:38:00.001Z</time></trkpt><trkpt lat="13.911836239096914" lon="120.86952033230142"><ele>23.0</ele><time>2026-04-04T05:38:01.001Z</time></trkpt><trkpt lat="13.911806943676487" lon="120.86936061126701"><ele>23.0</ele><time>2026-04-04T05:38:02.001Z</time></trkpt><trkpt lat="13.9117774220147" lon="120.86919647521471"><ele>23.0</ele><time>2026-04-04T05:38:03.001Z</time></trkpt><trkpt lat="13.911740396611112" lon="120.86903334389338"><ele>23.0</ele><time>2026-04-04T05:38:04.001Z</time></trkpt><trkpt lat="13.911698940176322" lon="120.86885810896051"><ele>23.0</ele><time>2026-04-04T05:38:05.001Z</time></trkpt><trkpt lat="13.911657225592927" lon="120.86868756477014"><ele>23.0</ele><time>2026-04-04T05:38:06.001Z</time></trkpt><trkpt lat="13.911609971939255" lon="120.86851288662038"><ele>23.0</ele><time>2026-04-04T05:38:07.001Z</time></trkpt><trkpt lat="13.911560657222896" lon="120.86833444842866"><ele>23.0</ele><time>2026-04-04T05:38:08.001Z</time></trkpt><trkpt lat="13.911507929651847" lon="120.86815540555884"><ele>23.0</ele><time>2026-04-04T05:38:09.001Z</time></trkpt><trkpt lat="13.911452886638328" lon="120.86797087531913"><ele>23.0</ele><time>2026-04-04T05:38:10.001Z</time></trkpt><trkpt lat="13.911394863588361" lon="120.86778590762344"><ele>23.0</ele><time>2026-04-04T05:38:11.001Z</time></trkpt><trkpt lat="13.911332628539945" lon="120.86759888214323"><ele>23.0</ele><time>2026-04-04T05:38:12.001Z</time></trkpt><trkpt lat="13.911273812062502" lon="120.86740709099118"><ele>23.0</ele><time>2026-04-04T05:38:13.001Z</time></trkpt><trkpt lat="13.911216368095118" lon="120.86721049041955"><ele>23.0</ele><time>2026-04-04T05:38:14.001Z</time></trkpt><trkpt lat="13.91115693283529" lon="120.86701534588475"><ele>23.0</ele><time>2026-04-04T05:38:15.001Z</time></trkpt><trkpt lat="13.911098981473732" lon="120.86681871838454"><ele>23.0</ele><time>2026-04-04T05:38:16.001Z</time></trkpt><trkpt lat="13.91103866653664" lon="120.86661889645121"><ele>22.333333333333336</ele><time>2026-04-04T05:38:17.001Z</time></trkpt><trkpt lat="13.91098115871375" lon="120.86641959288738"><ele>21.666666666666668</ele><time>2026-04-04T05:38:18.001Z</time></trkpt><trkpt lat="13.91091853543322" lon="120.86621929419232"><ele>21.0</ele><time>2026-04-04T05:38:19.001Z</time></trkpt><trkpt lat="13.910848149529548" lon="120.86601829782934"><ele>20.333333333333332</ele><time>2026-04-04T05:38:20.001Z</time></trkpt><trkpt lat="13.910769295521424" lon="120.86581910841073"><ele>19.666666666666664</ele><time>2026-04-04T05:38:21.001Z</time></trkpt><trkpt lat="13.910686078955612" lon="120.86561953802347"><ele>19.0</ele><time>2026-04-04T05:38:22.001Z</time></trkpt><trkpt lat="13.910597548445137" lon="120.86541982747096"><ele>19.0</ele><time>2026-04-04T05:38:23.001Z</time></trkpt><trkpt lat="13.910508087801594" lon="120.86521916625236"><ele>19.0</ele><time>2026-04-04T05:38:24.001Z</time></trkpt><trkpt lat="13.910420341591436" lon="120.86501618886957"><ele>19.0</ele><time>2026-04-04T05:38:25.001Z</time></trkpt><trkpt lat="13.9103370089805" lon="120.86481339400189"><ele>19.333333333333332</ele><time>2026-04-04T05:38:26.001Z</time></trkpt><trkpt lat="13.910259926243057" lon="120.86461356048484"><ele>19.666666666666668</ele><time>2026-04-04T05:38:27.001Z</time></trkpt><trkpt lat="13.910201894696097" lon="120.86442135113285"><ele>20.0</ele><time>2026-04-04T05:38:28.001Z</time></trkpt><trkpt lat="13.910161043428511" lon="120.86422920810026"><ele>19.0</ele><time>2026-04-04T05:38:29.001Z</time></trkpt><trkpt lat="13.910136401442088" lon="120.8640367326142"><ele>18.0</ele><time>2026-04-04T05:38:30.001Z</time></trkpt><trkpt lat="13.910130869374226" lon="120.86385098108124"><ele>17.0</ele><time>2026-04-04T05:38:31.001Z</time></trkpt><trkpt lat="13.91012964406213" lon="120.86366245957159"><ele>17.0</ele><time>2026-04-04T05:38:32.001Z</time></trkpt><trkpt lat="13.910129927662648" lon="120.86348428947923"><ele>17.0</ele><time>2026-04-04T05:38:33.001Z</time></trkpt><trkpt lat="13.910136689423322" lon="120.8633072058068"><ele>17.0</ele><time>2026-04-04T05:38:34.001Z</time></trkpt><trkpt lat="13.910141926580177" lon="120.86312425383042"><ele>15.666666666666668</ele><time>2026-04-04T05:38:35.001Z</time></trkpt><trkpt lat="13.910146519411203" lon="120.86295029284135"><ele>14.333333333333332</ele><time>2026-04-04T05:38:36.001Z</time></trkpt><trkpt lat="13.910156259539447" lon="120.86278643465363"><ele>13.0</ele><time>2026-04-04T05:38:37.001Z</time></trkpt><trkpt lat="13.910157880531836" lon="120.86262388768628"><ele>14.0</ele><time>2026-04-04T05:38:38.001Z</time></trkpt><trkpt lat="13.910161994439974" lon="120.86244386200327"><ele>15.0</ele><time>2026-04-04T05:38:39.001Z</time></trkpt><trkpt lat="13.910161453769536" lon="120.86227299170704"><ele>16.0</ele><time>2026-04-04T05:38:40.001Z</time></trkpt><trkpt lat="13.910165402205314" lon="120.86210148612906"><ele>16.0</ele><time>2026-04-04T05:38:41.001Z</time></trkpt><trkpt lat="13.910168683935531" lon="120.86192738663756"><ele>16.0</ele><time>2026-04-04T05:38:42.001Z</time></trkpt><trkpt lat="13.91017327823377" lon="120.86174906803512"><ele>16.0</ele><time>2026-04-04T05:38:43.001Z</time></trkpt><trkpt lat="13.910178195676483" lon="120.86157098162542"><ele>17.0</ele><time>2026-04-04T05:38:44.001Z</time></trkpt><trkpt lat="13.910185558885624" lon="120.86139486066696"><ele>18.0</ele><time>2026-04-04T05:38:45.001Z</time></trkpt><trkpt lat="13.910192032939197" lon="120.8612175449819"><ele>19.0</ele><time>2026-04-04T05:38:46.001Z</time></trkpt><trkpt lat="13.910199549344686" lon="120.8610424937541"><ele>19.666666666666664</ele><time>2026-04-04T05:38:47.001Z</time></trkpt><trkpt lat="13.910205178595799" lon="120.86086712219148"><ele>20.333333333333332</ele><time>2026-04-04T05:38:48.001Z</time></trkpt><trkpt lat="13.910210890433524" lon="120.8606934757979"><ele>21.0</ele><time>2026-04-04T05:38:49.001Z</time></trkpt><trkpt lat="13.910213623449627" lon="120.86051749184156"><ele>21.0</ele><time>2026-04-04T05:38:50.001Z</time></trkpt><trkpt lat="13.910215051369772" lon="120.86034207062403"><ele>21.0</ele><time>2026-04-04T05:38:51.001Z</time></trkpt><trkpt lat="13.91022091996585" lon="120.86017446856903"><ele>21.0</ele><time>2026-04-04T05:38:52.001Z</time></trkpt><trkpt lat="13.910229285784236" lon="120.86000597723698"><ele>21.0</ele><time>2026-04-04T05:38:53.001Z</time></trkpt><trkpt lat="13.910234207935495" lon="120.85984390864682"><ele>21.0</ele><time>2026-04-04T05:38:54.001Z</time></trkpt><trkpt lat="13.910233727804886" lon="120.85968554140095"><ele>21.0</ele><time>2026-04-04T05:38:55.001Z</time></trkpt><trkpt lat="13.91023689273701" lon="120.85953195843342"><ele>21.0</ele><time>2026-04-04T05:38:56.001Z</time></trkpt><trkpt lat="13.910239914950314" lon="120.85937393573344"><ele>21.0</ele><time>2026-04-04T05:38:57.001Z</time></trkpt><trkpt lat="13.91024415603843" lon="120.85921417233148"><ele>21.0</ele><time>2026-04-04T05:38:58.001Z</time></trkpt><trkpt lat="13.910251052433491" lon="120.8590533349626"><ele>19.666666666666668</ele><time>2026-04-04T05:38:59.001Z</time></trkpt><trkpt lat="13.91025458707827" lon="120.85889093231154"><ele>18.333333333333336</ele><time>2026-04-04T05:39:00.001Z</time></trkpt><trkpt lat="13.910257006176387" lon="120.85872919379199"><ele>17.0</ele><time>2026-04-04T05:39:01.001Z</time></trkpt><trkpt lat="13.910261166435761" lon="120.85856871995853"><ele>17.333333333333336</ele><time>2026-04-04T05:39:02.001Z</time></trkpt><trkpt lat="13.910268773042073" lon="120.8584102980337"><ele>17.666666666666668</ele><time>2026-04-04T05:39:03.001Z</time></trkpt><trkpt lat="13.910270981498932" lon="120.85825544530721"><ele>18.0</ele><time>2026-04-04T05:39:04.001Z</time></trkpt><trkpt lat="13.910274752267357" lon="120.85810213444213"><ele>18.0</ele><time>2026-04-04T05:39:05.001Z</time></trkpt><trkpt lat="13.910280613822378" lon="120.85794892061693"><ele>18.0</ele><time>2026-04-04T05:39:06.001Z</time></trkpt><trkpt lat="13.910283780153307" lon="120.85779753071517"><ele>18.0</ele><time>2026-04-04T05:39:07.001Z</time></trkpt><trkpt lat="13.910286869346576" lon="120.85764358862666"><ele>18.0</ele><time>2026-04-04T05:39:08.001Z</time></trkpt><trkpt lat="13.910293620055173" lon="120.85748782343215"><ele>17.5</ele><time>2026-04-04T05:39:09.001Z</time></trkpt><trkpt lat="13.910299337673903" lon="120.85733523461006"><ele>17.0</ele><time>2026-04-04T05:39:10.001Z</time></trkpt><trkpt lat="13.910303527282068" lon="120.8571831545652"><ele>16.5</ele><time>2026-04-04T05:39:11.001Z</time></trkpt><trkpt lat="13.910305965140765" lon="120.85703557120813"><ele>16.0</ele><time>2026-04-04T05:39:12.001Z</time></trkpt><trkpt lat="13.91031109207952" lon="120.85688591466005"><ele>15.25</ele><time>2026-04-04T05:39:13.001Z</time></trkpt><trkpt lat="13.910314961957749" lon="120.85673902099786"><ele>14.5</ele><time>2026-04-04T05:39:14.001Z</time></trkpt><trkpt lat="13.910319262705448" lon="120.85659152893616"><ele>13.75</ele><time>2026-04-04T05:39:15.001Z</time></trkpt><trkpt lat="13.91032084339546" lon="120.85644575770958"><ele>13.0</ele><time>2026-04-04T05:39:16.001Z</time></trkpt><trkpt lat="13.910325399536621" lon="120.85630053776052"><ele>13.0</ele><time>2026-04-04T05:39:17.001Z</time></trkpt><trkpt lat="13.910328980768027" lon="120.8561543450986"><ele>13.0</ele><time>2026-04-04T05:39:18.001Z</time></trkpt><trkpt lat="13.910336650960732" lon="120.8560058929383"><ele>13.0</ele><time>2026-04-04T05:39:19.001Z</time></trkpt><trkpt lat="13.910338975149584" lon="120.85586061513062"><ele>13.0</ele><time>2026-04-04T05:39:20.001Z</time></trkpt><trkpt lat="13.910347065407269" lon="120.85571348203754"><ele>12.25</ele><time>2026-04-04T05:39:21.001Z</time></trkpt><trkpt lat="13.910354497254557" lon="120.8555688984817"><ele>11.5</ele><time>2026-04-04T05:39:22.001Z</time></trkpt><trkpt lat="13.910358092406941" lon="120.85542366483315"><ele>10.75</ele><time>2026-04-04T05:39:23.001Z</time></trkpt><trkpt lat="13.910361758554993" lon="120.8552754311489"><ele>10.0</ele><time>2026-04-04T05:39:24.001Z</time></trkpt><trkpt lat="13.910365579688087" lon="120.85512802723129"><ele>9.75</ele><time>2026-04-04T05:39:25.001Z</time></trkpt><trkpt lat="13.910374224695119" lon="120.85497670901441"><ele>9.5</ele><time>2026-04-04T05:39:26.001Z</time></trkpt><trkpt lat="13.910384011472605" lon="120.85482610659012"><ele>9.25</ele><time>2026-04-04T05:39:27.001Z</time></trkpt><trkpt lat="13.91039837549864" lon="120.85467504159205"><ele>9.0</ele><time>2026-04-04T05:39:28.001Z</time></trkpt><trkpt lat="13.910424261039504" lon="120.85452060221597"><ele>9.0</ele><time>2026-04-04T05:39:29.001Z</time></trkpt><trkpt lat="13.91045578403524" lon="120.85436916450965"><ele>9.0</ele><time>2026-04-04T05:39:30.001Z</time></trkpt><trkpt lat="13.910496398443735" lon="120.85421909258447"><ele>9.0</ele><time>2026-04-04T05:39:31.001Z</time></trkpt><trkpt lat="13.910537106467682" lon="120.85407013588978"><ele>9.333333333333334</ele><time>2026-04-04T05:39:32.001Z</time></trkpt><trkpt lat="13.910578238526544" lon="120.8539194706315"><ele>9.666666666666668</ele><time>2026-04-04T05:39:33.001Z</time></trkpt><trkpt lat="13.910617013279854" lon="120.85376529693711"><ele>10.0</ele><time>2026-04-04T05:39:34.001Z</time></trkpt><trkpt lat="13.910659855704125" lon="120.85361301581278"><ele>10.0</ele><time>2026-04-04T05:39:35.001Z</time></trkpt><trkpt lat="13.910701742273533" lon="120.85346365610899"><ele>10.0</ele><time>2026-04-04T05:39:36.001Z</time></trkpt><trkpt lat="13.910742657843958" lon="120.85330921674864"><ele>10.0</ele><time>2026-04-04T05:39:37.001Z</time></trkpt><trkpt lat="13.910782697531745" lon="120.85316049122203"><ele>9.25</ele><time>2026-04-04T05:39:38.001Z</time></trkpt><trkpt lat="13.910821139600994" lon="120.85301465117766"><ele>8.5</ele><time>2026-04-04T05:39:39.001Z</time></trkpt><trkpt lat="13.9108612320566" lon="120.85286994804609"><ele>7.75</ele><time>2026-04-04T05:39:40.001Z</time></trkpt><trkpt lat="13.910901106475096" lon="120.85272569827671"><ele>7.0</ele><time>2026-04-04T05:39:41.001Z</time></trkpt><trkpt lat="13.910937415611624" lon="120.85258442133889"><ele>11.0</ele><time>2026-04-04T05:39:42.001Z</time></trkpt><trkpt lat="13.910975830367413" lon="120.85243857190267"><ele>15.0</ele><time>2026-04-04T05:39:43.001Z</time></trkpt><trkpt lat="13.911014492314091" lon="120.85229390004993"><ele>19.0</ele><time>2026-04-04T05:39:44.001Z</time></trkpt><trkpt lat="13.91105306208781" lon="120.85214823452867"><ele>23.0</ele><time>2026-04-04T05:39:45.001Z</time></trkpt><trkpt lat="13.911093533557002" lon="120.85200141907183"><ele>23.0</ele><time>2026-04-04T05:39:46.001Z</time></trkpt><trkpt lat="13.911138080480924" lon="120.85185353277735"><ele>23.0</ele><time>2026-04-04T05:39:47.001Z</time></trkpt><trkpt lat="13.91118286073295" lon="120.85170387048362"><ele>23.0</ele><time>2026-04-04T05:39:48.001Z</time></trkpt><trkpt lat="13.911223989960751" lon="120.85155524201843"><ele>21.0</ele><time>2026-04-04T05:39:49.001Z</time></trkpt><trkpt lat="13.911264779615905" lon="120.85140520012024"><ele>19.0</ele><time>2026-04-04T05:39:50.001Z</time></trkpt><trkpt lat="13.911307858157684" lon="120.85125667324344"><ele>17.0</ele><time>2026-04-04T05:39:51.001Z</time></trkpt><trkpt lat="13.911350222606107" lon="120.85110587080337"><ele>15.666666666666668</ele><time>2026-04-04T05:39:52.001Z</time></trkpt><trkpt lat="13.911391023642068" lon="120.85095538200616"><ele>14.333333333333332</ele><time>2026-04-04T05:39:53.001Z</time></trkpt><trkpt lat="13.911431015592935" lon="120.85080345411134"><ele>13.0</ele><time>2026-04-04T05:39:54.001Z</time></trkpt><trkpt lat="13.911474876395925" lon="120.85065333440947"><ele>13.0</ele><time>2026-04-04T05:39:55.001Z</time></trkpt><trkpt lat="13.911519461034823" lon="120.85050480977853"><ele>13.0</ele><time>2026-04-04T05:39:56.001Z</time></trkpt><trkpt lat="13.91156057139888" lon="120.85035451949297"><ele>13.0</ele><time>2026-04-04T05:39:57.001Z</time></trkpt><trkpt lat="13.911602609654024" lon="120.85020637831532"><ele>12.666666666666666</ele><time>2026-04-04T05:39:58.001Z</time></trkpt><trkpt lat="13.911648849834146" lon="120.85005872274827"><ele>12.333333333333332</ele><time>2026-04-04T05:39:59.001Z</time></trkpt><trkpt lat="13.91169155921167" lon="120.84990941513882"><ele>12.0</ele><time>2026-04-04T05:40:00.001Z</time></trkpt><trkpt lat="13.91173769013659" lon="120.84975722833545"><ele>15.0</ele><time>2026-04-04T05:40:01.001Z</time></trkpt><trkpt lat="13.911782156502742" lon="120.8496097420575"><ele>18.0</ele><time>2026-04-04T05:40:02.001Z</time></trkpt><trkpt lat="13.911826095884424" lon="120.84946044215505"><ele>21.0</ele><time>2026-04-04T05:40:03.001Z</time></trkpt><trkpt lat="13.911870622117766" lon="120.84931362170296"><ele>21.0</ele><time>2026-04-04T05:40:04.001Z</time></trkpt><trkpt lat="13.91192439427592" lon="120.84916598369772"><ele>21.0</ele><time>2026-04-04T05:40:05.001Z</time></trkpt><trkpt lat="13.911986846661126" lon="120.84902207795679"><ele>21.0</ele><time>2026-04-04T05:40:06.001Z</time></trkpt><trkpt lat="13.912049973623594" lon="120.84889011076685"><ele>21.0</ele><time>2026-04-04T05:40:07.001Z</time></trkpt><trkpt lat="13.912109773602253" lon="120.84876715362425"><ele>21.0</ele><time>2026-04-04T05:40:08.001Z</time></trkpt><trkpt lat="13.912168602835" lon="120.84864772116325"><ele>21.0</ele><time>2026-04-04T05:40:09.001Z</time></trkpt><trkpt lat="13.912229100164748" lon="120.8485371359231"><ele>21.0</ele><time>2026-04-04T05:40:10.001Z</time></trkpt><trkpt lat="13.91228607448286" lon="120.84841871750636"><ele>21.0</ele><time>2026-04-04T05:40:11.001Z</time></trkpt><trkpt lat="13.912351809673863" lon="120.84829937535622"><ele>19.0</ele><time>2026-04-04T05:40:12.001Z</time></trkpt><trkpt lat="13.91242044077737" lon="120.84818561414309"><ele>17.0</ele><time>2026-04-04T05:40:13.001Z</time></trkpt><trkpt lat="13.912489485200645" lon="120.84806378076047"><ele>15.0</ele><time>2026-04-04T05:40:14.001Z</time></trkpt><trkpt lat="13.912561301132545" lon="120.84793412670787"><ele>13.0</ele><time>2026-04-04T05:40:15.001Z</time></trkpt><trkpt lat="13.912630581140272" lon="120.84780297034887"><ele>13.0</ele><time>2026-04-04T05:40:16.001Z</time></trkpt><trkpt lat="13.91270203156289" lon="120.84766155394273"><ele>13.0</ele><time>2026-04-04T05:40:17.001Z</time></trkpt><trkpt lat="13.912781545803131" lon="120.84751832336933"><ele>13.0</ele><time>2026-04-04T05:40:18.001Z</time></trkpt><trkpt lat="13.912865519468195" lon="120.84737174456814"><ele>13.0</ele><time>2026-04-04T05:40:19.001Z</time></trkpt><trkpt lat="13.912948711931312" lon="120.84721852569676"><ele>13.0</ele><time>2026-04-04T05:40:20.001Z</time></trkpt><trkpt lat="13.913033322047346" lon="120.84706022409951"><ele>13.0</ele><time>2026-04-04T05:40:21.001Z</time></trkpt><trkpt lat="13.913121396500415" lon="120.84689432009067"><ele>12.0</ele><time>2026-04-04T05:40:22.001Z</time></trkpt><trkpt lat="13.913208814187083" lon="120.84672789367747"><ele>11.0</ele><time>2026-04-04T05:40:23.001Z</time></trkpt><trkpt lat="13.913300713200197" lon="120.84655410890952"><ele>10.0</ele><time>2026-04-04T05:40:24.001Z</time></trkpt><trkpt lat="13.913395615454446" lon="120.84638092507538"><ele>10.333333333333334</ele><time>2026-04-04T05:40:25.001Z</time></trkpt><trkpt lat="13.91349371163582" lon="120.84620672297898"><ele>10.666666666666666</ele><time>2026-04-04T05:40:26.001Z</time></trkpt><trkpt lat="13.91359399765807" lon="120.84603194832457"><ele>11.0</ele><time>2026-04-04T05:40:27.001Z</time></trkpt><trkpt lat="13.913694146520687" lon="120.84585779654704"><ele>11.0</ele><time>2026-04-04T05:40:28.001Z</time></trkpt><trkpt lat="13.91379384660216" lon="120.84568265054884"><ele>11.0</ele><time>2026-04-04T05:40:29.001Z</time></trkpt><trkpt lat="13.9138920972405" lon="120.84550744999231"><ele>11.0</ele><time>2026-04-04T05:40:30.001Z</time></trkpt><trkpt lat="13.913987994480403" lon="120.8453320490353"><ele>11.0</ele><time>2026-04-04T05:40:31.001Z</time></trkpt><trkpt lat="13.91408774769015" lon="120.84515380462332"><ele>11.0</ele><time>2026-04-04T05:40:32.001Z</time></trkpt><trkpt lat="13.914191314646319" lon="120.8449804900156"><ele>11.0</ele><time>2026-04-04T05:40:33.001Z</time></trkpt><trkpt lat="13.914287575516937" lon="120.84481342782597"><ele>12.0</ele><time>2026-04-04T05:40:34.001Z</time></trkpt><trkpt lat="13.914378136367361" lon="120.8446530016832"><ele>13.0</ele><time>2026-04-04T05:40:35.001Z</time></trkpt><trkpt lat="13.914466193933924" lon="120.84449478579178"><ele>14.0</ele><time>2026-04-04T05:40:36.001Z</time></trkpt><trkpt lat="13.914554499305304" lon="120.84433407208661"><ele>15.0</ele><time>2026-04-04T05:40:37.001Z</time></trkpt><trkpt lat="13.914643856288572" lon="120.84418256594445"><ele>16.0</ele><time>2026-04-04T05:40:38.001Z</time></trkpt><trkpt lat="13.914732421604393" lon="120.84403104685123"><ele>17.0</ele><time>2026-04-04T05:40:39.001Z</time></trkpt><trkpt lat="13.914821524710542" lon="120.84388324487831"><ele>17.0</ele><time>2026-04-04T05:40:40.001Z</time></trkpt><trkpt lat="13.914903839337692" lon="120.8437353128691"><ele>17.0</ele><time>2026-04-04T05:40:41.001Z</time></trkpt><trkpt lat="13.914985027741615" lon="120.84358979258779"><ele>17.0</ele><time>2026-04-04T05:40:42.001Z</time></trkpt><trkpt lat="13.91506396296617" lon="120.84344689852215"><ele>17.0</ele><time>2026-04-04T05:40:43.001Z</time></trkpt><trkpt lat="13.915144465856848" lon="120.84330342972648"><ele>17.0</ele><time>2026-04-04T05:40:44.001Z</time></trkpt><trkpt lat="13.915227010618725" lon="120.8431618548331"><ele>17.0</ele><time>2026-04-04T05:40:45.001Z</time></trkpt><trkpt lat="13.915310274358935" lon="120.84302145625902"><ele>17.0</ele><time>2026-04-04T05:40:46.001Z</time></trkpt><trkpt lat="13.915392028818788" lon="120.84287084352972"><ele>17.0</ele><time>2026-04-04T05:40:47.001Z</time></trkpt><trkpt lat="13.915464398178214" lon="120.8427357311148"><ele>17.0</ele><time>2026-04-04T05:40:48.001Z</time></trkpt><trkpt lat="13.915548023457331" lon="120.84259835371525"><ele>15.666666666666668</ele><time>2026-04-04T05:40:49.001Z</time></trkpt><trkpt lat="13.915632073911555" lon="120.84245252990979"><ele>14.333333333333332</ele><time>2026-04-04T05:40:50.001Z</time></trkpt><trkpt lat="13.915714976583068" lon="120.84230367838296"><ele>13.0</ele><time>2026-04-04T05:40:51.001Z</time></trkpt><trkpt lat="13.91579910506301" lon="120.84215856543169"><ele>13.0</ele><time>2026-04-04T05:40:52.001Z</time></trkpt><trkpt lat="13.915887652977935" lon="120.84201399379913"><ele>13.0</ele><time>2026-04-04T05:40:53.001Z</time></trkpt><trkpt lat="13.915968376822258" lon="120.8418619564808"><ele>13.0</ele><time>2026-04-04T05:40:54.001Z</time></trkpt><trkpt lat="13.916049268304542" lon="120.84171243460752"><ele>13.666666666666666</ele><time>2026-04-04T05:40:55.001Z</time></trkpt><trkpt lat="13.91613653162732" lon="120.84156541604507"><ele>14.333333333333332</ele><time>2026-04-04T05:40:56.001Z</time></trkpt><trkpt lat="13.916222290447266" lon="120.84141722385834"><ele>15.0</ele><time>2026-04-04T05:40:57.001Z</time></trkpt><trkpt lat="13.916309519151211" lon="120.84126795014666"><ele>15.0</ele><time>2026-04-04T05:40:58.001Z</time></trkpt><trkpt lat="13.916397206237672" lon="120.84112188438696"><ele>15.0</ele><time>2026-04-04T05:40:59.001Z</time></trkpt><trkpt lat="13.916482141262119" lon="120.84097654854867"><ele>15.0</ele><time>2026-04-04T05:41:00.001Z</time></trkpt><trkpt lat="13.916568042772289" lon="120.840827265562"><ele>15.0</ele><time>2026-04-04T05:41:01.001Z</time></trkpt><trkpt lat="13.916652207714392" lon="120.84068205484428"><ele>15.0</ele><time>2026-04-04T05:41:02.001Z</time></trkpt><trkpt lat="13.916735038721988" lon="120.84053705976825"><ele>15.0</ele><time>2026-04-04T05:41:03.001Z</time></trkpt><trkpt lat="13.91681984466464" lon="120.84038558881213"><ele>15.0</ele><time>2026-04-04T05:41:04.001Z</time></trkpt><trkpt lat="13.916906819111794" lon="120.84023884220403"><ele>15.0</ele><time>2026-04-04T05:41:05.001Z</time></trkpt><trkpt lat="13.916996792830922" lon="120.84009181645823"><ele>15.0</ele><time>2026-04-04T05:41:06.001Z</time></trkpt><trkpt lat="13.917083310540574" lon="120.83994203756765"><ele>15.0</ele><time>2026-04-04T05:41:07.001Z</time></trkpt><trkpt lat="13.91716932893014" lon="120.83979025556765"><ele>15.0</ele><time>2026-04-04T05:41:08.001Z</time></trkpt><trkpt lat="13.917252920253267" lon="120.83964236017106"><ele>15.0</ele><time>2026-04-04T05:41:09.001Z</time></trkpt><trkpt lat="13.917343271114905" lon="120.83948570254299"><ele>15.0</ele><time>2026-04-04T05:41:10.001Z</time></trkpt><trkpt lat="13.917431395763964" lon="120.83932990913192"><ele>15.0</ele><time>2026-04-04T05:41:11.001Z</time></trkpt><trkpt lat="13.91752188199525" lon="120.83916921426606"><ele>15.0</ele><time>2026-04-04T05:41:12.001Z</time></trkpt><trkpt lat="13.917611073005466" lon="120.83901063556563"><ele>15.333333333333332</ele><time>2026-04-04T05:41:13.001Z</time></trkpt><trkpt lat="13.917700889505294" lon="120.83885331629253"><ele>15.666666666666666</ele><time>2026-04-04T05:41:14.001Z</time></trkpt><trkpt lat="13.917793131034381" lon="120.83869543484401"><ele>16.0</ele><time>2026-04-04T05:41:15.001Z</time></trkpt><trkpt lat="13.917885323387706" lon="120.83853818560286"><ele>16.0</ele><time>2026-04-04T05:41:16.001Z</time></trkpt><trkpt lat="13.917979365257377" lon="120.83837632749183"><ele>16.0</ele><time>2026-04-04T05:41:17.001Z</time></trkpt><trkpt lat="13.918073000335202" lon="120.83821261758858"><ele>16.0</ele><time>2026-04-04T05:41:18.001Z</time></trkpt><trkpt lat="13.918164284137005" lon="120.83804939093595"><ele>16.0</ele><time>2026-04-04T05:41:19.001Z</time></trkpt><trkpt lat="13.918259171447376" lon="120.83788525963789"><ele>16.0</ele><time>2026-04-04T05:41:20.001Z</time></trkpt><trkpt lat="13.918354470082727" lon="120.83772143189702"><ele>16.0</ele><time>2026-04-04T05:41:21.001Z</time></trkpt><trkpt lat="13.918450702434392" lon="120.83755662651056"><ele>16.666666666666664</ele><time>2026-04-04T05:41:22.001Z</time></trkpt><trkpt lat="13.918545802867293" lon="120.83739068009145"><ele>17.333333333333332</ele><time>2026-04-04T05:41:23.001Z</time></trkpt><trkpt lat="13.918639641996485" lon="120.83722937932244"><ele>18.0</ele><time>2026-04-04T05:41:24.001Z</time></trkpt><trkpt lat="13.918733212435829" lon="120.83706258004145"><ele>18.0</ele><time>2026-04-04T05:41:25.001Z</time></trkpt><trkpt lat="13.918827791594046" lon="120.83690052606929"><ele>18.0</ele><time>2026-04-04T05:41:26.001Z</time></trkpt><trkpt lat="13.91892618266901" lon="120.83673225874621"><ele>18.0</ele><time>2026-04-04T05:41:27.001Z</time></trkpt><trkpt lat="13.91902171274425" lon="120.8365688237514"><ele>17.666666666666668</ele><time>2026-04-04T05:41:28.001Z</time></trkpt><trkpt lat="13.91911285872541" lon="120.83640638418937"><ele>17.333333333333336</ele><time>2026-04-04T05:41:29.001Z</time></trkpt><trkpt lat="13.919204007705293" lon="120.83624503343407"><ele>17.0</ele><time>2026-04-04T05:41:30.001Z</time></trkpt><trkpt lat="13.919295342876012" lon="120.83609204351616"><ele>17.0</ele><time>2026-04-04T05:41:31.001Z</time></trkpt><trkpt lat="13.919382215399546" lon="120.83593920430533"><ele>17.0</ele><time>2026-04-04T05:41:32.001Z</time></trkpt><trkpt lat="13.91946915682531" lon="120.83578821096556"><ele>17.0</ele><time>2026-04-04T05:41:33.001Z</time></trkpt><trkpt lat="13.919554978293819" lon="120.83564317142212"><ele>17.0</ele><time>2026-04-04T05:41:34.001Z</time></trkpt><trkpt lat="13.919641036271864" lon="120.83550134584391"><ele>17.0</ele><time>2026-04-04T05:41:35.001Z</time></trkpt><trkpt lat="13.919721323192402" lon="120.8353592813809"><ele>17.0</ele><time>2026-04-04T05:41:36.001Z</time></trkpt><trkpt lat="13.919800028891565" lon="120.83522239549383"><ele>16.666666666666668</ele><time>2026-04-04T05:41:37.001Z</time></trkpt><trkpt lat="13.919876687649785" lon="120.83508715954805"><ele>16.333333333333332</ele><time>2026-04-04T05:41:38.001Z</time></trkpt><trkpt lat="13.919954259870877" lon="120.83495385412795"><ele>16.0</ele><time>2026-04-04T05:41:39.001Z</time></trkpt><trkpt lat="13.920032950329185" lon="120.83482236125758"><ele>17.666666666666664</ele><time>2026-04-04T05:41:40.001Z</time></trkpt><trkpt lat="13.92010930572197" lon="120.8346908446358"><ele>19.333333333333332</ele><time>2026-04-04T05:41:41.001Z</time></trkpt><trkpt lat="13.920190339715116" lon="120.83455795285919"><ele>21.0</ele><time>2026-04-04T05:41:42.001Z</time></trkpt><trkpt lat="13.920271937869423" lon="120.83442624088843"><ele>20.666666666666668</ele><time>2026-04-04T05:41:43.001Z</time></trkpt><trkpt lat="13.920355904158582" lon="120.83429190548343"><ele>20.333333333333336</ele><time>2026-04-04T05:41:44.001Z</time></trkpt><trkpt lat="13.920439895323355" lon="120.83415656000795"><ele>20.0</ele><time>2026-04-04T05:41:45.001Z</time></trkpt><trkpt lat="13.920519656120948" lon="120.83402070672186"><ele>20.0</ele><time>2026-04-04T05:41:46.001Z</time></trkpt><trkpt lat="13.92059630347882" lon="120.83388200815627"><ele>20.0</ele><time>2026-04-04T05:41:47.001Z</time></trkpt><trkpt lat="13.92067602286696" lon="120.83374623740342"><ele>20.0</ele><time>2026-04-04T05:41:48.001Z</time></trkpt><trkpt lat="13.920756564315854" lon="120.8336103964104"><ele>20.0</ele><time>2026-04-04T05:41:49.001Z</time></trkpt><trkpt lat="13.920830455764307" lon="120.83347631857166"><ele>20.0</ele><time>2026-04-04T05:41:50.001Z</time></trkpt><trkpt lat="13.920903689614352" lon="120.83334245624869"><ele>20.0</ele><time>2026-04-04T05:41:51.001Z</time></trkpt><trkpt lat="13.920974006604037" lon="120.83321282650554"><ele>20.0</ele><time>2026-04-04T05:41:52.001Z</time></trkpt><trkpt lat="13.921042998076983" lon="120.83308049412808"><ele>20.0</ele><time>2026-04-04T05:41:53.001Z</time></trkpt><trkpt lat="13.921109894493135" lon="120.83295330997252"><ele>20.0</ele><time>2026-04-04T05:41:54.001Z</time></trkpt><trkpt lat="13.921175230931203" lon="120.8328245496177"><ele>20.0</ele><time>2026-04-04T05:41:55.001Z</time></trkpt><trkpt lat="13.921242927138557" lon="120.83270273224532"><ele>20.0</ele><time>2026-04-04T05:41:56.001Z</time></trkpt><trkpt lat="13.921308937321525" lon="120.83257764526667"><ele>19.75</ele><time>2026-04-04T05:41:57.001Z</time></trkpt><trkpt lat="13.92137699462027" lon="120.83246231164613"><ele>19.5</ele><time>2026-04-04T05:41:58.001Z</time></trkpt><trkpt lat="13.921448116681" lon="120.83233931446786"><ele>19.25</ele><time>2026-04-04T05:41:59.001Z</time></trkpt><trkpt lat="13.921519466250203" lon="120.83221743901439"><ele>19.0</ele><time>2026-04-04T05:42:00.001Z</time></trkpt><trkpt lat="13.921592292800389" lon="120.83209318982328"><ele>19.0</ele><time>2026-04-04T05:42:01.001Z</time></trkpt><trkpt lat="13.921667642603598" lon="120.83196762607996"><ele>19.0</ele><time>2026-04-04T05:42:02.001Z</time></trkpt><trkpt lat="13.92174172946384" lon="120.83183560720737"><ele>19.0</ele><time>2026-04-04T05:42:03.001Z</time></trkpt><trkpt lat="13.921817708659937" lon="120.83170491891579"><ele>19.0</ele><time>2026-04-04T05:42:04.001Z</time></trkpt><trkpt lat="13.921895668169405" lon="120.83157106008362"><ele>19.0</ele><time>2026-04-04T05:42:05.001Z</time></trkpt><trkpt lat="13.921974609505568" lon="120.83143451879046"><ele>19.0</ele><time>2026-04-04T05:42:06.001Z</time></trkpt><trkpt lat="13.922053649569744" lon="120.83129732912933"><ele>19.0</ele><time>2026-04-04T05:42:07.001Z</time></trkpt><trkpt lat="13.922136690629564" lon="120.83115598367885"><ele>19.0</ele><time>2026-04-04T05:42:08.001Z</time></trkpt><trkpt lat="13.922220444092018" lon="120.83101518096001"><ele>19.0</ele><time>2026-04-04T05:42:09.001Z</time></trkpt><trkpt lat="13.92230115322258" lon="120.83087120026808"><ele>19.0</ele><time>2026-04-04T05:42:10.001Z</time></trkpt><trkpt lat="13.922383111844109" lon="120.83072689267006"><ele>19.666666666666664</ele><time>2026-04-04T05:42:11.001Z</time></trkpt><trkpt lat="13.922466470674335" lon="120.83058132058561"><ele>20.333333333333332</ele><time>2026-04-04T05:42:12.001Z</time></trkpt><trkpt lat="13.922550615332288" lon="120.83043593914508"><ele>21.0</ele><time>2026-04-04T05:42:13.001Z</time></trkpt><trkpt lat="13.922635130478952" lon="120.83028910790252"><ele>21.333333333333332</ele><time>2026-04-04T05:42:14.001Z</time></trkpt><trkpt lat="13.922718215146539" lon="120.83014255403114"><ele>21.666666666666664</ele><time>2026-04-04T05:42:15.001Z</time></trkpt><trkpt lat="13.922800077336095" lon="120.82999497753524"><ele>22.0</ele><time>2026-04-04T05:42:16.001Z</time></trkpt><trkpt lat="13.92288559389536" lon="120.8298487755693"><ele>22.0</ele><time>2026-04-04T05:42:17.001Z</time></trkpt><trkpt lat="13.922971526532418" lon="120.82970447776243"><ele>22.0</ele><time>2026-04-04T05:42:18.001Z</time></trkpt><trkpt lat="13.923055843867909" lon="120.82955700389887"><ele>22.0</ele><time>2026-04-04T05:42:19.001Z</time></trkpt><trkpt lat="13.923139185536428" lon="120.82940930003"><ele>21.666666666666664</ele><time>2026-04-04T05:42:20.001Z</time></trkpt><trkpt lat="13.923223939490365" lon="120.82926337667416"><ele>21.333333333333332</ele><time>2026-04-04T05:42:21.001Z</time></trkpt><trkpt lat="13.923308264582703" lon="120.82912025778606"><ele>21.0</ele><time>2026-04-04T05:42:22.001Z</time></trkpt><trkpt lat="13.923392573457667" lon="120.82897235724415"><ele>19.666666666666668</ele><time>2026-04-04T05:42:23.001Z</time></trkpt><trkpt lat="13.923472400406624" lon="120.82882514119976"><ele>18.333333333333336</ele><time>2026-04-04T05:42:24.001Z</time></trkpt><trkpt lat="13.923552938636927" lon="120.82868696301665"><ele>17.0</ele><time>2026-04-04T05:42:25.001Z</time></trkpt><trkpt lat="13.923636749007736" lon="120.8285393046494"><ele>16.0</ele><time>2026-04-04T05:42:26.001Z</time></trkpt><trkpt lat="13.92372028164204" lon="120.82839743899483"><ele>15.0</ele><time>2026-04-04T05:42:27.001Z</time></trkpt><trkpt lat="13.923804317040725" lon="120.8282528824092"><ele>14.0</ele><time>2026-04-04T05:42:28.001Z</time></trkpt><trkpt lat="13.923885021368031" lon="120.82810980639994"><ele>14.0</ele><time>2026-04-04T05:42:29.001Z</time></trkpt><trkpt lat="13.923964572467813" lon="120.82796852961859"><ele>14.0</ele><time>2026-04-04T05:42:30.001Z</time></trkpt><trkpt lat="13.92404549848459" lon="120.82782724089375"><ele>14.0</ele><time>2026-04-04T05:42:31.001Z</time></trkpt><trkpt lat="13.924129385812977" lon="120.82768738566793"><ele>15.333333333333334</ele><time>2026-04-04T05:42:32.001Z</time></trkpt><trkpt lat="13.92420880884213" lon="120.8275527272967"><ele>16.666666666666668</ele><time>2026-04-04T05:42:33.001Z</time></trkpt><trkpt lat="13.92428615700143" lon="120.82740998732315"><ele>18.0</ele><time>2026-04-04T05:42:34.001Z</time></trkpt><trkpt lat="13.924358797865006" lon="120.82727252917277"><ele>18.0</ele><time>2026-04-04T05:42:35.001Z</time></trkpt><trkpt lat="13.924431238835577" lon="120.82712994532669"><ele>18.0</ele><time>2026-04-04T05:42:36.001Z</time></trkpt><trkpt lat="13.924492410817185" lon="120.82698135584965"><ele>18.0</ele><time>2026-04-04T05:42:37.001Z</time></trkpt><trkpt lat="13.924544103497118" lon="120.82683033570335"><ele>19.333333333333332</ele><time>2026-04-04T05:42:38.001Z</time></trkpt><trkpt lat="13.924586264575593" lon="120.82667370506898"><ele>20.666666666666664</ele><time>2026-04-04T05:42:39.001Z</time></trkpt><trkpt lat="13.92462175299355" lon="120.82651247221915"><ele>22.0</ele><time>2026-04-04T05:42:40.001Z</time></trkpt><trkpt lat="13.924649481981236" lon="120.82635143299989"><ele>22.0</ele><time>2026-04-04T05:42:41.001Z</time></trkpt><trkpt lat="13.924669722812112" lon="120.82618375601672"><ele>22.0</ele><time>2026-04-04T05:42:42.001Z</time></trkpt><trkpt lat="13.924684014908488" lon="120.82601871493765"><ele>22.0</ele><time>2026-04-04T05:42:43.001Z</time></trkpt><trkpt lat="13.924696858546882" lon="120.82585230439254"><ele>22.0</ele><time>2026-04-04T05:42:44.001Z</time></trkpt><trkpt lat="13.924712848978155" lon="120.82568534406327"><ele>22.0</ele><time>2026-04-04T05:42:45.001Z</time></trkpt><trkpt lat="13.92472713771681" lon="120.82551872144107"><ele>22.0</ele><time>2026-04-04T05:42:46.001Z</time></trkpt><trkpt lat="13.924740548070412" lon="120.82535261697191"><ele>22.0</ele><time>2026-04-04T05:42:47.001Z</time></trkpt><trkpt lat="13.924756999119197" lon="120.8251858258578"><ele>22.0</ele><time>2026-04-04T05:42:48.001Z</time></trkpt><trkpt lat="13.924782110500468" lon="120.82501362756012"><ele>22.0</ele><time>2026-04-04T05:42:49.001Z</time></trkpt><trkpt lat="13.92481392820771" lon="120.82485212054233"><ele>21.333333333333332</ele><time>2026-04-04T05:42:50.001Z</time></trkpt><trkpt lat="13.924848320416986" lon="120.82468551235262"><ele>20.666666666666668</ele><time>2026-04-04T05:42:51.001Z</time></trkpt><trkpt lat="13.924876779966098" lon="120.82451978315709"><ele>20.0</ele><time>2026-04-04T05:42:52.001Z</time></trkpt><trkpt lat="13.924904012264372" lon="120.82435960084004"><ele>19.666666666666668</ele><time>2026-04-04T05:42:53.001Z</time></trkpt><trkpt lat="13.924931367401568" lon="120.82420646906957"><ele>19.333333333333332</ele><time>2026-04-04T05:42:54.001Z</time></trkpt><trkpt lat="13.924961271137192" lon="120.82405460262711"><ele>19.0</ele><time>2026-04-04T05:42:55.001Z</time></trkpt><trkpt lat="13.924987495415436" lon="120.82390094849575"><ele>19.0</ele><time>2026-04-04T05:42:56.001Z</time></trkpt><trkpt lat="13.925017900842098" lon="120.82374396614289"><ele>19.0</ele><time>2026-04-04T05:42:57.001Z</time></trkpt><trkpt lat="13.925050608802978" lon="120.82358522832267"><ele>19.0</ele><time>2026-04-04T05:42:58.001Z</time></trkpt><trkpt lat="13.925084524183205" lon="120.82342670761146"><ele>19.333333333333332</ele><time>2026-04-04T05:42:59.001Z</time></trkpt><trkpt lat="13.925116978315845" lon="120.82326534635709"><ele>19.666666666666668</ele><time>2026-04-04T05:43:00.001Z</time></trkpt><trkpt lat="13.925147588458497" lon="120.82310499823676"><ele>20.0</ele><time>2026-04-04T05:43:01.001Z</time></trkpt><trkpt lat="13.925178544072304" lon="120.82294122681255"><ele>20.0</ele><time>2026-04-04T05:43:02.001Z</time></trkpt><trkpt lat="13.925212857491633" lon="120.82278067021227"><ele>20.0</ele><time>2026-04-04T05:43:03.001Z</time></trkpt><trkpt lat="13.925248325993985" lon="120.82261887294445"><ele>20.0</ele><time>2026-04-04T05:43:04.001Z</time></trkpt><trkpt lat="13.925279737185315" lon="120.82245389346743"><ele>19.666666666666668</ele><time>2026-04-04T05:43:05.001Z</time></trkpt><trkpt lat="13.92530793877308" lon="120.82228974128627"><ele>19.333333333333332</ele><time>2026-04-04T05:43:06.001Z</time></trkpt><trkpt lat="13.925337772531426" lon="120.82212800198214"><ele>19.0</ele><time>2026-04-04T05:43:07.001Z</time></trkpt><trkpt lat="13.925369137672096" lon="120.82196563289797"><ele>19.666666666666664</ele><time>2026-04-04T05:43:08.001Z</time></trkpt><trkpt lat="13.925402627402443" lon="120.82180099504961"><ele>20.333333333333332</ele><time>2026-04-04T05:43:09.001Z</time></trkpt><trkpt lat="13.925436225140668" lon="120.82163642652381"><ele>21.0</ele><time>2026-04-04T05:43:10.001Z</time></trkpt><trkpt lat="13.925467503028209" lon="120.82147176445866"><ele>21.0</ele><time>2026-04-04T05:43:11.001Z</time></trkpt><trkpt lat="13.925501552851038" lon="120.821304618135"><ele>21.0</ele><time>2026-04-04T05:43:12.001Z</time></trkpt><trkpt lat="13.92553400231149" lon="120.82113694070699"><ele>21.0</ele><time>2026-04-04T05:43:13.001Z</time></trkpt><trkpt lat="13.92556720191389" lon="120.82096821349123"><ele>19.333333333333332</ele><time>2026-04-04T05:43:14.001Z</time></trkpt><trkpt lat="13.92559907619404" lon="120.82079808583265"><ele>17.666666666666664</ele><time>2026-04-04T05:43:15.001Z</time></trkpt><trkpt lat="13.92562936527745" lon="120.82063373392212"><ele>16.0</ele><time>2026-04-04T05:43:16.001Z</time></trkpt><trkpt lat="13.925661384423258" lon="120.82046502238347"><ele>16.0</ele><time>2026-04-04T05:43:17.001Z</time></trkpt><trkpt lat="13.925693026524874" lon="120.82029835469538"><ele>16.0</ele><time>2026-04-04T05:43:18.001Z</time></trkpt><trkpt lat="13.925725501080036" lon="120.82013212954666"><ele>16.0</ele><time>2026-04-04T05:43:19.001Z</time></trkpt><trkpt lat="13.925758479239501" lon="120.81996900103222"><ele>16.0</ele><time>2026-04-04T05:43:20.001Z</time></trkpt><trkpt lat="13.925792005121938" lon="120.8198028054501"><ele>16.0</ele><time>2026-04-04T05:43:21.001Z</time></trkpt><trkpt lat="13.925824741784973" lon="120.81963537129991"><ele>16.0</ele><time>2026-04-04T05:43:22.001Z</time></trkpt><trkpt lat="13.925856522471992" lon="120.81946950090905"><ele>16.333333333333332</ele><time>2026-04-04T05:43:23.001Z</time></trkpt><trkpt lat="13.925888793573366" lon="120.81930313587249"><ele>16.666666666666668</ele><time>2026-04-04T05:43:24.001Z</time></trkpt><trkpt lat="13.925920453733692" lon="120.81913405851193"><ele>17.0</ele><time>2026-04-04T05:43:25.001Z</time></trkpt><trkpt lat="13.925951747169387" lon="120.81896885457324"><ele>17.0</ele><time>2026-04-04T05:43:26.001Z</time></trkpt><trkpt lat="13.925985281346183" lon="120.81880241563118"><ele>17.0</ele><time>2026-04-04T05:43:27.001Z</time></trkpt><trkpt lat="13.92601648948028" lon="120.81863470241329"><ele>17.0</ele><time>2026-04-04T05:43:28.001Z</time></trkpt><trkpt lat="13.926048408071704" lon="120.81847114466555"><ele>17.0</ele><time>2026-04-04T05:43:29.001Z</time></trkpt><trkpt lat="13.92608244964793" lon="120.8183052159783"><ele>17.0</ele><time>2026-04-04T05:43:30.001Z</time></trkpt><trkpt lat="13.926108465848685" lon="120.81814330758338"><ele>17.0</ele><time>2026-04-04T05:43:31.001Z</time></trkpt><trkpt lat="13.926137108707483" lon="120.81798163312332"><ele>17.0</ele><time>2026-04-04T05:43:32.001Z</time></trkpt><trkpt lat="13.926166037225178" lon="120.81782136560881"><ele>17.0</ele><time>2026-04-04T05:43:33.001Z</time></trkpt><trkpt lat="13.926194685081684" lon="120.81766351614885"><ele>17.0</ele><time>2026-04-04T05:43:34.001Z</time></trkpt><trkpt lat="13.926228415073748" lon="120.81750261046945"><ele>16.333333333333336</ele><time>2026-04-04T05:43:35.001Z</time></trkpt><trkpt lat="13.926259657287664" lon="120.81734052229059"><ele>15.666666666666668</ele><time>2026-04-04T05:43:36.001Z</time></trkpt><trkpt lat="13.92629303049515" lon="120.8171770653764"><ele>15.0</ele><time>2026-04-04T05:43:37.001Z</time></trkpt><trkpt lat="13.926326793732816" lon="120.81701083643456"><ele>15.0</ele><time>2026-04-04T05:43:38.001Z</time></trkpt><trkpt lat="13.926359860376339" lon="120.81684258220929"><ele>15.0</ele><time>2026-04-04T05:43:39.001Z</time></trkpt><trkpt lat="13.926393870030315" lon="120.81667173391773"><ele>15.0</ele><time>2026-04-04T05:43:40.001Z</time></trkpt><trkpt lat="13.926430418257818" lon="120.81650224104996"><ele>15.333333333333332</ele><time>2026-04-04T05:43:41.001Z</time></trkpt><trkpt lat="13.926463189521593" lon="120.81633115594205"><ele>15.666666666666666</ele><time>2026-04-04T05:43:42.001Z</time></trkpt><trkpt lat="13.926496714929227" lon="120.81615840160815"><ele>16.0</ele><time>2026-04-04T05:43:43.001Z</time></trkpt><trkpt lat="13.926529874045736" lon="120.81598571321592"><ele>15.0</ele><time>2026-04-04T05:43:44.001Z</time></trkpt><trkpt lat="13.926567152432291" lon="120.81581139526567"><ele>14.0</ele><time>2026-04-04T05:43:45.001Z</time></trkpt><trkpt lat="13.926602392694942" lon="120.81563768771358"><ele>13.0</ele><time>2026-04-04T05:43:46.001Z</time></trkpt><trkpt lat="13.926635905020685" lon="120.81546203668043"><ele>13.0</ele><time>2026-04-04T05:43:47.001Z</time></trkpt><trkpt lat="13.92667037629812" lon="120.81528836929839"><ele>13.0</ele><time>2026-04-04T05:43:48.001Z</time></trkpt><trkpt lat="13.926706611011522" lon="120.81511540541229"><ele>13.0</ele><time>2026-04-04T05:43:49.001Z</time></trkpt><trkpt lat="13.926742328763767" lon="120.81494497967631"><ele>13.333333333333332</ele><time>2026-04-04T05:43:50.001Z</time></trkpt><trkpt lat="13.926775366497955" lon="120.81477782634721"><ele>13.666666666666668</ele><time>2026-04-04T05:43:51.001Z</time></trkpt><trkpt lat="13.926806950401952" lon="120.81461128148584"><ele>14.0</ele><time>2026-04-04T05:43:52.001Z</time></trkpt><trkpt lat="13.926840493337094" lon="120.81445124826455"><ele>13.0</ele><time>2026-04-04T05:43:53.001Z</time></trkpt><trkpt lat="13.92687063442368" lon="120.81430970779765"><ele>12.0</ele><time>2026-04-04T05:43:54.001Z</time></trkpt><trkpt lat="13.926901910526114" lon="120.81417455798803"><ele>11.0</ele><time>2026-04-04T05:43:55.001Z</time></trkpt><trkpt lat="13.926926415022566" lon="120.81404986263942"><ele>10.0</ele><time>2026-04-04T05:43:56.001Z</time></trkpt><trkpt lat="13.926949048603522" lon="120.81393148008591"><ele>10.0</ele><time>2026-04-04T05:43:57.001Z</time></trkpt><trkpt lat="13.926970355715346" lon="120.81382364288248"><ele>10.0</ele><time>2026-04-04T05:43:58.001Z</time></trkpt><trkpt lat="13.926991560706128" lon="120.81372171924473"><ele>10.0</ele><time>2026-04-04T05:43:59.001Z</time></trkpt><trkpt lat="13.92701250068593" lon="120.81363033312819"><ele>10.0</ele><time>2026-04-04T05:44:00.001Z</time></trkpt><trkpt lat="13.927026893486822" lon="120.81355335461238"><ele>10.0</ele><time>2026-04-04T05:44:01.001Z</time></trkpt><trkpt lat="13.92704767748957" lon="120.81348582380838"><ele>10.0</ele><time>2026-04-04T05:44:02.001Z</time></trkpt><trkpt lat="13.927085924816751" lon="120.81339550141531"><ele>10.8</ele><time>2026-04-04T05:44:04.001Z</time></trkpt><trkpt lat="13.927177278947585" lon="120.81331768395712"><ele>11.6</ele><time>2026-04-04T05:44:06.001Z</time></trkpt><trkpt lat="13.92728523120577" lon="120.8133089151842"><ele>12.399999999999999</ele><time>2026-04-04T05:44:08.001Z</time></trkpt><trkpt lat="13.927353985183373" lon="120.81331251785011"><ele>13.2</ele><time>2026-04-04T05:44:09.001Z</time></trkpt><trkpt lat="13.927427199482233" lon="120.81331487352664"><ele>14.0</ele><time>2026-04-04T05:44:10.001Z</time></trkpt><trkpt lat="13.927509907386563" lon="120.813309849341"><ele>14.000000000000002</ele><time>2026-04-04T05:44:11.001Z</time></trkpt><trkpt lat="13.927583492372914" lon="120.8133108785346"><ele>14.0</ele><time>2026-04-04T05:44:12.001Z</time></trkpt><trkpt lat="13.927675878848193" lon="120.81331272627138"><ele>14.0</ele><time>2026-04-04T05:44:13.001Z</time></trkpt><trkpt lat="13.927762209197036" lon="120.81330732942497"><ele>14.0</ele><time>2026-04-04T05:44:14.001Z</time></trkpt><trkpt lat="13.927851598341274" lon="120.8133040704868"><ele>14.000000000000002</ele><time>2026-04-04T05:44:15.001Z</time></trkpt><trkpt lat="13.92792195384027" lon="120.81330269158907"><ele>14.0</ele><time>2026-04-04T05:44:16.001Z</time></trkpt><trkpt lat="13.928007274961521" lon="120.81330492602241"><ele>14.0</ele><time>2026-04-04T05:44:17.001Z</time></trkpt><trkpt lat="13.928082445396011" lon="120.81330263364305"><ele>14.0</ele><time>2026-04-04T05:44:18.001Z</time></trkpt><trkpt lat="13.928149431825508" lon="120.81330103442178"><ele>14.0</ele><time>2026-04-04T05:44:19.001Z</time></trkpt><trkpt lat="13.928214106605251" lon="120.81330078281292"><ele>14.0</ele><time>2026-04-04T05:44:20.001Z</time></trkpt><trkpt lat="13.928291322892676" lon="120.81329314204345"><ele>14.0</ele><time>2026-04-04T05:44:21.001Z</time></trkpt><trkpt lat="13.928367724254949" lon="120.81329389940365"><ele>14.0</ele><time>2026-04-04T05:44:22.001Z</time></trkpt><trkpt lat="13.928439322146636" lon="120.81329357227773"><ele>14.0</ele><time>2026-04-04T05:44:23.001Z</time></trkpt><trkpt lat="13.92850806648341" lon="120.81329158017739"><ele>14.333333333333334</ele><time>2026-04-04T05:44:24.001Z</time></trkpt><trkpt lat="13.928579692147782" lon="120.81329443946962"><ele>14.666666666666668</ele><time>2026-04-04T05:44:25.001Z</time></trkpt><trkpt lat="13.92866288101676" lon="120.81329336608468"><ele>15.0</ele><time>2026-04-04T05:44:26.001Z</time></trkpt><trkpt lat="13.928741277253154" lon="120.81329553118188"><ele>15.333333333333332</ele><time>2026-04-04T05:44:27.001Z</time></trkpt><trkpt lat="13.928827388459624" lon="120.81329500451155"><ele>15.666666666666666</ele><time>2026-04-04T05:44:28.001Z</time></trkpt><trkpt lat="13.928904296204426" lon="120.81329471990139"><ele>16.0</ele><time>2026-04-04T05:44:29.001Z</time></trkpt><trkpt lat="13.928969894022444" lon="120.81329410309141"><ele>15.999999999999998</ele><time>2026-04-04T05:44:30.001Z</time></trkpt><trkpt lat="13.929052766524118" lon="120.81328872732834"><ele>16.0</ele><time>2026-04-04T05:44:31.001Z</time></trkpt><trkpt lat="13.929121834430003" lon="120.81329101041884"><ele>16.0</ele><time>2026-04-04T05:44:32.001Z</time></trkpt><trkpt lat="13.92923742766295" lon="120.81329521185269"><ele>16.0</ele><time>2026-04-04T05:44:34.001Z</time></trkpt><trkpt lat="13.929311231358481" lon="120.81329234611479"><ele>15.999999999999998</ele><time>2026-04-04T05:44:35.001Z</time></trkpt><trkpt lat="13.929378614665684" lon="120.81329136252766"><ele>16.0</ele><time>2026-04-04T05:44:36.001Z</time></trkpt><trkpt lat="13.92944899677394" lon="120.81328902980196"><ele>16.333333333333332</ele><time>2026-04-04T05:44:37.001Z</time></trkpt><trkpt lat="13.929523356369836" lon="120.81329142722328"><ele>16.666666666666664</ele><time>2026-04-04T05:44:38.001Z</time></trkpt><trkpt lat="13.929598972394139" lon="120.81329252451998"><ele>17.0</ele><time>2026-04-04T05:44:39.001Z</time></trkpt><trkpt lat="13.92967026423412" lon="120.81329438866038"><ele>17.333333333333332</ele><time>2026-04-04T05:44:40.001Z</time></trkpt><trkpt lat="13.929783352806423" lon="120.81329120661738"><ele>17.666666666666668</ele><time>2026-04-04T05:44:42.001Z</time></trkpt><trkpt lat="13.929887808387663" lon="120.81328150526377"><ele>18.0</ele><time>2026-04-04T05:44:44.001Z</time></trkpt><trkpt lat="13.930000656143218" lon="120.81327057569098"><ele>18.4</ele><time>2026-04-04T05:44:46.001Z</time></trkpt><trkpt lat="13.930063496265248" lon="120.81326568122267"><ele>18.8</ele><time>2026-04-04T05:44:47.001Z</time></trkpt><trkpt lat="13.930130322558332" lon="120.8132615546344"><ele>19.2</ele><time>2026-04-04T05:44:48.001Z</time></trkpt><trkpt lat="13.930251118218566" lon="120.81325531211428"><ele>19.6</ele><time>2026-04-04T05:44:50.001Z</time></trkpt><trkpt lat="13.93037420944376" lon="120.81324718226011"><ele>20.0</ele><time>2026-04-04T05:44:52.001Z</time></trkpt><trkpt lat="13.930504071973724" lon="120.81325579550705"><ele>20.0</ele><time>2026-04-04T05:44:54.001Z</time></trkpt><trkpt lat="13.930628709891995" lon="120.81325726641275"><ele>20.0</ele><time>2026-04-04T05:44:56.001Z</time></trkpt><trkpt lat="13.930695496115122" lon="120.81325570033974"><ele>20.0</ele><time>2026-04-04T05:44:57.001Z</time></trkpt><trkpt lat="13.930804077260724" lon="120.81324051569469"><ele>20.0</ele><time>2026-04-04T05:44:59.001Z</time></trkpt><trkpt lat="13.930920432747884" lon="120.8132428097692"><ele>20.0</ele><time>2026-04-04T05:45:01.001Z</time></trkpt><trkpt lat="13.931006551119234" lon="120.81324752208636"><ele>20.333333333333336</ele><time>2026-04-04T05:45:03.001Z</time></trkpt><trkpt lat="13.93109625978777" lon="120.8132430573985"><ele>20.666666666666668</ele><time>2026-04-04T05:45:05.001Z</time></trkpt><trkpt lat="13.931189897400985" lon="120.81325804104615"><ele>21.0</ele><time>2026-04-04T05:45:07.001Z</time></trkpt><trkpt lat="13.931268719156941" lon="120.81327842985112"><ele>21.333333333333332</ele><time>2026-04-04T05:45:09.001Z</time></trkpt><trkpt lat="13.9312981686438" lon="120.81335828963893"><ele>21.666666666666664</ele><time>2026-04-04T05:45:11.001Z</time></trkpt><trkpt lat="13.931314115016923" lon="120.81342299593659"><ele>22.0</ele><time>2026-04-04T05:45:12.001Z</time></trkpt><trkpt lat="13.931312593041133" lon="120.81352121035303"><ele>22.5</ele><time>2026-04-04T05:45:14.001Z</time></trkpt><trkpt lat="13.931311550396787" lon="120.81358913044329"><ele>23.0</ele><time>2026-04-04T05:45:15.001Z</time></trkpt><trkpt lat="13.931314501869734" lon="120.81366007562843"><ele>23.5</ele><time>2026-04-04T05:45:16.001Z</time></trkpt><trkpt lat="13.931322244871637" lon="120.81374291416584"><ele>24.0</ele><time>2026-04-04T05:45:17.001Z</time></trkpt><trkpt lat="13.931328116254468" lon="120.81381608499429"><ele>24.500000000000004</ele><time>2026-04-04T05:45:18.001Z</time></trkpt><trkpt lat="13.931330881239992" lon="120.81392101693197"><ele>25.0</ele><time>2026-04-04T05:45:20.001Z</time></trkpt><trkpt lat="13.931377571269131" lon="120.8139748192474"><ele>25.000000000000004</ele><time>2026-04-04T05:45:23.001Z</time></trkpt><trkpt lat="13.931488628896332" lon="120.8139730413252"><ele>25.0</ele><time>2026-04-04T05:45:25.001Z</time></trkpt><trkpt lat="13.93155900305153" lon="120.81396364172195"><ele>25.0</ele><time>2026-04-04T05:45:26.001Z</time></trkpt><trkpt lat="13.93163535199506" lon="120.81395868048747"><ele>25.0</ele><time>2026-04-04T05:45:27.001Z</time></trkpt><trkpt lat="13.931716470421586" lon="120.81396200777901"><ele>25.000000000000004</ele><time>2026-04-04T05:45:28.001Z</time></trkpt><trkpt lat="13.93180376825948" lon="120.81395813434825"><ele>25.0</ele><time>2026-04-04T05:45:29.001Z</time></trkpt><trkpt lat="13.93189337970414" lon="120.81395640144723"><ele>25.166666666666668</ele><time>2026-04-04T05:45:30.001Z</time></trkpt><trkpt lat="13.931979942008647" lon="120.81395566014042"><ele>25.333333333333336</ele><time>2026-04-04T05:45:31.001Z</time></trkpt><trkpt lat="13.93205926292161" lon="120.81395471968533"><ele>25.5</ele><time>2026-04-04T05:45:32.001Z</time></trkpt><trkpt lat="13.93214326008434" lon="120.81395542528577"><ele>25.666666666666664</ele><time>2026-04-04T05:45:33.001Z</time></trkpt><trkpt lat="13.93223152917744" lon="120.8139552037969"><ele>25.833333333333332</ele><time>2026-04-04T05:45:34.001Z</time></trkpt><trkpt lat="13.932310344490567" lon="120.81394832855524"><ele>26.0</ele><time>2026-04-04T05:45:35.001Z</time></trkpt><trkpt lat="13.932378571045438" lon="120.81394942161128"><ele>25.999999999999996</ele><time>2026-04-04T05:45:36.001Z</time></trkpt><trkpt lat="13.932480713637364" lon="120.81394839459203"><ele>26.0</ele><time>2026-04-04T05:45:38.001Z</time></trkpt><trkpt lat="13.93254438822167" lon="120.8139472813934"><ele>26.0</ele><time>2026-04-04T05:45:39.001Z</time></trkpt><trkpt lat="13.932615129133284" lon="120.81394833801772"><ele>26.0</ele><time>2026-04-04T05:45:40.001Z</time></trkpt><trkpt lat="13.932695147500755" lon="120.81395105023209"><ele>25.999999999999996</ele><time>2026-04-04T05:45:41.001Z</time></trkpt><trkpt lat="13.932781166741409" lon="120.81394906898825"><ele>26.0</ele><time>2026-04-04T05:45:42.001Z</time></trkpt><trkpt lat="13.932867293976999" lon="120.81394910067856"><ele>25.833333333333332</ele><time>2026-04-04T05:45:43.001Z</time></trkpt><trkpt lat="13.932959527013205" lon="120.81394643090938"><ele>25.666666666666664</ele><time>2026-04-04T05:45:44.001Z</time></trkpt><trkpt lat="13.93304700835726" lon="120.81394464125238"><ele>25.5</ele><time>2026-04-04T05:45:45.001Z</time></trkpt><trkpt lat="13.93312592713633" lon="120.81394357081281"><ele>25.333333333333336</ele><time>2026-04-04T05:45:46.001Z</time></trkpt><trkpt lat="13.933200546936954" lon="120.81394460785549"><ele>25.166666666666668</ele><time>2026-04-04T05:45:47.001Z</time></trkpt><trkpt lat="13.933284738613557" lon="120.81394493489726"><ele>25.0</ele><time>2026-04-04T05:45:48.001Z</time></trkpt><trkpt lat="13.933369681843926" lon="120.8139419340491"><ele>25.833333333333336</ele><time>2026-04-04T05:45:49.001Z</time></trkpt><trkpt lat="13.933434890785902" lon="120.8139368431497"><ele>26.666666666666668</ele><time>2026-04-04T05:45:50.001Z</time></trkpt><trkpt lat="13.933532222005518" lon="120.81394405362286"><ele>27.5</ele><time>2026-04-04T05:45:52.001Z</time></trkpt><trkpt lat="13.933612411594188" lon="120.81393893389952"><ele>28.333333333333336</ele><time>2026-04-04T05:45:55.001Z</time></trkpt><trkpt lat="13.933696540710997" lon="120.81393471923427"><ele>29.166666666666668</ele><time>2026-04-04T05:45:57.001Z</time></trkpt><trkpt lat="13.933816816895353" lon="120.81392633507899"><ele>30.0</ele><time>2026-04-04T05:45:59.001Z</time></trkpt><trkpt lat="13.933879805841741" lon="120.8139215011356"><ele>30.0</ele><time>2026-04-04T05:46:00.001Z</time></trkpt><trkpt lat="13.93394277817751" lon="120.81392984056723"><ele>30.0</ele><time>2026-04-04T05:46:01.001Z</time></trkpt><trkpt lat="13.934010217587405" lon="120.81392203822132"><ele>30.0</ele><time>2026-04-04T05:46:02.001Z</time></trkpt><trkpt lat="13.934083576396564" lon="120.81392307467047"><ele>30.0</ele><time>2026-04-04T05:46:04.001Z</time></trkpt><trkpt lat="13.934167086743496" lon="120.81390581063951"><ele>30.0</ele><time>2026-04-04T05:46:08.001Z</time></trkpt><trkpt lat="13.934239628847457" lon="120.81392393538007"><ele>30.0</ele><time>2026-04-04T05:46:10.001Z</time></trkpt><trkpt lat="13.934330070725597" lon="120.81391314973213"><ele>30.333333333333332</ele><time>2026-04-04T05:46:13.001Z</time></trkpt><trkpt lat="13.934405331850682" lon="120.8138957741617"><ele>30.666666666666664</ele><time>2026-04-04T05:46:16.001Z</time></trkpt><trkpt lat="13.934457440060166" lon="120.81382898762045"><ele>31.0</ele><time>2026-04-04T05:46:19.001Z</time></trkpt><trkpt lat="13.934485359110278" lon="120.8137553247558"><ele>31.333333333333332</ele><time>2026-04-04T05:46:22.001Z</time></trkpt><trkpt lat="13.934517223486214" lon="120.81369629417533"><ele>31.666666666666664</ele><time>2026-04-04T05:46:33.001Z</time></trkpt><trkpt lat="13.934516019974096" lon="120.81362085253805"><ele>32.0</ele><time>2026-04-04T05:46:37.001Z</time></trkpt><trkpt lat="13.93449090187923" lon="120.81370217994319"><ele>31.999999999999996</ele><time>2026-04-04T05:46:52.001Z</time></trkpt><trkpt lat="13.934458492518296" lon="120.8137871600566"><ele>32.0</ele><time>2026-04-04T05:46:55.001Z</time></trkpt><trkpt lat="13.934442893280439" lon="120.81387572760542"><ele>32.0</ele><time>2026-04-04T05:46:57.001Z</time></trkpt><trkpt lat="13.934452626312737" lon="120.81394015126743"><ele>32.0</ele><time>2026-04-04T05:46:59.001Z</time></trkpt><trkpt lat="13.934479072660482" lon="120.81402459872449"><ele>31.999999999999996</ele><time>2026-04-04T05:47:02.001Z</time></trkpt><trkpt lat="13.934526493175424" lon="120.81406877521417"><ele>32.0</ele><time>2026-04-04T05:47:04.001Z</time></trkpt><trkpt lat="13.9345809337723" lon="120.81410408608518"><ele>32.0</ele><time>2026-04-04T05:47:09.001Z</time></trkpt><trkpt lat="13.934644146510648" lon="120.81409771662622"><ele>31.999999999999996</ele><time>2026-04-04T05:47:12.001Z</time></trkpt><trkpt lat="13.934717028802718" lon="120.81412789860316"><ele>32.0</ele><time>2026-04-04T05:47:15.001Z</time></trkpt><trkpt lat="13.93475517002367" lon="120.81419223416349"><ele>32.0</ele><time>2026-04-04T05:47:17.001Z</time></trkpt><trkpt lat="13.934820119349459" lon="120.81424172188429"><ele>31.999999999999996</ele><time>2026-04-04T05:47:21.001Z</time></trkpt><trkpt lat="13.934875275532606" lon="120.81420825244076"><ele>32.0</ele><time>2026-04-04T05:47:24.001Z</time></trkpt><trkpt lat="13.934874470202079" lon="120.8141412144844"><ele>32.0</ele><time>2026-04-04T05:47:28.001Z</time></trkpt><trkpt lat="13.934822532121128" lon="120.81409107920435"><ele>32.0</ele><time>2026-04-04T05:47:32.001Z</time></trkpt><trkpt lat="13.934780274931441" lon="120.81403857430014"><ele>32.0</ele><time>2026-04-04T05:47:37.001Z</time></trkpt><trkpt lat="13.934781015208703" lon="120.81410532919465"><ele>32.0</ele><time>2026-04-04T05:49:14.001Z</time></trkpt><trkpt lat="13.934704218313811" lon="120.8141289328346"><ele>32.0</ele><time>2026-04-04T05:50:26Z</time></trkpt><trkpt lat="13.934625889523675" lon="120.81394798752763"><ele>32.0</ele><time>2026-04-04T05:50:37.001Z</time></trkpt><trkpt lat="13.934599112754631" lon="120.81388719832562"><ele>32.0</ele><time>2026-04-04T05:50:42.083Z</time></trkpt><trkpt lat="13.934559327633368" lon="120.81382842008964"><ele>32.0</ele><time>2026-04-04T05:50:51.044Z</time></trkpt><trkpt lat="13.934665481604847" lon="120.81381378999679"><ele>32.0</ele><time>2026-04-04T05:51:00.041Z</time></trkpt><trkpt lat="13.934595295027288" lon="120.81369139790246"><ele>32.0</ele><time>2026-04-04T05:51:02.04Z</time></trkpt><trkpt lat="13.93455250996936" lon="120.81362116483801"><ele>32.0</ele><time>2026-04-04T05:51:04.044Z</time></trkpt><trkpt lat="13.934612563185162" lon="120.81370886349576"><ele>31.999999999999996</ele><time>2026-04-04T05:51:06.041Z</time></trkpt><trkpt lat="13.934584076801075" lon="120.81377662077678"><ele>32.0</ele><time>2026-04-04T05:51:11.041Z</time></trkpt><trkpt lat="13.934625850196834" lon="120.81365255384507"><ele>32.0</ele><time>2026-04-04T05:52:16.02Z</time></trkpt><trkpt lat="13.934623546368032" lon="120.81371935990107"><ele>32.0</ele><time>2026-04-04T05:52:19.022Z</time></trkpt><trkpt lat="13.934697040416628" lon="120.81373709646336"><ele>31.999999999999996</ele><time>2026-04-04T05:52:26.001Z</time></trkpt><trkpt lat="13.934771915429518" lon="120.81373464183008"><ele>32.0</ele><time>2026-04-04T05:52:34Z</time></trkpt><trkpt lat="13.934832415020281" lon="120.81371392111667"><ele>32.0</ele><time>2026-04-04T05:52:42Z</time></trkpt><trkpt lat="13.93484766179828" lon="120.81364929147686"><ele>31.999999999999996</ele><time>2026-04-04T05:52:55Z</time></trkpt><trkpt lat="13.934893419440916" lon="120.81370356025005"><ele>32.0</ele><time>2026-04-04T05:53:57.001Z</time></trkpt><trkpt lat="13.934884473329271" lon="120.81377305476597"><ele>32.0</ele><time>2026-04-04T05:55:07Z</time></trkpt><trkpt lat="13.93481514989672" lon="120.8137522695227"><ele>31.999999999999996</ele><time>2026-04-04T05:55:14Z</time></trkpt><trkpt lat="13.934741753949448" lon="120.8137501766107"><ele>32.0</ele><time>2026-04-04T05:55:20Z</time></trkpt><trkpt lat="13.934677176244314" lon="120.81375225034226"><ele>32.0</ele><time>2026-04-04T05:55:27Z</time></trkpt><trkpt lat="13.934613812311108" lon="120.81373404750464"><ele>31.999999999999996</ele><time>2026-04-04T05:55:36Z</time></trkpt><trkpt lat="13.934541557900332" lon="120.81377973164255"><ele>32.0</ele><time>2026-04-04T05:56:48.998Z</time></trkpt><trkpt lat="13.934510024698826" lon="120.81384633768701"><ele>32.0</ele><time>2026-04-04T05:56:55.999Z</time></trkpt><trkpt lat="13.934491391583585" lon="120.8139126591093"><ele>32.0</ele><time>2026-04-04T05:57:03.999Z</time></trkpt><trkpt lat="13.934506230965674" lon="120.81397851756527"><ele>31.999999999999996</ele><time>2026-04-04T05:57:09.999Z</time></trkpt><trkpt lat="13.934506083198857" lon="120.81390821477522"><ele>32.0</ele><time>2026-04-04T05:58:03Z</time></trkpt><trkpt lat="13.93464965424298" lon="120.81399062715492"><ele>31.999999999999996</ele><time>2026-04-04T05:58:42.085Z</time></trkpt><trkpt lat="13.934729633434475" lon="120.8140143565583"><ele>32.0</ele><time>2026-04-04T05:58:43.088Z</time></trkpt><trkpt lat="13.934738437346457" lon="120.81412786596621"><ele>32.0</ele><time>2026-04-04T05:58:44.001Z</time></trkpt><trkpt lat="13.934698251610826" lon="120.8141990305492"><ele>32.0</ele><time>2026-04-04T05:58:45.001Z</time></trkpt><trkpt lat="13.934724723367223" lon="120.81411127228758"><ele>31.999999999999996</ele><time>2026-04-04T05:58:46.001Z</time></trkpt><trkpt lat="13.934787243095903" lon="120.81405016452186"><ele>32.0</ele><time>2026-04-04T05:58:55.999Z</time></trkpt><trkpt lat="13.934870938719056" lon="120.8140982490329"><ele>32.0</ele><time>2026-04-04T06:01:44.001Z</time></trkpt><trkpt lat="13.934871862500394" lon="120.8141685329023"><ele>31.999999999999996</ele><time>2026-04-04T06:01:55.001Z</time></trkpt><trkpt lat="13.93487053573559" lon="120.81423707834905"><ele>32.0</ele><time>2026-04-04T06:02:06.001Z</time></trkpt><trkpt lat="13.934846232303808" lon="120.8141690222826"><ele>32.0</ele><time>2026-04-04T06:06:43.002Z</time></trkpt><trkpt lat="13.934799126586586" lon="120.8141120209784"><ele>31.999999999999996</ele><time>2026-04-04T06:06:50.002Z</time></trkpt><trkpt lat="13.934766961345256" lon="120.8140546162048"><ele>32.0</ele><time>2026-04-04T06:07:05.002Z</time></trkpt><trkpt lat="13.934758510125159" lon="120.81396684908897"><ele>32.0</ele><time>2026-04-04T06:49:22Z</time></trkpt><trkpt lat="13.934735662042366" lon="120.81403035905544"><ele>31.999999999999996</ele><time>2026-04-04T06:49:33Z</time></trkpt><trkpt lat="13.93470601448259" lon="120.81411213263131"><ele>32.0</ele><time>2026-04-04T06:49:36Z</time></trkpt><trkpt lat="13.934741301796123" lon="120.81417479648074"><ele>32.0</ele><time>2026-04-04T06:49:38Z</time></trkpt><trkpt lat="13.934779170154725" lon="120.81424152522328"><ele>32.0</ele><time>2026-04-04T06:49:41Z</time></trkpt><trkpt lat="13.934771375062207" lon="120.81433881697855"><ele>31.999999999999996</ele><time>2026-04-04T06:49:44Z</time></trkpt><trkpt lat="13.934759794394408" lon="120.81443532449397"><ele>32.0</ele><time>2026-04-04T06:49:47Z</time></trkpt><trkpt lat="13.934829386513426" lon="120.81450428427335"><ele>31.833333333333332</ele><time>2026-04-04T06:49:54Z</time></trkpt><trkpt lat="13.934892843102263" lon="120.81451339087315"><ele>31.666666666666664</ele><time>2026-04-04T06:49:55Z</time></trkpt><trkpt lat="13.935021899300914" lon="120.81452474577108"><ele>31.5</ele><time>2026-04-04T06:49:57Z</time></trkpt><trkpt lat="13.935101584098819" lon="120.81453108521909"><ele>31.333333333333336</ele><time>2026-04-04T06:49:58Z</time></trkpt><trkpt lat="13.935187546885276" lon="120.81453738738782"><ele>31.166666666666668</ele><time>2026-04-04T06:49:59Z</time></trkpt><trkpt lat="13.935273081538352" lon="120.81454353817172"><ele>31.0</ele><time>2026-04-04T06:50:00Z</time></trkpt><trkpt lat="13.935361995637479" lon="120.81454612602894"><ele>31.000000000000004</ele><time>2026-04-04T06:50:01Z</time></trkpt><trkpt lat="13.935450989206842" lon="120.81454523157616"><ele>31.0</ele><time>2026-04-04T06:50:02Z</time></trkpt><trkpt lat="13.935534550111763" lon="120.81454406224543"><ele>31.0</ele><time>2026-04-04T06:50:03Z</time></trkpt><trkpt lat="13.935615120850521" lon="120.81454910532335"><ele>31.0</ele><time>2026-04-04T06:50:04Z</time></trkpt><trkpt lat="13.935695785430525" lon="120.81456160742087"><ele>31.000000000000004</ele><time>2026-04-04T06:50:05Z</time></trkpt><trkpt lat="13.935765281552202" lon="120.81460569570736"><ele>31.0</ele><time>2026-04-04T06:50:06Z</time></trkpt><trkpt lat="13.935838265698036" lon="120.8146591649603"><ele>31.0</ele><time>2026-04-04T06:50:07Z</time></trkpt><trkpt lat="13.935856498373102" lon="120.81475130085535"><ele>31.0</ele><time>2026-04-04T06:50:08Z</time></trkpt><trkpt lat="13.935901043411537" lon="120.8148337007599"><ele>31.0</ele><time>2026-04-04T06:50:09Z</time></trkpt><trkpt lat="13.935946963025172" lon="120.81491864336961"><ele>31.0</ele><time>2026-04-04T06:50:10Z</time></trkpt><trkpt lat="13.935993363113871" lon="120.81500447476634"><ele>31.0</ele><time>2026-04-04T06:50:11Z</time></trkpt><trkpt lat="13.936043769162838" lon="120.81509771643346"><ele>31.200000000000003</ele><time>2026-04-04T06:50:12Z</time></trkpt><trkpt lat="13.936093901037767" lon="120.81519045093145"><ele>31.400000000000002</ele><time>2026-04-04T06:50:13Z</time></trkpt><trkpt lat="13.936139057760977" lon="120.8152868220561"><ele>31.6</ele><time>2026-04-04T06:50:14Z</time></trkpt><trkpt lat="13.936185240424344" lon="120.81538394699277"><ele>31.8</ele><time>2026-04-04T06:50:15Z</time></trkpt><trkpt lat="13.936231216624634" lon="120.81548063772755"><ele>32.0</ele><time>2026-04-04T06:50:16Z</time></trkpt><trkpt lat="13.936283724797807" lon="120.81558205851256"><ele>32.0</ele><time>2026-04-04T06:50:17Z</time></trkpt><trkpt lat="13.93633828466191" lon="120.81568286603921"><ele>32.0</ele><time>2026-04-04T06:50:18Z</time></trkpt><trkpt lat="13.936390033770605" lon="120.81577848027621"><ele>32.0</ele><time>2026-04-04T06:50:19Z</time></trkpt><trkpt lat="13.936446402227313" lon="120.81588262945014"><ele>32.0</ele><time>2026-04-04T06:50:20Z</time></trkpt><trkpt lat="13.936499402141402" lon="120.81598055473758"><ele>32.0</ele><time>2026-04-04T06:50:21Z</time></trkpt><trkpt lat="13.936553624770964" lon="120.81608073917411"><ele>32.0</ele><time>2026-04-04T06:50:22Z</time></trkpt><trkpt lat="13.936607198548367" lon="120.81617861878827"><ele>32.0</ele><time>2026-04-04T06:50:23Z</time></trkpt><trkpt lat="13.936678140751436" lon="120.81626674552946"><ele>32.0</ele><time>2026-04-04T06:50:24.001Z</time></trkpt><trkpt lat="13.936741264242436" lon="120.81636501333035"><ele>32.0</ele><time>2026-04-04T06:50:25.001Z</time></trkpt><trkpt lat="13.936816681599183" lon="120.81645650994439"><ele>33.25</ele><time>2026-04-04T06:50:26.001Z</time></trkpt><trkpt lat="13.936903064931458" lon="120.81653921425857"><ele>34.5</ele><time>2026-04-04T06:50:27.001Z</time></trkpt><trkpt lat="13.93699161265538" lon="120.8166168841345"><ele>35.75</ele><time>2026-04-04T06:50:28.001Z</time></trkpt><trkpt lat="13.937060760469539" lon="120.81671575797291"><ele>37.0</ele><time>2026-04-04T06:50:29.001Z</time></trkpt><trkpt lat="13.937136168031726" lon="120.81680730882074"><ele>37.0</ele><time>2026-04-04T06:50:30.001Z</time></trkpt><trkpt lat="13.937208743952567" lon="120.81689542183663"><ele>37.0</ele><time>2026-04-04T06:50:31.001Z</time></trkpt><trkpt lat="13.937358662194665" lon="120.81689967940044"><ele>37.0</ele><time>2026-04-04T06:50:32.001Z</time></trkpt><trkpt lat="13.9374573108067" lon="120.81693695527444"><ele>37.0</ele><time>2026-04-04T06:50:33.001Z</time></trkpt><trkpt lat="13.937565959002468" lon="120.8169600993188"><ele>37.0</ele><time>2026-04-04T06:50:34.001Z</time></trkpt><trkpt lat="13.937662436035746" lon="120.8169788918244"><ele>37.0</ele><time>2026-04-04T06:50:35.001Z</time></trkpt><trkpt lat="13.937773643492763" lon="120.81699435381515"><ele>37.0</ele><time>2026-04-04T06:50:36.001Z</time></trkpt><trkpt lat="13.937877802919123" lon="120.8170124719309"><ele>37.0</ele><time>2026-04-04T06:50:37.001Z</time></trkpt><trkpt lat="13.937991381951598" lon="120.81702637891003"><ele>37.0</ele><time>2026-04-04T06:50:38.001Z</time></trkpt><trkpt lat="13.938101003767061" lon="120.81704721002107"><ele>37.0</ele><time>2026-04-04T06:50:39.001Z</time></trkpt><trkpt lat="13.938200821451554" lon="120.81706193462088"><ele>37.0</ele><time>2026-04-04T06:50:40.001Z</time></trkpt><trkpt lat="13.93830986924632" lon="120.81705620403615"><ele>37.0</ele><time>2026-04-04T06:50:41.001Z</time></trkpt><trkpt lat="13.938410973351507" lon="120.81703836811224"><ele>37.0</ele><time>2026-04-04T06:50:42.001Z</time></trkpt><trkpt lat="13.938508772560056" lon="120.81700331066304"><ele>37.0</ele><time>2026-04-04T06:50:43.001Z</time></trkpt><trkpt lat="13.938610026965" lon="120.81695331373103"><ele>37.8</ele><time>2026-04-04T06:50:44.001Z</time></trkpt><trkpt lat="13.938707298957041" lon="120.81691946699654"><ele>38.6</ele><time>2026-04-04T06:50:45.001Z</time></trkpt><trkpt lat="13.938808128911214" lon="120.81694146225863"><ele>39.4</ele><time>2026-04-04T06:50:46.001Z</time></trkpt><trkpt lat="13.938921635138406" lon="120.81696771486548"><ele>40.199999999999996</ele><time>2026-04-04T06:50:47.001Z</time></trkpt><trkpt lat="13.939027641579084" lon="120.81700606980827"><ele>41.0</ele><time>2026-04-04T06:50:48.001Z</time></trkpt><trkpt lat="13.939122638124283" lon="120.8170657250884"><ele>42.0</ele><time>2026-04-04T06:50:49.001Z</time></trkpt><trkpt lat="13.939220568224465" lon="120.81711888433986"><ele>43.0</ele><time>2026-04-04T06:50:50.001Z</time></trkpt><trkpt lat="13.939319025613628" lon="120.8171568597643"><ele>44.0</ele><time>2026-04-04T06:50:51.001Z</time></trkpt><trkpt lat="13.939401687279927" lon="120.817184361239"><ele>45.0</ele><time>2026-04-04T06:50:52.001Z</time></trkpt><trkpt lat="13.939494044681911" lon="120.81721079363422"><ele>46.0</ele><time>2026-04-04T06:50:53.001Z</time></trkpt><trkpt lat="13.939585611367955" lon="120.81723686177953"><ele>46.0</ele><time>2026-04-04T06:50:54.001Z</time></trkpt><trkpt lat="13.939671038578494" lon="120.81726049026052"><ele>46.0</ele><time>2026-04-04T06:50:55.001Z</time></trkpt><trkpt lat="13.939762371616093" lon="120.81728445816454"><ele>46.0</ele><time>2026-04-04T06:50:56.001Z</time></trkpt><trkpt lat="13.939855196957124" lon="120.81730866041559"><ele>46.0</ele><time>2026-04-04T06:50:57.001Z</time></trkpt><trkpt lat="13.93994703801775" lon="120.81732568654728"><ele>46.0</ele><time>2026-04-04T06:50:58.001Z</time></trkpt><trkpt lat="13.94004141271991" lon="120.81734606885156"><ele>46.8</ele><time>2026-04-04T06:50:59.001Z</time></trkpt><trkpt lat="13.940144113438324" lon="120.8173660352173"><ele>47.599999999999994</ele><time>2026-04-04T06:51:00.001Z</time></trkpt><trkpt lat="13.940240478203993" lon="120.81739212476997"><ele>48.4</ele><time>2026-04-04T06:51:01.001Z</time></trkpt><trkpt lat="13.940343153291662" lon="120.81741427802645"><ele>49.2</ele><time>2026-04-04T06:51:02.001Z</time></trkpt><trkpt lat="13.940442873226866" lon="120.81743921220968"><ele>50.0</ele><time>2026-04-04T06:51:03.001Z</time></trkpt><trkpt lat="13.940555770022163" lon="120.81746113324213"><ele>50.0</ele><time>2026-04-04T06:51:04.001Z</time></trkpt><trkpt lat="13.940662399802257" lon="120.81748505470668"><ele>50.0</ele><time>2026-04-04T06:51:05.001Z</time></trkpt><trkpt lat="13.940767620404658" lon="120.81750915396904"><ele>50.0</ele><time>2026-04-04T06:51:06.001Z</time></trkpt><trkpt lat="13.940876232753686" lon="120.81753192426687"><ele>50.0</ele><time>2026-04-04T06:51:07.001Z</time></trkpt><trkpt lat="13.940979535998073" lon="120.81755277892123"><ele>50.0</ele><time>2026-04-04T06:51:08.001Z</time></trkpt><trkpt lat="13.941096538700814" lon="120.81757047352419"><ele>49.8</ele><time>2026-04-04T06:51:09.001Z</time></trkpt><trkpt lat="13.941209033841401" lon="120.81759415332309"><ele>49.6</ele><time>2026-04-04T06:51:10.001Z</time></trkpt><trkpt lat="13.941314699603987" lon="120.81762270148393"><ele>49.400000000000006</ele><time>2026-04-04T06:51:11.001Z</time></trkpt><trkpt lat="13.94141234233207" lon="120.81765141978008"><ele>49.2</ele><time>2026-04-04T06:51:12.001Z</time></trkpt><trkpt lat="13.941526475714902" lon="120.81767579131382"><ele>49.0</ele><time>2026-04-04T06:51:13.001Z</time></trkpt><trkpt lat="13.941631418518869" lon="120.81770173122192"><ele>50.0</ele><time>2026-04-04T06:51:14.001Z</time></trkpt><trkpt lat="13.941731603352798" lon="120.81773637976261"><ele>51.0</ele><time>2026-04-04T06:51:15.001Z</time></trkpt><trkpt lat="13.941836155851291" lon="120.81776935173711"><ele>52.00000000000001</ele><time>2026-04-04T06:51:16.001Z</time></trkpt><trkpt lat="13.941939044738879" lon="120.8178005512763"><ele>53.0</ele><time>2026-04-04T06:51:17.001Z</time></trkpt><trkpt lat="13.942045443420849" lon="120.81783211483034"><ele>54.0</ele><time>2026-04-04T06:51:18.001Z</time></trkpt><trkpt lat="13.94214723768133" lon="120.8178669306324"><ele>54.0</ele><time>2026-04-04T06:51:19Z</time></trkpt><trkpt lat="13.942254459499503" lon="120.81790283859891"><ele>54.00000000000001</ele><time>2026-04-04T06:51:20Z</time></trkpt><trkpt lat="13.942357446202763" lon="120.81793680344732"><ele>54.00000000000001</ele><time>2026-04-04T06:51:21Z</time></trkpt><trkpt lat="13.942463741172196" lon="120.81797025133197"><ele>54.0</ele><time>2026-04-04T06:51:22Z</time></trkpt><trkpt lat="13.94256893653732" lon="120.81800457497407"><ele>54.0</ele><time>2026-04-04T06:51:23Z</time></trkpt><trkpt lat="13.942673229159398" lon="120.81803655399371"><ele>56.25</ele><time>2026-04-04T06:51:24Z</time></trkpt><trkpt lat="13.942785257851332" lon="120.81806854413091"><ele>58.5</ele><time>2026-04-04T06:51:25Z</time></trkpt><trkpt lat="13.942900247075439" lon="120.81809911678921"><ele>60.75</ele><time>2026-04-04T06:51:26Z</time></trkpt><trkpt lat="13.943005612829177" lon="120.8181357939528"><ele>63.0</ele><time>2026-04-04T06:51:27Z</time></trkpt><trkpt lat="13.943122754966595" lon="120.81815983628898"><ele>63.0</ele><time>2026-04-04T06:51:28Z</time></trkpt><trkpt lat="13.943232960647371" lon="120.81818429221268"><ele>63.0</ele><time>2026-04-04T06:51:29Z</time></trkpt><trkpt lat="13.943331790292648" lon="120.81820288844207"><ele>63.0</ele><time>2026-04-04T06:51:30Z</time></trkpt><trkpt lat="13.943433199078406" lon="120.818205908822"><ele>63.0</ele><time>2026-04-04T06:51:31Z</time></trkpt><trkpt lat="13.94353809985655" lon="120.81819920674592"><ele>63.0</ele><time>2026-04-04T06:51:32Z</time></trkpt><trkpt lat="13.943638684555266" lon="120.81817722881847"><ele>63.2</ele><time>2026-04-04T06:51:33Z</time></trkpt><trkpt lat="13.943740391012248" lon="120.81815175413846"><ele>63.4</ele><time>2026-04-04T06:51:34Z</time></trkpt><trkpt lat="13.943844976301548" lon="120.8181338795899"><ele>63.60000000000001</ele><time>2026-04-04T06:51:35Z</time></trkpt><trkpt lat="13.943945029909425" lon="120.81811865905992"><ele>63.800000000000004</ele><time>2026-04-04T06:51:36Z</time></trkpt><trkpt lat="13.94404080139055" lon="120.81813481997034"><ele>64.0</ele><time>2026-04-04T06:51:37Z</time></trkpt><trkpt lat="13.944158554912143" lon="120.81811815155211"><ele>65.0</ele><time>2026-04-04T06:51:38Z</time></trkpt><trkpt lat="13.94425734211259" lon="120.81814855319298"><ele>66.0</ele><time>2026-04-04T06:51:39Z</time></trkpt><trkpt lat="13.944315512122724" lon="120.81824752588068"><ele>67.0</ele><time>2026-04-04T06:51:40Z</time></trkpt><trkpt lat="13.944401227109795" lon="120.818309619919"><ele>68.0</ele><time>2026-04-04T06:51:41Z</time></trkpt><trkpt lat="13.94448804906528" lon="120.81837258857074"><ele>69.0</ele><time>2026-04-04T06:51:42Z</time></trkpt><trkpt lat="13.944576545129754" lon="120.81843706412765"><ele>69.0</ele><time>2026-04-04T06:51:43Z</time></trkpt><trkpt lat="13.944663769765786" lon="120.81850011422141"><ele>69.0</ele><time>2026-04-04T06:51:44Z</time></trkpt><trkpt lat="13.944753652211581" lon="120.81856471714765"><ele>69.0</ele><time>2026-04-04T06:51:45Z</time></trkpt><trkpt lat="13.944869346019315" lon="120.81856751225536"><ele>69.0</ele><time>2026-04-04T06:51:46Z</time></trkpt><trkpt lat="13.944970561004862" lon="120.81860973092625"><ele>69.0</ele><time>2026-04-04T06:51:47Z</time></trkpt><trkpt lat="13.94507009908096" lon="120.81863859629588"><ele>70.0</ele><time>2026-04-04T06:51:48Z</time></trkpt><trkpt lat="13.94517791729217" lon="120.8186566240132"><ele>71.0</ele><time>2026-04-04T06:51:49Z</time></trkpt><trkpt lat="13.945286482336675" lon="120.81867125700511"><ele>72.0</ele><time>2026-04-04T06:51:50Z</time></trkpt><trkpt lat="13.9453875514074" lon="120.81868622191118"><ele>73.0</ele><time>2026-04-04T06:51:51Z</time></trkpt><trkpt lat="13.945488588506656" lon="120.8186983915814"><ele>74.0</ele><time>2026-04-04T06:51:52Z</time></trkpt><trkpt lat="13.945593783082607" lon="120.81870818097774"><ele>74.0</ele><time>2026-04-04T06:51:53Z</time></trkpt><trkpt lat="13.945689526772103" lon="120.8187211234637"><ele>74.0</ele><time>2026-04-04T06:51:54Z</time></trkpt><trkpt lat="13.945795423099012" lon="120.81873658940202"><ele>74.0</ele><time>2026-04-04T06:51:55Z</time></trkpt><trkpt lat="13.945894526993593" lon="120.81875839004881"><ele>74.0</ele><time>2026-04-04T06:51:56Z</time></trkpt><trkpt lat="13.945993212260811" lon="120.81877501514825"><ele>74.0</ele><time>2026-04-04T06:51:57Z</time></trkpt><trkpt lat="13.946085281420544" lon="120.8188144306664"><ele>75.0</ele><time>2026-04-04T06:51:58Z</time></trkpt><trkpt lat="13.946184451187737" lon="120.81884786928266"><ele>76.0</ele><time>2026-04-04T06:51:59Z</time></trkpt><trkpt lat="13.946284838974199" lon="120.81888145070124"><ele>77.0</ele><time>2026-04-04T06:52:00Z</time></trkpt><trkpt lat="13.946394141280713" lon="120.81891705195645"><ele>78.0</ele><time>2026-04-04T06:52:01Z</time></trkpt><trkpt lat="13.946495639009564" lon="120.81894998673363"><ele>79.0</ele><time>2026-04-04T06:52:02Z</time></trkpt><trkpt lat="13.946601846432708" lon="120.81898468887088"><ele>78.0</ele><time>2026-04-04T06:52:03Z</time></trkpt><trkpt lat="13.946715389886952" lon="120.81902184435386"><ele>77.0</ele><time>2026-04-04T06:52:04Z</time></trkpt><trkpt lat="13.946824914495751" lon="120.81905967347045"><ele>76.0</ele><time>2026-04-04T06:52:05Z</time></trkpt><trkpt lat="13.946934834503516" lon="120.81909904184032"><ele>75.0</ele><time>2026-04-04T06:52:06Z</time></trkpt><trkpt lat="13.947050699627848" lon="120.81912451888448"><ele>75.0</ele><time>2026-04-04T06:52:07Z</time></trkpt><trkpt lat="13.947167907417816" lon="120.81916882507666"><ele>75.0</ele><time>2026-04-04T06:52:08Z</time></trkpt><trkpt lat="13.947290020985855" lon="120.81921564657503"><ele>75.0</ele><time>2026-04-04T06:52:09Z</time></trkpt><trkpt lat="13.947397029225227" lon="120.8192651914287"><ele>75.0</ele><time>2026-04-04T06:52:10Z</time></trkpt><trkpt lat="13.947511151268204" lon="120.81931114803388"><ele>74.75</ele><time>2026-04-04T06:52:11Z</time></trkpt><trkpt lat="13.947632730347063" lon="120.81935538368118"><ele>74.5</ele><time>2026-04-04T06:52:12Z</time></trkpt><trkpt lat="13.94775426113458" lon="120.81939080763081"><ele>74.25</ele><time>2026-04-04T06:52:13Z</time></trkpt><trkpt lat="13.94787531002026" lon="120.8194201456984"><ele>74.0</ele><time>2026-04-04T06:52:14Z</time></trkpt><trkpt lat="13.948007386030769" lon="120.81943564607872"><ele>74.0</ele><time>2026-04-04T06:52:15Z</time></trkpt><trkpt lat="13.948141678608705" lon="120.81943919799305"><ele>74.0</ele><time>2026-04-04T06:52:16Z</time></trkpt><trkpt lat="13.948283284798302" lon="120.81942913664143"><ele>74.0</ele><time>2026-04-04T06:52:17Z</time></trkpt><trkpt lat="13.948419212123605" lon="120.81941398851517"><ele>74.0</ele><time>2026-04-04T06:52:18Z</time></trkpt><trkpt lat="13.94855745922579" lon="120.81937761051502"><ele>75.5</ele><time>2026-04-04T06:52:19Z</time></trkpt><trkpt lat="13.948706573931075" lon="120.81937193930874"><ele>77.0</ele><time>2026-04-04T06:52:20Z</time></trkpt><trkpt lat="13.948844759354026" lon="120.8193569082216"><ele>78.5</ele><time>2026-04-04T06:52:21Z</time></trkpt><trkpt lat="13.94897336369972" lon="120.8193424115938"><ele>80.0</ele><time>2026-04-04T06:52:22Z</time></trkpt><trkpt lat="13.949083502524285" lon="120.81933622532674"><ele>80.0</ele><time>2026-04-04T06:52:23Z</time></trkpt><trkpt lat="13.949198365575024" lon="120.81934305283417"><ele>80.0</ele><time>2026-04-04T06:52:24Z</time></trkpt><trkpt lat="13.949318611510728" lon="120.81933323440003"><ele>80.0</ele><time>2026-04-04T06:52:25Z</time></trkpt><trkpt lat="13.949437530022465" lon="120.81935693013077"><ele>80.0</ele><time>2026-04-04T06:52:26Z</time></trkpt><trkpt lat="13.949556961752714" lon="120.8193893665961"><ele>81.5</ele><time>2026-04-04T06:52:27Z</time></trkpt><trkpt lat="13.94967745399039" lon="120.81942306945331"><ele>83.0</ele><time>2026-04-04T06:52:28Z</time></trkpt><trkpt lat="13.949804156112778" lon="120.819453052103"><ele>84.5</ele><time>2026-04-04T06:52:29Z</time></trkpt><trkpt lat="13.949935859831736" lon="120.81948312600684"><ele>86.0</ele><time>2026-04-04T06:52:30Z</time></trkpt><trkpt lat="13.95005535393548" lon="120.81951575144618"><ele>87.0</ele><time>2026-04-04T06:52:31Z</time></trkpt><trkpt lat="13.950184362969287" lon="120.81954603428981"><ele>88.0</ele><time>2026-04-04T06:52:32Z</time></trkpt><trkpt lat="13.950310309536663" lon="120.81957811423601"><ele>89.0</ele><time>2026-04-04T06:52:33Z</time></trkpt><trkpt lat="13.950433992496738" lon="120.8196096324969"><ele>90.0</ele><time>2026-04-04T06:52:34Z</time></trkpt><trkpt lat="13.950550196765649" lon="120.81963929130295"><ele>90.0</ele><time>2026-04-04T06:52:35Z</time></trkpt><trkpt lat="13.95065174206632" lon="120.81966699496456"><ele>90.0</ele><time>2026-04-04T06:52:36Z</time></trkpt><trkpt lat="13.950732361267972" lon="120.81968560602759"><ele>90.0</ele><time>2026-04-04T06:52:37Z</time></trkpt><trkpt lat="13.950807581090968" lon="120.81969906369625"><ele>90.0</ele><time>2026-04-04T06:52:38Z</time></trkpt><trkpt lat="13.950899900099362" lon="120.81971589125173"><ele>90.0</ele><time>2026-04-04T06:52:39Z</time></trkpt><trkpt lat="13.95098528826894" lon="120.81973118550813"><ele>90.0</ele><time>2026-04-04T06:52:40Z</time></trkpt><trkpt lat="13.951078292317728" lon="120.81974993313221"><ele>90.83333333333333</ele><time>2026-04-04T06:52:41Z</time></trkpt><trkpt lat="13.951157646663269" lon="120.81977336506289"><ele>91.66666666666667</ele><time>2026-04-04T06:52:42Z</time></trkpt><trkpt lat="13.951227203896648" lon="120.81978601745476"><ele>92.5</ele><time>2026-04-04T06:52:43Z</time></trkpt><trkpt lat="13.9513282133628" lon="120.81980799488622"><ele>93.33333333333334</ele><time>2026-04-04T06:52:44Z</time></trkpt><trkpt lat="13.951411123752727" lon="120.81982375807442"><ele>94.16666666666667</ele><time>2026-04-04T06:52:45Z</time></trkpt><trkpt lat="13.95149901664818" lon="120.81983816300232"><ele>95.0</ele><time>2026-04-04T06:52:46Z</time></trkpt><trkpt lat="13.951595402867659" lon="120.81985278456393"><ele>95.0</ele><time>2026-04-04T06:52:47Z</time></trkpt><trkpt lat="13.951692664404387" lon="120.81986721931234"><ele>95.0</ele><time>2026-04-04T06:52:48Z</time></trkpt><trkpt lat="13.951790299707195" lon="120.81987199843995"><ele>95.0</ele><time>2026-04-04T06:52:49Z</time></trkpt><trkpt lat="13.951890236143448" lon="120.81988630836905"><ele>95.0</ele><time>2026-04-04T06:52:50Z</time></trkpt><trkpt lat="13.951995164058866" lon="120.81988577258014"><ele>95.0</ele><time>2026-04-04T06:52:51Z</time></trkpt><trkpt lat="13.95209708165217" lon="120.81988680251254"><ele>96.0</ele><time>2026-04-04T06:52:52Z</time></trkpt><trkpt lat="13.95220580771036" lon="120.81989127363052"><ele>97.0</ele><time>2026-04-04T06:52:53Z</time></trkpt><trkpt lat="13.95230927770719" lon="120.81989642113298"><ele>98.0</ele><time>2026-04-04T06:52:54Z</time></trkpt><trkpt lat="13.95241026276558" lon="120.81993254250698"><ele>99.0</ele><time>2026-04-04T06:52:55Z</time></trkpt><trkpt lat="13.952518153705837" lon="120.8199604679204"><ele>100.0</ele><time>2026-04-04T06:52:56Z</time></trkpt><trkpt lat="13.95262542937239" lon="120.81998737120935"><ele>100.25</ele><time>2026-04-04T06:52:57Z</time></trkpt><trkpt lat="13.952734530678926" lon="120.82001774590574"><ele>100.5</ele><time>2026-04-04T06:52:58Z</time></trkpt><trkpt lat="13.952842901574243" lon="120.82004898646537"><ele>100.75</ele><time>2026-04-04T06:52:59Z</time></trkpt><trkpt lat="13.952953848791" lon="120.82008197263104"><ele>101.0</ele><time>2026-04-04T06:53:00Z</time></trkpt><trkpt lat="13.953063261819931" lon="120.82011381866563"><ele>101.5</ele><time>2026-04-04T06:53:01Z</time></trkpt><trkpt lat="13.95316710300037" lon="120.82015622697915"><ele>102.0</ele><time>2026-04-04T06:53:02Z</time></trkpt><trkpt lat="13.953267249862634" lon="120.82021362574271"><ele>102.5</ele><time>2026-04-04T06:53:03Z</time></trkpt><trkpt lat="13.95337036824213" lon="120.8202729924135"><ele>103.0</ele><time>2026-04-04T06:53:04Z</time></trkpt><trkpt lat="13.953474916437827" lon="120.82033348847517"><ele>103.75</ele><time>2026-04-04T06:53:05Z</time></trkpt><trkpt lat="13.953581746216075" lon="120.82039526389924"><ele>104.5</ele><time>2026-04-04T06:53:06Z</time></trkpt><trkpt lat="13.953691940568667" lon="120.82045803543906"><ele>105.25</ele><time>2026-04-04T06:53:07Z</time></trkpt><trkpt lat="13.953821070631738" lon="120.8204856539581"><ele>106.0</ele><time>2026-04-04T06:53:08Z</time></trkpt><trkpt lat="13.953945856384532" lon="120.8205322367381"><ele>106.0</ele><time>2026-04-04T06:53:09Z</time></trkpt><trkpt lat="13.954069322795332" lon="120.82059128634828"><ele>106.0</ele><time>2026-04-04T06:53:10Z</time></trkpt><trkpt lat="13.954183675502428" lon="120.8206159708255"><ele>106.0</ele><time>2026-04-04T06:53:11Z</time></trkpt><trkpt lat="13.954303793581651" lon="120.82065761872553"><ele>106.0</ele><time>2026-04-04T06:53:12Z</time></trkpt><trkpt lat="13.954420841659706" lon="120.8207002600819"><ele>107.5</ele><time>2026-04-04T06:53:13Z</time></trkpt><trkpt lat="13.954542359253894" lon="120.82072645247246"><ele>109.0</ele><time>2026-04-04T06:53:14Z</time></trkpt><trkpt lat="13.954660367001907" lon="120.82075378134323"><ele>110.5</ele><time>2026-04-04T06:53:15.001Z</time></trkpt><trkpt lat="13.954782447533264" lon="120.82078440929519"><ele>112.0</ele><time>2026-04-04T06:53:16.001Z</time></trkpt><trkpt lat="13.954906710990793" lon="120.82080964508035"><ele>112.0</ele><time>2026-04-04T06:53:17.001Z</time></trkpt><trkpt lat="13.955026458992597" lon="120.82082661049269"><ele>112.0</ele><time>2026-04-04T06:53:18.001Z</time></trkpt><trkpt lat="13.955142523844819" lon="120.8208639881973"><ele>112.0</ele><time>2026-04-04T06:53:19.001Z</time></trkpt><trkpt lat="13.955256450234197" lon="120.82089938408683"><ele>112.0</ele><time>2026-04-04T06:53:20.001Z</time></trkpt><trkpt lat="13.955370258558192" lon="120.8209347433048"><ele>111.25</ele><time>2026-04-04T06:53:21.001Z</time></trkpt><trkpt lat="13.955480254522973" lon="120.82096917642693"><ele>110.5</ele><time>2026-04-04T06:53:22.001Z</time></trkpt><trkpt lat="13.955586391452444" lon="120.82100245581309"><ele>109.75</ele><time>2026-04-04T06:53:23.001Z</time></trkpt><trkpt lat="13.955697703176165" lon="120.82103739619559"><ele>109.0</ele><time>2026-04-04T06:53:24.001Z</time></trkpt><trkpt lat="13.955808727893537" lon="120.82107224648685"><ele>111.5</ele><time>2026-04-04T06:53:25Z</time></trkpt><trkpt lat="13.955919694102043" lon="120.82110668408112"><ele>114.0</ele><time>2026-04-04T06:53:26Z</time></trkpt><trkpt lat="13.95602983463584" lon="120.82112368288327"><ele>116.5</ele><time>2026-04-04T06:53:27Z</time></trkpt><trkpt lat="13.956134743420272" lon="120.82116274699844"><ele>119.0</ele><time>2026-04-04T06:53:28Z</time></trkpt><trkpt lat="13.956241297664121" lon="120.82119841749902"><ele>119.0</ele><time>2026-04-04T06:53:29Z</time></trkpt><trkpt lat="13.956347061026472" lon="120.82122772751609"><ele>119.0</ele><time>2026-04-04T06:53:30Z</time></trkpt><trkpt lat="13.9564570752934" lon="120.82125824924573"><ele>119.0</ele><time>2026-04-04T06:53:31Z</time></trkpt><trkpt lat="13.956569351463695" lon="120.82128682491211"><ele>119.0</ele><time>2026-04-04T06:53:32Z</time></trkpt><trkpt lat="13.956680043606728" lon="120.82131349945917"><ele>120.25</ele><time>2026-04-04T06:53:33Z</time></trkpt><trkpt lat="13.956771337921952" lon="120.82137466911183"><ele>121.5</ele><time>2026-04-04T06:53:34Z</time></trkpt><trkpt lat="13.956872924168572" lon="120.82142421485872"><ele>122.75</ele><time>2026-04-04T06:53:35Z</time></trkpt><trkpt lat="13.956977659343519" lon="120.8214747208951"><ele>124.0</ele><time>2026-04-04T06:53:36Z</time></trkpt><trkpt lat="13.957081066161365" lon="120.82152474864188"><ele>124.0</ele><time>2026-04-04T06:53:37Z</time></trkpt><trkpt lat="13.95718655720582" lon="120.82157604902125"><ele>124.0</ele><time>2026-04-04T06:53:38Z</time></trkpt><trkpt lat="13.957294404447694" lon="120.82162845698622"><ele>124.0</ele><time>2026-04-04T06:53:39Z</time></trkpt><trkpt lat="13.957410214979332" lon="120.82166314450902"><ele>124.0</ele><time>2026-04-04T06:53:40Z</time></trkpt><trkpt lat="13.957526764298628" lon="120.82169877374257"><ele>125.5</ele><time>2026-04-04T06:53:41Z</time></trkpt><trkpt lat="13.957654580330738" lon="120.82171685202451"><ele>127.0</ele><time>2026-04-04T06:53:42Z</time></trkpt><trkpt lat="13.957780550256086" lon="120.82172279049847"><ele>128.5</ele><time>2026-04-04T06:53:43Z</time></trkpt><trkpt lat="13.957905278307472" lon="120.82174400379643"><ele>130.0</ele><time>2026-04-04T06:53:44Z</time></trkpt><trkpt lat="13.95802742867536" lon="120.82176785905726"><ele>130.0</ele><time>2026-04-04T06:53:45Z</time></trkpt><trkpt lat="13.958154529258437" lon="120.82179686872253"><ele>130.0</ele><time>2026-04-04T06:53:46Z</time></trkpt><trkpt lat="13.958273488428386" lon="120.82182814386083"><ele>130.0</ele><time>2026-04-04T06:53:47Z</time></trkpt><trkpt lat="13.958394190249958" lon="120.82185660103558"><ele>130.0</ele><time>2026-04-04T06:53:48Z</time></trkpt><trkpt lat="13.95851556794407" lon="120.82188566675651"><ele>130.5</ele><time>2026-04-04T06:53:49Z</time></trkpt><trkpt lat="13.9586378263385" lon="120.82190788296025"><ele>131.0</ele><time>2026-04-04T06:53:50Z</time></trkpt><trkpt lat="13.95876425658208" lon="120.82193176507046"><ele>131.5</ele><time>2026-04-04T06:53:51Z</time></trkpt><trkpt lat="13.958889779213072" lon="120.82194464095433"><ele>132.0</ele><time>2026-04-04T06:53:52Z</time></trkpt><trkpt lat="13.959013150155352" lon="120.82196150130838"><ele>132.0</ele><time>2026-04-04T06:53:53Z</time></trkpt><trkpt lat="13.959137507538019" lon="120.82198132689557"><ele>132.0</ele><time>2026-04-04T06:53:54Z</time></trkpt><trkpt lat="13.959245259219683" lon="120.82203195739743"><ele>132.0</ele><time>2026-04-04T06:53:55Z</time></trkpt><trkpt lat="13.959333710515386" lon="120.82207027054211"><ele>132.0</ele><time>2026-04-04T06:53:56Z</time></trkpt><trkpt lat="13.959410145058547" lon="120.82210389931977"><ele>132.0</ele><time>2026-04-04T06:53:57Z</time></trkpt><trkpt lat="13.959483166870116" lon="120.82213596629695"><ele>132.16666666666666</ele><time>2026-04-04T06:53:58Z</time></trkpt><trkpt lat="13.959560363393534" lon="120.82216986658575"><ele>132.33333333333334</ele><time>2026-04-04T06:53:59Z</time></trkpt><trkpt lat="13.959640417991178" lon="120.82220019956044"><ele>132.5</ele><time>2026-04-04T06:54:00Z</time></trkpt><trkpt lat="13.959729837801195" lon="120.82221725369669"><ele>132.66666666666669</ele><time>2026-04-04T06:54:01Z</time></trkpt><trkpt lat="13.959811381693408" lon="120.82225688445028"><ele>132.83333333333334</ele><time>2026-04-04T06:54:02Z</time></trkpt><trkpt lat="13.959892398657283" lon="120.82229049263533"><ele>133.0</ele><time>2026-04-04T06:54:03Z</time></trkpt><trkpt lat="13.959980564121322" lon="120.82233371648921"><ele>134.4</ele><time>2026-04-04T06:54:04Z</time></trkpt><trkpt lat="13.96006998237362" lon="120.82237118221319"><ele>135.8</ele><time>2026-04-04T06:54:05Z</time></trkpt><trkpt lat="13.960161044422" lon="120.82239934430592"><ele>137.2</ele><time>2026-04-04T06:54:06Z</time></trkpt><trkpt lat="13.960265847130907" lon="120.82243605140995"><ele>138.6</ele><time>2026-04-04T06:54:07Z</time></trkpt><trkpt lat="13.960370498029661" lon="120.82247231751889"><ele>140.0</ele><time>2026-04-04T06:54:08Z</time></trkpt><trkpt lat="13.9604657026001" lon="120.82250698030069"><ele>140.0</ele><time>2026-04-04T06:54:09Z</time></trkpt><trkpt lat="13.960568039995968" lon="120.82253266124958"><ele>140.0</ele><time>2026-04-04T06:54:10Z</time></trkpt><trkpt lat="13.960672714730494" lon="120.82254671130347"><ele>140.0</ele><time>2026-04-04T06:54:11Z</time></trkpt><trkpt lat="13.96078000280473" lon="120.8225457270429"><ele>140.0</ele><time>2026-04-04T06:54:12Z</time></trkpt><trkpt lat="13.960886949372444" lon="120.82253576161523"><ele>140.0</ele><time>2026-04-04T06:54:13Z</time></trkpt><trkpt lat="13.960995326201385" lon="120.82252034720088"><ele>141.0</ele><time>2026-04-04T06:54:14Z</time></trkpt><trkpt lat="13.961104825425126" lon="120.8225044802463"><ele>142.0</ele><time>2026-04-04T06:54:15Z</time></trkpt><trkpt lat="13.961208683984111" lon="120.82249119160187"><ele>143.0</ele><time>2026-04-04T06:54:16Z</time></trkpt><trkpt lat="13.961308110975532" lon="120.8224819601846"><ele>144.0</ele><time>2026-04-04T06:54:17Z</time></trkpt><trkpt lat="13.961414101600774" lon="120.82247283317587"><ele>145.0</ele><time>2026-04-04T06:54:18Z</time></trkpt><trkpt lat="13.961515801129137" lon="120.82246676912489"><ele>145.0</ele><time>2026-04-04T06:54:19Z</time></trkpt><trkpt lat="13.961619900927216" lon="120.82248283116344"><ele>145.0</ele><time>2026-04-04T06:54:20Z</time></trkpt><trkpt lat="13.961724825669247" lon="120.82248710330026"><ele>145.0</ele><time>2026-04-04T06:54:21Z</time></trkpt><trkpt lat="13.961827484329671" lon="120.82249116276274"><ele>145.0</ele><time>2026-04-04T06:54:22Z</time></trkpt><trkpt lat="13.961938766759326" lon="120.82249597208508"><ele>145.0</ele><time>2026-04-04T06:54:23Z</time></trkpt><trkpt lat="13.962052463654647" lon="120.82250088575336"><ele>146.0</ele><time>2026-04-04T06:54:24Z</time></trkpt><trkpt lat="13.962165120112921" lon="120.82250484630313"><ele>147.0</ele><time>2026-04-04T06:54:25Z</time></trkpt><trkpt lat="13.962280395103722" lon="120.82250914325587"><ele>148.0</ele><time>2026-04-04T06:54:26Z</time></trkpt><trkpt lat="13.962395028279145" lon="120.82251308550362"><ele>149.0</ele><time>2026-04-04T06:54:27Z</time></trkpt><trkpt lat="13.962509390380736" lon="120.8225166451188"><ele>150.2</ele><time>2026-04-04T06:54:28Z</time></trkpt><trkpt lat="13.962614817616377" lon="120.82251992662717"><ele>151.4</ele><time>2026-04-04T06:54:29Z</time></trkpt><trkpt lat="13.962713834306848" lon="120.82252260210757"><ele>152.6</ele><time>2026-04-04T06:54:30Z</time></trkpt><trkpt lat="13.962786936313403" lon="120.82250933554894"><ele>153.8</ele><time>2026-04-04T06:54:31Z</time></trkpt><trkpt lat="13.962851285453318" lon="120.82252031143257"><ele>155.0</ele><time>2026-04-04T06:54:32Z</time></trkpt><trkpt lat="13.962966064685704" lon="120.822575263562"><ele>154.8</ele><time>2026-04-04T06:54:34Z</time></trkpt><trkpt lat="13.962957744275624" lon="120.82265444557689"><ele>154.6</ele><time>2026-04-04T06:54:35Z</time></trkpt><trkpt lat="13.96301057014954" lon="120.8227677378694"><ele>154.4</ele><time>2026-04-04T06:54:37Z</time></trkpt><trkpt lat="13.963040216992951" lon="120.82283131958117"><ele>154.2</ele><time>2026-04-04T06:54:38Z</time></trkpt><trkpt lat="13.963068585840176" lon="120.8228918021538"><ele>154.0</ele><time>2026-04-04T06:54:39Z</time></trkpt><trkpt lat="13.96312586551106" lon="120.82301056365793"><ele>154.0</ele><time>2026-04-04T06:54:41Z</time></trkpt><trkpt lat="13.963182905596263" lon="120.82312906426151"><ele>154.0</ele><time>2026-04-04T06:54:43Z</time></trkpt><trkpt lat="13.963213511052393" lon="120.82319401398608"><ele>154.0</ele><time>2026-04-04T06:54:44Z</time></trkpt><trkpt lat="13.963317277285892" lon="120.823228362136"><ele>154.0</ele><time>2026-04-04T06:54:45Z</time></trkpt><trkpt lat="13.963376225133542" lon="120.82328649734244"><ele>154.0</ele><time>2026-04-04T06:54:46Z</time></trkpt><trkpt lat="13.963463573910373" lon="120.8233294329163"><ele>154.2</ele><time>2026-04-04T06:54:47Z</time></trkpt><trkpt lat="13.963549691164395" lon="120.82335884085879"><ele>154.4</ele><time>2026-04-04T06:54:48Z</time></trkpt><trkpt lat="13.963642468866787" lon="120.82339053006734"><ele>154.6</ele><time>2026-04-04T06:54:49Z</time></trkpt><trkpt lat="13.963731020183165" lon="120.8234207994636"><ele>154.8</ele><time>2026-04-04T06:54:50Z</time></trkpt><trkpt lat="13.963817796985454" lon="120.82345046230172"><ele>155.0</ele><time>2026-04-04T06:54:51Z</time></trkpt><trkpt lat="13.963909738009049" lon="120.82348209087229"><ele>155.0</ele><time>2026-04-04T06:54:52Z</time></trkpt><trkpt lat="13.964002299630957" lon="120.82351464064975"><ele>155.0</ele><time>2026-04-04T06:54:53Z</time></trkpt><trkpt lat="13.96409857340269" lon="120.82354784007063"><ele>155.0</ele><time>2026-04-04T06:54:54Z</time></trkpt><trkpt lat="13.964191792606904" lon="120.82358158928338"><ele>155.0</ele><time>2026-04-04T06:54:55Z</time></trkpt><trkpt lat="13.964282892345386" lon="120.82361592220336"><ele>155.0</ele><time>2026-04-04T06:54:56Z</time></trkpt><trkpt lat="13.964375278631854" lon="120.82365065344989"><ele>156.4</ele><time>2026-04-04T06:54:57Z</time></trkpt><trkpt lat="13.964460320556752" lon="120.82368299244423"><ele>157.8</ele><time>2026-04-04T06:54:58Z</time></trkpt><trkpt lat="13.964563878371251" lon="120.82372204448991"><ele>159.2</ele><time>2026-04-04T06:54:59Z</time></trkpt><trkpt lat="13.96466251737752" lon="120.82374189538159"><ele>160.6</ele><time>2026-04-04T06:55:00Z</time></trkpt><trkpt lat="13.964763470200669" lon="120.82378759610971"><ele>162.0</ele><time>2026-04-04T06:55:01Z</time></trkpt><trkpt lat="13.964850302373991" lon="120.82383185613553"><ele>162.0</ele><time>2026-04-04T06:55:02Z</time></trkpt><trkpt lat="13.964944854188438" lon="120.82387401225658"><ele>162.0</ele><time>2026-04-04T06:55:03Z</time></trkpt><trkpt lat="13.96502664522593" lon="120.82390923199168"><ele>162.0</ele><time>2026-04-04T06:55:04Z</time></trkpt><trkpt lat="13.965106373126359" lon="120.82393773264442"><ele>162.0</ele><time>2026-04-04T06:55:05Z</time></trkpt><trkpt lat="13.965193918396636" lon="120.82396249288803"><ele>162.0</ele><time>2026-04-04T06:55:06Z</time></trkpt><trkpt lat="13.965281945327446" lon="120.82398301720639"><ele>162.66666666666666</ele><time>2026-04-04T06:55:07Z</time></trkpt><trkpt lat="13.965373032851286" lon="120.82399772894017"><ele>163.33333333333334</ele><time>2026-04-04T06:55:08Z</time></trkpt><trkpt lat="13.96545577711627" lon="120.82400797138803"><ele>164.0</ele><time>2026-04-04T06:55:09Z</time></trkpt><trkpt lat="13.965541467961351" lon="120.82402094285396"><ele>164.66666666666669</ele><time>2026-04-04T06:55:10Z</time></trkpt><trkpt lat="13.96561995671104" lon="120.82403772300512"><ele>165.33333333333334</ele><time>2026-04-04T06:55:11Z</time></trkpt><trkpt lat="13.965636024541087" lon="120.82411811983224"><ele>166.0</ele><time>2026-04-04T06:55:12Z</time></trkpt><trkpt lat="13.965690255191806" lon="120.8241761016534"><ele>166.0</ele><time>2026-04-04T06:55:13Z</time></trkpt><trkpt lat="13.965746982042365" lon="120.82423675191195"><ele>166.0</ele><time>2026-04-04T06:55:14Z</time></trkpt><trkpt lat="13.965806584377102" lon="120.8242989439842"><ele>166.0</ele><time>2026-04-04T06:55:15Z</time></trkpt><trkpt lat="13.965867563901531" lon="120.82436251240274"><ele>166.0</ele><time>2026-04-04T06:55:16Z</time></trkpt><trkpt lat="13.965938743515938" lon="120.82441644051642"><ele>166.0</ele><time>2026-04-04T06:55:17Z</time></trkpt><trkpt lat="13.96598547612107" lon="120.82447109467502"><ele>166.0</ele><time>2026-04-04T06:55:18Z</time></trkpt><trkpt lat="13.966031384664687" lon="120.82451640559233"><ele>166.33333333333334</ele><time>2026-04-04T06:55:19.001Z</time></trkpt><trkpt lat="13.966135655408564" lon="120.82457484681167"><ele>166.66666666666669</ele><time>2026-04-04T06:55:21.001Z</time></trkpt><trkpt lat="13.966199998302248" lon="120.82459475223222"><ele>167.0</ele><time>2026-04-04T06:55:22.001Z</time></trkpt><trkpt lat="13.966275598365627" lon="120.82460441439254"><ele>167.33333333333334</ele><time>2026-04-04T06:55:23.001Z</time></trkpt><trkpt lat="13.966359035921325" lon="120.82460762945341"><ele>167.66666666666666</ele><time>2026-04-04T06:55:24.001Z</time></trkpt><trkpt lat="13.966457302172229" lon="120.82460650989246"><ele>168.0</ele><time>2026-04-04T06:55:25.001Z</time></trkpt><trkpt lat="13.966556433956114" lon="120.82460189617836"><ele>168.0</ele><time>2026-04-04T06:55:26.001Z</time></trkpt><trkpt lat="13.96665371004944" lon="120.82459880100976"><ele>168.0</ele><time>2026-04-04T06:55:27.001Z</time></trkpt><trkpt lat="13.966735324886665" lon="120.82460056757256"><ele>168.0</ele><time>2026-04-04T06:55:28.001Z</time></trkpt><trkpt lat="13.96688250676204" lon="120.82459342421906"><ele>168.0</ele><time>2026-04-04T06:55:29.001Z</time></trkpt><trkpt lat="13.967007367135949" lon="120.82459337481056"><ele>169.25</ele><time>2026-04-04T06:55:30.001Z</time></trkpt><trkpt lat="13.967131792385254" lon="120.82459056908975"><ele>170.5</ele><time>2026-04-04T06:55:31Z</time></trkpt><trkpt lat="13.967250335939038" lon="120.82458681989449"><ele>171.75</ele><time>2026-04-04T06:55:32Z</time></trkpt><trkpt lat="13.967378999122685" lon="120.82458605246099"><ele>173.0</ele><time>2026-04-04T06:55:33Z</time></trkpt><trkpt lat="13.967505609007668" lon="120.82458324424242"><ele>173.5</ele><time>2026-04-04T06:55:34Z</time></trkpt><trkpt lat="13.967637825082232" lon="120.82458293663721"><ele>174.0</ele><time>2026-04-04T06:55:35Z</time></trkpt><trkpt lat="13.967760667270916" lon="120.82457886211054"><ele>174.5</ele><time>2026-04-04T06:55:36Z</time></trkpt><trkpt lat="13.96789530084681" lon="120.82457914188466"><ele>175.0</ele><time>2026-04-04T06:55:37Z</time></trkpt><trkpt lat="13.968032304332835" lon="120.82457871608395"><ele>175.0</ele><time>2026-04-04T06:55:38Z</time></trkpt><trkpt lat="13.96816706170372" lon="120.8245779050909"><ele>175.0</ele><time>2026-04-04T06:55:39Z</time></trkpt><trkpt lat="13.96830022255484" lon="120.82458234802776"><ele>175.0</ele><time>2026-04-04T06:55:40Z</time></trkpt><trkpt lat="13.96842610655955" lon="120.8245910540133"><ele>175.0</ele><time>2026-04-04T06:55:41Z</time></trkpt><trkpt lat="13.968553278162348" lon="120.82459652068006"><ele>176.0</ele><time>2026-04-04T06:55:42Z</time></trkpt><trkpt lat="13.9686809956949" lon="120.8245987668958"><ele>177.0</ele><time>2026-04-04T06:55:43Z</time></trkpt><trkpt lat="13.968794926212116" lon="120.82460056291787"><ele>178.0</ele><time>2026-04-04T06:55:44Z</time></trkpt><trkpt lat="13.968916598464835" lon="120.82460703095066"><ele>179.0</ele><time>2026-04-04T06:55:45Z</time></trkpt><trkpt lat="13.969033831892226" lon="120.8246142269903"><ele>179.0</ele><time>2026-04-04T06:55:46Z</time></trkpt><trkpt lat="13.969150462247697" lon="120.82461906580014"><ele>179.0</ele><time>2026-04-04T06:55:47Z</time></trkpt><trkpt lat="13.969261250702688" lon="120.8246258793745"><ele>179.0</ele><time>2026-04-04T06:55:48Z</time></trkpt><trkpt lat="13.969359482958858" lon="120.82463744024228"><ele>179.0</ele><time>2026-04-04T06:55:49Z</time></trkpt><trkpt lat="13.969468243504334" lon="120.82464636323394"><ele>179.0</ele><time>2026-04-04T06:55:50Z</time></trkpt><trkpt lat="13.969574601194271" lon="120.82465405562682"><ele>180.0</ele><time>2026-04-04T06:55:51Z</time></trkpt><trkpt lat="13.969682059955463" lon="120.82466502300272"><ele>181.0</ele><time>2026-04-04T06:55:52Z</time></trkpt><trkpt lat="13.969789499230137" lon="120.82467693574385"><ele>182.0</ele><time>2026-04-04T06:55:53Z</time></trkpt><trkpt lat="13.969896483036477" lon="120.82468955251973"><ele>183.0</ele><time>2026-04-04T06:55:54Z</time></trkpt><trkpt lat="13.970005150640052" lon="120.82469789160427"><ele>184.0</ele><time>2026-04-04T06:55:55Z</time></trkpt><trkpt lat="13.970117029223795" lon="120.82470253688787"><ele>184.2</ele><time>2026-04-04T06:55:56Z</time></trkpt><trkpt lat="13.970228986445418" lon="120.82470534777904"><ele>184.39999999999998</ele><time>2026-04-04T06:55:57Z</time></trkpt><trkpt lat="13.970331613212917" lon="120.82471440686238"><ele>184.6</ele><time>2026-04-04T06:55:58Z</time></trkpt><trkpt lat="13.970436665956356" lon="120.82471543728636"><ele>184.8</ele><time>2026-04-04T06:55:59Z</time></trkpt><trkpt lat="13.970537864535505" lon="120.82471586854668"><ele>185.0</ele><time>2026-04-04T06:56:00Z</time></trkpt><trkpt lat="13.970641534115908" lon="120.82471863986646"><ele>185.0</ele><time>2026-04-04T06:56:01Z</time></trkpt><trkpt lat="13.97073948603748" lon="120.82472299431993"><ele>185.0</ele><time>2026-04-04T06:56:02Z</time></trkpt><trkpt lat="13.970830552492414" lon="120.82473713446298"><ele>185.0</ele><time>2026-04-04T06:56:03Z</time></trkpt><trkpt lat="13.970910678830878" lon="120.82476542656396"><ele>185.0</ele><time>2026-04-04T06:56:04Z</time></trkpt><trkpt lat="13.970984496558474" lon="120.8247962295305"><ele>185.0</ele><time>2026-04-04T06:56:05Z</time></trkpt><trkpt lat="13.971061218361013" lon="120.82483544206713"><ele>185.0</ele><time>2026-04-04T06:56:06Z</time></trkpt><trkpt lat="13.971118461165528" lon="120.82487175475605"><ele>185.8</ele><time>2026-04-04T06:56:07Z</time></trkpt><trkpt lat="13.971218499136247" lon="120.82493885063859"><ele>186.6</ele><time>2026-04-04T06:56:09Z</time></trkpt><trkpt lat="13.971302403088401" lon="120.82499301523075"><ele>187.39999999999998</ele><time>2026-04-04T06:56:11Z</time></trkpt><trkpt lat="13.971387296052628" lon="120.82505083029035"><ele>188.2</ele><time>2026-04-04T06:56:13Z</time></trkpt><trkpt lat="13.971426290031422" lon="120.82515134292528"><ele>189.0</ele><time>2026-04-04T06:56:15Z</time></trkpt><trkpt lat="13.971495272704717" lon="120.82524490150323"><ele>189.0</ele><time>2026-04-04T06:56:17Z</time></trkpt><trkpt lat="13.971468068636163" lon="120.82530441571933"><ele>189.0</ele><time>2026-04-04T06:56:18Z</time></trkpt><trkpt lat="13.97146119555627" lon="120.82541268026664"><ele>189.0</ele><time>2026-04-04T06:56:20Z</time></trkpt><trkpt lat="13.971464263913287" lon="120.82552750420301"><ele>189.0</ele><time>2026-04-04T06:56:22Z</time></trkpt><trkpt lat="13.971477064659423" lon="120.82563698419999"><ele>189.0</ele><time>2026-04-04T06:56:24Z</time></trkpt><trkpt lat="13.971490080404916" lon="120.82572497914559"><ele>189.0</ele><time>2026-04-04T06:56:26Z</time></trkpt><trkpt lat="13.971559979225951" lon="120.8257731207901"><ele>189.0</ele><time>2026-04-04T06:56:28Z</time></trkpt><trkpt lat="13.971670584623489" lon="120.82585235819586"><ele>189.0</ele><time>2026-04-04T06:56:32Z</time></trkpt><trkpt lat="13.971756699958778" lon="120.82591228583212"><ele>189.0</ele><time>2026-04-04T06:56:33Z</time></trkpt><trkpt lat="13.971846417131461" lon="120.82597371774978"><ele>189.0</ele><time>2026-04-04T06:56:34Z</time></trkpt><trkpt lat="13.971934907860247" lon="120.8260331387886"><ele>189.5</ele><time>2026-04-04T06:56:35Z</time></trkpt><trkpt lat="13.972037138918882" lon="120.82608369455612"><ele>190.0</ele><time>2026-04-04T06:56:36Z</time></trkpt><trkpt lat="13.97213761239906" lon="120.82616671787163"><ele>190.5</ele><time>2026-04-04T06:56:37Z</time></trkpt><trkpt lat="13.972246935093118" lon="120.82623798225796"><ele>191.0</ele><time>2026-04-04T06:56:38Z</time></trkpt><trkpt lat="13.972363820788537" lon="120.82631454484091"><ele>191.0</ele><time>2026-04-04T06:56:39Z</time></trkpt><trkpt lat="13.97247743543333" lon="120.82638340219441"><ele>191.0</ele><time>2026-04-04T06:56:40Z</time></trkpt><trkpt lat="13.972604698557378" lon="120.82644229345811"><ele>191.0</ele><time>2026-04-04T06:56:41Z</time></trkpt><trkpt lat="13.972726566322077" lon="120.82651935801172"><ele>191.0</ele><time>2026-04-04T06:56:42Z</time></trkpt><trkpt lat="13.972853904846227" lon="120.82659775478666"><ele>192.0</ele><time>2026-04-04T06:56:43Z</time></trkpt><trkpt lat="13.972975153396735" lon="120.82667419250836"><ele>193.0</ele><time>2026-04-04T06:56:44Z</time></trkpt><trkpt lat="13.973101675727902" lon="120.82675657135145"><ele>194.0</ele><time>2026-04-04T06:56:45Z</time></trkpt><trkpt lat="13.973228499748728" lon="120.82683039392946"><ele>195.0</ele><time>2026-04-04T06:56:46Z</time></trkpt><trkpt lat="13.973363981404447" lon="120.82690983439934"><ele>196.0</ele><time>2026-04-04T06:56:47Z</time></trkpt><trkpt lat="13.97348747885317" lon="120.82699207345846"><ele>197.0</ele><time>2026-04-04T06:56:48Z</time></trkpt><trkpt lat="13.973616054774153" lon="120.82706180866188"><ele>198.0</ele><time>2026-04-04T06:56:49Z</time></trkpt><trkpt lat="13.973743256808026" lon="120.82712923292934"><ele>199.0</ele><time>2026-04-04T06:56:50Z</time></trkpt><trkpt lat="13.973871341968799" lon="120.82720303350207"><ele>199.0</ele><time>2026-04-04T06:56:51Z</time></trkpt><trkpt lat="13.97400014897278" lon="120.82728003847942"><ele>199.0</ele><time>2026-04-04T06:56:52Z</time></trkpt><trkpt lat="13.974129308180986" lon="120.82735661615573"><ele>199.0</ele><time>2026-04-04T06:56:53Z</time></trkpt><trkpt lat="13.974256244632095" lon="120.8274395263322"><ele>199.0</ele><time>2026-04-04T06:56:54Z</time></trkpt><trkpt lat="13.974383628756888" lon="120.82750619053718"><ele>200.0</ele><time>2026-04-04T06:56:55Z</time></trkpt><trkpt lat="13.974516265938087" lon="120.827583271524"><ele>201.0</ele><time>2026-04-04T06:56:56Z</time></trkpt><trkpt lat="13.97465504668811" lon="120.8276495305611"><ele>202.0</ele><time>2026-04-04T06:56:57Z</time></trkpt><trkpt lat="13.974794011258723" lon="120.82770712883415"><ele>202.5</ele><time>2026-04-04T06:56:58Z</time></trkpt><trkpt lat="13.9749302821365" lon="120.82776345280165"><ele>203.0</ele><time>2026-04-04T06:56:59Z</time></trkpt><trkpt lat="13.975070239060248" lon="120.82781022301221"><ele>203.5</ele><time>2026-04-04T06:57:00Z</time></trkpt><trkpt lat="13.975194165927219" lon="120.82786072423897"><ele>204.0</ele><time>2026-04-04T06:57:01Z</time></trkpt><trkpt lat="13.975318718764253" lon="120.82792212473984"><ele>205.0</ele><time>2026-04-04T06:57:02Z</time></trkpt><trkpt lat="13.975450472742805" lon="120.82796852118149"><ele>206.0</ele><time>2026-04-04T06:57:03Z</time></trkpt><trkpt lat="13.975585239362387" lon="120.82801735437383"><ele>207.0</ele><time>2026-04-04T06:57:04Z</time></trkpt><trkpt lat="13.97571822663333" lon="120.82806476438664"><ele>208.0</ele><time>2026-04-04T06:57:05Z</time></trkpt><trkpt lat="13.975858436627698" lon="120.8280978503457"><ele>209.0</ele><time>2026-04-04T06:57:06Z</time></trkpt><trkpt lat="13.975982773915417" lon="120.82817993408243"><ele>210.0</ele><time>2026-04-04T06:57:07.001Z</time></trkpt><trkpt lat="13.976114072928892" lon="120.8282573917965"><ele>211.0</ele><time>2026-04-04T06:57:08.001Z</time></trkpt><trkpt lat="13.976233797990444" lon="120.82832802163097"><ele>212.0</ele><time>2026-04-04T06:57:09.001Z</time></trkpt><trkpt lat="13.976349583936166" lon="120.82839859174857"><ele>212.0</ele><time>2026-04-04T06:57:10.001Z</time></trkpt><trkpt lat="13.976464227650911" lon="120.82847053390135"><ele>212.0</ele><time>2026-04-04T06:57:11.001Z</time></trkpt><trkpt lat="13.976579443686774" lon="120.82853489077958"><ele>212.0</ele><time>2026-04-04T06:57:12.001Z</time></trkpt><trkpt lat="13.97668973454031" lon="120.82861365340138"><ele>212.0</ele><time>2026-04-04T06:57:13.001Z</time></trkpt><trkpt lat="13.976801505831029" lon="120.82869434446839"><ele>213.33333333333334</ele><time>2026-04-04T06:57:14.001Z</time></trkpt><trkpt lat="13.976924875229859" lon="120.82877296971259"><ele>214.66666666666669</ele><time>2026-04-04T06:57:15.001Z</time></trkpt><trkpt lat="13.977053199693195" lon="120.82885262570154"><ele>216.0</ele><time>2026-04-04T06:57:16.001Z</time></trkpt><trkpt lat="13.97719832744409" lon="120.82892259050672"><ele>216.0</ele><time>2026-04-04T06:57:17.001Z</time></trkpt><trkpt lat="13.97734629529985" lon="120.82899035136528"><ele>216.0</ele><time>2026-04-04T06:57:18.001Z</time></trkpt><trkpt lat="13.977488069364945" lon="120.82906991688824"><ele>216.0</ele><time>2026-04-04T06:57:19.001Z</time></trkpt><trkpt lat="13.977631857341825" lon="120.82914317699738"><ele>217.66666666666669</ele><time>2026-04-04T06:57:20.001Z</time></trkpt><trkpt lat="13.977780925045673" lon="120.82920838571835"><ele>219.33333333333334</ele><time>2026-04-04T06:57:21.001Z</time></trkpt><trkpt lat="13.977935407425553" lon="120.82927508001355"><ele>221.0</ele><time>2026-04-04T06:57:22.001Z</time></trkpt><trkpt lat="13.978089931434466" lon="120.82934321461242"><ele>221.0</ele><time>2026-04-04T06:57:23.001Z</time></trkpt><trkpt lat="13.97825038680491" lon="120.82940439355127"><ele>221.0</ele><time>2026-04-04T06:57:24.001Z</time></trkpt><trkpt lat="13.978410645420844" lon="120.82946321835401"><ele>221.0</ele><time>2026-04-04T06:57:25.001Z</time></trkpt><trkpt lat="13.978567713802434" lon="120.82952830019201"><ele>222.33333333333334</ele><time>2026-04-04T06:57:26.001Z</time></trkpt><trkpt lat="13.978718608266378" lon="120.82958943144631"><ele>223.66666666666669</ele><time>2026-04-04T06:57:27.001Z</time></trkpt><trkpt lat="13.978865035821567" lon="120.82966597930447"><ele>225.0</ele><time>2026-04-04T06:57:28.001Z</time></trkpt><trkpt lat="13.979028287470465" lon="120.82971798348389"><ele>225.0</ele><time>2026-04-04T06:57:29.001Z</time></trkpt><trkpt lat="13.979176147443473" lon="120.82978585209963"><ele>225.0</ele><time>2026-04-04T06:57:30.001Z</time></trkpt><trkpt lat="13.979325228773764" lon="120.8298520318885"><ele>225.0</ele><time>2026-04-04T06:57:31.001Z</time></trkpt><trkpt lat="13.97946989190925" lon="120.82991487093409"><ele>224.0</ele><time>2026-04-04T06:57:32.001Z</time></trkpt><trkpt lat="13.979622870138705" lon="120.82996916714578"><ele>223.0</ele><time>2026-04-04T06:57:33.001Z</time></trkpt><trkpt lat="13.979776863742616" lon="120.83002117480919"><ele>222.0</ele><time>2026-04-04T06:57:34.001Z</time></trkpt><trkpt lat="13.979930324572903" lon="120.83008194550855"><ele>223.75</ele><time>2026-04-04T06:57:35.001Z</time></trkpt><trkpt lat="13.980077607591026" lon="120.83014445101189"><ele>225.5</ele><time>2026-04-04T06:57:36.001Z</time></trkpt><trkpt lat="13.980218037234634" lon="120.83020444990687"><ele>227.25</ele><time>2026-04-04T06:57:37Z</time></trkpt><trkpt lat="13.980315888874207" lon="120.83029558482995"><ele>229.0</ele><time>2026-04-04T06:57:38Z</time></trkpt><trkpt lat="13.980428980698827" lon="120.83038595108046"><ele>229.0</ele><time>2026-04-04T06:57:39Z</time></trkpt><trkpt lat="13.980521011794636" lon="120.83048998647648"><ele>229.0</ele><time>2026-04-04T06:57:40Z</time></trkpt><trkpt lat="13.980600853965536" lon="120.83060124737551"><ele>229.0</ele><time>2026-04-04T06:57:41Z</time></trkpt><trkpt lat="13.980675616826257" lon="120.83070842475237"><ele>229.0</ele><time>2026-04-04T06:57:42Z</time></trkpt><trkpt lat="13.980774855710944" lon="120.83085724867072"><ele>229.0</ele><time>2026-04-04T06:57:43Z</time></trkpt><trkpt lat="13.980862152075993" lon="120.83098728590542"><ele>229.0</ele><time>2026-04-04T06:57:44Z</time></trkpt><trkpt lat="13.980950541307429" lon="120.83111954187649"><ele>229.0</ele><time>2026-04-04T06:57:45Z</time></trkpt><trkpt lat="13.981025852754563" lon="120.83125220242039"><ele>229.0</ele><time>2026-04-04T06:57:46Z</time></trkpt><trkpt lat="13.981101826361463" lon="120.83139381196989"><ele>229.0</ele><time>2026-04-04T06:57:47Z</time></trkpt><trkpt lat="13.981171927562446" lon="120.83152475494435"><ele>229.0</ele><time>2026-04-04T06:57:48Z</time></trkpt><trkpt lat="13.981235999965511" lon="120.83164817845768"><ele>229.0</ele><time>2026-04-04T06:57:49Z</time></trkpt><trkpt lat="13.981300550688086" lon="120.83177298284173"><ele>230.0</ele><time>2026-04-04T06:57:50Z</time></trkpt><trkpt lat="13.98136189685486" lon="120.83189152965629"><ele>231.0</ele><time>2026-04-04T06:57:51Z</time></trkpt><trkpt lat="13.981428674094765" lon="120.83200549673568"><ele>232.0</ele><time>2026-04-04T06:57:52Z</time></trkpt><trkpt lat="13.981500144817979" lon="120.8321079825714"><ele>233.0</ele><time>2026-04-04T06:57:53Z</time></trkpt><trkpt lat="13.981556665823538" lon="120.83221504977458"><ele>233.0</ele><time>2026-04-04T06:57:54Z</time></trkpt><trkpt lat="13.981621585547622" lon="120.83231836508448"><ele>233.0</ele><time>2026-04-04T06:57:55Z</time></trkpt><trkpt lat="13.98169512845315" lon="120.83241691886418"><ele>233.0</ele><time>2026-04-04T06:57:56Z</time></trkpt><trkpt lat="13.981770935103755" lon="120.83251161275864"><ele>233.0</ele><time>2026-04-04T06:57:57Z</time></trkpt><trkpt lat="13.981851783452706" lon="120.83259604123882"><ele>233.25</ele><time>2026-04-04T06:57:58Z</time></trkpt><trkpt lat="13.981941247711468" lon="120.83267555834142"><ele>233.5</ele><time>2026-04-04T06:57:59Z</time></trkpt><trkpt lat="13.98203042035933" lon="120.83275654618193"><ele>233.75</ele><time>2026-04-04T06:58:00Z</time></trkpt><trkpt lat="13.982122772308443" lon="120.8328381487322"><ele>234.0</ele><time>2026-04-04T06:58:01Z</time></trkpt><trkpt lat="13.982222173706063" lon="120.8329230811531"><ele>234.0</ele><time>2026-04-04T06:58:02Z</time></trkpt><trkpt lat="13.982317172928852" lon="120.83301014557328"><ele>234.0</ele><time>2026-04-04T06:58:03Z</time></trkpt><trkpt lat="13.982415537403767" lon="120.83309963276007"><ele>234.0</ele><time>2026-04-04T06:58:04Z</time></trkpt><trkpt lat="13.982515782046864" lon="120.83319098814056"><ele>234.0</ele><time>2026-04-04T06:58:05Z</time></trkpt><trkpt lat="13.982619209194603" lon="120.83327882166498"><ele>234.75</ele><time>2026-04-04T06:58:06Z</time></trkpt><trkpt lat="13.9827261759799" lon="120.83336660370037"><ele>235.5</ele><time>2026-04-04T06:58:07Z</time></trkpt><trkpt lat="13.982819180970118" lon="120.83346698220683"><ele>236.25</ele><time>2026-04-04T06:58:08Z</time></trkpt><trkpt lat="13.982923872777857" lon="120.83356236951582"><ele>237.0</ele><time>2026-04-04T06:58:09Z</time></trkpt><trkpt lat="13.983019357367311" lon="120.83364953466955"><ele>237.0</ele><time>2026-04-04T06:58:10Z</time></trkpt><trkpt lat="13.983127361801277" lon="120.83373825111099"><ele>237.0</ele><time>2026-04-04T06:58:11Z</time></trkpt><trkpt lat="13.983229314451886" lon="120.83381700641078"><ele>237.0</ele><time>2026-04-04T06:58:12Z</time></trkpt><trkpt lat="13.983327240630611" lon="120.83388301728614"><ele>237.0</ele><time>2026-04-04T06:58:13Z</time></trkpt><trkpt lat="13.983405477062943" lon="120.83394477633033"><ele>238.6</ele><time>2026-04-04T06:58:14Z</time></trkpt><trkpt lat="13.98348134043647" lon="120.83399471060531"><ele>240.2</ele><time>2026-04-04T06:58:15Z</time></trkpt><trkpt lat="13.98356968586361" lon="120.83405190298477"><ele>241.8</ele><time>2026-04-04T06:58:16Z</time></trkpt><trkpt lat="13.983651101356209" lon="120.8341134364921"><ele>243.4</ele><time>2026-04-04T06:58:17Z</time></trkpt><trkpt lat="13.983742447363694" lon="120.83416258078458"><ele>245.0</ele><time>2026-04-04T06:58:18Z</time></trkpt><trkpt lat="13.98383439951111" lon="120.83421360969369"><ele>245.0</ele><time>2026-04-04T06:58:19Z</time></trkpt><trkpt lat="13.983940238972279" lon="120.83425770400741"><ele>245.0</ele><time>2026-04-04T06:58:20Z</time></trkpt><trkpt lat="13.98405450129046" lon="120.83429863643025"><ele>245.0</ele><time>2026-04-04T06:58:21Z</time></trkpt><trkpt lat="13.984160841190564" lon="120.83433673783543"><ele>245.0</ele><time>2026-04-04T06:58:22Z</time></trkpt><trkpt lat="13.98427891018048" lon="120.83437792299286"><ele>245.5</ele><time>2026-04-04T06:58:23Z</time></trkpt><trkpt lat="13.984400642552366" lon="120.83442043678075"><ele>246.0</ele><time>2026-04-04T06:58:24Z</time></trkpt><trkpt lat="13.984524002511122" lon="120.83446383801031"><ele>246.5</ele><time>2026-04-04T06:58:25Z</time></trkpt><trkpt lat="13.984639366217198" lon="120.83450381915826"><ele>247.0</ele><time>2026-04-04T06:58:26Z</time></trkpt><trkpt lat="13.984757952106554" lon="120.83453384139517"><ele>247.0</ele><time>2026-04-04T06:58:27Z</time></trkpt><trkpt lat="13.984861949547739" lon="120.8345609119757"><ele>247.0</ele><time>2026-04-04T06:58:28Z</time></trkpt><trkpt lat="13.98496202415165" lon="120.8345785264364"><ele>247.0</ele><time>2026-04-04T06:58:29Z</time></trkpt><trkpt lat="13.98505988273436" lon="120.83460654816062"><ele>247.0</ele><time>2026-04-04T06:58:30Z</time></trkpt><trkpt lat="13.985156933054371" lon="120.83463282048844"><ele>247.0</ele><time>2026-04-04T06:58:31Z</time></trkpt><trkpt lat="13.9852585133475" lon="120.83465232975081"><ele>247.2</ele><time>2026-04-04T06:58:32Z</time></trkpt><trkpt lat="13.985355792710827" lon="120.8346541776673"><ele>247.39999999999998</ele><time>2026-04-04T06:58:33Z</time></trkpt><trkpt lat="13.985459108687959" lon="120.83463735304964"><ele>247.60000000000002</ele><time>2026-04-04T06:58:34Z</time></trkpt><trkpt lat="13.985560092785372" lon="120.83460237674468"><ele>247.8</ele><time>2026-04-04T06:58:35Z</time></trkpt><trkpt lat="13.985667650750845" lon="120.83455193742311"><ele>248.0</ele><time>2026-04-04T06:58:36Z</time></trkpt><trkpt lat="13.985758422186377" lon="120.83448406689949"><ele>249.0</ele><time>2026-04-04T06:58:37Z</time></trkpt><trkpt lat="13.985877926336725" lon="120.83443025070659"><ele>250.0</ele><time>2026-04-04T06:58:38Z</time></trkpt><trkpt lat="13.985990934760707" lon="120.83436711513944"><ele>251.0</ele><time>2026-04-04T06:58:39Z</time></trkpt><trkpt lat="13.986107733960985" lon="120.83431721791139"><ele>252.0</ele><time>2026-04-04T06:58:40Z</time></trkpt><trkpt lat="13.986211230952355" lon="120.83427042744192"><ele>252.16666666666666</ele><time>2026-04-04T06:58:41Z</time></trkpt><trkpt lat="13.986300325458112" lon="120.83423866563685"><ele>252.33333333333331</ele><time>2026-04-04T06:58:42Z</time></trkpt><trkpt lat="13.986388305956119" lon="120.8342013589223"><ele>252.5</ele><time>2026-04-04T06:58:43Z</time></trkpt><trkpt lat="13.986457443316628" lon="120.83418318824677"><ele>252.66666666666666</ele><time>2026-04-04T06:58:44Z</time></trkpt><trkpt lat="13.98653459917433" lon="120.83415976356693"><ele>252.83333333333331</ele><time>2026-04-04T06:58:45Z</time></trkpt><trkpt lat="13.986617666247609" lon="120.83414172845745"><ele>253.0</ele><time>2026-04-04T06:58:46Z</time></trkpt><trkpt lat="13.98670507734192" lon="120.8341300292534"><ele>253.16666666666666</ele><time>2026-04-04T06:58:47Z</time></trkpt><trkpt lat="13.986791281409692" lon="120.83412031403402"><ele>253.33333333333331</ele><time>2026-04-04T06:58:48Z</time></trkpt><trkpt lat="13.986873316445944" lon="120.8341067460912"><ele>253.5</ele><time>2026-04-04T06:58:49Z</time></trkpt><trkpt lat="13.986953410022789" lon="120.83410058609749"><ele>253.66666666666669</ele><time>2026-04-04T06:58:50Z</time></trkpt><trkpt lat="13.987030156392347" lon="120.8340998647291"><ele>253.83333333333334</ele><time>2026-04-04T06:58:51Z</time></trkpt><trkpt lat="13.987120232163639" lon="120.83409931610208"><ele>254.0</ele><time>2026-04-04T06:58:52Z</time></trkpt><trkpt lat="13.987208538848211" lon="120.83410237713173"><ele>254.00000000000003</ele><time>2026-04-04T06:58:53Z</time></trkpt><trkpt lat="13.987289327271585" lon="120.83412146145113"><ele>254.0</ele><time>2026-04-04T06:58:54Z</time></trkpt><trkpt lat="13.98735959200177" lon="120.83416930535239"><ele>254.0</ele><time>2026-04-04T06:58:55Z</time></trkpt><trkpt lat="13.987442113324956" lon="120.83420652468828"><ele>254.0</ele><time>2026-04-04T06:58:56Z</time></trkpt><trkpt lat="13.987518712409074" lon="120.83424116412422"><ele>254.00000000000003</ele><time>2026-04-04T06:58:57Z</time></trkpt><trkpt lat="13.98758502277889" lon="120.83426450731925"><ele>254.0</ele><time>2026-04-04T06:58:58Z</time></trkpt><trkpt lat="13.9876469695544" lon="120.83428499505548"><ele>254.83333333333334</ele><time>2026-04-04T06:58:59Z</time></trkpt><trkpt lat="13.987715574545554" lon="120.83430768521268"><ele>255.66666666666669</ele><time>2026-04-04T06:59:00Z</time></trkpt><trkpt lat="13.9877855430945" lon="120.83433086160049"><ele>256.5</ele><time>2026-04-04T06:59:01Z</time></trkpt><trkpt lat="13.987861234390103" lon="120.83434157226573"><ele>257.3333333333333</ele><time>2026-04-04T06:59:02Z</time></trkpt><trkpt lat="13.987933144012827" lon="120.8343748288148"><ele>258.16666666666663</ele><time>2026-04-04T06:59:03.001Z</time></trkpt><trkpt lat="13.98801296904407" lon="120.83440496101134"><ele>259.0</ele><time>2026-04-04T06:59:04.001Z</time></trkpt><trkpt lat="13.98809837193194" lon="120.83443593602745"><ele>259.0</ele><time>2026-04-04T06:59:05.001Z</time></trkpt><trkpt lat="13.988181871646816" lon="120.83447545105278"><ele>259.0</ele><time>2026-04-04T06:59:06.001Z</time></trkpt><trkpt lat="13.988266544052426" lon="120.83450916243399"><ele>259.0</ele><time>2026-04-04T06:59:07.001Z</time></trkpt><trkpt lat="13.988360796005605" lon="120.83452410029385"><ele>259.0</ele><time>2026-04-04T06:59:08.001Z</time></trkpt><trkpt lat="13.988463008525692" lon="120.83452547719881"><ele>259.0</ele><time>2026-04-04T06:59:09.001Z</time></trkpt><trkpt lat="13.988559391349527" lon="120.8345070902003"><ele>259.2</ele><time>2026-04-04T06:59:10.001Z</time></trkpt><trkpt lat="13.988658577294698" lon="120.83448730678903"><ele>259.4</ele><time>2026-04-04T06:59:11.001Z</time></trkpt><trkpt lat="13.98876728403156" lon="120.83447084898832"><ele>259.6</ele><time>2026-04-04T06:59:12.001Z</time></trkpt><trkpt lat="13.988867455590357" lon="120.83446388998775"><ele>259.8</ele><time>2026-04-04T06:59:13.001Z</time></trkpt><trkpt lat="13.988970718046788" lon="120.83446393955474"><ele>260.0</ele><time>2026-04-04T06:59:14.001Z</time></trkpt><trkpt lat="13.98907464406767" lon="120.83446611747856"><ele>260.8</ele><time>2026-04-04T06:59:15.001Z</time></trkpt><trkpt lat="13.989182601485822" lon="120.83447506998918"><ele>261.6</ele><time>2026-04-04T06:59:16.001Z</time></trkpt><trkpt lat="13.98929053721733" lon="120.83448487873953"><ele>262.4</ele><time>2026-04-04T06:59:17.001Z</time></trkpt><trkpt lat="13.989401094583943" lon="120.8344961612976"><ele>263.2</ele><time>2026-04-04T06:59:18.001Z</time></trkpt><trkpt lat="13.989520072179237" lon="120.83450096578504"><ele>264.0</ele><time>2026-04-04T06:59:19.001Z</time></trkpt><trkpt lat="13.989635336985778" lon="120.83450762188093"><ele>264.0</ele><time>2026-04-04T06:59:20.001Z</time></trkpt><trkpt lat="13.989751250231095" lon="120.83450807562771"><ele>264.0</ele><time>2026-04-04T06:59:21.001Z</time></trkpt><trkpt lat="13.989872496059897" lon="120.83450457334436"><ele>264.0</ele><time>2026-04-04T06:59:22.001Z</time></trkpt><trkpt lat="13.98999012620717" lon="120.8344945994478"><ele>264.0</ele><time>2026-04-04T06:59:23.001Z</time></trkpt><trkpt lat="13.990111791460135" lon="120.834481029242"><ele>265.75</ele><time>2026-04-04T06:59:24.001Z</time></trkpt><trkpt lat="13.990231002750278" lon="120.83446385707354"><ele>267.5</ele><time>2026-04-04T06:59:25.001Z</time></trkpt><trkpt lat="13.990347346160577" lon="120.8344386644873"><ele>269.25</ele><time>2026-04-04T06:59:26.001Z</time></trkpt><trkpt lat="13.99046171608892" lon="120.83440932256175"><ele>271.0</ele><time>2026-04-04T06:59:27.001Z</time></trkpt><trkpt lat="13.990572339795756" lon="120.834377204937"><ele>271.0</ele><time>2026-04-04T06:59:28.001Z</time></trkpt><trkpt lat="13.990688725633717" lon="120.83435804571998"><ele>271.0</ele><time>2026-04-04T06:59:29.001Z</time></trkpt><trkpt lat="13.990809587434722" lon="120.83435306754797"><ele>271.0</ele><time>2026-04-04T06:59:30.001Z</time></trkpt><trkpt lat="13.990929422041761" lon="120.83435709113608"><ele>271.0</ele><time>2026-04-04T06:59:31.001Z</time></trkpt><trkpt lat="13.991051709228623" lon="120.8343586920705"><ele>272.75</ele><time>2026-04-04T06:59:32.001Z</time></trkpt><trkpt lat="13.991170527946036" lon="120.83436265177923"><ele>274.5</ele><time>2026-04-04T06:59:33.001Z</time></trkpt><trkpt lat="13.991292123755569" lon="120.8343678501357"><ele>276.25</ele><time>2026-04-04T06:59:34.001Z</time></trkpt><trkpt lat="13.991413516898303" lon="120.83437641607252"><ele>278.0</ele><time>2026-04-04T06:59:35.001Z</time></trkpt><trkpt lat="13.991530287211068" lon="120.8343792157577"><ele>278.0</ele><time>2026-04-04T06:59:36.001Z</time></trkpt><trkpt lat="13.99164586293677" lon="120.8343814824965"><ele>278.0</ele><time>2026-04-04T06:59:37.001Z</time></trkpt><trkpt lat="13.991764575150025" lon="120.83438135795753"><ele>278.0</ele><time>2026-04-04T06:59:38.001Z</time></trkpt><trkpt lat="13.991885605130001" lon="120.83438106527568"><ele>278.0</ele><time>2026-04-04T06:59:39.001Z</time></trkpt><trkpt lat="13.992007702843381" lon="120.83436997231571"><ele>279.5</ele><time>2026-04-04T06:59:40.001Z</time></trkpt><trkpt lat="13.992131405500492" lon="120.8343636426605"><ele>281.0</ele><time>2026-04-04T06:59:41.001Z</time></trkpt><trkpt lat="13.99225489797208" lon="120.83437562440206"><ele>282.5</ele><time>2026-04-04T06:59:42.001Z</time></trkpt><trkpt lat="13.992378210446102" lon="120.83438144498466"><ele>284.0</ele><time>2026-04-04T06:59:43Z</time></trkpt><trkpt lat="13.992497337773703" lon="120.83438723880823"><ele>286.0</ele><time>2026-04-04T06:59:44Z</time></trkpt><trkpt lat="13.992618052101868" lon="120.8343895831222"><ele>288.0</ele><time>2026-04-04T06:59:45Z</time></trkpt><trkpt lat="13.992732207215223" lon="120.83441117454085"><ele>290.0</ele><time>2026-04-04T06:59:46Z</time></trkpt><trkpt lat="13.992844464008806" lon="120.83443382254069"><ele>292.0</ele><time>2026-04-04T06:59:47Z</time></trkpt><trkpt lat="13.992957209714012" lon="120.83445097805013"><ele>292.0</ele><time>2026-04-04T06:59:48Z</time></trkpt><trkpt lat="13.99306676400055" lon="120.83446641839865"><ele>292.0</ele><time>2026-04-04T06:59:49Z</time></trkpt><trkpt lat="13.99318270991407" lon="120.83449223127178"><ele>292.0</ele><time>2026-04-04T06:59:50Z</time></trkpt><trkpt lat="13.993295477083832" lon="120.83451779642772"><ele>292.0</ele><time>2026-04-04T06:59:51Z</time></trkpt><trkpt lat="13.993409997324765" lon="120.83454022371585"><ele>293.8</ele><time>2026-04-04T06:59:52Z</time></trkpt><trkpt lat="13.9935201001099" lon="120.83456747154467"><ele>295.6</ele><time>2026-04-04T06:59:53Z</time></trkpt><trkpt lat="13.993631647876033" lon="120.83460329238541"><ele>297.40000000000003</ele><time>2026-04-04T06:59:54Z</time></trkpt><trkpt lat="13.993731786737127" lon="120.83464027267223"><ele>299.2</ele><time>2026-04-04T06:59:55Z</time></trkpt><trkpt lat="13.993825108871112" lon="120.83467672872419"><ele>301.0</ele><time>2026-04-04T06:59:56Z</time></trkpt><trkpt lat="13.993913922194922" lon="120.83471131175916"><ele>301.0</ele><time>2026-04-04T06:59:57Z</time></trkpt><trkpt lat="13.994003299833457" lon="120.8347447648437"><ele>301.0</ele><time>2026-04-04T06:59:58Z</time></trkpt><trkpt lat="13.994092423360373" lon="120.83477470426057"><ele>301.0</ele><time>2026-04-04T06:59:59Z</time></trkpt><trkpt lat="13.994185258380542" lon="120.83479991111079"><ele>301.0</ele><time>2026-04-04T07:00:00Z</time></trkpt><trkpt lat="13.994280179236437" lon="120.8348171781244"><ele>301.0</ele><time>2026-04-04T07:00:01Z</time></trkpt><trkpt lat="13.994373175494404" lon="120.83482728628337"><ele>302.40000000000003</ele><time>2026-04-04T07:00:02Z</time></trkpt><trkpt lat="13.994469209132262" lon="120.8348299477194"><ele>303.8</ele><time>2026-04-04T07:00:03Z</time></trkpt><trkpt lat="13.994560802136064" lon="120.83483155372443"><ele>305.20000000000005</ele><time>2026-04-04T07:00:04Z</time></trkpt><trkpt lat="13.994656334394495" lon="120.83483526665796"><ele>306.6</ele><time>2026-04-04T07:00:05Z</time></trkpt><trkpt lat="13.994753248544088" lon="120.83484779521915"><ele>308.0</ele><time>2026-04-04T07:00:06Z</time></trkpt><trkpt lat="13.994845032410316" lon="120.83486510798971"><ele>308.0</ele><time>2026-04-04T07:00:07Z</time></trkpt><trkpt lat="13.994946457122516" lon="120.83488820721688"><ele>308.0</ele><time>2026-04-04T07:00:08Z</time></trkpt><trkpt lat="13.99505533794141" lon="120.8349118079582"><ele>308.0</ele><time>2026-04-04T07:00:09Z</time></trkpt><trkpt lat="13.995177056072375" lon="120.83493933151492"><ele>308.0</ele><time>2026-04-04T07:00:10Z</time></trkpt><trkpt lat="13.995297521589434" lon="120.83496646703597"><ele>307.0</ele><time>2026-04-04T07:00:11Z</time></trkpt><trkpt lat="13.995428000966477" lon="120.83499714960719"><ele>306.0</ele><time>2026-04-04T07:00:12Z</time></trkpt><trkpt lat="13.99555313589895" lon="120.83502640574781"><ele>305.0</ele><time>2026-04-04T07:00:13Z</time></trkpt><trkpt lat="13.995683304604693" lon="120.83506223035432"><ele>304.0</ele><time>2026-04-04T07:00:14Z</time></trkpt><trkpt lat="13.995808379245801" lon="120.83510206997951"><ele>304.75</ele><time>2026-04-04T07:00:15Z</time></trkpt><trkpt lat="13.995933110657472" lon="120.8351536877542"><ele>305.5</ele><time>2026-04-04T07:00:16Z</time></trkpt><trkpt lat="13.996045933343984" lon="120.83520263155182"><ele>306.25</ele><time>2026-04-04T07:00:17Z</time></trkpt><trkpt lat="13.996156772667527" lon="120.83525391388226"><ele>307.0</ele><time>2026-04-04T07:00:18Z</time></trkpt><trkpt lat="13.996253209859683" lon="120.83529473385944"><ele>307.0</ele><time>2026-04-04T07:00:19Z</time></trkpt><trkpt lat="13.996350396995885" lon="120.83532909958986"><ele>307.0</ele><time>2026-04-04T07:00:20Z</time></trkpt><trkpt lat="13.996431338349746" lon="120.83537925449428"><ele>307.0</ele><time>2026-04-04T07:00:21Z</time></trkpt><trkpt lat="13.996522068934262" lon="120.83539720863826"><ele>307.0</ele><time>2026-04-04T07:00:22Z</time></trkpt><trkpt lat="13.996613382960435" lon="120.83539790470772"><ele>307.0</ele><time>2026-04-04T07:00:23Z</time></trkpt><trkpt lat="13.996701597031475" lon="120.83541982666786"><ele>307.8</ele><time>2026-04-04T07:00:24Z</time></trkpt><trkpt lat="13.9967960039588" lon="120.8354396998956"><ele>308.6</ele><time>2026-04-04T07:00:25Z</time></trkpt><trkpt lat="13.996895510385581" lon="120.83545357615428"><ele>309.40000000000003</ele><time>2026-04-04T07:00:26Z</time></trkpt><trkpt lat="13.99700642105317" lon="120.83547059952424"><ele>310.2</ele><time>2026-04-04T07:00:27Z</time></trkpt><trkpt lat="13.997119954972508" lon="120.83548341005941"><ele>311.0</ele><time>2026-04-04T07:00:28Z</time></trkpt><trkpt lat="13.997242659863112" lon="120.8354951970633"><ele>311.0</ele><time>2026-04-04T07:00:29Z</time></trkpt><trkpt lat="13.997373005234481" lon="120.83550580991921"><ele>311.0</ele><time>2026-04-04T07:00:30Z</time></trkpt><trkpt lat="13.997505096146874" lon="120.83551586627398"><ele>311.0</ele><time>2026-04-04T07:00:31Z</time></trkpt><trkpt lat="13.997635768286221" lon="120.83552580966587"><ele>311.0</ele><time>2026-04-04T07:00:32Z</time></trkpt><trkpt lat="13.9977676161863" lon="120.83553790610596"><ele>312.0</ele><time>2026-04-04T07:00:33Z</time></trkpt><trkpt lat="13.997900111417918" lon="120.83555328361196"><ele>313.0</ele><time>2026-04-04T07:00:34Z</time></trkpt><trkpt lat="13.998029218572098" lon="120.83556912826296"><ele>314.0</ele><time>2026-04-04T07:00:35Z</time></trkpt><trkpt lat="13.998158705565846" lon="120.8355849400737"><ele>315.0</ele><time>2026-04-04T07:00:36Z</time></trkpt><trkpt lat="13.998280474194704" lon="120.83560111751956"><ele>315.25</ele><time>2026-04-04T07:00:37Z</time></trkpt><trkpt lat="13.998396297502806" lon="120.83560887344052"><ele>315.5</ele><time>2026-04-04T07:00:38Z</time></trkpt><trkpt lat="13.998510235384387" lon="120.83561623206214"><ele>315.75</ele><time>2026-04-04T07:00:39Z</time></trkpt><trkpt lat="13.998621916780689" lon="120.8356229307356"><ele>316.0</ele><time>2026-04-04T07:00:40Z</time></trkpt><trkpt lat="13.998732283418336" lon="120.83562563774639"><ele>316.0</ele><time>2026-04-04T07:00:41Z</time></trkpt><trkpt lat="13.998847772079834" lon="120.83563298549008"><ele>316.0</ele><time>2026-04-04T07:00:42Z</time></trkpt><trkpt lat="13.998962187169438" lon="120.83563919398104"><ele>316.0</ele><time>2026-04-04T07:00:43Z</time></trkpt><trkpt lat="13.999079146255147" lon="120.83565270017328"><ele>316.0</ele><time>2026-04-04T07:00:44Z</time></trkpt><trkpt lat="13.999193233347608" lon="120.83566379523505"><ele>317.0</ele><time>2026-04-04T07:00:45Z</time></trkpt><trkpt lat="13.999313911478795" lon="120.8356847357128"><ele>318.0</ele><time>2026-04-04T07:00:46Z</time></trkpt><trkpt lat="13.999436018945477" lon="120.83570412577218"><ele>319.0</ele><time>2026-04-04T07:00:47Z</time></trkpt><trkpt lat="13.999551657257122" lon="120.83571896986231"><ele>320.0</ele><time>2026-04-04T07:00:48Z</time></trkpt><trkpt lat="13.999677548433844" lon="120.83573497899948"><ele>320.0</ele><time>2026-04-04T07:00:49Z</time></trkpt><trkpt lat="13.999804222456783" lon="120.83575321865438"><ele>320.0</ele><time>2026-04-04T07:00:50Z</time></trkpt><trkpt lat="13.999929611751964" lon="120.83577017298906"><ele>320.0</ele><time>2026-04-04T07:00:51Z</time></trkpt><trkpt lat="14.00005539616127" lon="120.83578789769784"><ele>320.0</ele><time>2026-04-04T07:00:52Z</time></trkpt><trkpt lat="14.000184611871214" lon="120.83581264239072"><ele>320.0</ele><time>2026-04-04T07:00:53Z</time></trkpt><trkpt lat="14.000310463200709" lon="120.83583543148679"><ele>320.0</ele><time>2026-04-04T07:00:54Z</time></trkpt><trkpt lat="14.000434038417268" lon="120.83586195377625"><ele>320.0</ele><time>2026-04-04T07:00:55Z</time></trkpt><trkpt lat="14.00055795785521" lon="120.83588773971724"><ele>320.0</ele><time>2026-04-04T07:00:56Z</time></trkpt><trkpt lat="14.000678386575185" lon="120.83591551445471"><ele>320.0</ele><time>2026-04-04T07:00:57Z</time></trkpt><trkpt lat="14.000780426482118" lon="120.83594034040306"><ele>320.0</ele><time>2026-04-04T07:00:58Z</time></trkpt><trkpt lat="14.000874892458388" lon="120.83596134178256"><ele>320.0</ele><time>2026-04-04T07:00:59Z</time></trkpt><trkpt lat="14.000963808235515" lon="120.83600031170542"><ele>320.0</ele><time>2026-04-04T07:01:00Z</time></trkpt><trkpt lat="14.001057613688713" lon="120.83602284723135"><ele>320.0</ele><time>2026-04-04T07:01:01Z</time></trkpt><trkpt lat="14.001158262157995" lon="120.83604702670202"><ele>320.0</ele><time>2026-04-04T07:01:02Z</time></trkpt><trkpt lat="14.001263117767355" lon="120.83607221688249"><ele>320.0</ele><time>2026-04-04T07:01:03Z</time></trkpt><trkpt lat="14.001358014004424" lon="120.83609501445332"><ele>320.0</ele><time>2026-04-04T07:01:04Z</time></trkpt><trkpt lat="14.001465211588766" lon="120.83612076725994"><ele>320.0</ele><time>2026-04-04T07:01:05Z</time></trkpt><trkpt lat="14.001561438735996" lon="120.8361438867463"><ele>320.0</ele><time>2026-04-04T07:01:06Z</time></trkpt><trkpt lat="14.001673900196266" lon="120.83617090892334"><ele>320.0</ele><time>2026-04-04T07:01:07.001Z</time></trkpt><trkpt lat="14.001770789770228" lon="120.83619418949706"><ele>320.0</ele><time>2026-04-04T07:01:08.001Z</time></trkpt><trkpt lat="14.00188681390397" lon="120.83620837339504"><ele>320.0</ele><time>2026-04-04T07:01:09.001Z</time></trkpt><trkpt lat="14.00200377701875" lon="120.8362424492379"><ele>320.0</ele><time>2026-04-04T07:01:10.001Z</time></trkpt><trkpt lat="14.002127727937573" lon="120.83627890346419"><ele>320.0</ele><time>2026-04-04T07:01:11.001Z</time></trkpt><trkpt lat="14.002252850844027" lon="120.836326737755"><ele>320.0</ele><time>2026-04-04T07:01:12.001Z</time></trkpt><trkpt lat="14.002394569995936" lon="120.83635297853398"><ele>320.0</ele><time>2026-04-04T07:01:13.001Z</time></trkpt><trkpt lat="14.00252902685073" lon="120.83639527983462"><ele>320.0</ele><time>2026-04-04T07:01:14.001Z</time></trkpt><trkpt lat="14.002663041902759" lon="120.83645459775136"><ele>321.6666666666667</ele><time>2026-04-04T07:01:15.001Z</time></trkpt><trkpt lat="14.002805653112778" lon="120.83650219919056"><ele>323.3333333333333</ele><time>2026-04-04T07:01:16.001Z</time></trkpt><trkpt lat="14.002949043073" lon="120.83655006056478"><ele>325.0</ele><time>2026-04-04T07:01:17.001Z</time></trkpt><trkpt lat="14.00309928763469" lon="120.83660020990017"><ele>325.0</ele><time>2026-04-04T07:01:18.001Z</time></trkpt><trkpt lat="14.003252614235603" lon="120.8366513879734"><ele>325.0</ele><time>2026-04-04T07:01:19.001Z</time></trkpt><trkpt lat="14.003396024009314" lon="120.8366995157658"><ele>325.0</ele><time>2026-04-04T07:01:20.001Z</time></trkpt><trkpt lat="14.003537012640315" lon="120.83675069235403"><ele>325.5</ele><time>2026-04-04T07:01:21.001Z</time></trkpt><trkpt lat="14.00367050684215" lon="120.83680083056674"><ele>326.0</ele><time>2026-04-04T07:01:22.001Z</time></trkpt><trkpt lat="14.003795015392642" lon="120.83684759391849"><ele>326.5</ele><time>2026-04-04T07:01:23.001Z</time></trkpt><trkpt lat="14.003917420334066" lon="120.83689318911783"><ele>327.0</ele><time>2026-04-04T07:01:24.001Z</time></trkpt><trkpt lat="14.004023961274848" lon="120.83695561465996"><ele>327.0</ele><time>2026-04-04T07:01:25.001Z</time></trkpt><trkpt lat="14.004130959604467" lon="120.83701362321345"><ele>327.0</ele><time>2026-04-04T07:01:26.001Z</time></trkpt><trkpt lat="14.004243086642067" lon="120.83707420820532"><ele>327.0</ele><time>2026-04-04T07:01:27.001Z</time></trkpt><trkpt lat="14.00435734323461" lon="120.83713187927434"><ele>327.0</ele><time>2026-04-04T07:01:28.001Z</time></trkpt><trkpt lat="14.004470514113049" lon="120.83718921394511"><ele>328.75</ele><time>2026-04-04T07:01:29.001Z</time></trkpt><trkpt lat="14.004587685690943" lon="120.83722984759841"><ele>330.5</ele><time>2026-04-04T07:01:30.001Z</time></trkpt><trkpt lat="14.004686665116958" lon="120.83728910230342"><ele>332.25</ele><time>2026-04-04T07:01:31.001Z</time></trkpt><trkpt lat="14.00478479237565" lon="120.8373396522876"><ele>334.0</ele><time>2026-04-04T07:01:32.001Z</time></trkpt><trkpt lat="14.004888998072605" lon="120.83737823030852"><ele>334.0</ele><time>2026-04-04T07:01:33.001Z</time></trkpt><trkpt lat="14.004995601230677" lon="120.8374078465688"><ele>334.0</ele><time>2026-04-04T07:01:34.001Z</time></trkpt><trkpt lat="14.005105673010616" lon="120.8374412258269"><ele>334.0</ele><time>2026-04-04T07:01:35.001Z</time></trkpt><trkpt lat="14.005213784301533" lon="120.83747960062065"><ele>334.0</ele><time>2026-04-04T07:01:36.001Z</time></trkpt><trkpt lat="14.005309166134138" lon="120.83751870049694"><ele>334.0</ele><time>2026-04-04T07:01:37.001Z</time></trkpt><trkpt lat="14.005409621597568" lon="120.83755632078984"><ele>334.79999999999995</ele><time>2026-04-04T07:01:38.001Z</time></trkpt><trkpt lat="14.005511478101829" lon="120.8375943856127"><ele>335.59999999999997</ele><time>2026-04-04T07:01:39.001Z</time></trkpt><trkpt lat="14.005612069658586" lon="120.83763500663059"><ele>336.4</ele><time>2026-04-04T07:01:40.001Z</time></trkpt><trkpt lat="14.005713137805886" lon="120.83767120790358"><ele>337.2</ele><time>2026-04-04T07:01:41.001Z</time></trkpt><trkpt lat="14.005816602732214" lon="120.83771159733078"><ele>338.0</ele><time>2026-04-04T07:01:42.001Z</time></trkpt><trkpt lat="14.005915948780292" lon="120.83775029143216"><ele>339.4</ele><time>2026-04-04T07:01:43.001Z</time></trkpt><trkpt lat="14.006006830036696" lon="120.83779373359636"><ele>340.79999999999995</ele><time>2026-04-04T07:01:44.001Z</time></trkpt><trkpt lat="14.006103530199862" lon="120.83784435809325"><ele>342.2</ele><time>2026-04-04T07:01:45.001Z</time></trkpt><trkpt lat="14.006194396985023" lon="120.83788286167616"><ele>343.6</ele><time>2026-04-04T07:01:46.001Z</time></trkpt><trkpt lat="14.00628813043016" lon="120.83792137301236"><ele>345.0</ele><time>2026-04-04T07:01:47.001Z</time></trkpt><trkpt lat="14.006386604900225" lon="120.83795419537228"><ele>345.0</ele><time>2026-04-04T07:01:48.001Z</time></trkpt><trkpt lat="14.006495171406344" lon="120.83799691719213"><ele>345.0</ele><time>2026-04-04T07:01:49Z</time></trkpt><trkpt lat="14.006612352732281" lon="120.83804265990811"><ele>345.0</ele><time>2026-04-04T07:01:50Z</time></trkpt><trkpt lat="14.006734124370242" lon="120.83808766188746"><ele>345.0</ele><time>2026-04-04T07:01:51Z</time></trkpt><trkpt lat="14.006862069677442" lon="120.83813381144564"><ele>345.75</ele><time>2026-04-04T07:01:52Z</time></trkpt><trkpt lat="14.006997727137005" lon="120.83817205245708"><ele>346.5</ele><time>2026-04-04T07:01:53Z</time></trkpt><trkpt lat="14.00713675687954" lon="120.83820603070107"><ele>347.25</ele><time>2026-04-04T07:01:54Z</time></trkpt><trkpt lat="14.007281025000191" lon="120.83823620362831"><ele>348.0</ele><time>2026-04-04T07:01:55Z</time></trkpt><trkpt lat="14.007423393167668" lon="120.83826760511664"><ele>347.75</ele><time>2026-04-04T07:01:56Z</time></trkpt><trkpt lat="14.007560966614154" lon="120.83829483338785"><ele>347.5</ele><time>2026-04-04T07:01:57Z</time></trkpt><trkpt lat="14.007687901680114" lon="120.83832250856054"><ele>347.25</ele><time>2026-04-04T07:01:58Z</time></trkpt><trkpt lat="14.007801329677157" lon="120.83835129418911"><ele>347.0</ele><time>2026-04-04T07:01:59Z</time></trkpt><trkpt lat="14.00791277339068" lon="120.83837476206891"><ele>347.0</ele><time>2026-04-04T07:02:00Z</time></trkpt><trkpt lat="14.008015850251484" lon="120.83839623954458"><ele>347.0</ele><time>2026-04-04T07:02:01Z</time></trkpt><trkpt lat="14.008121803028695" lon="120.83842175677819"><ele>347.0</ele><time>2026-04-04T07:02:02Z</time></trkpt><trkpt lat="14.008230663642497" lon="120.83843873690292"><ele>347.0</ele><time>2026-04-04T07:02:03Z</time></trkpt><trkpt lat="14.008343130465837" lon="120.83844068995236"><ele>347.0</ele><time>2026-04-04T07:02:04Z</time></trkpt><trkpt lat="14.008462783408957" lon="120.8384340174796"><ele>347.0</ele><time>2026-04-04T07:02:05Z</time></trkpt><trkpt lat="14.008579284538667" lon="120.83842233595301"><ele>347.0</ele><time>2026-04-04T07:02:06Z</time></trkpt><trkpt lat="14.008692987346047" lon="120.83841045161039"><ele>347.0</ele><time>2026-04-04T07:02:07Z</time></trkpt><trkpt lat="14.008804626912962" lon="120.83839191029614"><ele>347.0</ele><time>2026-04-04T07:02:08Z</time></trkpt><trkpt lat="14.008917347713282" lon="120.83837442041502"><ele>347.0</ele><time>2026-04-04T07:02:09Z</time></trkpt><trkpt lat="14.009028072581991" lon="120.83835467896112"><ele>347.0</ele><time>2026-04-04T07:02:10Z</time></trkpt><trkpt lat="14.009136750974127" lon="120.83834486583586"><ele>347.0</ele><time>2026-04-04T07:02:11Z</time></trkpt><trkpt lat="14.00924517098731" lon="120.83834263737293"><ele>347.0</ele><time>2026-04-04T07:02:12Z</time></trkpt><trkpt lat="14.009352426450317" lon="120.8383408387734"><ele>347.0</ele><time>2026-04-04T07:02:13Z</time></trkpt><trkpt lat="14.009447597520113" lon="120.83835914829149"><ele>347.6</ele><time>2026-04-04T07:02:14Z</time></trkpt><trkpt lat="14.009543481028453" lon="120.83837945495037"><ele>348.20000000000005</ele><time>2026-04-04T07:02:15Z</time></trkpt><trkpt lat="14.00964253650686" lon="120.83839513261982"><ele>348.8</ele><time>2026-04-04T07:02:16Z</time></trkpt><trkpt lat="14.009741385939044" lon="120.83841416227358"><ele>349.4</ele><time>2026-04-04T07:02:17Z</time></trkpt><trkpt lat="14.009842031743878" lon="120.83843840433096"><ele>350.0</ele><time>2026-04-04T07:02:18Z</time></trkpt><trkpt lat="14.009941632087672" lon="120.83846027561061"><ele>350.4</ele><time>2026-04-04T07:02:19Z</time></trkpt><trkpt lat="14.010043809752984" lon="120.83849196195516"><ele>350.8</ele><time>2026-04-04T07:02:20Z</time></trkpt><trkpt lat="14.010145858368396" lon="120.83852559283474"><ele>351.20000000000005</ele><time>2026-04-04T07:02:21Z</time></trkpt><trkpt lat="14.010256080097944" lon="120.8385582853075"><ele>351.6</ele><time>2026-04-04T07:02:22Z</time></trkpt><trkpt lat="14.010361449145138" lon="120.83859297847032"><ele>352.0</ele><time>2026-04-04T07:02:23Z</time></trkpt><trkpt lat="14.010463104970155" lon="120.838619553794"><ele>352.0</ele><time>2026-04-04T07:02:24Z</time></trkpt><trkpt lat="14.010555185730185" lon="120.8386518978932"><ele>352.0</ele><time>2026-04-04T07:02:25Z</time></trkpt><trkpt lat="14.010632675431593" lon="120.83867793368279"><ele>352.0</ele><time>2026-04-04T07:02:26Z</time></trkpt><trkpt lat="14.010701050750281" lon="120.83869311167804"><ele>352.0</ele><time>2026-04-04T07:02:27Z</time></trkpt><trkpt lat="14.010768799754112" lon="120.8387039132431"><ele>352.0</ele><time>2026-04-04T07:02:28Z</time></trkpt><trkpt lat="14.010873807540428" lon="120.83871479054133"><ele>352.0</ele><time>2026-04-04T07:02:30Z</time></trkpt><trkpt lat="14.010948811407063" lon="120.8387300838907"><ele>352.8</ele><time>2026-04-04T07:02:31Z</time></trkpt><trkpt lat="14.011027921181391" lon="120.83877782550158"><ele>353.6</ele><time>2026-04-04T07:02:32Z</time></trkpt><trkpt lat="14.011125333453514" lon="120.83881133972201"><ele>354.40000000000003</ele><time>2026-04-04T07:02:33Z</time></trkpt><trkpt lat="14.011216373403574" lon="120.83887005197847"><ele>355.20000000000005</ele><time>2026-04-04T07:02:34Z</time></trkpt><trkpt lat="14.011318255601099" lon="120.83893403151197"><ele>356.0</ele><time>2026-04-04T07:02:35Z</time></trkpt><trkpt lat="14.011416507772578" lon="120.83899181238004"><ele>356.0</ele><time>2026-04-04T07:02:36Z</time></trkpt><trkpt lat="14.011525079809099" lon="120.83906312961969"><ele>356.0</ele><time>2026-04-04T07:02:37Z</time></trkpt><trkpt lat="14.011635151644056" lon="120.83913031601811"><ele>356.0</ele><time>2026-04-04T07:02:38Z</time></trkpt><trkpt lat="14.011754824799972" lon="120.83918986137287"><ele>356.0</ele><time>2026-04-04T07:02:39Z</time></trkpt><trkpt lat="14.01186750025545" lon="120.8392563148062"><ele>354.5</ele><time>2026-04-04T07:02:40Z</time></trkpt><trkpt lat="14.01199524243972" lon="120.83931948936622"><ele>353.0</ele><time>2026-04-04T07:02:41Z</time></trkpt><trkpt lat="14.012130885113962" lon="120.83937269895014"><ele>351.5</ele><time>2026-04-04T07:02:42Z</time></trkpt><trkpt lat="14.012275702223828" lon="120.83941218802893"><ele>350.0</ele><time>2026-04-04T07:02:43Z</time></trkpt><trkpt lat="14.012425683545487" lon="120.83943859616801"><ele>351.0</ele><time>2026-04-04T07:02:44Z</time></trkpt><trkpt lat="14.012584703546358" lon="120.83946108247137"><ele>352.0</ele><time>2026-04-04T07:02:45Z</time></trkpt><trkpt lat="14.012743590349915" lon="120.8394833477301"><ele>353.0</ele><time>2026-04-04T07:02:46Z</time></trkpt><trkpt lat="14.012896447099797" lon="120.83950642665044"><ele>353.0</ele><time>2026-04-04T07:02:47Z</time></trkpt><trkpt lat="14.013054010116816" lon="120.83952511840047"><ele>353.0</ele><time>2026-04-04T07:02:48Z</time></trkpt><trkpt lat="14.013212078405747" lon="120.83954871880094"><ele>353.0</ele><time>2026-04-04T07:02:49Z</time></trkpt><trkpt lat="14.013372379807189" lon="120.83956264119475"><ele>353.33333333333337</ele><time>2026-04-04T07:02:50Z</time></trkpt><trkpt lat="14.013528395195719" lon="120.83957342298274"><ele>353.6666666666667</ele><time>2026-04-04T07:02:51Z</time></trkpt><trkpt lat="14.013687455247762" lon="120.83957437151689"><ele>354.0</ele><time>2026-04-04T07:02:52Z</time></trkpt><trkpt lat="14.013851275780556" lon="120.83957722393967"><ele>354.0</ele><time>2026-04-04T07:02:53Z</time></trkpt><trkpt lat="14.014008892403165" lon="120.83959978274174"><ele>354.0</ele><time>2026-04-04T07:02:54Z</time></trkpt><trkpt lat="14.014153776818903" lon="120.83963247421957"><ele>354.0</ele><time>2026-04-04T07:02:55Z</time></trkpt><trkpt lat="14.014281140327071" lon="120.83965821173493"><ele>354.0</ele><time>2026-04-04T07:02:56Z</time></trkpt><trkpt lat="14.014385793741798" lon="120.83967258751335"><ele>356.6666666666667</ele><time>2026-04-04T07:02:57Z</time></trkpt><trkpt lat="14.014469710867028" lon="120.83967000356019"><ele>359.3333333333333</ele><time>2026-04-04T07:02:58Z</time></trkpt><trkpt lat="14.014543603630194" lon="120.83964295265454"><ele>362.0</ele><time>2026-04-04T07:02:59Z</time></trkpt><trkpt lat="14.014610308338213" lon="120.8395777270325"><ele>364.66666666666663</ele><time>2026-04-04T07:03:00Z</time></trkpt><trkpt lat="14.01465876613665" lon="120.83949452360288"><ele>367.3333333333333</ele><time>2026-04-04T07:03:01Z</time></trkpt><trkpt lat="14.01471252583397" lon="120.83940964676829"><ele>370.0</ele><time>2026-04-04T07:03:02Z</time></trkpt><trkpt lat="14.014773119457326" lon="120.83932606131552"><ele>370.8</ele><time>2026-04-04T07:03:03Z</time></trkpt><trkpt lat="14.0148460725254" lon="120.83924825051689"><ele>371.6</ele><time>2026-04-04T07:03:04Z</time></trkpt><trkpt lat="14.01491475135912" lon="120.83917313226256"><ele>372.4</ele><time>2026-04-04T07:03:05Z</time></trkpt><trkpt lat="14.014986107414856" lon="120.8390885202344"><ele>373.2</ele><time>2026-04-04T07:03:06Z</time></trkpt><trkpt lat="14.015066081125441" lon="120.83901092610797"><ele>374.0</ele><time>2026-04-04T07:03:07Z</time></trkpt><trkpt lat="14.015147809002247" lon="120.83893436276188"><ele>375.0</ele><time>2026-04-04T07:03:08Z</time></trkpt><trkpt lat="14.015232798103645" lon="120.83885623054879"><ele>376.0</ele><time>2026-04-04T07:03:09Z</time></trkpt><trkpt lat="14.015312931156393" lon="120.83878443383954"><ele>377.0</ele><time>2026-04-04T07:03:10Z</time></trkpt><trkpt lat="14.015390490943581" lon="120.83870466539832"><ele>378.0</ele><time>2026-04-04T07:03:11.001Z</time></trkpt><trkpt lat="14.015465496290522" lon="120.83862301667683"><ele>379.0</ele><time>2026-04-04T07:03:12.001Z</time></trkpt><trkpt lat="14.015539750788474" lon="120.83855151895949"><ele>379.0</ele><time>2026-04-04T07:03:13.001Z</time></trkpt><trkpt lat="14.015607060660418" lon="120.8384887109204"><ele>379.0</ele><time>2026-04-04T07:03:14.001Z</time></trkpt><trkpt lat="14.015665600614907" lon="120.83843823428447"><ele>379.0</ele><time>2026-04-04T07:03:15.001Z</time></trkpt><trkpt lat="14.015746917228748" lon="120.83835362790006"><ele>379.0</ele><time>2026-04-04T07:03:16.001Z</time></trkpt><trkpt lat="14.015810196213788" lon="120.83828612395642"><ele>379.0</ele><time>2026-04-04T07:03:17.001Z</time></trkpt><trkpt lat="14.01587867314637" lon="120.83821528651511"><ele>382.2</ele><time>2026-04-04T07:03:18.001Z</time></trkpt><trkpt lat="14.015948095819901" lon="120.83815187360008"><ele>385.4</ele><time>2026-04-04T07:03:19.001Z</time></trkpt><trkpt lat="14.016017565111275" lon="120.83808591928226"><ele>388.6</ele><time>2026-04-04T07:03:20.001Z</time></trkpt><trkpt lat="14.016093028484978" lon="120.83801476373588"><ele>391.8</ele><time>2026-04-04T07:03:21.001Z</time></trkpt><trkpt lat="14.016168272745366" lon="120.83794122775662"><ele>395.0</ele><time>2026-04-04T07:03:22.001Z</time></trkpt><trkpt lat="14.016247374551675" lon="120.83786530902958"><ele>395.0</ele><time>2026-04-04T07:03:23.001Z</time></trkpt><trkpt lat="14.016319955577599" lon="120.83778484348123"><ele>395.0</ele><time>2026-04-04T07:03:24.001Z</time></trkpt><trkpt lat="14.016392020713468" lon="120.83770533340548"><ele>395.0</ele><time>2026-04-04T07:03:25.001Z</time></trkpt><trkpt lat="14.016464470313311" lon="120.83762440935081"><ele>395.0</ele><time>2026-04-04T07:03:26.001Z</time></trkpt><trkpt lat="14.016549625195804" lon="120.83755153272622"><ele>395.0</ele><time>2026-04-04T07:03:27.001Z</time></trkpt><trkpt lat="14.016642610905794" lon="120.83747680566992"><ele>397.5</ele><time>2026-04-04T07:03:28.001Z</time></trkpt><trkpt lat="14.01674153043942" lon="120.83740092854465"><ele>400.0</ele><time>2026-04-04T07:03:29.001Z</time></trkpt><trkpt lat="14.016846879712618" lon="120.83733699861449"><ele>402.5</ele><time>2026-04-04T07:03:30.001Z</time></trkpt><trkpt lat="14.016947974049677" lon="120.83728595896221"><ele>405.0</ele><time>2026-04-04T07:03:31.001Z</time></trkpt><trkpt lat="14.017048494132835" lon="120.83725514575012"><ele>405.0</ele><time>2026-04-04T07:03:32.001Z</time></trkpt><trkpt lat="14.017155325596875" lon="120.83723469742591"><ele>405.0</ele><time>2026-04-04T07:03:33.001Z</time></trkpt><trkpt lat="14.0172530590861" lon="120.83722528451665"><ele>405.0</ele><time>2026-04-04T07:03:34.001Z</time></trkpt><trkpt lat="14.01735153850824" lon="120.83721126495395"><ele>405.0</ele><time>2026-04-04T07:03:35.001Z</time></trkpt><trkpt lat="14.017452698297388" lon="120.83719998131365"><ele>405.0</ele><time>2026-04-04T07:03:36.001Z</time></trkpt><trkpt lat="14.017553142549406" lon="120.83718852301554"><ele>406.0</ele><time>2026-04-04T07:03:37.001Z</time></trkpt><trkpt lat="14.017626692228779" lon="120.83718467197576"><ele>407.0</ele><time>2026-04-04T07:03:38.001Z</time></trkpt><trkpt lat="14.017748680859018" lon="120.83718464956354"><ele>408.0</ele><time>2026-04-04T07:03:40.001Z</time></trkpt><trkpt lat="14.017877263481388" lon="120.83725486597959"><ele>409.0</ele><time>2026-04-04T07:03:42.001Z</time></trkpt><trkpt lat="14.017958645240459" lon="120.83729858550925"><ele>410.0</ele><time>2026-04-04T07:03:43.001Z</time></trkpt><trkpt lat="14.018031969286497" lon="120.83734540061887"><ele>409.99999999999994</ele><time>2026-04-04T07:03:44.001Z</time></trkpt><trkpt lat="14.018111494495333" lon="120.83739759085928"><ele>410.0</ele><time>2026-04-04T07:03:45.001Z</time></trkpt><trkpt lat="14.018194260273118" lon="120.83744583139536"><ele>410.0</ele><time>2026-04-04T07:03:46.001Z</time></trkpt><trkpt lat="14.018264063441295" lon="120.83748777840158"><ele>410.0</ele><time>2026-04-04T07:03:47.001Z</time></trkpt><trkpt lat="14.018336989740869" lon="120.8375359922562"><ele>409.99999999999994</ele><time>2026-04-04T07:03:48.001Z</time></trkpt><trkpt lat="14.018406912547418" lon="120.8375971463346"><ele>410.0</ele><time>2026-04-04T07:03:49.001Z</time></trkpt><trkpt lat="14.018464499196618" lon="120.83765523146879"><ele>409.99999999999994</ele><time>2026-04-04T07:03:50.001Z</time></trkpt><trkpt lat="14.018519569618586" lon="120.83770680237166"><ele>410.0</ele><time>2026-04-04T07:03:51.001Z</time></trkpt><trkpt lat="14.018587514552355" lon="120.83775555400254"><ele>410.0</ele><time>2026-04-04T07:03:52.001Z</time></trkpt><trkpt lat="14.01866418841722" lon="120.83781281535526"><ele>410.0</ele><time>2026-04-04T07:03:53.001Z</time></trkpt><trkpt lat="14.018733599835214" lon="120.83787009944967"><ele>409.99999999999994</ele><time>2026-04-04T07:03:54.001Z</time></trkpt><trkpt lat="14.018806744068424" lon="120.83792957183965"><ele>410.0</ele><time>2026-04-04T07:03:55Z</time></trkpt><trkpt lat="14.018888769510292" lon="120.83799934112433"><ele>410.0</ele><time>2026-04-04T07:03:56Z</time></trkpt><trkpt lat="14.018965621861254" lon="120.83806291813414"><ele>410.0</ele><time>2026-04-04T07:03:57Z</time></trkpt><trkpt lat="14.019050381772585" lon="120.83813461180166"><ele>410.0</ele><time>2026-04-04T07:03:58Z</time></trkpt><trkpt lat="14.019131032260168" lon="120.83819469423501"><ele>410.0</ele><time>2026-04-04T07:03:59Z</time></trkpt><trkpt lat="14.01921633809699" lon="120.8382538591153"><ele>410.0</ele><time>2026-04-04T07:04:00Z</time></trkpt><trkpt lat="14.019300519099152" lon="120.83830627114627"><ele>411.2</ele><time>2026-04-04T07:04:01Z</time></trkpt><trkpt lat="14.01939710072445" lon="120.83835324362906"><ele>412.4</ele><time>2026-04-04T07:04:02Z</time></trkpt><trkpt lat="14.01950248239067" lon="120.83839838737899"><ele>413.6</ele><time>2026-04-04T07:04:03Z</time></trkpt><trkpt lat="14.019596681120294" lon="120.83845098722"><ele>414.8</ele><time>2026-04-04T07:04:04Z</time></trkpt><trkpt lat="14.019697358800622" lon="120.83851489700588"><ele>416.0</ele><time>2026-04-04T07:04:05Z</time></trkpt><trkpt lat="14.01979431515106" lon="120.83857545108727"><ele>416.0</ele><time>2026-04-04T07:04:06Z</time></trkpt><trkpt lat="14.019887766050667" lon="120.83863470763447"><ele>416.0</ele><time>2026-04-04T07:04:07Z</time></trkpt><trkpt lat="14.019982276246827" lon="120.83868998650081"><ele>416.0</ele><time>2026-04-04T07:04:08Z</time></trkpt><trkpt lat="14.02007907451487" lon="120.83874528476663"><ele>416.0</ele><time>2026-04-04T07:04:09Z</time></trkpt><trkpt lat="14.020183783380796" lon="120.83879390362722"><ele>416.0</ele><time>2026-04-04T07:04:10Z</time></trkpt><trkpt lat="14.020286905912053" lon="120.83884473848013"><ele>417.8</ele><time>2026-04-04T07:04:11Z</time></trkpt><trkpt lat="14.020380920290604" lon="120.8388955673512"><ele>419.6</ele><time>2026-04-04T07:04:12Z</time></trkpt><trkpt lat="14.020466598980763" lon="120.83895453467504"><ele>421.4</ele><time>2026-04-04T07:04:13Z</time></trkpt><trkpt lat="14.020547103886313" lon="120.83902257401726"><ele>423.2</ele><time>2026-04-04T07:04:14Z</time></trkpt><trkpt lat="14.02062755937085" lon="120.83909581355208"><ele>425.0</ele><time>2026-04-04T07:04:15Z</time></trkpt><trkpt lat="14.020708269839567" lon="120.83918050781604"><ele>425.0</ele><time>2026-04-04T07:04:16Z</time></trkpt><trkpt lat="14.020795085275923" lon="120.83928083228822"><ele>425.0</ele><time>2026-04-04T07:04:17Z</time></trkpt><trkpt lat="14.020876718476707" lon="120.8393853968173"><ele>425.0</ele><time>2026-04-04T07:04:18Z</time></trkpt><trkpt lat="14.0209512303604" lon="120.8394945671239"><ele>425.0</ele><time>2026-04-04T07:04:19Z</time></trkpt><trkpt lat="14.021029281270625" lon="120.83960808814665"><ele>423.75</ele><time>2026-04-04T07:04:20Z</time></trkpt><trkpt lat="14.021113814163973" lon="120.83970931783922"><ele>422.5</ele><time>2026-04-04T07:04:21Z</time></trkpt><trkpt lat="14.021209774232982" lon="120.83980140920575"><ele>421.25</ele><time>2026-04-04T07:04:22Z</time></trkpt><trkpt lat="14.02131229235168" lon="120.83989639860982"><ele>420.0</ele><time>2026-04-04T07:04:23Z</time></trkpt><trkpt lat="14.021400747668604" lon="120.8400007055249"><ele>420.0</ele><time>2026-04-04T07:04:24Z</time></trkpt><trkpt lat="14.021486107807393" lon="120.84010744322408"><ele>420.0</ele><time>2026-04-04T07:04:25Z</time></trkpt><trkpt lat="14.021577544808183" lon="120.84021356524883"><ele>420.0</ele><time>2026-04-04T07:04:26Z</time></trkpt><trkpt lat="14.021670631465096" lon="120.84031283163928"><ele>420.0</ele><time>2026-04-04T07:04:27Z</time></trkpt><trkpt lat="14.021767850718044" lon="120.84041734273953"><ele>423.75</ele><time>2026-04-04T07:04:28Z</time></trkpt><trkpt lat="14.0218602832863" lon="120.84051886430579"><ele>427.5</ele><time>2026-04-04T07:04:29Z</time></trkpt><trkpt lat="14.021963765975386" lon="120.84062654711344"><ele>431.25</ele><time>2026-04-04T07:04:30Z</time></trkpt><trkpt lat="14.022065110772745" lon="120.84072543936608"><ele>435.0</ele><time>2026-04-04T07:04:31Z</time></trkpt><trkpt lat="14.022165935321055" lon="120.84082327090417"><ele>435.0</ele><time>2026-04-04T07:04:32Z</time></trkpt><trkpt lat="14.022273365610854" lon="120.84091368572625"><ele>435.0</ele><time>2026-04-04T07:04:33Z</time></trkpt><trkpt lat="14.022375271325922" lon="120.84098817430608"><ele>435.0</ele><time>2026-04-04T07:04:34Z</time></trkpt><trkpt lat="14.022473113976007" lon="120.84106296388833"><ele>435.0</ele><time>2026-04-04T07:04:35Z</time></trkpt><trkpt lat="14.022566762083633" lon="120.84110885519812"><ele>433.75</ele><time>2026-04-04T07:04:36Z</time></trkpt><trkpt lat="14.022676256394874" lon="120.84115113989829"><ele>432.5</ele><time>2026-04-04T07:04:37Z</time></trkpt><trkpt lat="14.022779411930328" lon="120.84119197274633"><ele>431.25</ele><time>2026-04-04T07:04:38Z</time></trkpt><trkpt lat="14.02289509144832" lon="120.84124829221574"><ele>430.0</ele><time>2026-04-04T07:04:39Z</time></trkpt><trkpt lat="14.023004172887543" lon="120.84131396321612"><ele>430.0</ele><time>2026-04-04T07:04:40Z</time></trkpt><trkpt lat="14.02310767650331" lon="120.84137675474973"><ele>430.0</ele><time>2026-04-04T07:04:41Z</time></trkpt><trkpt lat="14.023205087162706" lon="120.84144680236167"><ele>430.0</ele><time>2026-04-04T07:04:42Z</time></trkpt><trkpt lat="14.023292212937067" lon="120.84152848314817"><ele>430.0</ele><time>2026-04-04T07:04:43Z</time></trkpt><trkpt lat="14.023365400321474" lon="120.84163617768921"><ele>432.5</ele><time>2026-04-04T07:04:44Z</time></trkpt><trkpt lat="14.023429401323472" lon="120.8417574905134"><ele>435.0</ele><time>2026-04-04T07:04:45Z</time></trkpt><trkpt lat="14.02349812047132" lon="120.8418793646128"><ele>437.5</ele><time>2026-04-04T07:04:46Z</time></trkpt><trkpt lat="14.023569052874421" lon="120.8420022522035"><ele>440.0</ele><time>2026-04-04T07:04:47Z</time></trkpt><trkpt lat="14.023638111917682" lon="120.84212473643893"><ele>440.0</ele><time>2026-04-04T07:04:48Z</time></trkpt><trkpt lat="14.023696260197251" lon="120.84224181772746"><ele>440.0</ele><time>2026-04-04T07:04:49Z</time></trkpt><trkpt lat="14.023758122852707" lon="120.84234775685648"><ele>440.0</ele><time>2026-04-04T07:04:50Z</time></trkpt><trkpt lat="14.023814635012906" lon="120.84245041882464"><ele>440.0</ele><time>2026-04-04T07:04:51Z</time></trkpt><trkpt lat="14.02386715598443" lon="120.84255659793965"><ele>440.6</ele><time>2026-04-04T07:04:52Z</time></trkpt><trkpt lat="14.023911063966755" lon="120.84265255075131"><ele>441.2</ele><time>2026-04-04T07:04:53Z</time></trkpt><trkpt lat="14.023967511959343" lon="120.84274408069179"><ele>441.79999999999995</ele><time>2026-04-04T07:04:54Z</time></trkpt><trkpt lat="14.024036897381816" lon="120.84282173443815"><ele>442.4</ele><time>2026-04-04T07:04:55Z</time></trkpt><trkpt lat="14.02411556440856" lon="120.84290958260746"><ele>443.0</ele><time>2026-04-04T07:04:56Z</time></trkpt><trkpt lat="14.024177684210846" lon="120.84299121398873"><ele>443.0</ele><time>2026-04-04T07:04:57Z</time></trkpt><trkpt lat="14.024229883937572" lon="120.8430779722354"><ele>442.99999999999994</ele><time>2026-04-04T07:04:58Z</time></trkpt><trkpt lat="14.024278463425118" lon="120.84316501836372"><ele>442.99999999999994</ele><time>2026-04-04T07:04:59Z</time></trkpt><trkpt lat="14.02432316494216" lon="120.8432421102501"><ele>443.0</ele><time>2026-04-04T07:05:00Z</time></trkpt><trkpt lat="14.024344312555382" lon="120.84333547572729"><ele>443.0</ele><time>2026-04-04T07:05:01Z</time></trkpt><trkpt lat="14.024383243586211" lon="120.84343628741613"><ele>440.0</ele><time>2026-04-04T07:05:02Z</time></trkpt><trkpt lat="14.024438074712801" lon="120.84354743169487"><ele>437.0</ele><time>2026-04-04T07:05:03Z</time></trkpt><trkpt lat="14.024475490045365" lon="120.84367091156753"><ele>434.0</ele><time>2026-04-04T07:05:04Z</time></trkpt><trkpt lat="14.024511365635515" lon="120.84378762653301"><ele>431.0</ele><time>2026-04-04T07:05:05Z</time></trkpt><trkpt lat="14.024547429018817" lon="120.8439116939105"><ele>431.0</ele><time>2026-04-04T07:05:06Z</time></trkpt><trkpt lat="14.02458150263606" lon="120.84403086711833"><ele>431.0</ele><time>2026-04-04T07:05:07Z</time></trkpt><trkpt lat="14.024615419962245" lon="120.84415199456033"><ele>431.0</ele><time>2026-04-04T07:05:08Z</time></trkpt><trkpt lat="14.024644091346559" lon="120.84427481051283"><ele>431.0</ele><time>2026-04-04T07:05:09Z</time></trkpt><trkpt lat="14.024672553920299" lon="120.84440158988023"><ele>430.75</ele><time>2026-04-04T07:05:10Z</time></trkpt><trkpt lat="14.02470472121511" lon="120.84452931115017"><ele>430.5</ele><time>2026-04-04T07:05:11Z</time></trkpt><trkpt lat="14.024740866706148" lon="120.84465070659184"><ele>430.25</ele><time>2026-04-04T07:05:12Z</time></trkpt><trkpt lat="14.02475793285052" lon="120.84477314717174"><ele>430.0</ele><time>2026-04-04T07:05:13Z</time></trkpt><trkpt lat="14.024783255707224" lon="120.84489189435307"><ele>430.0</ele><time>2026-04-04T07:05:14Z</time></trkpt><trkpt lat="14.024818862374289" lon="120.8450072974735"><ele>430.0</ele><time>2026-04-04T07:05:15Z</time></trkpt><trkpt lat="14.024841623270545" lon="120.8451266010508"><ele>430.0</ele><time>2026-04-04T07:05:16Z</time></trkpt><trkpt lat="14.024875685402678" lon="120.84524714766117"><ele>430.0</ele><time>2026-04-04T07:05:17Z</time></trkpt><trkpt lat="14.02492195310426" lon="120.84535615782032"><ele>437.2</ele><time>2026-04-04T07:05:18Z</time></trkpt><trkpt lat="14.024994263713939" lon="120.84545828973745"><ele>444.4</ele><time>2026-04-04T07:05:19Z</time></trkpt><trkpt lat="14.025062030188256" lon="120.84554577990271"><ele>451.6</ele><time>2026-04-04T07:05:20Z</time></trkpt><trkpt lat="14.025119918962744" lon="120.84563668783748"><ele>458.8</ele><time>2026-04-04T07:05:21Z</time></trkpt><trkpt lat="14.025153024299073" lon="120.84573321401281"><ele>466.0</ele><time>2026-04-04T07:05:22.001Z</time></trkpt><trkpt lat="14.02520505193508" lon="120.84581876546402"><ele>466.00000000000006</ele><time>2026-04-04T07:05:23.001Z</time></trkpt><trkpt lat="14.02525594582345" lon="120.84589308859252"><ele>466.0</ele><time>2026-04-04T07:05:24.001Z</time></trkpt><trkpt lat="14.025317045235242" lon="120.84595781995135"><ele>466.0</ele><time>2026-04-04T07:05:25.001Z</time></trkpt><trkpt lat="14.025353125975782" lon="120.8460390225413"><ele>466.0</ele><time>2026-04-04T07:05:26.001Z</time></trkpt><trkpt lat="14.02538956809082" lon="120.84611995622014"><ele>466.00000000000006</ele><time>2026-04-04T07:05:27.001Z</time></trkpt><trkpt lat="14.025428540582558" lon="120.84619694939047"><ele>466.0</ele><time>2026-04-04T07:05:28.001Z</time></trkpt><trkpt lat="14.025483353388976" lon="120.84626761705215"><ele>468.4</ele><time>2026-04-04T07:05:29.001Z</time></trkpt><trkpt lat="14.025546015241058" lon="120.84633073064008"><ele>470.8</ele><time>2026-04-04T07:05:30.001Z</time></trkpt><trkpt lat="14.025623895980612" lon="120.84639626651894"><ele>473.19999999999993</ele><time>2026-04-04T07:05:31.001Z</time></trkpt><trkpt lat="14.025701773596216" lon="120.84645788314353"><ele>475.59999999999997</ele><time>2026-04-04T07:05:32.001Z</time></trkpt><trkpt lat="14.025780971893441" lon="120.84652182232172"><ele>478.0</ele><time>2026-04-04T07:05:33.001Z</time></trkpt><trkpt lat="14.025851352696733" lon="120.84658330591523"><ele>478.00000000000006</ele><time>2026-04-04T07:05:34.001Z</time></trkpt><trkpt lat="14.025914875403897" lon="120.84663036183107"><ele>478.0</ele><time>2026-04-04T07:05:35.001Z</time></trkpt><trkpt lat="14.025978740773429" lon="120.84667099240471"><ele>478.00000000000006</ele><time>2026-04-04T07:05:36.001Z</time></trkpt><trkpt lat="14.026036107550864" lon="120.84670703177353"><ele>478.00000000000006</ele><time>2026-04-04T07:05:37.001Z</time></trkpt><trkpt lat="14.026100684102776" lon="120.84674597122658"><ele>478.0</ele><time>2026-04-04T07:05:38.001Z</time></trkpt><trkpt lat="14.026162289777673" lon="120.84678554895"><ele>478.00000000000006</ele><time>2026-04-04T07:05:39.001Z</time></trkpt><trkpt lat="14.026220031104678" lon="120.84682722507766"><ele>478.00000000000006</ele><time>2026-04-04T07:05:40.001Z</time></trkpt><trkpt lat="14.026280480002052" lon="120.84686850061684"><ele>477.83333333333337</ele><time>2026-04-04T07:05:41.001Z</time></trkpt><trkpt lat="14.026340445951751" lon="120.84690899494626"><ele>477.6666666666667</ele><time>2026-04-04T07:05:42.001Z</time></trkpt><trkpt lat="14.026400997735019" lon="120.84695214335159"><ele>477.5</ele><time>2026-04-04T07:05:43.001Z</time></trkpt><trkpt lat="14.026467089776371" lon="120.84699939975944"><ele>477.33333333333337</ele><time>2026-04-04T07:05:44.001Z</time></trkpt><trkpt lat="14.02654103857965" lon="120.84703548466348"><ele>477.1666666666667</ele><time>2026-04-04T07:05:45.001Z</time></trkpt><trkpt lat="14.026622816008874" lon="120.8470799288677"><ele>477.0</ele><time>2026-04-04T07:05:46.001Z</time></trkpt><trkpt lat="14.02670836072476" lon="120.84713277092834"><ele>477.0</ele><time>2026-04-04T07:05:47.001Z</time></trkpt><trkpt lat="14.026788387691338" lon="120.84718190740567"><ele>477.0</ele><time>2026-04-04T07:05:48.001Z</time></trkpt><trkpt lat="14.02685810664248" lon="120.84721504627635"><ele>477.0</ele><time>2026-04-04T07:05:49.001Z</time></trkpt><trkpt lat="14.026933844763768" lon="120.84724356296601"><ele>477.0</ele><time>2026-04-04T07:05:50.001Z</time></trkpt><trkpt lat="14.027022035556959" lon="120.8472575003694"><ele>477.0</ele><time>2026-04-04T07:05:51.001Z</time></trkpt><trkpt lat="14.02711846527104" lon="120.84725325422109"><ele>477.0</ele><time>2026-04-04T07:05:52.001Z</time></trkpt><trkpt lat="14.027221753486995" lon="120.84723578026171"><ele>477.0</ele><time>2026-04-04T07:05:53.001Z</time></trkpt><trkpt lat="14.027332441389536" lon="120.84721885658819"><ele>477.00000000000006</ele><time>2026-04-04T07:05:54.001Z</time></trkpt><trkpt lat="14.027441482752772" lon="120.84721312242165"><ele>477.00000000000006</ele><time>2026-04-04T07:05:55.001Z</time></trkpt><trkpt lat="14.027555884262012" lon="120.84721369167957"><ele>477.0</ele><time>2026-04-04T07:05:56.001Z</time></trkpt><trkpt lat="14.027648524536657" lon="120.84722177838613"><ele>477.0</ele><time>2026-04-04T07:05:57.001Z</time></trkpt><trkpt lat="14.027742299099643" lon="120.84724455173063"><ele>477.6</ele><time>2026-04-04T07:05:58.001Z</time></trkpt><trkpt lat="14.02782200840295" lon="120.84727988932079"><ele>478.20000000000005</ele><time>2026-04-04T07:05:59.001Z</time></trkpt><trkpt lat="14.027903380513974" lon="120.84732961424815"><ele>478.8</ele><time>2026-04-04T07:06:00.001Z</time></trkpt><trkpt lat="14.027979266878036" lon="120.8473923613243"><ele>479.4</ele><time>2026-04-04T07:06:01Z</time></trkpt><trkpt lat="14.0280468056224" lon="120.84746976744574"><ele>480.0</ele><time>2026-04-04T07:06:02Z</time></trkpt><trkpt lat="14.02811619238991" lon="120.84753941340601"><ele>480.0</ele><time>2026-04-04T07:06:03Z</time></trkpt><trkpt lat="14.0281907505963" lon="120.84762264266121"><ele>480.0</ele><time>2026-04-04T07:06:04Z</time></trkpt><trkpt lat="14.028262428193354" lon="120.8477131450591"><ele>480.0</ele><time>2026-04-04T07:06:05Z</time></trkpt><trkpt lat="14.028310354699203" lon="120.8478171810937"><ele>480.0</ele><time>2026-04-04T07:06:06Z</time></trkpt><trkpt lat="14.028383140423433" lon="120.84791512191988"><ele>480.25</ele><time>2026-04-04T07:06:07Z</time></trkpt><trkpt lat="14.028432733716611" lon="120.84802826028817"><ele>480.5</ele><time>2026-04-04T07:06:08Z</time></trkpt><trkpt lat="14.028477105581425" lon="120.84814631796912"><ele>480.75</ele><time>2026-04-04T07:06:09Z</time></trkpt><trkpt lat="14.028521720072494" lon="120.84826354941478"><ele>481.0</ele><time>2026-04-04T07:06:10Z</time></trkpt><trkpt lat="14.028564174161449" lon="120.84837501578873"><ele>478.0</ele><time>2026-04-04T07:06:11Z</time></trkpt><trkpt lat="14.028607074392744" lon="120.84848252608327"><ele>475.0</ele><time>2026-04-04T07:06:12Z</time></trkpt><trkpt lat="14.028652000914185" lon="120.84857580417216"><ele>472.0</ele><time>2026-04-04T07:06:13Z</time></trkpt><trkpt lat="14.028717631932533" lon="120.84866054476257"><ele>469.0</ele><time>2026-04-04T07:06:14Z</time></trkpt><trkpt lat="14.028797097153829" lon="120.84874443604943"><ele>466.0</ele><time>2026-04-04T07:06:15Z</time></trkpt><trkpt lat="14.028889656978105" lon="120.84882404865704"><ele>466.0</ele><time>2026-04-04T07:06:16Z</time></trkpt><trkpt lat="14.02898531035418" lon="120.84890977832094"><ele>466.0</ele><time>2026-04-04T07:06:17Z</time></trkpt><trkpt lat="14.029069533816337" lon="120.84900790588365"><ele>466.0</ele><time>2026-04-04T07:06:18Z</time></trkpt><trkpt lat="14.029151036494728" lon="120.84911235062044"><ele>466.0</ele><time>2026-04-04T07:06:19Z</time></trkpt><trkpt lat="14.029240869771884" lon="120.84920937633547"><ele>464.25</ele><time>2026-04-04T07:06:20Z</time></trkpt><trkpt lat="14.029340735240254" lon="120.8492857974381"><ele>462.5</ele><time>2026-04-04T07:06:21Z</time></trkpt><trkpt lat="14.029459364709883" lon="120.8493489950803"><ele>460.75</ele><time>2026-04-04T07:06:22Z</time></trkpt><trkpt lat="14.029583997926665" lon="120.84940019608172"><ele>459.0</ele><time>2026-04-04T07:06:23Z</time></trkpt><trkpt lat="14.02970704239652" lon="120.84944430719504"><ele>459.0</ele><time>2026-04-04T07:06:24Z</time></trkpt><trkpt lat="14.029829196512129" lon="120.84950794775138"><ele>459.0</ele><time>2026-04-04T07:06:25Z</time></trkpt><trkpt lat="14.029956406623441" lon="120.84957346100218"><ele>459.0</ele><time>2026-04-04T07:06:26Z</time></trkpt><trkpt lat="14.03008466048815" lon="120.84962354398111"><ele>459.0</ele><time>2026-04-04T07:06:27Z</time></trkpt><trkpt lat="14.030199968668763" lon="120.8496860545044"><ele>463.25</ele><time>2026-04-04T07:06:28Z</time></trkpt><trkpt lat="14.030309448442832" lon="120.84974438954713"><ele>467.5</ele><time>2026-04-04T07:06:29Z</time></trkpt><trkpt lat="14.030394242444956" lon="120.84982622219513"><ele>471.75</ele><time>2026-04-04T07:06:30Z</time></trkpt><trkpt lat="14.030488345159602" lon="120.849907640761"><ele>476.0</ele><time>2026-04-04T07:06:31Z</time></trkpt><trkpt lat="14.03059007317578" lon="120.84998719793153"><ele>476.0</ele><time>2026-04-04T07:06:32Z</time></trkpt><trkpt lat="14.030694326180686" lon="120.8500652540803"><ele>476.0</ele><time>2026-04-04T07:06:33Z</time></trkpt><trkpt lat="14.030797337453928" lon="120.85012680830604"><ele>476.0</ele><time>2026-04-04T07:06:34Z</time></trkpt><trkpt lat="14.030876249352696" lon="120.85020790406735"><ele>476.0</ele><time>2026-04-04T07:06:35Z</time></trkpt><trkpt lat="14.030953645402407" lon="120.85027781241844"><ele>475.4</ele><time>2026-04-04T07:06:36Z</time></trkpt><trkpt lat="14.03103359540124" lon="120.85033826551026"><ele>474.8</ele><time>2026-04-04T07:06:37Z</time></trkpt><trkpt lat="14.031123476838026" lon="120.85039000023114"><ele>474.19999999999993</ele><time>2026-04-04T07:06:38Z</time></trkpt><trkpt lat="14.031219501435254" lon="120.85043347995855"><ele>473.59999999999997</ele><time>2026-04-04T07:06:39Z</time></trkpt><trkpt lat="14.031329181135003" lon="120.85046702275996"><ele>473.0</ele><time>2026-04-04T07:06:40Z</time></trkpt><trkpt lat="14.031438892846808" lon="120.8505121865851"><ele>473.0</ele><time>2026-04-04T07:06:41Z</time></trkpt><trkpt lat="14.03153778749124" lon="120.85057769831752"><ele>473.0</ele><time>2026-04-04T07:06:42Z</time></trkpt><trkpt lat="14.031641283716752" lon="120.85064398348291"><ele>473.0</ele><time>2026-04-04T07:06:43Z</time></trkpt><trkpt lat="14.03174275229474" lon="120.85070975815476"><ele>473.0</ele><time>2026-04-04T07:06:44Z</time></trkpt><trkpt lat="14.031838545667625" lon="120.85078623597204"><ele>472.0</ele><time>2026-04-04T07:06:45Z</time></trkpt><trkpt lat="14.031930092151255" lon="120.85086860458824"><ele>471.0</ele><time>2026-04-04T07:06:46Z</time></trkpt><trkpt lat="14.032005801363924" lon="120.8509755437421"><ele>470.0</ele><time>2026-04-04T07:06:47Z</time></trkpt><trkpt lat="14.032086244028326" lon="120.85107986234773"><ele>469.0</ele><time>2026-04-04T07:06:48Z</time></trkpt><trkpt lat="14.032174334491053" lon="120.85117435203567"><ele>469.0</ele><time>2026-04-04T07:06:49Z</time></trkpt><trkpt lat="14.03224848544149" lon="120.85128151637322"><ele>469.0</ele><time>2026-04-04T07:06:50Z</time></trkpt><trkpt lat="14.03232444166163" lon="120.85137941752387"><ele>469.0</ele><time>2026-04-04T07:06:51Z</time></trkpt><trkpt lat="14.032406810211343" lon="120.85147164385262"><ele>469.0</ele><time>2026-04-04T07:06:52Z</time></trkpt><trkpt lat="14.032500285917354" lon="120.85155969034534"><ele>473.0</ele><time>2026-04-04T07:06:53Z</time></trkpt><trkpt lat="14.032601699732574" lon="120.85164622339444"><ele>477.0</ele><time>2026-04-04T07:06:54Z</time></trkpt><trkpt lat="14.032692409381733" lon="120.85171969745177"><ele>481.0</ele><time>2026-04-04T07:06:55Z</time></trkpt><trkpt lat="14.032788788218713" lon="120.85178620212002"><ele>485.0</ele><time>2026-04-04T07:06:56Z</time></trkpt><trkpt lat="14.032891625041817" lon="120.85184502693463"><ele>485.0</ele><time>2026-04-04T07:06:57Z</time></trkpt><trkpt lat="14.032994038694355" lon="120.85189825670787"><ele>485.0</ele><time>2026-04-04T07:06:58Z</time></trkpt><trkpt lat="14.03311209479093" lon="120.85195575047153"><ele>485.0</ele><time>2026-04-04T07:06:59Z</time></trkpt><trkpt lat="14.033223987387318" lon="120.85202385634308"><ele>485.0</ele><time>2026-04-04T07:07:00Z</time></trkpt><trkpt lat="14.033331672526876" lon="120.8521022648721"><ele>488.5</ele><time>2026-04-04T07:07:01Z</time></trkpt><trkpt lat="14.033417809733814" lon="120.85221413941787"><ele>492.0</ele><time>2026-04-04T07:07:02Z</time></trkpt><trkpt lat="14.033518586952274" lon="120.85231589956665"><ele>495.5</ele><time>2026-04-04T07:07:03Z</time></trkpt><trkpt lat="14.033610985658637" lon="120.85242294416696"><ele>499.0</ele><time>2026-04-04T07:07:04Z</time></trkpt><trkpt lat="14.033715889008333" lon="120.85252093293501"><ele>496.75</ele><time>2026-04-04T07:07:05Z</time></trkpt><trkpt lat="14.033796211422422" lon="120.8526408175822"><ele>494.5</ele><time>2026-04-04T07:07:06Z</time></trkpt><trkpt lat="14.033887023656208" lon="120.8527442718053"><ele>492.25</ele><time>2026-04-04T07:07:07Z</time></trkpt><trkpt lat="14.033975645907521" lon="120.85284614962737"><ele>490.0</ele><time>2026-04-04T07:07:08Z</time></trkpt><trkpt lat="14.0340623473793" lon="120.85294471181663"><ele>495.0</ele><time>2026-04-04T07:07:09Z</time></trkpt><trkpt lat="14.034149775095438" lon="120.85304773769415"><ele>500.0</ele><time>2026-04-04T07:07:10Z</time></trkpt><trkpt lat="14.034235930647236" lon="120.85315014431927"><ele>505.0</ele><time>2026-04-04T07:07:11Z</time></trkpt><trkpt lat="14.034331764302019" lon="120.85324650945654"><ele>510.0</ele><time>2026-04-04T07:07:12Z</time></trkpt><trkpt lat="14.034411251396703" lon="120.85335243546079"><ele>510.0</ele><time>2026-04-04T07:07:13Z</time></trkpt><trkpt lat="14.034508035153179" lon="120.8534493693774"><ele>510.0</ele><time>2026-04-04T07:07:14Z</time></trkpt><trkpt lat="14.034612778939737" lon="120.85353628839103"><ele>510.0</ele><time>2026-04-04T07:07:15Z</time></trkpt><trkpt lat="14.034722131913627" lon="120.85361178343241"><ele>510.0</ele><time>2026-04-04T07:07:16Z</time></trkpt><trkpt lat="14.034838893809352" lon="120.8536860753832"><ele>511.25</ele><time>2026-04-04T07:07:17Z</time></trkpt><trkpt lat="14.0349612436744" lon="120.85375866359776"><ele>512.5</ele><time>2026-04-04T07:07:18Z</time></trkpt><trkpt lat="14.035088715176876" lon="120.85382595606"><ele>513.75</ele><time>2026-04-04T07:07:19Z</time></trkpt><trkpt lat="14.035201884145975" lon="120.85389085677251"><ele>515.0</ele><time>2026-04-04T07:07:20Z</time></trkpt><trkpt lat="14.035296473208307" lon="120.85395700343923"><ele>515.0</ele><time>2026-04-04T07:07:21Z</time></trkpt><trkpt lat="14.035363702011663" lon="120.85405145520694"><ele>515.0</ele><time>2026-04-04T07:07:22Z</time></trkpt><trkpt lat="14.035442067309992" lon="120.85413968882602"><ele>515.0</ele><time>2026-04-04T07:07:23Z</time></trkpt><trkpt lat="14.035520798937098" lon="120.854231925399"><ele>515.0</ele><time>2026-04-04T07:07:24Z</time></trkpt><trkpt lat="14.035599297145088" lon="120.85432321651442"><ele>512.75</ele><time>2026-04-04T07:07:25Z</time></trkpt><trkpt lat="14.035677257358582" lon="120.8544141964725"><ele>510.5</ele><time>2026-04-04T07:07:26Z</time></trkpt><trkpt lat="14.035755877516921" lon="120.85450636525026"><ele>508.25</ele><time>2026-04-04T07:07:27Z</time></trkpt><trkpt lat="14.03584880819323" lon="120.8545801439969"><ele>506.0</ele><time>2026-04-04T07:07:28Z</time></trkpt><trkpt lat="14.035924595632972" lon="120.85465613929605"><ele>510.8</ele><time>2026-04-04T07:07:29Z</time></trkpt><trkpt lat="14.03600318929707" lon="120.85473635397649"><ele>515.6</ele><time>2026-04-04T07:07:30Z</time></trkpt><trkpt lat="14.036082725219048" lon="120.85480855745533"><ele>520.4</ele><time>2026-04-04T07:07:31Z</time></trkpt><trkpt lat="14.036162529547127" lon="120.85487787815785"><ele>525.2</ele><time>2026-04-04T07:07:32.001Z</time></trkpt><trkpt lat="14.036245564415282" lon="120.85494290535837"><ele>530.0</ele><time>2026-04-04T07:07:33.001Z</time></trkpt><trkpt lat="14.036330353511191" lon="120.85501162193533"><ele>530.0</ele><time>2026-04-04T07:07:34.001Z</time></trkpt><trkpt lat="14.036410955665323" lon="120.85506541659225"><ele>530.0</ele><time>2026-04-04T07:07:35.001Z</time></trkpt><trkpt lat="14.036484955168172" lon="120.85514247407455"><ele>530.0</ele><time>2026-04-04T07:07:36.001Z</time></trkpt><trkpt lat="14.03655861414865" lon="120.85521199100887"><ele>530.0</ele><time>2026-04-04T07:07:37.001Z</time></trkpt><trkpt lat="14.036636245029605" lon="120.8552898247829"><ele>530.0</ele><time>2026-04-04T07:07:38.001Z</time></trkpt><trkpt lat="14.03670470389371" lon="120.85535846262972"><ele>532.6</ele><time>2026-04-04T07:07:39.001Z</time></trkpt><trkpt lat="14.03675656811861" lon="120.85544174653874"><ele>535.2</ele><time>2026-04-04T07:07:40.001Z</time></trkpt><trkpt lat="14.036817520899538" lon="120.85553417055426"><ele>537.8</ele><time>2026-04-04T07:07:41.001Z</time></trkpt><trkpt lat="14.036877650850439" lon="120.85562534688862"><ele>540.4</ele><time>2026-04-04T07:07:42.001Z</time></trkpt><trkpt lat="14.036940983873773" lon="120.85572138012283"><ele>543.0</ele><time>2026-04-04T07:07:43.001Z</time></trkpt><trkpt lat="14.037002075170797" lon="120.8558139464814"><ele>543.0</ele><time>2026-04-04T07:07:44.001Z</time></trkpt><trkpt lat="14.037069845094308" lon="120.85588767159355"><ele>543.0</ele><time>2026-04-04T07:07:45.001Z</time></trkpt><trkpt lat="14.037113741519045" lon="120.85595796969191"><ele>543.0</ele><time>2026-04-04T07:07:46.001Z</time></trkpt><trkpt lat="14.037168575727176" lon="120.8560364531598"><ele>543.0</ele><time>2026-04-04T07:07:47.001Z</time></trkpt><trkpt lat="14.037240008526865" lon="120.85610919147766"><ele>543.0</ele><time>2026-04-04T07:07:48.001Z</time></trkpt><trkpt lat="14.03731521715991" lon="120.85617440834416"><ele>545.0</ele><time>2026-04-04T07:07:49.001Z</time></trkpt><trkpt lat="14.03739964898751" lon="120.85624250670082"><ele>547.0</ele><time>2026-04-04T07:07:50.001Z</time></trkpt><trkpt lat="14.037466594661932" lon="120.85632201496246"><ele>549.0</ele><time>2026-04-04T07:07:51.001Z</time></trkpt><trkpt lat="14.037540927929452" lon="120.85638583222597"><ele>551.0</ele><time>2026-04-04T07:07:52.001Z</time></trkpt><trkpt lat="14.037605489416519" lon="120.8564414575212"><ele>553.0</ele><time>2026-04-04T07:07:53.001Z</time></trkpt><trkpt lat="14.037647979796938" lon="120.85650011289762"><ele>553.0</ele><time>2026-04-04T07:07:54.001Z</time></trkpt><trkpt lat="14.03768312434019" lon="120.85655657056704"><ele>553.0</ele><time>2026-04-04T07:07:55.001Z</time></trkpt><trkpt lat="14.037718479846536" lon="120.85666464235041"><ele>553.0</ele><time>2026-04-04T07:07:57.001Z</time></trkpt><trkpt lat="14.037711815710558" lon="120.85677720430812"><ele>553.0</ele><time>2026-04-04T07:07:59.001Z</time></trkpt><trkpt lat="14.037720508878412" lon="120.85690198938777"><ele>553.0</ele><time>2026-04-04T07:08:01.001Z</time></trkpt><trkpt lat="14.037734880797998" lon="120.85700022117365"><ele>550.1999999999999</ele><time>2026-04-04T07:08:03.001Z</time></trkpt><trkpt lat="14.037732893474367" lon="120.85707498165448"><ele>547.4</ele><time>2026-04-04T07:08:05.001Z</time></trkpt><trkpt lat="14.037718080500888" lon="120.85714101735041"><ele>544.5999999999999</ele><time>2026-04-04T07:08:14Z</time></trkpt><trkpt lat="14.037944384546119" lon="120.85712148170246"><ele>541.8</ele><time>2026-04-04T07:08:28Z</time></trkpt><trkpt lat="14.038010475919537" lon="120.85706877654896"><ele>539.0</ele><time>2026-04-04T07:08:30Z</time></trkpt><trkpt lat="14.038102941604091" lon="120.8570191213282"><ele>539.0</ele><time>2026-04-04T07:08:32Z</time></trkpt><trkpt lat="14.038164825119384" lon="120.85700287369366"><ele>539.0</ele><time>2026-04-04T07:08:33Z</time></trkpt><trkpt lat="14.038231793902936" lon="120.85699670150247"><ele>539.0</ele><time>2026-04-04T07:08:34Z</time></trkpt><trkpt lat="14.038302839915954" lon="120.85699599174859"><ele>539.0</ele><time>2026-04-04T07:08:35Z</time></trkpt><trkpt lat="14.03837376659159" lon="120.85699044549185"><ele>539.0</ele><time>2026-04-04T07:08:36Z</time></trkpt><trkpt lat="14.038449804277677" lon="120.85697710934907"><ele>539.0</ele><time>2026-04-04T07:08:37Z</time></trkpt><trkpt lat="14.03851367270681" lon="120.85694908088645"><ele>539.0</ele><time>2026-04-04T07:08:38Z</time></trkpt><trkpt lat="14.038582108031754" lon="120.85689873687194"><ele>537.1666666666666</ele><time>2026-04-04T07:08:39Z</time></trkpt><trkpt lat="14.038634827251677" lon="120.85683627732178"><ele>535.3333333333333</ele><time>2026-04-04T07:08:40Z</time></trkpt><trkpt lat="14.03868424209742" lon="120.85677413608647"><ele>533.5</ele><time>2026-04-04T07:08:41Z</time></trkpt><trkpt lat="14.038777889447791" lon="120.85669181197044"><ele>531.6666666666666</ele><time>2026-04-04T07:08:43Z</time></trkpt><trkpt lat="14.038840588461104" lon="120.85666329323394"><ele>529.8333333333334</ele><time>2026-04-04T07:08:44Z</time></trkpt><trkpt lat="14.038909673204573" lon="120.85664185697358"><ele>528.0</ele><time>2026-04-04T07:08:45Z</time></trkpt><trkpt lat="14.038981223839922" lon="120.85662680786807"><ele>531.6</ele><time>2026-04-04T07:08:46Z</time></trkpt><trkpt lat="14.03906182667563" lon="120.85661508954011"><ele>535.1999999999999</ele><time>2026-04-04T07:08:47Z</time></trkpt><trkpt lat="14.039144842839466" lon="120.85661656249933"><ele>538.8</ele><time>2026-04-04T07:08:48Z</time></trkpt><trkpt lat="14.03923661768809" lon="120.85662535718973"><ele>542.4</ele><time>2026-04-04T07:08:49Z</time></trkpt><trkpt lat="14.039333652170523" lon="120.85664408547693"><ele>546.0</ele><time>2026-04-04T07:08:50Z</time></trkpt><trkpt lat="14.039434232858031" lon="120.85667729719984"><ele>546.0</ele><time>2026-04-04T07:08:51Z</time></trkpt><trkpt lat="14.0395318416591" lon="120.85672094699837"><ele>546.0</ele><time>2026-04-04T07:08:52Z</time></trkpt><trkpt lat="14.039632861884956" lon="120.85676387776975"><ele>546.0</ele><time>2026-04-04T07:08:53Z</time></trkpt><trkpt lat="14.039736635967213" lon="120.85680158965185"><ele>546.0</ele><time>2026-04-04T07:08:54Z</time></trkpt><trkpt lat="14.039844895294896" lon="120.85683378797701"><ele>546.0</ele><time>2026-04-04T07:08:55Z</time></trkpt><trkpt lat="14.039957603529265" lon="120.85684780778989"><ele>542.75</ele><time>2026-04-04T07:08:56Z</time></trkpt><trkpt lat="14.04007371342685" lon="120.85684943111426"><ele>539.5</ele><time>2026-04-04T07:08:57Z</time></trkpt><trkpt lat="14.040196833861867" lon="120.85684680202087"><ele>536.25</ele><time>2026-04-04T07:08:58Z</time></trkpt><trkpt lat="14.0403149131717" lon="120.85684625163763"><ele>533.0</ele><time>2026-04-04T07:08:59Z</time></trkpt><trkpt lat="14.040435850894923" lon="120.8568476569759"><ele>533.0</ele><time>2026-04-04T07:09:00Z</time></trkpt><trkpt lat="14.04055495725844" lon="120.85684592887988"><ele>533.0</ele><time>2026-04-04T07:09:01Z</time></trkpt><trkpt lat="14.040677642578572" lon="120.85683577099151"><ele>533.0</ele><time>2026-04-04T07:09:02Z</time></trkpt><trkpt lat="14.040797679439327" lon="120.85680986610161"><ele>533.0</ele><time>2026-04-04T07:09:03Z</time></trkpt><trkpt lat="14.040925818618176" lon="120.85679467029524"><ele>535.75</ele><time>2026-04-04T07:09:04Z</time></trkpt><trkpt lat="14.04105419861143" lon="120.85679819563167"><ele>538.5</ele><time>2026-04-04T07:09:05Z</time></trkpt><trkpt lat="14.041181374738219" lon="120.85682004284315"><ele>541.25</ele><time>2026-04-04T07:09:06Z</time></trkpt><trkpt lat="14.04131375959551" lon="120.85684659721556"><ele>544.0</ele><time>2026-04-04T07:09:07Z</time></trkpt><trkpt lat="14.041440035484209" lon="120.8568733645068"><ele>544.0</ele><time>2026-04-04T07:09:08Z</time></trkpt><trkpt lat="14.041561296275566" lon="120.85689078037315"><ele>544.0</ele><time>2026-04-04T07:09:09Z</time></trkpt><trkpt lat="14.041684336637868" lon="120.85688484871515"><ele>544.0</ele><time>2026-04-04T07:09:10Z</time></trkpt><trkpt lat="14.041810293367007" lon="120.8568439904272"><ele>544.0</ele><time>2026-04-04T07:09:11Z</time></trkpt><trkpt lat="14.0419369336492" lon="120.85679855588224"><ele>546.75</ele><time>2026-04-04T07:09:12Z</time></trkpt><trkpt lat="14.042061475944921" lon="120.85675216106908"><ele>549.5</ele><time>2026-04-04T07:09:13Z</time></trkpt><trkpt lat="14.04219176569643" lon="120.85669797570273"><ele>552.25</ele><time>2026-04-04T07:09:14Z</time></trkpt><trkpt lat="14.04232422732199" lon="120.85664106913632"><ele>555.0</ele><time>2026-04-04T07:09:15Z</time></trkpt><trkpt lat="14.042462805030453" lon="120.85657996533585"><ele>552.0</ele><time>2026-04-04T07:09:16Z</time></trkpt><trkpt lat="14.042608629899934" lon="120.85652061311298"><ele>549.0</ele><time>2026-04-04T07:09:17Z</time></trkpt><trkpt lat="14.042756496302214" lon="120.8564636915434"><ele>546.0</ele><time>2026-04-04T07:09:18Z</time></trkpt><trkpt lat="14.042899520725895" lon="120.85640437301922"><ele>546.0</ele><time>2026-04-04T07:09:19Z</time></trkpt><trkpt lat="14.043045175125398" lon="120.85634235531951"><ele>546.0</ele><time>2026-04-04T07:09:20Z</time></trkpt><trkpt lat="14.043187406095651" lon="120.8562869781408"><ele>546.0</ele><time>2026-04-04T07:09:21Z</time></trkpt><trkpt lat="14.043325660699075" lon="120.85623530141578"><ele>543.5</ele><time>2026-04-04T07:09:22Z</time></trkpt><trkpt lat="14.043457178961006" lon="120.85619291893791"><ele>541.0</ele><time>2026-04-04T07:09:23Z</time></trkpt><trkpt lat="14.043585256738547" lon="120.85616106000974"><ele>538.5</ele><time>2026-04-04T07:09:24Z</time></trkpt><trkpt lat="14.0437140621729" lon="120.85615075764892"><ele>536.0</ele><time>2026-04-04T07:09:25Z</time></trkpt><trkpt lat="14.04384197379915" lon="120.856163310882"><ele>536.0</ele><time>2026-04-04T07:09:26Z</time></trkpt><trkpt lat="14.043954422293755" lon="120.85618804024698"><ele>536.0</ele><time>2026-04-04T07:09:27Z</time></trkpt><trkpt lat="14.044055392964385" lon="120.85622970706721"><ele>536.0</ele><time>2026-04-04T07:09:28Z</time></trkpt><trkpt lat="14.044150566201331" lon="120.85628825553032"><ele>536.0</ele><time>2026-04-04T07:09:29Z</time></trkpt><trkpt lat="14.04424925603007" lon="120.85634030121929"><ele>536.0</ele><time>2026-04-04T07:09:30Z</time></trkpt><trkpt lat="14.044365139691262" lon="120.85636487643305"><ele>537.2</ele><time>2026-04-04T07:09:31Z</time></trkpt><trkpt lat="14.044479064748048" lon="120.85635676655872"><ele>538.4000000000001</ele><time>2026-04-04T07:09:32Z</time></trkpt><trkpt lat="14.044575581417861" lon="120.85633967391108"><ele>539.6</ele><time>2026-04-04T07:09:33Z</time></trkpt><trkpt lat="14.044658099583756" lon="120.85633106466811"><ele>540.8000000000001</ele><time>2026-04-04T07:09:34Z</time></trkpt><trkpt lat="14.044729921256584" lon="120.8563283132968"><ele>542.0</ele><time>2026-04-04T07:09:35Z</time></trkpt><trkpt lat="14.044833340389234" lon="120.85627320436393"><ele>542.0</ele><time>2026-04-04T07:09:37Z</time></trkpt><trkpt lat="14.044872603054975" lon="120.85621995156951"><ele>542.0</ele><time>2026-04-04T07:09:38Z</time></trkpt><trkpt lat="14.044912029576732" lon="120.85616711898496"><ele>542.0</ele><time>2026-04-04T07:09:39Z</time></trkpt><trkpt lat="14.044957824501855" lon="120.85610477504477"><ele>542.0</ele><time>2026-04-04T07:09:40Z</time></trkpt><trkpt lat="14.045014313910265" lon="120.85604158673362"><ele>542.0</ele><time>2026-04-04T07:09:41.001Z</time></trkpt><trkpt lat="14.045078058837083" lon="120.85598414953574"><ele>542.0</ele><time>2026-04-04T07:09:42.001Z</time></trkpt><trkpt lat="14.045154826226552" lon="120.85592650524738"><ele>549.0</ele><time>2026-04-04T07:09:43.001Z</time></trkpt><trkpt lat="14.045231623276292" lon="120.85586301258837"><ele>556.0</ele><time>2026-04-04T07:09:44.001Z</time></trkpt><trkpt lat="14.04530848151" lon="120.85579694809664"><ele>563.0</ele><time>2026-04-04T07:09:45.001Z</time></trkpt><trkpt lat="14.04539129573437" lon="120.85573555068734"><ele>570.0</ele><time>2026-04-04T07:09:46.001Z</time></trkpt><trkpt lat="14.045476793205175" lon="120.8556833619043"><ele>577.0</ele><time>2026-04-04T07:09:47.001Z</time></trkpt><trkpt lat="14.0455613899592" lon="120.85563171209799"><ele>577.0</ele><time>2026-04-04T07:09:48.001Z</time></trkpt><trkpt lat="14.04564876476215" lon="120.85557474191832"><ele>577.0</ele><time>2026-04-04T07:09:49.001Z</time></trkpt><trkpt lat="14.045735012284434" lon="120.85551268933452"><ele>577.0</ele><time>2026-04-04T07:09:50.001Z</time></trkpt><trkpt lat="14.045814036009602" lon="120.85544079997759"><ele>577.0</ele><time>2026-04-04T07:09:51.001Z</time></trkpt><trkpt lat="14.045884874603477" lon="120.85535644032433"><ele>577.0</ele><time>2026-04-04T07:09:52.001Z</time></trkpt><trkpt lat="14.045958204411743" lon="120.8552705672397"><ele>578.5</ele><time>2026-04-04T07:09:53.001Z</time></trkpt><trkpt lat="14.046034516556983" lon="120.8551799264206"><ele>580.0</ele><time>2026-04-04T07:09:54.001Z</time></trkpt><trkpt lat="14.046114736837502" lon="120.85509765419144"><ele>581.5</ele><time>2026-04-04T07:09:55.001Z</time></trkpt><trkpt lat="14.046199831420726" lon="120.85501274508374"><ele>583.0</ele><time>2026-04-04T07:09:56.001Z</time></trkpt><trkpt lat="14.04627977734102" lon="120.85493006832823"><ele>583.0</ele><time>2026-04-04T07:09:57.001Z</time></trkpt><trkpt lat="14.046369307838022" lon="120.85484694668845"><ele>583.0</ele><time>2026-04-04T07:09:58.001Z</time></trkpt><trkpt lat="14.046462906612764" lon="120.85477866231487"><ele>583.0</ele><time>2026-04-04T07:09:59.001Z</time></trkpt><trkpt lat="14.046567234041648" lon="120.8547189599044"><ele>583.0</ele><time>2026-04-04T07:10:00.001Z</time></trkpt><trkpt lat="14.046674179008921" lon="120.85465384817907"><ele>577.5</ele><time>2026-04-04T07:10:01.001Z</time></trkpt><trkpt lat="14.04677121256858" lon="120.85457517913048"><ele>572.0</ele><time>2026-04-04T07:10:02.001Z</time></trkpt><trkpt lat="14.04685907604562" lon="120.85448941074976"><ele>566.5</ele><time>2026-04-04T07:10:03.001Z</time></trkpt><trkpt lat="14.046950187166402" lon="120.85440672728599"><ele>561.0</ele><time>2026-04-04T07:10:04.001Z</time></trkpt><trkpt lat="14.047055093777695" lon="120.85434335647109"><ele>561.0</ele><time>2026-04-04T07:10:05.001Z</time></trkpt><trkpt lat="14.047169816932627" lon="120.85429633336247"><ele>561.0</ele><time>2026-04-04T07:10:06.001Z</time></trkpt><trkpt lat="14.047285111691965" lon="120.85425269063201"><ele>561.0</ele><time>2026-04-04T07:10:07.001Z</time></trkpt><trkpt lat="14.047394039948601" lon="120.85420273585795"><ele>561.0</ele><time>2026-04-04T07:10:08.001Z</time></trkpt><trkpt lat="14.047499257760077" lon="120.85415134827869"><ele>563.8</ele><time>2026-04-04T07:10:09.001Z</time></trkpt><trkpt lat="14.04759988916209" lon="120.85410198420354"><ele>566.6</ele><time>2026-04-04T07:10:10.001Z</time></trkpt><trkpt lat="14.047691525882618" lon="120.85406236951567"><ele>569.4</ele><time>2026-04-04T07:10:11.001Z</time></trkpt><trkpt lat="14.047769124102107" lon="120.85403044864131"><ele>572.2</ele><time>2026-04-04T07:10:12.001Z</time></trkpt><trkpt lat="14.047831708975442" lon="120.85400303272452"><ele>575.0</ele><time>2026-04-04T07:10:13Z</time></trkpt><trkpt lat="14.047929783390083" lon="120.85395579035884"><ele>575.0</ele><time>2026-04-04T07:10:15Z</time></trkpt><trkpt lat="14.048007525553437" lon="120.85392384213684"><ele>575.0</ele><time>2026-04-04T07:10:18Z</time></trkpt><trkpt lat="14.048071129402862" lon="120.85390175096437"><ele>575.0</ele><time>2026-04-04T07:11:12Z</time></trkpt><trkpt lat="14.04813573128434" lon="120.85388207835337"><ele>575.0</ele><time>2026-04-04T07:11:46Z</time></trkpt><trkpt lat="14.0482076884723" lon="120.85386720322914"><ele>575.0</ele><time>2026-04-04T07:11:48Z</time></trkpt><trkpt lat="14.048307362980925" lon="120.8538546274723"><ele>575.0</ele><time>2026-04-04T07:11:50Z</time></trkpt><trkpt lat="14.04841879017501" lon="120.85383940647309"><ele>573.2</ele><time>2026-04-04T07:11:52Z</time></trkpt><trkpt lat="14.048530757739416" lon="120.85381837919802"><ele>571.4</ele><time>2026-04-04T07:11:54.001Z</time></trkpt><trkpt lat="14.048611217949416" lon="120.85380484288049"><ele>569.6</ele><time>2026-04-04T07:11:56.001Z</time></trkpt><trkpt lat="14.048684235635493" lon="120.85379991583845"><ele>567.8</ele><time>2026-04-04T07:11:58.001Z</time></trkpt><trkpt lat="14.04878737718507" lon="120.85377769464183"><ele>566.0</ele><time>2026-04-04T07:12:00.001Z</time></trkpt><trkpt lat="14.048889770916913" lon="120.85375216624601"><ele>566.0</ele><time>2026-04-04T07:12:02.001Z</time></trkpt><trkpt lat="14.049021897373857" lon="120.85372486097639"><ele>566.0</ele><time>2026-04-04T07:12:04.001Z</time></trkpt><trkpt lat="14.04910421536876" lon="120.85371694885926"><ele>566.0</ele><time>2026-04-04T07:12:05.001Z</time></trkpt><trkpt lat="14.049182075154864" lon="120.85370524107992"><ele>566.0</ele><time>2026-04-04T07:12:06.001Z</time></trkpt><trkpt lat="14.049256920198008" lon="120.85369793643278"><ele>566.0</ele><time>2026-04-04T07:12:07.001Z</time></trkpt><trkpt lat="14.049330355742988" lon="120.85369668561108"><ele>566.0</ele><time>2026-04-04T07:12:08.001Z</time></trkpt><trkpt lat="14.049397151434482" lon="120.8536869848121"><ele>566.0</ele><time>2026-04-04T07:12:09.001Z</time></trkpt><trkpt lat="14.049472063733742" lon="120.8536751549655"><ele>566.0</ele><time>2026-04-04T07:12:10.001Z</time></trkpt><trkpt lat="14.049543577732399" lon="120.853664928737"><ele>566.0</ele><time>2026-04-04T07:12:11.001Z</time></trkpt><trkpt lat="14.049617677985013" lon="120.85366311739261"><ele>566.0</ele><time>2026-04-04T07:12:12.001Z</time></trkpt><trkpt lat="14.049689114109254" lon="120.85365397278726"><ele>566.0</ele><time>2026-04-04T07:12:13.001Z</time></trkpt><trkpt lat="14.049765577299915" lon="120.85364381209907"><ele>566.0</ele><time>2026-04-04T07:12:14.001Z</time></trkpt><trkpt lat="14.04984638768072" lon="120.85363837594275"><ele>566.0</ele><time>2026-04-04T07:12:15.001Z</time></trkpt><trkpt lat="14.049922070045394" lon="120.85363014934545"><ele>566.0</ele><time>2026-04-04T07:12:16.001Z</time></trkpt><trkpt lat="14.049989796691051" lon="120.85362731462722"><ele>566.0</ele><time>2026-04-04T07:12:17.001Z</time></trkpt><trkpt lat="14.05013072475726" lon="120.8536243877288"><ele>566.0</ele><time>2026-04-04T07:12:19Z</time></trkpt><trkpt lat="14.05020803288932" lon="120.85363246473862"><ele>566.0</ele><time>2026-04-04T07:12:20Z</time></trkpt><trkpt lat="14.050292333240874" lon="120.85364207478425"><ele>566.0</ele><time>2026-04-04T07:12:21Z</time></trkpt><trkpt lat="14.050380873051477" lon="120.85365478023478"><ele>565.6</ele><time>2026-04-04T07:12:22Z</time></trkpt><trkpt lat="14.050471655835688" lon="120.8536663357235"><ele>565.2</ele><time>2026-04-04T07:12:23Z</time></trkpt><trkpt lat="14.050569818254157" lon="120.85367603568073"><ele>564.8</ele><time>2026-04-04T07:12:24Z</time></trkpt><trkpt lat="14.05067075555246" lon="120.85368826459616"><ele>564.4</ele><time>2026-04-04T07:12:25Z</time></trkpt><trkpt lat="14.050773144971046" lon="120.85370113856223"><ele>564.0</ele><time>2026-04-04T07:12:26Z</time></trkpt><trkpt lat="14.050874585460576" lon="120.85372315025472"><ele>564.8</ele><time>2026-04-04T07:12:27Z</time></trkpt><trkpt lat="14.050973164890774" lon="120.85375983536626"><ele>565.5999999999999</ele><time>2026-04-04T07:12:28Z</time></trkpt><trkpt lat="14.051069635103891" lon="120.85380748235089"><ele>566.4</ele><time>2026-04-04T07:12:29Z</time></trkpt><trkpt lat="14.051161293859591" lon="120.85385523207448"><ele>567.1999999999999</ele><time>2026-04-04T07:12:30Z</time></trkpt><trkpt lat="14.051246580454718" lon="120.85389582844455"><ele>568.0</ele><time>2026-04-04T07:12:31Z</time></trkpt><trkpt lat="14.051326382819635" lon="120.85393134656996"><ele>568.0</ele><time>2026-04-04T07:12:32Z</time></trkpt><trkpt lat="14.051410919403365" lon="120.85396389149086"><ele>568.0</ele><time>2026-04-04T07:12:33Z</time></trkpt><trkpt lat="14.05149300844802" lon="120.85398963971856"><ele>568.0</ele><time>2026-04-04T07:12:34Z</time></trkpt><trkpt lat="14.051576514332753" lon="120.8540028775778"><ele>568.0</ele><time>2026-04-04T07:12:35Z</time></trkpt><trkpt lat="14.051662294807258" lon="120.8540109004905"><ele>568.0</ele><time>2026-04-04T07:12:36Z</time></trkpt><trkpt lat="14.051743721907584" lon="120.85400666607676"><ele>568.0</ele><time>2026-04-04T07:12:37Z</time></trkpt><trkpt lat="14.05182475187267" lon="120.85398552203173"><ele>571.0</ele><time>2026-04-04T07:12:38Z</time></trkpt><trkpt lat="14.0518992830535" lon="120.85394638186082"><ele>574.0</ele><time>2026-04-04T07:12:39Z</time></trkpt><trkpt lat="14.05197450609272" lon="120.85389104268256"><ele>577.0</ele><time>2026-04-04T07:12:40Z</time></trkpt><trkpt lat="14.052044694078361" lon="120.85382714117267"><ele>580.0</ele><time>2026-04-04T07:12:41Z</time></trkpt><trkpt lat="14.05212105339216" lon="120.85375378074815"><ele>583.0</ele><time>2026-04-04T07:12:42Z</time></trkpt><trkpt lat="14.05219605820729" lon="120.85368432749904"><ele>583.0</ele><time>2026-04-04T07:12:43Z</time></trkpt><trkpt lat="14.052267512655579" lon="120.85362594004204"><ele>583.0</ele><time>2026-04-04T07:12:44Z</time></trkpt><trkpt lat="14.052341866814663" lon="120.8535735696307"><ele>583.0</ele><time>2026-04-04T07:12:45Z</time></trkpt><trkpt lat="14.052428760656746" lon="120.85352411092127"><ele>583.0</ele><time>2026-04-04T07:12:46Z</time></trkpt><trkpt lat="14.052522790120557" lon="120.85347985311166"><ele>583.0</ele><time>2026-04-04T07:12:47Z</time></trkpt><trkpt lat="14.052619486506233" lon="120.85343679441026"><ele>583.5</ele><time>2026-04-04T07:12:48Z</time></trkpt><trkpt lat="14.05272527656763" lon="120.85339865091628"><ele>584.0</ele><time>2026-04-04T07:12:49Z</time></trkpt><trkpt lat="14.05283508262305" lon="120.85336628316088"><ele>584.5</ele><time>2026-04-04T07:12:50Z</time></trkpt><trkpt lat="14.052942466591235" lon="120.85331504242383"><ele>585.0</ele><time>2026-04-04T07:12:51Z</time></trkpt><trkpt lat="14.053038129614029" lon="120.85325008767559"><ele>585.0</ele><time>2026-04-04T07:12:52Z</time></trkpt><trkpt lat="14.05312261929186" lon="120.85319122032092"><ele>585.0</ele><time>2026-04-04T07:12:53Z</time></trkpt><trkpt lat="14.053194090304935" lon="120.85314319786818"><ele>585.0</ele><time>2026-04-04T07:12:54Z</time></trkpt><trkpt lat="14.053259344506968" lon="120.85309815018861"><ele>585.0</ele><time>2026-04-04T07:12:55Z</time></trkpt><trkpt lat="14.053322092827356" lon="120.85304965732557"><ele>585.0</ele><time>2026-04-04T07:12:56Z</time></trkpt><trkpt lat="14.053387187453934" lon="120.85300332516842"><ele>585.0</ele><time>2026-04-04T07:12:57Z</time></trkpt><trkpt lat="14.053449246617916" lon="120.85296292735343"><ele>583.4</ele><time>2026-04-04T07:12:58Z</time></trkpt><trkpt lat="14.053509556120298" lon="120.85292246464377"><ele>581.8</ele><time>2026-04-04T07:12:59Z</time></trkpt><trkpt lat="14.053561711632321" lon="120.85288456492083"><ele>580.2</ele><time>2026-04-04T07:13:00Z</time></trkpt><trkpt lat="14.053665362583441" lon="120.85281534276284"><ele>578.6</ele><time>2026-04-04T07:13:02Z</time></trkpt><trkpt lat="14.053777127103231" lon="120.8527477966202"><ele>577.0</ele><time>2026-04-04T07:13:04Z</time></trkpt><trkpt lat="14.053833670388647" lon="120.85271896865946"><ele>577.0</ele><time>2026-04-04T07:13:05Z</time></trkpt><trkpt lat="14.053942345266437" lon="120.85265793566704"><ele>577.0</ele><time>2026-04-04T07:13:07Z</time></trkpt><trkpt lat="14.054002637237664" lon="120.85262090331165"><ele>577.0</ele><time>2026-04-04T07:13:08Z</time></trkpt><trkpt lat="14.05406550186688" lon="120.85259000786353"><ele>577.0</ele><time>2026-04-04T07:13:09Z</time></trkpt><trkpt lat="14.05413497616519" lon="120.85255570011597"><ele>577.0</ele><time>2026-04-04T07:13:10Z</time></trkpt><trkpt lat="14.054236873474405" lon="120.85251083851287"><ele>579.4285714285714</ele><time>2026-04-04T07:13:12Z</time></trkpt><trkpt lat="14.05431298612326" lon="120.85248524184304"><ele>581.8571428571429</ele><time>2026-04-04T07:13:15Z</time></trkpt><trkpt lat="14.054363764774811" lon="120.85253401040549"><ele>584.2857142857143</ele><time>2026-04-04T07:15:12Z</time></trkpt><trkpt lat="14.054322038969588" lon="120.85258362366675"><ele>586.7142857142858</ele><time>2026-04-04T07:15:23Z</time></trkpt><trkpt lat="14.05430525609752" lon="120.85251981243171"><ele>589.1428571428572</ele><time>2026-04-04T08:29:01.001Z</time></trkpt><trkpt lat="14.054374974051203" lon="120.85252438352975"><ele>591.5714285714286</ele><time>2026-04-04T08:29:07.001Z</time></trkpt><trkpt lat="14.054305643211107" lon="120.85252305706398"><ele>594.0</ele><time>2026-04-04T08:29:49.001Z</time></trkpt><trkpt lat="14.054245551352619" lon="120.85249268650405"><ele>594.0</ele><time>2026-04-04T08:29:54.001Z</time></trkpt><trkpt lat="14.054321339456356" lon="120.8526358495857"><ele>594.0</ele><time>2026-04-04T08:30:21Z</time></trkpt><trkpt lat="14.054202138055961" lon="120.85253748211733"><ele>594.0</ele><time>2026-04-04T08:31:01Z</time></trkpt><trkpt lat="14.054270463457804" lon="120.85249101241617"><ele>594.0</ele><time>2026-04-04T08:31:03.001Z</time></trkpt><trkpt lat="14.054326383081106" lon="120.85245604943027"><ele>594.0</ele><time>2026-04-04T08:31:05.001Z</time></trkpt><trkpt lat="14.054267789564701" lon="120.85250834567931"><ele>594.0</ele><time>2026-04-04T08:31:26.001Z</time></trkpt><trkpt lat="14.054187310644613" lon="120.85252966691694"><ele>594.0</ele><time>2026-04-04T08:31:32.001Z</time></trkpt><trkpt lat="14.054274764431135" lon="120.8525506846689"><ele>594.0</ele><time>2026-04-04T08:31:53.001Z</time></trkpt><trkpt lat="14.054224254675301" lon="120.85259018053449"><ele>594.0</ele><time>2026-04-04T08:32:03.999Z</time></trkpt><trkpt lat="14.05431527791106" lon="120.85255154374069"><ele>594.0</ele><time>2026-04-04T08:32:06.999Z</time></trkpt><trkpt lat="14.054370532179586" lon="120.85251088531685"><ele>594.0</ele><time>2026-04-04T08:32:08.999Z</time></trkpt><trkpt lat="14.054331283177074" lon="120.85256604231157"><ele>594.0</ele><time>2026-04-04T08:34:53Z</time></trkpt><trkpt lat="14.054298124490273" lon="120.85262745439546"><ele>594.0</ele><time>2026-04-04T08:57:20Z</time></trkpt><trkpt lat="14.054336206736973" lon="120.85255487586245"><ele>594.0</ele><time>2026-04-04T08:58:35.001Z</time></trkpt><trkpt lat="14.054393883366576" lon="120.85251985089751"><ele>594.0</ele><time>2026-04-04T08:58:59.001Z</time></trkpt><trkpt lat="14.054377485833246" lon="120.85245307515368"><ele>594.0</ele><time>2026-04-04T09:00:15Z</time></trkpt><trkpt lat="14.054408046359539" lon="120.85239000186037"><ele>594.0</ele><time>2026-04-04T09:02:35.001Z</time></trkpt><trkpt lat="14.054477602269127" lon="120.85234968544962"><ele>594.0</ele><time>2026-04-04T09:02:37.001Z</time></trkpt><trkpt lat="14.05454995272672" lon="120.85230210850501"><ele>594.0</ele><time>2026-04-04T09:02:39.001Z</time></trkpt><trkpt lat="14.054632933628065" lon="120.85226012029055"><ele>594.0</ele><time>2026-04-04T09:02:41.001Z</time></trkpt><trkpt lat="14.05471738170517" lon="120.85222615305919"><ele>594.0</ele><time>2026-04-04T09:02:43.001Z</time></trkpt><trkpt lat="14.05479940911293" lon="120.85219445428075"><ele>594.0</ele><time>2026-04-04T09:02:45.001Z</time></trkpt><trkpt lat="14.054884820967509" lon="120.85216876308272"><ele>594.0</ele><time>2026-04-04T09:02:47.001Z</time></trkpt><trkpt lat="14.054988353951334" lon="120.85215628465245"><ele>593.8</ele><time>2026-04-04T09:02:49.001Z</time></trkpt><trkpt lat="14.055095774046084" lon="120.85215405255771"><ele>593.5999999999999</ele><time>2026-04-04T09:02:51.001Z</time></trkpt><trkpt lat="14.055207086623481" lon="120.85214775083953"><ele>593.4</ele><time>2026-04-04T09:02:53.001Z</time></trkpt><trkpt lat="14.055310702606722" lon="120.8521019535215"><ele>593.1999999999999</ele><time>2026-04-04T09:02:55.001Z</time></trkpt><trkpt lat="14.05535899319994" lon="120.85200580200627"><ele>593.0</ele><time>2026-04-04T09:02:57.001Z</time></trkpt><trkpt lat="14.05533823188465" lon="120.8518851516325"><ele>592.9999999999999</ele><time>2026-04-04T09:02:59.001Z</time></trkpt><trkpt lat="14.055318999603221" lon="120.85182016863409"><ele>593.0</ele><time>2026-04-04T09:03:00.001Z</time></trkpt><trkpt lat="14.055298720834305" lon="120.85174924947809"><ele>593.0</ele><time>2026-04-04T09:03:01.001Z</time></trkpt><trkpt lat="14.055282266976823" lon="120.85167634591176"><ele>593.0</ele><time>2026-04-04T09:03:02.001Z</time></trkpt><trkpt lat="14.05526840455641" lon="120.85160075539055"><ele>593.0</ele><time>2026-04-04T09:03:03.001Z</time></trkpt><trkpt lat="14.055268321205139" lon="120.85151733316395"><ele>592.9999999999999</ele><time>2026-04-04T09:03:04.001Z</time></trkpt><trkpt lat="14.055285921833814" lon="120.85143315748591"><ele>593.0</ele><time>2026-04-04T09:03:05.001Z</time></trkpt><trkpt lat="14.05531297710246" lon="120.85134680269469"><ele>597.1666666666666</ele><time>2026-04-04T09:03:06.001Z</time></trkpt><trkpt lat="14.05533193778071" lon="120.8512617353082"><ele>601.3333333333333</ele><time>2026-04-04T09:03:07.001Z</time></trkpt><trkpt lat="14.055330689231901" lon="120.85117329285771"><ele>605.5</ele><time>2026-04-04T09:03:08.001Z</time></trkpt><trkpt lat="14.055304429871263" lon="120.85108041921974"><ele>609.6666666666666</ele><time>2026-04-04T09:03:09.001Z</time></trkpt><trkpt lat="14.05525325958344" lon="120.85099977768056"><ele>613.8333333333334</ele><time>2026-04-04T09:03:10.001Z</time></trkpt><trkpt lat="14.055202970788473" lon="120.85092262417795"><ele>618.0</ele><time>2026-04-04T09:03:11.001Z</time></trkpt><trkpt lat="14.055162786239624" lon="120.85083698879619"><ele>620.4</ele><time>2026-04-04T09:03:12.001Z</time></trkpt><trkpt lat="14.055134632332619" lon="120.85074396535974"><ele>622.8</ele><time>2026-04-04T09:03:13.001Z</time></trkpt><trkpt lat="14.055120310179186" lon="120.8506499380164"><ele>625.2</ele><time>2026-04-04T09:03:14.001Z</time></trkpt><trkpt lat="14.055118929796665" lon="120.85055037273368"><ele>627.6</ele><time>2026-04-04T09:03:15.001Z</time></trkpt><trkpt lat="14.055133878819216" lon="120.8504557231982"><ele>630.0</ele><time>2026-04-04T09:03:16.001Z</time></trkpt><trkpt lat="14.055162666168348" lon="120.85036010795177"><ele>630.0</ele><time>2026-04-04T09:03:17.001Z</time></trkpt><trkpt lat="14.055197540857332" lon="120.85027782563006"><ele>630.0</ele><time>2026-04-04T09:03:18.001Z</time></trkpt><trkpt lat="14.055237489465542" lon="120.8502072717001"><ele>630.0</ele><time>2026-04-04T09:03:19.001Z</time></trkpt><trkpt lat="14.055292128204286" lon="120.85013839942596"><ele>630.0</ele><time>2026-04-04T09:03:20.001Z</time></trkpt><trkpt lat="14.055343901404267" lon="120.85008810706317"><ele>630.0</ele><time>2026-04-04T09:03:21.001Z</time></trkpt><trkpt lat="14.055398568675681" lon="120.8500248812593"><ele>630.0</ele><time>2026-04-04T09:03:22.001Z</time></trkpt><trkpt lat="14.055434098567483" lon="120.8499506019262"><ele>630.1666666666666</ele><time>2026-04-04T09:03:23.001Z</time></trkpt><trkpt lat="14.05544916658093" lon="120.84986452363921"><ele>630.3333333333334</ele><time>2026-04-04T09:03:24.001Z</time></trkpt><trkpt lat="14.055435327085021" lon="120.8497771809832"><ele>630.5</ele><time>2026-04-04T09:03:25.001Z</time></trkpt><trkpt lat="14.055403920012298" lon="120.84969630700267"><ele>630.6666666666667</ele><time>2026-04-04T09:03:26.001Z</time></trkpt><trkpt lat="14.05537653575156" lon="120.8496155659592"><ele>630.8333333333334</ele><time>2026-04-04T09:03:27.001Z</time></trkpt><trkpt lat="14.055372734736185" lon="120.84953128403129"><ele>631.0</ele><time>2026-04-04T09:03:28.001Z</time></trkpt><trkpt lat="14.055384657667378" lon="120.8494540416964"><ele>631.0</ele><time>2026-04-04T09:03:29.001Z</time></trkpt><trkpt lat="14.055413680162347" lon="120.84938840979963"><ele>631.0</ele><time>2026-04-04T09:03:30.001Z</time></trkpt><trkpt lat="14.055489079075482" lon="120.84927993991356"><ele>631.0</ele><time>2026-04-04T09:03:32.001Z</time></trkpt><trkpt lat="14.055543774877028" lon="120.84922599978037"><ele>631.0</ele><time>2026-04-04T09:03:33.001Z</time></trkpt><trkpt lat="14.055599861139621" lon="120.8491722609641"><ele>631.0</ele><time>2026-04-04T09:03:34.001Z</time></trkpt><trkpt lat="14.05564572022469" lon="120.84911551163538"><ele>631.0</ele><time>2026-04-04T09:03:35.001Z</time></trkpt><trkpt lat="14.055680765229123" lon="120.8490504182107"><ele>630.6666666666667</ele><time>2026-04-04T09:03:36.001Z</time></trkpt><trkpt lat="14.055687283177729" lon="120.84898104331718"><ele>630.3333333333334</ele><time>2026-04-04T09:03:37.001Z</time></trkpt><trkpt lat="14.055673233368323" lon="120.84890066272112"><ele>630.0</ele><time>2026-04-04T09:03:38.001Z</time></trkpt><trkpt lat="14.055638156455442" lon="120.84882588328584"><ele>629.6666666666666</ele><time>2026-04-04T09:03:39.001Z</time></trkpt><trkpt lat="14.055607263667829" lon="120.8487495986319"><ele>629.3333333333333</ele><time>2026-04-04T09:03:40.001Z</time></trkpt><trkpt lat="14.055587014093527" lon="120.84866833024199"><ele>629.0</ele><time>2026-04-04T09:03:41.001Z</time></trkpt><trkpt lat="14.055583062150356" lon="120.84858699916197"><ele>629.0</ele><time>2026-04-04T09:03:42.001Z</time></trkpt><trkpt lat="14.055598263870401" lon="120.84851300147065"><ele>629.0</ele><time>2026-04-04T09:03:43.001Z</time></trkpt><trkpt lat="14.0556385590832" lon="120.84843042848993"><ele>629.0</ele><time>2026-04-04T09:03:44.001Z</time></trkpt><trkpt lat="14.055689247870603" lon="120.84835782451965"><ele>629.0</ele><time>2026-04-04T09:03:45.001Z</time></trkpt><trkpt lat="14.055751174417656" lon="120.84828486093849"><ele>629.0</ele><time>2026-04-04T09:03:46Z</time></trkpt><trkpt lat="14.055813279079242" lon="120.84820530393746"><ele>629.0</ele><time>2026-04-04T09:03:47Z</time></trkpt><trkpt lat="14.055874915571163" lon="120.84811737920361"><ele>626.2</ele><time>2026-04-04T09:03:48Z</time></trkpt><trkpt lat="14.05594034376187" lon="120.84802861850171"><ele>623.4</ele><time>2026-04-04T09:03:49Z</time></trkpt><trkpt lat="14.056010914639172" lon="120.84793370503822"><ele>620.6</ele><time>2026-04-04T09:03:50Z</time></trkpt><trkpt lat="14.056074671262722" lon="120.84784520577239"><ele>617.8</ele><time>2026-04-04T09:03:51Z</time></trkpt><trkpt lat="14.056133333380613" lon="120.84775973511385"><ele>615.0</ele><time>2026-04-04T09:03:52Z</time></trkpt><trkpt lat="14.056179248773672" lon="120.84766678703919"><ele>615.4</ele><time>2026-04-04T09:03:53Z</time></trkpt><trkpt lat="14.056207614255618" lon="120.8475775975183"><ele>615.8</ele><time>2026-04-04T09:03:54Z</time></trkpt><trkpt lat="14.056228724812819" lon="120.84748510877056"><ele>616.2</ele><time>2026-04-04T09:03:55Z</time></trkpt><trkpt lat="14.056246593478122" lon="120.84739232071485"><ele>616.6</ele><time>2026-04-04T09:03:56.001Z</time></trkpt><trkpt lat="14.056256796412208" lon="120.84730081001823"><ele>617.0</ele><time>2026-04-04T09:03:57.001Z</time></trkpt><trkpt lat="14.056268407083065" lon="120.84721260001157"><ele>617.0</ele><time>2026-04-04T09:03:58.001Z</time></trkpt><trkpt lat="14.056290139495342" lon="120.84713111581905"><ele>617.0</ele><time>2026-04-04T09:03:59.001Z</time></trkpt><trkpt lat="14.05632224499812" lon="120.84704770099427"><ele>617.0</ele><time>2026-04-04T09:04:00.001Z</time></trkpt><trkpt lat="14.056379833031192" lon="120.84697250424064"><ele>617.0</ele><time>2026-04-04T09:04:01.001Z</time></trkpt><trkpt lat="14.056457241752941" lon="120.84690544364673"><ele>617.0</ele><time>2026-04-04T09:04:02.001Z</time></trkpt><trkpt lat="14.056547007991043" lon="120.84684530499578"><ele>618.5</ele><time>2026-04-04T09:04:03.001Z</time></trkpt><trkpt lat="14.056640320646757" lon="120.84678402876918"><ele>620.0</ele><time>2026-04-04T09:04:04.001Z</time></trkpt><trkpt lat="14.056739374218028" lon="120.84672116781843"><ele>621.5</ele><time>2026-04-04T09:04:05.001Z</time></trkpt><trkpt lat="14.056844251963312" lon="120.84665055184435"><ele>623.0</ele><time>2026-04-04T09:04:06.001Z</time></trkpt><trkpt lat="14.056951485454324" lon="120.84658234790784"><ele>623.0</ele><time>2026-04-04T09:04:07.001Z</time></trkpt><trkpt lat="14.057056416807773" lon="120.84651790253497"><ele>623.0</ele><time>2026-04-04T09:04:08.001Z</time></trkpt><trkpt lat="14.057164426894678" lon="120.84644994010914"><ele>623.0</ele><time>2026-04-04T09:04:09.001Z</time></trkpt><trkpt lat="14.057273031462099" lon="120.84638426512169"><ele>623.0</ele><time>2026-04-04T09:04:10.001Z</time></trkpt><trkpt lat="14.057376508788415" lon="120.84631805311153"><ele>623.6</ele><time>2026-04-04T09:04:11.001Z</time></trkpt><trkpt lat="14.05747223415507" lon="120.84625473643293"><ele>624.1999999999999</ele><time>2026-04-04T09:04:12.001Z</time></trkpt><trkpt lat="14.057567628748382" lon="120.84619493792253"><ele>624.8</ele><time>2026-04-04T09:04:13.001Z</time></trkpt><trkpt lat="14.05765545063481" lon="120.84614169530597"><ele>625.4</ele><time>2026-04-04T09:04:14.001Z</time></trkpt><trkpt lat="14.057739279731916" lon="120.84609242178614"><ele>626.0</ele><time>2026-04-04T09:04:15.001Z</time></trkpt><trkpt lat="14.057818041093636" lon="120.84603777309758"><ele>626.0</ele><time>2026-04-04T09:04:16.001Z</time></trkpt><trkpt lat="14.057888975246508" lon="120.84598478752906"><ele>626.0</ele><time>2026-04-04T09:04:17.001Z</time></trkpt><trkpt lat="14.057949769184477" lon="120.84592602888324"><ele>626.0</ele><time>2026-04-04T09:04:18.001Z</time></trkpt><trkpt lat="14.058009620293255" lon="120.84586423517553"><ele>626.0</ele><time>2026-04-04T09:04:19.001Z</time></trkpt><trkpt lat="14.058056683589832" lon="120.84581844106634"><ele>626.0</ele><time>2026-04-04T09:04:20.001Z</time></trkpt><trkpt lat="14.058107245817181" lon="120.84575504193067"><ele>626.0</ele><time>2026-04-04T09:04:22.001Z</time></trkpt><trkpt lat="14.058165402909928" lon="120.84568373747666"><ele>624.4</ele><time>2026-04-04T09:04:24.001Z</time></trkpt><trkpt lat="14.058234202171416" lon="120.84559709007317"><ele>622.8</ele><time>2026-04-04T09:04:26.001Z</time></trkpt><trkpt lat="14.058303918664649" lon="120.84547908995422"><ele>621.1999999999999</ele><time>2026-04-04T09:04:28.001Z</time></trkpt><trkpt lat="14.058343222306009" lon="120.84540213335727"><ele>619.6</ele><time>2026-04-04T09:04:29.001Z</time></trkpt><trkpt lat="14.058390033592337" lon="120.84531845224836"><ele>618.0</ele><time>2026-04-04T09:04:30.001Z</time></trkpt><trkpt lat="14.058435066174239" lon="120.8452417215056"><ele>618.0</ele><time>2026-04-04T09:04:31.001Z</time></trkpt><trkpt lat="14.058475896994855" lon="120.84517085895403"><ele>618.0</ele><time>2026-04-04T09:04:32.001Z</time></trkpt><trkpt lat="14.058508905512253" lon="120.84510962923967"><ele>618.0</ele><time>2026-04-04T09:04:33.001Z</time></trkpt><trkpt lat="14.05854023974458" lon="120.84505014567563"><ele>618.0</ele><time>2026-04-04T09:04:34.001Z</time></trkpt><trkpt lat="14.058606265399838" lon="120.84496350086991"><ele>618.0</ele><time>2026-04-04T09:04:36.001Z</time></trkpt><trkpt lat="14.058663759314094" lon="120.84493096874215"><ele>618.0</ele><time>2026-04-04T09:04:38.001Z</time></trkpt><trkpt lat="14.058686246106328" lon="120.84485724481748"><ele>617.5</ele><time>2026-04-04T09:04:48.001Z</time></trkpt><trkpt lat="14.058811982994772" lon="120.84486170272685"><ele>617.0</ele><time>2026-04-04T09:04:50.001Z</time></trkpt><trkpt lat="14.058879087004954" lon="120.84485533635933"><ele>616.5</ele><time>2026-04-04T09:04:52.001Z</time></trkpt><trkpt lat="14.058956400642629" lon="120.84485131984941"><ele>616.0</ele><time>2026-04-04T09:04:54.001Z</time></trkpt><trkpt lat="14.059035862973202" lon="120.8448518964121"><ele>615.5</ele><time>2026-04-04T09:04:56.001Z</time></trkpt><trkpt lat="14.059122110348977" lon="120.84485624930913"><ele>615.0</ele><time>2026-04-04T09:04:58.001Z</time></trkpt><trkpt lat="14.059221767869252" lon="120.84486982661718"><ele>615.0</ele><time>2026-04-04T09:05:00.001Z</time></trkpt><trkpt lat="14.059300631285165" lon="120.8448878205313"><ele>615.0</ele><time>2026-04-04T09:05:02.001Z</time></trkpt><trkpt lat="14.05937390153562" lon="120.84489590946842"><ele>615.0</ele><time>2026-04-04T09:05:04.001Z</time></trkpt><trkpt lat="14.059454090060392" lon="120.84491379639698"><ele>615.0</ele><time>2026-04-04T09:05:06.001Z</time></trkpt><trkpt lat="14.059536549604491" lon="120.84495186682389"><ele>615.0</ele><time>2026-04-04T09:05:08.001Z</time></trkpt><trkpt lat="14.059594681872932" lon="120.84499186126233"><ele>615.0</ele><time>2026-04-04T09:05:10.001Z</time></trkpt><trkpt lat="14.059685778719302" lon="120.84502386779339"><ele>615.0</ele><time>2026-04-04T09:05:14.001Z</time></trkpt><trkpt lat="14.059775405265778" lon="120.84507048545179"><ele>615.0</ele><time>2026-04-04T09:05:16.001Z</time></trkpt><trkpt lat="14.059872477209662" lon="120.84512272615143"><ele>615.0</ele><time>2026-04-04T09:05:18.001Z</time></trkpt><trkpt lat="14.059965010826527" lon="120.84517707065721"><ele>615.0</ele><time>2026-04-04T09:05:20.001Z</time></trkpt><trkpt lat="14.060023999217494" lon="120.84521336396354"><ele>615.0</ele><time>2026-04-04T09:05:23.001Z</time></trkpt><trkpt lat="14.060109923041196" lon="120.84527514932496"><ele>614.2</ele><time>2026-04-04T09:05:26.001Z</time></trkpt><trkpt lat="14.060191660377233" lon="120.8453382617753"><ele>613.4</ele><time>2026-04-04T09:05:28.001Z</time></trkpt><trkpt lat="14.060281744266707" lon="120.8454119611085"><ele>612.6</ele><time>2026-04-04T09:05:30.001Z</time></trkpt><trkpt lat="14.060370431121061" lon="120.84548266278965"><ele>611.8</ele><time>2026-04-04T09:05:32.001Z</time></trkpt><trkpt lat="14.060427917362277" lon="120.84552024895615"><ele>611.0</ele><time>2026-04-04T09:05:34.001Z</time></trkpt><trkpt lat="14.060484519015475" lon="120.84556641788144"><ele>611.0</ele><time>2026-04-04T09:05:36.001Z</time></trkpt><trkpt lat="14.060589965774028" lon="120.8456434682631"><ele>611.0</ele><time>2026-04-04T09:05:38.001Z</time></trkpt><trkpt lat="14.060644625340734" lon="120.84568077625893"><ele>611.0</ele><time>2026-04-04T09:05:39.001Z</time></trkpt><trkpt lat="14.060744721378068" lon="120.84574021610064"><ele>611.0</ele><time>2026-04-04T09:05:41.001Z</time></trkpt><trkpt lat="14.060810829060845" lon="120.84578417117324"><ele>611.0</ele><time>2026-04-04T09:05:43.001Z</time></trkpt><trkpt lat="14.06087550638127" lon="120.84584040481553"><ele>610.8571428571429</ele><time>2026-04-04T09:05:46.001Z</time></trkpt><trkpt lat="14.060940583855846" lon="120.8458781371771"><ele>610.7142857142858</ele><time>2026-04-04T09:05:51.001Z</time></trkpt><trkpt lat="14.060986933360667" lon="120.84592240003693"><ele>610.5714285714287</ele><time>2026-04-04T09:05:55.001Z</time></trkpt><trkpt lat="14.061038354810426" lon="120.84596220043825"><ele>610.4285714285714</ele><time>2026-04-04T09:05:59.001Z</time></trkpt><trkpt lat="14.06109419956052" lon="120.84600558385365"><ele>610.2857142857142</ele><time>2026-04-04T09:06:04.001Z</time></trkpt><trkpt lat="14.06115875431559" lon="120.84603368693207"><ele>610.1428571428572</ele><time>2026-04-04T09:06:09.001Z</time></trkpt><trkpt lat="14.061212454268624" lon="120.84606789141806"><ele>610.0</ele><time>2026-04-04T09:06:13.001Z</time></trkpt><trkpt lat="14.061277079406972" lon="120.84611649769363"><ele>610.0</ele><time>2026-04-04T09:06:17.001Z</time></trkpt><trkpt lat="14.061329952699474" lon="120.8461751005197"><ele>610.0</ele><time>2026-04-04T09:06:19.001Z</time></trkpt><trkpt lat="14.061391495578642" lon="120.84621917750272"><ele>610.0</ele><time>2026-04-04T09:06:21.001Z</time></trkpt><trkpt lat="14.061451867604521" lon="120.84626339379219"><ele>610.0</ele><time>2026-04-04T09:06:23.001Z</time></trkpt><trkpt lat="14.061504817689515" lon="120.8463056577005"><ele>610.0</ele><time>2026-04-04T09:06:25.001Z</time></trkpt><trkpt lat="14.061552769820402" lon="120.84635517880321"><ele>610.0</ele><time>2026-04-04T09:06:28.001Z</time></trkpt><trkpt lat="14.061620668482425" lon="120.84638300260983"><ele>610.0</ele><time>2026-04-04T09:06:49.001Z</time></trkpt><trkpt lat="14.061686924043343" lon="120.84639955085657"><ele>609.1428571428572</ele><time>2026-04-04T09:06:53.001Z</time></trkpt><trkpt lat="14.061750677000491" lon="120.8463857168569"><ele>608.2857142857142</ele><time>2026-04-04T09:07:01.001Z</time></trkpt><trkpt lat="14.061815674465448" lon="120.84636172531773"><ele>607.4285714285714</ele><time>2026-04-04T09:07:04.001Z</time></trkpt><trkpt lat="14.061836332756911" lon="120.84630007679662"><ele>606.5714285714287</ele><time>2026-04-04T09:07:09.001Z</time></trkpt><trkpt lat="14.061876004929255" lon="120.84624269649429"><ele>605.7142857142858</ele><time>2026-04-04T09:07:13.001Z</time></trkpt><trkpt lat="14.061944459029775" lon="120.84629201173328"><ele>604.8571428571429</ele><time>2026-04-04T09:07:17.001Z</time></trkpt><trkpt lat="14.061967887458112" lon="120.84635627448773"><ele>604.0</ele><time>2026-04-04T09:07:20.001Z</time></trkpt><trkpt lat="14.061950336949499" lon="120.84642509519016"><ele>604.0</ele><time>2026-04-04T09:07:28.001Z</time></trkpt><trkpt lat="14.06195902061842" lon="120.84649827749911"><ele>604.0</ele><time>2026-04-04T09:10:49.001Z</time></trkpt><trkpt lat="14.062001680674218" lon="120.8465636882649"><ele>604.0</ele><time>2026-04-04T09:10:51.001Z</time></trkpt><trkpt lat="14.062087345937066" lon="120.84665010008064"><ele>604.0</ele><time>2026-04-04T09:10:53.001Z</time></trkpt><trkpt lat="14.062144504788723" lon="120.846697307538"><ele>604.0</ele><time>2026-04-04T09:10:54.001Z</time></trkpt><trkpt lat="14.06221106941802" lon="120.84674586040629"><ele>604.0</ele><time>2026-04-04T09:10:55.001Z</time></trkpt><trkpt lat="14.062282615875414" lon="120.84679657204535"><ele>603.8</ele><time>2026-04-04T09:10:56.001Z</time></trkpt><trkpt lat="14.062353792663378" lon="120.8468471751484"><ele>603.5999999999999</ele><time>2026-04-04T09:10:57.001Z</time></trkpt><trkpt lat="14.062433292798529" lon="120.84690339841703"><ele>603.4</ele><time>2026-04-04T09:10:58.001Z</time></trkpt><trkpt lat="14.062514695695494" lon="120.84696235823192"><ele>603.1999999999999</ele><time>2026-04-04T09:10:59.001Z</time></trkpt><trkpt lat="14.062602726290743" lon="120.84702715699919"><ele>603.0</ele><time>2026-04-04T09:11:00.001Z</time></trkpt><trkpt lat="14.062690625711728" lon="120.84709330302177"><ele>603.0</ele><time>2026-04-04T09:11:01.001Z</time></trkpt><trkpt lat="14.062774967276582" lon="120.84714707126109"><ele>603.0</ele><time>2026-04-04T09:11:02.001Z</time></trkpt><trkpt lat="14.062861667228141" lon="120.84721292735637"><ele>603.0</ele><time>2026-04-04T09:11:03.001Z</time></trkpt><trkpt lat="14.062944456908994" lon="120.84727573948813"><ele>603.0</ele><time>2026-04-04T09:11:04.001Z</time></trkpt><trkpt lat="14.0630249234967" lon="120.8473345349876"><ele>603.0</ele><time>2026-04-04T09:11:05.001Z</time></trkpt><trkpt lat="14.063105805605934" lon="120.847389183934"><ele>603.0</ele><time>2026-04-04T09:11:06.001Z</time></trkpt><trkpt lat="14.06318477194293" lon="120.84744774470892"><ele>603.0</ele><time>2026-04-04T09:11:07.001Z</time></trkpt><trkpt lat="14.063260827811932" lon="120.84750641284488"><ele>603.0</ele><time>2026-04-04T09:11:08.001Z</time></trkpt><trkpt lat="14.063336451121762" lon="120.84756189088458"><ele>603.0</ele><time>2026-04-04T09:11:09.001Z</time></trkpt><trkpt lat="14.06342511683447" lon="120.84763004110496"><ele>603.0</ele><time>2026-04-04T09:11:12.001Z</time></trkpt><trkpt lat="14.063482199182328" lon="120.84767404165298"><ele>603.4</ele><time>2026-04-04T09:11:13.001Z</time></trkpt><trkpt lat="14.063555840998825" lon="120.84772598707357"><ele>603.8</ele><time>2026-04-04T09:11:14.001Z</time></trkpt><trkpt lat="14.063637217877703" lon="120.84778524632847"><ele>604.2</ele><time>2026-04-04T09:11:15.001Z</time></trkpt><trkpt lat="14.06372250913268" lon="120.84784520742211"><ele>604.6</ele><time>2026-04-04T09:11:16.001Z</time></trkpt><trkpt lat="14.063810830693573" lon="120.84790688583807"><ele>605.0</ele><time>2026-04-04T09:11:17.001Z</time></trkpt><trkpt lat="14.063889875030874" lon="120.84796521992168"><ele>605.0</ele><time>2026-04-04T09:11:18.001Z</time></trkpt><trkpt lat="14.063961218321381" lon="120.84801792124345"><ele>605.0</ele><time>2026-04-04T09:11:19.001Z</time></trkpt><trkpt lat="14.064031219716226" lon="120.84807302759198"><ele>605.0</ele><time>2026-04-04T09:11:20.001Z</time></trkpt><trkpt lat="14.064099014384736" lon="120.84812911268904"><ele>605.0</ele><time>2026-04-04T09:11:21.001Z</time></trkpt><trkpt lat="14.06416667841046" lon="120.8481834880372"><ele>605.0</ele><time>2026-04-04T09:11:22.001Z</time></trkpt><trkpt lat="14.064219304341133" lon="120.84822604183691"><ele>605.0</ele><time>2026-04-04T09:11:23.001Z</time></trkpt><trkpt lat="14.064312769461493" lon="120.84829679820078"><ele>605.6666666666666</ele><time>2026-04-04T09:11:25.001Z</time></trkpt><trkpt lat="14.064394143623842" lon="120.84837182948371"><ele>606.3333333333333</ele><time>2026-04-04T09:11:27.001Z</time></trkpt><trkpt lat="14.064459543079293" lon="120.84843821083294"><ele>607.0</ele><time>2026-04-04T09:11:29.001Z</time></trkpt><trkpt lat="14.064502502901805" lon="120.84849105449082"><ele>607.6666666666666</ele><time>2026-04-04T09:11:31.001Z</time></trkpt><trkpt lat="14.064548476334064" lon="120.84855068491454"><ele>608.3333333333334</ele><time>2026-04-04T09:11:34.001Z</time></trkpt><trkpt lat="14.06459121762193" lon="120.84860058022682"><ele>609.0</ele><time>2026-04-04T09:11:38.001Z</time></trkpt><trkpt lat="14.06463843630487" lon="120.84867157736078"><ele>609.0</ele><time>2026-04-04T09:11:42.001Z</time></trkpt><trkpt lat="14.064679902336895" lon="120.84875780177869"><ele>609.0</ele><time>2026-04-04T09:11:44.001Z</time></trkpt><trkpt lat="14.064699422657007" lon="120.84882005273563"><ele>609.0</ele><time>2026-04-04T09:11:46.001Z</time></trkpt><trkpt lat="14.064711644756265" lon="120.84888386018302"><ele>609.0</ele><time>2026-04-04T09:11:53.001Z</time></trkpt><trkpt lat="14.064692300151371" lon="120.84895436651686"><ele>609.0</ele><time>2026-04-04T09:11:58.001Z</time></trkpt><trkpt lat="14.064725238801566" lon="120.84906524493844"><ele>609.0</ele><time>2026-04-04T09:12:00.001Z</time></trkpt><trkpt lat="14.06473989663262" lon="120.8491548067837"><ele>609.0</ele><time>2026-04-04T09:12:02.001Z</time></trkpt><trkpt lat="14.06474545118364" lon="120.84924992454346"><ele>609.0</ele><time>2026-04-04T09:12:04.001Z</time></trkpt><trkpt lat="14.064743264332368" lon="120.84935077217892"><ele>609.0</ele><time>2026-04-04T09:12:06.001Z</time></trkpt><trkpt lat="14.064735095342906" lon="120.8494254592822"><ele>609.0</ele><time>2026-04-04T09:12:08.001Z</time></trkpt><trkpt lat="14.064728159078461" lon="120.8495212384937"><ele>609.0</ele><time>2026-04-04T09:12:10.001Z</time></trkpt><trkpt lat="14.064718908343416" lon="120.84962897626306"><ele>608.0</ele><time>2026-04-04T09:12:12.001Z</time></trkpt><trkpt lat="14.064710022079634" lon="120.84972420547307"><ele>607.0</ele><time>2026-04-04T09:12:14.001Z</time></trkpt><trkpt lat="14.064707265075976" lon="120.84980033335"><ele>606.0</ele><time>2026-04-04T09:12:19.001Z</time></trkpt><trkpt lat="14.06470091158161" lon="120.84988613027743"><ele>605.0</ele><time>2026-04-04T09:12:21.001Z</time></trkpt><trkpt lat="14.064692630925807" lon="120.84997962579114"><ele>604.0</ele><time>2026-04-04T09:12:23.001Z</time></trkpt><trkpt lat="14.064695555541647" lon="120.85008111120986"><ele>603.0</ele><time>2026-04-04T09:12:25.001Z</time></trkpt><trkpt lat="14.064701542404201" lon="120.85015999272575"><ele>599.5</ele><time>2026-04-04T09:12:27.001Z</time></trkpt><trkpt lat="14.064705355025579" lon="120.85023396599355"><ele>596.0</ele><time>2026-04-04T09:12:30.001Z</time></trkpt><trkpt lat="14.064717659508185" lon="120.8503024418861"><ele>592.5</ele><time>2026-04-04T09:12:34.001Z</time></trkpt><trkpt lat="14.0647361976526" lon="120.85037789156526"><ele>589.0</ele><time>2026-04-04T09:12:36.001Z</time></trkpt><trkpt lat="14.064773436570782" lon="120.85044026942407"><ele>585.5</ele><time>2026-04-04T09:12:39.001Z</time></trkpt><trkpt lat="14.064807117996567" lon="120.85049988509628"><ele>582.0</ele><time>2026-04-04T09:12:46.001Z</time></trkpt><trkpt lat="14.064855340588155" lon="120.85060626153074"><ele>582.0</ele><time>2026-04-04T09:12:48.001Z</time></trkpt><trkpt lat="14.064883869628531" lon="120.8506654023922"><ele>582.0</ele><time>2026-04-04T09:12:49.001Z</time></trkpt><trkpt lat="14.064929112934658" lon="120.85073700972919"><ele>582.0</ele><time>2026-04-04T09:12:50.001Z</time></trkpt><trkpt lat="14.064975671418242" lon="120.85080724472165"><ele>582.0</ele><time>2026-04-04T09:12:51.001Z</time></trkpt><trkpt lat="14.065027604821427" lon="120.85087762040565"><ele>582.0</ele><time>2026-04-04T09:12:52.001Z</time></trkpt><trkpt lat="14.06507924255634" lon="120.85094268596556"><ele>582.0</ele><time>2026-04-04T09:12:53.001Z</time></trkpt><trkpt lat="14.065160457919315" lon="120.8510448138405"><ele>581.0</ele><time>2026-04-04T09:12:55.001Z</time></trkpt><trkpt lat="14.06522772886149" lon="120.85111739894593"><ele>580.0</ele><time>2026-04-04T09:12:57.001Z</time></trkpt><trkpt lat="14.065278761252298" lon="120.85117120899628"><ele>579.0</ele><time>2026-04-04T09:12:59.001Z</time></trkpt><trkpt lat="14.065326268630887" lon="120.85122226273744"><ele>578.0</ele><time>2026-04-04T09:13:01.001Z</time></trkpt><trkpt lat="14.065381872153859" lon="120.85128064020645"><ele>577.0</ele><time>2026-04-04T09:13:04.001Z</time></trkpt><trkpt lat="14.065458819275452" lon="120.85135450804201"><ele>576.0</ele><time>2026-04-04T09:13:08.001Z</time></trkpt><trkpt lat="14.065543258203023" lon="120.8514447642047"><ele>576.0</ele><time>2026-04-04T09:13:10.001Z</time></trkpt><trkpt lat="14.065594693022454" lon="120.85149816526726"><ele>576.0</ele><time>2026-04-04T09:13:11.001Z</time></trkpt><trkpt lat="14.065646818369759" lon="120.85155334183726"><ele>576.0</ele><time>2026-04-04T09:13:12.001Z</time></trkpt><trkpt lat="14.065698393865393" lon="120.85161591558585"><ele>576.0</ele><time>2026-04-04T09:13:13.001Z</time></trkpt><trkpt lat="14.065754980291949" lon="120.8516715511528"><ele>576.0</ele><time>2026-04-04T09:13:14.001Z</time></trkpt><trkpt lat="14.065808570720865" lon="120.85172961112417"><ele>576.0</ele><time>2026-04-04T09:13:15.001Z</time></trkpt><trkpt lat="14.065859608198823" lon="120.85178466303013"><ele>580.0000000000001</ele><time>2026-04-04T09:13:16.001Z</time></trkpt><trkpt lat="14.065911560242368" lon="120.85183862826136"><ele>584.0</ele><time>2026-04-04T09:13:17.001Z</time></trkpt><trkpt lat="14.065963226765108" lon="120.8518958549147"><ele>588.0</ele><time>2026-04-04T09:13:18.001Z</time></trkpt><trkpt lat="14.06600809129726" lon="120.85194149649587"><ele>592.0</ele><time>2026-04-04T09:13:19.001Z</time></trkpt><trkpt lat="14.066059379749987" lon="120.85199489127487"><ele>596.0</ele><time>2026-04-04T09:13:20.001Z</time></trkpt><trkpt lat="14.066104442583908" lon="120.85204588663746"><ele>600.0000000000001</ele><time>2026-04-04T09:13:21.001Z</time></trkpt><trkpt lat="14.0661517447666" lon="120.85209820809911"><ele>604.0</ele><time>2026-04-04T09:13:22.001Z</time></trkpt><trkpt lat="14.066199637090165" lon="120.85215252269842"><ele>604.0</ele><time>2026-04-04T09:13:23.001Z</time></trkpt><trkpt lat="14.066242452638713" lon="120.85220858551797"><ele>604.0</ele><time>2026-04-04T09:13:24.001Z</time></trkpt><trkpt lat="14.066291596769693" lon="120.85226234975758"><ele>604.0</ele><time>2026-04-04T09:13:25.001Z</time></trkpt><trkpt lat="14.066339806782985" lon="120.85232723614914"><ele>604.0</ele><time>2026-04-04T09:13:26.001Z</time></trkpt><trkpt lat="14.066383405835323" lon="120.85238430253884"><ele>604.0</ele><time>2026-04-04T09:13:27.001Z</time></trkpt><trkpt lat="14.066452405343624" lon="120.85248141281018"><ele>604.0</ele><time>2026-04-04T09:13:29.001Z</time></trkpt><trkpt lat="14.066503719827892" lon="120.85255754846204"><ele>604.0</ele><time>2026-04-04T09:13:31.001Z</time></trkpt><trkpt lat="14.066549600172099" lon="120.85261973964495"><ele>604.0</ele><time>2026-04-04T09:13:33.001Z</time></trkpt><trkpt lat="14.066599702915696" lon="120.85268914979615"><ele>604.0</ele><time>2026-04-04T09:13:36.001Z</time></trkpt><trkpt lat="14.066639672946033" lon="120.85274235281499"><ele>604.0</ele><time>2026-04-04T09:13:45.001Z</time></trkpt><trkpt lat="14.066687896472056" lon="120.85280796194573"><ele>604.0</ele><time>2026-04-04T09:13:50.001Z</time></trkpt><trkpt lat="14.066738230723503" lon="120.85287895012415"><ele>604.0</ele><time>2026-04-04T09:13:52.001Z</time></trkpt><trkpt lat="14.066797762880322" lon="120.85297103624029"><ele>605.8333333333334</ele><time>2026-04-04T09:13:54.001Z</time></trkpt><trkpt lat="14.066852583732203" lon="120.85306126464165"><ele>607.6666666666667</ele><time>2026-04-04T09:13:56.001Z</time></trkpt><trkpt lat="14.06690249330547" lon="120.8531406008102"><ele>609.5</ele><time>2026-04-04T09:13:58.001Z</time></trkpt><trkpt lat="14.066941244736478" lon="120.85319440637815"><ele>611.3333333333334</ele><time>2026-04-04T09:14:00.001Z</time></trkpt><trkpt lat="14.066990595927926" lon="120.85326786392127"><ele>613.1666666666666</ele><time>2026-04-04T09:14:03.001Z</time></trkpt><trkpt lat="14.067028928588531" lon="120.85332258204632"><ele>615.0</ele><time>2026-04-04T09:14:06.001Z</time></trkpt><trkpt lat="14.067069882988427" lon="120.85337721723779"><ele>611.6</ele><time>2026-04-04T09:14:08.001Z</time></trkpt><trkpt lat="14.067138472582489" lon="120.85347073204872"><ele>608.2</ele><time>2026-04-04T09:14:10.001Z</time></trkpt><trkpt lat="14.067183432587822" lon="120.85353477059245"><ele>604.8</ele><time>2026-04-04T09:14:11.001Z</time></trkpt><trkpt lat="14.06723660217231" lon="120.85361015747887"><ele>601.4</ele><time>2026-04-04T09:14:12.001Z</time></trkpt><trkpt lat="14.067294816513987" lon="120.85368893504238"><ele>598.0</ele><time>2026-04-04T09:14:13.001Z</time></trkpt><trkpt lat="14.067355028450736" lon="120.85376423259697"><ele>598.0</ele><time>2026-04-04T09:14:14.001Z</time></trkpt><trkpt lat="14.067417788096675" lon="120.8538405750934"><ele>598.0</ele><time>2026-04-04T09:14:15.001Z</time></trkpt><trkpt lat="14.067477104743988" lon="120.85391228481441"><ele>598.0</ele><time>2026-04-04T09:14:16.001Z</time></trkpt><trkpt lat="14.06753629662655" lon="120.85398049980986"><ele>598.0</ele><time>2026-04-04T09:14:17.001Z</time></trkpt><trkpt lat="14.067589566431982" lon="120.85404364882488"><ele>598.0</ele><time>2026-04-04T09:14:18.001Z</time></trkpt><trkpt lat="14.067638286295011" lon="120.85410309388372"><ele>598.0</ele><time>2026-04-04T09:14:19.001Z</time></trkpt><trkpt lat="14.06768659964846" lon="120.8541559214003"><ele>599.5</ele><time>2026-04-04T09:14:20.001Z</time></trkpt><trkpt lat="14.067769330556915" lon="120.85424621672296"><ele>601.0</ele><time>2026-04-04T09:14:22.001Z</time></trkpt><trkpt lat="14.067818635930546" lon="120.85430005340655"><ele>602.5</ele><time>2026-04-04T09:14:23.001Z</time></trkpt><trkpt lat="14.06786973702378" lon="120.85435404647832"><ele>604.0</ele><time>2026-04-04T09:14:24.001Z</time></trkpt><trkpt lat="14.0679190304028" lon="120.85440648608082"><ele>605.5</ele><time>2026-04-04T09:14:25.001Z</time></trkpt><trkpt lat="14.067966449602794" lon="120.8544638711675"><ele>607.0</ele><time>2026-04-04T09:14:26.001Z</time></trkpt><trkpt lat="14.06800946207179" lon="120.85451548876136"><ele>602.6</ele><time>2026-04-04T09:14:27.001Z</time></trkpt><trkpt lat="14.068051032686629" lon="120.85457184202147"><ele>598.2</ele><time>2026-04-04T09:14:28.001Z</time></trkpt><trkpt lat="14.068089777221882" lon="120.85462696952216"><ele>593.8</ele><time>2026-04-04T09:14:29.001Z</time></trkpt><trkpt lat="14.06815874105298" lon="120.8547381367311"><ele>589.4</ele><time>2026-04-04T09:14:31.001Z</time></trkpt><trkpt lat="14.068211298646892" lon="120.85483409203741"><ele>585.0</ele><time>2026-04-04T09:14:33.001Z</time></trkpt><trkpt lat="14.068262756160742" lon="120.85494103623627"><ele>588.0</ele><time>2026-04-04T09:14:35.001Z</time></trkpt><trkpt lat="14.068310613533798" lon="120.855056912788"><ele>591.0</ele><time>2026-04-04T09:14:37.001Z</time></trkpt><trkpt lat="14.068343898664642" lon="120.85514791674233"><ele>594.0</ele><time>2026-04-04T09:14:39.001Z</time></trkpt><trkpt lat="14.068377735922837" lon="120.85523727891659"><ele>597.0</ele><time>2026-04-04T09:14:41.001Z</time></trkpt><trkpt lat="14.068402551028855" lon="120.85530568950668"><ele>600.0</ele><time>2026-04-04T09:14:43.001Z</time></trkpt><trkpt lat="14.068423251122002" lon="120.85536752099922"><ele>603.0</ele><time>2026-04-04T09:14:45.001Z</time></trkpt><trkpt lat="14.068447479036333" lon="120.85543743594977"><ele>603.0</ele><time>2026-04-04T09:14:47.001Z</time></trkpt><trkpt lat="14.068471230470202" lon="120.8555300089729"><ele>603.0</ele><time>2026-04-04T09:14:50.001Z</time></trkpt><trkpt lat="14.068492481731635" lon="120.85559708705118"><ele>603.0</ele><time>2026-04-04T09:14:52.001Z</time></trkpt><trkpt lat="14.068515699221011" lon="120.8556795715143"><ele>603.0</ele><time>2026-04-04T09:14:54.001Z</time></trkpt><trkpt lat="14.068540902930113" lon="120.85575999039494"><ele>603.0</ele><time>2026-04-04T09:14:56.001Z</time></trkpt><trkpt lat="14.068575950306522" lon="120.85585148590702"><ele>603.0</ele><time>2026-04-04T09:14:58.001Z</time></trkpt><trkpt lat="14.068607793846063" lon="120.85594321385473"><ele>600.8</ele><time>2026-04-04T09:15:00.001Z</time></trkpt><trkpt lat="14.068640218963113" lon="120.85603483739243"><ele>598.5999999999999</ele><time>2026-04-04T09:15:02.001Z</time></trkpt><trkpt lat="14.068672504378926" lon="120.85612817542565"><ele>596.4000000000001</ele><time>2026-04-04T09:15:04.001Z</time></trkpt><trkpt lat="14.068703220946768" lon="120.85622215051615"><ele>594.2</ele><time>2026-04-04T09:15:06.001Z</time></trkpt><trkpt lat="14.068735037034248" lon="120.85631140584347"><ele>592.0</ele><time>2026-04-04T09:15:08.001Z</time></trkpt><trkpt lat="14.068763300329078" lon="120.85639233697577"><ele>592.0</ele><time>2026-04-04T09:15:10.001Z</time></trkpt><trkpt lat="14.068795460847488" lon="120.85647611219103"><ele>592.0</ele><time>2026-04-04T09:15:13.001Z</time></trkpt><trkpt lat="14.068828916436802" lon="120.85656175348704"><ele>592.0</ele><time>2026-04-04T09:15:15.001Z</time></trkpt><trkpt lat="14.068857220578115" lon="120.85664601482885"><ele>592.0</ele><time>2026-04-04T09:15:17.001Z</time></trkpt><trkpt lat="14.068881423810469" lon="120.85670830701883"><ele>592.0</ele><time>2026-04-04T09:15:19.001Z</time></trkpt><trkpt lat="14.068914759373842" lon="120.85678748094395"><ele>592.0</ele><time>2026-04-04T09:15:22.001Z</time></trkpt><trkpt lat="14.068941704949642" lon="120.85684864052953"><ele>593.3333333333334</ele><time>2026-04-04T09:15:24.001Z</time></trkpt><trkpt lat="14.068968237946716" lon="120.85690950593438"><ele>594.6666666666667</ele><time>2026-04-04T09:15:26.001Z</time></trkpt><trkpt lat="14.0690029796019" lon="120.85697871014565"><ele>596.0</ele><time>2026-04-04T09:15:28.001Z</time></trkpt><trkpt lat="14.069052962625046" lon="120.85707411143254"><ele>597.3333333333334</ele><time>2026-04-04T09:15:30.001Z</time></trkpt><trkpt lat="14.0690864229561" lon="120.85713482449746"><ele>598.6666666666666</ele><time>2026-04-04T09:15:31.001Z</time></trkpt><trkpt lat="14.06912737201075" lon="120.8572059502662"><ele>600.0</ele><time>2026-04-04T09:15:32.001Z</time></trkpt><trkpt lat="14.069170669445564" lon="120.8572815633546"><ele>600.0</ele><time>2026-04-04T09:15:33.001Z</time></trkpt><trkpt lat="14.069221746807317" lon="120.8573478883889"><ele>600.0</ele><time>2026-04-04T09:15:34.001Z</time></trkpt><trkpt lat="14.069276378273656" lon="120.85742979956865"><ele>600.0</ele><time>2026-04-04T09:15:35.001Z</time></trkpt><trkpt lat="14.06933638656922" lon="120.8574785940073"><ele>600.0</ele><time>2026-04-04T09:15:36.001Z</time></trkpt><trkpt lat="14.06940254597392" lon="120.85754990358255"><ele>600.0</ele><time>2026-04-04T09:15:37.001Z</time></trkpt><trkpt lat="14.069469487083449" lon="120.85761776932605"><ele>600.0</ele><time>2026-04-04T09:15:38.001Z</time></trkpt><trkpt lat="14.069553628364305" lon="120.85769055380436"><ele>599.5</ele><time>2026-04-04T09:15:39.001Z</time></trkpt><trkpt lat="14.069636473661003" lon="120.85775645441055"><ele>599.0</ele><time>2026-04-04T09:15:40.001Z</time></trkpt><trkpt lat="14.069730088792197" lon="120.85783434503998"><ele>598.5</ele><time>2026-04-04T09:15:41.001Z</time></trkpt><trkpt lat="14.069836719936863" lon="120.85791514514672"><ele>598.0</ele><time>2026-04-04T09:15:42.001Z</time></trkpt><trkpt lat="14.069944255004243" lon="120.85799712419957"><ele>598.0</ele><time>2026-04-04T09:15:43.001Z</time></trkpt><trkpt lat="14.070044690038433" lon="120.85807476615562"><ele>598.0</ele><time>2026-04-04T09:15:44.001Z</time></trkpt><trkpt lat="14.070141145688371" lon="120.85814606254898"><ele>598.0</ele><time>2026-04-04T09:15:45.001Z</time></trkpt><trkpt lat="14.070231786229703" lon="120.85821515366472"><ele>598.0</ele><time>2026-04-04T09:15:46.001Z</time></trkpt><trkpt lat="14.070318057178536" lon="120.85828143459459"><ele>598.0</ele><time>2026-04-04T09:15:47.001Z</time></trkpt><trkpt lat="14.070407537631233" lon="120.85834809844587"><ele>598.0</ele><time>2026-04-04T09:15:48.001Z</time></trkpt><trkpt lat="14.07049267720211" lon="120.85841263689123"><ele>598.0</ele><time>2026-04-04T09:15:49.001Z</time></trkpt><trkpt lat="14.070583438294445" lon="120.85848183313097"><ele>598.0</ele><time>2026-04-04T09:15:50.001Z</time></trkpt><trkpt lat="14.070672323216389" lon="120.85855567971896"><ele>598.0</ele><time>2026-04-04T09:15:51.001Z</time></trkpt><trkpt lat="14.070775243573655" lon="120.85863980382108"><ele>599.25</ele><time>2026-04-04T09:15:52.001Z</time></trkpt><trkpt lat="14.07087897769702" lon="120.85871829505882"><ele>600.5</ele><time>2026-04-04T09:15:53.001Z</time></trkpt><trkpt lat="14.070990320061908" lon="120.85879499203719"><ele>601.75</ele><time>2026-04-04T09:15:54.001Z</time></trkpt><trkpt lat="14.071106303618478" lon="120.85887590924473"><ele>603.0</ele><time>2026-04-04T09:15:55.001Z</time></trkpt><trkpt lat="14.071206259328367" lon="120.85896665346516"><ele>603.0</ele><time>2026-04-04T09:15:56.001Z</time></trkpt><trkpt lat="14.071313497078831" lon="120.8590633686599"><ele>603.0</ele><time>2026-04-04T09:15:57.001Z</time></trkpt><trkpt lat="14.071419825656506" lon="120.85916214792671"><ele>603.0</ele><time>2026-04-04T09:15:58.001Z</time></trkpt><trkpt lat="14.071523377343862" lon="120.85926529644406"><ele>603.0</ele><time>2026-04-04T09:15:59.001Z</time></trkpt><trkpt lat="14.071624920383561" lon="120.85935951513594"><ele>599.0</ele><time>2026-04-04T09:16:00.001Z</time></trkpt><trkpt lat="14.07173098107974" lon="120.85945665562159"><ele>595.0</ele><time>2026-04-04T09:16:01.001Z</time></trkpt><trkpt lat="14.071832676018403" lon="120.85956490015984"><ele>591.0</ele><time>2026-04-04T09:16:02.001Z</time></trkpt><trkpt lat="14.071938701388907" lon="120.85967611634446"><ele>587.0</ele><time>2026-04-04T09:16:03.001Z</time></trkpt><trkpt lat="14.07204348578209" lon="120.85978773548894"><ele>587.0</ele><time>2026-04-04T09:16:04.001Z</time></trkpt><trkpt lat="14.072140875377286" lon="120.85990103732593"><ele>587.0</ele><time>2026-04-04T09:16:05.001Z</time></trkpt><trkpt lat="14.072235916785155" lon="120.8600141432092"><ele>587.0</ele><time>2026-04-04T09:16:06.001Z</time></trkpt><trkpt lat="14.072330293271971" lon="120.8601202029837"><ele>587.0</ele><time>2026-04-04T09:16:07.001Z</time></trkpt><trkpt lat="14.07242686197976" lon="120.86021951129385"><ele>589.5</ele><time>2026-04-04T09:16:08.001Z</time></trkpt><trkpt lat="14.072526408811465" lon="120.86031571625558"><ele>592.0</ele><time>2026-04-04T09:16:09.001Z</time></trkpt><trkpt lat="14.072635219699297" lon="120.86040801154536"><ele>594.5</ele><time>2026-04-04T09:16:10.001Z</time></trkpt><trkpt lat="14.072748287816848" lon="120.86049206973878"><ele>597.0</ele><time>2026-04-04T09:16:11.001Z</time></trkpt><trkpt lat="14.07286357029898" lon="120.86057192707925"><ele>597.0</ele><time>2026-04-04T09:16:12.001Z</time></trkpt><trkpt lat="14.072982081364005" lon="120.86063828392622"><ele>597.0</ele><time>2026-04-04T09:16:13.001Z</time></trkpt><trkpt lat="14.073098953042397" lon="120.86071253715905"><ele>597.0</ele><time>2026-04-04T09:16:14.001Z</time></trkpt><trkpt lat="14.073212436865278" lon="120.86077837524554"><ele>597.0</ele><time>2026-04-04T09:16:15.001Z</time></trkpt><trkpt lat="14.073328031085941" lon="120.86084456812588"><ele>594.5</ele><time>2026-04-04T09:16:16.001Z</time></trkpt><trkpt lat="14.073438431611779" lon="120.86090271212613"><ele>592.0</ele><time>2026-04-04T09:16:17.001Z</time></trkpt><trkpt lat="14.073541243434505" lon="120.86095921613993"><ele>589.5</ele><time>2026-04-04T09:16:18.001Z</time></trkpt><trkpt lat="14.073651879735342" lon="120.8610152185995"><ele>587.0</ele><time>2026-04-04T09:16:19.001Z</time></trkpt><trkpt lat="14.073764698219591" lon="120.86108119374849"><ele>587.0</ele><time>2026-04-04T09:16:20.001Z</time></trkpt><trkpt lat="14.073875285039453" lon="120.8611576546886"><ele>587.0</ele><time>2026-04-04T09:16:21.001Z</time></trkpt><trkpt lat="14.073973177613091" lon="120.86123092795071"><ele>587.0</ele><time>2026-04-04T09:16:22.001Z</time></trkpt><trkpt lat="14.074077527989784" lon="120.86130282499049"><ele>587.0</ele><time>2026-04-04T09:16:23.001Z</time></trkpt><trkpt lat="14.074168850006886" lon="120.86137264808539"><ele>592.4</ele><time>2026-04-04T09:16:24.001Z</time></trkpt><trkpt lat="14.074255354219979" lon="120.86143944987346"><ele>597.8000000000001</ele><time>2026-04-04T09:16:25.001Z</time></trkpt><trkpt lat="14.074335583185583" lon="120.86150425345129"><ele>603.2</ele><time>2026-04-04T09:16:26.001Z</time></trkpt><trkpt lat="14.074415626895226" lon="120.86156559842594"><ele>608.6</ele><time>2026-04-04T09:16:27Z</time></trkpt><trkpt lat="14.074496348598059" lon="120.86162433293741"><ele>614.0</ele><time>2026-04-04T09:16:28Z</time></trkpt><trkpt lat="14.07457474916137" lon="120.86169423872698"><ele>614.0</ele><time>2026-04-04T09:16:29Z</time></trkpt><trkpt lat="14.07465056973778" lon="120.86177270996828"><ele>614.0</ele><time>2026-04-04T09:16:30Z</time></trkpt><trkpt lat="14.074728569544371" lon="120.86183876292922"><ele>614.0</ele><time>2026-04-04T09:16:31Z</time></trkpt><trkpt lat="14.07480940055987" lon="120.86190479772809"><ele>614.0</ele><time>2026-04-04T09:16:32Z</time></trkpt><trkpt lat="14.074888140666364" lon="120.86197108410526"><ele>614.0</ele><time>2026-04-04T09:16:33Z</time></trkpt><trkpt lat="14.074964086981687" lon="120.86203495828664"><ele>612.8333333333333</ele><time>2026-04-04T09:16:34Z</time></trkpt><trkpt lat="14.075027371387689" lon="120.86208731085026"><ele>611.6666666666666</ele><time>2026-04-04T09:16:35Z</time></trkpt><trkpt lat="14.075094052465968" lon="120.86214452986607"><ele>610.5</ele><time>2026-04-04T09:16:36Z</time></trkpt><trkpt lat="14.075165577627033" lon="120.86220182585485"><ele>609.3333333333334</ele><time>2026-04-04T09:16:37Z</time></trkpt><trkpt lat="14.075228734097209" lon="120.86226273318671"><ele>608.1666666666667</ele><time>2026-04-04T09:16:38Z</time></trkpt><trkpt lat="14.075294513007433" lon="120.86232476112515"><ele>607.0</ele><time>2026-04-04T09:16:39Z</time></trkpt><trkpt lat="14.07534723267837" lon="120.86239740376203"><ele>607.0</ele><time>2026-04-04T09:16:40Z</time></trkpt><trkpt lat="14.075387667358573" lon="120.86246280644484"><ele>607.0</ele><time>2026-04-04T09:16:41Z</time></trkpt><trkpt lat="14.075476725679868" lon="120.86254584698472"><ele>607.0</ele><time>2026-04-04T09:16:42Z</time></trkpt><trkpt lat="14.075534351134774" lon="120.86262108639272"><ele>607.0</ele><time>2026-04-04T09:16:43Z</time></trkpt><trkpt lat="14.075581902608969" lon="120.86271100285596"><ele>607.0</ele><time>2026-04-04T09:16:44Z</time></trkpt><trkpt lat="14.075624214659591" lon="120.86280729658625"><ele>607.4</ele><time>2026-04-04T09:16:45Z</time></trkpt><trkpt lat="14.075666587849469" lon="120.86290813946077"><ele>607.8000000000001</ele><time>2026-04-04T09:16:46Z</time></trkpt><trkpt lat="14.075698770830108" lon="120.86300266307"><ele>608.2</ele><time>2026-04-04T09:16:47Z</time></trkpt><trkpt lat="14.07572746510345" lon="120.8630880656104"><ele>608.6</ele><time>2026-04-04T09:16:48Z</time></trkpt><trkpt lat="14.075749358127476" lon="120.86316138789441"><ele>609.0</ele><time>2026-04-04T09:16:49Z</time></trkpt><trkpt lat="14.075780909460258" lon="120.86327433825521"><ele>609.0</ele><time>2026-04-04T09:16:51Z</time></trkpt><trkpt lat="14.075798292568646" lon="120.86334121912553"><ele>609.0</ele><time>2026-04-04T09:16:53Z</time></trkpt><trkpt lat="14.075820229753386" lon="120.86340775498687"><ele>609.0</ele><time>2026-04-04T09:16:57Z</time></trkpt><trkpt lat="14.075846836560993" lon="120.86347547319302"><ele>609.0</ele><time>2026-04-04T09:17:00Z</time></trkpt><trkpt lat="14.075831405164312" lon="120.86355371439318"><ele>609.0</ele><time>2026-04-04T09:17:06Z</time></trkpt><trkpt lat="14.075855795140951" lon="120.86363173749096"><ele>609.0</ele><time>2026-04-04T09:17:08Z</time></trkpt><trkpt lat="14.075887246315999" lon="120.86369937547904"><ele>609.0</ele><time>2026-04-04T09:17:09Z</time></trkpt><trkpt lat="14.075916326192704" lon="120.86377126560195"><ele>608.3333333333334</ele><time>2026-04-04T09:17:10Z</time></trkpt><trkpt lat="14.075947043459466" lon="120.86384526595826"><ele>607.6666666666666</ele><time>2026-04-04T09:17:11Z</time></trkpt><trkpt lat="14.075966793735214" lon="120.86392828043923"><ele>607.0</ele><time>2026-04-04T09:17:12Z</time></trkpt><trkpt lat="14.075987015260267" lon="120.86401434813462"><ele>606.3333333333333</ele><time>2026-04-04T09:17:13Z</time></trkpt><trkpt lat="14.076016778828903" lon="120.86410386725892"><ele>605.6666666666666</ele><time>2026-04-04T09:17:14Z</time></trkpt><trkpt lat="14.076040318768138" lon="120.86419941915182"><ele>605.0</ele><time>2026-04-04T09:17:15Z</time></trkpt><trkpt lat="14.0760641787082" lon="120.8642882062476"><ele>603.8</ele><time>2026-04-04T09:17:16Z</time></trkpt><trkpt lat="14.07609168348334" lon="120.86438493010492"><ele>602.6</ele><time>2026-04-04T09:17:17Z</time></trkpt><trkpt lat="14.07611415973698" lon="120.86447081204818"><ele>601.4</ele><time>2026-04-04T09:17:18Z</time></trkpt><trkpt lat="14.076138506378529" lon="120.86455571068223"><ele>600.2</ele><time>2026-04-04T09:17:19Z</time></trkpt><trkpt lat="14.076167330032575" lon="120.86464561960058"><ele>599.0</ele><time>2026-04-04T09:17:20Z</time></trkpt><trkpt lat="14.07619052464227" lon="120.86473891496041"><ele>599.0</ele><time>2026-04-04T09:17:21Z</time></trkpt><trkpt lat="14.076213495898495" lon="120.8648294698557"><ele>599.0</ele><time>2026-04-04T09:17:22Z</time></trkpt><trkpt lat="14.076243175129365" lon="120.86491781500904"><ele>599.0</ele><time>2026-04-04T09:17:23Z</time></trkpt><trkpt lat="14.076269622025062" lon="120.86500279375927"><ele>599.0</ele><time>2026-04-04T09:17:24Z</time></trkpt><trkpt lat="14.076299520514732" lon="120.86509641785793"><ele>599.0</ele><time>2026-04-04T09:17:25Z</time></trkpt><trkpt lat="14.076328940600765" lon="120.86519464367747"><ele>598.6</ele><time>2026-04-04T09:17:26Z</time></trkpt><trkpt lat="14.076356391642516" lon="120.86529604721754"><ele>598.2</ele><time>2026-04-04T09:17:27Z</time></trkpt><trkpt lat="14.076391412417799" lon="120.8654042791623"><ele>597.8000000000001</ele><time>2026-04-04T09:17:28Z</time></trkpt><trkpt lat="14.07642091315741" lon="120.86550551204346"><ele>597.4</ele><time>2026-04-04T09:17:29Z</time></trkpt><trkpt lat="14.076457102256754" lon="120.86560795581978"><ele>597.0</ele><time>2026-04-04T09:17:30Z</time></trkpt><trkpt lat="14.076492279088967" lon="120.86571493890604"><ele>597.0</ele><time>2026-04-04T09:17:31Z</time></trkpt><trkpt lat="14.076526988201039" lon="120.86581620999196"><ele>597.0</ele><time>2026-04-04T09:17:32Z</time></trkpt><trkpt lat="14.076557429204849" lon="120.8659097561633"><ele>597.0</ele><time>2026-04-04T09:17:33Z</time></trkpt><trkpt lat="14.076593071919909" lon="120.86601787699057"><ele>597.0</ele><time>2026-04-04T09:17:34Z</time></trkpt><trkpt lat="14.076628206781727" lon="120.86611359510756"><ele>597.0</ele><time>2026-04-04T09:17:35Z</time></trkpt><trkpt lat="14.076664342003518" lon="120.86622393181936"><ele>599.2</ele><time>2026-04-04T09:17:36Z</time></trkpt><trkpt lat="14.076695170737464" lon="120.86632575478605"><ele>601.4000000000001</ele><time>2026-04-04T09:17:37Z</time></trkpt><trkpt lat="14.076728380198544" lon="120.86642389794666"><ele>603.5999999999999</ele><time>2026-04-04T09:17:38Z</time></trkpt><trkpt lat="14.076763225063718" lon="120.86652574632576"><ele>605.8</ele><time>2026-04-04T09:17:39Z</time></trkpt><trkpt lat="14.076790895662974" lon="120.86662745120444"><ele>608.0</ele><time>2026-04-04T09:17:40Z</time></trkpt><trkpt lat="14.076829939107245" lon="120.86673025586525"><ele>606.6</ele><time>2026-04-04T09:17:41Z</time></trkpt><trkpt lat="14.076864467074042" lon="120.86683326710816"><ele>605.1999999999999</ele><time>2026-04-04T09:17:42Z</time></trkpt><trkpt lat="14.07689790363545" lon="120.86693535103798"><ele>603.8</ele><time>2026-04-04T09:17:43Z</time></trkpt><trkpt lat="14.07693264553058" lon="120.86703840973692"><ele>602.4</ele><time>2026-04-04T09:17:44Z</time></trkpt><trkpt lat="14.076962909508222" lon="120.86714226376975"><ele>601.0</ele><time>2026-04-04T09:17:45Z</time></trkpt><trkpt lat="14.076994946571089" lon="120.86724883867379"><ele>601.0</ele><time>2026-04-04T09:17:46Z</time></trkpt><trkpt lat="14.077021981436712" lon="120.8673559093624"><ele>601.0</ele><time>2026-04-04T09:17:47Z</time></trkpt><trkpt lat="14.077045539687965" lon="120.86746272933996"><ele>601.0</ele><time>2026-04-04T09:17:48Z</time></trkpt><trkpt lat="14.077068137048318" lon="120.86757201093636"><ele>601.0</ele><time>2026-04-04T09:17:49Z</time></trkpt><trkpt lat="14.077090207630388" lon="120.86768298774251"><ele>601.0</ele><time>2026-04-04T09:17:50Z</time></trkpt><trkpt lat="14.077102018787615" lon="120.86779041464179"><ele>601.4</ele><time>2026-04-04T09:17:51Z</time></trkpt><trkpt lat="14.077111461062653" lon="120.86790124931656"><ele>601.8</ele><time>2026-04-04T09:17:52Z</time></trkpt><trkpt lat="14.077106660899576" lon="120.86799212801309"><ele>602.1999999999999</ele><time>2026-04-04T09:17:53Z</time></trkpt><trkpt lat="14.077124090540538" lon="120.86809129277529"><ele>602.6</ele><time>2026-04-04T09:17:54Z</time></trkpt><trkpt lat="14.077125438056969" lon="120.86818843255654"><ele>603.0</ele><time>2026-04-04T09:17:55Z</time></trkpt><trkpt lat="14.077135346128813" lon="120.86828680004014"><ele>603.0</ele><time>2026-04-04T09:17:56Z</time></trkpt><trkpt lat="14.077137864126986" lon="120.86838248410294"><ele>603.0</ele><time>2026-04-04T09:17:57Z</time></trkpt><trkpt lat="14.077143342841564" lon="120.86848107711515"><ele>603.0</ele><time>2026-04-04T09:17:58Z</time></trkpt><trkpt lat="14.077147957280847" lon="120.86857897237779"><ele>603.0</ele><time>2026-04-04T09:17:59Z</time></trkpt><trkpt lat="14.077159945802093" lon="120.86867752231875"><ele>603.0</ele><time>2026-04-04T09:18:00Z</time></trkpt><trkpt lat="14.077180790570779" lon="120.86877766383141"><ele>601.1666666666666</ele><time>2026-04-04T09:18:01Z</time></trkpt><trkpt lat="14.07719819340424" lon="120.86886217610072"><ele>599.3333333333334</ele><time>2026-04-04T09:18:02Z</time></trkpt><trkpt lat="14.077228003350038" lon="120.86895008221109"><ele>597.5</ele><time>2026-04-04T09:18:03Z</time></trkpt><trkpt lat="14.077264273353252" lon="120.8690348804051"><ele>595.6666666666667</ele><time>2026-04-04T09:18:04Z</time></trkpt><trkpt lat="14.07731027487506" lon="120.86911559196369"><ele>593.8333333333334</ele><time>2026-04-04T09:18:05Z</time></trkpt><trkpt lat="14.077357714520152" lon="120.86919272139423"><ele>592.0</ele><time>2026-04-04T09:18:06Z</time></trkpt><trkpt lat="14.077395348705922" lon="120.8692528238458"><ele>592.5</ele><time>2026-04-04T09:18:07Z</time></trkpt><trkpt lat="14.077445156063924" lon="120.86931008095196"><ele>593.0</ele><time>2026-04-04T09:18:08Z</time></trkpt><trkpt lat="14.07749535920771" lon="120.86936582579402"><ele>593.5</ele><time>2026-04-04T09:18:09Z</time></trkpt><trkpt lat="14.07755711411181" lon="120.86942506744609"><ele>594.0</ele><time>2026-04-04T09:18:10Z</time></trkpt><trkpt lat="14.077626299372698" lon="120.86948625878185"><ele>594.5</ele><time>2026-04-04T09:18:11Z</time></trkpt><trkpt lat="14.07768361277057" lon="120.86954485280773"><ele>595.0</ele><time>2026-04-04T09:18:12Z</time></trkpt><trkpt lat="14.077748670415716" lon="120.86960703364878"><ele>595.0</ele><time>2026-04-04T09:18:13Z</time></trkpt><trkpt lat="14.07780808712045" lon="120.86966855778743"><ele>595.0</ele><time>2026-04-04T09:18:14Z</time></trkpt><trkpt lat="14.077882171174654" lon="120.86973578882042"><ele>595.0</ele><time>2026-04-04T09:18:15Z</time></trkpt><trkpt lat="14.077950770471993" lon="120.86979704269235"><ele>595.0</ele><time>2026-04-04T09:18:16Z</time></trkpt><trkpt lat="14.078027656872473" lon="120.86985772299477"><ele>595.0</ele><time>2026-04-04T09:18:17Z</time></trkpt><trkpt lat="14.078089693858605" lon="120.86991485644893"><ele>595.0</ele><time>2026-04-04T09:18:18Z</time></trkpt><trkpt lat="14.078151293767469" lon="120.86996900618976"><ele>595.0</ele><time>2026-04-04T09:18:19Z</time></trkpt><trkpt lat="14.078218031919889" lon="120.87002426837343"><ele>595.0</ele><time>2026-04-04T09:18:20Z</time></trkpt><trkpt lat="14.07828307629466" lon="120.8700788517454"><ele>595.0</ele><time>2026-04-04T09:18:21Z</time></trkpt><trkpt lat="14.078363895145483" lon="120.87014560445704"><ele>595.0</ele><time>2026-04-04T09:18:23Z</time></trkpt><trkpt lat="14.078427970710251" lon="120.87019797250719"><ele>595.0</ele><time>2026-04-04T09:18:25Z</time></trkpt><trkpt lat="14.078500875812018" lon="120.870266055057"><ele>595.8</ele><time>2026-04-04T09:18:27Z</time></trkpt><trkpt lat="14.078574927907255" lon="120.87033126110207"><ele>596.6</ele><time>2026-04-04T09:18:29Z</time></trkpt><trkpt lat="14.078648047927336" lon="120.87040527509633"><ele>597.4</ele><time>2026-04-04T09:18:31Z</time></trkpt><trkpt lat="14.078735974894334" lon="120.87049814820229"><ele>598.2</ele><time>2026-04-04T09:18:33Z</time></trkpt><trkpt lat="14.078783845792271" lon="120.87055026140892"><ele>599.0</ele><time>2026-04-04T09:18:34Z</time></trkpt><trkpt lat="14.078827063124985" lon="120.87059821697724"><ele>599.0</ele><time>2026-04-04T09:18:35Z</time></trkpt><trkpt lat="14.078876724094934" lon="120.87065565341076"><ele>599.0</ele><time>2026-04-04T09:18:36Z</time></trkpt><trkpt lat="14.078923674921143" lon="120.87071351644255"><ele>599.0</ele><time>2026-04-04T09:18:37Z</time></trkpt><trkpt lat="14.078980148756338" lon="120.87078016685169"><ele>599.0</ele><time>2026-04-04T09:18:38Z</time></trkpt><trkpt lat="14.079076921189493" lon="120.87090395290797"><ele>599.0</ele><time>2026-04-04T09:18:40Z</time></trkpt><trkpt lat="14.079129185094967" lon="120.87097104176672"><ele>603.1666666666666</ele><time>2026-04-04T09:18:41Z</time></trkpt><trkpt lat="14.07917856363325" lon="120.87104655881394"><ele>607.3333333333333</ele><time>2026-04-04T09:18:42Z</time></trkpt><trkpt lat="14.079235706945784" lon="120.87111586744372"><ele>611.5</ele><time>2026-04-04T09:18:43Z</time></trkpt><trkpt lat="14.079290582084946" lon="120.87118595165079"><ele>615.6666666666666</ele><time>2026-04-04T09:18:44Z</time></trkpt><trkpt lat="14.07934625837327" lon="120.87125782199313"><ele>619.8333333333334</ele><time>2026-04-04T09:18:45Z</time></trkpt><trkpt lat="14.079396299185026" lon="120.87132851441278"><ele>624.0</ele><time>2026-04-04T09:18:46Z</time></trkpt><trkpt lat="14.079451775884651" lon="120.87139621446914"><ele>624.0</ele><time>2026-04-04T09:18:47Z</time></trkpt><trkpt lat="14.079509297984394" lon="120.87146296655058"><ele>624.0</ele><time>2026-04-04T09:18:48Z</time></trkpt><trkpt lat="14.079563097554496" lon="120.8715324058491"><ele>624.0</ele><time>2026-04-04T09:18:49Z</time></trkpt><trkpt lat="14.079610849863046" lon="120.87160107447117"><ele>624.0</ele><time>2026-04-04T09:18:50Z</time></trkpt><trkpt lat="14.07965362330531" lon="120.87167811797991"><ele>624.0</ele><time>2026-04-04T09:18:51Z</time></trkpt><trkpt lat="14.07970125606071" lon="120.8717484211148"><ele>624.0</ele><time>2026-04-04T09:18:52Z</time></trkpt><trkpt lat="14.079753884123544" lon="120.87182730535135"><ele>623.8</ele><time>2026-04-04T09:18:53Z</time></trkpt><trkpt lat="14.079810162610448" lon="120.87190266703603"><ele>623.5999999999999</ele><time>2026-04-04T09:18:54Z</time></trkpt><trkpt lat="14.079865768521856" lon="120.87198433886807"><ele>623.4</ele><time>2026-04-04T09:18:55Z</time></trkpt><trkpt lat="14.079914882765129" lon="120.87206751877113"><ele>623.1999999999999</ele><time>2026-04-04T09:18:56Z</time></trkpt><trkpt lat="14.079967348259027" lon="120.8721456261981"><ele>623.0</ele><time>2026-04-04T09:18:57Z</time></trkpt><trkpt lat="14.080012676876779" lon="120.87222113035932"><ele>623.0</ele><time>2026-04-04T09:18:58Z</time></trkpt><trkpt lat="14.080052443769727" lon="120.87228548348129"><ele>623.0</ele><time>2026-04-04T09:18:59Z</time></trkpt><trkpt lat="14.080091455056877" lon="120.87235348114284"><ele>623.0</ele><time>2026-04-04T09:19:00Z</time></trkpt><trkpt lat="14.08013691471465" lon="120.87241630131"><ele>623.0</ele><time>2026-04-04T09:19:01Z</time></trkpt><trkpt lat="14.080174851188566" lon="120.87247839520325"><ele>623.0</ele><time>2026-04-04T09:19:02Z</time></trkpt><trkpt lat="14.080219196609516" lon="120.8725248581524"><ele>623.0</ele><time>2026-04-04T09:19:03Z</time></trkpt><trkpt lat="14.080254583180555" lon="120.87258379142467"><ele>623.0</ele><time>2026-04-04T09:19:04Z</time></trkpt><trkpt lat="14.080319463983882" lon="120.87268159905776"><ele>620.6666666666666</ele><time>2026-04-04T09:19:06Z</time></trkpt><trkpt lat="14.080363994165033" lon="120.87276071660148"><ele>618.3333333333333</ele><time>2026-04-04T09:19:08Z</time></trkpt><trkpt lat="14.080395556868353" lon="120.87282299805109"><ele>616.0</ele><time>2026-04-04T09:19:10Z</time></trkpt><trkpt lat="14.080438429105573" lon="120.87288696455657"><ele>613.6666666666666</ele><time>2026-04-04T09:19:13Z</time></trkpt><trkpt lat="14.08049048118424" lon="120.87295369157464"><ele>611.3333333333334</ele><time>2026-04-04T09:19:21Z</time></trkpt><trkpt lat="14.080555037028118" lon="120.87305197600323"><ele>609.0</ele><time>2026-04-04T09:19:23Z</time></trkpt><trkpt lat="14.080594685330498" lon="120.873108758607"><ele>609.0</ele><time>2026-04-04T09:19:24Z</time></trkpt><trkpt lat="14.080637967924872" lon="120.87317887073608"><ele>609.0</ele><time>2026-04-04T09:19:25Z</time></trkpt><trkpt lat="14.080679958317699" lon="120.87324973581731"><ele>609.0</ele><time>2026-04-04T09:19:26Z</time></trkpt><trkpt lat="14.080729499085683" lon="120.87331834104388"><ele>609.0</ele><time>2026-04-04T09:19:27Z</time></trkpt><trkpt lat="14.080785838409522" lon="120.87340033047886"><ele>609.0</ele><time>2026-04-04T09:19:28Z</time></trkpt><trkpt lat="14.08084973762587" lon="120.87348900291546"><ele>609.0</ele><time>2026-04-04T09:19:29Z</time></trkpt><trkpt lat="14.080914942482863" lon="120.87356617482094"><ele>610.5</ele><time>2026-04-04T09:19:30Z</time></trkpt><trkpt lat="14.080979680377963" lon="120.87365707423425"><ele>612.0</ele><time>2026-04-04T09:19:31Z</time></trkpt><trkpt lat="14.081055662140933" lon="120.87375135082988"><ele>613.5</ele><time>2026-04-04T09:19:32Z</time></trkpt><trkpt lat="14.081128800841237" lon="120.87383609048946"><ele>615.0</ele><time>2026-04-04T09:19:33Z</time></trkpt><trkpt lat="14.081209045413056" lon="120.87392456297556"><ele>615.0</ele><time>2026-04-04T09:19:34Z</time></trkpt><trkpt lat="14.08129076600448" lon="120.87400940729376"><ele>615.0</ele><time>2026-04-04T09:19:35Z</time></trkpt><trkpt lat="14.081375632127044" lon="120.87409506721352"><ele>615.0</ele><time>2026-04-04T09:19:36Z</time></trkpt><trkpt lat="14.081459573138465" lon="120.87418082459028"><ele>615.0</ele><time>2026-04-04T09:19:37Z</time></trkpt><trkpt lat="14.081548670021231" lon="120.87426530555534"><ele>614.25</ele><time>2026-04-04T09:19:38Z</time></trkpt><trkpt lat="14.08163693969702" lon="120.87435194632302"><ele>613.5</ele><time>2026-04-04T09:19:39Z</time></trkpt><trkpt lat="14.08173088226228" lon="120.87443345982832"><ele>612.75</ele><time>2026-04-04T09:19:40Z</time></trkpt><trkpt lat="14.081834434708021" lon="120.87451150575123"><ele>612.0</ele><time>2026-04-04T09:19:41Z</time></trkpt><trkpt lat="14.08191551244626" lon="120.87459894727291"><ele>612.0</ele><time>2026-04-04T09:19:42Z</time></trkpt><trkpt lat="14.082001295417244" lon="120.87468158227554"><ele>612.0</ele><time>2026-04-04T09:19:43Z</time></trkpt><trkpt lat="14.082096381138893" lon="120.87476201963885"><ele>612.0</ele><time>2026-04-04T09:19:44Z</time></trkpt><trkpt lat="14.082173300117468" lon="120.87485076498564"><ele>612.0</ele><time>2026-04-04T09:19:45Z</time></trkpt><trkpt lat="14.082242685999368" lon="120.87493982596811"><ele>612.0</ele><time>2026-04-04T09:19:46Z</time></trkpt><trkpt lat="14.082314975755901" lon="120.87502969274213"><ele>612.0</ele><time>2026-04-04T09:19:47Z</time></trkpt><trkpt lat="14.08237679553825" lon="120.87513056953398"><ele>612.0</ele><time>2026-04-04T09:19:48Z</time></trkpt><trkpt lat="14.082437569977822" lon="120.87523927476913"><ele>612.0</ele><time>2026-04-04T09:19:49Z</time></trkpt><trkpt lat="14.082498803724745" lon="120.87535408674005"><ele>613.5</ele><time>2026-04-04T09:19:50Z</time></trkpt><trkpt lat="14.082552865411317" lon="120.87547418109942"><ele>615.0</ele><time>2026-04-04T09:19:51Z</time></trkpt><trkpt lat="14.082611795306933" lon="120.87559917744939"><ele>616.5</ele><time>2026-04-04T09:19:52Z</time></trkpt><trkpt lat="14.082673089453115" lon="120.8757256369903"><ele>618.0</ele><time>2026-04-04T09:19:53Z</time></trkpt><trkpt lat="14.082737198888818" lon="120.87585803906126"><ele>616.25</ele><time>2026-04-04T09:19:54Z</time></trkpt><trkpt lat="14.082796144808661" lon="120.87598916303766"><ele>614.5</ele><time>2026-04-04T09:19:55Z</time></trkpt><trkpt lat="14.082861324689729" lon="120.87612120979857"><ele>612.75</ele><time>2026-04-04T09:19:56Z</time></trkpt><trkpt lat="14.082925452052066" lon="120.87624994652624"><ele>611.0</ele><time>2026-04-04T09:19:57Z</time></trkpt><trkpt lat="14.082972575106538" lon="120.87636988646881"><ele>611.0</ele><time>2026-04-04T09:19:58Z</time></trkpt><trkpt lat="14.083031792100572" lon="120.87649187247722"><ele>611.0</ele><time>2026-04-04T09:19:59Z</time></trkpt><trkpt lat="14.083089669180653" lon="120.8766127054631"><ele>611.0</ele><time>2026-04-04T09:20:00Z</time></trkpt><trkpt lat="14.083146034663145" lon="120.87673656274147"><ele>611.0</ele><time>2026-04-04T09:20:01Z</time></trkpt><trkpt lat="14.083207678503753" lon="120.87686489836426"><ele>612.25</ele><time>2026-04-04T09:20:02Z</time></trkpt><trkpt lat="14.083263940396138" lon="120.87698761754426"><ele>613.5</ele><time>2026-04-04T09:20:03Z</time></trkpt><trkpt lat="14.083326088005917" lon="120.87711396857569"><ele>614.75</ele><time>2026-04-04T09:20:04Z</time></trkpt><trkpt lat="14.083389971050279" lon="120.87723881730608"><ele>616.0</ele><time>2026-04-04T09:20:05Z</time></trkpt><trkpt lat="14.08345390397229" lon="120.87736867282551"><ele>616.0</ele><time>2026-04-04T09:20:06Z</time></trkpt><trkpt lat="14.08351399844383" lon="120.87749371205551"><ele>616.0</ele><time>2026-04-04T09:20:07Z</time></trkpt><trkpt lat="14.083580250886916" lon="120.87761973989176"><ele>616.0</ele><time>2026-04-04T09:20:08Z</time></trkpt><trkpt lat="14.083627489055443" lon="120.87773789256568"><ele>616.0</ele><time>2026-04-04T09:20:09Z</time></trkpt><trkpt lat="14.08367447959322" lon="120.87785147983644"><ele>613.0</ele><time>2026-04-04T09:20:10Z</time></trkpt><trkpt lat="14.083727669746244" lon="120.87796859991428"><ele>610.0</ele><time>2026-04-04T09:20:11Z</time></trkpt><trkpt lat="14.083770114537565" lon="120.87808526469608"><ele>607.0</ele><time>2026-04-04T09:20:12Z</time></trkpt><trkpt lat="14.08380185761658" lon="120.87818980691286"><ele>604.0</ele><time>2026-04-04T09:20:13Z</time></trkpt><trkpt lat="14.083827379546717" lon="120.87829888088444"><ele>604.0</ele><time>2026-04-04T09:20:14Z</time></trkpt><trkpt lat="14.083859377271233" lon="120.87839949222625"><ele>604.0</ele><time>2026-04-04T09:20:15Z</time></trkpt><trkpt lat="14.083887844876095" lon="120.8785023717863"><ele>604.0</ele><time>2026-04-04T09:20:16Z</time></trkpt><trkpt lat="14.083904699155154" lon="120.87859956310884"><ele>604.0</ele><time>2026-04-04T09:20:17Z</time></trkpt><trkpt lat="14.083917701859738" lon="120.87869789883821"><ele>604.0</ele><time>2026-04-04T09:20:18Z</time></trkpt><trkpt lat="14.083935786381023" lon="120.87880061222171"><ele>601.6</ele><time>2026-04-04T09:20:19Z</time></trkpt><trkpt lat="14.083941949112738" lon="120.87889471324085"><ele>599.2</ele><time>2026-04-04T09:20:20Z</time></trkpt><trkpt lat="14.083956122864114" lon="120.87899690025795"><ele>596.8000000000001</ele><time>2026-04-04T09:20:21Z</time></trkpt><trkpt lat="14.083967031959315" lon="120.87909940893113"><ele>594.4</ele><time>2026-04-04T09:20:22Z</time></trkpt><trkpt lat="14.08398103210367" lon="120.87920571423281"><ele>592.0</ele><time>2026-04-04T09:20:23Z</time></trkpt><trkpt lat="14.083995479225603" lon="120.87931082920443"><ele>591.6</ele><time>2026-04-04T09:20:24Z</time></trkpt><trkpt lat="14.084008739808148" lon="120.87942757428432"><ele>591.2</ele><time>2026-04-04T09:20:25Z</time></trkpt><trkpt lat="14.084019776628661" lon="120.87954987299105"><ele>590.8</ele><time>2026-04-04T09:20:26Z</time></trkpt><trkpt lat="14.084027049710173" lon="120.87966058923234"><ele>590.4</ele><time>2026-04-04T09:20:27Z</time></trkpt><trkpt lat="14.084035780997398" lon="120.87976201505015"><ele>590.0</ele><time>2026-04-04T09:20:28Z</time></trkpt><trkpt lat="14.084042520631968" lon="120.87986016953656"><ele>590.0</ele><time>2026-04-04T09:20:29Z</time></trkpt><trkpt lat="14.084048788279013" lon="120.87995449425887"><ele>590.0</ele><time>2026-04-04T09:20:30Z</time></trkpt><trkpt lat="14.084059081909615" lon="120.88005332956455"><ele>590.0</ele><time>2026-04-04T09:20:31Z</time></trkpt><trkpt lat="14.084066395969405" lon="120.88015446126728"><ele>590.0</ele><time>2026-04-04T09:20:32Z</time></trkpt><trkpt lat="14.084074832453204" lon="120.88024291451705"><ele>590.0</ele><time>2026-04-04T09:20:33Z</time></trkpt><trkpt lat="14.084084790611504" lon="120.8803311330842"><ele>589.3333333333333</ele><time>2026-04-04T09:20:34Z</time></trkpt><trkpt lat="14.084090373009198" lon="120.8804110836399"><ele>588.6666666666666</ele><time>2026-04-04T09:20:35Z</time></trkpt><trkpt lat="14.084099010583556" lon="120.88049265273773"><ele>588.0</ele><time>2026-04-04T09:20:36Z</time></trkpt><trkpt lat="14.08410736535912" lon="120.88057437564493"><ele>587.3333333333334</ele><time>2026-04-04T09:20:37Z</time></trkpt><trkpt lat="14.084121012728469" lon="120.88066130842863"><ele>586.6666666666667</ele><time>2026-04-04T09:20:38Z</time></trkpt><trkpt lat="14.084130179847742" lon="120.88074934160599"><ele>586.0</ele><time>2026-04-04T09:20:39Z</time></trkpt><trkpt lat="14.08413909816057" lon="120.88084496972091"><ele>593.4</ele><time>2026-04-04T09:20:40Z</time></trkpt><trkpt lat="14.084149795921423" lon="120.88094664177962"><ele>600.8</ele><time>2026-04-04T09:20:41Z</time></trkpt><trkpt lat="14.084160381312413" lon="120.8810493041161"><ele>608.1999999999999</ele><time>2026-04-04T09:20:42Z</time></trkpt><trkpt lat="14.084168916608498" lon="120.88114628156053"><ele>615.6</ele><time>2026-04-04T09:20:43Z</time></trkpt><trkpt lat="14.084176782173754" lon="120.8812296161575"><ele>623.0</ele><time>2026-04-04T09:20:44Z</time></trkpt><trkpt lat="14.08418546794226" lon="120.88131087852638"><ele>623.0</ele><time>2026-04-04T09:20:45Z</time></trkpt><trkpt lat="14.084191694122921" lon="120.88139741417474"><ele>623.0</ele><time>2026-04-04T09:20:46Z</time></trkpt><trkpt lat="14.084198827219884" lon="120.881484179894"><ele>623.0</ele><time>2026-04-04T09:20:47Z</time></trkpt><trkpt lat="14.084208710901484" lon="120.88156777234684"><ele>623.0</ele><time>2026-04-04T09:20:48Z</time></trkpt><trkpt lat="14.08421467669449" lon="120.88165270412537"><ele>623.0</ele><time>2026-04-04T09:20:49Z</time></trkpt><trkpt lat="14.084222007573693" lon="120.88173015124126"><ele>623.0</ele><time>2026-04-04T09:20:50Z</time></trkpt><trkpt lat="14.084225279419583" lon="120.88179625147207"><ele>624.5</ele><time>2026-04-04T09:20:51Z</time></trkpt><trkpt lat="14.08423190995836" lon="120.88186961529797"><ele>626.0</ele><time>2026-04-04T09:20:52Z</time></trkpt><trkpt lat="14.084242427135885" lon="120.88198925921519"><ele>627.5</ele><time>2026-04-04T09:20:54Z</time></trkpt><trkpt lat="14.084249925918355" lon="120.88206834086414"><ele>629.0</ele><time>2026-04-04T09:20:59Z</time></trkpt><trkpt lat="14.08425978022017" lon="120.88213796900325"><ele>630.5</ele><time>2026-04-04T09:21:05Z</time></trkpt><trkpt lat="14.084207896167731" lon="120.8822254238139"><ele>632.0</ele><time>2026-04-04T09:21:07Z</time></trkpt><trkpt lat="14.084216588995853" lon="120.88233307237314"><ele>632.0</ele><time>2026-04-04T09:21:09Z</time></trkpt><trkpt lat="14.084225720066394" lon="120.88244691809811"><ele>632.0</ele><time>2026-04-04T09:21:11Z</time></trkpt><trkpt lat="14.084230639461763" lon="120.88251639418611"><ele>632.0</ele><time>2026-04-04T09:21:12Z</time></trkpt><trkpt lat="14.084237456188697" lon="120.88260011497115"><ele>632.0</ele><time>2026-04-04T09:21:13Z</time></trkpt><trkpt lat="14.084244689324057" lon="120.88267030315959"><ele>632.0</ele><time>2026-04-04T09:21:14Z</time></trkpt><trkpt lat="14.084253522631395" lon="120.88275601895849"><ele>632.0</ele><time>2026-04-04T09:21:15Z</time></trkpt><trkpt lat="14.084261644843517" lon="120.882834834478"><ele>633.2</ele><time>2026-04-04T09:21:16Z</time></trkpt><trkpt lat="14.084269441399325" lon="120.88291046122383"><ele>634.4000000000001</ele><time>2026-04-04T09:21:17Z</time></trkpt><trkpt lat="14.084276433497545" lon="120.88298839621417"><ele>635.5999999999999</ele><time>2026-04-04T09:21:18Z</time></trkpt><trkpt lat="14.084289063204613" lon="120.88310351207667"><ele>636.8</ele><time>2026-04-04T09:21:20Z</time></trkpt><trkpt lat="14.0843046689399" lon="120.8832165584903"><ele>638.0</ele><time>2026-04-04T09:21:22Z</time></trkpt><trkpt lat="14.08431771050308" lon="120.88330724657435"><ele>638.0</ele><time>2026-04-04T09:21:24Z</time></trkpt><trkpt lat="14.084330581878417" lon="120.8833868726354"><ele>638.0</ele><time>2026-04-04T09:21:30Z</time></trkpt><trkpt lat="14.084343208490472" lon="120.8834555095829"><ele>638.0</ele><time>2026-04-04T09:21:35Z</time></trkpt><trkpt lat="14.084356644885755" lon="120.88352747898031"><ele>638.0</ele><time>2026-04-04T09:21:40Z</time></trkpt><trkpt lat="14.084374512092516" lon="120.88360098748947"><ele>638.0</ele><time>2026-04-04T09:21:46Z</time></trkpt><trkpt lat="14.084394958913313" lon="120.8836801534576"><ele>638.0</ele><time>2026-04-04T09:21:48Z</time></trkpt><trkpt lat="14.084424035540946" lon="120.88378718169905"><ele>636.6666666666666</ele><time>2026-04-04T09:21:50Z</time></trkpt><trkpt lat="14.084456629569013" lon="120.88390966294999"><ele>635.3333333333333</ele><time>2026-04-04T09:21:52Z</time></trkpt><trkpt lat="14.084475617648785" lon="120.88398101601341"><ele>634.0</ele><time>2026-04-04T09:21:53Z</time></trkpt><trkpt lat="14.084494313295224" lon="120.88405287566457"><ele>632.6666666666666</ele><time>2026-04-04T09:21:54Z</time></trkpt><trkpt lat="14.084516074464009" lon="120.88413681159703"><ele>631.3333333333334</ele><time>2026-04-04T09:21:55Z</time></trkpt><trkpt lat="14.084536154761594" lon="120.88421426418306"><ele>630.0</ele><time>2026-04-04T09:21:56Z</time></trkpt><trkpt lat="14.084557293817712" lon="120.88428985429839"><ele>627.5</ele><time>2026-04-04T09:21:57Z</time></trkpt><trkpt lat="14.084586422299196" lon="120.88439514238836"><ele>625.0</ele><time>2026-04-04T09:21:59Z</time></trkpt><trkpt lat="14.084606447164024" lon="120.88446752445503"><ele>622.5</ele><time>2026-04-04T09:22:00Z</time></trkpt><trkpt lat="14.084633745196902" lon="120.88454832800096"><ele>620.0</ele><time>2026-04-04T09:22:01Z</time></trkpt><trkpt lat="14.084661647067598" lon="120.88462583609763"><ele>617.5</ele><time>2026-04-04T09:22:03Z</time></trkpt><trkpt lat="14.084691100213947" lon="120.88470765345923"><ele>615.0</ele><time>2026-04-04T09:22:04Z</time></trkpt><trkpt lat="14.084728407009669" lon="120.88481177081518"><ele>615.0</ele><time>2026-04-04T09:22:06Z</time></trkpt><trkpt lat="14.08475498509434" lon="120.88488701199329"><ele>615.0</ele><time>2026-04-04T09:22:08Z</time></trkpt><trkpt lat="14.084777533849167" lon="120.88495084634441"><ele>615.0</ele><time>2026-04-04T09:22:10Z</time></trkpt><trkpt lat="14.084813463317587" lon="120.88505256080168"><ele>615.0</ele><time>2026-04-04T09:22:12Z</time></trkpt><trkpt lat="14.084855638206594" lon="120.88516912157954"><ele>615.0</ele><time>2026-04-04T09:22:14Z</time></trkpt><trkpt lat="14.084882190748077" lon="120.88524122149813"><ele>615.0</ele><time>2026-04-04T09:22:15Z</time></trkpt><trkpt lat="14.084914004827832" lon="120.88532760843025"><ele>618.6</ele><time>2026-04-04T09:22:16Z</time></trkpt><trkpt lat="14.084948752000587" lon="120.88542199329838"><ele>622.2</ele><time>2026-04-04T09:22:17Z</time></trkpt><trkpt lat="14.08498444140755" lon="120.88551928558378"><ele>625.8</ele><time>2026-04-04T09:22:18Z</time></trkpt><trkpt lat="14.085019662644052" lon="120.88561629980923"><ele>629.4</ele><time>2026-04-04T09:22:19Z</time></trkpt><trkpt lat="14.085050948731736" lon="120.88570160667524"><ele>633.0</ele><time>2026-04-04T09:22:20Z</time></trkpt><trkpt lat="14.085077880394367" lon="120.88577372655784"><ele>633.0</ele><time>2026-04-04T09:22:21Z</time></trkpt><trkpt lat="14.085101858708951" lon="120.88583807972586"><ele>633.0</ele><time>2026-04-04T09:22:22Z</time></trkpt><trkpt lat="14.085130990439733" lon="120.88591630245718"><ele>633.0</ele><time>2026-04-04T09:22:23Z</time></trkpt><trkpt lat="14.085165835404071" lon="120.88600923651578"><ele>633.0</ele><time>2026-04-04T09:22:24Z</time></trkpt><trkpt lat="14.085202914046455" lon="120.88611000917794"><ele>633.0</ele><time>2026-04-04T09:22:25Z</time></trkpt><trkpt lat="14.085242808199329" lon="120.88622095680456"><ele>630.5</ele><time>2026-04-04T09:22:26Z</time></trkpt><trkpt lat="14.085283578329" lon="120.88633437915082"><ele>628.0</ele><time>2026-04-04T09:22:27Z</time></trkpt><trkpt lat="14.085324895678387" lon="120.88645005715759"><ele>625.5</ele><time>2026-04-04T09:22:28Z</time></trkpt><trkpt lat="14.08536590271699" lon="120.88656244441277"><ele>623.0</ele><time>2026-04-04T09:22:29Z</time></trkpt><trkpt lat="14.085408306440078" lon="120.88667779608949"><ele>621.0</ele><time>2026-04-04T09:22:30Z</time></trkpt><trkpt lat="14.085450387763851" lon="120.88679227073551"><ele>619.0</ele><time>2026-04-04T09:22:31Z</time></trkpt><trkpt lat="14.085489380379904" lon="120.88689834310868"><ele>617.0</ele><time>2026-04-04T09:22:32Z</time></trkpt><trkpt lat="14.085525906498992" lon="120.88699770582595"><ele>615.0</ele><time>2026-04-04T09:22:33Z</time></trkpt><trkpt lat="14.08556142170022" lon="120.88709431852133"><ele>613.0</ele><time>2026-04-04T09:22:34Z</time></trkpt><trkpt lat="14.085595547637434" lon="120.88718715197065"><ele>613.0</ele><time>2026-04-04T09:22:35Z</time></trkpt><trkpt lat="14.085630806293468" lon="120.88728442131936"><ele>613.0</ele><time>2026-04-04T09:22:36Z</time></trkpt><trkpt lat="14.08566838869452" lon="120.88738871642583"><ele>613.0</ele><time>2026-04-04T09:22:37Z</time></trkpt><trkpt lat="14.085703701901345" lon="120.8874866878187"><ele>613.0</ele><time>2026-04-04T09:22:38Z</time></trkpt><trkpt lat="14.085737644369226" lon="120.88758582037741"><ele>613.0</ele><time>2026-04-04T09:22:39Z</time></trkpt><trkpt lat="14.085766948358597" lon="120.88768726145231"><ele>619.0</ele><time>2026-04-04T09:22:40Z</time></trkpt><trkpt lat="14.085790431697955" lon="120.88778690647665"><ele>625.0</ele><time>2026-04-04T09:22:41Z</time></trkpt><trkpt lat="14.08580671366684" lon="120.8878855565879"><ele>631.0</ele><time>2026-04-04T09:22:42Z</time></trkpt><trkpt lat="14.08581999564907" lon="120.88797675105594"><ele>637.0</ele><time>2026-04-04T09:22:43Z</time></trkpt><trkpt lat="14.085824080836112" lon="120.88807678970477"><ele>643.0</ele><time>2026-04-04T09:22:44Z</time></trkpt><trkpt lat="14.085837044849724" lon="120.8881710204868"><ele>643.0</ele><time>2026-04-04T09:22:45Z</time></trkpt><trkpt lat="14.085828603790464" lon="120.88826660440397"><ele>643.0</ele><time>2026-04-04T09:22:46Z</time></trkpt><trkpt lat="14.085817695758372" lon="120.88835900154358"><ele>643.0</ele><time>2026-04-04T09:22:47Z</time></trkpt><trkpt lat="14.085808795837668" lon="120.88845527073798"><ele>643.0</ele><time>2026-04-04T09:22:48Z</time></trkpt><trkpt lat="14.085803012609231" lon="120.88853264562859"><ele>643.0</ele><time>2026-04-04T09:22:49Z</time></trkpt><trkpt lat="14.085796423101357" lon="120.88862315707992"><ele>643.0</ele><time>2026-04-04T09:22:50Z</time></trkpt><trkpt lat="14.08579107449557" lon="120.8886946984676"><ele>643.2</ele><time>2026-04-04T09:22:51Z</time></trkpt><trkpt lat="14.085780838194696" lon="120.88878900693771"><ele>643.4</ele><time>2026-04-04T09:22:52Z</time></trkpt><trkpt lat="14.085773500011328" lon="120.88888497126472"><ele>643.6</ele><time>2026-04-04T09:22:53Z</time></trkpt><trkpt lat="14.085767498419264" lon="120.88898278506927"><ele>643.8000000000001</ele><time>2026-04-04T09:22:54Z</time></trkpt><trkpt lat="14.085761423454946" lon="120.88908403529167"><ele>644.0</ele><time>2026-04-04T09:22:55Z</time></trkpt><trkpt lat="14.085771611832447" lon="120.88918251976071"><ele>642.2</ele><time>2026-04-04T09:22:56Z</time></trkpt><trkpt lat="14.085795710111405" lon="120.88930030205191"><ele>640.4000000000001</ele><time>2026-04-04T09:22:57Z</time></trkpt><trkpt lat="14.085823081093755" lon="120.88940973910414"><ele>638.6</ele><time>2026-04-04T09:22:58Z</time></trkpt><trkpt lat="14.08585945591265" lon="120.88952186092048"><ele>636.8</ele><time>2026-04-04T09:22:59Z</time></trkpt><trkpt lat="14.085903254856763" lon="120.88962049755202"><ele>635.0</ele><time>2026-04-04T09:23:00Z</time></trkpt><trkpt lat="14.085928982480475" lon="120.88972568730966"><ele>635.0</ele><time>2026-04-04T09:23:01Z</time></trkpt><trkpt lat="14.085968322173537" lon="120.88982311077278"><ele>635.0</ele><time>2026-04-04T09:23:02Z</time></trkpt><trkpt lat="14.086024212166397" lon="120.88991524161499"><ele>635.0</ele><time>2026-04-04T09:23:03Z</time></trkpt><trkpt lat="14.08606824408912" lon="120.89001823144449"><ele>635.0</ele><time>2026-04-04T09:23:04Z</time></trkpt><trkpt lat="14.08611784958711" lon="120.89013198969234"><ele>635.0</ele><time>2026-04-04T09:23:05Z</time></trkpt><trkpt lat="14.086154182973214" lon="120.89025452091855"><ele>632.75</ele><time>2026-04-04T09:23:06Z</time></trkpt><trkpt lat="14.086205015705353" lon="120.89037377204832"><ele>630.5</ele><time>2026-04-04T09:23:07Z</time></trkpt><trkpt lat="14.08625500178015" lon="120.89048917770083"><ele>628.25</ele><time>2026-04-04T09:23:08Z</time></trkpt><trkpt lat="14.086304536763567" lon="120.89060471631916"><ele>626.0</ele><time>2026-04-04T09:23:09Z</time></trkpt><trkpt lat="14.086360442150184" lon="120.89071174784057"><ele>626.0</ele><time>2026-04-04T09:23:10Z</time></trkpt><trkpt lat="14.086406203065563" lon="120.89083430019548"><ele>626.0</ele><time>2026-04-04T09:23:11Z</time></trkpt><trkpt lat="14.0864636745484" lon="120.89096226325583"><ele>626.0</ele><time>2026-04-04T09:23:12Z</time></trkpt><trkpt lat="14.086516330772772" lon="120.89108607607696"><ele>626.0</ele><time>2026-04-04T09:23:13Z</time></trkpt><trkpt lat="14.086570248421056" lon="120.8911995146114"><ele>628.25</ele><time>2026-04-04T09:23:14Z</time></trkpt><trkpt lat="14.086623128720744" lon="120.89132088867892"><ele>630.5</ele><time>2026-04-04T09:23:15Z</time></trkpt><trkpt lat="14.086671701944976" lon="120.8914368060546"><ele>632.75</ele><time>2026-04-04T09:23:16Z</time></trkpt><trkpt lat="14.086721964834851" lon="120.89154551577393"><ele>635.0</ele><time>2026-04-04T09:23:17Z</time></trkpt><trkpt lat="14.086775577661115" lon="120.89165682449465"><ele>635.0</ele><time>2026-04-04T09:23:18Z</time></trkpt><trkpt lat="14.086817070525882" lon="120.89174792660185"><ele>635.0</ele><time>2026-04-04T09:23:19Z</time></trkpt><trkpt lat="14.086865638885937" lon="120.89184535661043"><ele>635.0</ele><time>2026-04-04T09:23:20Z</time></trkpt><trkpt lat="14.086908335974572" lon="120.89193404063757"><ele>635.0</ele><time>2026-04-04T09:23:21Z</time></trkpt><trkpt lat="14.086973639557394" lon="120.89201907769147"><ele>635.0</ele><time>2026-04-04T09:23:22Z</time></trkpt><trkpt lat="14.087012183196615" lon="120.89209299853582"><ele>632.4</ele><time>2026-04-04T09:23:23Z</time></trkpt><trkpt lat="14.087068460040856" lon="120.89216968892543"><ele>629.8</ele><time>2026-04-04T09:23:24Z</time></trkpt><trkpt lat="14.087130921647734" lon="120.89224573497681"><ele>627.2</ele><time>2026-04-04T09:23:25Z</time></trkpt><trkpt lat="14.087188059559095" lon="120.89231559807794"><ele>624.6</ele><time>2026-04-04T09:23:26Z</time></trkpt><trkpt lat="14.087249656401035" lon="120.89238895234612"><ele>622.0</ele><time>2026-04-04T09:23:27Z</time></trkpt><trkpt lat="14.087308816911372" lon="120.89245874047828"><ele>622.0</ele><time>2026-04-04T09:23:28Z</time></trkpt><trkpt lat="14.08737393656039" lon="120.89253647765595"><ele>622.0</ele><time>2026-04-04T09:23:29Z</time></trkpt><trkpt lat="14.087434942021565" lon="120.89261232969626"><ele>622.0</ele><time>2026-04-04T09:23:30Z</time></trkpt><trkpt lat="14.087496036807588" lon="120.89268992255565"><ele>622.0</ele><time>2026-04-04T09:23:31Z</time></trkpt><trkpt lat="14.087555199528422" lon="120.89276817390633"><ele>622.0</ele><time>2026-04-04T09:23:32Z</time></trkpt><trkpt lat="14.087619978718823" lon="120.89285825060078"><ele>626.4000000000001</ele><time>2026-04-04T09:23:33Z</time></trkpt><trkpt lat="14.087669720824762" lon="120.89293329775013"><ele>630.8000000000001</ele><time>2026-04-04T09:23:34Z</time></trkpt><trkpt lat="14.087732118398002" lon="120.89302635262585"><ele>635.2</ele><time>2026-04-04T09:23:35Z</time></trkpt><trkpt lat="14.087778051439408" lon="120.89311137409744"><ele>639.6</ele><time>2026-04-04T09:23:36Z</time></trkpt><trkpt lat="14.08781437630387" lon="120.89321127005007"><ele>644.0</ele><time>2026-04-04T09:23:37Z</time></trkpt><trkpt lat="14.087869008298538" lon="120.89332065633953"><ele>644.0</ele><time>2026-04-04T09:23:38Z</time></trkpt><trkpt lat="14.087914690621785" lon="120.89342113866505"><ele>644.0</ele><time>2026-04-04T09:23:39Z</time></trkpt><trkpt lat="14.087961410770426" lon="120.89350257608135"><ele>644.0</ele><time>2026-04-04T09:23:40Z</time></trkpt><trkpt lat="14.08798621151254" lon="120.89359589694833"><ele>644.0</ele><time>2026-04-04T09:23:41Z</time></trkpt><trkpt lat="14.08800892256308" lon="120.89369045104631"><ele>644.0</ele><time>2026-04-04T09:23:42Z</time></trkpt><trkpt lat="14.088038208032291" lon="120.89379775236448"><ele>644.0</ele><time>2026-04-04T09:23:43Z</time></trkpt><trkpt lat="14.088064926112532" lon="120.89391535379704"><ele>644.0</ele><time>2026-04-04T09:23:44Z</time></trkpt><trkpt lat="14.088085168113132" lon="120.89402454846467"><ele>644.0</ele><time>2026-04-04T09:23:45Z</time></trkpt><trkpt lat="14.088112754449076" lon="120.89415234052862"><ele>644.0</ele><time>2026-04-04T09:23:46Z</time></trkpt><trkpt lat="14.088147797069286" lon="120.89427839390002"><ele>644.0</ele><time>2026-04-04T09:23:47Z</time></trkpt><trkpt lat="14.088157506262599" lon="120.89441228723014"><ele>644.0</ele><time>2026-04-04T09:23:48Z</time></trkpt><trkpt lat="14.088176345908986" lon="120.8945441791885"><ele>644.0</ele><time>2026-04-04T09:23:49Z</time></trkpt><trkpt lat="14.088191600148676" lon="120.89467896532895"><ele>644.0</ele><time>2026-04-04T09:23:50Z</time></trkpt><trkpt lat="14.088207010309073" lon="120.89481512918749"><ele>644.0</ele><time>2026-04-04T09:23:51Z</time></trkpt><trkpt lat="14.088216009095051" lon="120.89495255302995"><ele>644.0</ele><time>2026-04-04T09:23:52Z</time></trkpt><trkpt lat="14.08822209265038" lon="120.89508624453214"><ele>644.0</ele><time>2026-04-04T09:23:53Z</time></trkpt><trkpt lat="14.088225581563067" lon="120.89522295105118"><ele>644.0</ele><time>2026-04-04T09:23:54Z</time></trkpt><trkpt lat="14.08822784367397" lon="120.89536923421235"><ele>642.6666666666666</ele><time>2026-04-04T09:23:55Z</time></trkpt><trkpt lat="14.088227221139713" lon="120.89551670307311"><ele>641.3333333333334</ele><time>2026-04-04T09:23:56Z</time></trkpt><trkpt lat="14.088220899129192" lon="120.895675712965"><ele>640.0</ele><time>2026-04-04T09:23:57Z</time></trkpt><trkpt lat="14.088214645335109" lon="120.89583275269311"><ele>639.6666666666667</ele><time>2026-04-04T09:23:58Z</time></trkpt><trkpt lat="14.088202320630476" lon="120.89599708437535"><ele>639.3333333333334</ele><time>2026-04-04T09:23:59Z</time></trkpt><trkpt lat="14.088189206439997" lon="120.8961652708532"><ele>639.0</ele><time>2026-04-04T09:24:00Z</time></trkpt><trkpt lat="14.088175503632675" lon="120.89633258907206"><ele>639.0</ele><time>2026-04-04T09:24:01Z</time></trkpt><trkpt lat="14.08816142696845" lon="120.89650153538932"><ele>639.0</ele><time>2026-04-04T09:24:02Z</time></trkpt><trkpt lat="14.08814379918137" lon="120.8966665366661"><ele>639.0</ele><time>2026-04-04T09:24:03Z</time></trkpt><trkpt lat="14.088128952936758" lon="120.89682001029873"><ele>638.25</ele><time>2026-04-04T09:24:04Z</time></trkpt><trkpt lat="14.088116351965427" lon="120.8969683024295"><ele>637.5</ele><time>2026-04-04T09:24:05Z</time></trkpt><trkpt lat="14.088108990316067" lon="120.89712200019429"><ele>636.75</ele><time>2026-04-04T09:24:06Z</time></trkpt><trkpt lat="14.088112554591852" lon="120.89727268834635"><ele>636.0</ele><time>2026-04-04T09:24:07Z</time></trkpt><trkpt lat="14.088145390244918" lon="120.89742013288321"><ele>636.0</ele><time>2026-04-04T09:24:08Z</time></trkpt><trkpt lat="14.088165370686761" lon="120.8975674016799"><ele>636.0</ele><time>2026-04-04T09:24:09Z</time></trkpt><trkpt lat="14.088199767500866" lon="120.8977114611688"><ele>636.0</ele><time>2026-04-04T09:24:10Z</time></trkpt><trkpt lat="14.088246677818454" lon="120.89785207427708"><ele>636.0</ele><time>2026-04-04T09:24:11Z</time></trkpt><trkpt lat="14.088306534775333" lon="120.8979916169539"><ele>636.0</ele><time>2026-04-04T09:24:12Z</time></trkpt><trkpt lat="14.088360228009162" lon="120.89813887756338"><ele>636.0</ele><time>2026-04-04T09:24:13Z</time></trkpt><trkpt lat="14.088414466214337" lon="120.89828359897616"><ele>636.0</ele><time>2026-04-04T09:24:14Z</time></trkpt><trkpt lat="14.088468601085122" lon="120.89842936416647"><ele>636.0</ele><time>2026-04-04T09:24:15Z</time></trkpt><trkpt lat="14.08852571900406" lon="120.89857155889344"><ele>636.0</ele><time>2026-04-04T09:24:16Z</time></trkpt><trkpt lat="14.08857481040795" lon="120.89871046093931"><ele>636.0</ele><time>2026-04-04T09:24:17Z</time></trkpt><trkpt lat="14.088620263269293" lon="120.89884153891029"><ele>636.0</ele><time>2026-04-04T09:24:18Z</time></trkpt><trkpt lat="14.08866198271099" lon="120.89898499070041"><ele>636.0</ele><time>2026-04-04T09:24:19Z</time></trkpt><trkpt lat="14.088713495969113" lon="120.89913347749108"><ele>636.0</ele><time>2026-04-04T09:24:20Z</time></trkpt><trkpt lat="14.088765364613607" lon="120.89928293602271"><ele>636.0</ele><time>2026-04-04T09:24:21Z</time></trkpt><trkpt lat="14.088829596353087" lon="120.8994342572804"><ele>633.6666666666666</ele><time>2026-04-04T09:24:22Z</time></trkpt><trkpt lat="14.088853057968157" lon="120.89959514447995"><ele>631.3333333333333</ele><time>2026-04-04T09:24:23Z</time></trkpt><trkpt lat="14.08889318494831" lon="120.89975698237258"><ele>629.0</ele><time>2026-04-04T09:24:24Z</time></trkpt><trkpt lat="14.088917631089068" lon="120.89989787190972"><ele>629.0</ele><time>2026-04-04T09:24:25Z</time></trkpt><trkpt lat="14.088933468700878" lon="120.90001720182725"><ele>629.0</ele><time>2026-04-04T09:24:26Z</time></trkpt><trkpt lat="14.088941058716193" lon="120.90009673519457"><ele>629.0</ele><time>2026-04-04T09:24:27Z</time></trkpt><trkpt lat="14.08895004158765" lon="120.9001996487185"><ele>629.0</ele><time>2026-04-04T09:24:29Z</time></trkpt><trkpt lat="14.088959065380047" lon="120.9003031569413"><ele>629.0</ele><time>2026-04-04T09:24:32Z</time></trkpt><trkpt lat="14.088969200728423" lon="120.9004257135423"><ele>627.3333333333333</ele><time>2026-04-04T09:24:34Z</time></trkpt><trkpt lat="14.08897478617585" lon="120.90049603513475"><ele>625.6666666666666</ele><time>2026-04-04T09:24:35Z</time></trkpt><trkpt lat="14.088980591968621" lon="120.9005695964396"><ele>624.0</ele><time>2026-04-04T09:24:36Z</time></trkpt><trkpt lat="14.088986219393385" lon="120.90065128945228"><ele>622.3333333333334</ele><time>2026-04-04T09:24:37Z</time></trkpt><trkpt lat="14.088992073416964" lon="120.90073815630521"><ele>620.6666666666667</ele><time>2026-04-04T09:24:38Z</time></trkpt><trkpt lat="14.088998208278328" lon="120.90082919045093"><ele>619.0</ele><time>2026-04-04T09:24:39Z</time></trkpt><trkpt lat="14.089004489883754" lon="120.90092240212809"><ele>616.2</ele><time>2026-04-04T09:24:40Z</time></trkpt><trkpt lat="14.089010691107273" lon="120.90101567081281"><ele>613.4</ele><time>2026-04-04T09:24:41Z</time></trkpt><trkpt lat="14.089016605625389" lon="120.90110718337588"><ele>610.6</ele><time>2026-04-04T09:24:42Z</time></trkpt><trkpt lat="14.089023407850442" lon="120.90121508454766"><ele>607.8</ele><time>2026-04-04T09:24:43Z</time></trkpt><trkpt lat="14.089030258665083" lon="120.90131538885373"><ele>605.0</ele><time>2026-04-04T09:24:44Z</time></trkpt><trkpt lat="14.089037445317171" lon="120.90142061009388"><ele>605.0</ele><time>2026-04-04T09:24:45Z</time></trkpt><trkpt lat="14.089045574767644" lon="120.90152893002777"><ele>605.0</ele><time>2026-04-04T09:24:46Z</time></trkpt><trkpt lat="14.089052812531959" lon="120.9016372181219"><ele>605.0</ele><time>2026-04-04T09:24:47Z</time></trkpt><trkpt lat="14.089059864748709" lon="120.9017458950063"><ele>605.0</ele><time>2026-04-04T09:24:48Z</time></trkpt><trkpt lat="14.089081764039753" lon="120.90185414475363"><ele>605.0</ele><time>2026-04-04T09:24:49Z</time></trkpt><trkpt lat="14.089071275497778" lon="120.9019733751926"><ele>607.5</ele><time>2026-04-04T09:24:50Z</time></trkpt><trkpt lat="14.089079451518081" lon="120.90208495214422"><ele>610.0</ele><time>2026-04-04T09:24:51Z</time></trkpt><trkpt lat="14.089088231322753" lon="120.90220476881699"><ele>612.5</ele><time>2026-04-04T09:24:52Z</time></trkpt><trkpt lat="14.08909669517142" lon="120.90232027369387"><ele>615.0</ele><time>2026-04-04T09:24:53Z</time></trkpt><trkpt lat="14.089104085050877" lon="120.90243926001216"><ele>622.5</ele><time>2026-04-04T09:24:54Z</time></trkpt><trkpt lat="14.089127042230407" lon="120.90255937624644"><ele>630.0</ele><time>2026-04-04T09:24:55Z</time></trkpt><trkpt lat="14.089133111102365" lon="120.90267736380166"><ele>637.5</ele><time>2026-04-04T09:24:56Z</time></trkpt><trkpt lat="14.089142792266568" lon="120.90279381419835"><ele>645.0</ele><time>2026-04-04T09:24:57Z</time></trkpt><trkpt lat="14.089150608152341" lon="120.90291223595659"><ele>645.0</ele><time>2026-04-04T09:24:58Z</time></trkpt><trkpt lat="14.089158479732069" lon="120.90302879708202"><ele>645.0</ele><time>2026-04-04T09:24:59Z</time></trkpt><trkpt lat="14.08916431298753" lon="120.90314750608921"><ele>645.0</ele><time>2026-04-04T09:25:00Z</time></trkpt><trkpt lat="14.089153322027741" lon="120.90326418444438"><ele>645.0</ele><time>2026-04-04T09:25:01Z</time></trkpt><trkpt lat="14.089157148712468" lon="120.90338362107535"><ele>645.2</ele><time>2026-04-04T09:25:02Z</time></trkpt><trkpt lat="14.089163900077823" lon="120.90349394218053"><ele>645.4</ele><time>2026-04-04T09:25:03Z</time></trkpt><trkpt lat="14.089149639764676" lon="120.90360618707605"><ele>645.5999999999999</ele><time>2026-04-04T09:25:04Z</time></trkpt><trkpt lat="14.08910734451248" lon="120.90371465594504"><ele>645.8</ele><time>2026-04-04T09:25:05Z</time></trkpt><trkpt lat="14.08906817791407" lon="120.90382386300762"><ele>646.0</ele><time>2026-04-04T09:25:06Z</time></trkpt><trkpt lat="14.089029771245636" lon="120.90393318255266"><ele>645.75</ele><time>2026-04-04T09:25:07Z</time></trkpt><trkpt lat="14.088976377698488" lon="120.90404592771685"><ele>645.5</ele><time>2026-04-04T09:25:08Z</time></trkpt><trkpt lat="14.088920683709508" lon="120.90415628749251"><ele>645.25</ele><time>2026-04-04T09:25:09Z</time></trkpt><trkpt lat="14.088863523714034" lon="120.90427111844753"><ele>645.0</ele><time>2026-04-04T09:25:10Z</time></trkpt><trkpt lat="14.088806012186463" lon="120.904384695432"><ele>645.0</ele><time>2026-04-04T09:25:11Z</time></trkpt><trkpt lat="14.088744668205972" lon="120.90450584099212"><ele>645.0</ele><time>2026-04-04T09:25:12Z</time></trkpt><trkpt lat="14.088699498333495" lon="120.904622662139"><ele>645.0</ele><time>2026-04-04T09:25:13Z</time></trkpt><trkpt lat="14.088635832325032" lon="120.9047428855402"><ele>645.0</ele><time>2026-04-04T09:25:14Z</time></trkpt><trkpt lat="14.088568514434913" lon="120.90486482665278"><ele>645.0</ele><time>2026-04-04T09:25:15Z</time></trkpt><trkpt lat="14.088502763684653" lon="120.90498632840394"><ele>645.0</ele><time>2026-04-04T09:25:16Z</time></trkpt><trkpt lat="14.08844123572843" lon="120.90511072626698"><ele>645.0</ele><time>2026-04-04T09:25:17Z</time></trkpt><trkpt lat="14.088386776391625" lon="120.90523416041256"><ele>645.0</ele><time>2026-04-04T09:25:18Z</time></trkpt><trkpt lat="14.088341898633573" lon="120.90536205002246"><ele>647.0</ele><time>2026-04-04T09:25:19Z</time></trkpt><trkpt lat="14.088302333745233" lon="120.90549816968436"><ele>649.0</ele><time>2026-04-04T09:25:20Z</time></trkpt><trkpt lat="14.088276140565187" lon="120.90564155842658"><ele>651.0</ele><time>2026-04-04T09:25:21Z</time></trkpt><trkpt lat="14.088257071542156" lon="120.90578250722254"><ele>653.0</ele><time>2026-04-04T09:25:22Z</time></trkpt><trkpt lat="14.088241975386282" lon="120.9059182559689"><ele>645.75</ele><time>2026-04-04T09:25:23Z</time></trkpt><trkpt lat="14.088226657524963" lon="120.90604795197635"><ele>638.5</ele><time>2026-04-04T09:25:24Z</time></trkpt><trkpt lat="14.088205388437633" lon="120.90616591507752"><ele>631.25</ele><time>2026-04-04T09:25:25Z</time></trkpt><trkpt lat="14.088192443293261" lon="120.90628834340166"><ele>624.0</ele><time>2026-04-04T09:25:26Z</time></trkpt><trkpt lat="14.08817634476154" lon="120.90640442968333"><ele>624.0</ele><time>2026-04-04T09:25:27Z</time></trkpt><trkpt lat="14.088160664601247" lon="120.90652010204997"><ele>624.0</ele><time>2026-04-04T09:25:28Z</time></trkpt><trkpt lat="14.088142463479679" lon="120.90664213468378"><ele>624.0</ele><time>2026-04-04T09:25:29Z</time></trkpt><trkpt lat="14.088128708840381" lon="120.90675995901509"><ele>624.0</ele><time>2026-04-04T09:25:30Z</time></trkpt><trkpt lat="14.088112224647762" lon="120.90687732669767"><ele>627.75</ele><time>2026-04-04T09:25:31Z</time></trkpt><trkpt lat="14.088097929017069" lon="120.90699895668723"><ele>631.5</ele><time>2026-04-04T09:25:32Z</time></trkpt><trkpt lat="14.088081431180735" lon="120.90712014745833"><ele>635.25</ele><time>2026-04-04T09:25:33Z</time></trkpt><trkpt lat="14.08806776449098" lon="120.90724240459969"><ele>639.0</ele><time>2026-04-04T09:25:34Z</time></trkpt><trkpt lat="14.088053846795694" lon="120.90736594585614"><ele>639.0</ele><time>2026-04-04T09:25:35Z</time></trkpt><trkpt lat="14.088042658419448" lon="120.90749008048225"><ele>639.0</ele><time>2026-04-04T09:25:36Z</time></trkpt><trkpt lat="14.08804103792888" lon="120.90761543813596"><ele>639.0</ele><time>2026-04-04T09:25:37Z</time></trkpt><trkpt lat="14.088043465660016" lon="120.90773916185157"><ele>639.0</ele><time>2026-04-04T09:25:38Z</time></trkpt><trkpt lat="14.088058770116032" lon="120.90785957207886"><ele>636.6</ele><time>2026-04-04T09:25:39Z</time></trkpt><trkpt lat="14.088079485926903" lon="120.90797898469563"><ele>634.2</ele><time>2026-04-04T09:25:40Z</time></trkpt><trkpt lat="14.088106728778719" lon="120.90809264246731"><ele>631.8000000000001</ele><time>2026-04-04T09:25:41Z</time></trkpt><trkpt lat="14.088143512487823" lon="120.9081955305944"><ele>629.4</ele><time>2026-04-04T09:25:42Z</time></trkpt><trkpt lat="14.088190361597187" lon="120.90829212700551"><ele>627.0</ele><time>2026-04-04T09:25:43Z</time></trkpt><trkpt lat="14.088237426116894" lon="120.90838448086342"><ele>632.8</ele><time>2026-04-04T09:25:44Z</time></trkpt><trkpt lat="14.088286584292472" lon="120.90847087335331"><ele>638.6</ele><time>2026-04-04T09:25:45Z</time></trkpt><trkpt lat="14.08833766944521" lon="120.908553933062"><ele>644.4</ele><time>2026-04-04T09:25:46Z</time></trkpt><trkpt lat="14.088391904135381" lon="120.9086452194168"><ele>650.1999999999999</ele><time>2026-04-04T09:25:47Z</time></trkpt><trkpt lat="14.08844899457488" lon="120.9087357293623"><ele>656.0</ele><time>2026-04-04T09:25:48Z</time></trkpt><trkpt lat="14.08850818558133" lon="120.90882524505588"><ele>656.0</ele><time>2026-04-04T09:25:49Z</time></trkpt><trkpt lat="14.088563565138958" lon="120.90891436976688"><ele>656.0</ele><time>2026-04-04T09:25:50Z</time></trkpt><trkpt lat="14.088616829445376" lon="120.90900430072492"><ele>656.0</ele><time>2026-04-04T09:25:51Z</time></trkpt><trkpt lat="14.088671689679048" lon="120.9090903088554"><ele>656.0</ele><time>2026-04-04T09:25:52Z</time></trkpt><trkpt lat="14.088729317846548" lon="120.90918198958089"><ele>656.0</ele><time>2026-04-04T09:25:53Z</time></trkpt><trkpt lat="14.088789773404375" lon="120.90927450342762"><ele>655.0</ele><time>2026-04-04T09:25:54Z</time></trkpt><trkpt lat="14.08885161926895" lon="120.90937386157277"><ele>654.0</ele><time>2026-04-04T09:25:55Z</time></trkpt><trkpt lat="14.088918513190958" lon="120.90947936435043"><ele>653.0</ele><time>2026-04-04T09:25:56Z</time></trkpt><trkpt lat="14.0889873567276" lon="120.90958822812046"><ele>652.0</ele><time>2026-04-04T09:25:57Z</time></trkpt><trkpt lat="14.089055478651908" lon="120.90969517791797"><ele>655.5</ele><time>2026-04-04T09:25:58Z</time></trkpt><trkpt lat="14.08912074045557" lon="120.9098021147288"><ele>659.0</ele><time>2026-04-04T09:25:59Z</time></trkpt><trkpt lat="14.089185128186596" lon="120.90990536102318"><ele>662.5</ele><time>2026-04-04T09:26:00Z</time></trkpt><trkpt lat="14.089249181646553" lon="120.910013676519"><ele>666.0</ele><time>2026-04-04T09:26:01Z</time></trkpt><trkpt lat="14.089326252042904" lon="120.91012869155296"><ele>666.0</ele><time>2026-04-04T09:26:02Z</time></trkpt><trkpt lat="14.089403603057947" lon="120.91024053789909"><ele>666.0</ele><time>2026-04-04T09:26:03Z</time></trkpt><trkpt lat="14.089481058789527" lon="120.91035512589667"><ele>666.0</ele><time>2026-04-04T09:26:04Z</time></trkpt><trkpt lat="14.089538293269774" lon="120.91047643200008"><ele>666.0</ele><time>2026-04-04T09:26:05Z</time></trkpt><trkpt lat="14.089605806803318" lon="120.91058276848945"><ele>666.0</ele><time>2026-04-04T09:26:06Z</time></trkpt><trkpt lat="14.089671399271523" lon="120.91068607921243"><ele>666.0</ele><time>2026-04-04T09:26:07Z</time></trkpt><trkpt lat="14.089735118861626" lon="120.91078687864388"><ele>666.0</ele><time>2026-04-04T09:26:08Z</time></trkpt><trkpt lat="14.089803824824552" lon="120.91088608220144"><ele>666.0</ele><time>2026-04-04T09:26:09Z</time></trkpt><trkpt lat="14.089888615947123" lon="120.91097201853339"><ele>663.75</ele><time>2026-04-04T09:26:10Z</time></trkpt><trkpt lat="14.089966535155789" lon="120.91107340814463"><ele>661.5</ele><time>2026-04-04T09:26:11Z</time></trkpt><trkpt lat="14.090046893705837" lon="120.91116891617467"><ele>659.25</ele><time>2026-04-04T09:26:12Z</time></trkpt><trkpt lat="14.090136602003621" lon="120.911257377802"><ele>657.0</ele><time>2026-04-04T09:26:13Z</time></trkpt><trkpt lat="14.090229680182425" lon="120.91133190039798"><ele>657.0</ele><time>2026-04-04T09:26:14Z</time></trkpt><trkpt lat="14.090319820442692" lon="120.91139172717737"><ele>657.0</ele><time>2026-04-04T09:26:15Z</time></trkpt><trkpt lat="14.090425232760134" lon="120.91144995773215"><ele>657.0</ele><time>2026-04-04T09:26:16Z</time></trkpt><trkpt lat="14.090525544949887" lon="120.91149173275947"><ele>657.0</ele><time>2026-04-04T09:26:17Z</time></trkpt><trkpt lat="14.090613492902925" lon="120.91152147298978"><ele>657.0</ele><time>2026-04-04T09:26:18Z</time></trkpt><trkpt lat="14.09072141231253" lon="120.91154855872293"><ele>655.4000000000001</ele><time>2026-04-04T09:26:19Z</time></trkpt><trkpt lat="14.090820217396304" lon="120.9115609999724"><ele>653.8000000000001</ele><time>2026-04-04T09:26:20Z</time></trkpt><trkpt lat="14.090900717548026" lon="120.91156728609792"><ele>652.2</ele><time>2026-04-04T09:26:21Z</time></trkpt><trkpt lat="14.091003542984488" lon="120.91157700009106"><ele>650.6</ele><time>2026-04-04T09:26:23Z</time></trkpt><trkpt lat="14.091093780544917" lon="120.9115907745596"><ele>649.0</ele><time>2026-04-04T09:26:25Z</time></trkpt><trkpt lat="14.09117851434962" lon="120.91160475998443"><ele>649.0</ele><time>2026-04-04T09:26:27Z</time></trkpt><trkpt lat="14.091242853126111" lon="120.91161490360815"><ele>649.0</ele><time>2026-04-04T09:26:28Z</time></trkpt><trkpt lat="14.09130757305095" lon="120.9116266892621"><ele>649.0</ele><time>2026-04-04T09:26:29Z</time></trkpt><trkpt lat="14.091428532672637" lon="120.91164094724152"><ele>649.0</ele><time>2026-04-04T09:26:31Z</time></trkpt><trkpt lat="14.091499669571864" lon="120.91165309523075"><ele>649.0</ele><time>2026-04-04T09:26:32Z</time></trkpt><trkpt lat="14.091580780643579" lon="120.91167239316464"><ele>649.0</ele><time>2026-04-04T09:26:33Z</time></trkpt><trkpt lat="14.09165898443256" lon="120.91168600127895"><ele>649.3333333333334</ele><time>2026-04-04T09:26:34Z</time></trkpt><trkpt lat="14.091724152211983" lon="120.91170402812489"><ele>649.6666666666667</ele><time>2026-04-04T09:26:35Z</time></trkpt><trkpt lat="14.091800192726813" lon="120.91172944587171"><ele>650.0</ele><time>2026-04-04T09:26:36Z</time></trkpt><trkpt lat="14.091870438251691" lon="120.91175207218883"><ele>650.3333333333334</ele><time>2026-04-04T09:26:37Z</time></trkpt><trkpt lat="14.091949792273335" lon="120.91178714413778"><ele>650.6666666666666</ele><time>2026-04-04T09:26:38Z</time></trkpt><trkpt lat="14.092019717154548" lon="120.91182327886565"><ele>651.0</ele><time>2026-04-04T09:26:39Z</time></trkpt><trkpt lat="14.092078829929527" lon="120.91185909676236"><ele>644.3333333333334</ele><time>2026-04-04T09:26:40Z</time></trkpt><trkpt lat="14.092139776302108" lon="120.91190130347827"><ele>637.6666666666666</ele><time>2026-04-04T09:26:41Z</time></trkpt><trkpt lat="14.09220046833053" lon="120.9119484745364"><ele>631.0</ele><time>2026-04-04T09:26:42Z</time></trkpt><trkpt lat="14.092261601025973" lon="120.9120016720097"><ele>624.3333333333333</ele><time>2026-04-04T09:26:43Z</time></trkpt><trkpt lat="14.09231499655243" lon="120.91205125630259"><ele>617.6666666666666</ele><time>2026-04-04T09:26:44Z</time></trkpt><trkpt lat="14.092366998447964" lon="120.91211265992384"><ele>611.0</ele><time>2026-04-04T09:26:45Z</time></trkpt><trkpt lat="14.0924181155488" lon="120.91217120499454"><ele>618.2</ele><time>2026-04-04T09:26:46Z</time></trkpt><trkpt lat="14.092481194053242" lon="120.91224415711287"><ele>625.4000000000001</ele><time>2026-04-04T09:26:47Z</time></trkpt><trkpt lat="14.092537054716095" lon="120.91232604757374"><ele>632.6</ele><time>2026-04-04T09:26:48Z</time></trkpt><trkpt lat="14.092589039733902" lon="120.91241007545752"><ele>639.8000000000001</ele><time>2026-04-04T09:26:49Z</time></trkpt><trkpt lat="14.092644019033912" lon="120.91249421649184"><ele>647.0</ele><time>2026-04-04T09:26:50Z</time></trkpt><trkpt lat="14.09269276853253" lon="120.91257064968067"><ele>641.6666666666666</ele><time>2026-04-04T09:26:51Z</time></trkpt><trkpt lat="14.092736968605312" lon="120.9126488068367"><ele>636.3333333333333</ele><time>2026-04-04T09:26:52Z</time></trkpt><trkpt lat="14.092786118793226" lon="120.91273067992523"><ele>631.0</ele><time>2026-04-04T09:26:53Z</time></trkpt><trkpt lat="14.09283690763861" lon="120.91281911721488"><ele>625.6666666666666</ele><time>2026-04-04T09:26:54Z</time></trkpt><trkpt lat="14.092878601925886" lon="120.9128971354863"><ele>620.3333333333334</ele><time>2026-04-04T09:26:55Z</time></trkpt><trkpt lat="14.092901316750092" lon="120.91297199393902"><ele>615.0</ele><time>2026-04-04T09:26:56Z</time></trkpt><trkpt lat="14.092936900348219" lon="120.91304369578049"><ele>615.0</ele><time>2026-04-04T09:26:57Z</time></trkpt><trkpt lat="14.092975446256515" lon="120.91310875779777"><ele>615.0</ele><time>2026-04-04T09:26:58Z</time></trkpt><trkpt lat="14.093054261989268" lon="120.91320662165901"><ele>615.0</ele><time>2026-04-04T09:27:00Z</time></trkpt><trkpt lat="14.093091796684996" lon="120.91327259290462"><ele>615.0</ele><time>2026-04-04T09:27:01Z</time></trkpt><trkpt lat="14.093130376051844" lon="120.91333983483413"><ele>615.0</ele><time>2026-04-04T09:27:02Z</time></trkpt><trkpt lat="14.093173346258075" lon="120.91341469864514"><ele>615.0</ele><time>2026-04-04T09:27:03Z</time></trkpt><trkpt lat="14.093216550183046" lon="120.91349428255634"><ele>619.0</ele><time>2026-04-04T09:27:04Z</time></trkpt><trkpt lat="14.093264620958212" lon="120.91358319474018"><ele>623.0</ele><time>2026-04-04T09:27:05Z</time></trkpt><trkpt lat="14.09331999907895" lon="120.91367811707026"><ele>627.0</ele><time>2026-04-04T09:27:06Z</time></trkpt><trkpt lat="14.093385189743358" lon="120.9137704633683"><ele>631.0</ele><time>2026-04-04T09:27:07Z</time></trkpt><trkpt lat="14.09345555702309" lon="120.9138832500903"><ele>635.0</ele><time>2026-04-04T09:27:08Z</time></trkpt><trkpt lat="14.093527173125555" lon="120.91399830010737"><ele>635.0</ele><time>2026-04-04T09:27:09Z</time></trkpt><trkpt lat="14.093606477044057" lon="120.9140999738998"><ele>635.0</ele><time>2026-04-04T09:27:10Z</time></trkpt><trkpt lat="14.093693009045792" lon="120.91420117595325"><ele>635.0</ele><time>2026-04-04T09:27:11Z</time></trkpt><trkpt lat="14.093802135693231" lon="120.91431043122923"><ele>635.0</ele><time>2026-04-04T09:27:12Z</time></trkpt><trkpt lat="14.09389326684385" lon="120.91439691435035"><ele>633.25</ele><time>2026-04-04T09:27:13Z</time></trkpt><trkpt lat="14.093994778456983" lon="120.91449300373266"><ele>631.5</ele><time>2026-04-04T09:27:14Z</time></trkpt><trkpt lat="14.094105698077955" lon="120.91458914689238"><ele>629.75</ele><time>2026-04-04T09:27:15Z</time></trkpt><trkpt lat="14.094216824334989" lon="120.91468447878191"><ele>628.0</ele><time>2026-04-04T09:27:16Z</time></trkpt><trkpt lat="14.0943211233051" lon="120.91478107644696"><ele>628.0</ele><time>2026-04-04T09:27:17Z</time></trkpt><trkpt lat="14.094413864600858" lon="120.91486533531123"><ele>628.0</ele><time>2026-04-04T09:27:18Z</time></trkpt><trkpt lat="14.094503549054531" lon="120.91494728277803"><ele>628.0</ele><time>2026-04-04T09:27:19Z</time></trkpt><trkpt lat="14.094589928324947" lon="120.91502415729849"><ele>628.0</ele><time>2026-04-04T09:27:20Z</time></trkpt><trkpt lat="14.094669532332716" lon="120.91509718148518"><ele>629.6666666666667</ele><time>2026-04-04T09:27:21Z</time></trkpt><trkpt lat="14.094741219540767" lon="120.91516435768169"><ele>631.3333333333334</ele><time>2026-04-04T09:27:22Z</time></trkpt><trkpt lat="14.094810673583819" lon="120.91522595097916"><ele>633.0</ele><time>2026-04-04T09:27:23Z</time></trkpt><trkpt lat="14.094877786052217" lon="120.91528427521868"><ele>634.6666666666666</ele><time>2026-04-04T09:27:24Z</time></trkpt><trkpt lat="14.094939493623801" lon="120.91534365055176"><ele>636.3333333333333</ele><time>2026-04-04T09:27:25Z</time></trkpt><trkpt lat="14.09499856466314" lon="120.91539752747657"><ele>638.0</ele><time>2026-04-04T09:27:26Z</time></trkpt><trkpt lat="14.095060823610476" lon="120.91544797170425"><ele>638.0</ele><time>2026-04-04T09:27:27Z</time></trkpt><trkpt lat="14.09512120111664" lon="120.91549501473453"><ele>638.0</ele><time>2026-04-04T09:27:28Z</time></trkpt><trkpt lat="14.095183272068345" lon="120.91554295614569"><ele>638.0</ele><time>2026-04-04T09:27:29Z</time></trkpt><trkpt lat="14.095248256142188" lon="120.91559444978004"><ele>638.0</ele><time>2026-04-04T09:27:30Z</time></trkpt><trkpt lat="14.095314698266272" lon="120.91564522783052"><ele>638.0</ele><time>2026-04-04T09:27:31Z</time></trkpt><trkpt lat="14.095381060927748" lon="120.91569601684814"><ele>638.0</ele><time>2026-04-04T09:27:32Z</time></trkpt><trkpt lat="14.095451964872586" lon="120.91574846830011"><ele>638.0</ele><time>2026-04-04T09:27:33Z</time></trkpt><trkpt lat="14.095527943053604" lon="120.91580251292096"><ele>638.0</ele><time>2026-04-04T09:27:34Z</time></trkpt><trkpt lat="14.095606291090991" lon="120.91585471019741"><ele>638.0</ele><time>2026-04-04T09:27:35Z</time></trkpt><trkpt lat="14.095690478418232" lon="120.9159000112683"><ele>638.0</ele><time>2026-04-04T09:27:36Z</time></trkpt><trkpt lat="14.0957782970994" lon="120.91595368318542"><ele>638.0</ele><time>2026-04-04T09:27:37Z</time></trkpt><trkpt lat="14.09585893996515" lon="120.91600925848918"><ele>636.0</ele><time>2026-04-04T09:27:38Z</time></trkpt><trkpt lat="14.095942722715877" lon="120.91606475539511"><ele>634.0</ele><time>2026-04-04T09:27:39Z</time></trkpt><trkpt lat="14.09602023182903" lon="120.91611646667243"><ele>632.0</ele><time>2026-04-04T09:27:40Z</time></trkpt><trkpt lat="14.096098264640206" lon="120.91617527016489"><ele>630.0</ele><time>2026-04-04T09:27:41Z</time></trkpt><trkpt lat="14.09617202612919" lon="120.91623504487382"><ele>628.0</ele><time>2026-04-04T09:27:42Z</time></trkpt><trkpt lat="14.096239617661388" lon="120.91630305523789"><ele>628.0</ele><time>2026-04-04T09:27:43Z</time></trkpt><trkpt lat="14.096306376822236" lon="120.91637621487625"><ele>628.0</ele><time>2026-04-04T09:27:44Z</time></trkpt><trkpt lat="14.09636917587895" lon="120.91645265551807"><ele>628.0</ele><time>2026-04-04T09:27:45Z</time></trkpt><trkpt lat="14.096426933447816" lon="120.91653437085493"><ele>628.0</ele><time>2026-04-04T09:27:46Z</time></trkpt><trkpt lat="14.096478308792582" lon="120.91662528213855"><ele>628.0</ele><time>2026-04-04T09:27:47Z</time></trkpt><trkpt lat="14.096522361040174" lon="120.91672552549734"><ele>631.4</ele><time>2026-04-04T09:27:48Z</time></trkpt><trkpt lat="14.096565396915391" lon="120.91681466298083"><ele>634.8</ele><time>2026-04-04T09:27:49Z</time></trkpt><trkpt lat="14.096605000540368" lon="120.91690848333347"><ele>638.2</ele><time>2026-04-04T09:27:50Z</time></trkpt><trkpt lat="14.09664305900156" lon="120.91700410471871"><ele>641.6</ele><time>2026-04-04T09:27:51Z</time></trkpt><trkpt lat="14.096681119784538" lon="120.91708976778959"><ele>645.0</ele><time>2026-04-04T09:27:52Z</time></trkpt><trkpt lat="14.096714753857396" lon="120.91717547783169"><ele>645.0</ele><time>2026-04-04T09:27:53Z</time></trkpt><trkpt lat="14.096749418752967" lon="120.91725902623816"><ele>645.0</ele><time>2026-04-04T09:27:54Z</time></trkpt><trkpt lat="14.096785161463544" lon="120.91734839505635"><ele>645.0</ele><time>2026-04-04T09:27:55Z</time></trkpt><trkpt lat="14.096817665991757" lon="120.9174405522083"><ele>645.0</ele><time>2026-04-04T09:27:56Z</time></trkpt><trkpt lat="14.09684982355428" lon="120.91753437833131"><ele>645.0</ele><time>2026-04-04T09:27:57Z</time></trkpt><trkpt lat="14.096884929242677" lon="120.91762164627028"><ele>643.3333333333334</ele><time>2026-04-04T09:27:58Z</time></trkpt><trkpt lat="14.096913956184144" lon="120.9177021421181"><ele>641.6666666666666</ele><time>2026-04-04T09:27:59Z</time></trkpt><trkpt lat="14.09694308630698" lon="120.91777636044819"><ele>640.0</ele><time>2026-04-04T09:28:00Z</time></trkpt><trkpt lat="14.096967162744697" lon="120.9178397439686"><ele>638.3333333333333</ele><time>2026-04-04T09:28:01Z</time></trkpt><trkpt lat="14.096989437066432" lon="120.91790077036897"><ele>636.6666666666666</ele><time>2026-04-04T09:28:02Z</time></trkpt><trkpt lat="14.097038350210777" lon="120.91802896276087"><ele>635.0</ele><time>2026-04-04T09:28:04Z</time></trkpt><trkpt lat="14.097076133253044" lon="120.91813123821622"><ele>635.0</ele><time>2026-04-04T09:28:06Z</time></trkpt><trkpt lat="14.09712592949993" lon="120.91824510489207"><ele>635.0</ele><time>2026-04-04T09:28:08Z</time></trkpt><trkpt lat="14.097174932426443" lon="120.91835443251891"><ele>635.0</ele><time>2026-04-04T09:28:10Z</time></trkpt><trkpt lat="14.097215084624036" lon="120.91843947741306"><ele>635.0</ele><time>2026-04-04T09:28:12Z</time></trkpt><trkpt lat="14.09725725296617" lon="120.91854469808835"><ele>635.0</ele><time>2026-04-04T09:28:14Z</time></trkpt><trkpt lat="14.097303198813298" lon="120.91865354609631"><ele>634.0</ele><time>2026-04-04T09:28:16Z</time></trkpt><trkpt lat="14.097359040584301" lon="120.91877839218769"><ele>633.0</ele><time>2026-04-04T09:28:18Z</time></trkpt><trkpt lat="14.09738994262327" lon="120.91884878094697"><ele>632.0</ele><time>2026-04-04T09:28:19Z</time></trkpt><trkpt lat="14.097423365206188" lon="120.9189244112962"><ele>631.0</ele><time>2026-04-04T09:28:20Z</time></trkpt><trkpt lat="14.09745905346216" lon="120.91900807767348"><ele>630.0</ele><time>2026-04-04T09:28:21Z</time></trkpt><trkpt lat="14.097492938853124" lon="120.91908432962984"><ele>632.8</ele><time>2026-04-04T09:28:22Z</time></trkpt><trkpt lat="14.097531677861003" lon="120.9191716298078"><ele>635.6</ele><time>2026-04-04T09:28:23Z</time></trkpt><trkpt lat="14.09757276520848" lon="120.91926862231925"><ele>638.4000000000001</ele><time>2026-04-04T09:28:24Z</time></trkpt><trkpt lat="14.097618228130711" lon="120.91936913476472"><ele>641.2</ele><time>2026-04-04T09:28:25Z</time></trkpt><trkpt lat="14.097662221236144" lon="120.91947193312808"><ele>644.0</ele><time>2026-04-04T09:28:26Z</time></trkpt><trkpt lat="14.09771007606138" lon="120.91958042043312"><ele>644.0</ele><time>2026-04-04T09:28:27Z</time></trkpt><trkpt lat="14.097757126817582" lon="120.91968959081981"><ele>644.0</ele><time>2026-04-04T09:28:28Z</time></trkpt><trkpt lat="14.097801279420304" lon="120.91979180818177"><ele>644.0</ele><time>2026-04-04T09:28:29Z</time></trkpt><trkpt lat="14.097845418491554" lon="120.9198942400645"><ele>644.0</ele><time>2026-04-04T09:28:30Z</time></trkpt><trkpt lat="14.097882947196254" lon="120.91999046072341"><ele>644.0</ele><time>2026-04-04T09:28:31Z</time></trkpt><trkpt lat="14.097937909854448" lon="120.92010319669691"><ele>640.6</ele><time>2026-04-04T09:28:32Z</time></trkpt><trkpt lat="14.097980999848266" lon="120.92020820450404"><ele>637.2</ele><time>2026-04-04T09:28:33Z</time></trkpt><trkpt lat="14.098025648372527" lon="120.92030693707876"><ele>633.8000000000001</ele><time>2026-04-04T09:28:34Z</time></trkpt><trkpt lat="14.0980697988198" lon="120.92040513996609"><ele>630.4000000000001</ele><time>2026-04-04T09:28:35Z</time></trkpt><trkpt lat="14.098114660929351" lon="120.9205023480131"><ele>627.0</ele><time>2026-04-04T09:28:36Z</time></trkpt><trkpt lat="14.098137006772543" lon="120.92061041661337"><ele>627.0</ele><time>2026-04-04T09:28:37Z</time></trkpt><trkpt lat="14.098176960277348" lon="120.92070068039733"><ele>627.0</ele><time>2026-04-04T09:28:38Z</time></trkpt><trkpt lat="14.09821657053535" lon="120.92079256237832"><ele>627.0</ele><time>2026-04-04T09:28:39Z</time></trkpt><trkpt lat="14.09825661381852" lon="120.92088544880397"><ele>627.0</ele><time>2026-04-04T09:28:40Z</time></trkpt><trkpt lat="14.09829899634782" lon="120.92098304047123"><ele>627.0</ele><time>2026-04-04T09:28:41Z</time></trkpt><trkpt lat="14.098339531802514" lon="120.92107629601577"><ele>630.2</ele><time>2026-04-04T09:28:42Z</time></trkpt><trkpt lat="14.09838310313364" lon="120.92117704843865"><ele>633.4000000000001</ele><time>2026-04-04T09:28:43Z</time></trkpt><trkpt lat="14.0984259666213" lon="120.92127496391198"><ele>636.5999999999999</ele><time>2026-04-04T09:28:44Z</time></trkpt><trkpt lat="14.098469757301414" lon="120.9213749971529"><ele>639.8</ele><time>2026-04-04T09:28:45Z</time></trkpt><trkpt lat="14.098513529012662" lon="120.92147558726309"><ele>643.0</ele><time>2026-04-04T09:28:46Z</time></trkpt><trkpt lat="14.098579295665163" lon="120.9215686554133"><ele>643.0</ele><time>2026-04-04T09:28:47Z</time></trkpt><trkpt lat="14.098622361940938" lon="120.92167382694466"><ele>643.0</ele><time>2026-04-04T09:28:48Z</time></trkpt><trkpt lat="14.098665936940582" lon="120.92178026053374"><ele>643.0</ele><time>2026-04-04T09:28:49Z</time></trkpt><trkpt lat="14.098712221121321" lon="120.92188629963172"><ele>643.0</ele><time>2026-04-04T09:28:50Z</time></trkpt><trkpt lat="14.098754187609519" lon="120.9219865527648"><ele>643.0</ele><time>2026-04-04T09:28:51Z</time></trkpt><trkpt lat="14.098795372598039" lon="120.9220899025503"><ele>640.4</ele><time>2026-04-04T09:28:52Z</time></trkpt><trkpt lat="14.098836646200509" lon="120.92219747343685"><ele>637.8</ele><time>2026-04-04T09:28:53Z</time></trkpt><trkpt lat="14.098878484139707" lon="120.92231290800026"><ele>635.2</ele><time>2026-04-04T09:28:54Z</time></trkpt><trkpt lat="14.098927232647696" lon="120.9224194447048"><ele>632.6</ele><time>2026-04-04T09:28:55Z</time></trkpt><trkpt lat="14.098968436890349" lon="120.92251466134549"><ele>630.0</ele><time>2026-04-04T09:28:56Z</time></trkpt><trkpt lat="14.099011646758328" lon="120.92260995047424"><ele>629.0</ele><time>2026-04-04T09:28:57Z</time></trkpt><trkpt lat="14.0990529181082" lon="120.92270520046435"><ele>628.0</ele><time>2026-04-04T09:28:58Z</time></trkpt><trkpt lat="14.099094400548594" lon="120.92280366485979"><ele>627.0</ele><time>2026-04-04T09:28:59Z</time></trkpt><trkpt lat="14.09913457554255" lon="120.92291051041273"><ele>626.0</ele><time>2026-04-04T09:29:00Z</time></trkpt><trkpt lat="14.099178520047186" lon="120.92299874779253"><ele>625.0</ele><time>2026-04-04T09:29:01Z</time></trkpt><trkpt lat="14.099230520639273" lon="120.92309237343551"><ele>630.2</ele><time>2026-04-04T09:29:02Z</time></trkpt><trkpt lat="14.099274121495862" lon="120.92320198949628"><ele>635.4</ele><time>2026-04-04T09:29:03Z</time></trkpt><trkpt lat="14.099318905584004" lon="120.92330730722388"><ele>640.5999999999999</ele><time>2026-04-04T09:29:04Z</time></trkpt><trkpt lat="14.099363960535506" lon="120.92341556291386"><ele>645.8</ele><time>2026-04-04T09:29:05Z</time></trkpt><trkpt lat="14.09940236947431" lon="120.92351302527727"><ele>651.0</ele><time>2026-04-04T09:29:06Z</time></trkpt><trkpt lat="14.099442822301166" lon="120.92360872627363"><ele>651.0</ele><time>2026-04-04T09:29:07Z</time></trkpt><trkpt lat="14.09948092821319" lon="120.92369302039322"><ele>651.0</ele><time>2026-04-04T09:29:08Z</time></trkpt><trkpt lat="14.099516247707923" lon="120.92377139799345"><ele>651.0</ele><time>2026-04-04T09:29:09Z</time></trkpt><trkpt lat="14.099545357370081" lon="120.92384119695433"><ele>651.0</ele><time>2026-04-04T09:29:10Z</time></trkpt><trkpt lat="14.099574843232501" lon="120.92391558044127"><ele>651.0</ele><time>2026-04-04T09:29:11Z</time></trkpt><trkpt lat="14.099601785398558" lon="120.9239753147072"><ele>651.0</ele><time>2026-04-04T09:29:12Z</time></trkpt><trkpt lat="14.099630285549752" lon="120.92403863222461"><ele>651.0</ele><time>2026-04-04T09:29:13Z</time></trkpt><trkpt lat="14.099659097039194" lon="120.92411204487907"><ele>651.0</ele><time>2026-04-04T09:29:14Z</time></trkpt><trkpt lat="14.099688462337157" lon="120.92418572279814"><ele>651.0</ele><time>2026-04-04T09:29:15Z</time></trkpt><trkpt lat="14.099711829320684" lon="120.9242517018677"><ele>651.0</ele><time>2026-04-04T09:29:16Z</time></trkpt><trkpt lat="14.099746355747849" lon="120.9243530489046"><ele>651.0</ele><time>2026-04-04T09:29:18Z</time></trkpt><trkpt lat="14.09977886511283" lon="120.92445567693055"><ele>651.0</ele><time>2026-04-04T09:29:20Z</time></trkpt><trkpt lat="14.099822181056092" lon="120.92457845841963"><ele>651.5</ele><time>2026-04-04T09:29:22Z</time></trkpt><trkpt lat="14.099860906383553" lon="120.92467621399935"><ele>652.0</ele><time>2026-04-04T09:29:24Z</time></trkpt><trkpt lat="14.099908059645573" lon="120.9247482691304"><ele>652.5</ele><time>2026-04-04T09:29:26Z</time></trkpt><trkpt lat="14.099951892042153" lon="120.92481734964028"><ele>653.0</ele><time>2026-04-04T09:29:28Z</time></trkpt><trkpt lat="14.099987556993076" lon="120.92489031778642"><ele>653.5</ele><time>2026-04-04T09:29:31Z</time></trkpt><trkpt lat="14.100027076618405" lon="120.92496707611971"><ele>654.0</ele><time>2026-04-04T09:29:42Z</time></trkpt><trkpt lat="14.10006050358504" lon="120.92503477647509"><ele>654.5</ele><time>2026-04-04T09:29:44Z</time></trkpt><trkpt lat="14.100106324623537" lon="120.9251234751437"><ele>655.0</ele><time>2026-04-04T09:29:46Z</time></trkpt><trkpt lat="14.100138395115689" lon="120.92518150387086"><ele>655.5</ele><time>2026-04-04T09:29:47Z</time></trkpt><trkpt lat="14.100187182738868" lon="120.92529064097072"><ele>656.0</ele><time>2026-04-04T09:29:49Z</time></trkpt><trkpt lat="14.100214016191785" lon="120.92538933460074"><ele>656.5</ele><time>2026-04-04T09:29:51Z</time></trkpt><trkpt lat="14.100242253544383" lon="120.92545137474347"><ele>657.0</ele><time>2026-04-04T09:29:53Z</time></trkpt><trkpt lat="14.100279599466347" lon="120.92553172331212"><ele>657.0</ele><time>2026-04-04T09:29:55Z</time></trkpt><trkpt lat="14.100317604992934" lon="120.92561258151265"><ele>657.0</ele><time>2026-04-04T09:29:57Z</time></trkpt><trkpt lat="14.100364985797464" lon="120.9257050615787"><ele>657.0</ele><time>2026-04-04T09:29:59Z</time></trkpt><trkpt lat="14.100409782579831" lon="120.9257970860438"><ele>657.0</ele><time>2026-04-04T09:30:01Z</time></trkpt><trkpt lat="14.100445050524465" lon="120.9258717674015"><ele>657.0</ele><time>2026-04-04T09:30:02Z</time></trkpt><trkpt lat="14.10047686281151" lon="120.92594882819175"><ele>656.6</ele><time>2026-04-04T09:30:03Z</time></trkpt><trkpt lat="14.10051436952972" lon="120.92603208066039"><ele>656.2</ele><time>2026-04-04T09:30:04Z</time></trkpt><trkpt lat="14.100556084752874" lon="120.92612632510036"><ele>655.8</ele><time>2026-04-04T09:30:05Z</time></trkpt><trkpt lat="14.100596366375845" lon="120.92621906757981"><ele>655.4</ele><time>2026-04-04T09:30:06Z</time></trkpt><trkpt lat="14.100637943259867" lon="120.92631646840886"><ele>655.0</ele><time>2026-04-04T09:30:07Z</time></trkpt><trkpt lat="14.100684949901805" lon="120.92642198529785"><ele>655.0</ele><time>2026-04-04T09:30:08Z</time></trkpt><trkpt lat="14.100733654661228" lon="120.92652736741363"><ele>655.0</ele><time>2026-04-04T09:30:09Z</time></trkpt><trkpt lat="14.100784316040414" lon="120.92663789966907"><ele>655.0</ele><time>2026-04-04T09:30:10Z</time></trkpt><trkpt lat="14.100836026970905" lon="120.92674746426536"><ele>655.0</ele><time>2026-04-04T09:30:11Z</time></trkpt><trkpt lat="14.100894759784092" lon="120.92686311005144"><ele>655.25</ele><time>2026-04-04T09:30:12Z</time></trkpt><trkpt lat="14.100947259963283" lon="120.92698212202384"><ele>655.5</ele><time>2026-04-04T09:30:13Z</time></trkpt><trkpt lat="14.101000871507104" lon="120.92709682239962"><ele>655.75</ele><time>2026-04-04T09:30:14Z</time></trkpt><trkpt lat="14.101051511688391" lon="120.9272114189624"><ele>656.0</ele><time>2026-04-04T09:30:15Z</time></trkpt><trkpt lat="14.101105045688625" lon="120.92733097834845"><ele>656.0</ele><time>2026-04-04T09:30:16Z</time></trkpt><trkpt lat="14.101154792236724" lon="120.92744557145134"><ele>656.0</ele><time>2026-04-04T09:30:17Z</time></trkpt><trkpt lat="14.101206139755593" lon="120.92756765508166"><ele>656.0</ele><time>2026-04-04T09:30:18Z</time></trkpt><trkpt lat="14.101253575103021" lon="120.9276846918404"><ele>656.0</ele><time>2026-04-04T09:30:19Z</time></trkpt><trkpt lat="14.101299114062684" lon="120.92779164166376"><ele>656.5999999999999</ele><time>2026-04-04T09:30:20Z</time></trkpt><trkpt lat="14.101348082290643" lon="120.92789712345096"><ele>657.2</ele><time>2026-04-04T09:30:21Z</time></trkpt><trkpt lat="14.101386973816812" lon="120.92799167680688"><ele>657.8</ele><time>2026-04-04T09:30:22Z</time></trkpt><trkpt lat="14.101436197610107" lon="120.92810459323918"><ele>658.4000000000001</ele><time>2026-04-04T09:30:23Z</time></trkpt><trkpt lat="14.101479939450542" lon="120.92821323000939"><ele>659.0</ele><time>2026-04-04T09:30:24Z</time></trkpt><trkpt lat="14.101527384134977" lon="120.92832769869847"><ele>658.75</ele><time>2026-04-04T09:30:25Z</time></trkpt><trkpt lat="14.101574847237398" lon="120.9284468792402"><ele>658.5</ele><time>2026-04-04T09:30:26Z</time></trkpt><trkpt lat="14.101625864824737" lon="120.92856366009443"><ele>658.25</ele><time>2026-04-04T09:30:27Z</time></trkpt><trkpt lat="14.101681950965835" lon="120.92868712428846"><ele>658.0</ele><time>2026-04-04T09:30:28Z</time></trkpt><trkpt lat="14.101735268401272" lon="120.9288128336014"><ele>657.5</ele><time>2026-04-04T09:30:29Z</time></trkpt><trkpt lat="14.101791708316139" lon="120.9289395704713"><ele>657.0</ele><time>2026-04-04T09:30:30Z</time></trkpt><trkpt lat="14.10184963101923" lon="120.92906936845837"><ele>656.5</ele><time>2026-04-04T09:30:31Z</time></trkpt><trkpt lat="14.1019054388321" lon="120.92920039975454"><ele>656.0</ele><time>2026-04-04T09:30:32Z</time></trkpt><trkpt lat="14.101959217600868" lon="120.92932776399269"><ele>655.75</ele><time>2026-04-04T09:30:33Z</time></trkpt><trkpt lat="14.102015213495745" lon="120.92945606811979"><ele>655.5</ele><time>2026-04-04T09:30:34Z</time></trkpt><trkpt lat="14.102067488690988" lon="120.9295780450882"><ele>655.25</ele><time>2026-04-04T09:30:35Z</time></trkpt><trkpt lat="14.102127503227642" lon="120.92970303257886"><ele>655.0</ele><time>2026-04-04T09:30:36Z</time></trkpt><trkpt lat="14.102184196516077" lon="120.9298308417343"><ele>655.0</ele><time>2026-04-04T09:30:37Z</time></trkpt><trkpt lat="14.102240044847706" lon="120.929960422434"><ele>655.0</ele><time>2026-04-04T09:30:38Z</time></trkpt><trkpt lat="14.102297111588442" lon="120.93008724468572"><ele>655.0</ele><time>2026-04-04T09:30:39Z</time></trkpt><trkpt lat="14.102355366313851" lon="120.93021812344736"><ele>655.0</ele><time>2026-04-04T09:30:40Z</time></trkpt><trkpt lat="14.102414778710962" lon="120.93035134484937"><ele>654.75</ele><time>2026-04-04T09:30:41Z</time></trkpt><trkpt lat="14.102472020192836" lon="120.9304883559098"><ele>654.5</ele><time>2026-04-04T09:30:42Z</time></trkpt><trkpt lat="14.102527582825422" lon="120.93062258232155"><ele>654.25</ele><time>2026-04-04T09:30:43Z</time></trkpt><trkpt lat="14.102581267099003" lon="120.93075656121867"><ele>654.0</ele><time>2026-04-04T09:30:44Z</time></trkpt><trkpt lat="14.102640539315987" lon="120.93088208853683"><ele>654.0</ele><time>2026-04-04T09:30:45Z</time></trkpt><trkpt lat="14.102691233565496" lon="120.93100128069565"><ele>654.0</ele><time>2026-04-04T09:30:46Z</time></trkpt><trkpt lat="14.102742670189107" lon="120.93111835588262"><ele>654.0</ele><time>2026-04-04T09:30:47Z</time></trkpt><trkpt lat="14.102793091188998" lon="120.93123097010518"><ele>654.0</ele><time>2026-04-04T09:30:48Z</time></trkpt><trkpt lat="14.102841072274407" lon="120.93133670354959"><ele>654.0</ele><time>2026-04-04T09:30:49Z</time></trkpt><trkpt lat="14.102882197064378" lon="120.93143402550523"><ele>654.0</ele><time>2026-04-04T09:30:50Z</time></trkpt><trkpt lat="14.102921007670846" lon="120.93151707479235"><ele>654.0</ele><time>2026-04-04T09:30:51Z</time></trkpt><trkpt lat="14.102959657746846" lon="120.93160201755757"><ele>654.0</ele><time>2026-04-04T09:30:52Z</time></trkpt><trkpt lat="14.102996679583248" lon="120.9316866606841"><ele>654.0</ele><time>2026-04-04T09:30:53Z</time></trkpt><trkpt lat="14.103044763624546" lon="120.93179245837156"><ele>653.8000000000001</ele><time>2026-04-04T09:30:54Z</time></trkpt><trkpt lat="14.103095912658592" lon="120.93190592591706"><ele>653.6</ele><time>2026-04-04T09:30:55Z</time></trkpt><trkpt lat="14.103113435457946" lon="120.93197170402564"><ele>653.4</ele><time>2026-04-04T09:30:56Z</time></trkpt><trkpt lat="14.10315749179992" lon="120.93206456499796"><ele>653.2</ele><time>2026-04-04T09:30:57Z</time></trkpt><trkpt lat="14.103199155066811" lon="120.93216520877199"><ele>653.0</ele><time>2026-04-04T09:30:58Z</time></trkpt><trkpt lat="14.103219891077817" lon="120.93227540261648"><ele>653.0</ele><time>2026-04-04T09:30:59Z</time></trkpt><trkpt lat="14.103247127622234" lon="120.93238100597674"><ele>653.0</ele><time>2026-04-04T09:31:00Z</time></trkpt><trkpt lat="14.103258624070927" lon="120.93247821848082"><ele>653.0</ele><time>2026-04-04T09:31:01Z</time></trkpt><trkpt lat="14.1032739873519" lon="120.93257489062981"><ele>653.0</ele><time>2026-04-04T09:31:02Z</time></trkpt><trkpt lat="14.103260174370632" lon="120.93265816452745"><ele>653.0</ele><time>2026-04-04T09:31:03Z</time></trkpt><trkpt lat="14.103257208901708" lon="120.9327482508825"><ele>653.0</ele><time>2026-04-04T09:31:04Z</time></trkpt><trkpt lat="14.1032531342196" lon="120.93283808978613"><ele>653.0</ele><time>2026-04-04T09:31:05Z</time></trkpt><trkpt lat="14.103248802703266" lon="120.9329335913747"><ele>653.0</ele><time>2026-04-04T09:31:06Z</time></trkpt><trkpt lat="14.103241857140851" lon="120.9330324209052"><ele>653.0</ele><time>2026-04-04T09:31:07Z</time></trkpt><trkpt lat="14.10323360183827" lon="120.93314386746114"><ele>653.0</ele><time>2026-04-04T09:31:08Z</time></trkpt><trkpt lat="14.103224868515793" lon="120.93326055342835"><ele>653.0</ele><time>2026-04-04T09:31:09Z</time></trkpt><trkpt lat="14.103215704135117" lon="120.93338283918081"><ele>653.0</ele><time>2026-04-04T09:31:10Z</time></trkpt><trkpt lat="14.103206429552667" lon="120.933506139227"><ele>653.0</ele><time>2026-04-04T09:31:11Z</time></trkpt><trkpt lat="14.103196265885014" lon="120.93364106703397"><ele>653.0</ele><time>2026-04-04T09:31:12Z</time></trkpt><trkpt lat="14.103185648611365" lon="120.93378312933368"><ele>653.25</ele><time>2026-04-04T09:31:13Z</time></trkpt><trkpt lat="14.103174371764565" lon="120.93393391165023"><ele>653.5</ele><time>2026-04-04T09:31:14Z</time></trkpt><trkpt lat="14.103163863150312" lon="120.93407337977177"><ele>653.75</ele><time>2026-04-04T09:31:15Z</time></trkpt><trkpt lat="14.10315484015606" lon="120.93419893259477"><ele>654.0</ele><time>2026-04-04T09:31:16Z</time></trkpt><trkpt lat="14.103147244192527" lon="120.9343130314743"><ele>653.2</ele><time>2026-04-04T09:31:17Z</time></trkpt><trkpt lat="14.103140793135518" lon="120.93441217930142"><ele>652.4000000000001</ele><time>2026-04-04T09:31:18Z</time></trkpt><trkpt lat="14.103133600207178" lon="120.93452272881365"><ele>651.6</ele><time>2026-04-04T09:31:19Z</time></trkpt><trkpt lat="14.103124946095969" lon="120.93463029063574"><ele>650.8</ele><time>2026-04-04T09:31:20Z</time></trkpt><trkpt lat="14.103117228227559" lon="120.93473164799455"><ele>650.0</ele><time>2026-04-04T09:31:21Z</time></trkpt><trkpt lat="14.10311421140384" lon="120.93484342427793"><ele>650.0</ele><time>2026-04-04T09:31:22Z</time></trkpt><trkpt lat="14.103109384121403" lon="120.9349514811238"><ele>650.0</ele><time>2026-04-04T09:31:23Z</time></trkpt><trkpt lat="14.103104531266773" lon="120.93506017854538"><ele>650.0</ele><time>2026-04-04T09:31:24Z</time></trkpt><trkpt lat="14.10309942343481" lon="120.93517512929975"><ele>650.0</ele><time>2026-04-04T09:31:25Z</time></trkpt><trkpt lat="14.103094007230588" lon="120.93529701990678"><ele>650.0</ele><time>2026-04-04T09:31:26Z</time></trkpt><trkpt lat="14.103088696538695" lon="120.93541653598524"><ele>649.5</ele><time>2026-04-04T09:31:27Z</time></trkpt><trkpt lat="14.10308269410227" lon="120.93553722622703"><ele>649.0</ele><time>2026-04-04T09:31:28Z</time></trkpt><trkpt lat="14.10307373363005" lon="120.93565903851423"><ele>648.5</ele><time>2026-04-04T09:31:29Z</time></trkpt><trkpt lat="14.10306461116906" lon="120.93577003269463"><ele>648.0</ele><time>2026-04-04T09:31:30Z</time></trkpt><trkpt lat="14.103053305848041" lon="120.93589659877684"><ele>648.0</ele><time>2026-04-04T09:31:31Z</time></trkpt><trkpt lat="14.103043122464637" lon="120.93602263928858"><ele>648.0</ele><time>2026-04-04T09:31:32Z</time></trkpt><trkpt lat="14.103031275756381" lon="120.93614958233968"><ele>648.0</ele><time>2026-04-04T09:31:33Z</time></trkpt><trkpt lat="14.103019178684532" lon="120.9362834123641"><ele>648.0</ele><time>2026-04-04T09:31:34Z</time></trkpt><trkpt lat="14.1030075657927" lon="120.93642120358253"><ele>648.0</ele><time>2026-04-04T09:31:35Z</time></trkpt><trkpt lat="14.10300198774367" lon="120.93656537982658"><ele>648.0</ele><time>2026-04-04T09:31:36Z</time></trkpt><trkpt lat="14.102994779353777" lon="120.9367131333437"><ele>648.0</ele><time>2026-04-04T09:31:37Z</time></trkpt><trkpt lat="14.10299728256869" lon="120.93685771681955"><ele>648.0</ele><time>2026-04-04T09:31:38Z</time></trkpt><trkpt lat="14.102988246482633" lon="120.93701244385325"><ele>647.5</ele><time>2026-04-04T09:31:39Z</time></trkpt><trkpt lat="14.10298562536334" lon="120.9371611793539"><ele>647.0</ele><time>2026-04-04T09:31:40Z</time></trkpt><trkpt lat="14.102964183403929" lon="120.9373171409741"><ele>646.5</ele><time>2026-04-04T09:31:41Z</time></trkpt><trkpt lat="14.102956463460878" lon="120.93747209896704"><ele>646.0</ele><time>2026-04-04T09:31:42Z</time></trkpt><trkpt lat="14.102964898823533" lon="120.93761933177005"><ele>645.75</ele><time>2026-04-04T09:31:43Z</time></trkpt><trkpt lat="14.102957396441466" lon="120.93776771695136"><ele>645.5</ele><time>2026-04-04T09:31:44Z</time></trkpt><trkpt lat="14.102946963770044" lon="120.93791357725989"><ele>645.25</ele><time>2026-04-04T09:31:45Z</time></trkpt><trkpt lat="14.102934865929726" lon="120.93805924161752"><ele>645.0</ele><time>2026-04-04T09:31:46Z</time></trkpt><trkpt lat="14.10292454786621" lon="120.938193967591"><ele>645.0</ele><time>2026-04-04T09:31:47Z</time></trkpt><trkpt lat="14.102915346821744" lon="120.93832848500087"><ele>645.0</ele><time>2026-04-04T09:31:48Z</time></trkpt><trkpt lat="14.102905919634024" lon="120.93846254918766"><ele>645.0</ele><time>2026-04-04T09:31:49Z</time></trkpt><trkpt lat="14.1028963965653" lon="120.93859683462267"><ele>645.0</ele><time>2026-04-04T09:31:50Z</time></trkpt><trkpt lat="14.102888206053992" lon="120.93873155595512"><ele>646.0</ele><time>2026-04-04T09:31:51Z</time></trkpt><trkpt lat="14.10287611947814" lon="120.93886992575155"><ele>647.0</ele><time>2026-04-04T09:31:52Z</time></trkpt><trkpt lat="14.102872119315537" lon="120.93899620549087"><ele>648.0</ele><time>2026-04-04T09:31:53Z</time></trkpt><trkpt lat="14.102860868730666" lon="120.9391151855117"><ele>649.0</ele><time>2026-04-04T09:31:54Z</time></trkpt><trkpt lat="14.102852217394483" lon="120.93922502820413"><ele>650.75</ele><time>2026-04-04T09:31:55Z</time></trkpt><trkpt lat="14.102841219049253" lon="120.93934368656261"><ele>652.5</ele><time>2026-04-04T09:31:56Z</time></trkpt><trkpt lat="14.102835918400256" lon="120.93945933624161"><ele>654.25</ele><time>2026-04-04T09:31:57Z</time></trkpt><trkpt lat="14.102826522506488" lon="120.93957825156085"><ele>656.0</ele><time>2026-04-04T09:31:58Z</time></trkpt><trkpt lat="14.102815969337007" lon="120.93969709566478"><ele>656.0</ele><time>2026-04-04T09:31:59Z</time></trkpt><trkpt lat="14.10280424541369" lon="120.93982133873148"><ele>656.0</ele><time>2026-04-04T09:32:00Z</time></trkpt><trkpt lat="14.102796408576948" lon="120.9399360198657"><ele>656.0</ele><time>2026-04-04T09:32:01Z</time></trkpt><trkpt lat="14.10278637524522" lon="120.94006093025358"><ele>656.0</ele><time>2026-04-04T09:32:02Z</time></trkpt><trkpt lat="14.10278473124411" lon="120.94018544833786"><ele>656.8</ele><time>2026-04-04T09:32:03Z</time></trkpt><trkpt lat="14.102785417076573" lon="120.94030428777383"><ele>657.5999999999999</ele><time>2026-04-04T09:32:04Z</time></trkpt><trkpt lat="14.102761018184697" lon="120.94041461570271"><ele>658.4</ele><time>2026-04-04T09:32:05Z</time></trkpt><trkpt lat="14.102753650451412" lon="120.94051412575249"><ele>659.2</ele><time>2026-04-04T09:32:06Z</time></trkpt><trkpt lat="14.102747395852049" lon="120.9406024512902"><ele>660.0</ele><time>2026-04-04T09:32:07Z</time></trkpt><trkpt lat="14.102740359293657" lon="120.94068864909929"><ele>660.0</ele><time>2026-04-04T09:32:08Z</time></trkpt><trkpt lat="14.102735107426481" lon="120.94076493716962"><ele>660.0</ele><time>2026-04-04T09:32:09Z</time></trkpt><trkpt lat="14.102730533142948" lon="120.94083052535447"><ele>660.0</ele><time>2026-04-04T09:32:10Z</time></trkpt><trkpt lat="14.102722735347946" lon="120.94093867919987"><ele>660.0</ele><time>2026-04-04T09:32:12Z</time></trkpt><trkpt lat="14.10271792882603" lon="120.94100414647647"><ele>660.0</ele><time>2026-04-04T09:32:16Z</time></trkpt><trkpt lat="14.102712446606784" lon="120.94107881713065"><ele>660.0</ele><time>2026-04-04T09:32:21Z</time></trkpt><trkpt lat="14.10270708589911" lon="120.94115183258812"><ele>660.0</ele><time>2026-04-04T09:32:24Z</time></trkpt><trkpt lat="14.102833517144168" lon="120.94123678527293"><ele>660.0</ele><time>2026-04-04T09:32:26Z</time></trkpt><trkpt lat="14.102885971615347" lon="120.94127858493505"><ele>660.0</ele><time>2026-04-04T09:32:27Z</time></trkpt><trkpt lat="14.10295888997347" lon="120.9413161078994"><ele>660.0</ele><time>2026-04-04T09:32:28Z</time></trkpt><trkpt lat="14.103026049728683" lon="120.94138579116874"><ele>660.0</ele><time>2026-04-04T09:32:29Z</time></trkpt><trkpt lat="14.103087224602659" lon="120.94145515031084"><ele>660.0</ele><time>2026-04-04T09:32:30Z</time></trkpt><trkpt lat="14.103170037307036" lon="120.94152984411207"><ele>660.0</ele><time>2026-04-04T09:32:31Z</time></trkpt><trkpt lat="14.103251615926583" lon="120.94160171423287"><ele>660.0</ele><time>2026-04-04T09:32:32Z</time></trkpt><trkpt lat="14.103338731601182" lon="120.94167365084272"><ele>660.0</ele><time>2026-04-04T09:32:33Z</time></trkpt><trkpt lat="14.103429680854015" lon="120.94174239498932"><ele>660.0</ele><time>2026-04-04T09:32:34Z</time></trkpt><trkpt lat="14.103518394677016" lon="120.94179751567637"><ele>660.1666666666666</ele><time>2026-04-04T09:32:35Z</time></trkpt><trkpt lat="14.103604262489435" lon="120.9418435623297"><ele>660.3333333333334</ele><time>2026-04-04T09:32:36Z</time></trkpt><trkpt lat="14.103689875120004" lon="120.94187520528726"><ele>660.5</ele><time>2026-04-04T09:32:37Z</time></trkpt><trkpt lat="14.103775420438636" lon="120.94189954822384"><ele>660.6666666666667</ele><time>2026-04-04T09:32:38Z</time></trkpt><trkpt lat="14.10385441657639" lon="120.94192047283664"><ele>660.8333333333334</ele><time>2026-04-04T09:32:39Z</time></trkpt><trkpt lat="14.103944314885096" lon="120.94193121058477"><ele>661.0</ele><time>2026-04-04T09:32:40Z</time></trkpt><trkpt lat="14.104045869560215" lon="120.94193643187027"><ele>660.4</ele><time>2026-04-04T09:32:41Z</time></trkpt><trkpt lat="14.104138306893136" lon="120.94193707742774"><ele>659.8</ele><time>2026-04-04T09:32:42Z</time></trkpt><trkpt lat="14.104245121074404" lon="120.94192001492917"><ele>659.1999999999999</ele><time>2026-04-04T09:32:43Z</time></trkpt><trkpt lat="14.104344978246257" lon="120.94189921044635"><ele>658.5999999999999</ele><time>2026-04-04T09:32:44Z</time></trkpt><trkpt lat="14.104447993699326" lon="120.94186782471975"><ele>658.0</ele><time>2026-04-04T09:32:45Z</time></trkpt><trkpt lat="14.104549862743646" lon="120.94182893554915"><ele>658.0</ele><time>2026-04-04T09:32:46Z</time></trkpt><trkpt lat="14.104655402638334" lon="120.94178182408844"><ele>658.0</ele><time>2026-04-04T09:32:47Z</time></trkpt><trkpt lat="14.104759661344291" lon="120.94173239277592"><ele>658.0</ele><time>2026-04-04T09:32:48Z</time></trkpt><trkpt lat="14.104868287483482" lon="120.94168791186254"><ele>658.0</ele><time>2026-04-04T09:32:49Z</time></trkpt><trkpt lat="14.10497888008227" lon="120.94164345776987"><ele>656.25</ele><time>2026-04-04T09:32:50Z</time></trkpt><trkpt lat="14.105086178365394" lon="120.9415989148367"><ele>654.5</ele><time>2026-04-04T09:32:51Z</time></trkpt><trkpt lat="14.105187969661369" lon="120.94155196896307"><ele>652.75</ele><time>2026-04-04T09:32:52Z</time></trkpt><trkpt lat="14.105291440119714" lon="120.94150723989966"><ele>651.0</ele><time>2026-04-04T09:32:53Z</time></trkpt><trkpt lat="14.10539977216225" lon="120.94146012670392"><ele>651.0</ele><time>2026-04-04T09:32:54Z</time></trkpt><trkpt lat="14.10550610363402" lon="120.94141129666225"><ele>651.0</ele><time>2026-04-04T09:32:55Z</time></trkpt><trkpt lat="14.105616774979644" lon="120.94135199776169"><ele>651.0</ele><time>2026-04-04T09:32:56Z</time></trkpt><trkpt lat="14.105725528478125" lon="120.94128837176925"><ele>651.0</ele><time>2026-04-04T09:32:57Z</time></trkpt><trkpt lat="14.105831699075548" lon="120.94121785332584"><ele>649.25</ele><time>2026-04-04T09:32:58Z</time></trkpt><trkpt lat="14.105940659202624" lon="120.94114329390712"><ele>647.5</ele><time>2026-04-04T09:32:59Z</time></trkpt><trkpt lat="14.10604987100982" lon="120.94107272059128"><ele>645.75</ele><time>2026-04-04T09:33:00Z</time></trkpt><trkpt lat="14.106160691875024" lon="120.94099364790165"><ele>644.0</ele><time>2026-04-04T09:33:01Z</time></trkpt><trkpt lat="14.106263147722661" lon="120.94090507802021"><ele>644.0</ele><time>2026-04-04T09:33:02Z</time></trkpt><trkpt lat="14.106368074533819" lon="120.94081768614916"><ele>644.0</ele><time>2026-04-04T09:33:03Z</time></trkpt><trkpt lat="14.10646848837913" lon="120.94074069551259"><ele>644.0</ele><time>2026-04-04T09:33:04Z</time></trkpt><trkpt lat="14.106571462487395" lon="120.94066699990104"><ele>644.0</ele><time>2026-04-04T09:33:05Z</time></trkpt><trkpt lat="14.106670458171223" lon="120.9405924445156"><ele>642.5</ele><time>2026-04-04T09:33:06Z</time></trkpt><trkpt lat="14.106767006661215" lon="120.94051531758254"><ele>641.0</ele><time>2026-04-04T09:33:07Z</time></trkpt><trkpt lat="14.106863703142587" lon="120.94043542527999"><ele>639.5</ele><time>2026-04-04T09:33:08Z</time></trkpt><trkpt lat="14.10695992187468" lon="120.94036120456596"><ele>638.0</ele><time>2026-04-04T09:33:09Z</time></trkpt><trkpt lat="14.107056836709523" lon="120.94029047107743"><ele>638.0</ele><time>2026-04-04T09:33:10Z</time></trkpt><trkpt lat="14.107153971745849" lon="120.94021844769203"><ele>638.0</ele><time>2026-04-04T09:33:11Z</time></trkpt><trkpt lat="14.107248093957965" lon="120.94014991926352"><ele>638.0</ele><time>2026-04-04T09:33:12Z</time></trkpt><trkpt lat="14.107344581891388" lon="120.94008316826682"><ele>638.0</ele><time>2026-04-04T09:33:13Z</time></trkpt><trkpt lat="14.107445184354466" lon="120.94002217815309"><ele>637.75</ele><time>2026-04-04T09:33:14Z</time></trkpt><trkpt lat="14.107546399069745" lon="120.93997226968854"><ele>637.5</ele><time>2026-04-04T09:33:15Z</time></trkpt><trkpt lat="14.10765499388284" lon="120.93992709884269"><ele>637.25</ele><time>2026-04-04T09:33:16Z</time></trkpt><trkpt lat="14.107763028933702" lon="120.93988771464565"><ele>637.0</ele><time>2026-04-04T09:33:17Z</time></trkpt><trkpt lat="14.10787839527638" lon="120.93985255151384"><ele>637.0</ele><time>2026-04-04T09:33:18Z</time></trkpt><trkpt lat="14.107988861293432" lon="120.93982124751078"><ele>637.0</ele><time>2026-04-04T09:33:19Z</time></trkpt><trkpt lat="14.108106250909225" lon="120.93978921324664"><ele>637.0</ele><time>2026-04-04T09:33:20Z</time></trkpt><trkpt lat="14.108221348444955" lon="120.93975757417113"><ele>637.0</ele><time>2026-04-04T09:33:21Z</time></trkpt><trkpt lat="14.108333840261768" lon="120.9397223482358"><ele>636.5</ele><time>2026-04-04T09:33:22Z</time></trkpt><trkpt lat="14.108446355697685" lon="120.93968476580348"><ele>636.0</ele><time>2026-04-04T09:33:23Z</time></trkpt><trkpt lat="14.108560095038168" lon="120.93965005597153"><ele>635.5</ele><time>2026-04-04T09:33:24Z</time></trkpt><trkpt lat="14.1086747889314" lon="120.93961401902627"><ele>635.0</ele><time>2026-04-04T09:33:25Z</time></trkpt><trkpt lat="14.108787342958951" lon="120.93957584419644"><ele>635.0</ele><time>2026-04-04T09:33:26Z</time></trkpt><trkpt lat="14.108903934446605" lon="120.93954167079886"><ele>635.0</ele><time>2026-04-04T09:33:27Z</time></trkpt><trkpt lat="14.109021438621514" lon="120.93950685268265"><ele>635.0</ele><time>2026-04-04T09:33:28Z</time></trkpt><trkpt lat="14.10911570381609" lon="120.93947223721224"><ele>635.0</ele><time>2026-04-04T09:33:29Z</time></trkpt><trkpt lat="14.109216715039135" lon="120.93943919424622"><ele>635.0</ele><time>2026-04-04T09:33:30Z</time></trkpt><trkpt lat="14.109307263708775" lon="120.93941667249848"><ele>634.6</ele><time>2026-04-04T09:33:31Z</time></trkpt><trkpt lat="14.109396967270436" lon="120.93938720736533"><ele>634.2</ele><time>2026-04-04T09:33:32Z</time></trkpt><trkpt lat="14.109492812292096" lon="120.93935545719499"><ele>633.8</ele><time>2026-04-04T09:33:33Z</time></trkpt><trkpt lat="14.109592137266446" lon="120.93932710247344"><ele>633.4</ele><time>2026-04-04T09:33:34Z</time></trkpt><trkpt lat="14.109696703300395" lon="120.93929792698877"><ele>633.0</ele><time>2026-04-04T09:33:35Z</time></trkpt><trkpt lat="14.109803746297365" lon="120.93926739532084"><ele>632.75</ele><time>2026-04-04T09:33:36Z</time></trkpt><trkpt lat="14.109914336930219" lon="120.93923428025204"><ele>632.5</ele><time>2026-04-04T09:33:37Z</time></trkpt><trkpt lat="14.11002902053073" lon="120.93920243122152"><ele>632.25</ele><time>2026-04-04T09:33:38Z</time></trkpt><trkpt lat="14.110136214553208" lon="120.93917242075791"><ele>632.0</ele><time>2026-04-04T09:33:39Z</time></trkpt><trkpt lat="14.110253399115026" lon="120.93914076237928"><ele>631.4</ele><time>2026-04-04T09:33:40Z</time></trkpt><trkpt lat="14.11036046758807" lon="120.93910889989509"><ele>630.8000000000001</ele><time>2026-04-04T09:33:41Z</time></trkpt><trkpt lat="14.110467472615182" lon="120.93907797409227"><ele>630.2</ele><time>2026-04-04T09:33:42Z</time></trkpt><trkpt lat="14.110561953356735" lon="120.93904726298712"><ele>629.6</ele><time>2026-04-04T09:33:43Z</time></trkpt><trkpt lat="14.110651990246712" lon="120.93901883059712"><ele>629.0</ele><time>2026-04-04T09:33:44Z</time></trkpt><trkpt lat="14.110736196103355" lon="120.93899048191786"><ele>628.6666666666666</ele><time>2026-04-04T09:33:45Z</time></trkpt><trkpt lat="14.110818043312642" lon="120.93896646010796"><ele>628.3333333333333</ele><time>2026-04-04T09:33:46Z</time></trkpt><trkpt lat="14.110890773645536" lon="120.93894192943286"><ele>628.0</ele><time>2026-04-04T09:33:47Z</time></trkpt><trkpt lat="14.110955451317025" lon="120.93891954059139"><ele>627.6666666666666</ele><time>2026-04-04T09:33:48Z</time></trkpt><trkpt lat="14.111017043313344" lon="120.93889834289705"><ele>627.3333333333334</ele><time>2026-04-04T09:33:49Z</time></trkpt><trkpt lat="14.111128867087423" lon="120.93885930914661"><ele>627.0</ele><time>2026-04-04T09:33:51Z</time></trkpt><trkpt lat="14.1112375033803" lon="120.93882541193638"><ele>627.0</ele><time>2026-04-04T09:33:53Z</time></trkpt><trkpt lat="14.111347117391954" lon="120.93878882903252"><ele>627.0</ele><time>2026-04-04T09:33:55Z</time></trkpt><trkpt lat="14.111411674248762" lon="120.93877009671515"><ele>627.0</ele><time>2026-04-04T09:33:56Z</time></trkpt><trkpt lat="14.111480374375141" lon="120.93874902626767"><ele>627.0</ele><time>2026-04-04T09:33:57Z</time></trkpt><trkpt lat="14.11154784702731" lon="120.93872615854984"><ele>627.0</ele><time>2026-04-04T09:33:58Z</time></trkpt><trkpt lat="14.1116160028727" lon="120.9387044027371"><ele>627.0</ele><time>2026-04-04T09:33:59Z</time></trkpt><trkpt lat="14.111686295460721" lon="120.93868282556365"><ele>626.5</ele><time>2026-04-04T09:34:00Z</time></trkpt><trkpt lat="14.111754777469605" lon="120.9386620938423"><ele>626.0</ele><time>2026-04-04T09:34:01Z</time></trkpt><trkpt lat="14.111827467992457" lon="120.93863878718408"><ele>625.5</ele><time>2026-04-04T09:34:02Z</time></trkpt><trkpt lat="14.111901999132321" lon="120.93861479060236"><ele>625.0</ele><time>2026-04-04T09:34:03Z</time></trkpt><trkpt lat="14.111975477164048" lon="120.93858995384166"><ele>624.5</ele><time>2026-04-04T09:34:04Z</time></trkpt><trkpt lat="14.112051057119896" lon="120.93856632776482"><ele>624.0</ele><time>2026-04-04T09:34:05Z</time></trkpt><trkpt lat="14.11212261901332" lon="120.93854424644681"><ele>624.0</ele><time>2026-04-04T09:34:06Z</time></trkpt><trkpt lat="14.112200368971" lon="120.9385215393109"><ele>624.0</ele><time>2026-04-04T09:34:07Z</time></trkpt><trkpt lat="14.112276669974728" lon="120.9384977364109"><ele>624.0</ele><time>2026-04-04T09:34:08Z</time></trkpt><trkpt lat="14.112342339266842" lon="120.93847735463612"><ele>624.0</ele><time>2026-04-04T09:34:09Z</time></trkpt><trkpt lat="14.112408224488583" lon="120.93845869099934"><ele>624.0</ele><time>2026-04-04T09:34:10Z</time></trkpt><trkpt lat="14.112475348407223" lon="120.93843753046959"><ele>624.0</ele><time>2026-04-04T09:34:11Z</time></trkpt><trkpt lat="14.112549397989296" lon="120.93841334234591"><ele>624.0</ele><time>2026-04-04T09:34:12Z</time></trkpt><trkpt lat="14.112628099709756" lon="120.93838622966547"><ele>623.25</ele><time>2026-04-04T09:34:13Z</time></trkpt><trkpt lat="14.112714166614651" lon="120.93835532538554"><ele>622.5</ele><time>2026-04-04T09:34:14Z</time></trkpt><trkpt lat="14.112816403602679" lon="120.93832445938784"><ele>621.75</ele><time>2026-04-04T09:34:15Z</time></trkpt><trkpt lat="14.112933408496323" lon="120.93829275529696"><ele>621.0</ele><time>2026-04-04T09:34:16Z</time></trkpt><trkpt lat="14.113060915045189" lon="120.93825521749578"><ele>621.0</ele><time>2026-04-04T09:34:17Z</time></trkpt><trkpt lat="14.113201428665965" lon="120.93821686781551"><ele>621.0</ele><time>2026-04-04T09:34:18Z</time></trkpt><trkpt lat="14.11335060787823" lon="120.93818067613729"><ele>621.0</ele><time>2026-04-04T09:34:19Z</time></trkpt><trkpt lat="14.11351186770504" lon="120.9381327109184"><ele>620.3333333333334</ele><time>2026-04-04T09:34:20Z</time></trkpt><trkpt lat="14.113676296931958" lon="120.93807719905503"><ele>619.6666666666667</ele><time>2026-04-04T09:34:21Z</time></trkpt><trkpt lat="14.113841204356348" lon="120.9380255952401"><ele>619.0</ele><time>2026-04-04T09:34:22Z</time></trkpt><trkpt lat="14.113998056418781" lon="120.93796968417107"><ele>618.0</ele><time>2026-04-04T09:34:23Z</time></trkpt><trkpt lat="14.114145378575301" lon="120.93792075339516"><ele>617.0</ele><time>2026-04-04T09:34:24Z</time></trkpt><trkpt lat="14.114293581752499" lon="120.9378738040315"><ele>616.0</ele><time>2026-04-04T09:34:25Z</time></trkpt><trkpt lat="14.114439111270151" lon="120.93783007133369"><ele>616.0</ele><time>2026-04-04T09:34:26Z</time></trkpt><trkpt lat="14.114572525064785" lon="120.9377878668208"><ele>616.0</ele><time>2026-04-04T09:34:27Z</time></trkpt><trkpt lat="14.114699509160273" lon="120.93774992112616"><ele>616.0</ele><time>2026-04-04T09:34:28Z</time></trkpt><trkpt lat="14.114810323423981" lon="120.93771087502068"><ele>616.0</ele><time>2026-04-04T09:34:29Z</time></trkpt><trkpt lat="14.114937644315852" lon="120.93766751694034"><ele>615.5</ele><time>2026-04-04T09:34:30Z</time></trkpt><trkpt lat="14.115051070753493" lon="120.93762770808708"><ele>615.0</ele><time>2026-04-04T09:34:31Z</time></trkpt><trkpt lat="14.115169197410847" lon="120.93759250021536"><ele>614.5</ele><time>2026-04-04T09:34:32Z</time></trkpt><trkpt lat="14.115291551095304" lon="120.93755104483694"><ele>614.0</ele><time>2026-04-04T09:34:33Z</time></trkpt><trkpt lat="14.115412801554884" lon="120.9375147739717"><ele>614.0</ele><time>2026-04-04T09:34:34Z</time></trkpt><trkpt lat="14.11553037454686" lon="120.93747637290872"><ele>614.0</ele><time>2026-04-04T09:34:35Z</time></trkpt><trkpt lat="14.1156531428878" lon="120.93743746579725"><ele>614.0</ele><time>2026-04-04T09:34:36Z</time></trkpt><trkpt lat="14.115779485770188" lon="120.93740045057476"><ele>614.0</ele><time>2026-04-04T09:34:37Z</time></trkpt><trkpt lat="14.115903069142107" lon="120.93736999657231"><ele>613.25</ele><time>2026-04-04T09:34:38Z</time></trkpt><trkpt lat="14.116033520941384" lon="120.93733035946795"><ele>612.5</ele><time>2026-04-04T09:34:39Z</time></trkpt><trkpt lat="14.116167919307252" lon="120.93728800985389"><ele>611.75</ele><time>2026-04-04T09:34:40Z</time></trkpt><trkpt lat="14.116302070049652" lon="120.93724640161918"><ele>611.0</ele><time>2026-04-04T09:34:41Z</time></trkpt><trkpt lat="14.116435183057018" lon="120.93720105755561"><ele>611.0</ele><time>2026-04-04T09:34:42Z</time></trkpt><trkpt lat="14.116565975090877" lon="120.93716282126994"><ele>611.0</ele><time>2026-04-04T09:34:43Z</time></trkpt><trkpt lat="14.116697640324354" lon="120.93712332198099"><ele>611.0</ele><time>2026-04-04T09:34:44Z</time></trkpt><trkpt lat="14.116826423032288" lon="120.93708596834192"><ele>611.0</ele><time>2026-04-04T09:34:45Z</time></trkpt><trkpt lat="14.116954480108214" lon="120.93704372025965"><ele>610.5</ele><time>2026-04-04T09:34:46Z</time></trkpt><trkpt lat="14.117081151237164" lon="120.93700487029639"><ele>610.0</ele><time>2026-04-04T09:34:47Z</time></trkpt><trkpt lat="14.117205328799384" lon="120.93696621105931"><ele>609.5</ele><time>2026-04-04T09:34:48Z</time></trkpt><trkpt lat="14.117331080800744" lon="120.93693076262964"><ele>609.0</ele><time>2026-04-04T09:34:49Z</time></trkpt><trkpt lat="14.117453385259468" lon="120.93689465174813"><ele>608.25</ele><time>2026-04-04T09:34:50Z</time></trkpt><trkpt lat="14.117576955125626" lon="120.93685248688328"><ele>607.5</ele><time>2026-04-04T09:34:51Z</time></trkpt><trkpt lat="14.117700307097117" lon="120.93681078167283"><ele>606.75</ele><time>2026-04-04T09:34:52Z</time></trkpt><trkpt lat="14.117823934876613" lon="120.93677552543382"><ele>606.0</ele><time>2026-04-04T09:34:53Z</time></trkpt><trkpt lat="14.11794737333832" lon="120.93673904925096"><ele>606.25</ele><time>2026-04-04T09:34:54Z</time></trkpt><trkpt lat="14.118076472614035" lon="120.93669855930396"><ele>606.5</ele><time>2026-04-04T09:34:55Z</time></trkpt><trkpt lat="14.118196047071507" lon="120.93665869447393"><ele>606.75</ele><time>2026-04-04T09:34:56Z</time></trkpt><trkpt lat="14.118314914382001" lon="120.93662060095464"><ele>607.0</ele><time>2026-04-04T09:34:57Z</time></trkpt><trkpt lat="14.11843248575075" lon="120.93658307165241"><ele>605.75</ele><time>2026-04-04T09:34:58Z</time></trkpt><trkpt lat="14.118561982810666" lon="120.93655095393954"><ele>604.5</ele><time>2026-04-04T09:34:59Z</time></trkpt><trkpt lat="14.118690594424612" lon="120.93650649947493"><ele>603.25</ele><time>2026-04-04T09:35:00Z</time></trkpt><trkpt lat="14.118822619007572" lon="120.93646565527757"><ele>602.0</ele><time>2026-04-04T09:35:01Z</time></trkpt><trkpt lat="14.118948311965998" lon="120.93642599419627"><ele>602.0</ele><time>2026-04-04T09:35:02Z</time></trkpt><trkpt lat="14.119064824636864" lon="120.93638728378427"><ele>602.0</ele><time>2026-04-04T09:35:03Z</time></trkpt><trkpt lat="14.11917585253608" lon="120.93635433677063"><ele>602.0</ele><time>2026-04-04T09:35:04Z</time></trkpt><trkpt lat="14.119282471077339" lon="120.93631921708287"><ele>602.0</ele><time>2026-04-04T09:35:05Z</time></trkpt><trkpt lat="14.119383563614111" lon="120.93629162418388"><ele>601.4</ele><time>2026-04-04T09:35:06Z</time></trkpt><trkpt lat="14.119478831903171" lon="120.93625924640703"><ele>600.8000000000001</ele><time>2026-04-04T09:35:07Z</time></trkpt><trkpt lat="14.119577860073095" lon="120.93622478999761"><ele>600.2</ele><time>2026-04-04T09:35:08Z</time></trkpt><trkpt lat="14.119675673563727" lon="120.93619935974709"><ele>599.6</ele><time>2026-04-04T09:35:09Z</time></trkpt><trkpt lat="14.119779338580209" lon="120.93616732933043"><ele>599.0</ele><time>2026-04-04T09:35:10Z</time></trkpt><trkpt lat="14.11988356781802" lon="120.93613445501508"><ele>598.6</ele><time>2026-04-04T09:35:11Z</time></trkpt><trkpt lat="14.119992193102881" lon="120.93610066212152"><ele>598.2</ele><time>2026-04-04T09:35:12Z</time></trkpt><trkpt lat="14.120093710100647" lon="120.93606947710713"><ele>597.8000000000001</ele><time>2026-04-04T09:35:13Z</time></trkpt><trkpt lat="14.120193272346134" lon="120.93603963419825"><ele>597.4</ele><time>2026-04-04T09:35:14Z</time></trkpt><trkpt lat="14.120284933577244" lon="120.9360149040125"><ele>597.0</ele><time>2026-04-04T09:35:15Z</time></trkpt><trkpt lat="14.120375167393709" lon="120.93598697527513"><ele>597.0</ele><time>2026-04-04T09:35:16Z</time></trkpt><trkpt lat="14.120465729040738" lon="120.93595820553803"><ele>597.0</ele><time>2026-04-04T09:35:17Z</time></trkpt><trkpt lat="14.120550460059192" lon="120.93593403596529"><ele>597.0</ele><time>2026-04-04T09:35:18Z</time></trkpt><trkpt lat="14.1206320667292" lon="120.93590961142017"><ele>597.0</ele><time>2026-04-04T09:35:19Z</time></trkpt><trkpt lat="14.120711657302664" lon="120.93588513038603"><ele>597.0</ele><time>2026-04-04T09:35:20Z</time></trkpt><trkpt lat="14.120790196563142" lon="120.93586201043401"><ele>597.0</ele><time>2026-04-04T09:35:21Z</time></trkpt><trkpt lat="14.120864784107898" lon="120.93583963298742"><ele>596.1666666666666</ele><time>2026-04-04T09:35:22Z</time></trkpt><trkpt lat="14.120939428547546" lon="120.93581859335794"><ele>595.3333333333334</ele><time>2026-04-04T09:35:23Z</time></trkpt><trkpt lat="14.121008148149013" lon="120.93579736808641"><ele>594.5</ele><time>2026-04-04T09:35:24Z</time></trkpt><trkpt lat="14.121074412195627" lon="120.93577828406504"><ele>593.6666666666667</ele><time>2026-04-04T09:35:25Z</time></trkpt><trkpt lat="14.121185718405973" lon="120.93574820011136"><ele>592.8333333333334</ele><time>2026-04-04T09:35:27Z</time></trkpt><trkpt lat="14.121278087971394" lon="120.93571809560004"><ele>592.0</ele><time>2026-04-04T09:35:30Z</time></trkpt><trkpt lat="14.12135625776982" lon="120.9356964672727"><ele>592.0</ele><time>2026-04-04T09:35:32Z</time></trkpt><trkpt lat="14.121454153348857" lon="120.9356651444517"><ele>592.0</ele><time>2026-04-04T09:35:34Z</time></trkpt><trkpt lat="14.12156186123229" lon="120.93563007159348"><ele>592.0</ele><time>2026-04-04T09:35:36Z</time></trkpt><trkpt lat="14.121690431414827" lon="120.93559722671507"><ele>592.0</ele><time>2026-04-04T09:35:38Z</time></trkpt><trkpt lat="14.121768537902742" lon="120.93557304783921"><ele>592.0</ele><time>2026-04-04T09:35:39Z</time></trkpt><trkpt lat="14.121844712840188" lon="120.93554978069378"><ele>591.0</ele><time>2026-04-04T09:35:40Z</time></trkpt><trkpt lat="14.121940309533874" lon="120.93551849088999"><ele>590.0</ele><time>2026-04-04T09:35:41Z</time></trkpt><trkpt lat="14.122037695055994" lon="120.93548765417634"><ele>589.0</ele><time>2026-04-04T09:35:42Z</time></trkpt><trkpt lat="14.122146602404596" lon="120.93545635830026"><ele>588.0</ele><time>2026-04-04T09:35:43Z</time></trkpt><trkpt lat="14.122263219381598" lon="120.9354233340074"><ele>587.0</ele><time>2026-04-04T09:35:44Z</time></trkpt><trkpt lat="14.122393604954498" lon="120.93538653818604"><ele>585.5</ele><time>2026-04-04T09:35:45Z</time></trkpt><trkpt lat="14.12252996961256" lon="120.93534390065624"><ele>584.0</ele><time>2026-04-04T09:35:46Z</time></trkpt><trkpt lat="14.122673176663051" lon="120.93529512580326"><ele>582.5</ele><time>2026-04-04T09:35:47Z</time></trkpt><trkpt lat="14.122815465868143" lon="120.93524509327476"><ele>581.0</ele><time>2026-04-04T09:35:48Z</time></trkpt><trkpt lat="14.122959509778834" lon="120.93520154357816"><ele>581.0</ele><time>2026-04-04T09:35:49Z</time></trkpt><trkpt lat="14.123105928680943" lon="120.93515939313974"><ele>581.0</ele><time>2026-04-04T09:35:50Z</time></trkpt><trkpt lat="14.123243795162198" lon="120.93511351677425"><ele>581.0</ele><time>2026-04-04T09:35:51Z</time></trkpt><trkpt lat="14.123368727691838" lon="120.93507076942514"><ele>581.0</ele><time>2026-04-04T09:35:52Z</time></trkpt><trkpt lat="14.123487730089119" lon="120.93503206765007"><ele>581.0</ele><time>2026-04-04T09:35:53Z</time></trkpt><trkpt lat="14.12359465068403" lon="120.93500050669084"><ele>581.0</ele><time>2026-04-04T09:35:54Z</time></trkpt><trkpt lat="14.123677149025433" lon="120.93497296616674"><ele>581.0</ele><time>2026-04-04T09:35:55Z</time></trkpt><trkpt lat="14.123746773881496" lon="120.93494603054141"><ele>581.0</ele><time>2026-04-04T09:35:56Z</time></trkpt><trkpt lat="14.12384928012006" lon="120.93491341184796"><ele>581.0</ele><time>2026-04-04T09:35:58Z</time></trkpt><trkpt lat="14.123918057009803" lon="120.93489307277294"><ele>581.0</ele><time>2026-04-04T09:36:00Z</time></trkpt><trkpt lat="14.12399162589538" lon="120.93487551422142"><ele>581.0</ele><time>2026-04-04T09:36:02Z</time></trkpt><trkpt lat="14.124083626080958" lon="120.9348520285866"><ele>581.0</ele><time>2026-04-04T09:36:04Z</time></trkpt><trkpt lat="14.124195753994577" lon="120.93481802860029"><ele>581.0</ele><time>2026-04-04T09:36:06Z</time></trkpt><trkpt lat="14.124263317488271" lon="120.93479546923831"><ele>581.0</ele><time>2026-04-04T09:36:07Z</time></trkpt><trkpt lat="14.124340091621553" lon="120.93477015152327"><ele>581.0</ele><time>2026-04-04T09:36:08Z</time></trkpt><trkpt lat="14.124418264010322" lon="120.93474601931459"><ele>580.5</ele><time>2026-04-04T09:36:09Z</time></trkpt><trkpt lat="14.124500588196053" lon="120.93471857530317"><ele>580.0</ele><time>2026-04-04T09:36:10Z</time></trkpt><trkpt lat="14.124563532454859" lon="120.93470043136908"><ele>579.5</ele><time>2026-04-04T09:36:11Z</time></trkpt><trkpt lat="14.124661092905649" lon="120.93466978194505"><ele>579.0</ele><time>2026-04-04T09:36:13Z</time></trkpt><trkpt lat="14.124726099485104" lon="120.93464541727091"><ele>578.5</ele><time>2026-04-04T09:36:15Z</time></trkpt><trkpt lat="14.124796712046154" lon="120.93462781411029"><ele>578.0</ele><time>2026-04-04T09:36:18Z</time></trkpt><trkpt lat="14.124874821351815" lon="120.93460142366732"><ele>577.1999999999999</ele><time>2026-04-04T09:36:22Z</time></trkpt><trkpt lat="14.124946320778275" lon="120.93457062701788"><ele>576.4</ele><time>2026-04-04T09:38:03Z</time></trkpt><trkpt lat="14.12501339010942" lon="120.93454748010562"><ele>575.5999999999999</ele><time>2026-04-04T09:38:05Z</time></trkpt><trkpt lat="14.125111815290861" lon="120.93452295494154"><ele>574.8</ele><time>2026-04-04T09:38:07Z</time></trkpt><trkpt lat="14.125240225497658" lon="120.9344880801849"><ele>574.0</ele><time>2026-04-04T09:38:09Z</time></trkpt><trkpt lat="14.125310161666476" lon="120.93446641028996"><ele>574.0</ele><time>2026-04-04T09:38:10Z</time></trkpt><trkpt lat="14.125383802694852" lon="120.9344442796035"><ele>574.0</ele><time>2026-04-04T09:38:11Z</time></trkpt><trkpt lat="14.125464580930473" lon="120.93441941038944"><ele>574.0</ele><time>2026-04-04T09:38:12Z</time></trkpt><trkpt lat="14.125556710063899" lon="120.93439075311997"><ele>574.0</ele><time>2026-04-04T09:38:13Z</time></trkpt><trkpt lat="14.125653218529271" lon="120.9343625332558"><ele>574.0</ele><time>2026-04-04T09:38:14Z</time></trkpt><trkpt lat="14.12575227657434" lon="120.93433404936533"><ele>573.6</ele><time>2026-04-04T09:38:15Z</time></trkpt><trkpt lat="14.125851846845629" lon="120.93430437294961"><ele>573.2</ele><time>2026-04-04T09:38:16Z</time></trkpt><trkpt lat="14.125955217368045" lon="120.93427113838082"><ele>572.8000000000001</ele><time>2026-04-04T09:38:17Z</time></trkpt><trkpt lat="14.126063361472951" lon="120.9342351041346"><ele>572.4</ele><time>2026-04-04T09:38:18Z</time></trkpt><trkpt lat="14.126161114947134" lon="120.93421166592033"><ele>572.0</ele><time>2026-04-04T09:38:19Z</time></trkpt><trkpt lat="14.126264137341293" lon="120.93418173258449"><ele>572.0</ele><time>2026-04-04T09:38:20Z</time></trkpt><trkpt lat="14.126374506715605" lon="120.93414498073508"><ele>572.0</ele><time>2026-04-04T09:38:21Z</time></trkpt><trkpt lat="14.126481439919068" lon="120.9341121731914"><ele>572.0</ele><time>2026-04-04T09:38:22Z</time></trkpt><trkpt lat="14.126588735925266" lon="120.9340759451881"><ele>572.0</ele><time>2026-04-04T09:38:23Z</time></trkpt><trkpt lat="14.12669390011301" lon="120.93404066094669"><ele>571.6</ele><time>2026-04-04T09:38:24Z</time></trkpt><trkpt lat="14.126796115580579" lon="120.93401254694011"><ele>571.2</ele><time>2026-04-04T09:38:25Z</time></trkpt><trkpt lat="14.12689966834688" lon="120.93397797428591"><ele>570.8</ele><time>2026-04-04T09:38:26Z</time></trkpt><trkpt lat="14.127004159379434" lon="120.93394260695617"><ele>570.4</ele><time>2026-04-04T09:38:27Z</time></trkpt><trkpt lat="14.127106361892428" lon="120.93391303962817"><ele>570.0</ele><time>2026-04-04T09:38:28Z</time></trkpt><trkpt lat="14.127210013824836" lon="120.93388051594661"><ele>570.0</ele><time>2026-04-04T09:38:29Z</time></trkpt><trkpt lat="14.127306336365734" lon="120.9338511405756"><ele>570.0</ele><time>2026-04-04T09:38:30Z</time></trkpt><trkpt lat="14.127396882188531" lon="120.93382614696834"><ele>570.0</ele><time>2026-04-04T09:38:31Z</time></trkpt><trkpt lat="14.127493113034683" lon="120.93379675767312"><ele>570.0</ele><time>2026-04-04T09:38:32Z</time></trkpt><trkpt lat="14.127595969559577" lon="120.93376216473243"><ele>570.0</ele><time>2026-04-04T09:38:33Z</time></trkpt><trkpt lat="14.127703510612529" lon="120.93372650248172"><ele>569.2</ele><time>2026-04-04T09:38:34Z</time></trkpt><trkpt lat="14.127791398326446" lon="120.93369730132778"><ele>568.4</ele><time>2026-04-04T09:38:35Z</time></trkpt><trkpt lat="14.127885195965314" lon="120.93366669042324"><ele>567.6</ele><time>2026-04-04T09:38:36Z</time></trkpt><trkpt lat="14.127987135228965" lon="120.93363607035953"><ele>566.8</ele><time>2026-04-04T09:38:37Z</time></trkpt><trkpt lat="14.128086807788446" lon="120.93360850030001"><ele>566.0</ele><time>2026-04-04T09:38:38Z</time></trkpt><trkpt lat="14.128188480669127" lon="120.9335766363466"><ele>565.4</ele><time>2026-04-04T09:38:39Z</time></trkpt><trkpt lat="14.128292179915816" lon="120.93354369199733"><ele>564.8</ele><time>2026-04-04T09:38:40Z</time></trkpt><trkpt lat="14.128399055453086" lon="120.9335100046607"><ele>564.1999999999999</ele><time>2026-04-04T09:38:41Z</time></trkpt><trkpt lat="14.128504622755313" lon="120.93348009750281"><ele>563.6</ele><time>2026-04-04T09:38:42Z</time></trkpt><trkpt lat="14.128608268159956" lon="120.93344903647593"><ele>563.0</ele><time>2026-04-04T09:38:43Z</time></trkpt><trkpt lat="14.128722387698982" lon="120.93341769978632"><ele>563.0</ele><time>2026-04-04T09:38:44Z</time></trkpt><trkpt lat="14.128834966242868" lon="120.93339571586694"><ele>563.0</ele><time>2026-04-04T09:38:45Z</time></trkpt><trkpt lat="14.128954265383753" lon="120.93337131625019"><ele>563.0</ele><time>2026-04-04T09:38:46Z</time></trkpt><trkpt lat="14.129069357242985" lon="120.9333466197633"><ele>563.0</ele><time>2026-04-04T09:38:47Z</time></trkpt><trkpt lat="14.129191300039924" lon="120.93332276364984"><ele>563.0</ele><time>2026-04-04T09:38:48Z</time></trkpt><trkpt lat="14.129314132005721" lon="120.93330308117442"><ele>563.0</ele><time>2026-04-04T09:38:49Z</time></trkpt><trkpt lat="14.129436558059998" lon="120.93328355709356"><ele>563.0</ele><time>2026-04-04T09:38:50Z</time></trkpt><trkpt lat="14.129561004624867" lon="120.93326075151775"><ele>563.0</ele><time>2026-04-04T09:38:51Z</time></trkpt><trkpt lat="14.129680531530518" lon="120.93324164351962"><ele>563.0</ele><time>2026-04-04T09:38:52Z</time></trkpt><trkpt lat="14.1298030534422" lon="120.93321986406242"><ele>563.0</ele><time>2026-04-04T09:38:53Z</time></trkpt><trkpt lat="14.129927102219325" lon="120.93319835315681"><ele>563.0</ele><time>2026-04-04T09:38:54Z</time></trkpt><trkpt lat="14.13005501485339" lon="120.9331732567655"><ele>563.0</ele><time>2026-04-04T09:38:55Z</time></trkpt><trkpt lat="14.130177925322258" lon="120.9331499443223"><ele>562.0</ele><time>2026-04-04T09:38:56Z</time></trkpt><trkpt lat="14.13030241981729" lon="120.93312792374952"><ele>561.0</ele><time>2026-04-04T09:38:57Z</time></trkpt><trkpt lat="14.13043103962747" lon="120.93310794430712"><ele>560.0</ele><time>2026-04-04T09:38:58Z</time></trkpt><trkpt lat="14.130548932675927" lon="120.93308725397345"><ele>559.0</ele><time>2026-04-04T09:38:59Z</time></trkpt><trkpt lat="14.130664200915255" lon="120.9330707283806"><ele>558.25</ele><time>2026-04-04T09:39:00Z</time></trkpt><trkpt lat="14.130782924604295" lon="120.93304903747519"><ele>557.5</ele><time>2026-04-04T09:39:01Z</time></trkpt><trkpt lat="14.130892562165773" lon="120.93303429615705"><ele>556.75</ele><time>2026-04-04T09:39:02Z</time></trkpt><trkpt lat="14.13100747427248" lon="120.93301749209387"><ele>556.0</ele><time>2026-04-04T09:39:03Z</time></trkpt><trkpt lat="14.131119453411962" lon="120.93300098367143"><ele>556.0</ele><time>2026-04-04T09:39:04Z</time></trkpt><trkpt lat="14.131239241895106" lon="120.93297997258294"><ele>556.0</ele><time>2026-04-04T09:39:05Z</time></trkpt><trkpt lat="14.131361579134094" lon="120.93296069866548"><ele>556.0</ele><time>2026-04-04T09:39:06Z</time></trkpt><trkpt lat="14.131477730052586" lon="120.93294123859975"><ele>556.0</ele><time>2026-04-04T09:39:07Z</time></trkpt><trkpt lat="14.131582218199695" lon="120.932924445843"><ele>555.8</ele><time>2026-04-04T09:39:08Z</time></trkpt><trkpt lat="14.131687956701496" lon="120.93290765935456"><ele>555.6</ele><time>2026-04-04T09:39:09Z</time></trkpt><trkpt lat="14.131787463643416" lon="120.9328935317506"><ele>555.4</ele><time>2026-04-04T09:39:10Z</time></trkpt><trkpt lat="14.131878906305168" lon="120.93287962044344"><ele>555.2</ele><time>2026-04-04T09:39:11Z</time></trkpt><trkpt lat="14.131969135202354" lon="120.93286477228588"><ele>555.0</ele><time>2026-04-04T09:39:12Z</time></trkpt><trkpt lat="14.132061733526465" lon="120.9328526570133"><ele>555.0</ele><time>2026-04-04T09:39:13Z</time></trkpt><trkpt lat="14.132162496235177" lon="120.93283734602069"><ele>555.0</ele><time>2026-04-04T09:39:14Z</time></trkpt><trkpt lat="14.132261797868853" lon="120.93282407949738"><ele>555.0</ele><time>2026-04-04T09:39:15Z</time></trkpt><trkpt lat="14.132366767593478" lon="120.93280973299417"><ele>555.0</ele><time>2026-04-04T09:39:16Z</time></trkpt><trkpt lat="14.132464930380793" lon="120.93279004286764"><ele>555.0</ele><time>2026-04-04T09:39:17Z</time></trkpt><trkpt lat="14.132553072928744" lon="120.93277057752339"><ele>554.5</ele><time>2026-04-04T09:39:18Z</time></trkpt><trkpt lat="14.132631456635155" lon="120.93275408592628"><ele>554.0</ele><time>2026-04-04T09:39:19Z</time></trkpt><trkpt lat="14.13269584328954" lon="120.93274227372714"><ele>553.5</ele><time>2026-04-04T09:39:20Z</time></trkpt><trkpt lat="14.13276719287079" lon="120.93272096177424"><ele>553.0</ele><time>2026-04-04T09:39:24Z</time></trkpt><trkpt lat="14.13288522691618" lon="120.93270498575981"><ele>552.5</ele><time>2026-04-04T09:39:26Z</time></trkpt><trkpt lat="14.132964170534034" lon="120.93269402397546"><ele>552.0</ele><time>2026-04-04T09:39:27Z</time></trkpt><trkpt lat="14.133048667935515" lon="120.93268273561928"><ele>552.0</ele><time>2026-04-04T09:39:28Z</time></trkpt><trkpt lat="14.133145915749713" lon="120.93266626138647"><ele>552.0</ele><time>2026-04-04T09:39:29Z</time></trkpt><trkpt lat="14.133241982361486" lon="120.93265153045333"><ele>552.0</ele><time>2026-04-04T09:39:30Z</time></trkpt><trkpt lat="14.133349329793418" lon="120.93263466846344"><ele>552.0</ele><time>2026-04-04T09:39:31Z</time></trkpt><trkpt lat="14.133458461281048" lon="120.9326166817332"><ele>552.0</ele><time>2026-04-04T09:39:32Z</time></trkpt><trkpt lat="14.13357091895335" lon="120.93259807194919"><ele>552.0</ele><time>2026-04-04T09:39:33Z</time></trkpt><trkpt lat="14.133695229901075" lon="120.93257722721539"><ele>552.0</ele><time>2026-04-04T09:39:34Z</time></trkpt><trkpt lat="14.133823773966352" lon="120.9325576150051"><ele>552.0</ele><time>2026-04-04T09:39:35Z</time></trkpt><trkpt lat="14.133954215638044" lon="120.93253537520626"><ele>552.0</ele><time>2026-04-04T09:39:36Z</time></trkpt><trkpt lat="14.13408513061102" lon="120.93251472789495"><ele>550.0</ele><time>2026-04-04T09:39:37Z</time></trkpt><trkpt lat="14.134218774140185" lon="120.93249171238561"><ele>548.0</ele><time>2026-04-04T09:39:38Z</time></trkpt><trkpt lat="14.134349653503564" lon="120.93246758741657"><ele>546.0</ele><time>2026-04-04T09:39:39Z</time></trkpt><trkpt lat="14.13448099580587" lon="120.93244702437836"><ele>544.0</ele><time>2026-04-04T09:39:40Z</time></trkpt><trkpt lat="14.134609115338693" lon="120.9324250492769"><ele>544.0</ele><time>2026-04-04T09:39:41Z</time></trkpt><trkpt lat="14.13474033097746" lon="120.93240270359021"><ele>544.0</ele><time>2026-04-04T09:39:42Z</time></trkpt><trkpt lat="14.134869290358015" lon="120.93238161101418"><ele>544.0</ele><time>2026-04-04T09:39:43Z</time></trkpt><trkpt lat="14.135004292993925" lon="120.93235973187477"><ele>544.0</ele><time>2026-04-04T09:39:44Z</time></trkpt><trkpt lat="14.1351383867952" lon="120.93233934365418"><ele>543.0</ele><time>2026-04-04T09:39:45Z</time></trkpt><trkpt lat="14.135272328618429" lon="120.93232042996114"><ele>542.0</ele><time>2026-04-04T09:39:46Z</time></trkpt><trkpt lat="14.135408354867609" lon="120.93230373443018"><ele>541.0</ele><time>2026-04-04T09:39:47Z</time></trkpt><trkpt lat="14.135543235650783" lon="120.93228337557217"><ele>540.0</ele><time>2026-04-04T09:39:48Z</time></trkpt><trkpt lat="14.135675670916477" lon="120.93226032137723"><ele>539.75</ele><time>2026-04-04T09:39:49Z</time></trkpt><trkpt lat="14.135811392403975" lon="120.93223706304936"><ele>539.5</ele><time>2026-04-04T09:39:50Z</time></trkpt><trkpt lat="14.135943956547813" lon="120.93221529950232"><ele>539.25</ele><time>2026-04-04T09:39:51Z</time></trkpt><trkpt lat="14.136077905715663" lon="120.93219280265392"><ele>539.0</ele><time>2026-04-04T09:39:52Z</time></trkpt><trkpt lat="14.136208084695609" lon="120.93217066115278"><ele>539.0</ele><time>2026-04-04T09:39:53Z</time></trkpt><trkpt lat="14.136343430453262" lon="120.93214804038811"><ele>539.0</ele><time>2026-04-04T09:39:54Z</time></trkpt><trkpt lat="14.136477073945683" lon="120.93212730720558"><ele>539.0</ele><time>2026-04-04T09:39:55Z</time></trkpt><trkpt lat="14.136609530045005" lon="120.93210360156813"><ele>539.0</ele><time>2026-04-04T09:39:56Z</time></trkpt><trkpt lat="14.136742347768527" lon="120.93207920031148"><ele>538.75</ele><time>2026-04-04T09:39:57Z</time></trkpt><trkpt lat="14.136874637109798" lon="120.93205328671282"><ele>538.5</ele><time>2026-04-04T09:39:58Z</time></trkpt><trkpt lat="14.137002280613574" lon="120.93203210097482"><ele>538.25</ele><time>2026-04-04T09:39:59Z</time></trkpt><trkpt lat="14.137136900754143" lon="120.93201255488708"><ele>538.0</ele><time>2026-04-04T09:40:00Z</time></trkpt><trkpt lat="14.137271672314279" lon="120.93199428434666"><ele>538.0</ele><time>2026-04-04T09:40:01Z</time></trkpt><trkpt lat="14.137408280462983" lon="120.93197025313091"><ele>538.0</ele><time>2026-04-04T09:40:02Z</time></trkpt><trkpt lat="14.137549965367143" lon="120.93194645974785"><ele>538.0</ele><time>2026-04-04T09:40:03Z</time></trkpt><trkpt lat="14.137695869827933" lon="120.931922641864"><ele>538.0</ele><time>2026-04-04T09:40:04Z</time></trkpt><trkpt lat="14.137849998817122" lon="120.93190147285705"><ele>538.0</ele><time>2026-04-04T09:40:05Z</time></trkpt><trkpt lat="14.138008150367005" lon="120.93187729716426"><ele>538.0</ele><time>2026-04-04T09:40:06Z</time></trkpt><trkpt lat="14.13816823976069" lon="120.93184929430424"><ele>538.0</ele><time>2026-04-04T09:40:07Z</time></trkpt><trkpt lat="14.138336679947683" lon="120.93181985126749"><ele>537.3333333333334</ele><time>2026-04-04T09:40:08Z</time></trkpt><trkpt lat="14.138502546375367" lon="120.93179092062523"><ele>536.6666666666666</ele><time>2026-04-04T09:40:09Z</time></trkpt><trkpt lat="14.138659558475217" lon="120.93176946949474"><ele>536.0</ele><time>2026-04-04T09:40:10Z</time></trkpt><trkpt lat="14.138812703029089" lon="120.93174677254649"><ele>535.0</ele><time>2026-04-04T09:40:11Z</time></trkpt><trkpt lat="14.138962105529316" lon="120.93172102956905"><ele>534.0</ele><time>2026-04-04T09:40:12Z</time></trkpt><trkpt lat="14.139116956080604" lon="120.93169369809884"><ele>533.0</ele><time>2026-04-04T09:40:13Z</time></trkpt><trkpt lat="14.13926943739676" lon="120.93166626031316"><ele>532.6666666666666</ele><time>2026-04-04T09:40:14Z</time></trkpt><trkpt lat="14.139428311763092" lon="120.93164797237905"><ele>532.3333333333334</ele><time>2026-04-04T09:40:15Z</time></trkpt><trkpt lat="14.139585410011962" lon="120.93162265531251"><ele>532.0</ele><time>2026-04-04T09:40:16Z</time></trkpt><trkpt lat="14.139740174186" lon="120.93159496310665"><ele>531.0</ele><time>2026-04-04T09:40:17Z</time></trkpt><trkpt lat="14.139894871968515" lon="120.93156446772612"><ele>530.0</ele><time>2026-04-04T09:40:18Z</time></trkpt><trkpt lat="14.140046140158205" lon="120.93153697439335"><ele>529.0</ele><time>2026-04-04T09:40:19Z</time></trkpt><trkpt lat="14.140199254704005" lon="120.93151439582776"><ele>529.0</ele><time>2026-04-04T09:40:20Z</time></trkpt><trkpt lat="14.140346895308557" lon="120.93149237817482"><ele>529.0</ele><time>2026-04-04T09:40:21Z</time></trkpt><trkpt lat="14.140484101123931" lon="120.9314724801299"><ele>529.0</ele><time>2026-04-04T09:40:22Z</time></trkpt><trkpt lat="14.140614929460252" lon="120.93145054509966"><ele>529.0</ele><time>2026-04-04T09:40:23Z</time></trkpt><trkpt lat="14.140748944984754" lon="120.93142917542869"><ele>528.25</ele><time>2026-04-04T09:40:24Z</time></trkpt><trkpt lat="14.140883474226161" lon="120.931407664331"><ele>527.5</ele><time>2026-04-04T09:40:25Z</time></trkpt><trkpt lat="14.1410148648249" lon="120.93138839608376"><ele>526.75</ele><time>2026-04-04T09:40:26Z</time></trkpt><trkpt lat="14.141139684124376" lon="120.93137173690529"><ele>526.0</ele><time>2026-04-04T09:40:27Z</time></trkpt><trkpt lat="14.141276157829468" lon="120.93134809126754"><ele>526.0</ele><time>2026-04-04T09:40:28Z</time></trkpt><trkpt lat="14.141401507625984" lon="120.93132447961355"><ele>526.0</ele><time>2026-04-04T09:40:29Z</time></trkpt><trkpt lat="14.141538243788089" lon="120.93130240144994"><ele>526.0</ele><time>2026-04-04T09:40:30Z</time></trkpt><trkpt lat="14.141668201812921" lon="120.93128283012827"><ele>526.0</ele><time>2026-04-04T09:40:31Z</time></trkpt><trkpt lat="14.141785662852131" lon="120.93126246974145"><ele>525.5</ele><time>2026-04-04T09:40:32Z</time></trkpt><trkpt lat="14.141902838472653" lon="120.93124390886756"><ele>525.0</ele><time>2026-04-04T09:40:33Z</time></trkpt><trkpt lat="14.142012287929097" lon="120.93122520220341"><ele>524.5</ele><time>2026-04-04T09:40:34Z</time></trkpt><trkpt lat="14.142123451812813" lon="120.9312077297227"><ele>524.0</ele><time>2026-04-04T09:40:35Z</time></trkpt><trkpt lat="14.14224002460761" lon="120.93119050193464"><ele>524.0</ele><time>2026-04-04T09:40:36Z</time></trkpt><trkpt lat="14.14234921847807" lon="120.93117298511764"><ele>524.0</ele><time>2026-04-04T09:40:37Z</time></trkpt><trkpt lat="14.142462904464404" lon="120.9311528437277"><ele>524.0</ele><time>2026-04-04T09:40:38Z</time></trkpt><trkpt lat="14.14257775435875" lon="120.93113359347315"><ele>524.0</ele><time>2026-04-04T09:40:39Z</time></trkpt><trkpt lat="14.142680260964978" lon="120.93111456222924"><ele>524.0</ele><time>2026-04-04T09:40:40Z</time></trkpt><trkpt lat="14.142792954046612" lon="120.93109567785926"><ele>523.25</ele><time>2026-04-04T09:40:41Z</time></trkpt><trkpt lat="14.142904520135199" lon="120.93107776779992"><ele>522.5</ele><time>2026-04-04T09:40:42Z</time></trkpt><trkpt lat="14.14301478314324" lon="120.93106136623808"><ele>521.75</ele><time>2026-04-04T09:40:43Z</time></trkpt><trkpt lat="14.143130151191404" lon="120.93104311778214"><ele>521.0</ele><time>2026-04-04T09:40:44Z</time></trkpt><trkpt lat="14.143246994602709" lon="120.93102436019078"><ele>521.0</ele><time>2026-04-04T09:40:45Z</time></trkpt><trkpt lat="14.143368202114468" lon="120.9310025444301"><ele>521.0</ele><time>2026-04-04T09:40:46Z</time></trkpt><trkpt lat="14.143490089945441" lon="120.93098310393961"><ele>521.0</ele><time>2026-04-04T09:40:47Z</time></trkpt><trkpt lat="14.14361458639538" lon="120.9309629227813"><ele>521.0</ele><time>2026-04-04T09:40:48Z</time></trkpt><trkpt lat="14.143739448754836" lon="120.93094398543721"><ele>521.0</ele><time>2026-04-04T09:40:49Z</time></trkpt><trkpt lat="14.143866453642964" lon="120.93092620592324"><ele>521.0</ele><time>2026-04-04T09:40:50Z</time></trkpt><trkpt lat="14.143998821119387" lon="120.93091060265581"><ele>521.0</ele><time>2026-04-04T09:40:51Z</time></trkpt><trkpt lat="14.144135241100848" lon="120.93089473600298"><ele>521.0</ele><time>2026-04-04T09:40:52Z</time></trkpt><trkpt lat="14.144257701958193" lon="120.93087395455426"><ele>519.5</ele><time>2026-04-04T09:40:53Z</time></trkpt><trkpt lat="14.144380020483935" lon="120.93085385059857"><ele>518.0</ele><time>2026-04-04T09:40:54Z</time></trkpt><trkpt lat="14.144505342896714" lon="120.93083292143254"><ele>516.5</ele><time>2026-04-04T09:40:55Z</time></trkpt><trkpt lat="14.144619769164708" lon="120.93081344330584"><ele>515.0</ele><time>2026-04-04T09:40:56Z</time></trkpt><trkpt lat="14.14473657606319" lon="120.93079342401788"><ele>515.0</ele><time>2026-04-04T09:40:57Z</time></trkpt><trkpt lat="14.14485451439665" lon="120.93077161052322"><ele>515.0</ele><time>2026-04-04T09:40:58Z</time></trkpt><trkpt lat="14.144975234890515" lon="120.93075186127261"><ele>515.0</ele><time>2026-04-04T09:40:59Z</time></trkpt><trkpt lat="14.145094646396867" lon="120.93073154985811"><ele>515.0</ele><time>2026-04-04T09:41:00Z</time></trkpt><trkpt lat="14.145216158956645" lon="120.93071179788807"><ele>514.6</ele><time>2026-04-04T09:41:01Z</time></trkpt><trkpt lat="14.145331181373365" lon="120.93069266629506"><ele>514.2</ele><time>2026-04-04T09:41:02Z</time></trkpt><trkpt lat="14.145435962773913" lon="120.93067332714966"><ele>513.8</ele><time>2026-04-04T09:41:03Z</time></trkpt><trkpt lat="14.145537389169116" lon="120.93065305472093"><ele>513.4</ele><time>2026-04-04T09:41:04Z</time></trkpt><trkpt lat="14.145637680993389" lon="120.9306352385741"><ele>513.0</ele><time>2026-04-04T09:41:05Z</time></trkpt><trkpt lat="14.145736858904492" lon="120.9306184967686"><ele>512.8</ele><time>2026-04-04T09:41:06Z</time></trkpt><trkpt lat="14.145830854872537" lon="120.93060501043713"><ele>512.5999999999999</ele><time>2026-04-04T09:41:07Z</time></trkpt><trkpt lat="14.145930421427314" lon="120.93058696166183"><ele>512.4000000000001</ele><time>2026-04-04T09:41:08Z</time></trkpt><trkpt lat="14.146033693612022" lon="120.93057050612573"><ele>512.2</ele><time>2026-04-04T09:41:09Z</time></trkpt><trkpt lat="14.1461391884203" lon="120.930552362135"><ele>512.0</ele><time>2026-04-04T09:41:10Z</time></trkpt><trkpt lat="14.146253108602682" lon="120.93053340743407"><ele>512.0</ele><time>2026-04-04T09:41:11Z</time></trkpt><trkpt lat="14.14636635411586" lon="120.93051660679257"><ele>512.0</ele><time>2026-04-04T09:41:12Z</time></trkpt><trkpt lat="14.14648200812694" lon="120.9304995340703"><ele>512.0</ele><time>2026-04-04T09:41:13Z</time></trkpt><trkpt lat="14.146600999997679" lon="120.93047892684822"><ele>512.0</ele><time>2026-04-04T09:41:14Z</time></trkpt><trkpt lat="14.146723306368228" lon="120.93045510254476"><ele>511.5</ele><time>2026-04-04T09:41:15Z</time></trkpt><trkpt lat="14.146845284763616" lon="120.93043206679614"><ele>511.0</ele><time>2026-04-04T09:41:16Z</time></trkpt><trkpt lat="14.146969791251497" lon="120.93040774047488"><ele>510.5</ele><time>2026-04-04T09:41:17Z</time></trkpt><trkpt lat="14.14709582714568" lon="120.93037778800743"><ele>510.0</ele><time>2026-04-04T09:41:18Z</time></trkpt><trkpt lat="14.14722690452204" lon="120.9303424897459"><ele>510.0</ele><time>2026-04-04T09:41:19Z</time></trkpt><trkpt lat="14.147353724254716" lon="120.93030563555324"><ele>510.0</ele><time>2026-04-04T09:41:20Z</time></trkpt><trkpt lat="14.14748090354715" lon="120.93026817369851"><ele>510.0</ele><time>2026-04-04T09:41:21Z</time></trkpt><trkpt lat="14.147610170573822" lon="120.93022717387868"><ele>510.0</ele><time>2026-04-04T09:41:22Z</time></trkpt><trkpt lat="14.147732159279416" lon="120.93018601748336"><ele>509.5</ele><time>2026-04-04T09:41:23Z</time></trkpt><trkpt lat="14.147846981285369" lon="120.9301487925035"><ele>509.0</ele><time>2026-04-04T09:41:24Z</time></trkpt><trkpt lat="14.147960843345588" lon="120.93011172878379"><ele>508.5</ele><time>2026-04-04T09:41:25Z</time></trkpt><trkpt lat="14.148076263336465" lon="120.93007712336775"><ele>508.0</ele><time>2026-04-04T09:41:26Z</time></trkpt><trkpt lat="14.148197471354772" lon="120.93003904233989"><ele>507.25</ele><time>2026-04-04T09:41:27Z</time></trkpt><trkpt lat="14.148313147886435" lon="120.93000225930916"><ele>506.5</ele><time>2026-04-04T09:41:28Z</time></trkpt><trkpt lat="14.14842748609229" lon="120.92997395309492"><ele>505.75</ele><time>2026-04-04T09:41:29Z</time></trkpt><trkpt lat="14.14853842748342" lon="120.92994144821871"><ele>505.0</ele><time>2026-04-04T09:41:30Z</time></trkpt><trkpt lat="14.148649326303648" lon="120.92990708347506"><ele>505.0</ele><time>2026-04-04T09:41:31Z</time></trkpt><trkpt lat="14.148764989437211" lon="120.92987147565474"><ele>505.0</ele><time>2026-04-04T09:41:32Z</time></trkpt><trkpt lat="14.148876986802696" lon="120.92983532642273"><ele>505.0</ele><time>2026-04-04T09:41:33Z</time></trkpt><trkpt lat="14.14898624273302" lon="120.92979978292756"><ele>505.0</ele><time>2026-04-04T09:41:34Z</time></trkpt><trkpt lat="14.149096903794318" lon="120.92976473051303"><ele>504.4</ele><time>2026-04-04T09:41:35Z</time></trkpt><trkpt lat="14.14919484346162" lon="120.92973510979385"><ele>503.8</ele><time>2026-04-04T09:41:36Z</time></trkpt><trkpt lat="14.14929129764334" lon="120.92970903621952"><ele>503.20000000000005</ele><time>2026-04-04T09:41:37Z</time></trkpt><trkpt lat="14.149396041022603" lon="120.92968440514349"><ele>502.6</ele><time>2026-04-04T09:41:38Z</time></trkpt><trkpt lat="14.149506415160765" lon="120.9296578408299"><ele>502.0</ele><time>2026-04-04T09:41:39Z</time></trkpt><trkpt lat="14.149623288123475" lon="120.92962500847209"><ele>502.0</ele><time>2026-04-04T09:41:40Z</time></trkpt><trkpt lat="14.149747803562171" lon="120.92957868035599"><ele>502.0</ele><time>2026-04-04T09:41:41Z</time></trkpt><trkpt lat="14.149875935756983" lon="120.92953947842138"><ele>502.0</ele><time>2026-04-04T09:41:42Z</time></trkpt><trkpt lat="14.15001037630466" lon="120.92949992892854"><ele>502.0</ele><time>2026-04-04T09:41:43Z</time></trkpt><trkpt lat="14.15014849259889" lon="120.9294570417016"><ele>501.6666666666667</ele><time>2026-04-04T09:41:44Z</time></trkpt><trkpt lat="14.150293435560249" lon="120.92941466219655"><ele>501.33333333333337</ele><time>2026-04-04T09:41:45Z</time></trkpt><trkpt lat="14.150437612201996" lon="120.92936909293373"><ele>501.0</ele><time>2026-04-04T09:41:46Z</time></trkpt><trkpt lat="14.150596121389011" lon="120.92931979143532"><ele>500.0</ele><time>2026-04-04T09:41:47Z</time></trkpt><trkpt lat="14.15074972336427" lon="120.92927347562558"><ele>499.0</ele><time>2026-04-04T09:41:48Z</time></trkpt><trkpt lat="14.150901005931273" lon="120.92922760988944"><ele>498.0</ele><time>2026-04-04T09:41:49Z</time></trkpt><trkpt lat="14.151053072820062" lon="120.92918038842836"><ele>497.66666666666663</ele><time>2026-04-04T09:41:50Z</time></trkpt><trkpt lat="14.151204490556868" lon="120.9291351502422"><ele>497.3333333333333</ele><time>2026-04-04T09:41:51Z</time></trkpt><trkpt lat="14.151356385138174" lon="120.9290877597071"><ele>497.0</ele><time>2026-04-04T09:41:52Z</time></trkpt><trkpt lat="14.15150872947331" lon="120.92904353589371"><ele>496.3333333333333</ele><time>2026-04-04T09:41:53Z</time></trkpt><trkpt lat="14.151669334349672" lon="120.92899360358663"><ele>495.66666666666663</ele><time>2026-04-04T09:41:54Z</time></trkpt><trkpt lat="14.15182668714305" lon="120.92894367914049"><ele>495.0</ele><time>2026-04-04T09:41:55Z</time></trkpt><trkpt lat="14.151986717596907" lon="120.92889373334157"><ele>495.0</ele><time>2026-04-04T09:41:56Z</time></trkpt><trkpt lat="14.152148141082403" lon="120.92884540038891"><ele>495.0</ele><time>2026-04-04T09:41:57Z</time></trkpt><trkpt lat="14.152314361308644" lon="120.92879645209901"><ele>495.0</ele><time>2026-04-04T09:41:58Z</time></trkpt><trkpt lat="14.152481649119792" lon="120.92874590282277"><ele>494.0</ele><time>2026-04-04T09:41:59Z</time></trkpt><trkpt lat="14.152648672913942" lon="120.9286904426029"><ele>493.0</ele><time>2026-04-04T09:42:00Z</time></trkpt><trkpt lat="14.152804711374099" lon="120.92863603898432"><ele>492.0</ele><time>2026-04-04T09:42:01Z</time></trkpt><trkpt lat="14.152952702088166" lon="120.9285944790197"><ele>492.0</ele><time>2026-04-04T09:42:02Z</time></trkpt><trkpt lat="14.153095656755255" lon="120.92855165023983"><ele>492.0</ele><time>2026-04-04T09:42:03Z</time></trkpt><trkpt lat="14.153229593985975" lon="120.92851101760809"><ele>492.0</ele><time>2026-04-04T09:42:04Z</time></trkpt><trkpt lat="14.15336646781363" lon="120.928469897363"><ele>492.0</ele><time>2026-04-04T09:42:05Z</time></trkpt><trkpt lat="14.153501069288613" lon="120.92842910009038"><ele>492.0</ele><time>2026-04-04T09:42:06Z</time></trkpt><trkpt lat="14.15363219172397" lon="120.92838896742929"><ele>492.0</ele><time>2026-04-04T09:42:07Z</time></trkpt><trkpt lat="14.153753030867268" lon="120.92835540182753"><ele>492.0</ele><time>2026-04-04T09:42:08Z</time></trkpt><trkpt lat="14.153869403477797" lon="120.9283178989005"><ele>492.0</ele><time>2026-04-04T09:42:09Z</time></trkpt><trkpt lat="14.153982018752547" lon="120.92828352233475"><ele>492.0</ele><time>2026-04-04T09:42:10Z</time></trkpt><trkpt lat="14.154093277573784" lon="120.92825079704029"><ele>492.0</ele><time>2026-04-04T09:42:11Z</time></trkpt><trkpt lat="14.154206900695282" lon="120.9282167567532"><ele>492.0</ele><time>2026-04-04T09:42:12Z</time></trkpt><trkpt lat="14.154316725081927" lon="120.92818560967781"><ele>492.0</ele><time>2026-04-04T09:42:13Z</time></trkpt><trkpt lat="14.15443234554958" lon="120.92814668211044"><ele>492.0</ele><time>2026-04-04T09:42:14Z</time></trkpt><trkpt lat="14.154537824956833" lon="120.9281131536219"><ele>492.0</ele><time>2026-04-04T09:42:15Z</time></trkpt><trkpt lat="14.154648742091599" lon="120.92808077511934"><ele>492.0</ele><time>2026-04-04T09:42:16Z</time></trkpt><trkpt lat="14.154756138589885" lon="120.92804727293655"><ele>492.0</ele><time>2026-04-04T09:42:17Z</time></trkpt><trkpt lat="14.154869380186815" lon="120.9280149131201"><ele>491.6</ele><time>2026-04-04T09:42:18Z</time></trkpt><trkpt lat="14.154977522123191" lon="120.92798383112081"><ele>491.20000000000005</ele><time>2026-04-04T09:42:19Z</time></trkpt><trkpt lat="14.155082719041133" lon="120.92794618628791"><ele>490.8</ele><time>2026-04-04T09:42:20Z</time></trkpt><trkpt lat="14.155184368840336" lon="120.92791908096997"><ele>490.4</ele><time>2026-04-04T09:42:21Z</time></trkpt><trkpt lat="14.155286877872436" lon="120.9278878938308"><ele>490.0</ele><time>2026-04-04T09:42:22Z</time></trkpt><trkpt lat="14.155393124042803" lon="120.92785505359284"><ele>490.0</ele><time>2026-04-04T09:42:23Z</time></trkpt><trkpt lat="14.15550730031789" lon="120.92781764917798"><ele>490.0</ele><time>2026-04-04T09:42:24Z</time></trkpt><trkpt lat="14.155620317421759" lon="120.9277817374995"><ele>490.0</ele><time>2026-04-04T09:42:25Z</time></trkpt><trkpt lat="14.155742703595125" lon="120.9277444018475"><ele>490.0</ele><time>2026-04-04T09:42:26Z</time></trkpt><trkpt lat="14.155862332537591" lon="120.92770531177727"><ele>489.5</ele><time>2026-04-04T09:42:27Z</time></trkpt><trkpt lat="14.15598393520021" lon="120.92766881383533"><ele>489.0</ele><time>2026-04-04T09:42:28Z</time></trkpt><trkpt lat="14.156117590616601" lon="120.92763116268102"><ele>488.5</ele><time>2026-04-04T09:42:29Z</time></trkpt><trkpt lat="14.156248456730731" lon="120.92759290572582"><ele>488.0</ele><time>2026-04-04T09:42:30Z</time></trkpt><trkpt lat="14.156384642806751" lon="120.92754808351476"><ele>488.0</ele><time>2026-04-04T09:42:31Z</time></trkpt><trkpt lat="14.15651961823271" lon="120.9275056400265"><ele>488.0</ele><time>2026-04-04T09:42:32Z</time></trkpt><trkpt lat="14.156657933208683" lon="120.92746250017359"><ele>488.0</ele><time>2026-04-04T09:42:33Z</time></trkpt><trkpt lat="14.156796525169176" lon="120.92742105432701"><ele>488.0</ele><time>2026-04-04T09:42:34Z</time></trkpt><trkpt lat="14.156934426325767" lon="120.9273771966525"><ele>487.25</ele><time>2026-04-04T09:42:35Z</time></trkpt><trkpt lat="14.157075628732038" lon="120.92733430242012"><ele>486.5</ele><time>2026-04-04T09:42:36Z</time></trkpt><trkpt lat="14.157213191997972" lon="120.92729435121616"><ele>485.75</ele><time>2026-04-04T09:42:37Z</time></trkpt><trkpt lat="14.157351682771601" lon="120.92724990185478"><ele>485.0</ele><time>2026-04-04T09:42:38Z</time></trkpt><trkpt lat="14.15748805188551" lon="120.9272057629606"><ele>484.25</ele><time>2026-04-04T09:42:39Z</time></trkpt><trkpt lat="14.157617677950888" lon="120.92716535512412"><ele>483.5</ele><time>2026-04-04T09:42:40Z</time></trkpt><trkpt lat="14.1577516318059" lon="120.92712542725721"><ele>482.75</ele><time>2026-04-04T09:42:41Z</time></trkpt><trkpt lat="14.157884691415209" lon="120.92708204072308"><ele>482.0</ele><time>2026-04-04T09:42:42Z</time></trkpt><trkpt lat="14.158010099674293" lon="120.9270422766807"><ele>482.0</ele><time>2026-04-04T09:42:43Z</time></trkpt><trkpt lat="14.158126902294137" lon="120.9270063938988"><ele>482.0</ele><time>2026-04-04T09:42:44Z</time></trkpt><trkpt lat="14.158242990200222" lon="120.92696908169391"><ele>482.0</ele><time>2026-04-04T09:42:45Z</time></trkpt><trkpt lat="14.158353960710036" lon="120.92693659123428"><ele>482.0</ele><time>2026-04-04T09:42:46Z</time></trkpt><trkpt lat="14.158456843997103" lon="120.92690415147848"><ele>481.6</ele><time>2026-04-04T09:42:47Z</time></trkpt><trkpt lat="14.158554926560731" lon="120.92687338544683"><ele>481.20000000000005</ele><time>2026-04-04T09:42:48Z</time></trkpt><trkpt lat="14.15865082872935" lon="120.92684506513064"><ele>480.8</ele><time>2026-04-04T09:42:49Z</time></trkpt><trkpt lat="14.158745752319312" lon="120.9268157079364"><ele>480.4</ele><time>2026-04-04T09:42:50Z</time></trkpt><trkpt lat="14.158839661166844" lon="120.92679256288342"><ele>480.0</ele><time>2026-04-04T09:42:51Z</time></trkpt><trkpt lat="14.158925982060207" lon="120.92676704327906"><ele>480.0</ele><time>2026-04-04T09:42:52Z</time></trkpt><trkpt lat="14.159022184858493" lon="120.92673647477064"><ele>480.0</ele><time>2026-04-04T09:42:53Z</time></trkpt><trkpt lat="14.159130043916763" lon="120.92670650388769"><ele>480.0</ele><time>2026-04-04T09:42:54Z</time></trkpt><trkpt lat="14.159246445127359" lon="120.92667425474318"><ele>480.0</ele><time>2026-04-04T09:42:55Z</time></trkpt><trkpt lat="14.159371481082704" lon="120.92663751820004"><ele>479.25</ele><time>2026-04-04T09:42:56Z</time></trkpt><trkpt lat="14.15949893216836" lon="120.92659264739984"><ele>478.5</ele><time>2026-04-04T09:42:57Z</time></trkpt><trkpt lat="14.15963136650489" lon="120.92654932305248"><ele>477.75</ele><time>2026-04-04T09:42:58Z</time></trkpt><trkpt lat="14.159769771073487" lon="120.92650902278035"><ele>477.0</ele><time>2026-04-04T09:42:59Z</time></trkpt><trkpt lat="14.159904199846249" lon="120.92646542912472"><ele>477.0</ele><time>2026-04-04T09:43:00Z</time></trkpt><trkpt lat="14.160042368836146" lon="120.92641918273299"><ele>477.0</ele><time>2026-04-04T09:43:01Z</time></trkpt><trkpt lat="14.160184285856554" lon="120.9263778733105"><ele>477.0</ele><time>2026-04-04T09:43:02Z</time></trkpt><trkpt lat="14.160319862344412" lon="120.92633605184731"><ele>477.0</ele><time>2026-04-04T09:43:03Z</time></trkpt><trkpt lat="14.160444710706525" lon="120.926295816948"><ele>477.0</ele><time>2026-04-04T09:43:04Z</time></trkpt><trkpt lat="14.16056239019318" lon="120.92625784816512"><ele>477.0</ele><time>2026-04-04T09:43:05Z</time></trkpt><trkpt lat="14.160680389468846" lon="120.92622181950223"><ele>477.0</ele><time>2026-04-04T09:43:06Z</time></trkpt><trkpt lat="14.16080041972539" lon="120.92618791834957"><ele>477.0</ele><time>2026-04-04T09:43:07Z</time></trkpt><trkpt lat="14.160922187711158" lon="120.92615075960501"><ele>475.75</ele><time>2026-04-04T09:43:08Z</time></trkpt><trkpt lat="14.161042552193647" lon="120.9261116776884"><ele>474.5</ele><time>2026-04-04T09:43:09Z</time></trkpt><trkpt lat="14.161162476226908" lon="120.92607592299294"><ele>473.25</ele><time>2026-04-04T09:43:10Z</time></trkpt><trkpt lat="14.161286604262292" lon="120.92603704589582"><ele>472.0</ele><time>2026-04-04T09:43:11Z</time></trkpt><trkpt lat="14.16140497632917" lon="120.92599987443032"><ele>472.0</ele><time>2026-04-04T09:43:12Z</time></trkpt><trkpt lat="14.161525416261178" lon="120.92596287842228"><ele>472.0</ele><time>2026-04-04T09:43:13Z</time></trkpt><trkpt lat="14.16164915657572" lon="120.92592645603756"><ele>472.0</ele><time>2026-04-04T09:43:14Z</time></trkpt><trkpt lat="14.161770420847565" lon="120.92588744785083"><ele>472.0</ele><time>2026-04-04T09:43:15Z</time></trkpt><trkpt lat="14.161901611689741" lon="120.92584601049195"><ele>472.0</ele><time>2026-04-04T09:43:16Z</time></trkpt><trkpt lat="14.1620286462795" lon="120.92580890110737"><ele>472.0</ele><time>2026-04-04T09:43:17Z</time></trkpt><trkpt lat="14.162160118472983" lon="120.92576893995606"><ele>472.0</ele><time>2026-04-04T09:43:18Z</time></trkpt><trkpt lat="14.162293650310085" lon="120.92573035538747"><ele>472.0</ele><time>2026-04-04T09:43:19Z</time></trkpt><trkpt lat="14.16242731581867" lon="120.92568943283004"><ele>471.5</ele><time>2026-04-04T09:43:20Z</time></trkpt><trkpt lat="14.162562293178333" lon="120.92564980421228"><ele>471.0</ele><time>2026-04-04T09:43:21Z</time></trkpt><trkpt lat="14.162698239535606" lon="120.92560522734652"><ele>470.5</ele><time>2026-04-04T09:43:22Z</time></trkpt><trkpt lat="14.162835622077761" lon="120.9255631876543"><ele>470.0</ele><time>2026-04-04T09:43:23Z</time></trkpt><trkpt lat="14.162975466852421" lon="120.92552142782145"><ele>470.0</ele><time>2026-04-04T09:43:24Z</time></trkpt><trkpt lat="14.163111813938922" lon="120.92548174773157"><ele>470.0</ele><time>2026-04-04T09:43:25Z</time></trkpt><trkpt lat="14.163243925264641" lon="120.92544299216068"><ele>470.0</ele><time>2026-04-04T09:43:26Z</time></trkpt><trkpt lat="14.163370895529848" lon="120.9254069319893"><ele>470.0</ele><time>2026-04-04T09:43:27Z</time></trkpt><trkpt lat="14.163486630254065" lon="120.92536736048162"><ele>469.5</ele><time>2026-04-04T09:43:28Z</time></trkpt><trkpt lat="14.163605879475192" lon="120.92532900783286"><ele>469.0</ele><time>2026-04-04T09:43:29Z</time></trkpt><trkpt lat="14.163715673158464" lon="120.92529332301548"><ele>468.5</ele><time>2026-04-04T09:43:30Z</time></trkpt><trkpt lat="14.163817882940869" lon="120.9252582884477"><ele>468.0</ele><time>2026-04-04T09:43:31Z</time></trkpt><trkpt lat="14.163917068729313" lon="120.92522839350768"><ele>468.0</ele><time>2026-04-04T09:43:32Z</time></trkpt><trkpt lat="14.164007452652498" lon="120.92519728319552"><ele>467.99999999999994</ele><time>2026-04-04T09:43:33Z</time></trkpt><trkpt lat="14.164099702880474" lon="120.92516681358518"><ele>467.99999999999994</ele><time>2026-04-04T09:43:34Z</time></trkpt><trkpt lat="14.16419004463469" lon="120.92514615913058"><ele>468.0</ele><time>2026-04-04T09:43:35Z</time></trkpt><trkpt lat="14.164281643520509" lon="120.92513819994348"><ele>468.0</ele><time>2026-04-04T09:43:36Z</time></trkpt><trkpt lat="14.164377309691837" lon="120.92514194404419"><ele>467.2</ele><time>2026-04-04T09:43:37Z</time></trkpt><trkpt lat="14.16447538706919" lon="120.92515404991863"><ele>466.4</ele><time>2026-04-04T09:43:38Z</time></trkpt><trkpt lat="14.16457787699264" lon="120.92517477889679"><ele>465.59999999999997</ele><time>2026-04-04T09:43:39Z</time></trkpt><trkpt lat="14.164679003574408" lon="120.92519664855634"><ele>464.79999999999995</ele><time>2026-04-04T09:43:40Z</time></trkpt><trkpt lat="14.164785974133647" lon="120.92521544580748"><ele>464.0</ele><time>2026-04-04T09:43:41Z</time></trkpt><trkpt lat="14.164899303170422" lon="120.92523377246654"><ele>462.75</ele><time>2026-04-04T09:43:42Z</time></trkpt><trkpt lat="14.165009335520283" lon="120.92525640922516"><ele>461.5</ele><time>2026-04-04T09:43:43Z</time></trkpt><trkpt lat="14.165119830948031" lon="120.92526839489861"><ele>460.25</ele><time>2026-04-04T09:43:44Z</time></trkpt><trkpt lat="14.1652433176168" lon="120.92528372856918"><ele>459.0</ele><time>2026-04-04T09:43:45Z</time></trkpt><trkpt lat="14.165364291410397" lon="120.9252906685444"><ele>459.0</ele><time>2026-04-04T09:43:46Z</time></trkpt><trkpt lat="14.16549240048191" lon="120.92528592466013"><ele>459.0</ele><time>2026-04-04T09:43:47Z</time></trkpt><trkpt lat="14.165629576543015" lon="120.92528404760633"><ele>459.0</ele><time>2026-04-04T09:43:48Z</time></trkpt><trkpt lat="14.165767322987247" lon="120.92527346994659"><ele>459.0</ele><time>2026-04-04T09:43:49Z</time></trkpt><trkpt lat="14.165908488496406" lon="120.92525807312946"><ele>458.5</ele><time>2026-04-04T09:43:50Z</time></trkpt><trkpt lat="14.166050645848161" lon="120.92523645321329"><ele>458.0</ele><time>2026-04-04T09:43:51Z</time></trkpt><trkpt lat="14.166192123948225" lon="120.92521656362057"><ele>457.5</ele><time>2026-04-04T09:43:52Z</time></trkpt><trkpt lat="14.16633301883427" lon="120.92519052375441"><ele>457.0</ele><time>2026-04-04T09:43:53Z</time></trkpt><trkpt lat="14.166475228854056" lon="120.92516230522632"><ele>456.0</ele><time>2026-04-04T09:43:54Z</time></trkpt><trkpt lat="14.166616856943309" lon="120.92513521717666"><ele>455.0</ele><time>2026-04-04T09:43:55Z</time></trkpt><trkpt lat="14.166756875677207" lon="120.92511043266713"><ele>454.0</ele><time>2026-04-04T09:43:56Z</time></trkpt><trkpt lat="14.166898409197561" lon="120.92508630015936"><ele>453.0</ele><time>2026-04-04T09:43:57Z</time></trkpt><trkpt lat="14.167032296114055" lon="120.92506577344211"><ele>453.0</ele><time>2026-04-04T09:43:58Z</time></trkpt><trkpt lat="14.167179298040338" lon="120.9250314394788"><ele>453.0</ele><time>2026-04-04T09:43:59Z</time></trkpt><trkpt lat="14.167323956115386" lon="120.92500422897083"><ele>453.0</ele><time>2026-04-04T09:44:00Z</time></trkpt><trkpt lat="14.167468391772958" lon="120.92497816382131"><ele>453.0</ele><time>2026-04-04T09:44:01Z</time></trkpt><trkpt lat="14.167611928580081" lon="120.92495183403456"><ele>453.0</ele><time>2026-04-04T09:44:02Z</time></trkpt><trkpt lat="14.167753517367887" lon="120.92492660470168"><ele>453.0</ele><time>2026-04-04T09:44:03Z</time></trkpt><trkpt lat="14.167895205397818" lon="120.92489970826715"><ele>453.0</ele><time>2026-04-04T09:44:04Z</time></trkpt><trkpt lat="14.168038628554063" lon="120.92487782042402"><ele>453.0</ele><time>2026-04-04T09:44:05Z</time></trkpt><trkpt lat="14.168180359765001" lon="120.9248486754478"><ele>451.0</ele><time>2026-04-04T09:44:06Z</time></trkpt><trkpt lat="14.16832079172613" lon="120.92482229926732"><ele>449.0</ele><time>2026-04-04T09:44:07Z</time></trkpt><trkpt lat="14.168463131992631" lon="120.92479234030864"><ele>447.0</ele><time>2026-04-04T09:44:08Z</time></trkpt><trkpt lat="14.168605151978785" lon="120.92476247258263"><ele>445.0</ele><time>2026-04-04T09:44:09Z</time></trkpt><trkpt lat="14.168751571639806" lon="120.92473186079991"><ele>445.0</ele><time>2026-04-04T09:44:10Z</time></trkpt><trkpt lat="14.168894680860799" lon="120.92469994249608"><ele>445.0</ele><time>2026-04-04T09:44:11Z</time></trkpt><trkpt lat="14.169035943543768" lon="120.92466488159604"><ele>445.0</ele><time>2026-04-04T09:44:12Z</time></trkpt><trkpt lat="14.169179582676161" lon="120.92462992514949"><ele>445.0</ele><time>2026-04-04T09:44:13Z</time></trkpt><trkpt lat="14.169317037253643" lon="120.92459521334719"><ele>444.00000000000006</ele><time>2026-04-04T09:44:14Z</time></trkpt><trkpt lat="14.16941923405151" lon="120.92456786356698"><ele>443.0</ele><time>2026-04-04T09:44:15Z</time></trkpt><trkpt lat="14.169489367240805" lon="120.92454901565861"><ele>442.0</ele><time>2026-04-04T09:44:16Z</time></trkpt><trkpt lat="14.169557809282644" lon="120.92452157552603"><ele>441.0</ele><time>2026-04-04T09:44:18Z</time></trkpt><trkpt lat="14.16964739200511" lon="120.92449542664532"><ele>440.00000000000006</ele><time>2026-04-04T09:44:21Z</time></trkpt><trkpt lat="14.16971640376994" lon="120.92448991930691"><ele>439.0</ele><time>2026-04-04T09:44:22Z</time></trkpt><trkpt lat="14.169797117517904" lon="120.92447934714208"><ele>438.4</ele><time>2026-04-04T09:44:23Z</time></trkpt><trkpt lat="14.169893087214412" lon="120.92446425171582"><ele>437.79999999999995</ele><time>2026-04-04T09:44:24Z</time></trkpt><trkpt lat="14.169994123593996" lon="120.92445365734001"><ele>437.20000000000005</ele><time>2026-04-04T09:44:25Z</time></trkpt><trkpt lat="14.170104281431843" lon="120.92444315863324"><ele>436.6</ele><time>2026-04-04T09:44:26Z</time></trkpt><trkpt lat="14.170219435800083" lon="120.9244315607063"><ele>436.0</ele><time>2026-04-04T09:44:27Z</time></trkpt><trkpt lat="14.170340966451356" lon="120.924421626549"><ele>436.0</ele><time>2026-04-04T09:44:28Z</time></trkpt><trkpt lat="14.170467361343832" lon="120.92441283963932"><ele>436.0</ele><time>2026-04-04T09:44:29Z</time></trkpt><trkpt lat="14.170592102738377" lon="120.92440519527689"><ele>436.0</ele><time>2026-04-04T09:44:30Z</time></trkpt><trkpt lat="14.170711361141057" lon="120.92439752942451"><ele>436.0</ele><time>2026-04-04T09:44:31Z</time></trkpt><trkpt lat="14.170841011820029" lon="120.92438955130906"><ele>436.75</ele><time>2026-04-04T09:44:32Z</time></trkpt><trkpt lat="14.17097409686053" lon="120.92437899264945"><ele>437.5</ele><time>2026-04-04T09:44:33Z</time></trkpt><trkpt lat="14.171103905341075" lon="120.92436562851658"><ele>438.25</ele><time>2026-04-04T09:44:34Z</time></trkpt><trkpt lat="14.171225087011194" lon="120.92435063986291"><ele>439.0</ele><time>2026-04-04T09:44:35Z</time></trkpt><trkpt lat="14.171345675942536" lon="120.92434348153229"><ele>439.0</ele><time>2026-04-04T09:44:36Z</time></trkpt><trkpt lat="14.171457929209042" lon="120.9243391878179"><ele>439.0</ele><time>2026-04-04T09:44:37Z</time></trkpt><trkpt lat="14.171569933965376" lon="120.92431352213752"><ele>439.0</ele><time>2026-04-04T09:44:38Z</time></trkpt><trkpt lat="14.171658304073787" lon="120.92430092655712"><ele>439.0</ele><time>2026-04-04T09:44:39Z</time></trkpt><trkpt lat="14.171754988330353" lon="120.92428740837268"><ele>439.0</ele><time>2026-04-04T09:44:40Z</time></trkpt><trkpt lat="14.171854695634178" lon="120.92428540857816"><ele>438.6</ele><time>2026-04-04T09:44:41Z</time></trkpt><trkpt lat="14.171950408742765" lon="120.92427783985663"><ele>438.2</ele><time>2026-04-04T09:44:42Z</time></trkpt><trkpt lat="14.172043178974942" lon="120.92428141909767"><ele>437.80000000000007</ele><time>2026-04-04T09:44:43Z</time></trkpt><trkpt lat="14.172128640382315" lon="120.92428241112519"><ele>437.40000000000003</ele><time>2026-04-04T09:44:44Z</time></trkpt><trkpt lat="14.172205049287616" lon="120.9242877104137"><ele>437.0</ele><time>2026-04-04T09:44:45Z</time></trkpt><trkpt lat="14.172321872575653" lon="120.92429463474127"><ele>436.99999999999994</ele><time>2026-04-04T09:44:47Z</time></trkpt><trkpt lat="14.172388978075817" lon="120.92430569470068"><ele>437.0</ele><time>2026-04-04T09:44:48Z</time></trkpt><trkpt lat="14.1724534751283" lon="120.92433035122932"><ele>437.0</ele><time>2026-04-04T09:44:49Z</time></trkpt><trkpt lat="14.172521311674394" lon="120.92436664972986"><ele>437.0</ele><time>2026-04-04T09:44:50Z</time></trkpt><trkpt lat="14.172591184858327" lon="120.92441330118739"><ele>436.99999999999994</ele><time>2026-04-04T09:44:51Z</time></trkpt><trkpt lat="14.172663764314997" lon="120.92446071652445"><ele>437.0</ele><time>2026-04-04T09:44:52Z</time></trkpt><trkpt lat="14.172742904386526" lon="120.9245064206942"><ele>437.0</ele><time>2026-04-04T09:44:53Z</time></trkpt><trkpt lat="14.172825688531539" lon="120.92455435767562"><ele>437.00000000000006</ele><time>2026-04-04T09:44:54Z</time></trkpt><trkpt lat="14.17291048996002" lon="120.9246067566826"><ele>437.00000000000006</ele><time>2026-04-04T09:44:55Z</time></trkpt><trkpt lat="14.173003628284068" lon="120.92465330221202"><ele>437.0</ele><time>2026-04-04T09:44:56Z</time></trkpt><trkpt lat="14.173091699933039" lon="120.92471090893225"><ele>437.0</ele><time>2026-04-04T09:44:57Z</time></trkpt><trkpt lat="14.17318594785316" lon="120.92476273412393"><ele>436.0</ele><time>2026-04-04T09:44:58Z</time></trkpt><trkpt lat="14.173270561502367" lon="120.92481197609001"><ele>435.00000000000006</ele><time>2026-04-04T09:44:59Z</time></trkpt><trkpt lat="14.173349148896849" lon="120.92486822705129"><ele>434.00000000000006</ele><time>2026-04-04T09:45:00Z</time></trkpt><trkpt lat="14.173411638664813" lon="120.92493363035439"><ele>433.0</ele><time>2026-04-04T09:45:01Z</time></trkpt><trkpt lat="14.173459749460022" lon="120.92501112728567"><ele>432.0</ele><time>2026-04-04T09:45:02Z</time></trkpt><trkpt lat="14.173490370780197" lon="120.92509648272976"><ele>430.6666666666667</ele><time>2026-04-04T09:45:03Z</time></trkpt><trkpt lat="14.17350281333993" lon="120.925186640336"><ele>429.33333333333337</ele><time>2026-04-04T09:45:04Z</time></trkpt><trkpt lat="14.17345724269189" lon="120.92526724982257"><ele>428.0</ele><time>2026-04-04T09:45:05Z</time></trkpt><trkpt lat="14.173438550681558" lon="120.9253444134895"><ele>426.6666666666667</ele><time>2026-04-04T09:45:06Z</time></trkpt><trkpt lat="14.173412697449299" lon="120.92543084042651"><ele>425.33333333333337</ele><time>2026-04-04T09:45:07Z</time></trkpt><trkpt lat="14.173341031067507" lon="120.92549359119593"><ele>424.0</ele><time>2026-04-04T09:45:08Z</time></trkpt><trkpt lat="14.173250783194126" lon="120.92554023211854"><ele>425.33333333333337</ele><time>2026-04-04T09:45:09Z</time></trkpt><trkpt lat="14.173155329893323" lon="120.92558122763356"><ele>426.6666666666667</ele><time>2026-04-04T09:45:10Z</time></trkpt><trkpt lat="14.173052280130127" lon="120.92558880251649"><ele>428.0</ele><time>2026-04-04T09:45:11Z</time></trkpt><trkpt lat="14.172985281692613" lon="120.92563422456149"><ele>429.33333333333337</ele><time>2026-04-04T09:45:12Z</time></trkpt><trkpt lat="14.172930584764288" lon="120.92567130651223"><ele>430.6666666666667</ele><time>2026-04-04T09:45:13Z</time></trkpt><trkpt lat="14.172883777548988" lon="120.92573626514898"><ele>432.0</ele><time>2026-04-04T09:45:14Z</time></trkpt><trkpt lat="14.172848005304274" lon="120.92580718547777"><ele>432.0</ele><time>2026-04-04T09:45:15Z</time></trkpt><trkpt lat="14.172845114891915" lon="120.92589347012998"><ele>432.0</ele><time>2026-04-04T09:45:16Z</time></trkpt><trkpt lat="14.172825782500723" lon="120.92597263838924"><ele>432.0</ele><time>2026-04-04T09:45:17Z</time></trkpt><trkpt lat="14.17281382652866" lon="120.92603800518117"><ele>432.0</ele><time>2026-04-04T09:45:18Z</time></trkpt><trkpt lat="14.172800760671379" lon="120.92611116879453"><ele>432.0</ele><time>2026-04-04T09:45:19Z</time></trkpt><trkpt lat="14.172785926770501" lon="120.92619258326802"><ele>432.0</ele><time>2026-04-04T09:45:20Z</time></trkpt><trkpt lat="14.172769974721144" lon="120.9262711382302"><ele>432.0</ele><time>2026-04-04T09:45:21Z</time></trkpt><trkpt lat="14.17275648328069" lon="120.92634477962899"><ele>432.0</ele><time>2026-04-04T09:45:22Z</time></trkpt><trkpt lat="14.172746484042053" lon="120.92643068676549"><ele>432.0</ele><time>2026-04-04T09:45:23Z</time></trkpt><trkpt lat="14.172744902447159" lon="120.92651664547637"><ele>432.0</ele><time>2026-04-04T09:45:24Z</time></trkpt><trkpt lat="14.172759715488585" lon="120.92659429062678"><ele>432.0</ele><time>2026-04-04T09:45:25Z</time></trkpt><trkpt lat="14.172780030336893" lon="120.92666683592186"><ele>432.0</ele><time>2026-04-04T09:45:26Z</time></trkpt><trkpt lat="14.172803898715523" lon="120.92673613926752"><ele>432.0</ele><time>2026-04-04T09:45:27Z</time></trkpt><trkpt lat="14.172833476391235" lon="120.92680796931333"><ele>432.0</ele><time>2026-04-04T09:45:28Z</time></trkpt><trkpt lat="14.17286544441215" lon="120.92686878978948"><ele>432.0</ele><time>2026-04-04T09:45:29Z</time></trkpt><trkpt lat="14.172904213651545" lon="120.92692519373607"><ele>432.0</ele><time>2026-04-04T09:45:30Z</time></trkpt><trkpt lat="14.172950836814765" lon="120.9269703723108"><ele>432.0</ele><time>2026-04-04T09:45:31Z</time></trkpt><trkpt lat="14.173002939838153" lon="120.92700880926513"><ele>432.0</ele><time>2026-04-04T09:45:32Z</time></trkpt><trkpt lat="14.173060345696442" lon="120.92703830337419"><ele>432.0</ele><time>2026-04-04T09:45:33Z</time></trkpt><trkpt lat="14.173173308797423" lon="120.92707734233794"><ele>431.40000000000003</ele><time>2026-04-04T09:45:35Z</time></trkpt><trkpt lat="14.173278676798038" lon="120.92712586385312"><ele>430.80000000000007</ele><time>2026-04-04T09:45:37Z</time></trkpt><trkpt lat="14.17336040521521" lon="120.92715739628949"><ele>430.2</ele><time>2026-04-04T09:45:39Z</time></trkpt><trkpt lat="14.173444560161297" lon="120.92719514359396"><ele>429.6</ele><time>2026-04-04T09:45:41Z</time></trkpt><trkpt lat="14.173546800600535" lon="120.92723239498264"><ele>429.0</ele><time>2026-04-04T09:45:43Z</time></trkpt><trkpt lat="14.173654220650162" lon="120.9272747995394"><ele>429.0</ele><time>2026-04-04T09:45:45Z</time></trkpt><trkpt lat="14.173765890986502" lon="120.92731846081918"><ele>429.0</ele><time>2026-04-04T09:45:47Z</time></trkpt><trkpt lat="14.17387975507936" lon="120.92737008281955"><ele>429.0</ele><time>2026-04-04T09:45:49Z</time></trkpt><trkpt lat="14.173986319838852" lon="120.92742254880743"><ele>429.0</ele><time>2026-04-04T09:45:51Z</time></trkpt><trkpt lat="14.174082077622945" lon="120.92746225575847"><ele>429.79999999999995</ele><time>2026-04-04T09:45:53Z</time></trkpt><trkpt lat="14.174162974916317" lon="120.9275050794116"><ele>430.59999999999997</ele><time>2026-04-04T09:45:55Z</time></trkpt><trkpt lat="14.174236399742883" lon="120.92753622614185"><ele>431.4</ele><time>2026-04-04T09:45:58Z</time></trkpt><trkpt lat="14.174293770151166" lon="120.92756335704779"><ele>432.2</ele><time>2026-04-04T09:46:32Z</time></trkpt><trkpt lat="14.174385139048603" lon="120.92759743933821"><ele>433.0</ele><time>2026-04-04T09:46:34Z</time></trkpt><trkpt lat="14.174503556138534" lon="120.92763480266281"><ele>433.00000000000006</ele><time>2026-04-04T09:46:36Z</time></trkpt><trkpt lat="14.174576282223281" lon="120.92765991790046"><ele>433.0</ele><time>2026-04-04T09:46:37Z</time></trkpt><trkpt lat="14.17464177937331" lon="120.92768651777199"><ele>433.0</ele><time>2026-04-04T09:46:38Z</time></trkpt><trkpt lat="14.174712392337899" lon="120.92771246164295"><ele>433.0</ele><time>2026-04-04T09:46:39Z</time></trkpt><trkpt lat="14.174789957457689" lon="120.9277376715304"><ele>433.00000000000006</ele><time>2026-04-04T09:46:40Z</time></trkpt><trkpt lat="14.174864683683014" lon="120.92776736197482"><ele>433.0</ele><time>2026-04-04T09:46:41Z</time></trkpt><trkpt lat="14.174951138210789" lon="120.92780266715162"><ele>432.2</ele><time>2026-04-04T09:46:42Z</time></trkpt><trkpt lat="14.175032379336933" lon="120.9278327399101"><ele>431.4</ele><time>2026-04-04T09:46:43Z</time></trkpt><trkpt lat="14.175126435580983" lon="120.92787005608479"><ele>430.59999999999997</ele><time>2026-04-04T09:46:44Z</time></trkpt><trkpt lat="14.175218559933693" lon="120.92790767654684"><ele>429.79999999999995</ele><time>2026-04-04T09:46:45Z</time></trkpt><trkpt lat="14.17531258910614" lon="120.9279457971143"><ele>429.0</ele><time>2026-04-04T09:46:46Z</time></trkpt><trkpt lat="14.175414342897993" lon="120.92798627548072"><ele>429.0</ele><time>2026-04-04T09:46:47Z</time></trkpt><trkpt lat="14.175512942606181" lon="120.92802890864806"><ele>429.0</ele><time>2026-04-04T09:46:48Z</time></trkpt><trkpt lat="14.17561830546882" lon="120.92807174875243"><ele>429.0</ele><time>2026-04-04T09:46:49Z</time></trkpt><trkpt lat="14.175728210710771" lon="120.92811647911982"><ele>429.0</ele><time>2026-04-04T09:46:50Z</time></trkpt><trkpt lat="14.175840506428624" lon="120.92816075353657"><ele>428.4</ele><time>2026-04-04T09:46:51Z</time></trkpt><trkpt lat="14.175943708311895" lon="120.92820016342098"><ele>427.79999999999995</ele><time>2026-04-04T09:46:52Z</time></trkpt><trkpt lat="14.176043099956713" lon="120.92824036784452"><ele>427.20000000000005</ele><time>2026-04-04T09:46:53Z</time></trkpt><trkpt lat="14.176145961723478" lon="120.9282815682116"><ele>426.6</ele><time>2026-04-04T09:46:54Z</time></trkpt><trkpt lat="14.176246760913513" lon="120.92832096939873"><ele>426.0</ele><time>2026-04-04T09:46:55Z</time></trkpt><trkpt lat="14.17635169015167" lon="120.92836191761936"><ele>426.0</ele><time>2026-04-04T09:46:56Z</time></trkpt><trkpt lat="14.176465720915113" lon="120.92841150832957"><ele>426.0</ele><time>2026-04-04T09:46:57Z</time></trkpt><trkpt lat="14.176570872736166" lon="120.9284482676586"><ele>426.0</ele><time>2026-04-04T09:46:58Z</time></trkpt><trkpt lat="14.176687636079862" lon="120.92849146190261"><ele>426.0</ele><time>2026-04-04T09:46:59Z</time></trkpt><trkpt lat="14.176805717183061" lon="120.92853259396088"><ele>425.5</ele><time>2026-04-04T09:47:00Z</time></trkpt><trkpt lat="14.17692534994798" lon="120.9285744445678"><ele>425.0</ele><time>2026-04-04T09:47:01Z</time></trkpt><trkpt lat="14.177043719920972" lon="120.92861301719007"><ele>424.5</ele><time>2026-04-04T09:47:02Z</time></trkpt><trkpt lat="14.177160016725923" lon="120.9286511291215"><ele>424.0</ele><time>2026-04-04T09:47:03Z</time></trkpt><trkpt lat="14.177278468033455" lon="120.92868741348245"><ele>422.75</ele><time>2026-04-04T09:47:04Z</time></trkpt><trkpt lat="14.17739926991722" lon="120.92872209390565"><ele>421.5</ele><time>2026-04-04T09:47:05Z</time></trkpt><trkpt lat="14.177511606545137" lon="120.92875346583143"><ele>420.25</ele><time>2026-04-04T09:47:06Z</time></trkpt><trkpt lat="14.177628454491751" lon="120.92878765409809"><ele>419.0</ele><time>2026-04-04T09:47:07Z</time></trkpt><trkpt lat="14.177744898128076" lon="120.92881867826264"><ele>419.0</ele><time>2026-04-04T09:47:08Z</time></trkpt><trkpt lat="14.177866254929393" lon="120.92885136893841"><ele>419.0</ele><time>2026-04-04T09:47:09Z</time></trkpt><trkpt lat="14.177987144475729" lon="120.92889062401389"><ele>419.0</ele><time>2026-04-04T09:47:10Z</time></trkpt><trkpt lat="14.178109768261413" lon="120.92892545477531"><ele>419.0</ele><time>2026-04-04T09:47:11Z</time></trkpt><trkpt lat="14.178231551561856" lon="120.92895904260212"><ele>418.5</ele><time>2026-04-04T09:47:12Z</time></trkpt><trkpt lat="14.178352100151885" lon="120.92899799447473"><ele>418.0</ele><time>2026-04-04T09:47:13Z</time></trkpt><trkpt lat="14.178481215469107" lon="120.92903423015845"><ele>417.5</ele><time>2026-04-04T09:47:14Z</time></trkpt><trkpt lat="14.178603846185737" lon="120.9290688370701"><ele>417.0</ele><time>2026-04-04T09:47:15Z</time></trkpt><trkpt lat="14.178732264655018" lon="120.92910543079891"><ele>417.0</ele><time>2026-04-04T09:47:16Z</time></trkpt><trkpt lat="14.178863235213733" lon="120.92914519660742"><ele>417.0</ele><time>2026-04-04T09:47:17Z</time></trkpt><trkpt lat="14.17898637521428" lon="120.92918356828801"><ele>417.0</ele><time>2026-04-04T09:47:18Z</time></trkpt><trkpt lat="14.179115887745343" lon="120.9292122298463"><ele>417.0</ele><time>2026-04-04T09:47:19Z</time></trkpt><trkpt lat="14.179239192821308" lon="120.92924821160578"><ele>417.25</ele><time>2026-04-04T09:47:20Z</time></trkpt><trkpt lat="14.179368885607168" lon="120.92928876848688"><ele>417.5</ele><time>2026-04-04T09:47:21Z</time></trkpt><trkpt lat="14.179496677187396" lon="120.9293312124599"><ele>417.75</ele><time>2026-04-04T09:47:22Z</time></trkpt><trkpt lat="14.179627348676688" lon="120.92937014110899"><ele>418.0</ele><time>2026-04-04T09:47:23Z</time></trkpt><trkpt lat="14.17975537327136" lon="120.92941257266803"><ele>417.0</ele><time>2026-04-04T09:47:24Z</time></trkpt><trkpt lat="14.179891057447552" lon="120.92944759073235"><ele>416.0</ele><time>2026-04-04T09:47:25Z</time></trkpt><trkpt lat="14.180025287249375" lon="120.92948498356448"><ele>415.0</ele><time>2026-04-04T09:47:26Z</time></trkpt><trkpt lat="14.180155935487416" lon="120.92952152795925"><ele>414.0</ele><time>2026-04-04T09:47:27Z</time></trkpt><trkpt lat="14.180273935578043" lon="120.92955744589882"><ele>414.0</ele><time>2026-04-04T09:47:28Z</time></trkpt><trkpt lat="14.180390493855889" lon="120.92959469984778"><ele>414.0</ele><time>2026-04-04T09:47:29Z</time></trkpt><trkpt lat="14.180503525418828" lon="120.9296280668844"><ele>414.0</ele><time>2026-04-04T09:47:30Z</time></trkpt><trkpt lat="14.180618145021915" lon="120.92966530836972"><ele>414.0</ele><time>2026-04-04T09:47:31Z</time></trkpt><trkpt lat="14.180735184494479" lon="120.92970256518699"><ele>413.75</ele><time>2026-04-04T09:47:32Z</time></trkpt><trkpt lat="14.18085574013739" lon="120.92973602952978"><ele>413.5</ele><time>2026-04-04T09:47:33Z</time></trkpt><trkpt lat="14.180977574495977" lon="120.92976979787986"><ele>413.25</ele><time>2026-04-04T09:47:34Z</time></trkpt><trkpt lat="14.181103438297006" lon="120.92981162801951"><ele>413.0</ele><time>2026-04-04T09:47:35Z</time></trkpt><trkpt lat="14.181232854177928" lon="120.92984959295167"><ele>413.0</ele><time>2026-04-04T09:47:36Z</time></trkpt><trkpt lat="14.18136054363062" lon="120.92988678893128"><ele>413.0</ele><time>2026-04-04T09:47:37Z</time></trkpt><trkpt lat="14.181485719058019" lon="120.9299369420119"><ele>413.0</ele><time>2026-04-04T09:47:38Z</time></trkpt><trkpt lat="14.181616854681355" lon="120.92997906415914"><ele>413.0</ele><time>2026-04-04T09:47:39Z</time></trkpt><trkpt lat="14.18175263411203" lon="120.93001968688061"><ele>412.25</ele><time>2026-04-04T09:47:40Z</time></trkpt><trkpt lat="14.181888610379602" lon="120.93006124428756"><ele>411.5</ele><time>2026-04-04T09:47:41Z</time></trkpt><trkpt lat="14.182025790415347" lon="120.93010223105186"><ele>410.75</ele><time>2026-04-04T09:47:42Z</time></trkpt><trkpt lat="14.18216300667015" lon="120.93014671688393"><ele>410.0</ele><time>2026-04-04T09:47:43Z</time></trkpt><trkpt lat="14.182304336543709" lon="120.93018656716232"><ele>409.66666666666663</ele><time>2026-04-04T09:47:44Z</time></trkpt><trkpt lat="14.182447652760871" lon="120.93022611007186"><ele>409.33333333333337</ele><time>2026-04-04T09:47:45Z</time></trkpt><trkpt lat="14.182589969091238" lon="120.9302687012789"><ele>409.0</ele><time>2026-04-04T09:47:46Z</time></trkpt><trkpt lat="14.182737560328473" lon="120.93031294257244"><ele>409.0</ele><time>2026-04-04T09:47:47Z</time></trkpt><trkpt lat="14.182869908580166" lon="120.93035261923222"><ele>409.0</ele><time>2026-04-04T09:47:48Z</time></trkpt><trkpt lat="14.183000912454885" lon="120.93038981075264"><ele>409.0</ele><time>2026-04-04T09:47:49Z</time></trkpt><trkpt lat="14.183117355691213" lon="120.93042980711392"><ele>409.0</ele><time>2026-04-04T09:47:50Z</time></trkpt><trkpt lat="14.183231246166347" lon="120.93046655884335"><ele>408.4</ele><time>2026-04-04T09:47:51Z</time></trkpt><trkpt lat="14.183332701753216" lon="120.93049688347391"><ele>407.79999999999995</ele><time>2026-04-04T09:47:52Z</time></trkpt><trkpt lat="14.183433803348073" lon="120.9305252588743"><ele>407.20000000000005</ele><time>2026-04-04T09:47:53Z</time></trkpt><trkpt lat="14.183523896258905" lon="120.93055298305273"><ele>406.6</ele><time>2026-04-04T09:47:54Z</time></trkpt><trkpt lat="14.18361004918388" lon="120.93058152546098"><ele>406.0</ele><time>2026-04-04T09:47:55Z</time></trkpt><trkpt lat="14.18368814215328" lon="120.93060552147742"><ele>406.00000000000006</ele><time>2026-04-04T09:47:56Z</time></trkpt><trkpt lat="14.183765243499918" lon="120.9306247128281"><ele>406.0</ele><time>2026-04-04T09:47:57Z</time></trkpt><trkpt lat="14.183839737508134" lon="120.93064305981558"><ele>406.0</ele><time>2026-04-04T09:47:58Z</time></trkpt><trkpt lat="14.183904009282973" lon="120.93066277905487"><ele>406.0</ele><time>2026-04-04T09:47:59Z</time></trkpt><trkpt lat="14.184014206082447" lon="120.93069673404904"><ele>406.00000000000006</ele><time>2026-04-04T09:48:01Z</time></trkpt><trkpt lat="14.184090442388296" lon="120.9307214131808"><ele>406.0</ele><time>2026-04-04T09:48:03Z</time></trkpt><trkpt lat="14.18416593562004" lon="120.93074560200232"><ele>405.20000000000005</ele><time>2026-04-04T09:48:05Z</time></trkpt><trkpt lat="14.184297335978565" lon="120.93076708202258"><ele>404.40000000000003</ele><time>2026-04-04T09:48:07Z</time></trkpt><trkpt lat="14.184374737790666" lon="120.9307895932436"><ele>403.6</ele><time>2026-04-04T09:48:08Z</time></trkpt><trkpt lat="14.184461818291508" lon="120.93083065953252"><ele>402.8</ele><time>2026-04-04T09:48:09Z</time></trkpt><trkpt lat="14.184560793686504" lon="120.9308578536796"><ele>402.0</ele><time>2026-04-04T09:48:10Z</time></trkpt><trkpt lat="14.184666688807583" lon="120.93088686027662"><ele>402.25</ele><time>2026-04-04T09:48:11Z</time></trkpt><trkpt lat="14.184779679655726" lon="120.9309170863889"><ele>402.5</ele><time>2026-04-04T09:48:12Z</time></trkpt><trkpt lat="14.184895226695073" lon="120.93095034134514"><ele>402.75</ele><time>2026-04-04T09:48:13Z</time></trkpt><trkpt lat="14.185007791514607" lon="120.93098068488084"><ele>403.0</ele><time>2026-04-04T09:48:14Z</time></trkpt><trkpt lat="14.18511762562509" lon="120.93101523681526"><ele>403.0</ele><time>2026-04-04T09:48:15Z</time></trkpt><trkpt lat="14.185216555710383" lon="120.93104448323625"><ele>403.0</ele><time>2026-04-04T09:48:16Z</time></trkpt><trkpt lat="14.18533006217223" lon="120.93107777270922"><ele>403.0</ele><time>2026-04-04T09:48:16.999Z</time></trkpt><trkpt lat="14.185438845667015" lon="120.93110818517684"><ele>403.0</ele><time>2026-04-04T09:48:17.999Z</time></trkpt><trkpt lat="14.18554685109688" lon="120.93113407385509"><ele>403.0</ele><time>2026-04-04T09:48:18.999Z</time></trkpt><trkpt lat="14.185658064321407" lon="120.93116825440241"><ele>402.2</ele><time>2026-04-04T09:48:19.999Z</time></trkpt><trkpt lat="14.185770283497117" lon="120.93119989523184"><ele>401.4</ele><time>2026-04-04T09:48:20.999Z</time></trkpt><trkpt lat="14.18587464376234" lon="120.93122503220087"><ele>400.59999999999997</ele><time>2026-04-04T09:48:21.999Z</time></trkpt><trkpt lat="14.185981620540522" lon="120.9312505437393"><ele>399.79999999999995</ele><time>2026-04-04T09:48:22.999Z</time></trkpt><trkpt lat="14.18609174981108" lon="120.93127674266388"><ele>399.0</ele><time>2026-04-04T09:48:23.999Z</time></trkpt><trkpt lat="14.186204141929018" lon="120.93131214484728"><ele>399.0</ele><time>2026-04-04T09:48:24.999Z</time></trkpt><trkpt lat="14.186304351448387" lon="120.93134932636642"><ele>399.0</ele><time>2026-04-04T09:48:25.999Z</time></trkpt><trkpt lat="14.186406858720597" lon="120.93137435255265"><ele>399.0</ele><time>2026-04-04T09:48:26.999Z</time></trkpt><trkpt lat="14.18651428620926" lon="120.93140404448327"><ele>399.0</ele><time>2026-04-04T09:48:27.999Z</time></trkpt><trkpt lat="14.18662658137357" lon="120.93144521841485"><ele>399.0</ele><time>2026-04-04T09:48:28.999Z</time></trkpt><trkpt lat="14.186750453734682" lon="120.93147606580786"><ele>398.25</ele><time>2026-04-04T09:48:29.999Z</time></trkpt><trkpt lat="14.186869915512357" lon="120.93150815833182"><ele>397.5</ele><time>2026-04-04T09:48:30.999Z</time></trkpt><trkpt lat="14.186991622335908" lon="120.93154116242691"><ele>396.75</ele><time>2026-04-04T09:48:31.999Z</time></trkpt><trkpt lat="14.187109868904484" lon="120.93157181054488"><ele>396.0</ele><time>2026-04-04T09:48:32.999Z</time></trkpt><trkpt lat="14.187230392322036" lon="120.93160211271007"><ele>395.5</ele><time>2026-04-04T09:48:33.999Z</time></trkpt><trkpt lat="14.187351134166093" lon="120.93163522481412"><ele>395.0</ele><time>2026-04-04T09:48:34.999Z</time></trkpt><trkpt lat="14.187473427685351" lon="120.93167170590986"><ele>394.5</ele><time>2026-04-04T09:48:35.999Z</time></trkpt><trkpt lat="14.187601495572562" lon="120.93170802532754"><ele>394.0</ele><time>2026-04-04T09:48:36.999Z</time></trkpt><trkpt lat="14.187731720125672" lon="120.93174633430374"><ele>394.0</ele><time>2026-04-04T09:48:37.999Z</time></trkpt><trkpt lat="14.187866388575179" lon="120.93178169693626"><ele>394.0</ele><time>2026-04-04T09:48:38.999Z</time></trkpt><trkpt lat="14.188000691276311" lon="120.93182000193332"><ele>394.0</ele><time>2026-04-04T09:48:39.999Z</time></trkpt><trkpt lat="14.18813510859523" lon="120.93185568701823"><ele>394.0</ele><time>2026-04-04T09:48:40.999Z</time></trkpt><trkpt lat="14.188270868516797" lon="120.93189334125242"><ele>393.0</ele><time>2026-04-04T09:48:41.999Z</time></trkpt><trkpt lat="14.188408059807589" lon="120.93193278828792"><ele>392.0</ele><time>2026-04-04T09:48:42.999Z</time></trkpt><trkpt lat="14.18854194236826" lon="120.93197159027984"><ele>391.0</ele><time>2026-04-04T09:48:43.999Z</time></trkpt><trkpt lat="14.18867998607612" lon="120.932012058763"><ele>390.0</ele><time>2026-04-04T09:48:44.999Z</time></trkpt><trkpt lat="14.188815046194732" lon="120.93205190700972"><ele>390.0</ele><time>2026-04-04T09:48:45.999Z</time></trkpt><trkpt lat="14.188952722346734" lon="120.93209021122145"><ele>390.0</ele><time>2026-04-04T09:48:46.999Z</time></trkpt><trkpt lat="14.18909102732217" lon="120.93212765700252"><ele>390.0</ele><time>2026-04-04T09:48:47.999Z</time></trkpt><trkpt lat="14.189229463348527" lon="120.93216706319096"><ele>390.0</ele><time>2026-04-04T09:48:48.999Z</time></trkpt><trkpt lat="14.189368804902733" lon="120.93220650035128"><ele>389.75</ele><time>2026-04-04T09:48:49.999Z</time></trkpt><trkpt lat="14.18950925749302" lon="120.93224478468476"><ele>389.5</ele><time>2026-04-04T09:48:50.999Z</time></trkpt><trkpt lat="14.189655694665323" lon="120.93228580483347"><ele>389.25</ele><time>2026-04-04T09:48:51.999Z</time></trkpt><trkpt lat="14.189798500770106" lon="120.93232751499833"><ele>389.0</ele><time>2026-04-04T09:48:52.999Z</time></trkpt><trkpt lat="14.189934887523037" lon="120.93236235255982"><ele>388.75</ele><time>2026-04-04T09:48:53.999Z</time></trkpt><trkpt lat="14.190068419429775" lon="120.93239810522468"><ele>388.5</ele><time>2026-04-04T09:48:54.999Z</time></trkpt><trkpt lat="14.190201066554291" lon="120.93243528093721"><ele>388.25</ele><time>2026-04-04T09:48:55.999Z</time></trkpt><trkpt lat="14.190336616391619" lon="120.9324727818818"><ele>388.0</ele><time>2026-04-04T09:48:56.999Z</time></trkpt><trkpt lat="14.190470222418073" lon="120.93250958847163"><ele>388.0</ele><time>2026-04-04T09:48:57.999Z</time></trkpt><trkpt lat="14.190605644926656" lon="120.93254706148623"><ele>388.0</ele><time>2026-04-04T09:48:58.999Z</time></trkpt><trkpt lat="14.190742230535196" lon="120.93258680824388"><ele>388.0</ele><time>2026-04-04T09:48:59.999Z</time></trkpt><trkpt lat="14.190874817142406" lon="120.93262226208645"><ele>388.0</ele><time>2026-04-04T09:49:00.999Z</time></trkpt><trkpt lat="14.191004876402221" lon="120.93265977535897"><ele>386.75</ele><time>2026-04-04T09:49:01.999Z</time></trkpt><trkpt lat="14.191128465041812" lon="120.93269661995116"><ele>385.5</ele><time>2026-04-04T09:49:02.999Z</time></trkpt><trkpt lat="14.191256500874648" lon="120.93272942717009"><ele>384.25</ele><time>2026-04-04T09:49:03.999Z</time></trkpt><trkpt lat="14.191388269059276" lon="120.93276221070148"><ele>383.0</ele><time>2026-04-04T09:49:04.999Z</time></trkpt><trkpt lat="14.19151074827091" lon="120.9328013315173"><ele>382.25</ele><time>2026-04-04T09:49:05.999Z</time></trkpt><trkpt lat="14.191644852702805" lon="120.9328368500458"><ele>381.5</ele><time>2026-04-04T09:49:06.999Z</time></trkpt><trkpt lat="14.191781399213447" lon="120.93287563969099"><ele>380.75</ele><time>2026-04-04T09:49:07.999Z</time></trkpt><trkpt lat="14.191916819115296" lon="120.93291151324256"><ele>380.0</ele><time>2026-04-04T09:49:08.999Z</time></trkpt><trkpt lat="14.192038581792088" lon="120.93294237360408"><ele>380.0</ele><time>2026-04-04T09:49:09.999Z</time></trkpt><trkpt lat="14.192164248879884" lon="120.93297373141826"><ele>380.0</ele><time>2026-04-04T09:49:10.999Z</time></trkpt><trkpt lat="14.19228738372729" lon="120.93300708531798"><ele>380.0</ele><time>2026-04-04T09:49:11.999Z</time></trkpt><trkpt lat="14.19241855339292" lon="120.93304042077979"><ele>380.0</ele><time>2026-04-04T09:49:12.999Z</time></trkpt><trkpt lat="14.192551761945557" lon="120.93307754119994"><ele>379.25</ele><time>2026-04-04T09:49:13.999Z</time></trkpt><trkpt lat="14.192690880838791" lon="120.93311975358353"><ele>378.5</ele><time>2026-04-04T09:49:14.999Z</time></trkpt><trkpt lat="14.192827108056976" lon="120.9331623523383"><ele>377.75</ele><time>2026-04-04T09:49:15.999Z</time></trkpt><trkpt lat="14.192963801875926" lon="120.93320569817304"><ele>377.0</ele><time>2026-04-04T09:49:16.999Z</time></trkpt><trkpt lat="14.193091845384608" lon="120.93324517479896"><ele>376.5</ele><time>2026-04-04T09:49:17.999Z</time></trkpt><trkpt lat="14.193218961317822" lon="120.93328456907219"><ele>376.0</ele><time>2026-04-04T09:49:18.999Z</time></trkpt><trkpt lat="14.193342767338185" lon="120.93331918398239"><ele>375.5</ele><time>2026-04-04T09:49:19.999Z</time></trkpt><trkpt lat="14.193476710068344" lon="120.9333524792765"><ele>375.0</ele><time>2026-04-04T09:49:20.999Z</time></trkpt><trkpt lat="14.19359791913311" lon="120.93338662140725"><ele>374.4</ele><time>2026-04-04T09:49:21.999Z</time></trkpt><trkpt lat="14.19371097416055" lon="120.93342410266618"><ele>373.8</ele><time>2026-04-04T09:49:22.999Z</time></trkpt><trkpt lat="14.19382261870345" lon="120.93345359378458"><ele>373.20000000000005</ele><time>2026-04-04T09:49:23.999Z</time></trkpt><trkpt lat="14.193924409068527" lon="120.93347656570512"><ele>372.6</ele><time>2026-04-04T09:49:24.999Z</time></trkpt><trkpt lat="14.194018936680935" lon="120.93350036973209"><ele>372.0</ele><time>2026-04-04T09:49:25.999Z</time></trkpt><trkpt lat="14.194099375050746" lon="120.93352761000766"><ele>371.8</ele><time>2026-04-04T09:49:26.999Z</time></trkpt><trkpt lat="14.194172358307883" lon="120.93354883888944"><ele>371.6</ele><time>2026-04-04T09:49:27.999Z</time></trkpt><trkpt lat="14.194288657470876" lon="120.93357669999523"><ele>371.40000000000003</ele><time>2026-04-04T09:49:29.999Z</time></trkpt><trkpt lat="14.194392201998436" lon="120.933600062387"><ele>371.20000000000005</ele><time>2026-04-04T09:49:31.999Z</time></trkpt><trkpt lat="14.194491593184017" lon="120.93362811218883"><ele>371.0</ele><time>2026-04-04T09:49:33.999Z</time></trkpt><trkpt lat="14.194612878044152" lon="120.93366116251727"><ele>371.0</ele><time>2026-04-04T09:49:35.999Z</time></trkpt><trkpt lat="14.19469283260182" lon="120.93368568684575"><ele>371.0</ele><time>2026-04-04T09:49:36.999Z</time></trkpt><trkpt lat="14.194772439275651" lon="120.93370968375818"><ele>371.0</ele><time>2026-04-04T09:49:37.999Z</time></trkpt><trkpt lat="14.194857327339323" lon="120.933730484099"><ele>371.0</ele><time>2026-04-04T09:49:38.999Z</time></trkpt><trkpt lat="14.194940585405126" lon="120.93375024151727"><ele>371.0</ele><time>2026-04-04T09:49:39.999Z</time></trkpt><trkpt lat="14.19502374937301" lon="120.9337721210223"><ele>371.0</ele><time>2026-04-04T09:49:40.999Z</time></trkpt><trkpt lat="14.195110933471936" lon="120.93379483062104"><ele>370.4</ele><time>2026-04-04T09:49:41.999Z</time></trkpt><trkpt lat="14.195206220361891" lon="120.93381776769829"><ele>369.8</ele><time>2026-04-04T09:49:42.999Z</time></trkpt><trkpt lat="14.195304603719904" lon="120.93384433507708"><ele>369.2</ele><time>2026-04-04T09:49:43.999Z</time></trkpt><trkpt lat="14.19541127275131" lon="120.933870946725"><ele>368.59999999999997</ele><time>2026-04-04T09:49:44.999Z</time></trkpt><trkpt lat="14.195514099119075" lon="120.93390456189671"><ele>368.0</ele><time>2026-04-04T09:49:46Z</time></trkpt><trkpt lat="14.195617783561238" lon="120.93393402780242"><ele>367.0</ele><time>2026-04-04T09:49:47Z</time></trkpt><trkpt lat="14.195731886146437" lon="120.93396673228709"><ele>366.0</ele><time>2026-04-04T09:49:48Z</time></trkpt><trkpt lat="14.19585073773839" lon="120.93400196209026"><ele>365.0</ele><time>2026-04-04T09:49:49Z</time></trkpt><trkpt lat="14.195972231554036" lon="120.93403849486214"><ele>364.0</ele><time>2026-04-04T09:49:50Z</time></trkpt><trkpt lat="14.196103559260731" lon="120.93407797526514"><ele>364.0</ele><time>2026-04-04T09:49:51Z</time></trkpt><trkpt lat="14.196225561752907" lon="120.93411908848284"><ele>364.0</ele><time>2026-04-04T09:49:52Z</time></trkpt><trkpt lat="14.196388040893103" lon="120.93415511279186"><ele>364.0</ele><time>2026-04-04T09:49:53Z</time></trkpt><trkpt lat="14.196540786002043" lon="120.93419694322787"><ele>364.3333333333333</ele><time>2026-04-04T09:49:54Z</time></trkpt><trkpt lat="14.196690555922865" lon="120.93423891794647"><ele>364.6666666666667</ele><time>2026-04-04T09:49:55Z</time></trkpt><trkpt lat="14.196851011140415" lon="120.93428169018468"><ele>365.0</ele><time>2026-04-04T09:49:56Z</time></trkpt><trkpt lat="14.197003520147254" lon="120.9343238741263"><ele>365.0</ele><time>2026-04-04T09:49:57Z</time></trkpt><trkpt lat="14.197152683386072" lon="120.93435949503692"><ele>365.0</ele><time>2026-04-04T09:49:58Z</time></trkpt><trkpt lat="14.197300382619439" lon="120.93439943310506"><ele>365.0</ele><time>2026-04-04T09:49:59Z</time></trkpt><trkpt lat="14.197452377764526" lon="120.93444029243764"><ele>364.0</ele><time>2026-04-04T09:50:00Z</time></trkpt><trkpt lat="14.197607501927845" lon="120.9344850802169"><ele>363.0</ele><time>2026-04-04T09:50:01Z</time></trkpt><trkpt lat="14.197758848238344" lon="120.93452979887547"><ele>362.0</ele><time>2026-04-04T09:50:02Z</time></trkpt><trkpt lat="14.197913953477588" lon="120.93457524653104"><ele>362.0</ele><time>2026-04-04T09:50:03Z</time></trkpt><trkpt lat="14.198066981311399" lon="120.93461515924471"><ele>362.0</ele><time>2026-04-04T09:50:04Z</time></trkpt><trkpt lat="14.198217653935087" lon="120.93466188913156"><ele>362.0</ele><time>2026-04-04T09:50:05Z</time></trkpt><trkpt lat="14.198365078964658" lon="120.93470321618062"><ele>361.33333333333337</ele><time>2026-04-04T09:50:06Z</time></trkpt><trkpt lat="14.198513822653133" lon="120.93474354831832"><ele>360.6666666666667</ele><time>2026-04-04T09:50:07Z</time></trkpt><trkpt lat="14.198660990099537" lon="120.93478335727006"><ele>360.0</ele><time>2026-04-04T09:50:08Z</time></trkpt><trkpt lat="14.1988074984554" lon="120.93482030335045"><ele>360.0</ele><time>2026-04-04T09:50:09Z</time></trkpt><trkpt lat="14.198958265993772" lon="120.93486560666524"><ele>360.0</ele><time>2026-04-04T09:50:10Z</time></trkpt><trkpt lat="14.199104687036675" lon="120.93490728765687"><ele>360.0</ele><time>2026-04-04T09:50:11Z</time></trkpt><trkpt lat="14.199249780181644" lon="120.93494645092863"><ele>360.0</ele><time>2026-04-04T09:50:12Z</time></trkpt><trkpt lat="14.199385049224048" lon="120.93498351629971"><ele>360.0</ele><time>2026-04-04T09:50:13Z</time></trkpt><trkpt lat="14.199519531491813" lon="120.93501947387732"><ele>360.0</ele><time>2026-04-04T09:50:14Z</time></trkpt><trkpt lat="14.19964908066058" lon="120.93505247824635"><ele>360.0</ele><time>2026-04-04T09:50:15Z</time></trkpt><trkpt lat="14.199773850866084" lon="120.93508715043845"><ele>359.0</ele><time>2026-04-04T09:50:16Z</time></trkpt><trkpt lat="14.19989963361252" lon="120.93512257108624"><ele>358.0</ele><time>2026-04-04T09:50:17Z</time></trkpt><trkpt lat="14.200031487224159" lon="120.93515514951542"><ele>357.0</ele><time>2026-04-04T09:50:18Z</time></trkpt><trkpt lat="14.200164819835775" lon="120.9351923408898"><ele>356.0</ele><time>2026-04-04T09:50:19Z</time></trkpt><trkpt lat="14.200298352821324" lon="120.93522737222567"><ele>356.0</ele><time>2026-04-04T09:50:20Z</time></trkpt><trkpt lat="14.20043078548131" lon="120.93526564232914"><ele>356.0</ele><time>2026-04-04T09:50:21Z</time></trkpt><trkpt lat="14.200574117909499" lon="120.93530437662706"><ele>356.0</ele><time>2026-04-04T09:50:22Z</time></trkpt><trkpt lat="14.200714167700037" lon="120.93534559964183"><ele>356.0</ele><time>2026-04-04T09:50:23Z</time></trkpt><trkpt lat="14.20086075592196" lon="120.93538516933897"><ele>355.0</ele><time>2026-04-04T09:50:24Z</time></trkpt><trkpt lat="14.201002683344983" lon="120.93542195884314"><ele>354.0</ele><time>2026-04-04T09:50:25Z</time></trkpt><trkpt lat="14.20114273908604" lon="120.93545755254604"><ele>353.0</ele><time>2026-04-04T09:50:26Z</time></trkpt><trkpt lat="14.201282324213658" lon="120.93548805260595"><ele>352.0</ele><time>2026-04-04T09:50:27Z</time></trkpt><trkpt lat="14.201424655035149" lon="120.93550886116628"><ele>351.0</ele><time>2026-04-04T09:50:28Z</time></trkpt><trkpt lat="14.201553277374162" lon="120.9355229392674"><ele>350.0</ele><time>2026-04-04T09:50:29Z</time></trkpt><trkpt lat="14.20168049100505" lon="120.93553292830768"><ele>349.0</ele><time>2026-04-04T09:50:30Z</time></trkpt><trkpt lat="14.20179303700572" lon="120.93553269319115"><ele>348.0</ele><time>2026-04-04T09:50:31Z</time></trkpt><trkpt lat="14.201891503756839" lon="120.93552380062906"><ele>348.0</ele><time>2026-04-04T09:50:32Z</time></trkpt><trkpt lat="14.201977887758165" lon="120.93551297982485"><ele>348.0</ele><time>2026-04-04T09:50:33Z</time></trkpt><trkpt lat="14.20205126259617" lon="120.93550325362371"><ele>348.0</ele><time>2026-04-04T09:50:34Z</time></trkpt><trkpt lat="14.202119238788386" lon="120.93549161423041"><ele>348.0</ele><time>2026-04-04T09:50:36Z</time></trkpt><trkpt lat="14.202223001206484" lon="120.9354685874898"><ele>348.0</ele><time>2026-04-04T09:50:40Z</time></trkpt><trkpt lat="14.202323932901892" lon="120.93544866852727"><ele>348.0</ele><time>2026-04-04T09:50:42Z</time></trkpt><trkpt lat="14.202451264991906" lon="120.9354063347233"><ele>348.0</ele><time>2026-04-04T09:50:44Z</time></trkpt><trkpt lat="14.2025193024708" lon="120.93538324900895"><ele>348.0</ele><time>2026-04-04T09:50:45Z</time></trkpt><trkpt lat="14.20259403352562" lon="120.93535443921145"><ele>348.0</ele><time>2026-04-04T09:50:46Z</time></trkpt><trkpt lat="14.20267477594451" lon="120.93531804514687"><ele>348.0</ele><time>2026-04-04T09:50:47Z</time></trkpt><trkpt lat="14.20275579872227" lon="120.93527961392635"><ele>348.0</ele><time>2026-04-04T09:50:48Z</time></trkpt><trkpt lat="14.202841186250332" lon="120.93524080642892"><ele>348.0</ele><time>2026-04-04T09:50:49Z</time></trkpt><trkpt lat="14.20292814642118" lon="120.93519858674433"><ele>348.0</ele><time>2026-04-04T09:50:50Z</time></trkpt><trkpt lat="14.203012785696282" lon="120.93516014671914"><ele>348.0</ele><time>2026-04-04T09:50:51Z</time></trkpt><trkpt lat="14.203091240238571" lon="120.93512367830793"><ele>348.0</ele><time>2026-04-04T09:50:52Z</time></trkpt><trkpt lat="14.20316388429216" lon="120.93509108306023"><ele>348.0</ele><time>2026-04-04T09:50:53Z</time></trkpt><trkpt lat="14.203228493605689" lon="120.93506198163489"><ele>348.0</ele><time>2026-04-04T09:50:54Z</time></trkpt><trkpt lat="14.203342149532151" lon="120.93500941315232"><ele>348.2</ele><time>2026-04-04T09:50:56Z</time></trkpt><trkpt lat="14.203440393130945" lon="120.93496816069795"><ele>348.4</ele><time>2026-04-04T09:50:58Z</time></trkpt><trkpt lat="14.203556059024223" lon="120.93491292402025"><ele>348.59999999999997</ele><time>2026-04-04T09:51:00Z</time></trkpt><trkpt lat="14.203623350758273" lon="120.93488047926203"><ele>348.79999999999995</ele><time>2026-04-04T09:51:01Z</time></trkpt><trkpt lat="14.203695954382503" lon="120.93484546248652"><ele>349.0</ele><time>2026-04-04T09:51:02Z</time></trkpt><trkpt lat="14.203759599509597" lon="120.93481916680852"><ele>349.0</ele><time>2026-04-04T09:51:03Z</time></trkpt><trkpt lat="14.203846584409687" lon="120.93478048799564"><ele>349.0</ele><time>2026-04-04T09:51:05Z</time></trkpt><trkpt lat="14.20392520504125" lon="120.93474486462938"><ele>349.0</ele><time>2026-04-04T09:51:08Z</time></trkpt><trkpt lat="14.203984216338064" lon="120.93471822168246"><ele>349.0</ele><time>2026-04-04T09:51:15Z</time></trkpt><trkpt lat="14.203909654323436" lon="120.93472473128175"><ele>349.0</ele><time>2026-04-04T09:51:18Z</time></trkpt><trkpt lat="14.203839099513937" lon="120.93474111605643"><ele>349.0</ele><time>2026-04-04T09:51:19Z</time></trkpt><trkpt lat="14.203922506407658" lon="120.93472963546229"><ele>349.0</ele><time>2026-04-04T09:51:20Z</time></trkpt><trkpt lat="14.203746578186848" lon="120.93478168674842"><ele>349.0</ele><time>2026-04-04T09:51:21Z</time></trkpt><trkpt lat="14.20368118733122" lon="120.93481524869016"><ele>349.0</ele><time>2026-04-04T09:51:23Z</time></trkpt><trkpt lat="14.203603368808992" lon="120.93485339584788"><ele>349.0</ele><time>2026-04-04T09:51:25Z</time></trkpt><trkpt lat="14.203524656589526" lon="120.93488767204161"><ele>349.0</ele><time>2026-04-04T09:51:27Z</time></trkpt><trkpt lat="14.203460965948736" lon="120.93491775211366"><ele>349.0</ele><time>2026-04-04T09:51:29Z</time></trkpt><trkpt lat="14.203384849633393" lon="120.93495614842566"><ele>349.0</ele><time>2026-04-04T09:51:32Z</time></trkpt><trkpt lat="14.203320914544157" lon="120.9349847885354"><ele>349.0</ele><time>2026-04-04T09:51:36Z</time></trkpt><trkpt lat="14.203253640038813" lon="120.93500399083436"><ele>349.0</ele><time>2026-04-04T09:51:45Z</time></trkpt><trkpt lat="14.203189615930746" lon="120.93502824468615"><ele>349.0</ele><time>2026-04-04T09:51:59Z</time></trkpt><trkpt lat="14.203301237671369" lon="120.93503973885097"><ele>349.0</ele><time>2026-04-04T10:01:43.999Z</time></trkpt><trkpt lat="14.203370366877916" lon="120.93500481808292"><ele>349.0</ele><time>2026-04-04T10:01:44.999Z</time></trkpt><trkpt lat="14.203460774521124" lon="120.93496124203413"><ele>349.0</ele><time>2026-04-04T10:01:46.999Z</time></trkpt><trkpt lat="14.203518188668923" lon="120.93493164391936"><ele>349.0</ele><time>2026-04-04T10:01:47.999Z</time></trkpt><trkpt lat="14.203586764167074" lon="120.93489821376818"><ele>349.0</ele><time>2026-04-04T10:01:48.999Z</time></trkpt><trkpt lat="14.203667192791002" lon="120.93486177118972"><ele>349.0</ele><time>2026-04-04T10:01:49.999Z</time></trkpt><trkpt lat="14.203749244510723" lon="120.93482459317354"><ele>349.0</ele><time>2026-04-04T10:01:50.999Z</time></trkpt><trkpt lat="14.203837794777879" lon="120.93478447063654"><ele>349.0</ele><time>2026-04-04T10:01:51.999Z</time></trkpt><trkpt lat="14.203936189910817" lon="120.93473988734128"><ele>349.0</ele><time>2026-04-04T10:01:52.999Z</time></trkpt><trkpt lat="14.204043223566115" lon="120.93469160883802"><ele>349.0</ele><time>2026-04-04T10:01:53.999Z</time></trkpt><trkpt lat="14.204158210741744" lon="120.93463974848868"><ele>349.0</ele><time>2026-04-04T10:01:54.999Z</time></trkpt><trkpt lat="14.204275632224608" lon="120.93458679024639"><ele>348.25</ele><time>2026-04-04T10:01:55.999Z</time></trkpt><trkpt lat="14.20439578632762" lon="120.93454232116787"><ele>347.5</ele><time>2026-04-04T10:01:56.999Z</time></trkpt><trkpt lat="14.204514366751997" lon="120.93448738455302"><ele>346.75</ele><time>2026-04-04T10:01:57.999Z</time></trkpt><trkpt lat="14.20462463469728" lon="120.93443678963303"><ele>346.0</ele><time>2026-04-04T10:01:58.999Z</time></trkpt><trkpt lat="14.204730469086456" lon="120.93438748274617"><ele>345.0</ele><time>2026-04-04T10:01:59.999Z</time></trkpt><trkpt lat="14.204837935127623" lon="120.93433854278439"><ele>344.0</ele><time>2026-04-04T10:02:00.999Z</time></trkpt><trkpt lat="14.204945934471132" lon="120.93428723347749"><ele>343.0</ele><time>2026-04-04T10:02:01.999Z</time></trkpt><trkpt lat="14.205048633373197" lon="120.93423632941919"><ele>342.0</ele><time>2026-04-04T10:02:02.999Z</time></trkpt><trkpt lat="14.205159563779267" lon="120.93418477630743"><ele>342.0</ele><time>2026-04-04T10:02:03.999Z</time></trkpt><trkpt lat="14.205270945245234" lon="120.93413865360219"><ele>342.0</ele><time>2026-04-04T10:02:04.999Z</time></trkpt><trkpt lat="14.205380661727526" lon="120.934089582725"><ele>342.0</ele><time>2026-04-04T10:02:05.999Z</time></trkpt><trkpt lat="14.205484085427328" lon="120.93404497779747"><ele>342.0</ele><time>2026-04-04T10:02:06.999Z</time></trkpt><trkpt lat="14.205584467565563" lon="120.93400093661839"><ele>341.8</ele><time>2026-04-04T10:02:07.999Z</time></trkpt><trkpt lat="14.205688927844013" lon="120.9339519897497"><ele>341.6</ele><time>2026-04-04T10:02:08.999Z</time></trkpt><trkpt lat="14.205789486493309" lon="120.93390557478087"><ele>341.40000000000003</ele><time>2026-04-04T10:02:09.999Z</time></trkpt><trkpt lat="14.205891336489293" lon="120.93385554664637"><ele>341.20000000000005</ele><time>2026-04-04T10:02:10.999Z</time></trkpt><trkpt lat="14.205991445597713" lon="120.93380892444331"><ele>341.0</ele><time>2026-04-04T10:02:11.999Z</time></trkpt><trkpt lat="14.206095901039136" lon="120.93376484478085"><ele>341.0</ele><time>2026-04-04T10:02:12.999Z</time></trkpt><trkpt lat="14.206196949351183" lon="120.93371851532007"><ele>341.0</ele><time>2026-04-04T10:02:13.999Z</time></trkpt><trkpt lat="14.206301344522148" lon="120.93367068523371"><ele>341.0</ele><time>2026-04-04T10:02:14.999Z</time></trkpt><trkpt lat="14.206400738376638" lon="120.93362517243804"><ele>341.0</ele><time>2026-04-04T10:02:15.999Z</time></trkpt><trkpt lat="14.206498576131025" lon="120.93357885042695"><ele>341.0</ele><time>2026-04-04T10:02:16.999Z</time></trkpt><trkpt lat="14.206599873264071" lon="120.93353351279565"><ele>340.5</ele><time>2026-04-04T10:02:17.999Z</time></trkpt><trkpt lat="14.206703306685657" lon="120.93348727742863"><ele>340.0</ele><time>2026-04-04T10:02:18.999Z</time></trkpt><trkpt lat="14.206810706190314" lon="120.93344144602372"><ele>339.5</ele><time>2026-04-04T10:02:19.999Z</time></trkpt><trkpt lat="14.206914295652652" lon="120.93339052289454"><ele>339.0</ele><time>2026-04-04T10:02:20.999Z</time></trkpt><trkpt lat="14.207024910398568" lon="120.93333702937417"><ele>338.5</ele><time>2026-04-04T10:02:21.999Z</time></trkpt><trkpt lat="14.207136032426186" lon="120.93328487955473"><ele>338.0</ele><time>2026-04-04T10:02:22.999Z</time></trkpt><trkpt lat="14.207247176632169" lon="120.9332339222492"><ele>337.5</ele><time>2026-04-04T10:02:23.999Z</time></trkpt><trkpt lat="14.207359183369778" lon="120.93318288628372"><ele>337.0</ele><time>2026-04-04T10:02:24.999Z</time></trkpt><trkpt lat="14.207470076460046" lon="120.9331328234961"><ele>337.0</ele><time>2026-04-04T10:02:25.999Z</time></trkpt><trkpt lat="14.20758229625831" lon="120.93308135842999"><ele>337.0</ele><time>2026-04-04T10:02:26.999Z</time></trkpt><trkpt lat="14.207692039105003" lon="120.93303187135558"><ele>337.0</ele><time>2026-04-04T10:02:27.999Z</time></trkpt><trkpt lat="14.207803379444309" lon="120.93297994022286"><ele>337.0</ele><time>2026-04-04T10:02:28.999Z</time></trkpt><trkpt lat="14.207916493994803" lon="120.93293053803838"><ele>337.0</ele><time>2026-04-04T10:02:29.999Z</time></trkpt><trkpt lat="14.208029761374299" lon="120.93287604602298"><ele>337.0</ele><time>2026-04-04T10:02:30.999Z</time></trkpt><trkpt lat="14.208144291291177" lon="120.9328224759801"><ele>337.0</ele><time>2026-04-04T10:02:31.999Z</time></trkpt><trkpt lat="14.208263184478193" lon="120.93276723657986"><ele>337.0</ele><time>2026-04-04T10:02:32.999Z</time></trkpt><trkpt lat="14.208380255513362" lon="120.93271894396987"><ele>337.0</ele><time>2026-04-04T10:02:33.999Z</time></trkpt><trkpt lat="14.20849666803142" lon="120.9326669361399"><ele>337.0</ele><time>2026-04-04T10:02:34.999Z</time></trkpt><trkpt lat="14.208607724029257" lon="120.93261595091784"><ele>337.0</ele><time>2026-04-04T10:02:35.999Z</time></trkpt><trkpt lat="14.208720693031518" lon="120.93256275689109"><ele>337.0</ele><time>2026-04-04T10:02:36.999Z</time></trkpt><trkpt lat="14.208834640585977" lon="120.93251136668744"><ele>336.75</ele><time>2026-04-04T10:02:38Z</time></trkpt><trkpt lat="14.208947070894673" lon="120.93245537510619"><ele>336.5</ele><time>2026-04-04T10:02:39Z</time></trkpt><trkpt lat="14.209062107124534" lon="120.9324027884061"><ele>336.25</ele><time>2026-04-04T10:02:40Z</time></trkpt><trkpt lat="14.209180246031222" lon="120.93234608211733"><ele>336.0</ele><time>2026-04-04T10:02:41Z</time></trkpt><trkpt lat="14.209292430218085" lon="120.93229325686619"><ele>336.0</ele><time>2026-04-04T10:02:42Z</time></trkpt><trkpt lat="14.209401380750508" lon="120.93224335999327"><ele>336.0</ele><time>2026-04-04T10:02:43Z</time></trkpt><trkpt lat="14.20950488026703" lon="120.93219176085931"><ele>336.0</ele><time>2026-04-04T10:02:44Z</time></trkpt><trkpt lat="14.209601961574313" lon="120.93215216278267"><ele>336.0</ele><time>2026-04-04T10:02:45Z</time></trkpt><trkpt lat="14.209697076330407" lon="120.93210443580722"><ele>336.0</ele><time>2026-04-04T10:02:46Z</time></trkpt><trkpt lat="14.209789889950668" lon="120.93205811376079"><ele>335.8</ele><time>2026-04-04T10:02:47Z</time></trkpt><trkpt lat="14.209882574434047" lon="120.93202169721029"><ele>335.6</ele><time>2026-04-04T10:02:48Z</time></trkpt><trkpt lat="14.209975136841278" lon="120.93198485565294"><ele>335.4</ele><time>2026-04-04T10:02:49Z</time></trkpt><trkpt lat="14.210057408095649" lon="120.93194452070567"><ele>335.2</ele><time>2026-04-04T10:02:50Z</time></trkpt><trkpt lat="14.210130319956626" lon="120.93191094044896"><ele>335.0</ele><time>2026-04-04T10:02:51Z</time></trkpt><trkpt lat="14.210235092522602" lon="120.93186342301975"><ele>335.0</ele><time>2026-04-04T10:02:53Z</time></trkpt><trkpt lat="14.21030197104955" lon="120.93182837073287"><ele>335.0</ele><time>2026-04-04T10:02:55Z</time></trkpt><trkpt lat="14.21036141981552" lon="120.93180403171557"><ele>335.0</ele><time>2026-04-04T10:02:59Z</time></trkpt><trkpt lat="14.210428124537941" lon="120.93172667592252"><ele>335.0</ele><time>2026-04-04T10:03:04Z</time></trkpt><trkpt lat="14.210555258642982" lon="120.93168244131824"><ele>335.0</ele><time>2026-04-04T10:03:06Z</time></trkpt><trkpt lat="14.210642335801095" lon="120.93165078761332"><ele>333.2</ele><time>2026-04-04T10:03:07Z</time></trkpt><trkpt lat="14.21073295712212" lon="120.93161220423977"><ele>331.4</ele><time>2026-04-04T10:03:08Z</time></trkpt><trkpt lat="14.210829721492173" lon="120.93156789466639"><ele>329.6</ele><time>2026-04-04T10:03:09Z</time></trkpt><trkpt lat="14.210936029356095" lon="120.93152403987287"><ele>327.8</ele><time>2026-04-04T10:03:10Z</time></trkpt><trkpt lat="14.21104120258221" lon="120.93147145851617"><ele>326.0</ele><time>2026-04-04T10:03:11Z</time></trkpt><trkpt lat="14.211152245629517" lon="120.93141299419513"><ele>326.0</ele><time>2026-04-04T10:03:12Z</time></trkpt><trkpt lat="14.211270407623598" lon="120.93136137636127"><ele>326.0</ele><time>2026-04-04T10:03:13Z</time></trkpt><trkpt lat="14.211394669223816" lon="120.93130781515266"><ele>326.0</ele><time>2026-04-04T10:03:14Z</time></trkpt><trkpt lat="14.211514820764208" lon="120.93125045122284"><ele>326.0</ele><time>2026-04-04T10:03:15Z</time></trkpt><trkpt lat="14.211638356706372" lon="120.93118950727934"><ele>326.0</ele><time>2026-04-04T10:03:16Z</time></trkpt><trkpt lat="14.211766524839664" lon="120.93112874662282"><ele>326.0</ele><time>2026-04-04T10:03:17Z</time></trkpt><trkpt lat="14.211899033338144" lon="120.93107398359335"><ele>326.0</ele><time>2026-04-04T10:03:18Z</time></trkpt><trkpt lat="14.212028372653148" lon="120.93101266647845"><ele>326.0</ele><time>2026-04-04T10:03:19Z</time></trkpt><trkpt lat="14.212160669103271" lon="120.93095205211395"><ele>325.5</ele><time>2026-04-04T10:03:20Z</time></trkpt><trkpt lat="14.212297328322235" lon="120.93089095011084"><ele>325.0</ele><time>2026-04-04T10:03:21Z</time></trkpt><trkpt lat="14.212432934471124" lon="120.93083223225895"><ele>324.5</ele><time>2026-04-04T10:03:22Z</time></trkpt><trkpt lat="14.212568047106322" lon="120.93077340660517"><ele>324.0</ele><time>2026-04-04T10:03:23Z</time></trkpt><trkpt lat="14.21269803947799" lon="120.93071697662407"><ele>323.0</ele><time>2026-04-04T10:03:24Z</time></trkpt><trkpt lat="14.212830353657036" lon="120.93065812469567"><ele>322.0</ele><time>2026-04-04T10:03:25Z</time></trkpt><trkpt lat="14.212958248916243" lon="120.93059939783384"><ele>321.0</ele><time>2026-04-04T10:03:26Z</time></trkpt><trkpt lat="14.213088004794999" lon="120.93054487509741"><ele>320.0</ele><time>2026-04-04T10:03:27Z</time></trkpt><trkpt lat="14.21321463518123" lon="120.93048248924629"><ele>320.0</ele><time>2026-04-04T10:03:28Z</time></trkpt><trkpt lat="14.213341570462148" lon="120.93042578965309"><ele>320.0</ele><time>2026-04-04T10:03:29Z</time></trkpt><trkpt lat="14.213470686974404" lon="120.93036568905559"><ele>320.0</ele><time>2026-04-04T10:03:30Z</time></trkpt><trkpt lat="14.213602136190422" lon="120.93031558368452"><ele>320.0</ele><time>2026-04-04T10:03:31Z</time></trkpt><trkpt lat="14.21372490108816" lon="120.93025274021626"><ele>320.0</ele><time>2026-04-04T10:03:32Z</time></trkpt><trkpt lat="14.213856338686984" lon="120.93019932782293"><ele>320.0</ele><time>2026-04-04T10:03:33Z</time></trkpt><trkpt lat="14.213981689177821" lon="120.9301445333489"><ele>320.0</ele><time>2026-04-04T10:03:34Z</time></trkpt><trkpt lat="14.214104478350635" lon="120.93008357836378"><ele>320.0</ele><time>2026-04-04T10:03:35Z</time></trkpt><trkpt lat="14.21422809119759" lon="120.93002348324742"><ele>319.5</ele><time>2026-04-04T10:03:36Z</time></trkpt><trkpt lat="14.214353868348757" lon="120.92997019294783"><ele>319.0</ele><time>2026-04-04T10:03:37Z</time></trkpt><trkpt lat="14.214480339781382" lon="120.9299138638634"><ele>318.5</ele><time>2026-04-04T10:03:38Z</time></trkpt><trkpt lat="14.214603619099671" lon="120.92986199955571"><ele>318.0</ele><time>2026-04-04T10:03:39Z</time></trkpt><trkpt lat="14.21472277965232" lon="120.92980591536232"><ele>317.75</ele><time>2026-04-04T10:03:40Z</time></trkpt><trkpt lat="14.214836392521118" lon="120.92975578641467"><ele>317.5</ele><time>2026-04-04T10:03:41Z</time></trkpt><trkpt lat="14.214954878048994" lon="120.92969687782907"><ele>317.25</ele><time>2026-04-04T10:03:42Z</time></trkpt><trkpt lat="14.215069214470416" lon="120.92964314527497"><ele>317.0</ele><time>2026-04-04T10:03:43Z</time></trkpt><trkpt lat="14.215179696383379" lon="120.92959973918286"><ele>317.0</ele><time>2026-04-04T10:03:44Z</time></trkpt><trkpt lat="14.215289536021274" lon="120.92955328697923"><ele>317.0</ele><time>2026-04-04T10:03:45Z</time></trkpt><trkpt lat="14.215402722428271" lon="120.92949878833458"><ele>317.0</ele><time>2026-04-04T10:03:46Z</time></trkpt><trkpt lat="14.215518015388376" lon="120.92944624432472"><ele>317.0</ele><time>2026-04-04T10:03:47Z</time></trkpt><trkpt lat="14.215630668166215" lon="120.92939760863068"><ele>316.25</ele><time>2026-04-04T10:03:48Z</time></trkpt><trkpt lat="14.215735641221722" lon="120.9293437501909"><ele>315.5</ele><time>2026-04-04T10:03:49Z</time></trkpt><trkpt lat="14.21584768947214" lon="120.92929228509651"><ele>314.75</ele><time>2026-04-04T10:03:50Z</time></trkpt><trkpt lat="14.215960796801406" lon="120.92924429012119"><ele>314.0</ele><time>2026-04-04T10:03:51Z</time></trkpt><trkpt lat="14.216072274830513" lon="120.92919808496009"><ele>314.0</ele><time>2026-04-04T10:03:52Z</time></trkpt><trkpt lat="14.21618803967583" lon="120.92915174999249"><ele>314.0</ele><time>2026-04-04T10:03:53Z</time></trkpt><trkpt lat="14.216304276201159" lon="120.92909836731043"><ele>314.0</ele><time>2026-04-04T10:03:54Z</time></trkpt><trkpt lat="14.216407068908994" lon="120.92905143005044"><ele>314.0</ele><time>2026-04-04T10:03:55Z</time></trkpt><trkpt lat="14.21651686116483" lon="120.92899511209787"><ele>313.0</ele><time>2026-04-04T10:03:56Z</time></trkpt><trkpt lat="14.21662071372236" lon="120.92895022821669"><ele>312.0</ele><time>2026-04-04T10:03:57Z</time></trkpt><trkpt lat="14.216726805848669" lon="120.92890250799867"><ele>311.0</ele><time>2026-04-04T10:03:58Z</time></trkpt><trkpt lat="14.216828457136064" lon="120.92884959371574"><ele>310.0</ele><time>2026-04-04T10:03:59Z</time></trkpt><trkpt lat="14.216928144635812" lon="120.9288058148064"><ele>310.0</ele><time>2026-04-04T10:04:00Z</time></trkpt><trkpt lat="14.217026445286526" lon="120.92876744554499"><ele>310.0</ele><time>2026-04-04T10:04:01Z</time></trkpt><trkpt lat="14.217131578432367" lon="120.92871806664695"><ele>310.0</ele><time>2026-04-04T10:04:02Z</time></trkpt><trkpt lat="14.217239440554273" lon="120.9286703390044"><ele>310.0</ele><time>2026-04-04T10:04:03Z</time></trkpt><trkpt lat="14.217350196754989" lon="120.92861049115258"><ele>309.75</ele><time>2026-04-04T10:04:04Z</time></trkpt><trkpt lat="14.217454157468572" lon="120.92857314418097"><ele>309.5</ele><time>2026-04-04T10:04:05Z</time></trkpt><trkpt lat="14.217567485340647" lon="120.92853129920903"><ele>309.25</ele><time>2026-04-04T10:04:06Z</time></trkpt><trkpt lat="14.217684087807859" lon="120.9284785952375"><ele>309.0</ele><time>2026-04-04T10:04:07Z</time></trkpt><trkpt lat="14.217801716967054" lon="120.92842990622705"><ele>308.0</ele><time>2026-04-04T10:04:08Z</time></trkpt><trkpt lat="14.217919358285988" lon="120.92838067138203"><ele>307.0</ele><time>2026-04-04T10:04:09Z</time></trkpt><trkpt lat="14.218050807703102" lon="120.92832178795541"><ele>306.0</ele><time>2026-04-04T10:04:10Z</time></trkpt><trkpt lat="14.218173891001776" lon="120.92826324140806"><ele>305.0</ele><time>2026-04-04T10:04:11Z</time></trkpt><trkpt lat="14.218300653094484" lon="120.9282049112329"><ele>304.25</ele><time>2026-04-04T10:04:12Z</time></trkpt><trkpt lat="14.21842885333719" lon="120.92814600502277"><ele>303.5</ele><time>2026-04-04T10:04:13Z</time></trkpt><trkpt lat="14.218551607472309" lon="120.92809502245672"><ele>302.75</ele><time>2026-04-04T10:04:14Z</time></trkpt><trkpt lat="14.218684083994622" lon="120.92803571992458"><ele>302.0</ele><time>2026-04-04T10:04:15Z</time></trkpt><trkpt lat="14.218827001055024" lon="120.92796448706757"><ele>302.0</ele><time>2026-04-04T10:04:16Z</time></trkpt><trkpt lat="14.218955102875558" lon="120.9279113978064"><ele>302.0</ele><time>2026-04-04T10:04:17Z</time></trkpt><trkpt lat="14.219096583789524" lon="120.92782823471687"><ele>302.0</ele><time>2026-04-04T10:04:18Z</time></trkpt><trkpt lat="14.219226859286533" lon="120.92778443901148"><ele>302.0</ele><time>2026-04-04T10:04:19Z</time></trkpt><trkpt lat="14.219361837381188" lon="120.92772082402271"><ele>301.0</ele><time>2026-04-04T10:04:20Z</time></trkpt><trkpt lat="14.21949779362628" lon="120.92765178602377"><ele>300.0</ele><time>2026-04-04T10:04:21Z</time></trkpt><trkpt lat="14.219631504139096" lon="120.9275814335045"><ele>299.0</ele><time>2026-04-04T10:04:22Z</time></trkpt><trkpt lat="14.219767941645976" lon="120.92751964016418"><ele>298.6666666666667</ele><time>2026-04-04T10:04:23Z</time></trkpt><trkpt lat="14.21990218243368" lon="120.92746397686814"><ele>298.3333333333333</ele><time>2026-04-04T10:04:24Z</time></trkpt><trkpt lat="14.220043249910738" lon="120.92739917723183"><ele>298.0</ele><time>2026-04-04T10:04:25Z</time></trkpt><trkpt lat="14.220187056431962" lon="120.92732886154342"><ele>298.0</ele><time>2026-04-04T10:04:26Z</time></trkpt><trkpt lat="14.220331552667725" lon="120.92726759403565"><ele>298.0</ele><time>2026-04-04T10:04:27Z</time></trkpt><trkpt lat="14.220479307596898" lon="120.92720043997697"><ele>298.0</ele><time>2026-04-04T10:04:28Z</time></trkpt><trkpt lat="14.220624630231455" lon="120.92713295767936"><ele>298.0</ele><time>2026-04-04T10:04:29Z</time></trkpt><trkpt lat="14.220767436090082" lon="120.9270642620977"><ele>298.0</ele><time>2026-04-04T10:04:30Z</time></trkpt><trkpt lat="14.220907585028664" lon="120.92699994667556"><ele>298.0</ele><time>2026-04-04T10:04:31Z</time></trkpt><trkpt lat="14.221047339649534" lon="120.92693657769901"><ele>298.0</ele><time>2026-04-04T10:04:32Z</time></trkpt><trkpt lat="14.221182615372294" lon="120.92687540522077"><ele>298.0</ele><time>2026-04-04T10:04:33Z</time></trkpt><trkpt lat="14.221314027684713" lon="120.9268177613024"><ele>298.0</ele><time>2026-04-04T10:04:34Z</time></trkpt><trkpt lat="14.22144653457988" lon="120.9267560358759"><ele>298.0</ele><time>2026-04-04T10:04:35Z</time></trkpt><trkpt lat="14.22157432217951" lon="120.92669931442184"><ele>297.75</ele><time>2026-04-04T10:04:36Z</time></trkpt><trkpt lat="14.221702196679363" lon="120.92664046940708"><ele>297.5</ele><time>2026-04-04T10:04:37Z</time></trkpt><trkpt lat="14.221820767637055" lon="120.92659265561745"><ele>297.25</ele><time>2026-04-04T10:04:38Z</time></trkpt><trkpt lat="14.221942113664817" lon="120.92653986977184"><ele>297.0</ele><time>2026-04-04T10:04:39Z</time></trkpt><trkpt lat="14.222056549476358" lon="120.92648665135827"><ele>297.0</ele><time>2026-04-04T10:04:40Z</time></trkpt><trkpt lat="14.222166809330938" lon="120.9264363694522"><ele>297.0</ele><time>2026-04-04T10:04:41Z</time></trkpt><trkpt lat="14.222269994501602" lon="120.92639109435346"><ele>297.0</ele><time>2026-04-04T10:04:42Z</time></trkpt><trkpt lat="14.222372780794597" lon="120.92634796900282"><ele>297.0</ele><time>2026-04-04T10:04:43Z</time></trkpt><trkpt lat="14.222472476946171" lon="120.92631011689048"><ele>296.75</ele><time>2026-04-04T10:04:44Z</time></trkpt><trkpt lat="14.222578372994064" lon="120.92625916065478"><ele>296.5</ele><time>2026-04-04T10:04:45Z</time></trkpt><trkpt lat="14.222687197293762" lon="120.92621173305935"><ele>296.25</ele><time>2026-04-04T10:04:46Z</time></trkpt><trkpt lat="14.222796173796205" lon="120.92616104830336"><ele>296.0</ele><time>2026-04-04T10:04:47Z</time></trkpt><trkpt lat="14.222899095890533" lon="120.92611434847285"><ele>296.0</ele><time>2026-04-04T10:04:48Z</time></trkpt><trkpt lat="14.223003161419633" lon="120.92606530224627"><ele>296.0</ele><time>2026-04-04T10:04:49Z</time></trkpt><trkpt lat="14.223108366097092" lon="120.92601427808674"><ele>296.0</ele><time>2026-04-04T10:04:50Z</time></trkpt><trkpt lat="14.22321593694968" lon="120.92596906713884"><ele>296.0</ele><time>2026-04-04T10:04:51Z</time></trkpt><trkpt lat="14.22332854173158" lon="120.925917798905"><ele>293.75</ele><time>2026-04-04T10:04:52Z</time></trkpt><trkpt lat="14.223441318840639" lon="120.92587026581884"><ele>291.5</ele><time>2026-04-04T10:04:53Z</time></trkpt><trkpt lat="14.223558758540245" lon="120.92581715301914"><ele>289.25</ele><time>2026-04-04T10:04:54Z</time></trkpt><trkpt lat="14.223679913759462" lon="120.9257636437633"><ele>287.0</ele><time>2026-04-04T10:04:55Z</time></trkpt><trkpt lat="14.223799174429244" lon="120.9257108740869"><ele>287.0</ele><time>2026-04-04T10:04:56Z</time></trkpt><trkpt lat="14.223921049600317" lon="120.92564813369177"><ele>287.0</ele><time>2026-04-04T10:04:57Z</time></trkpt><trkpt lat="14.224045764520111" lon="120.92559337569064"><ele>287.0</ele><time>2026-04-04T10:04:58Z</time></trkpt><trkpt lat="14.22416660583418" lon="120.92553974371435"><ele>287.0</ele><time>2026-04-04T10:04:59Z</time></trkpt><trkpt lat="14.224289943033977" lon="120.92548438214463"><ele>287.25</ele><time>2026-04-04T10:05:00Z</time></trkpt><trkpt lat="14.2244121764197" lon="120.9254342448853"><ele>287.5</ele><time>2026-04-04T10:05:01Z</time></trkpt><trkpt lat="14.22453179217941" lon="120.92538371079405"><ele>287.75</ele><time>2026-04-04T10:05:02Z</time></trkpt><trkpt lat="14.224641701644774" lon="120.92533385418241"><ele>288.0</ele><time>2026-04-04T10:05:03Z</time></trkpt><trkpt lat="14.224743143448114" lon="120.92528411844651"><ele>287.8333333333333</ele><time>2026-04-04T10:05:04Z</time></trkpt><trkpt lat="14.22483960047454" lon="120.92523978650335"><ele>287.6666666666667</ele><time>2026-04-04T10:05:05Z</time></trkpt><trkpt lat="14.224922902496242" lon="120.92520207698956"><ele>287.5</ele><time>2026-04-04T10:05:06Z</time></trkpt><trkpt lat="14.224997610962577" lon="120.92516790493313"><ele>287.33333333333337</ele><time>2026-04-04T10:05:07Z</time></trkpt><trkpt lat="14.22506265959873" lon="120.92513519323319"><ele>287.1666666666667</ele><time>2026-04-04T10:05:08Z</time></trkpt><trkpt lat="14.225134171428085" lon="120.92509495018746"><ele>287.0</ele><time>2026-04-04T10:05:09Z</time></trkpt><trkpt lat="14.225216900078394" lon="120.92505300803842"><ele>286.75</ele><time>2026-04-04T10:05:10Z</time></trkpt><trkpt lat="14.225315563928639" lon="120.92501395720568"><ele>286.5</ele><time>2026-04-04T10:05:11Z</time></trkpt><trkpt lat="14.225426342647323" lon="120.92496913524053"><ele>286.25</ele><time>2026-04-04T10:05:12Z</time></trkpt><trkpt lat="14.225539221198176" lon="120.92492422396656"><ele>286.0</ele><time>2026-04-04T10:05:13Z</time></trkpt><trkpt lat="14.225645940294813" lon="120.92488033184745"><ele>286.0</ele><time>2026-04-04T10:05:14Z</time></trkpt><trkpt lat="14.225762263988813" lon="120.92482698062672"><ele>286.0</ele><time>2026-04-04T10:05:15Z</time></trkpt><trkpt lat="14.225878895430919" lon="120.9247718998268"><ele>286.0</ele><time>2026-04-04T10:05:16Z</time></trkpt><trkpt lat="14.225994782122827" lon="120.92472533295282"><ele>286.0</ele><time>2026-04-04T10:05:17Z</time></trkpt><trkpt lat="14.226122849191706" lon="120.92466356895866"><ele>286.0</ele><time>2026-04-04T10:05:18Z</time></trkpt><trkpt lat="14.226250772806964" lon="120.92460267697825"><ele>286.0</ele><time>2026-04-04T10:05:19Z</time></trkpt><trkpt lat="14.226368004463362" lon="120.92455335747175"><ele>286.0</ele><time>2026-04-04T10:05:20Z</time></trkpt><trkpt lat="14.226502392515552" lon="120.92448773973081"><ele>286.0</ele><time>2026-04-04T10:05:21Z</time></trkpt><trkpt lat="14.2266339562608" lon="120.92442740539715"><ele>285.25</ele><time>2026-04-04T10:05:22Z</time></trkpt><trkpt lat="14.226764502965477" lon="120.92436749575705"><ele>284.5</ele><time>2026-04-04T10:05:23Z</time></trkpt><trkpt lat="14.22689996924679" lon="120.92430113433448"><ele>283.75</ele><time>2026-04-04T10:05:24Z</time></trkpt><trkpt lat="14.227029755437883" lon="120.92424358228793"><ele>283.0</ele><time>2026-04-04T10:05:25Z</time></trkpt><trkpt lat="14.227161881596793" lon="120.92418616180295"><ele>282.0</ele><time>2026-04-04T10:05:26Z</time></trkpt><trkpt lat="14.227302287666896" lon="120.92412216041242"><ele>281.0</ele><time>2026-04-04T10:05:27Z</time></trkpt><trkpt lat="14.227449434443857" lon="120.92405802894694"><ele>280.0</ele><time>2026-04-04T10:05:28Z</time></trkpt><trkpt lat="14.2275991716984" lon="120.92399059837759"><ele>280.0</ele><time>2026-04-04T10:05:29Z</time></trkpt><trkpt lat="14.227755748933571" lon="120.92392619094723"><ele>280.0</ele><time>2026-04-04T10:05:30Z</time></trkpt><trkpt lat="14.227916162015665" lon="120.92386450355953"><ele>280.0</ele><time>2026-04-04T10:05:31Z</time></trkpt><trkpt lat="14.228079211232506" lon="120.92380661536934"><ele>279.3333333333333</ele><time>2026-04-04T10:05:32Z</time></trkpt><trkpt lat="14.228248525205117" lon="120.92375737558402"><ele>278.6666666666667</ele><time>2026-04-04T10:05:33Z</time></trkpt><trkpt lat="14.228419736493935" lon="120.9237135296679"><ele>278.0</ele><time>2026-04-04T10:05:34Z</time></trkpt><trkpt lat="14.228593958141897" lon="120.92366930792517"><ele>278.0</ele><time>2026-04-04T10:05:35Z</time></trkpt><trkpt lat="14.228752762437157" lon="120.92362284692994"><ele>278.0</ele><time>2026-04-04T10:05:36Z</time></trkpt><trkpt lat="14.22891039369866" lon="120.92358081551302"><ele>278.0</ele><time>2026-04-04T10:05:37Z</time></trkpt><trkpt lat="14.22906457469019" lon="120.92353483425404"><ele>277.25</ele><time>2026-04-04T10:05:38Z</time></trkpt><trkpt lat="14.229212150221612" lon="120.92349011540993"><ele>276.5</ele><time>2026-04-04T10:05:39Z</time></trkpt><trkpt lat="14.229347543589217" lon="120.92344895600093"><ele>275.75</ele><time>2026-04-04T10:05:40Z</time></trkpt><trkpt lat="14.22947455717429" lon="120.92340684687964"><ele>275.0</ele><time>2026-04-04T10:05:41Z</time></trkpt><trkpt lat="14.229579900689277" lon="120.92337153904178"><ele>274.8</ele><time>2026-04-04T10:05:42Z</time></trkpt><trkpt lat="14.229647070867635" lon="120.92335188903918"><ele>274.6</ele><time>2026-04-04T10:05:43Z</time></trkpt><trkpt lat="14.229759877742238" lon="120.92331969722797"><ele>274.4</ele><time>2026-04-04T10:05:45Z</time></trkpt><trkpt lat="14.22984332516578" lon="120.92329764832103"><ele>274.2</ele><time>2026-04-04T10:05:47Z</time></trkpt><trkpt lat="14.229946402913663" lon="120.92328747185925"><ele>274.0</ele><time>2026-04-04T10:05:49Z</time></trkpt><trkpt lat="14.230023287691946" lon="120.92326911024409"><ele>273.8</ele><time>2026-04-04T10:05:50Z</time></trkpt><trkpt lat="14.230100574046762" lon="120.92324208984479"><ele>273.59999999999997</ele><time>2026-04-04T10:05:51Z</time></trkpt><trkpt lat="14.230196649550939" lon="120.92321113323564"><ele>273.4</ele><time>2026-04-04T10:05:52Z</time></trkpt><trkpt lat="14.230294213638674" lon="120.92317999080707"><ele>273.2</ele><time>2026-04-04T10:05:53Z</time></trkpt><trkpt lat="14.230391362417814" lon="120.92315096464806"><ele>273.0</ele><time>2026-04-04T10:05:54Z</time></trkpt><trkpt lat="14.230487241550733" lon="120.92312621707012"><ele>273.0</ele><time>2026-04-04T10:05:55Z</time></trkpt><trkpt lat="14.230578471447567" lon="120.92309979454426"><ele>273.0</ele><time>2026-04-04T10:05:56Z</time></trkpt><trkpt lat="14.230662874208342" lon="120.92307549511784"><ele>273.0</ele><time>2026-04-04T10:05:57Z</time></trkpt><trkpt lat="14.230734831003943" lon="120.92305959307596"><ele>273.0</ele><time>2026-04-04T10:05:58Z</time></trkpt><trkpt lat="14.230816224002059" lon="120.92304028853894"><ele>273.0</ele><time>2026-04-04T10:05:59Z</time></trkpt><trkpt lat="14.230904691397871" lon="120.92301324661875"><ele>273.0</ele><time>2026-04-04T10:06:00Z</time></trkpt><trkpt lat="14.230996417088845" lon="120.9229802910299"><ele>272.6</ele><time>2026-04-04T10:06:01Z</time></trkpt><trkpt lat="14.23109835778606" lon="120.92295022739427"><ele>272.20000000000005</ele><time>2026-04-04T10:06:02Z</time></trkpt><trkpt lat="14.231197723308137" lon="120.9229204165395"><ele>271.8</ele><time>2026-04-04T10:06:03Z</time></trkpt><trkpt lat="14.231307593045777" lon="120.92289006855516"><ele>271.40000000000003</ele><time>2026-04-04T10:06:04Z</time></trkpt><trkpt lat="14.231418655597832" lon="120.92285733130753"><ele>271.0</ele><time>2026-04-04T10:06:05Z</time></trkpt><trkpt lat="14.231529998349991" lon="120.92282343116956"><ele>270.2</ele><time>2026-04-04T10:06:06Z</time></trkpt><trkpt lat="14.231644010090431" lon="120.92278737970669"><ele>269.40000000000003</ele><time>2026-04-04T10:06:07Z</time></trkpt><trkpt lat="14.231749917577565" lon="120.92276155860053"><ele>268.6</ele><time>2026-04-04T10:06:08Z</time></trkpt><trkpt lat="14.231849895338026" lon="120.92273307531514"><ele>267.8</ele><time>2026-04-04T10:06:09Z</time></trkpt><trkpt lat="14.231926809761344" lon="120.92270793258041"><ele>267.0</ele><time>2026-04-04T10:06:10Z</time></trkpt><trkpt lat="14.231999226488792" lon="120.92268419189384"><ele>267.0</ele><time>2026-04-04T10:06:11Z</time></trkpt><trkpt lat="14.232065332896473" lon="120.92266665118109"><ele>267.0</ele><time>2026-04-04T10:06:12Z</time></trkpt><trkpt lat="14.232172790078241" lon="120.9226507460834"><ele>267.0</ele><time>2026-04-04T10:06:14Z</time></trkpt><trkpt lat="14.23228904197841" lon="120.92261911786112"><ele>267.0</ele><time>2026-04-04T10:06:16Z</time></trkpt><trkpt lat="14.232357005663552" lon="120.92259985704054"><ele>267.0</ele><time>2026-04-04T10:06:17Z</time></trkpt><trkpt lat="14.232428042731557" lon="120.92257566062626"><ele>267.0</ele><time>2026-04-04T10:06:18Z</time></trkpt><trkpt lat="14.232493446550087" lon="120.92255379970356"><ele>266.8</ele><time>2026-04-04T10:06:19Z</time></trkpt><trkpt lat="14.232603450576521" lon="120.9225226729251"><ele>266.6</ele><time>2026-04-04T10:06:21Z</time></trkpt><trkpt lat="14.232721611993396" lon="120.92249124064114"><ele>266.40000000000003</ele><time>2026-04-04T10:06:23Z</time></trkpt><trkpt lat="14.232793178041096" lon="120.92246731637957"><ele>266.2</ele><time>2026-04-04T10:06:24Z</time></trkpt><trkpt lat="14.23286868731251" lon="120.92244448237292"><ele>266.0</ele><time>2026-04-04T10:06:25Z</time></trkpt><trkpt lat="14.232952600459221" lon="120.92242279501575"><ele>266.0</ele><time>2026-04-04T10:06:26Z</time></trkpt><trkpt lat="14.233030163353165" lon="120.92239792723619"><ele>266.0</ele><time>2026-04-04T10:06:27Z</time></trkpt><trkpt lat="14.233113809790396" lon="120.92237612480824"><ele>266.0</ele><time>2026-04-04T10:06:28Z</time></trkpt><trkpt lat="14.233202000276561" lon="120.9223475396209"><ele>266.0</ele><time>2026-04-04T10:06:29Z</time></trkpt><trkpt lat="14.233283764654079" lon="120.92232244854287"><ele>266.0</ele><time>2026-04-04T10:06:30Z</time></trkpt><trkpt lat="14.233367973377527" lon="120.92229643896997"><ele>266.0</ele><time>2026-04-04T10:06:31Z</time></trkpt><trkpt lat="14.23345500815958" lon="120.92227538332436"><ele>265.8</ele><time>2026-04-04T10:06:32Z</time></trkpt><trkpt lat="14.233542635646417" lon="120.9222540900158"><ele>265.6</ele><time>2026-04-04T10:06:33Z</time></trkpt><trkpt lat="14.233633373488713" lon="120.92222739226655"><ele>265.4</ele><time>2026-04-04T10:06:34Z</time></trkpt><trkpt lat="14.233727460536532" lon="120.92220090706273"><ele>265.2</ele><time>2026-04-04T10:06:35Z</time></trkpt><trkpt lat="14.233818195784638" lon="120.92217333115346"><ele>265.0</ele><time>2026-04-04T10:06:36Z</time></trkpt><trkpt lat="14.233905211558442" lon="120.92214731871985"><ele>264.5</ele><time>2026-04-04T10:06:37Z</time></trkpt><trkpt lat="14.233989782959066" lon="120.92212072410481"><ele>264.0</ele><time>2026-04-04T10:06:38Z</time></trkpt><trkpt lat="14.234064333485348" lon="120.92209779767167"><ele>263.5</ele><time>2026-04-04T10:06:39Z</time></trkpt><trkpt lat="14.234145330397512" lon="120.92207065802593"><ele>263.0</ele><time>2026-04-04T10:06:40Z</time></trkpt><trkpt lat="14.234231164163043" lon="120.92204182272182"><ele>262.5</ele><time>2026-04-04T10:06:41Z</time></trkpt><trkpt lat="14.2343103224411" lon="120.9220150729952"><ele>262.0</ele><time>2026-04-04T10:06:42Z</time></trkpt><trkpt lat="14.234392023327025" lon="120.92198799217469"><ele>262.0</ele><time>2026-04-04T10:06:43Z</time></trkpt><trkpt lat="14.234469154612059" lon="120.92196543401566"><ele>262.0</ele><time>2026-04-04T10:06:44Z</time></trkpt><trkpt lat="14.234557633501058" lon="120.9219407671074"><ele>262.0</ele><time>2026-04-04T10:06:45Z</time></trkpt><trkpt lat="14.234645143938529" lon="120.92192100758791"><ele>262.0</ele><time>2026-04-04T10:06:46Z</time></trkpt><trkpt lat="14.234728083480508" lon="120.92189758682812"><ele>262.0</ele><time>2026-04-04T10:06:47Z</time></trkpt><trkpt lat="14.234827606050732" lon="120.92186767117622"><ele>261.6</ele><time>2026-04-04T10:06:48Z</time></trkpt><trkpt lat="14.23491678265337" lon="120.92184175599046"><ele>261.2</ele><time>2026-04-04T10:06:49Z</time></trkpt><trkpt lat="14.235001179963426" lon="120.92181870419908"><ele>260.8</ele><time>2026-04-04T10:06:50Z</time></trkpt><trkpt lat="14.235081685753409" lon="120.92179466554094"><ele>260.4</ele><time>2026-04-04T10:06:51Z</time></trkpt><trkpt lat="14.235177784732644" lon="120.92176694530848"><ele>260.0</ele><time>2026-04-04T10:06:52Z</time></trkpt><trkpt lat="14.235266405314865" lon="120.92173518080205"><ele>260.6</ele><time>2026-04-04T10:06:53Z</time></trkpt><trkpt lat="14.235366292622578" lon="120.92170735199358"><ele>261.2</ele><time>2026-04-04T10:06:54Z</time></trkpt><trkpt lat="14.235456321547437" lon="120.92168231708135"><ele>261.8</ele><time>2026-04-04T10:06:55Z</time></trkpt><trkpt lat="14.235555059987014" lon="120.92165485251276"><ele>262.4</ele><time>2026-04-04T10:06:56Z</time></trkpt><trkpt lat="14.235652119125742" lon="120.92162763109177"><ele>263.0</ele><time>2026-04-04T10:06:57Z</time></trkpt><trkpt lat="14.235744476612929" lon="120.92160181672749"><ele>261.8</ele><time>2026-04-04T10:06:58Z</time></trkpt><trkpt lat="14.235840294104468" lon="120.92157296898094"><ele>260.6</ele><time>2026-04-04T10:06:59Z</time></trkpt><trkpt lat="14.23594817490943" lon="120.9215399920891"><ele>259.4</ele><time>2026-04-04T10:07:00Z</time></trkpt><trkpt lat="14.236051338617465" lon="120.92150835633231"><ele>258.2</ele><time>2026-04-04T10:07:01Z</time></trkpt><trkpt lat="14.23615815056692" lon="120.92147487002963"><ele>257.0</ele><time>2026-04-04T10:07:02Z</time></trkpt><trkpt lat="14.236266345579786" lon="120.921447523892"><ele>257.0</ele><time>2026-04-04T10:07:03Z</time></trkpt><trkpt lat="14.236376037892969" lon="120.92141519934236"><ele>257.0</ele><time>2026-04-04T10:07:04Z</time></trkpt><trkpt lat="14.236473677872613" lon="120.9213896380245"><ele>257.0</ele><time>2026-04-04T10:07:05Z</time></trkpt><trkpt lat="14.236584987861523" lon="120.92135782460616"><ele>257.0</ele><time>2026-04-04T10:07:06Z</time></trkpt><trkpt lat="14.236691438556418" lon="120.92132552500404"><ele>257.0</ele><time>2026-04-04T10:07:07Z</time></trkpt><trkpt lat="14.23679966792165" lon="120.9212950068347"><ele>256.2</ele><time>2026-04-04T10:07:08Z</time></trkpt><trkpt lat="14.236902725645024" lon="120.921265654299"><ele>255.39999999999998</ele><time>2026-04-04T10:07:09Z</time></trkpt><trkpt lat="14.237002221743001" lon="120.92123630328425"><ele>254.60000000000002</ele><time>2026-04-04T10:07:10Z</time></trkpt><trkpt lat="14.237098341186368" lon="120.9212096865107"><ele>253.8</ele><time>2026-04-04T10:07:11Z</time></trkpt><trkpt lat="14.237204042186859" lon="120.92117640528575"><ele>253.0</ele><time>2026-04-04T10:07:12Z</time></trkpt><trkpt lat="14.237309900217124" lon="120.92114478548245"><ele>252.4</ele><time>2026-04-04T10:07:13Z</time></trkpt><trkpt lat="14.237418425600843" lon="120.92111669518131"><ele>251.8</ele><time>2026-04-04T10:07:14Z</time></trkpt><trkpt lat="14.237526375553964" lon="120.92108201251544"><ele>251.2</ele><time>2026-04-04T10:07:15Z</time></trkpt><trkpt lat="14.237638269479152" lon="120.92105338242295"><ele>250.6</ele><time>2026-04-04T10:07:16Z</time></trkpt><trkpt lat="14.237742854874973" lon="120.9210214530045"><ele>250.0</ele><time>2026-04-04T10:07:17Z</time></trkpt><trkpt lat="14.237842356636438" lon="120.92099280329403"><ele>250.0</ele><time>2026-04-04T10:07:18Z</time></trkpt><trkpt lat="14.23794727118184" lon="120.92096324902133"><ele>250.0</ele><time>2026-04-04T10:07:19Z</time></trkpt><trkpt lat="14.23805048263565" lon="120.92093362547314"><ele>250.0</ele><time>2026-04-04T10:07:20Z</time></trkpt><trkpt lat="14.238162311563176" lon="120.9209024337242"><ele>250.0</ele><time>2026-04-04T10:07:21Z</time></trkpt><trkpt lat="14.238273072035993" lon="120.92087314769898"><ele>250.0</ele><time>2026-04-04T10:07:22Z</time></trkpt><trkpt lat="14.238388683799945" lon="120.92084050674598"><ele>249.75</ele><time>2026-04-04T10:07:23Z</time></trkpt><trkpt lat="14.238507133614881" lon="120.92080748655555"><ele>249.5</ele><time>2026-04-04T10:07:24Z</time></trkpt><trkpt lat="14.238632526505734" lon="120.92077376685131"><ele>249.25</ele><time>2026-04-04T10:07:25Z</time></trkpt><trkpt lat="14.238766089793584" lon="120.92073786490788"><ele>249.0</ele><time>2026-04-04T10:07:26Z</time></trkpt><trkpt lat="14.238896491083596" lon="120.92070511030255"><ele>248.33333333333331</ele><time>2026-04-04T10:07:27Z</time></trkpt><trkpt lat="14.239042064140053" lon="120.92066352090653"><ele>247.66666666666666</ele><time>2026-04-04T10:07:28Z</time></trkpt><trkpt lat="14.239187995825203" lon="120.92062349163697"><ele>247.0</ele><time>2026-04-04T10:07:29Z</time></trkpt><trkpt lat="14.239333244518678" lon="120.92057902872787"><ele>247.0</ele><time>2026-04-04T10:07:30Z</time></trkpt><trkpt lat="14.239479843890264" lon="120.92053955381337"><ele>247.0</ele><time>2026-04-04T10:07:31Z</time></trkpt><trkpt lat="14.239624155551546" lon="120.92049819154737"><ele>247.0</ele><time>2026-04-04T10:07:32Z</time></trkpt><trkpt lat="14.239759444483052" lon="120.920459731036"><ele>247.0</ele><time>2026-04-04T10:07:33Z</time></trkpt><trkpt lat="14.239891591431292" lon="120.92041875096567"><ele>247.0</ele><time>2026-04-04T10:07:34Z</time></trkpt><trkpt lat="14.24002472525728" lon="120.9203825847423"><ele>247.0</ele><time>2026-04-04T10:07:35Z</time></trkpt><trkpt lat="14.240155457632621" lon="120.92034464566234"><ele>247.0</ele><time>2026-04-04T10:07:36Z</time></trkpt><trkpt lat="14.240287858005699" lon="120.92030692222325"><ele>247.0</ele><time>2026-04-04T10:07:37Z</time></trkpt><trkpt lat="14.240420734514167" lon="120.92026688028626"><ele>247.0</ele><time>2026-04-04T10:07:38Z</time></trkpt><trkpt lat="14.240551583399789" lon="120.92023072599024"><ele>247.0</ele><time>2026-04-04T10:07:39Z</time></trkpt><trkpt lat="14.24068269084314" lon="120.92019298009485"><ele>247.0</ele><time>2026-04-04T10:07:40Z</time></trkpt><trkpt lat="14.240813214522364" lon="120.9201513142422"><ele>247.0</ele><time>2026-04-04T10:07:41Z</time></trkpt><trkpt lat="14.240944646299345" lon="120.92011620335633"><ele>246.0</ele><time>2026-04-04T10:07:42Z</time></trkpt><trkpt lat="14.241079013926322" lon="120.92007711986642"><ele>245.0</ele><time>2026-04-04T10:07:43Z</time></trkpt><trkpt lat="14.241206550644495" lon="120.92004256198966"><ele>244.0</ele><time>2026-04-04T10:07:44Z</time></trkpt><trkpt lat="14.241329167665823" lon="120.92000409279396"><ele>243.0</ele><time>2026-04-04T10:07:45Z</time></trkpt><trkpt lat="14.24145780475266" lon="120.91996842794285"><ele>242.25</ele><time>2026-04-04T10:07:46Z</time></trkpt><trkpt lat="14.241586384152384" lon="120.91993635537995"><ele>241.5</ele><time>2026-04-04T10:07:47Z</time></trkpt><trkpt lat="14.241720787786342" lon="120.91990771652665"><ele>240.75</ele><time>2026-04-04T10:07:48Z</time></trkpt><trkpt lat="14.241862154648311" lon="120.91988513112983"><ele>240.0</ele><time>2026-04-04T10:07:49Z</time></trkpt><trkpt lat="14.242007418225977" lon="120.91986710623533"><ele>240.0</ele><time>2026-04-04T10:07:50Z</time></trkpt><trkpt lat="14.242156775386942" lon="120.9198603729455"><ele>240.0</ele><time>2026-04-04T10:07:51Z</time></trkpt><trkpt lat="14.242314190710223" lon="120.91986336440107"><ele>240.0</ele><time>2026-04-04T10:07:52Z</time></trkpt><trkpt lat="14.242491222091479" lon="120.91986851173715"><ele>239.33333333333331</ele><time>2026-04-04T10:07:53Z</time></trkpt><trkpt lat="14.2426670373518" lon="120.9198743192609"><ele>238.66666666666666</ele><time>2026-04-04T10:07:54Z</time></trkpt><trkpt lat="14.242841445175616" lon="120.91988487724055"><ele>238.0</ele><time>2026-04-04T10:07:55Z</time></trkpt><trkpt lat="14.243015560523334" lon="120.9199038526796"><ele>237.66666666666666</ele><time>2026-04-04T10:07:56Z</time></trkpt><trkpt lat="14.243185971202818" lon="120.9199238336511"><ele>237.33333333333331</ele><time>2026-04-04T10:07:57Z</time></trkpt><trkpt lat="14.243340561894893" lon="120.9199469113281"><ele>237.0</ele><time>2026-04-04T10:07:58Z</time></trkpt><trkpt lat="14.243504851154793" lon="120.91997220811797"><ele>237.0</ele><time>2026-04-04T10:07:59Z</time></trkpt><trkpt lat="14.243656937875151" lon="120.91998910833938"><ele>237.0</ele><time>2026-04-04T10:08:00Z</time></trkpt><trkpt lat="14.2438259700198" lon="120.92001174603229"><ele>237.0</ele><time>2026-04-04T10:08:01Z</time></trkpt><trkpt lat="14.243984279379763" lon="120.92003126152936"><ele>236.66666666666669</ele><time>2026-04-04T10:08:02Z</time></trkpt><trkpt lat="14.244131781066423" lon="120.92005087730075"><ele>236.33333333333334</ele><time>2026-04-04T10:08:03Z</time></trkpt><trkpt lat="14.244285636365955" lon="120.92006938446072"><ele>236.0</ele><time>2026-04-04T10:08:04Z</time></trkpt><trkpt lat="14.244445800755898" lon="120.9200887309965"><ele>235.66666666666669</ele><time>2026-04-04T10:08:05Z</time></trkpt><trkpt lat="14.24461237212697" lon="120.92010971488621"><ele>235.33333333333331</ele><time>2026-04-04T10:08:06Z</time></trkpt><trkpt lat="14.2447784019181" lon="120.9201307780587"><ele>235.0</ele><time>2026-04-04T10:08:07Z</time></trkpt><trkpt lat="14.244940162941488" lon="120.92014901609548"><ele>234.25</ele><time>2026-04-04T10:08:08Z</time></trkpt><trkpt lat="14.245090325667796" lon="120.92016882749256"><ele>233.5</ele><time>2026-04-04T10:08:09Z</time></trkpt><trkpt lat="14.245233777833784" lon="120.92018348491835"><ele>232.75</ele><time>2026-04-04T10:08:10Z</time></trkpt><trkpt lat="14.245374288457498" lon="120.92019408708414"><ele>232.0</ele><time>2026-04-04T10:08:11Z</time></trkpt><trkpt lat="14.245510390716426" lon="120.92020218376994"><ele>232.0</ele><time>2026-04-04T10:08:12Z</time></trkpt><trkpt lat="14.245650333096364" lon="120.92020291506418"><ele>232.0</ele><time>2026-04-04T10:08:13Z</time></trkpt><trkpt lat="14.245786973578829" lon="120.92019789261796"><ele>232.0</ele><time>2026-04-04T10:08:14Z</time></trkpt><trkpt lat="14.245924136943644" lon="120.92018336498943"><ele>232.0</ele><time>2026-04-04T10:08:15Z</time></trkpt><trkpt lat="14.24606716225992" lon="120.9201541226497"><ele>232.0</ele><time>2026-04-04T10:08:16Z</time></trkpt><trkpt lat="14.24621131408529" lon="120.92011337579096"><ele>232.0</ele><time>2026-04-04T10:08:17Z</time></trkpt><trkpt lat="14.246353664455494" lon="120.92007930144861"><ele>232.0</ele><time>2026-04-04T10:08:18Z</time></trkpt><trkpt lat="14.24647702149912" lon="120.9200358449864"><ele>232.0</ele><time>2026-04-04T10:08:19Z</time></trkpt><trkpt lat="14.24659058949284" lon="120.91999922086673"><ele>232.0</ele><time>2026-04-04T10:08:20Z</time></trkpt><trkpt lat="14.24671563325003" lon="120.91996044673773"><ele>232.0</ele><time>2026-04-04T10:08:21Z</time></trkpt><trkpt lat="14.246847286121888" lon="120.91992307795016"><ele>232.0</ele><time>2026-04-04T10:08:22Z</time></trkpt><trkpt lat="14.246988705157536" lon="120.91987441698826"><ele>232.0</ele><time>2026-04-04T10:08:23Z</time></trkpt><trkpt lat="14.247133727913045" lon="120.91981684967062"><ele>232.0</ele><time>2026-04-04T10:08:24Z</time></trkpt><trkpt lat="14.247282912560582" lon="120.91975791329041"><ele>232.0</ele><time>2026-04-04T10:08:25Z</time></trkpt><trkpt lat="14.24743890352009" lon="120.91969783060591"><ele>232.0</ele><time>2026-04-04T10:08:26Z</time></trkpt><trkpt lat="14.247600545546529" lon="120.91963959220858"><ele>232.0</ele><time>2026-04-04T10:08:27Z</time></trkpt><trkpt lat="14.247765972608288" lon="120.91958138059549"><ele>232.0</ele><time>2026-04-04T10:08:28Z</time></trkpt><trkpt lat="14.24793510200856" lon="120.91952224967883"><ele>232.0</ele><time>2026-04-04T10:08:29Z</time></trkpt><trkpt lat="14.24810473713042" lon="120.91946570241602"><ele>232.0</ele><time>2026-04-04T10:08:30Z</time></trkpt><trkpt lat="14.248273679428642" lon="120.91940495985723"><ele>232.0</ele><time>2026-04-04T10:08:31Z</time></trkpt><trkpt lat="14.248443585678189" lon="120.9193448830855"><ele>232.0</ele><time>2026-04-04T10:08:32Z</time></trkpt><trkpt lat="14.248621412907529" lon="120.91928537724554"><ele>231.0</ele><time>2026-04-04T10:08:33Z</time></trkpt><trkpt lat="14.24879960514785" lon="120.91922745369797"><ele>230.0</ele><time>2026-04-04T10:08:34Z</time></trkpt><trkpt lat="14.24898874738563" lon="120.91917838339423"><ele>229.0</ele><time>2026-04-04T10:08:35Z</time></trkpt><trkpt lat="14.24916332374559" lon="120.91912497102852"><ele>229.0</ele><time>2026-04-04T10:08:36Z</time></trkpt><trkpt lat="14.249319646499167" lon="120.91908467744395"><ele>229.0</ele><time>2026-04-04T10:08:37Z</time></trkpt><trkpt lat="14.249450884927432" lon="120.91905202034741"><ele>229.0</ele><time>2026-04-04T10:08:38Z</time></trkpt><trkpt lat="14.24954938761402" lon="120.91902920938644"><ele>229.0</ele><time>2026-04-04T10:08:39Z</time></trkpt><trkpt lat="14.24963955816828" lon="120.91900959564452"><ele>229.0</ele><time>2026-04-04T10:08:40Z</time></trkpt><trkpt lat="14.249725155467482" lon="120.91898953521742"><ele>228.99999999999997</ele><time>2026-04-04T10:08:41Z</time></trkpt><trkpt lat="14.249810302685797" lon="120.91896849686353"><ele>228.99999999999997</ele><time>2026-04-04T10:08:42Z</time></trkpt><trkpt lat="14.249903177786807" lon="120.91893297128044"><ele>229.0</ele><time>2026-04-04T10:08:43Z</time></trkpt><trkpt lat="14.250003844672468" lon="120.91890606526972"><ele>229.0</ele><time>2026-04-04T10:08:44Z</time></trkpt><trkpt lat="14.250109337131352" lon="120.91888275492498"><ele>228.25</ele><time>2026-04-04T10:08:45Z</time></trkpt><trkpt lat="14.250224480075811" lon="120.91885262746537"><ele>227.5</ele><time>2026-04-04T10:08:46Z</time></trkpt><trkpt lat="14.2503500173534" lon="120.91881838280752"><ele>226.75</ele><time>2026-04-04T10:08:47Z</time></trkpt><trkpt lat="14.250476024029025" lon="120.91878687115728"><ele>226.0</ele><time>2026-04-04T10:08:48Z</time></trkpt><trkpt lat="14.250606964984255" lon="120.9187551081314"><ele>225.0</ele><time>2026-04-04T10:08:49Z</time></trkpt><trkpt lat="14.250738074175262" lon="120.91872273392589"><ele>224.0</ele><time>2026-04-04T10:08:50Z</time></trkpt><trkpt lat="14.25087222171152" lon="120.91868632085986"><ele>223.0</ele><time>2026-04-04T10:08:51Z</time></trkpt><trkpt lat="14.251003052657628" lon="120.918647655896"><ele>222.0</ele><time>2026-04-04T10:08:52Z</time></trkpt><trkpt lat="14.25113724179802" lon="120.9186022565106"><ele>222.0</ele><time>2026-04-04T10:08:53Z</time></trkpt><trkpt lat="14.251269766319837" lon="120.91854973156035"><ele>222.0</ele><time>2026-04-04T10:08:54Z</time></trkpt><trkpt lat="14.251405165293999" lon="120.91849553709272"><ele>222.0</ele><time>2026-04-04T10:08:55Z</time></trkpt><trkpt lat="14.251542620740594" lon="120.91844461050107"><ele>222.0</ele><time>2026-04-04T10:08:56Z</time></trkpt><trkpt lat="14.251683957151162" lon="120.91839344157353"><ele>220.66666666666669</ele><time>2026-04-04T10:08:57Z</time></trkpt><trkpt lat="14.251825905937052" lon="120.91834203441415"><ele>219.33333333333334</ele><time>2026-04-04T10:08:58Z</time></trkpt><trkpt lat="14.25196692065145" lon="120.91828869572574"><ele>218.0</ele><time>2026-04-04T10:08:59Z</time></trkpt><trkpt lat="14.252109052262893" lon="120.91823895967609"><ele>218.0</ele><time>2026-04-04T10:09:00Z</time></trkpt><trkpt lat="14.252248947689363" lon="120.91818568291967"><ele>218.0</ele><time>2026-04-04T10:09:01Z</time></trkpt><trkpt lat="14.2523898059489" lon="120.91813387762025"><ele>218.0</ele><time>2026-04-04T10:09:02Z</time></trkpt><trkpt lat="14.252536985743308" lon="120.91808190313563"><ele>217.33333333333334</ele><time>2026-04-04T10:09:03Z</time></trkpt><trkpt lat="14.252679902112977" lon="120.91802970089341"><ele>216.66666666666669</ele><time>2026-04-04T10:09:04Z</time></trkpt><trkpt lat="14.252824145421028" lon="120.91797829215477"><ele>216.0</ele><time>2026-04-04T10:09:05Z</time></trkpt><trkpt lat="14.252971415526234" lon="120.91792254740699"><ele>216.0</ele><time>2026-04-04T10:09:06Z</time></trkpt><trkpt lat="14.253115553197157" lon="120.91786590420736"><ele>216.0</ele><time>2026-04-04T10:09:07Z</time></trkpt><trkpt lat="14.25326191276213" lon="120.91781069190132"><ele>216.0</ele><time>2026-04-04T10:09:08Z</time></trkpt><trkpt lat="14.253407542050784" lon="120.91775777381322"><ele>214.33333333333331</ele><time>2026-04-04T10:09:09Z</time></trkpt><trkpt lat="14.253552435577808" lon="120.91770633378667"><ele>212.66666666666666</ele><time>2026-04-04T10:09:10Z</time></trkpt><trkpt lat="14.253693897481854" lon="120.91765397330695"><ele>211.0</ele><time>2026-04-04T10:09:11Z</time></trkpt><trkpt lat="14.253839033057394" lon="120.917600195213"><ele>210.33333333333331</ele><time>2026-04-04T10:09:12Z</time></trkpt><trkpt lat="14.2539839508228" lon="120.91755012212901"><ele>209.66666666666669</ele><time>2026-04-04T10:09:13Z</time></trkpt><trkpt lat="14.254129557432737" lon="120.9174992022504"><ele>209.0</ele><time>2026-04-04T10:09:14Z</time></trkpt><trkpt lat="14.254270756319006" lon="120.91744790144338"><ele>209.0</ele><time>2026-04-04T10:09:15Z</time></trkpt><trkpt lat="14.25441556413846" lon="120.91739397206952"><ele>209.0</ele><time>2026-04-04T10:09:16Z</time></trkpt><trkpt lat="14.254556895938546" lon="120.91734060349194"><ele>209.0</ele><time>2026-04-04T10:09:17Z</time></trkpt><trkpt lat="14.254700661813798" lon="120.91728598483284"><ele>208.5</ele><time>2026-04-04T10:09:18Z</time></trkpt><trkpt lat="14.254835242389113" lon="120.91723595376939"><ele>208.0</ele><time>2026-04-04T10:09:19Z</time></trkpt><trkpt lat="14.254960606114276" lon="120.91718808012172"><ele>207.5</ele><time>2026-04-04T10:09:20Z</time></trkpt><trkpt lat="14.255083429649973" lon="120.9171413676535"><ele>207.0</ele><time>2026-04-04T10:09:21Z</time></trkpt><trkpt lat="14.255199136959792" lon="120.91709822826171"><ele>207.0</ele><time>2026-04-04T10:09:22Z</time></trkpt><trkpt lat="14.255314419738042" lon="120.91705702469304"><ele>207.0</ele><time>2026-04-04T10:09:23Z</time></trkpt><trkpt lat="14.255422889741387" lon="120.91701977688797"><ele>207.0</ele><time>2026-04-04T10:09:24Z</time></trkpt><trkpt lat="14.255521071582374" lon="120.9169814986406"><ele>207.0</ele><time>2026-04-04T10:09:25Z</time></trkpt><trkpt lat="14.255620994592695" lon="120.91694554409077"><ele>207.0</ele><time>2026-04-04T10:09:26Z</time></trkpt><trkpt lat="14.255714930363931" lon="120.91691365566429"><ele>206.66666666666666</ele><time>2026-04-04T10:09:27Z</time></trkpt><trkpt lat="14.255802710955875" lon="120.91687850847022"><ele>206.33333333333331</ele><time>2026-04-04T10:09:28Z</time></trkpt><trkpt lat="14.255887490715018" lon="120.91684453936803"><ele>206.0</ele><time>2026-04-04T10:09:29Z</time></trkpt><trkpt lat="14.255967981603868" lon="120.91681366758627"><ele>205.66666666666666</ele><time>2026-04-04T10:09:30Z</time></trkpt><trkpt lat="14.256045180793206" lon="120.91678659279577"><ele>205.33333333333331</ele><time>2026-04-04T10:09:31Z</time></trkpt><trkpt lat="14.256117789016198" lon="120.91676192742338"><ele>205.0</ele><time>2026-04-04T10:09:32Z</time></trkpt><trkpt lat="14.256187592917792" lon="120.91673515809126"><ele>204.99999999999997</ele><time>2026-04-04T10:09:33Z</time></trkpt><trkpt lat="14.256259598345537" lon="120.9167062763023"><ele>205.0</ele><time>2026-04-04T10:09:34Z</time></trkpt><trkpt lat="14.256335266622756" lon="120.91667696498608"><ele>205.0</ele><time>2026-04-04T10:09:35Z</time></trkpt><trkpt lat="14.256412437723085" lon="120.91664991008177"><ele>205.0</ele><time>2026-04-04T10:09:36Z</time></trkpt><trkpt lat="14.256489207402891" lon="120.91661924601267"><ele>204.99999999999997</ele><time>2026-04-04T10:09:37Z</time></trkpt><trkpt lat="14.256568514378532" lon="120.9165889066365"><ele>205.0</ele><time>2026-04-04T10:09:38Z</time></trkpt><trkpt lat="14.25665103871053" lon="120.9165602045895"><ele>204.66666666666666</ele><time>2026-04-04T10:09:39Z</time></trkpt><trkpt lat="14.256729980696123" lon="120.91653068913998"><ele>204.33333333333331</ele><time>2026-04-04T10:09:40Z</time></trkpt><trkpt lat="14.256806546786798" lon="120.91650023706808"><ele>204.0</ele><time>2026-04-04T10:09:41Z</time></trkpt><trkpt lat="14.256895403998874" lon="120.91647185745788"><ele>203.66666666666669</ele><time>2026-04-04T10:09:42Z</time></trkpt><trkpt lat="14.256976111400252" lon="120.91645066682418"><ele>203.33333333333334</ele><time>2026-04-04T10:09:43Z</time></trkpt><trkpt lat="14.257069657432453" lon="120.91642120740225"><ele>203.0</ele><time>2026-04-04T10:09:44Z</time></trkpt><trkpt lat="14.257150396273518" lon="120.91639932013952"><ele>203.00000000000003</ele><time>2026-04-04T10:09:45Z</time></trkpt><trkpt lat="14.25722912547893" lon="120.91637510968673"><ele>203.0</ele><time>2026-04-04T10:09:46Z</time></trkpt><trkpt lat="14.257311531398498" lon="120.91635197538399"><ele>203.0</ele><time>2026-04-04T10:09:47Z</time></trkpt><trkpt lat="14.2573911117874" lon="120.91632728458994"><ele>203.0</ele><time>2026-04-04T10:09:48Z</time></trkpt><trkpt lat="14.257478383467134" lon="120.91630151515606"><ele>203.00000000000003</ele><time>2026-04-04T10:09:49Z</time></trkpt><trkpt lat="14.257559373299289" lon="120.91627840414927"><ele>203.0</ele><time>2026-04-04T10:09:50Z</time></trkpt><trkpt lat="14.257633851152583" lon="120.91626293005568"><ele>202.66666666666669</ele><time>2026-04-04T10:09:51Z</time></trkpt><trkpt lat="14.257705302265318" lon="120.91624297189429"><ele>202.33333333333334</ele><time>2026-04-04T10:09:52Z</time></trkpt><trkpt lat="14.25778940376336" lon="120.91622011728413"><ele>202.0</ele><time>2026-04-04T10:09:53Z</time></trkpt><trkpt lat="14.25787943502994" lon="120.91619583562543"><ele>201.66666666666669</ele><time>2026-04-04T10:09:54Z</time></trkpt><trkpt lat="14.257962719217096" lon="120.91617126141038"><ele>201.33333333333334</ele><time>2026-04-04T10:09:55Z</time></trkpt><trkpt lat="14.258052053207498" lon="120.91614670355693"><ele>201.0</ele><time>2026-04-04T10:09:56Z</time></trkpt><trkpt lat="14.258149697133772" lon="120.91611859744552"><ele>200.33333333333334</ele><time>2026-04-04T10:09:57Z</time></trkpt><trkpt lat="14.258238854291436" lon="120.91609376555547"><ele>199.66666666666669</ele><time>2026-04-04T10:09:58Z</time></trkpt><trkpt lat="14.258323678965333" lon="120.91607067084091"><ele>199.0</ele><time>2026-04-04T10:09:59Z</time></trkpt><trkpt lat="14.258398755003848" lon="120.91604640984424"><ele>198.33333333333334</ele><time>2026-04-04T10:10:00Z</time></trkpt><trkpt lat="14.258473767906947" lon="120.91601893032797"><ele>197.66666666666669</ele><time>2026-04-04T10:10:01Z</time></trkpt><trkpt lat="14.258545992208292" lon="120.91599236492942"><ele>197.0</ele><time>2026-04-04T10:10:02Z</time></trkpt><trkpt lat="14.258624492656281" lon="120.9159613855549"><ele>197.0</ele><time>2026-04-04T10:10:03Z</time></trkpt><trkpt lat="14.258718721802817" lon="120.91592380857529"><ele>197.0</ele><time>2026-04-04T10:10:04Z</time></trkpt><trkpt lat="14.258810692147206" lon="120.91588894921796"><ele>197.0</ele><time>2026-04-04T10:10:05Z</time></trkpt><trkpt lat="14.258887112737678" lon="120.91585702514925"><ele>197.0</ele><time>2026-04-04T10:10:06Z</time></trkpt><trkpt lat="14.258952872687184" lon="120.91583492976774"><ele>197.0</ele><time>2026-04-04T10:10:07Z</time></trkpt><trkpt lat="14.259069378325876" lon="120.91579028318102"><ele>196.66666666666669</ele><time>2026-04-04T10:10:09Z</time></trkpt><trkpt lat="14.259133494209006" lon="120.91576638272649"><ele>196.33333333333334</ele><time>2026-04-04T10:10:10Z</time></trkpt><trkpt lat="14.259195990994801" lon="120.91573988380503"><ele>196.0</ele><time>2026-04-04T10:10:11Z</time></trkpt><trkpt lat="14.259264485865591" lon="120.91571323498178"><ele>195.66666666666669</ele><time>2026-04-04T10:10:12Z</time></trkpt><trkpt lat="14.259331182004855" lon="120.915686550549"><ele>195.33333333333334</ele><time>2026-04-04T10:10:13Z</time></trkpt><trkpt lat="14.259413422812028" lon="120.91565449394706"><ele>195.0</ele><time>2026-04-04T10:10:14Z</time></trkpt><trkpt lat="14.259501440417704" lon="120.91561301961443"><ele>195.0</ele><time>2026-04-04T10:10:15Z</time></trkpt><trkpt lat="14.259597061799216" lon="120.91557192601113"><ele>195.0</ele><time>2026-04-04T10:10:16Z</time></trkpt><trkpt lat="14.259700139710334" lon="120.91553165850917"><ele>195.0</ele><time>2026-04-04T10:10:17Z</time></trkpt><trkpt lat="14.259804132312208" lon="120.9154891913719"><ele>195.0</ele><time>2026-04-04T10:10:18Z</time></trkpt><trkpt lat="14.259909775109586" lon="120.91544512158318"><ele>195.0</ele><time>2026-04-04T10:10:19Z</time></trkpt><trkpt lat="14.260021918100469" lon="120.91539990343016"><ele>194.4</ele><time>2026-04-04T10:10:20Z</time></trkpt><trkpt lat="14.260126073925074" lon="120.91536206439521"><ele>193.8</ele><time>2026-04-04T10:10:21Z</time></trkpt><trkpt lat="14.260215947078327" lon="120.91533249882883"><ele>193.2</ele><time>2026-04-04T10:10:22Z</time></trkpt><trkpt lat="14.260300996159538" lon="120.91530336405462"><ele>192.6</ele><time>2026-04-04T10:10:23Z</time></trkpt><trkpt lat="14.26038321505599" lon="120.91527810289529"><ele>192.0</ele><time>2026-04-04T10:10:24Z</time></trkpt><trkpt lat="14.26046321352253" lon="120.91525126104094"><ele>192.0</ele><time>2026-04-04T10:10:25Z</time></trkpt><trkpt lat="14.260534121091629" lon="120.9152268658175"><ele>192.0</ele><time>2026-04-04T10:10:26Z</time></trkpt><trkpt lat="14.260609351461513" lon="120.91519356567561"><ele>192.0</ele><time>2026-04-04T10:10:27Z</time></trkpt><trkpt lat="14.26068755036302" lon="120.91515240568441"><ele>192.0</ele><time>2026-04-04T10:10:28Z</time></trkpt><trkpt lat="14.260771928726067" lon="120.91510907472511"><ele>192.0</ele><time>2026-04-04T10:10:29Z</time></trkpt><trkpt lat="14.260837791375952" lon="120.91507963602979"><ele>192.0</ele><time>2026-04-04T10:10:30Z</time></trkpt><trkpt lat="14.26091023808964" lon="120.91505192690303"><ele>191.2</ele><time>2026-04-04T10:10:31Z</time></trkpt><trkpt lat="14.260988603509825" lon="120.91502008749987"><ele>190.39999999999998</ele><time>2026-04-04T10:10:32Z</time></trkpt><trkpt lat="14.26108169920331" lon="120.9149800891618"><ele>189.60000000000002</ele><time>2026-04-04T10:10:33Z</time></trkpt><trkpt lat="14.261186522431933" lon="120.91493393238895"><ele>188.8</ele><time>2026-04-04T10:10:34Z</time></trkpt><trkpt lat="14.261306576674034" lon="120.9148911468774"><ele>188.0</ele><time>2026-04-04T10:10:35Z</time></trkpt><trkpt lat="14.261429747432858" lon="120.9148442365403"><ele>187.75</ele><time>2026-04-04T10:10:36Z</time></trkpt><trkpt lat="14.261555364912661" lon="120.91479505538777"><ele>187.5</ele><time>2026-04-04T10:10:37Z</time></trkpt><trkpt lat="14.261686161074808" lon="120.91474654555"><ele>187.25</ele><time>2026-04-04T10:10:38Z</time></trkpt><trkpt lat="14.261813862764699" lon="120.91469595189109"><ele>187.0</ele><time>2026-04-04T10:10:39Z</time></trkpt><trkpt lat="14.261939703508686" lon="120.9146509583898"><ele>187.0</ele><time>2026-04-04T10:10:40Z</time></trkpt><trkpt lat="14.262063476552921" lon="120.91460031130954"><ele>187.0</ele><time>2026-04-04T10:10:41Z</time></trkpt><trkpt lat="14.262185964927474" lon="120.91455496468662"><ele>187.0</ele><time>2026-04-04T10:10:42Z</time></trkpt><trkpt lat="14.262308997505388" lon="120.91450948152563"><ele>187.0</ele><time>2026-04-04T10:10:43Z</time></trkpt><trkpt lat="14.262437021897984" lon="120.91447167938587"><ele>186.25</ele><time>2026-04-04T10:10:44Z</time></trkpt><trkpt lat="14.26256995158231" lon="120.91445003350465"><ele>185.5</ele><time>2026-04-04T10:10:45Z</time></trkpt><trkpt lat="14.262707091017589" lon="120.91443578938639"><ele>184.75</ele><time>2026-04-04T10:10:46Z</time></trkpt><trkpt lat="14.262850393906591" lon="120.91442989406134"><ele>184.0</ele><time>2026-04-04T10:10:47Z</time></trkpt><trkpt lat="14.262998962267238" lon="120.91443495116503"><ele>184.33333333333334</ele><time>2026-04-04T10:10:48Z</time></trkpt><trkpt lat="14.26315025532583" lon="120.91444527492789"><ele>184.66666666666666</ele><time>2026-04-04T10:10:49Z</time></trkpt><trkpt lat="14.263305292892175" lon="120.91445250689677"><ele>185.0</ele><time>2026-04-04T10:10:50Z</time></trkpt><trkpt lat="14.263465139761324" lon="120.91445378194345"><ele>185.0</ele><time>2026-04-04T10:10:51Z</time></trkpt><trkpt lat="14.263630621421205" lon="120.91445659202786"><ele>185.0</ele><time>2026-04-04T10:10:52Z</time></trkpt><trkpt lat="14.263801628046098" lon="120.91446560395997"><ele>185.0</ele><time>2026-04-04T10:10:53Z</time></trkpt><trkpt lat="14.263975277713527" lon="120.91447538936428"><ele>186.0</ele><time>2026-04-04T10:10:54Z</time></trkpt><trkpt lat="14.264154817393736" lon="120.91448582290572"><ele>187.0</ele><time>2026-04-04T10:10:55Z</time></trkpt><trkpt lat="14.264340225759101" lon="120.91449251346911"><ele>188.0</ele><time>2026-04-04T10:10:56Z</time></trkpt><trkpt lat="14.264524795165832" lon="120.9144935208947"><ele>188.0</ele><time>2026-04-04T10:10:57Z</time></trkpt><trkpt lat="14.264713740047318" lon="120.91449360269719"><ele>188.0</ele><time>2026-04-04T10:10:58Z</time></trkpt><trkpt lat="14.26490724554952" lon="120.9144902927435"><ele>188.0</ele><time>2026-04-04T10:10:59Z</time></trkpt><trkpt lat="14.265092475376992" lon="120.9144831685509"><ele>186.66666666666666</ele><time>2026-04-04T10:11:00Z</time></trkpt><trkpt lat="14.265270910353264" lon="120.91447162686642"><ele>185.33333333333334</ele><time>2026-04-04T10:11:01Z</time></trkpt><trkpt lat="14.265438169848215" lon="120.91445834799826"><ele>184.0</ele><time>2026-04-04T10:11:02Z</time></trkpt><trkpt lat="14.265599932110826" lon="120.91445306487411"><ele>183.33333333333334</ele><time>2026-04-04T10:11:03Z</time></trkpt><trkpt lat="14.265758172164409" lon="120.91444151947759"><ele>182.66666666666666</ele><time>2026-04-04T10:11:04Z</time></trkpt><trkpt lat="14.26591630547351" lon="120.91443144881326"><ele>182.0</ele><time>2026-04-04T10:11:05Z</time></trkpt><trkpt lat="14.266078863577055" lon="120.91442437194507"><ele>182.0</ele><time>2026-04-04T10:11:06Z</time></trkpt><trkpt lat="14.266238568217966" lon="120.91441329850547"><ele>182.0</ele><time>2026-04-04T10:11:07Z</time></trkpt><trkpt lat="14.266396119853928" lon="120.91440427682153"><ele>182.0</ele><time>2026-04-04T10:11:08Z</time></trkpt><trkpt lat="14.266552843615184" lon="120.91439238126314"><ele>181.66666666666666</ele><time>2026-04-04T10:11:09Z</time></trkpt><trkpt lat="14.266708807155133" lon="120.91438100683305"><ele>181.33333333333334</ele><time>2026-04-04T10:11:10Z</time></trkpt><trkpt lat="14.266866208632472" lon="120.91437435078466"><ele>181.0</ele><time>2026-04-04T10:11:11Z</time></trkpt><trkpt lat="14.267025620071784" lon="120.91437018051265"><ele>181.0</ele><time>2026-04-04T10:11:12Z</time></trkpt><trkpt lat="14.26719063878035" lon="120.91437478961076"><ele>181.0</ele><time>2026-04-04T10:11:13Z</time></trkpt><trkpt lat="14.26735747570972" lon="120.91438787208172"><ele>181.0</ele><time>2026-04-04T10:11:14Z</time></trkpt><trkpt lat="14.267526844041125" lon="120.91440549207577"><ele>180.0</ele><time>2026-04-04T10:11:15Z</time></trkpt><trkpt lat="14.267694920534773" lon="120.91442199028126"><ele>179.0</ele><time>2026-04-04T10:11:16Z</time></trkpt><trkpt lat="14.267859647425478" lon="120.91443579744596"><ele>178.0</ele><time>2026-04-04T10:11:17Z</time></trkpt><trkpt lat="14.268038654232136" lon="120.91445574584704"><ele>177.0</ele><time>2026-04-04T10:11:18Z</time></trkpt><trkpt lat="14.268210539115634" lon="120.9144726527626"><ele>176.0</ele><time>2026-04-04T10:11:19Z</time></trkpt><trkpt lat="14.268380835549088" lon="120.9144879081768"><ele>175.0</ele><time>2026-04-04T10:11:20Z</time></trkpt><trkpt lat="14.268550271875426" lon="120.91450370767355"><ele>175.0</ele><time>2026-04-04T10:11:21Z</time></trkpt><trkpt lat="14.268710432113243" lon="120.91451923376559"><ele>175.0</ele><time>2026-04-04T10:11:22Z</time></trkpt><trkpt lat="14.26887541274295" lon="120.91453872759516"><ele>175.0</ele><time>2026-04-04T10:11:23Z</time></trkpt><trkpt lat="14.269038734136043" lon="120.9145542468058"><ele>174.33333333333334</ele><time>2026-04-04T10:11:24Z</time></trkpt><trkpt lat="14.269201779217212" lon="120.9145702009167"><ele>173.66666666666666</ele><time>2026-04-04T10:11:25Z</time></trkpt><trkpt lat="14.269366278688567" lon="120.91458938654908"><ele>173.0</ele><time>2026-04-04T10:11:26Z</time></trkpt><trkpt lat="14.269532068894081" lon="120.91460326541649"><ele>173.0</ele><time>2026-04-04T10:11:27Z</time></trkpt><trkpt lat="14.269692820288236" lon="120.91462072514243"><ele>173.0</ele><time>2026-04-04T10:11:28Z</time></trkpt><trkpt lat="14.269863610676415" lon="120.91464011129668"><ele>173.0</ele><time>2026-04-04T10:11:29Z</time></trkpt><trkpt lat="14.27002600880589" lon="120.9146550886903"><ele>173.33333333333331</ele><time>2026-04-04T10:11:30Z</time></trkpt><trkpt lat="14.270194291926405" lon="120.91467140868716"><ele>173.66666666666666</ele><time>2026-04-04T10:11:31Z</time></trkpt><trkpt lat="14.270358992051795" lon="120.91468663667014"><ele>174.0</ele><time>2026-04-04T10:11:32Z</time></trkpt><trkpt lat="14.270524143292638" lon="120.9147005946438"><ele>173.33333333333334</ele><time>2026-04-04T10:11:33Z</time></trkpt><trkpt lat="14.270691722983099" lon="120.91471462877017"><ele>172.66666666666669</ele><time>2026-04-04T10:11:34Z</time></trkpt><trkpt lat="14.270861565817043" lon="120.9147295962864"><ele>172.0</ele><time>2026-04-04T10:11:35Z</time></trkpt><trkpt lat="14.271029820795183" lon="120.9147455634728"><ele>172.0</ele><time>2026-04-04T10:11:36Z</time></trkpt><trkpt lat="14.271191352757246" lon="120.91476293573355"><ele>172.0</ele><time>2026-04-04T10:11:37Z</time></trkpt><trkpt lat="14.271338490659586" lon="120.91477593185736"><ele>172.0</ele><time>2026-04-04T10:11:38Z</time></trkpt><trkpt lat="14.271486769307119" lon="120.91479320219494"><ele>171.75</ele><time>2026-04-04T10:11:39Z</time></trkpt><trkpt lat="14.271633207555139" lon="120.91481082779657"><ele>171.5</ele><time>2026-04-04T10:11:40Z</time></trkpt><trkpt lat="14.271771395051362" lon="120.91482987394777"><ele>171.25</ele><time>2026-04-04T10:11:41Z</time></trkpt><trkpt lat="14.271908706411674" lon="120.91485124074303"><ele>171.0</ele><time>2026-04-04T10:11:42Z</time></trkpt><trkpt lat="14.272048378767744" lon="120.9148775702257"><ele>171.0</ele><time>2026-04-04T10:11:43Z</time></trkpt><trkpt lat="14.27218564098947" lon="120.91490554597858"><ele>171.0</ele><time>2026-04-04T10:11:44Z</time></trkpt><trkpt lat="14.272321685842895" lon="120.91493477001015"><ele>171.0</ele><time>2026-04-04T10:11:45Z</time></trkpt><trkpt lat="14.272453297876678" lon="120.91496881044361"><ele>171.0</ele><time>2026-04-04T10:11:46Z</time></trkpt><trkpt lat="14.272586051807654" lon="120.91500157419614"><ele>171.0</ele><time>2026-04-04T10:11:47Z</time></trkpt><trkpt lat="14.272716441538911" lon="120.91503730890012"><ele>171.0</ele><time>2026-04-04T10:11:48Z</time></trkpt><trkpt lat="14.272841685322712" lon="120.91507073466157"><ele>171.0</ele><time>2026-04-04T10:11:49Z</time></trkpt><trkpt lat="14.272963310035086" lon="120.9151077499794"><ele>171.0</ele><time>2026-04-04T10:11:50Z</time></trkpt><trkpt lat="14.273064384815843" lon="120.91514352748923"><ele>170.0</ele><time>2026-04-04T10:11:51Z</time></trkpt><trkpt lat="14.273158080070417" lon="120.91517459760051"><ele>169.0</ele><time>2026-04-04T10:11:52Z</time></trkpt><trkpt lat="14.273257493292196" lon="120.91520367967514"><ele>168.0</ele><time>2026-04-04T10:11:53Z</time></trkpt><trkpt lat="14.273371884671162" lon="120.91523959646976"><ele>167.0</ele><time>2026-04-04T10:11:54Z</time></trkpt><trkpt lat="14.273489664029055" lon="120.91528353613663"><ele>166.0</ele><time>2026-04-04T10:11:55Z</time></trkpt><trkpt lat="14.273602527395841" lon="120.91531915180984"><ele>166.0</ele><time>2026-04-04T10:11:56Z</time></trkpt><trkpt lat="14.27370422476326" lon="120.91535026752368"><ele>166.0</ele><time>2026-04-04T10:11:57Z</time></trkpt><trkpt lat="14.273795234831315" lon="120.91537656022984"><ele>166.0</ele><time>2026-04-04T10:11:58Z</time></trkpt><trkpt lat="14.273900387427494" lon="120.91540145071677"><ele>166.0</ele><time>2026-04-04T10:11:59Z</time></trkpt><trkpt lat="14.274014978051781" lon="120.9154370241577"><ele>166.0</ele><time>2026-04-04T10:12:00Z</time></trkpt><trkpt lat="14.274136730620622" lon="120.91548219807818"><ele>165.75</ele><time>2026-04-04T10:12:01Z</time></trkpt><trkpt lat="14.274265222218945" lon="120.91552420394184"><ele>165.5</ele><time>2026-04-04T10:12:02Z</time></trkpt><trkpt lat="14.274403016700507" lon="120.91556750444283"><ele>165.25</ele><time>2026-04-04T10:12:03Z</time></trkpt><trkpt lat="14.274544520636852" lon="120.91561187820103"><ele>165.0</ele><time>2026-04-04T10:12:04Z</time></trkpt><trkpt lat="14.274687775684688" lon="120.91565762148358"><ele>164.33333333333334</ele><time>2026-04-04T10:12:05Z</time></trkpt><trkpt lat="14.274834028878926" lon="120.91570415315256"><ele>163.66666666666669</ele><time>2026-04-04T10:12:06Z</time></trkpt><trkpt lat="14.274978633276298" lon="120.91575013363469"><ele>163.0</ele><time>2026-04-04T10:12:07Z</time></trkpt><trkpt lat="14.275126852214026" lon="120.91579434597544"><ele>163.0</ele><time>2026-04-04T10:12:08Z</time></trkpt><trkpt lat="14.275274496537579" lon="120.91584564817441"><ele>163.0</ele><time>2026-04-04T10:12:09Z</time></trkpt><trkpt lat="14.2754290434167" lon="120.91589701830834"><ele>163.0</ele><time>2026-04-04T10:12:10Z</time></trkpt><trkpt lat="14.275581234389609" lon="120.9159437722317"><ele>162.5</ele><time>2026-04-04T10:12:11Z</time></trkpt><trkpt lat="14.27572927381176" lon="120.9159880304577"><ele>162.0</ele><time>2026-04-04T10:12:12Z</time></trkpt><trkpt lat="14.275864662389917" lon="120.91603312000615"><ele>161.5</ele><time>2026-04-04T10:12:13Z</time></trkpt><trkpt lat="14.275994157492985" lon="120.91607639460187"><ele>161.0</ele><time>2026-04-04T10:12:14Z</time></trkpt><trkpt lat="14.276121953977157" lon="120.9161159742185"><ele>161.0</ele><time>2026-04-04T10:12:15Z</time></trkpt><trkpt lat="14.276246189978242" lon="120.91614683752547"><ele>161.0</ele><time>2026-04-04T10:12:16Z</time></trkpt><trkpt lat="14.276361917978523" lon="120.91616109582479"><ele>161.0</ele><time>2026-04-04T10:12:17Z</time></trkpt><trkpt lat="14.276474773958634" lon="120.91616902237124"><ele>161.0</ele><time>2026-04-04T10:12:18Z</time></trkpt><trkpt lat="14.276584203261365" lon="120.91617498098593"><ele>160.60000000000002</ele><time>2026-04-04T10:12:19Z</time></trkpt><trkpt lat="14.276671517298833" lon="120.91617683896929"><ele>160.20000000000002</ele><time>2026-04-04T10:12:20Z</time></trkpt><trkpt lat="14.276744187509737" lon="120.9161696693153"><ele>159.8</ele><time>2026-04-04T10:12:21Z</time></trkpt><trkpt lat="14.276851702838105" lon="120.9161526250512"><ele>159.4</ele><time>2026-04-04T10:12:23Z</time></trkpt><trkpt lat="14.27696150775358" lon="120.91613392281798"><ele>159.0</ele><time>2026-04-04T10:12:25Z</time></trkpt><trkpt lat="14.277077726523146" lon="120.91611595897801"><ele>159.0</ele><time>2026-04-04T10:12:27Z</time></trkpt><trkpt lat="14.27714985170587" lon="120.91611049770636"><ele>159.0</ele><time>2026-04-04T10:12:28Z</time></trkpt><trkpt lat="14.277226201690622" lon="120.91609251237767"><ele>159.0</ele><time>2026-04-04T10:12:29Z</time></trkpt><trkpt lat="14.277305951231405" lon="120.91607307202275"><ele>159.0</ele><time>2026-04-04T10:12:30Z</time></trkpt><trkpt lat="14.277393879380293" lon="120.91605243239323"><ele>159.0</ele><time>2026-04-04T10:12:31Z</time></trkpt><trkpt lat="14.27747934463504" lon="120.91603229341865"><ele>159.0</ele><time>2026-04-04T10:12:32Z</time></trkpt><trkpt lat="14.277567347891864" lon="120.91601224394186"><ele>158.83333333333334</ele><time>2026-04-04T10:12:33Z</time></trkpt><trkpt lat="14.277658365245344" lon="120.91599182361298"><ele>158.66666666666666</ele><time>2026-04-04T10:12:34Z</time></trkpt><trkpt lat="14.277753387036684" lon="120.91597056983413"><ele>158.5</ele><time>2026-04-04T10:12:35Z</time></trkpt><trkpt lat="14.277837175508736" lon="120.91594816441803"><ele>158.33333333333331</ele><time>2026-04-04T10:12:36Z</time></trkpt><trkpt lat="14.277921699362592" lon="120.91592487247027"><ele>158.16666666666666</ele><time>2026-04-04T10:12:37Z</time></trkpt><trkpt lat="14.278000773769422" lon="120.91590413708585"><ele>158.0</ele><time>2026-04-04T10:12:38Z</time></trkpt><trkpt lat="14.278079850340488" lon="120.9158867574565"><ele>157.5</ele><time>2026-04-04T10:12:39Z</time></trkpt><trkpt lat="14.278152962512936" lon="120.91587200014875"><ele>157.0</ele><time>2026-04-04T10:12:40Z</time></trkpt><trkpt lat="14.278233968357567" lon="120.91585171473785"><ele>156.5</ele><time>2026-04-04T10:12:41Z</time></trkpt><trkpt lat="14.278314680690576" lon="120.91583342362159"><ele>156.0</ele><time>2026-04-04T10:12:42Z</time></trkpt><trkpt lat="14.27838809739434" lon="120.9158203287503"><ele>155.5</ele><time>2026-04-04T10:12:43Z</time></trkpt><trkpt lat="14.278461152086315" lon="120.91580485618829"><ele>155.0</ele><time>2026-04-04T10:12:44Z</time></trkpt><trkpt lat="14.278542718192275" lon="120.91578748296938"><ele>155.0</ele><time>2026-04-04T10:12:45Z</time></trkpt><trkpt lat="14.278608256140467" lon="120.91576697148533"><ele>155.0</ele><time>2026-04-04T10:12:46Z</time></trkpt><trkpt lat="14.278680307137131" lon="120.91574848871275"><ele>155.0</ele><time>2026-04-04T10:12:47Z</time></trkpt><trkpt lat="14.278745950243366" lon="120.91572932165379"><ele>155.0</ele><time>2026-04-04T10:12:48Z</time></trkpt><trkpt lat="14.278808563433945" lon="120.91571651393353"><ele>155.0</ele><time>2026-04-04T10:12:49Z</time></trkpt><trkpt lat="14.278870712220998" lon="120.91570549578341"><ele>155.0</ele><time>2026-04-04T10:12:50Z</time></trkpt><trkpt lat="14.278994331000586" lon="120.91567517880878"><ele>154.5</ele><time>2026-04-04T10:12:52Z</time></trkpt><trkpt lat="14.279105019846082" lon="120.91565233847783"><ele>154.0</ele><time>2026-04-04T10:12:54Z</time></trkpt><trkpt lat="14.279212090521593" lon="120.91563388917513"><ele>153.5</ele><time>2026-04-04T10:12:56Z</time></trkpt><trkpt lat="14.279319660317558" lon="120.91560593107002"><ele>153.0</ele><time>2026-04-04T10:12:58Z</time></trkpt><trkpt lat="14.27943369126428" lon="120.91557637400676"><ele>153.0</ele><time>2026-04-04T10:13:00Z</time></trkpt><trkpt lat="14.279494721356947" lon="120.91555989422339"><ele>153.0</ele><time>2026-04-04T10:13:01Z</time></trkpt><trkpt lat="14.279561796825785" lon="120.91554427679434"><ele>153.0</ele><time>2026-04-04T10:13:02Z</time></trkpt><trkpt lat="14.279635430736816" lon="120.91552814765882"><ele>153.0</ele><time>2026-04-04T10:13:03Z</time></trkpt><trkpt lat="14.279716287821719" lon="120.9155099327082"><ele>153.0</ele><time>2026-04-04T10:13:04Z</time></trkpt><trkpt lat="14.27980420439362" lon="120.91548891811118"><ele>153.0</ele><time>2026-04-04T10:13:05Z</time></trkpt><trkpt lat="14.279896983974549" lon="120.91546702555286"><ele>152.8</ele><time>2026-04-04T10:13:06Z</time></trkpt><trkpt lat="14.279997795362172" lon="120.91544242224994"><ele>152.60000000000002</ele><time>2026-04-04T10:13:07Z</time></trkpt><trkpt lat="14.280094652177741" lon="120.91541897210635"><ele>152.39999999999998</ele><time>2026-04-04T10:13:08Z</time></trkpt><trkpt lat="14.280196368733034" lon="120.91539231492224"><ele>152.2</ele><time>2026-04-04T10:13:09Z</time></trkpt><trkpt lat="14.280296446171757" lon="120.91536946390168"><ele>152.0</ele><time>2026-04-04T10:13:10Z</time></trkpt><trkpt lat="14.280403128400234" lon="120.91534717646267"><ele>152.0</ele><time>2026-04-04T10:13:11Z</time></trkpt><trkpt lat="14.280501999430076" lon="120.91532832153653"><ele>152.0</ele><time>2026-04-04T10:13:12Z</time></trkpt><trkpt lat="14.280606292189592" lon="120.91530825539249"><ele>152.0</ele><time>2026-04-04T10:13:13Z</time></trkpt><trkpt lat="14.280716118428463" lon="120.91528732893615"><ele>152.0</ele><time>2026-04-04T10:13:14Z</time></trkpt><trkpt lat="14.280794259197194" lon="120.91526748919837"><ele>152.0</ele><time>2026-04-04T10:13:15Z</time></trkpt><trkpt lat="14.280894622204686" lon="120.9152434193821"><ele>151.0</ele><time>2026-04-04T10:13:16Z</time></trkpt><trkpt lat="14.28099248287249" lon="120.9152202611239"><ele>150.0</ele><time>2026-04-04T10:13:17Z</time></trkpt><trkpt lat="14.281078747121061" lon="120.91519818584241"><ele>149.0</ele><time>2026-04-04T10:13:18Z</time></trkpt><trkpt lat="14.281173276098276" lon="120.91517655629181"><ele>148.0</ele><time>2026-04-04T10:13:19Z</time></trkpt><trkpt lat="14.281259949036624" lon="120.91515966208716"><ele>147.0</ele><time>2026-04-04T10:13:20Z</time></trkpt><trkpt lat="14.28135699812591" lon="120.91513909915273"><ele>146.79999999999998</ele><time>2026-04-04T10:13:21Z</time></trkpt><trkpt lat="14.281454793058057" lon="120.91511860906583"><ele>146.6</ele><time>2026-04-04T10:13:22Z</time></trkpt><trkpt lat="14.281548318997936" lon="120.9150953754908"><ele>146.39999999999998</ele><time>2026-04-04T10:13:23Z</time></trkpt><trkpt lat="14.281643116846187" lon="120.91507643425854"><ele>146.2</ele><time>2026-04-04T10:13:24Z</time></trkpt><trkpt lat="14.281740004821586" lon="120.91505568548844"><ele>146.0</ele><time>2026-04-04T10:13:25Z</time></trkpt><trkpt lat="14.28183656168968" lon="120.91502384839885"><ele>146.0</ele><time>2026-04-04T10:13:26Z</time></trkpt><trkpt lat="14.28194115673051" lon="120.91499476209886"><ele>146.0</ele><time>2026-04-04T10:13:27Z</time></trkpt><trkpt lat="14.282046243137943" lon="120.91497035366788"><ele>146.0</ele><time>2026-04-04T10:13:28Z</time></trkpt><trkpt lat="14.282156161216532" lon="120.91494954367312"><ele>146.0</ele><time>2026-04-04T10:13:29Z</time></trkpt><trkpt lat="14.282260711393661" lon="120.9149268013256"><ele>146.0</ele><time>2026-04-04T10:13:30Z</time></trkpt><trkpt lat="14.282358453096052" lon="120.91490425437549"><ele>145.8</ele><time>2026-04-04T10:13:31Z</time></trkpt><trkpt lat="14.282449072436037" lon="120.91488198240836"><ele>145.6</ele><time>2026-04-04T10:13:32Z</time></trkpt><trkpt lat="14.282537135062892" lon="120.91486286167616"><ele>145.4</ele><time>2026-04-04T10:13:33Z</time></trkpt><trkpt lat="14.282619848897339" lon="120.91484782645675"><ele>145.2</ele><time>2026-04-04T10:13:34Z</time></trkpt><trkpt lat="14.282711148941791" lon="120.91482386381686"><ele>145.0</ele><time>2026-04-04T10:13:35Z</time></trkpt><trkpt lat="14.282807073373798" lon="120.91480079482709"><ele>145.0</ele><time>2026-04-04T10:13:36Z</time></trkpt><trkpt lat="14.28289747525426" lon="120.9147776622396"><ele>145.0</ele><time>2026-04-04T10:13:37Z</time></trkpt><trkpt lat="14.282982795000525" lon="120.91475372760934"><ele>145.0</ele><time>2026-04-04T10:13:38Z</time></trkpt><trkpt lat="14.283062905107952" lon="120.91473480711909"><ele>145.0</ele><time>2026-04-04T10:13:39Z</time></trkpt><trkpt lat="14.283149013666923" lon="120.91471554997995"><ele>145.0</ele><time>2026-04-04T10:13:40Z</time></trkpt><trkpt lat="14.283239523005617" lon="120.91469202674739"><ele>145.0</ele><time>2026-04-04T10:13:41Z</time></trkpt><trkpt lat="14.283333930007723" lon="120.91466716164939"><ele>144.8</ele><time>2026-04-04T10:13:42Z</time></trkpt><trkpt lat="14.283434642450327" lon="120.91464599292954"><ele>144.6</ele><time>2026-04-04T10:13:43Z</time></trkpt><trkpt lat="14.283541124784191" lon="120.91462037609236"><ele>144.4</ele><time>2026-04-04T10:13:44Z</time></trkpt><trkpt lat="14.283635302022216" lon="120.91459824442718"><ele>144.2</ele><time>2026-04-04T10:13:45Z</time></trkpt><trkpt lat="14.283729920876807" lon="120.91457763672618"><ele>144.0</ele><time>2026-04-04T10:13:46Z</time></trkpt><trkpt lat="14.283806373166845" lon="120.91456073518293"><ele>144.0</ele><time>2026-04-04T10:13:47Z</time></trkpt><trkpt lat="14.283914963902761" lon="120.91453673954045"><ele>144.0</ele><time>2026-04-04T10:13:49Z</time></trkpt><trkpt lat="14.283979110375178" lon="120.91452023843574"><ele>144.0</ele><time>2026-04-04T10:13:51Z</time></trkpt><trkpt lat="14.284050628364898" lon="120.91450886999122"><ele>144.0</ele><time>2026-04-04T10:13:59Z</time></trkpt><trkpt lat="14.284132546234828" lon="120.91450424093321"><ele>144.0</ele><time>2026-04-04T10:14:02Z</time></trkpt><trkpt lat="14.28420604692462" lon="120.91448309909306"><ele>144.0</ele><time>2026-04-04T10:14:04Z</time></trkpt><trkpt lat="14.28430403169313" lon="120.91446285761484"><ele>143.5</ele><time>2026-04-04T10:14:06Z</time></trkpt><trkpt lat="14.28439253664923" lon="120.91445046004354"><ele>143.0</ele><time>2026-04-04T10:14:08Z</time></trkpt><trkpt lat="14.284476287349475" lon="120.91443772868462"><ele>142.5</ele><time>2026-04-04T10:14:10Z</time></trkpt><trkpt lat="14.284563122935813" lon="120.91441730738315"><ele>142.0</ele><time>2026-04-04T10:14:12Z</time></trkpt><trkpt lat="14.28464451751046" lon="120.91439941372562"><ele>141.5</ele><time>2026-04-04T10:14:14Z</time></trkpt><trkpt lat="14.284710860141857" lon="120.91439011556147"><ele>141.0</ele><time>2026-04-04T10:14:16Z</time></trkpt><trkpt lat="14.284782168308292" lon="120.91437191324304"><ele>141.0</ele><time>2026-04-04T10:14:27Z</time></trkpt><trkpt lat="14.284858026659835" lon="120.91435810774828"><ele>141.0</ele><time>2026-04-04T10:14:29Z</time></trkpt><trkpt lat="14.28497283873822" lon="120.91432700937358"><ele>141.0</ele><time>2026-04-04T10:14:31Z</time></trkpt><trkpt lat="14.28503857298654" lon="120.91430723649509"><ele>141.0</ele><time>2026-04-04T10:14:32Z</time></trkpt><trkpt lat="14.285110635054805" lon="120.91428317781799"><ele>141.0</ele><time>2026-04-04T10:14:33Z</time></trkpt><trkpt lat="14.285188427568901" lon="120.91424870311008"><ele>141.0</ele><time>2026-04-04T10:14:34Z</time></trkpt><trkpt lat="14.285272533917873" lon="120.91420858846801"><ele>140.6</ele><time>2026-04-04T10:14:35Z</time></trkpt><trkpt lat="14.285361036159447" lon="120.91416586750015"><ele>140.2</ele><time>2026-04-04T10:14:36Z</time></trkpt><trkpt lat="14.28545447542574" lon="120.91412276181684"><ele>139.8</ele><time>2026-04-04T10:14:37Z</time></trkpt><trkpt lat="14.285556249682587" lon="120.91407531129026"><ele>139.4</ele><time>2026-04-04T10:14:38Z</time></trkpt><trkpt lat="14.285663757016145" lon="120.91402717952721"><ele>139.0</ele><time>2026-04-04T10:14:39Z</time></trkpt><trkpt lat="14.285785126118641" lon="120.91397624955648"><ele>138.25</ele><time>2026-04-04T10:14:40Z</time></trkpt><trkpt lat="14.285904394404657" lon="120.91392655933198"><ele>137.5</ele><time>2026-04-04T10:14:41Z</time></trkpt><trkpt lat="14.286031073640288" lon="120.91387365603933"><ele>136.75</ele><time>2026-04-04T10:14:42Z</time></trkpt><trkpt lat="14.286155013794232" lon="120.91382286585974"><ele>136.0</ele><time>2026-04-04T10:14:43Z</time></trkpt><trkpt lat="14.28627384999515" lon="120.91377251358433"><ele>136.0</ele><time>2026-04-04T10:14:44Z</time></trkpt><trkpt lat="14.286397346255033" lon="120.91371526621087"><ele>136.0</ele><time>2026-04-04T10:14:45Z</time></trkpt><trkpt lat="14.286518829799773" lon="120.9136648127996"><ele>136.0</ele><time>2026-04-04T10:14:46Z</time></trkpt><trkpt lat="14.286640024107397" lon="120.91361556492498"><ele>136.0</ele><time>2026-04-04T10:14:47Z</time></trkpt><trkpt lat="14.286771223210426" lon="120.91354657563957"><ele>135.5</ele><time>2026-04-04T10:14:48Z</time></trkpt><trkpt lat="14.286896519475919" lon="120.9134837148487"><ele>135.0</ele><time>2026-04-04T10:14:49Z</time></trkpt><trkpt lat="14.287021791629044" lon="120.91342407289658"><ele>134.5</ele><time>2026-04-04T10:14:50Z</time></trkpt><trkpt lat="14.287145972749205" lon="120.91336432026782"><ele>134.0</ele><time>2026-04-04T10:14:51Z</time></trkpt><trkpt lat="14.287266050673542" lon="120.91330621090691"><ele>133.5</ele><time>2026-04-04T10:14:52Z</time></trkpt><trkpt lat="14.287386854549464" lon="120.91325125284195"><ele>133.0</ele><time>2026-04-04T10:14:53Z</time></trkpt><trkpt lat="14.287506814405468" lon="120.91319499996354"><ele>132.5</ele><time>2026-04-04T10:14:54Z</time></trkpt><trkpt lat="14.287626335299233" lon="120.91314335239706"><ele>132.0</ele><time>2026-04-04T10:14:55Z</time></trkpt><trkpt lat="14.287747365445897" lon="120.91308947706057"><ele>132.0</ele><time>2026-04-04T10:14:56Z</time></trkpt><trkpt lat="14.287870918624643" lon="120.91303635525152"><ele>132.0</ele><time>2026-04-04T10:14:57Z</time></trkpt><trkpt lat="14.287980648515898" lon="120.9129883667765"><ele>132.0</ele><time>2026-04-04T10:14:58Z</time></trkpt><trkpt lat="14.288081052274075" lon="120.91294033879979"><ele>132.0</ele><time>2026-04-04T10:14:59Z</time></trkpt><trkpt lat="14.28817853913243" lon="120.91289645470773"><ele>132.2</ele><time>2026-04-04T10:15:00Z</time></trkpt><trkpt lat="14.28827914981932" lon="120.91284921542959"><ele>132.39999999999998</ele><time>2026-04-04T10:15:01Z</time></trkpt><trkpt lat="14.288381017050726" lon="120.91280395398779"><ele>132.60000000000002</ele><time>2026-04-04T10:15:02Z</time></trkpt><trkpt lat="14.288486443228429" lon="120.91275882595018"><ele>132.8</ele><time>2026-04-04T10:15:03Z</time></trkpt><trkpt lat="14.288588497783877" lon="120.91271400966566"><ele>133.0</ele><time>2026-04-04T10:15:04Z</time></trkpt><trkpt lat="14.288686108368159" lon="120.91267217816655"><ele>133.0</ele><time>2026-04-04T10:15:05Z</time></trkpt><trkpt lat="14.288777751346846" lon="120.9126355706271"><ele>133.0</ele><time>2026-04-04T10:15:06Z</time></trkpt><trkpt lat="14.288867930803471" lon="120.91259420166627"><ele>133.0</ele><time>2026-04-04T10:15:07Z</time></trkpt><trkpt lat="14.28895963623969" lon="120.91255470521664"><ele>133.0</ele><time>2026-04-04T10:15:08Z</time></trkpt><trkpt lat="14.289051820476807" lon="120.9125134223425"><ele>133.0</ele><time>2026-04-04T10:15:09Z</time></trkpt><trkpt lat="14.289141846188386" lon="120.91247415517796"><ele>133.0</ele><time>2026-04-04T10:15:10Z</time></trkpt><trkpt lat="14.289228708487155" lon="120.91244105461764"><ele>133.0</ele><time>2026-04-04T10:15:11Z</time></trkpt><trkpt lat="14.289297060020658" lon="120.91241797147578"><ele>133.0</ele><time>2026-04-04T10:15:12Z</time></trkpt><trkpt lat="14.289363740817624" lon="120.91239049004783"><ele>133.0</ele><time>2026-04-04T10:15:13Z</time></trkpt><trkpt lat="14.289427892217706" lon="120.91236064269428"><ele>133.0</ele><time>2026-04-04T10:15:14Z</time></trkpt><trkpt lat="14.28949545744087" lon="120.9123351314865"><ele>133.0</ele><time>2026-04-04T10:15:15Z</time></trkpt><trkpt lat="14.289564252036094" lon="120.91230995646131"><ele>133.0</ele><time>2026-04-04T10:15:16Z</time></trkpt><trkpt lat="14.289627179056776" lon="120.9122822443182"><ele>133.0</ele><time>2026-04-04T10:15:17Z</time></trkpt><trkpt lat="14.289691439171555" lon="120.91224950719891"><ele>133.0</ele><time>2026-04-04T10:15:18Z</time></trkpt><trkpt lat="14.289795387395701" lon="120.91220191303209"><ele>133.0</ele><time>2026-04-04T10:15:20Z</time></trkpt><trkpt lat="14.289890879383334" lon="120.91216041920036"><ele>133.0</ele><time>2026-04-04T10:15:22Z</time></trkpt><trkpt lat="14.289957739413047" lon="120.91213342515528"><ele>133.0</ele><time>2026-04-04T10:15:24Z</time></trkpt><trkpt lat="14.290020573122572" lon="120.91210547342021"><ele>132.83333333333334</ele><time>2026-04-04T10:15:26Z</time></trkpt><trkpt lat="14.29008748722507" lon="120.91208483145074"><ele>132.66666666666669</ele><time>2026-04-04T10:15:28Z</time></trkpt><trkpt lat="14.290148769677764" lon="120.91205823639058"><ele>132.5</ele><time>2026-04-04T10:15:30Z</time></trkpt><trkpt lat="14.29021821713518" lon="120.91203005881347"><ele>132.33333333333334</ele><time>2026-04-04T10:15:32Z</time></trkpt><trkpt lat="14.290304603220266" lon="120.91200105740396"><ele>132.16666666666666</ele><time>2026-04-04T10:15:35Z</time></trkpt><trkpt lat="14.290387162495037" lon="120.91197485456144"><ele>132.0</ele><time>2026-04-04T10:15:38Z</time></trkpt><trkpt lat="14.290447472180995" lon="120.91193959478117"><ele>132.0</ele><time>2026-04-04T10:15:41Z</time></trkpt><trkpt lat="14.29051371206605" lon="120.91189580685948"><ele>132.0</ele><time>2026-04-04T10:15:46Z</time></trkpt><trkpt lat="14.29057079254758" lon="120.91186833603129"><ele>132.0</ele><time>2026-04-04T10:15:50Z</time></trkpt><trkpt lat="14.290637842359981" lon="120.91184211811552"><ele>132.0</ele><time>2026-04-04T10:15:54Z</time></trkpt><trkpt lat="14.290703474030547" lon="120.911830718102"><ele>132.0</ele><time>2026-04-04T10:15:58Z</time></trkpt><trkpt lat="14.290766410611347" lon="120.91179963253515"><ele>132.0</ele><time>2026-04-04T10:16:02Z</time></trkpt><trkpt lat="14.29083004921213" lon="120.91177002394343"><ele>132.0</ele><time>2026-04-04T10:16:08Z</time></trkpt><trkpt lat="14.290880601223533" lon="120.91173064048853"><ele>131.33333333333334</ele><time>2026-04-04T10:16:23Z</time></trkpt><trkpt lat="14.290964663168019" lon="120.91169236434006"><ele>130.66666666666666</ele><time>2026-04-04T10:16:26Z</time></trkpt><trkpt lat="14.291045900415476" lon="120.91164515127066"><ele>130.0</ele><time>2026-04-04T10:16:29Z</time></trkpt><trkpt lat="14.291117190730855" lon="120.91160761030035"><ele>129.33333333333331</ele><time>2026-04-04T10:16:31Z</time></trkpt><trkpt lat="14.291204743989661" lon="120.91157330888228"><ele>128.66666666666666</ele><time>2026-04-04T10:16:33Z</time></trkpt><trkpt lat="14.291268963169893" lon="120.91154243982952"><ele>128.0</ele><time>2026-04-04T10:16:35Z</time></trkpt><trkpt lat="14.291345481762022" lon="120.91150530116668"><ele>127.99999999999999</ele><time>2026-04-04T10:16:38Z</time></trkpt><trkpt lat="14.29140601433163" lon="120.91147718197651"><ele>128.0</ele><time>2026-04-04T10:16:40Z</time></trkpt><trkpt lat="14.29150480244911" lon="120.91143548565002"><ele>128.0</ele><time>2026-04-04T10:16:42Z</time></trkpt><trkpt lat="14.291564331166654" lon="120.91140884080981"><ele>128.0</ele><time>2026-04-04T10:16:43Z</time></trkpt><trkpt lat="14.291634774920457" lon="120.91137907665447"><ele>127.99999999999999</ele><time>2026-04-04T10:16:44Z</time></trkpt><trkpt lat="14.29174631177454" lon="120.91132592747766"><ele>128.0</ele><time>2026-04-04T10:16:46Z</time></trkpt><trkpt lat="14.291816200723018" lon="120.91130048705631"><ele>127.83333333333333</ele><time>2026-04-04T10:16:47Z</time></trkpt><trkpt lat="14.2918886333327" lon="120.91127880694837"><ele>127.66666666666666</ele><time>2026-04-04T10:16:48Z</time></trkpt><trkpt lat="14.291948377908257" lon="120.91125737479715"><ele>127.5</ele><time>2026-04-04T10:16:49Z</time></trkpt><trkpt lat="14.292014402937356" lon="120.91123210891982"><ele>127.33333333333334</ele><time>2026-04-04T10:16:51Z</time></trkpt><trkpt lat="14.292080367175794" lon="120.91125093105443"><ele>127.16666666666667</ele><time>2026-04-04T10:16:53Z</time></trkpt><trkpt lat="14.292111820525404" lon="120.91135958568609"><ele>127.0</ele><time>2026-04-04T10:16:55Z</time></trkpt><trkpt lat="14.292105138702933" lon="120.91144807450087"><ele>127.00000000000001</ele><time>2026-04-04T10:16:56Z</time></trkpt><trkpt lat="14.292109619812635" lon="120.9115269624335"><ele>127.0</ele><time>2026-04-04T10:16:57Z</time></trkpt><trkpt lat="14.292114161589973" lon="120.91161487874996"><ele>127.0</ele><time>2026-04-04T10:16:58Z</time></trkpt><trkpt lat="14.29211738009645" lon="120.91170699746245"><ele>127.0</ele><time>2026-04-04T10:16:59Z</time></trkpt><trkpt lat="14.292123867281013" lon="120.91180307388034"><ele>127.00000000000001</ele><time>2026-04-04T10:17:00Z</time></trkpt><trkpt lat="14.292130005460468" lon="120.91190679408525"><ele>127.0</ele><time>2026-04-04T10:17:01Z</time></trkpt><trkpt lat="14.292133405975337" lon="120.91201211954571"><ele>127.0</ele><time>2026-04-04T10:17:02Z</time></trkpt><trkpt lat="14.292138289031076" lon="120.91212343515963"><ele>126.99999999999999</ele><time>2026-04-04T10:17:03Z</time></trkpt><trkpt lat="14.292139778888044" lon="120.9122343555763"><ele>126.99999999999999</ele><time>2026-04-04T10:17:04Z</time></trkpt><trkpt lat="14.292139892741188" lon="120.91234957154266"><ele>127.0</ele><time>2026-04-04T10:17:05Z</time></trkpt><trkpt lat="14.292143060545653" lon="120.91246881442774"><ele>127.0</ele><time>2026-04-04T10:17:06Z</time></trkpt><trkpt lat="14.292146022651327" lon="120.91259005386397"><ele>127.0</ele><time>2026-04-04T10:17:07Z</time></trkpt><trkpt lat="14.292154282412605" lon="120.91270755875142"><ele>127.0</ele><time>2026-04-04T10:17:08Z</time></trkpt><trkpt lat="14.292159455499243" lon="120.91283429068392"><ele>127.0</ele><time>2026-04-04T10:17:09Z</time></trkpt><trkpt lat="14.292162351913476" lon="120.91295434877014"><ele>127.0</ele><time>2026-04-04T10:17:10Z</time></trkpt><trkpt lat="14.292165275497286" lon="120.9130663570739"><ele>127.0</ele><time>2026-04-04T10:17:11Z</time></trkpt><trkpt lat="14.292170440576129" lon="120.91317327755763"><ele>126.99999999999999</ele><time>2026-04-04T10:17:12Z</time></trkpt><trkpt lat="14.292179576605504" lon="120.91328081442245"><ele>126.99999999999999</ele><time>2026-04-04T10:17:13Z</time></trkpt><trkpt lat="14.292182884522848" lon="120.9133959014594"><ele>127.0</ele><time>2026-04-04T10:17:14Z</time></trkpt><trkpt lat="14.292181378090557" lon="120.91351354599695"><ele>127.0</ele><time>2026-04-04T10:17:15Z</time></trkpt><trkpt lat="14.292181389262243" lon="120.91364151829936"><ele>126.5</ele><time>2026-04-04T10:17:16Z</time></trkpt><trkpt lat="14.2921825779345" lon="120.91375802843491"><ele>126.0</ele><time>2026-04-04T10:17:17Z</time></trkpt><trkpt lat="14.29218624306029" lon="120.913884233628"><ele>125.5</ele><time>2026-04-04T10:17:18Z</time></trkpt><trkpt lat="14.292187129229518" lon="120.91401346052926"><ele>125.0</ele><time>2026-04-04T10:17:19Z</time></trkpt><trkpt lat="14.2921856465729" lon="120.91414667958377"><ele>125.5</ele><time>2026-04-04T10:17:20Z</time></trkpt><trkpt lat="14.292187363193102" lon="120.91428045067362"><ele>126.0</ele><time>2026-04-04T10:17:21Z</time></trkpt><trkpt lat="14.29218657249804" lon="120.91441669200556"><ele>126.5</ele><time>2026-04-04T10:17:22Z</time></trkpt><trkpt lat="14.292186228725818" lon="120.91455249480268"><ele>127.0</ele><time>2026-04-04T10:17:23Z</time></trkpt><trkpt lat="14.29218457809768" lon="120.91469050602575"><ele>127.0</ele><time>2026-04-04T10:17:24Z</time></trkpt><trkpt lat="14.29218191181638" lon="120.91483151478991"><ele>127.0</ele><time>2026-04-04T10:17:25Z</time></trkpt><trkpt lat="14.292178312088247" lon="120.9149746388699"><ele>127.0</ele><time>2026-04-04T10:17:26Z</time></trkpt><trkpt lat="14.292177331499763" lon="120.91511517784834"><ele>127.0</ele><time>2026-04-04T10:17:27Z</time></trkpt><trkpt lat="14.292174423187586" lon="120.91526525158619"><ele>127.0</ele><time>2026-04-04T10:17:28Z</time></trkpt><trkpt lat="14.292169706120422" lon="120.91541000328014"><ele>127.0</ele><time>2026-04-04T10:17:29Z</time></trkpt><trkpt lat="14.292163861028264" lon="120.91555238339868"><ele>127.0</ele><time>2026-04-04T10:17:30Z</time></trkpt><trkpt lat="14.292156701788416" lon="120.91569560834722"><ele>127.0</ele><time>2026-04-04T10:17:31Z</time></trkpt><trkpt lat="14.292155075967608" lon="120.915842402997"><ele>127.5</ele><time>2026-04-04T10:17:32Z</time></trkpt><trkpt lat="14.292155514389732" lon="120.91599321350584"><ele>128.0</ele><time>2026-04-04T10:17:33Z</time></trkpt><trkpt lat="14.292157572366094" lon="120.91613905152016"><ele>128.5</ele><time>2026-04-04T10:17:34Z</time></trkpt><trkpt lat="14.292158625841632" lon="120.91629143119421"><ele>129.0</ele><time>2026-04-04T10:17:35Z</time></trkpt><trkpt lat="14.292159303605835" lon="120.91644036423241"><ele>129.0</ele><time>2026-04-04T10:17:36Z</time></trkpt><trkpt lat="14.292156861160633" lon="120.91658876257924"><ele>129.0</ele><time>2026-04-04T10:17:37Z</time></trkpt><trkpt lat="14.292157158245708" lon="120.9167344982773"><ele>129.0</ele><time>2026-04-04T10:17:38Z</time></trkpt><trkpt lat="14.292157520341263" lon="120.91688035547789"><ele>129.0</ele><time>2026-04-04T10:17:39Z</time></trkpt><trkpt lat="14.292154719212618" lon="120.91703030273231"><ele>129.0</ele><time>2026-04-04T10:17:40Z</time></trkpt><trkpt lat="14.292151298046736" lon="120.9171812613556"><ele>129.0</ele><time>2026-04-04T10:17:41Z</time></trkpt><trkpt lat="14.292151238220187" lon="120.91733489692754"><ele>129.0</ele><time>2026-04-04T10:17:42Z</time></trkpt><trkpt lat="14.292149067385095" lon="120.91749012032642"><ele>129.0</ele><time>2026-04-04T10:17:43Z</time></trkpt><trkpt lat="14.292148463655456" lon="120.91764592472664"><ele>129.0</ele><time>2026-04-04T10:17:44Z</time></trkpt><trkpt lat="14.292147523602445" lon="120.91780950008832"><ele>129.0</ele><time>2026-04-04T10:17:45Z</time></trkpt><trkpt lat="14.292146928188982" lon="120.91796501451455"><ele>129.0</ele><time>2026-04-04T10:17:46Z</time></trkpt><trkpt lat="14.292142024645623" lon="120.91811373100482"><ele>129.0</ele><time>2026-04-04T10:17:47Z</time></trkpt><trkpt lat="14.29214171087571" lon="120.9182465302623"><ele>129.0</ele><time>2026-04-04T10:17:48Z</time></trkpt><trkpt lat="14.292141795641102" lon="120.91836396830311"><ele>129.0</ele><time>2026-04-04T10:17:49Z</time></trkpt><trkpt lat="14.292141294060743" lon="120.91845806859193"><ele>129.0</ele><time>2026-04-04T10:17:50Z</time></trkpt><trkpt lat="14.292141420584151" lon="120.91855509340978"><ele>129.0</ele><time>2026-04-04T10:17:51Z</time></trkpt><trkpt lat="14.29214266092454" lon="120.91864876537869"><ele>128.0</ele><time>2026-04-04T10:17:52Z</time></trkpt><trkpt lat="14.292147465151174" lon="120.91876191958657"><ele>127.0</ele><time>2026-04-04T10:17:53Z</time></trkpt><trkpt lat="14.292148489468843" lon="120.91888809583789"><ele>126.0</ele><time>2026-04-04T10:17:54Z</time></trkpt><trkpt lat="14.292145726675166" lon="120.91901690635581"><ele>125.0</ele><time>2026-04-04T10:17:55Z</time></trkpt><trkpt lat="14.29214302762601" lon="120.91914699477707"><ele>123.5</ele><time>2026-04-04T10:17:56Z</time></trkpt><trkpt lat="14.29214230161331" lon="120.91927153728359"><ele>122.0</ele><time>2026-04-04T10:17:57Z</time></trkpt><trkpt lat="14.292142889865024" lon="120.91939442196788"><ele>120.5</ele><time>2026-04-04T10:17:58Z</time></trkpt><trkpt lat="14.292141971634669" lon="120.9195220925033"><ele>119.0</ele><time>2026-04-04T10:17:59Z</time></trkpt><trkpt lat="14.2921403930105" lon="120.91965235221147"><ele>119.0</ele><time>2026-04-04T10:18:00Z</time></trkpt><trkpt lat="14.292137451006994" lon="120.91977916655273"><ele>119.0</ele><time>2026-04-04T10:18:01Z</time></trkpt><trkpt lat="14.29213478272022" lon="120.91991257868308"><ele>119.0</ele><time>2026-04-04T10:18:02Z</time></trkpt><trkpt lat="14.292132715648727" lon="120.92005230845878"><ele>119.0</ele><time>2026-04-04T10:18:03Z</time></trkpt><trkpt lat="14.292129511960193" lon="120.92019231213611"><ele>121.75</ele><time>2026-04-04T10:18:04Z</time></trkpt><trkpt lat="14.292127625030313" lon="120.92033481798572"><ele>124.5</ele><time>2026-04-04T10:18:05Z</time></trkpt><trkpt lat="14.292124733299849" lon="120.92047591104941"><ele>127.25</ele><time>2026-04-04T10:18:06Z</time></trkpt><trkpt lat="14.29212375126423" lon="120.92061282940274"><ele>130.0</ele><time>2026-04-04T10:18:07Z</time></trkpt><trkpt lat="14.292122241339683" lon="120.92074854665977"><ele>130.0</ele><time>2026-04-04T10:18:08Z</time></trkpt><trkpt lat="14.292123807972997" lon="120.92088243936955"><ele>130.0</ele><time>2026-04-04T10:18:09Z</time></trkpt><trkpt lat="14.29212466051255" lon="120.92101639732627"><ele>130.0</ele><time>2026-04-04T10:18:10Z</time></trkpt><trkpt lat="14.292130759753258" lon="120.92114704220327"><ele>130.0</ele><time>2026-04-04T10:18:11Z</time></trkpt><trkpt lat="14.29213615882791" lon="120.92128859598633"><ele>130.5</ele><time>2026-04-04T10:18:12Z</time></trkpt><trkpt lat="14.292136207768834" lon="120.92141917963897"><ele>131.0</ele><time>2026-04-04T10:18:13Z</time></trkpt><trkpt lat="14.292140194044192" lon="120.92154214529613"><ele>131.5</ele><time>2026-04-04T10:18:14Z</time></trkpt><trkpt lat="14.292143211352998" lon="120.92165837795872"><ele>132.0</ele><time>2026-04-04T10:18:15Z</time></trkpt><trkpt lat="14.292147155898196" lon="120.92176542916918"><ele>132.2</ele><time>2026-04-04T10:18:16Z</time></trkpt><trkpt lat="14.292151272723677" lon="120.92186835725643"><ele>132.39999999999998</ele><time>2026-04-04T10:18:17Z</time></trkpt><trkpt lat="14.292155654535552" lon="120.92197121899194"><ele>132.60000000000002</ele><time>2026-04-04T10:18:18Z</time></trkpt><trkpt lat="14.292159637174928" lon="120.92206978663486"><ele>132.8</ele><time>2026-04-04T10:18:19Z</time></trkpt><trkpt lat="14.292162262245128" lon="120.92216859614135"><ele>133.0</ele><time>2026-04-04T10:18:20Z</time></trkpt><trkpt lat="14.292160681325885" lon="120.92225927101953"><ele>133.0</ele><time>2026-04-04T10:18:21Z</time></trkpt><trkpt lat="14.29216235144689" lon="120.92235133137491"><ele>133.0</ele><time>2026-04-04T10:18:22Z</time></trkpt><trkpt lat="14.292163585283538" lon="120.92243907892886"><ele>133.0</ele><time>2026-04-04T10:18:23Z</time></trkpt><trkpt lat="14.292164919666464" lon="120.92252465181122"><ele>133.0</ele><time>2026-04-04T10:18:24Z</time></trkpt><trkpt lat="14.292164484772128" lon="120.92261310745515"><ele>133.0</ele><time>2026-04-04T10:18:25Z</time></trkpt><trkpt lat="14.292162225639744" lon="120.92269077656925"><ele>133.0</ele><time>2026-04-04T10:18:26Z</time></trkpt><trkpt lat="14.292163765025395" lon="120.92277701681958"><ele>133.28571428571428</ele><time>2026-04-04T10:18:27Z</time></trkpt><trkpt lat="14.292163760382696" lon="120.9228565649484"><ele>133.57142857142856</ele><time>2026-04-04T10:18:28Z</time></trkpt><trkpt lat="14.292162803213502" lon="120.92293294853464"><ele>133.85714285714286</ele><time>2026-04-04T10:18:29Z</time></trkpt><trkpt lat="14.29216077164287" lon="120.92300332360172"><ele>134.14285714285714</ele><time>2026-04-04T10:18:30Z</time></trkpt><trkpt lat="14.292158600409476" lon="120.92308054449302"><ele>134.42857142857142</ele><time>2026-04-04T10:18:31Z</time></trkpt><trkpt lat="14.29215426568425" lon="120.92315597473774"><ele>134.71428571428572</ele><time>2026-04-04T10:18:32Z</time></trkpt><trkpt lat="14.292149049944122" lon="120.92323132916358"><ele>135.0</ele><time>2026-04-04T10:18:33Z</time></trkpt><trkpt lat="14.292144028695263" lon="120.92331350924228"><ele>135.0</ele><time>2026-04-04T10:18:34Z</time></trkpt><trkpt lat="14.292138892172648" lon="120.923386842006"><ele>135.0</ele><time>2026-04-04T10:18:35Z</time></trkpt><trkpt lat="14.29213239177907" lon="120.92345731398015"><ele>135.0</ele><time>2026-04-04T10:18:36Z</time></trkpt><trkpt lat="14.292115893959414" lon="120.92357215455243"><ele>135.0</ele><time>2026-04-04T10:18:38Z</time></trkpt><trkpt lat="14.292108820666199" lon="120.92364535785443"><ele>135.0</ele><time>2026-04-04T10:18:40Z</time></trkpt><trkpt lat="14.292091602246611" lon="120.92373946666613"><ele>135.0</ele><time>2026-04-04T10:18:43Z</time></trkpt><trkpt lat="14.292081672372744" lon="120.92381864434577"><ele>135.16666666666666</ele><time>2026-04-04T10:18:45Z</time></trkpt><trkpt lat="14.292064151743261" lon="120.92391839778483"><ele>135.33333333333334</ele><time>2026-04-04T10:18:47Z</time></trkpt><trkpt lat="14.292042389568643" lon="120.92404057222278"><ele>135.5</ele><time>2026-04-04T10:18:49Z</time></trkpt><trkpt lat="14.2920305438785" lon="120.92410838658117"><ele>135.66666666666669</ele><time>2026-04-04T10:18:50Z</time></trkpt><trkpt lat="14.292012721791817" lon="120.92418183214878"><ele>135.83333333333334</ele><time>2026-04-04T10:18:51Z</time></trkpt><trkpt lat="14.291992626976592" lon="120.92425905018239"><ele>136.0</ele><time>2026-04-04T10:18:51.999Z</time></trkpt><trkpt lat="14.291970290600228" lon="120.9243451572241"><ele>136.0</ele><time>2026-04-04T10:18:52.999Z</time></trkpt><trkpt lat="14.291946487378414" lon="120.924438701309"><ele>136.0</ele><time>2026-04-04T10:18:53.999Z</time></trkpt><trkpt lat="14.29191901617418" lon="120.92454516061647"><ele>136.0</ele><time>2026-04-04T10:18:54.999Z</time></trkpt><trkpt lat="14.291891245222041" lon="120.9246479784626"><ele>136.0</ele><time>2026-04-04T10:18:55.999Z</time></trkpt><trkpt lat="14.29186177887401" lon="120.92475652991271"><ele>136.0</ele><time>2026-04-04T10:18:56.999Z</time></trkpt><trkpt lat="14.291830316473149" lon="120.92487289936574"><ele>136.0</ele><time>2026-04-04T10:18:57.999Z</time></trkpt><trkpt lat="14.291800019342812" lon="120.92498705187089"><ele>136.0</ele><time>2026-04-04T10:18:58.999Z</time></trkpt><trkpt lat="14.2917689782556" lon="120.92510022288322"><ele>136.0</ele><time>2026-04-04T10:18:59.999Z</time></trkpt><trkpt lat="14.29174183794511" lon="120.92518808713854"><ele>136.0</ele><time>2026-04-04T10:19:00.999Z</time></trkpt><trkpt lat="14.291710171330712" lon="120.92527198688185"><ele>136.0</ele><time>2026-04-04T10:19:01.999Z</time></trkpt><trkpt lat="14.291680892617912" lon="120.92535122010021"><ele>136.4</ele><time>2026-04-04T10:19:02.999Z</time></trkpt><trkpt lat="14.291647572239164" lon="120.92544732465858"><ele>136.8</ele><time>2026-04-04T10:19:03.999Z</time></trkpt><trkpt lat="14.29161708507764" lon="120.92555059960831"><ele>137.20000000000002</ele><time>2026-04-04T10:19:04.999Z</time></trkpt><trkpt lat="14.291581002030261" lon="120.92565580168552"><ele>137.6</ele><time>2026-04-04T10:19:05.999Z</time></trkpt><trkpt lat="14.291545102179017" lon="120.92576496927317"><ele>138.0</ele><time>2026-04-04T10:19:06.999Z</time></trkpt><trkpt lat="14.291504596044934" lon="120.92586970030334"><ele>137.8</ele><time>2026-04-04T10:19:07.999Z</time></trkpt><trkpt lat="14.291470033115203" lon="120.9259872386978"><ele>137.60000000000002</ele><time>2026-04-04T10:19:08.999Z</time></trkpt><trkpt lat="14.2914394033684" lon="120.92608864142066"><ele>137.39999999999998</ele><time>2026-04-04T10:19:09.999Z</time></trkpt><trkpt lat="14.291421682313905" lon="120.92618077173645"><ele>137.2</ele><time>2026-04-04T10:19:10.999Z</time></trkpt><trkpt lat="14.29140784701853" lon="120.9262652957628"><ele>137.0</ele><time>2026-04-04T10:19:11.999Z</time></trkpt><trkpt lat="14.291376750892873" lon="120.92633278856555"><ele>137.5</ele><time>2026-04-04T10:19:12.999Z</time></trkpt><trkpt lat="14.29136081219964" lon="120.92643743937894"><ele>138.0</ele><time>2026-04-04T10:19:13.999Z</time></trkpt><trkpt lat="14.291353700230315" lon="120.92655305982149"><ele>138.5</ele><time>2026-04-04T10:19:14.999Z</time></trkpt><trkpt lat="14.291345245358992" lon="120.92667244416604"><ele>139.0</ele><time>2026-04-04T10:19:15.999Z</time></trkpt><trkpt lat="14.291340476186145" lon="120.92680290785897"><ele>139.25</ele><time>2026-04-04T10:19:16.999Z</time></trkpt><trkpt lat="14.291346974100582" lon="120.92693603173882"><ele>139.5</ele><time>2026-04-04T10:19:17.999Z</time></trkpt><trkpt lat="14.291357205383935" lon="120.92707157733037"><ele>139.75</ele><time>2026-04-04T10:19:18.999Z</time></trkpt><trkpt lat="14.291374870011833" lon="120.92720510754587"><ele>140.0</ele><time>2026-04-04T10:19:19.999Z</time></trkpt><trkpt lat="14.291396926163692" lon="120.92733892073348"><ele>140.0</ele><time>2026-04-04T10:19:20.999Z</time></trkpt><trkpt lat="14.291423791845359" lon="120.92747429384526"><ele>140.0</ele><time>2026-04-04T10:19:21.999Z</time></trkpt><trkpt lat="14.291454201683374" lon="120.92761418973267"><ele>140.0</ele><time>2026-04-04T10:19:22.999Z</time></trkpt><trkpt lat="14.291482727888164" lon="120.92775262194833"><ele>140.0</ele><time>2026-04-04T10:19:23.999Z</time></trkpt><trkpt lat="14.291507765929842" lon="120.92788275937431"><ele>139.0</ele><time>2026-04-04T10:19:24.999Z</time></trkpt><trkpt lat="14.29152873249141" lon="120.92801084068871"><ele>138.0</ele><time>2026-04-04T10:19:25.999Z</time></trkpt><trkpt lat="14.291548295191296" lon="120.92814119012196"><ele>137.0</ele><time>2026-04-04T10:19:26.999Z</time></trkpt><trkpt lat="14.291564749497129" lon="120.92827429650347"><ele>136.0</ele><time>2026-04-04T10:19:27.999Z</time></trkpt><trkpt lat="14.291580724347543" lon="120.92841196904342"><ele>134.75</ele><time>2026-04-04T10:19:28.999Z</time></trkpt><trkpt lat="14.291603407893419" lon="120.92856027147728"><ele>133.5</ele><time>2026-04-04T10:19:29.999Z</time></trkpt><trkpt lat="14.291619419991504" lon="120.92870611984712"><ele>132.25</ele><time>2026-04-04T10:19:30.999Z</time></trkpt><trkpt lat="14.29163307253309" lon="120.92884461212022"><ele>131.0</ele><time>2026-04-04T10:19:31.999Z</time></trkpt><trkpt lat="14.2916435318677" lon="120.92898126762073"><ele>131.0</ele><time>2026-04-04T10:19:32.999Z</time></trkpt><trkpt lat="14.29165791716334" lon="120.92911503851545"><ele>131.0</ele><time>2026-04-04T10:19:33.999Z</time></trkpt><trkpt lat="14.291670801065875" lon="120.92923768523116"><ele>131.0</ele><time>2026-04-04T10:19:34.999Z</time></trkpt><trkpt lat="14.291683378898501" lon="120.92935914282064"><ele>131.0</ele><time>2026-04-04T10:19:35.999Z</time></trkpt><trkpt lat="14.291692355863507" lon="120.92947727458142"><ele>132.75</ele><time>2026-04-04T10:19:36.999Z</time></trkpt><trkpt lat="14.291696913989343" lon="120.92960107685656"><ele>134.5</ele><time>2026-04-04T10:19:37.999Z</time></trkpt><trkpt lat="14.291701417256501" lon="120.92971996911669"><ele>136.25</ele><time>2026-04-04T10:19:38.999Z</time></trkpt><trkpt lat="14.291706628573422" lon="120.92983461559378"><ele>138.0</ele><time>2026-04-04T10:19:39.999Z</time></trkpt><trkpt lat="14.291706814683318" lon="120.92995429812167"><ele>138.5</ele><time>2026-04-04T10:19:40.999Z</time></trkpt><trkpt lat="14.291706850744884" lon="120.93007196787013"><ele>139.0</ele><time>2026-04-04T10:19:41.999Z</time></trkpt><trkpt lat="14.291704950432367" lon="120.93019296132502"><ele>139.5</ele><time>2026-04-04T10:19:42.999Z</time></trkpt><trkpt lat="14.291704558468357" lon="120.9303084773164"><ele>140.0</ele><time>2026-04-04T10:19:43.999Z</time></trkpt><trkpt lat="14.291705187953406" lon="120.93043010080208"><ele>140.0</ele><time>2026-04-04T10:19:44.999Z</time></trkpt><trkpt lat="14.291705304622146" lon="120.93055481494326"><ele>140.0</ele><time>2026-04-04T10:19:45.999Z</time></trkpt><trkpt lat="14.291709548480098" lon="120.9306785736977"><ele>140.0</ele><time>2026-04-04T10:19:46.999Z</time></trkpt><trkpt lat="14.291721587493186" lon="120.93080688371789"><ele>140.0</ele><time>2026-04-04T10:19:47.999Z</time></trkpt><trkpt lat="14.291734676489114" lon="120.93093769743503"><ele>140.0</ele><time>2026-04-04T10:19:48.999Z</time></trkpt><trkpt lat="14.291751723094158" lon="120.93106963993273"><ele>140.0</ele><time>2026-04-04T10:19:49.999Z</time></trkpt><trkpt lat="14.291767102822764" lon="120.93120093977778"><ele>140.0</ele><time>2026-04-04T10:19:50.999Z</time></trkpt><trkpt lat="14.291780685109766" lon="120.93133023457621"><ele>140.0</ele><time>2026-04-04T10:19:51.999Z</time></trkpt><trkpt lat="14.291793201599582" lon="120.9314468245817"><ele>140.0</ele><time>2026-04-04T10:19:52.999Z</time></trkpt><trkpt lat="14.291809981278584" lon="120.93155589121032"><ele>140.0</ele><time>2026-04-04T10:19:53.999Z</time></trkpt><trkpt lat="14.291830737009583" lon="120.93166806808358"><ele>140.0</ele><time>2026-04-04T10:19:54.999Z</time></trkpt><trkpt lat="14.291849972892823" lon="120.93178066047261"><ele>140.0</ele><time>2026-04-04T10:19:55.999Z</time></trkpt><trkpt lat="14.291871953040362" lon="120.93189851036665"><ele>140.0</ele><time>2026-04-04T10:19:56.999Z</time></trkpt><trkpt lat="14.291890677583035" lon="120.93201784771895"><ele>139.6</ele><time>2026-04-04T10:19:57.999Z</time></trkpt><trkpt lat="14.291908986630284" lon="120.93213842474783"><ele>139.2</ele><time>2026-04-04T10:19:58.999Z</time></trkpt><trkpt lat="14.291932722987182" lon="120.93225669388653"><ele>138.8</ele><time>2026-04-04T10:19:59.999Z</time></trkpt><trkpt lat="14.291955876882808" lon="120.93235404193776"><ele>138.4</ele><time>2026-04-04T10:20:00.999Z</time></trkpt><trkpt lat="14.29197360942894" lon="120.93245059391961"><ele>138.0</ele><time>2026-04-04T10:20:01.999Z</time></trkpt><trkpt lat="14.291994500448824" lon="120.93254275204791"><ele>137.33333333333334</ele><time>2026-04-04T10:20:02.999Z</time></trkpt><trkpt lat="14.292014768981867" lon="120.93261609015262"><ele>136.66666666666666</ele><time>2026-04-04T10:20:03.999Z</time></trkpt><trkpt lat="14.292035670794657" lon="120.93269427121248"><ele>136.0</ele><time>2026-04-04T10:20:04.999Z</time></trkpt><trkpt lat="14.292056648775384" lon="120.93277711109609"><ele>135.33333333333331</ele><time>2026-04-04T10:20:05.999Z</time></trkpt><trkpt lat="14.292077474127034" lon="120.93286024492174"><ele>134.66666666666666</ele><time>2026-04-04T10:20:06.999Z</time></trkpt><trkpt lat="14.292094948748428" lon="120.93294123056886"><ele>134.0</ele><time>2026-04-04T10:20:07.999Z</time></trkpt><trkpt lat="14.292118728853078" lon="120.93302659874718"><ele>134.0</ele><time>2026-04-04T10:20:08.999Z</time></trkpt><trkpt lat="14.292131122650805" lon="120.93312115756443"><ele>134.0</ele><time>2026-04-04T10:20:09.999Z</time></trkpt><trkpt lat="14.292148837048495" lon="120.93321569370437"><ele>134.0</ele><time>2026-04-04T10:20:10.999Z</time></trkpt><trkpt lat="14.292175169886702" lon="120.93331527023001"><ele>134.0</ele><time>2026-04-04T10:20:11.999Z</time></trkpt><trkpt lat="14.292198236371924" lon="120.93340405246924"><ele>134.0</ele><time>2026-04-04T10:20:12.999Z</time></trkpt><trkpt lat="14.292221087565553" lon="120.93349345452239"><ele>133.5</ele><time>2026-04-04T10:20:13.999Z</time></trkpt><trkpt lat="14.292242358930856" lon="120.93357877417081"><ele>133.0</ele><time>2026-04-04T10:20:14.999Z</time></trkpt><trkpt lat="14.29225926609412" lon="120.93365301237388"><ele>132.5</ele><time>2026-04-04T10:20:15.999Z</time></trkpt><trkpt lat="14.292279132663335" lon="120.93374571075672"><ele>132.0</ele><time>2026-04-04T10:20:17.999Z</time></trkpt><trkpt lat="14.292307490971751" lon="120.93382095014425"><ele>131.5</ele><time>2026-04-04T10:20:21.999Z</time></trkpt><trkpt lat="14.29233817100218" lon="120.93389040443154"><ele>131.0</ele><time>2026-04-04T10:20:25.999Z</time></trkpt><trkpt lat="14.29236965515009" lon="120.93400545544293"><ele>130.66666666666666</ele><time>2026-04-04T10:20:27.999Z</time></trkpt><trkpt lat="14.292390074960633" lon="120.93407191071512"><ele>130.33333333333331</ele><time>2026-04-04T10:20:28.999Z</time></trkpt><trkpt lat="14.29241697061541" lon="120.93415347479007"><ele>130.0</ele><time>2026-04-04T10:20:29.999Z</time></trkpt><trkpt lat="14.29244637965933" lon="120.93424198034711"><ele>129.66666666666666</ele><time>2026-04-04T10:20:30.999Z</time></trkpt><trkpt lat="14.292477222260949" lon="120.93433891311426"><ele>129.33333333333334</ele><time>2026-04-04T10:20:31.999Z</time></trkpt><trkpt lat="14.292512788763185" lon="120.93444252980811"><ele>129.0</ele><time>2026-04-04T10:20:32.999Z</time></trkpt><trkpt lat="14.29254643702751" lon="120.93454554548586"><ele>128.2</ele><time>2026-04-04T10:20:33.999Z</time></trkpt><trkpt lat="14.29257873178478" lon="120.934641851562"><ele>127.4</ele><time>2026-04-04T10:20:34.999Z</time></trkpt><trkpt lat="14.292608864113474" lon="120.93473182689392"><ele>126.6</ele><time>2026-04-04T10:20:35.999Z</time></trkpt><trkpt lat="14.292637217232569" lon="120.93481672486568"><ele>125.8</ele><time>2026-04-04T10:20:36.999Z</time></trkpt><trkpt lat="14.292661812888984" lon="120.93489846809372"><ele>125.0</ele><time>2026-04-04T10:20:37.999Z</time></trkpt><trkpt lat="14.292701738046151" lon="120.93500599766027"><ele>125.33333333333333</ele><time>2026-04-04T10:20:39.999Z</time></trkpt><trkpt lat="14.292735384453426" lon="120.93511131438432"><ele>125.66666666666666</ele><time>2026-04-04T10:20:41.999Z</time></trkpt><trkpt lat="14.292757645587855" lon="120.93519029623587"><ele>126.0</ele><time>2026-04-04T10:20:43.999Z</time></trkpt><trkpt lat="14.292781041183977" lon="120.93525693833197"><ele>126.33333333333334</ele><time>2026-04-04T10:20:45.999Z</time></trkpt><trkpt lat="14.292803932705443" lon="120.93532584339036"><ele>126.66666666666667</ele><time>2026-04-04T10:20:47.999Z</time></trkpt><trkpt lat="14.292836463117807" lon="120.93542516136247"><ele>127.0</ele><time>2026-04-04T10:20:49.999Z</time></trkpt><trkpt lat="14.292880196330524" lon="120.9355403953866"><ele>127.0</ele><time>2026-04-04T10:20:51.999Z</time></trkpt><trkpt lat="14.292922228271943" lon="120.93564925873551"><ele>126.99999999999999</ele><time>2026-04-04T10:20:53.999Z</time></trkpt><trkpt lat="14.292970866593645" lon="120.9357624305038"><ele>126.99999999999999</ele><time>2026-04-04T10:20:55.999Z</time></trkpt><trkpt lat="14.293008540977786" lon="120.93583536433394"><ele>127.0</ele><time>2026-04-04T10:20:56.999Z</time></trkpt><trkpt lat="14.293049899102067" lon="120.93591216823239"><ele>127.0</ele><time>2026-04-04T10:20:57.999Z</time></trkpt><trkpt lat="14.293088881775063" lon="120.93599487884143"><ele>127.66666666666667</ele><time>2026-04-04T10:20:58.999Z</time></trkpt><trkpt lat="14.293127036833784" lon="120.93607821546131"><ele>128.33333333333334</ele><time>2026-04-04T10:20:59.999Z</time></trkpt><trkpt lat="14.293168016056233" lon="120.93615567872052"><ele>129.0</ele><time>2026-04-04T10:21:00.999Z</time></trkpt><trkpt lat="14.293205503687187" lon="120.93622697294106"><ele>129.66666666666666</ele><time>2026-04-04T10:21:01.999Z</time></trkpt><trkpt lat="14.29323924991071" lon="120.93629705674863"><ele>130.33333333333331</ele><time>2026-04-04T10:21:02.999Z</time></trkpt><trkpt lat="14.293274174201178" lon="120.93636814329844"><ele>131.0</ele><time>2026-04-04T10:21:03.999Z</time></trkpt><trkpt lat="14.293309874981555" lon="120.93644194916435"><ele>131.0</ele><time>2026-04-04T10:21:04.999Z</time></trkpt><trkpt lat="14.293339819401258" lon="120.93650675331062"><ele>131.0</ele><time>2026-04-04T10:21:05.999Z</time></trkpt><trkpt lat="14.293366343298706" lon="120.93656821064485"><ele>131.0</ele><time>2026-04-04T10:21:06.999Z</time></trkpt><trkpt lat="14.293392109273471" lon="120.93663261977993"><ele>131.0</ele><time>2026-04-04T10:21:07.999Z</time></trkpt><trkpt lat="14.293434108496424" lon="120.93674888537569"><ele>131.0</ele><time>2026-04-04T10:21:09.999Z</time></trkpt><trkpt lat="14.293460110308526" lon="120.93685558097627"><ele>131.0</ele><time>2026-04-04T10:21:11.999Z</time></trkpt><trkpt lat="14.293486603792028" lon="120.93695618365213"><ele>132.0</ele><time>2026-04-04T10:21:13.999Z</time></trkpt><trkpt lat="14.293503228925925" lon="120.93702618526943"><ele>133.0</ele><time>2026-04-04T10:21:14.999Z</time></trkpt><trkpt lat="14.293518913368402" lon="120.93709426889073"><ele>134.0</ele><time>2026-04-04T10:21:15.999Z</time></trkpt><trkpt lat="14.293537098870882" lon="120.93719140994536"><ele>135.0</ele><time>2026-04-04T10:21:16.999Z</time></trkpt><trkpt lat="14.293553861198964" lon="120.93727269131176"><ele>136.0</ele><time>2026-04-04T10:21:17.999Z</time></trkpt><trkpt lat="14.293573320421588" lon="120.93734434596725"><ele>137.0</ele><time>2026-04-04T10:21:18.999Z</time></trkpt><trkpt lat="14.293587862038004" lon="120.9374207076045"><ele>137.00000000000003</ele><time>2026-04-04T10:21:19.999Z</time></trkpt><trkpt lat="14.293599467582034" lon="120.93748782770413"><ele>137.0</ele><time>2026-04-04T10:21:20.999Z</time></trkpt><trkpt lat="14.293615370303952" lon="120.93755275353821"><ele>137.0</ele><time>2026-04-04T10:21:21.999Z</time></trkpt><trkpt lat="14.293624168511798" lon="120.93762319718559"><ele>137.0</ele><time>2026-04-04T10:21:22.999Z</time></trkpt><trkpt lat="14.293631739487989" lon="120.93769494279445"><ele>137.0</ele><time>2026-04-04T10:21:23.999Z</time></trkpt><trkpt lat="14.293639863089428" lon="120.93776464110822"><ele>137.00000000000003</ele><time>2026-04-04T10:21:24.999Z</time></trkpt><trkpt lat="14.293648951517202" lon="120.93783292988927"><ele>137.0</ele><time>2026-04-04T10:21:25.999Z</time></trkpt><trkpt lat="14.293653889707423" lon="120.93790155426858"><ele>137.0</ele><time>2026-04-04T10:21:26.999Z</time></trkpt><trkpt lat="14.293665967871325" lon="120.93802623326708"><ele>137.0</ele><time>2026-04-04T10:21:28.999Z</time></trkpt><trkpt lat="14.293679896354202" lon="120.93814692769648"><ele>137.0</ele><time>2026-04-04T10:21:30.999Z</time></trkpt><trkpt lat="14.293688990558124" lon="120.93824557345857"><ele>137.0</ele><time>2026-04-04T10:21:32.999Z</time></trkpt><trkpt lat="14.29369844953838" lon="120.93834028890588"><ele>137.0</ele><time>2026-04-04T10:21:34.999Z</time></trkpt><trkpt lat="14.293713461575429" lon="120.93843217985746"><ele>137.2</ele><time>2026-04-04T10:21:36.999Z</time></trkpt><trkpt lat="14.293728279849459" lon="120.9385195843246"><ele>137.39999999999998</ele><time>2026-04-04T10:21:38.999Z</time></trkpt><trkpt lat="14.293739493076332" lon="120.93863216007472"><ele>137.60000000000002</ele><time>2026-04-04T10:21:40.999Z</time></trkpt><trkpt lat="14.293758819909337" lon="120.93875142538464"><ele>137.8</ele><time>2026-04-04T10:21:42.999Z</time></trkpt><trkpt lat="14.293773569588145" lon="120.93884773495144"><ele>138.0</ele><time>2026-04-04T10:21:44.999Z</time></trkpt><trkpt lat="14.293790504646514" lon="120.93891897289458"><ele>138.0</ele><time>2026-04-04T10:21:52.999Z</time></trkpt><trkpt lat="14.293817433425234" lon="120.93905521078479"><ele>138.0</ele><time>2026-04-04T10:21:54.999Z</time></trkpt><trkpt lat="14.293832949035941" lon="120.93913959253109"><ele>138.0</ele><time>2026-04-04T10:21:55.999Z</time></trkpt><trkpt lat="14.293853015122174" lon="120.9392327160929"><ele>138.0</ele><time>2026-04-04T10:21:56.999Z</time></trkpt><trkpt lat="14.293873032295268" lon="120.93933755725276"><ele>138.0</ele><time>2026-04-04T10:21:57.999Z</time></trkpt><trkpt lat="14.2938951052714" lon="120.93945059047863"><ele>137.5</ele><time>2026-04-04T10:21:58.999Z</time></trkpt><trkpt lat="14.293918040694495" lon="120.93957035843016"><ele>137.0</ele><time>2026-04-04T10:21:59.999Z</time></trkpt><trkpt lat="14.29394139988058" lon="120.93969446405399"><ele>136.5</ele><time>2026-04-04T10:22:00.999Z</time></trkpt><trkpt lat="14.293964493205547" lon="120.93982465848919"><ele>136.0</ele><time>2026-04-04T10:22:01.999Z</time></trkpt><trkpt lat="14.29398856657824" lon="120.93995713778631"><ele>136.5</ele><time>2026-04-04T10:22:02.999Z</time></trkpt><trkpt lat="14.29401251940071" lon="120.9400891954272"><ele>137.0</ele><time>2026-04-04T10:22:03.999Z</time></trkpt><trkpt lat="14.294035245681473" lon="120.94022176430703"><ele>137.5</ele><time>2026-04-04T10:22:04.999Z</time></trkpt><trkpt lat="14.294056888593744" lon="120.9403576105568"><ele>138.0</ele><time>2026-04-04T10:22:05.999Z</time></trkpt><trkpt lat="14.294080628665634" lon="120.94049293989698"><ele>138.0</ele><time>2026-04-04T10:22:06.999Z</time></trkpt><trkpt lat="14.294101517589691" lon="120.94062782883886"><ele>138.0</ele><time>2026-04-04T10:22:07.999Z</time></trkpt><trkpt lat="14.294126360894055" lon="120.94076476143765"><ele>138.0</ele><time>2026-04-04T10:22:08.999Z</time></trkpt><trkpt lat="14.294156364845557" lon="120.94090274191437"><ele>138.0</ele><time>2026-04-04T10:22:09.999Z</time></trkpt><trkpt lat="14.294193801449119" lon="120.9410429422243"><ele>138.25</ele><time>2026-04-04T10:22:10.999Z</time></trkpt><trkpt lat="14.29420703375553" lon="120.9411478754279"><ele>138.5</ele><time>2026-04-04T10:22:11.999Z</time></trkpt><trkpt lat="14.294234848819634" lon="120.9412773018074"><ele>138.75</ele><time>2026-04-04T10:22:12.999Z</time></trkpt><trkpt lat="14.294268655410027" lon="120.94140242283147"><ele>139.0</ele><time>2026-04-04T10:22:13.999Z</time></trkpt><trkpt lat="14.294313283993883" lon="120.94152010699474"><ele>139.0</ele><time>2026-04-04T10:22:14.999Z</time></trkpt><trkpt lat="14.294369935924198" lon="120.94163088071268"><ele>139.0</ele><time>2026-04-04T10:22:15.999Z</time></trkpt><trkpt lat="14.294434006694225" lon="120.94174041287184"><ele>139.0</ele><time>2026-04-04T10:22:16.999Z</time></trkpt><trkpt lat="14.29449381338622" lon="120.94190343105048"><ele>139.0</ele><time>2026-04-04T10:22:17.999Z</time></trkpt><trkpt lat="14.294564781939991" lon="120.9420283033352"><ele>138.75</ele><time>2026-04-04T10:22:18.999Z</time></trkpt><trkpt lat="14.294635362191643" lon="120.94215134759197"><ele>138.5</ele><time>2026-04-04T10:22:19.999Z</time></trkpt><trkpt lat="14.294704789526135" lon="120.94227895925461"><ele>138.25</ele><time>2026-04-04T10:22:20.999Z</time></trkpt><trkpt lat="14.29477566778857" lon="120.94240683071303"><ele>138.0</ele><time>2026-04-04T10:22:21.999Z</time></trkpt><trkpt lat="14.294840298073533" lon="120.94253059131721"><ele>137.5</ele><time>2026-04-04T10:22:22.999Z</time></trkpt><trkpt lat="14.294907391976505" lon="120.94265228637805"><ele>137.0</ele><time>2026-04-04T10:22:23.999Z</time></trkpt><trkpt lat="14.294975802871766" lon="120.94278068242086"><ele>136.5</ele><time>2026-04-04T10:22:24.999Z</time></trkpt><trkpt lat="14.29504489490058" lon="120.94290672025502"><ele>136.0</ele><time>2026-04-04T10:22:25.999Z</time></trkpt><trkpt lat="14.295117729103467" lon="120.94303255676631"><ele>136.0</ele><time>2026-04-04T10:22:26.999Z</time></trkpt><trkpt lat="14.295190769479843" lon="120.9431582488701"><ele>136.0</ele><time>2026-04-04T10:22:27.999Z</time></trkpt><trkpt lat="14.295260759936419" lon="120.94328922863055"><ele>136.0</ele><time>2026-04-04T10:22:28.999Z</time></trkpt><trkpt lat="14.295329306600296" lon="120.94341508805829"><ele>136.0</ele><time>2026-04-04T10:22:29.999Z</time></trkpt><trkpt lat="14.295395508568296" lon="120.94353533175057"><ele>137.0</ele><time>2026-04-04T10:22:30.999Z</time></trkpt><trkpt lat="14.295463864450603" lon="120.94365359044812"><ele>138.0</ele><time>2026-04-04T10:22:31.999Z</time></trkpt><trkpt lat="14.295529789420359" lon="120.94376530701943"><ele>139.0</ele><time>2026-04-04T10:22:32.999Z</time></trkpt><trkpt lat="14.295592017048866" lon="120.94387301299163"><ele>140.0</ele><time>2026-04-04T10:22:33.999Z</time></trkpt><trkpt lat="14.295653000407858" lon="120.9439781500066"><ele>140.0</ele><time>2026-04-04T10:22:34.999Z</time></trkpt><trkpt lat="14.295716443584555" lon="120.94408157822592"><ele>140.0</ele><time>2026-04-04T10:22:35.999Z</time></trkpt><trkpt lat="14.295776649148142" lon="120.94418828567885"><ele>140.0</ele><time>2026-04-04T10:22:36.999Z</time></trkpt><trkpt lat="14.295838461079317" lon="120.94429566645098"><ele>140.0</ele><time>2026-04-04T10:22:37.999Z</time></trkpt><trkpt lat="14.295895546330787" lon="120.94439721222909"><ele>140.2</ele><time>2026-04-04T10:22:38.999Z</time></trkpt><trkpt lat="14.29595269594189" lon="120.94449920267716"><ele>140.4</ele><time>2026-04-04T10:22:39.999Z</time></trkpt><trkpt lat="14.296008827235834" lon="120.94459417858387"><ele>140.6</ele><time>2026-04-04T10:22:40.999Z</time></trkpt><trkpt lat="14.296058441456317" lon="120.94467789699428"><ele>140.8</ele><time>2026-04-04T10:22:41.999Z</time></trkpt><trkpt lat="14.296100743955309" lon="120.94475613052852"><ele>141.0</ele><time>2026-04-04T10:22:42.999Z</time></trkpt><trkpt lat="14.296139821481667" lon="120.9448322803435"><ele>141.0</ele><time>2026-04-04T10:22:43.999Z</time></trkpt><trkpt lat="14.296182043308614" lon="120.94490754650926"><ele>141.0</ele><time>2026-04-04T10:22:44.999Z</time></trkpt><trkpt lat="14.296224576371717" lon="120.94499068729944"><ele>141.0</ele><time>2026-04-04T10:22:45.999Z</time></trkpt><trkpt lat="14.296272806842568" lon="120.94507366920664"><ele>141.0</ele><time>2026-04-04T10:22:46.999Z</time></trkpt><trkpt lat="14.296320529927218" lon="120.9451528539783"><ele>141.0</ele><time>2026-04-04T10:22:47.999Z</time></trkpt><trkpt lat="14.296369420179962" lon="120.94523627832822"><ele>140.8</ele><time>2026-04-04T10:22:48.999Z</time></trkpt><trkpt lat="14.296419785656282" lon="120.94532234609889"><ele>140.6</ele><time>2026-04-04T10:22:49.999Z</time></trkpt><trkpt lat="14.296471338273046" lon="120.9454057278661"><ele>140.4</ele><time>2026-04-04T10:22:50.999Z</time></trkpt><trkpt lat="14.296523296215483" lon="120.94549529245072"><ele>140.2</ele><time>2026-04-04T10:22:51.999Z</time></trkpt><trkpt lat="14.29657218549259" lon="120.94558254812259"><ele>140.0</ele><time>2026-04-04T10:22:52.999Z</time></trkpt><trkpt lat="14.29662320902845" lon="120.94566605443397"><ele>140.0</ele><time>2026-04-04T10:22:53.999Z</time></trkpt><trkpt lat="14.296676753524752" lon="120.94575465770498"><ele>140.0</ele><time>2026-04-04T10:22:54.999Z</time></trkpt><trkpt lat="14.296729720965237" lon="120.94584443813936"><ele>140.0</ele><time>2026-04-04T10:22:55.999Z</time></trkpt><trkpt lat="14.296791649944753" lon="120.94594749687734"><ele>140.0</ele><time>2026-04-04T10:22:56.999Z</time></trkpt><trkpt lat="14.296850019719368" lon="120.94604186034607"><ele>140.0</ele><time>2026-04-04T10:22:57.999Z</time></trkpt><trkpt lat="14.296902305160355" lon="120.94613469385132"><ele>139.6</ele><time>2026-04-04T10:22:58.999Z</time></trkpt><trkpt lat="14.296954527560265" lon="120.94623050520323"><ele>139.2</ele><time>2026-04-04T10:22:59.999Z</time></trkpt><trkpt lat="14.297014507413088" lon="120.94633505239378"><ele>138.8</ele><time>2026-04-04T10:23:00.999Z</time></trkpt><trkpt lat="14.297068138162631" lon="120.94643344749919"><ele>138.4</ele><time>2026-04-04T10:23:01.999Z</time></trkpt><trkpt lat="14.297120468758825" lon="120.94653102975883"><ele>138.0</ele><time>2026-04-04T10:23:02.999Z</time></trkpt><trkpt lat="14.297171021638318" lon="120.94663046208953"><ele>137.75</ele><time>2026-04-04T10:23:03.999Z</time></trkpt><trkpt lat="14.297230215666175" lon="120.94673304447379"><ele>137.5</ele><time>2026-04-04T10:23:04.999Z</time></trkpt><trkpt lat="14.297303415831003" lon="120.9468476881075"><ele>137.25</ele><time>2026-04-04T10:23:05.999Z</time></trkpt><trkpt lat="14.297371973897043" lon="120.94697051678827"><ele>137.0</ele><time>2026-04-04T10:23:06.999Z</time></trkpt><trkpt lat="14.297442137059548" lon="120.94710782602414"><ele>137.0</ele><time>2026-04-04T10:23:07.999Z</time></trkpt><trkpt lat="14.297512541264988" lon="120.94725260345352"><ele>137.0</ele><time>2026-04-04T10:23:08.999Z</time></trkpt><trkpt lat="14.297582698195912" lon="120.94739818687435"><ele>137.0</ele><time>2026-04-04T10:23:09.999Z</time></trkpt><trkpt lat="14.297650798389855" lon="120.94754274160722"><ele>138.33333333333331</ele><time>2026-04-04T10:23:10.999Z</time></trkpt><trkpt lat="14.297719381715616" lon="120.94768543671195"><ele>139.66666666666666</ele><time>2026-04-04T10:23:11.999Z</time></trkpt><trkpt lat="14.29780014671746" lon="120.9478318766254"><ele>141.0</ele><time>2026-04-04T10:23:12.999Z</time></trkpt><trkpt lat="14.297879607038842" lon="120.9479739636375"><ele>141.0</ele><time>2026-04-04T10:23:13.999Z</time></trkpt><trkpt lat="14.297962837032767" lon="120.94811330911755"><ele>141.0</ele><time>2026-04-04T10:23:14.999Z</time></trkpt><trkpt lat="14.29804310281447" lon="120.94825278447419"><ele>141.0</ele><time>2026-04-04T10:23:15.999Z</time></trkpt><trkpt lat="14.29811583743312" lon="120.9483829980021"><ele>140.5</ele><time>2026-04-04T10:23:16.999Z</time></trkpt><trkpt lat="14.298181942573333" lon="120.94851114785052"><ele>140.0</ele><time>2026-04-04T10:23:17.999Z</time></trkpt><trkpt lat="14.298250122372863" lon="120.94864531834634"><ele>139.5</ele><time>2026-04-04T10:23:18.999Z</time></trkpt><trkpt lat="14.298323539907567" lon="120.94877699725967"><ele>139.0</ele><time>2026-04-04T10:23:19.999Z</time></trkpt><trkpt lat="14.29839823090378" lon="120.94891210711536"><ele>139.0</ele><time>2026-04-04T10:23:20.999Z</time></trkpt><trkpt lat="14.298474136394344" lon="120.94904848566969"><ele>139.0</ele><time>2026-04-04T10:23:21.999Z</time></trkpt><trkpt lat="14.298548273803203" lon="120.9491849700495"><ele>139.0</ele><time>2026-04-04T10:23:22.999Z</time></trkpt><trkpt lat="14.29862308730297" lon="120.94932204184559"><ele>139.5</ele><time>2026-04-04T10:23:23.999Z</time></trkpt><trkpt lat="14.298699010829344" lon="120.94945656870073"><ele>140.0</ele><time>2026-04-04T10:23:24.999Z</time></trkpt><trkpt lat="14.298773779253064" lon="120.94958777407486"><ele>140.5</ele><time>2026-04-04T10:23:25.999Z</time></trkpt><trkpt lat="14.298843228379347" lon="120.94971070823335"><ele>141.0</ele><time>2026-04-04T10:23:26.999Z</time></trkpt><trkpt lat="14.2989065469045" lon="120.94982345552273"><ele>141.0</ele><time>2026-04-04T10:23:27.999Z</time></trkpt><trkpt lat="14.29896848513828" lon="120.94993747392938"><ele>141.0</ele><time>2026-04-04T10:23:28.999Z</time></trkpt><trkpt lat="14.299027833842574" lon="120.95004804601022"><ele>141.0</ele><time>2026-04-04T10:23:29.999Z</time></trkpt><trkpt lat="14.299080882216854" lon="120.95015058118605"><ele>141.0</ele><time>2026-04-04T10:23:30.999Z</time></trkpt><trkpt lat="14.299130777622686" lon="120.95024721919866"><ele>140.6</ele><time>2026-04-04T10:23:31.999Z</time></trkpt><trkpt lat="14.299182286393048" lon="120.9503449671002"><ele>140.2</ele><time>2026-04-04T10:23:32.999Z</time></trkpt><trkpt lat="14.299232209683122" lon="120.9504362641023"><ele>139.8</ele><time>2026-04-04T10:23:33.999Z</time></trkpt><trkpt lat="14.299280355143146" lon="120.95052610856806"><ele>139.4</ele><time>2026-04-04T10:23:34.999Z</time></trkpt><trkpt lat="14.29932900161358" lon="120.95061592149055"><ele>139.0</ele><time>2026-04-04T10:23:35.999Z</time></trkpt><trkpt lat="14.299380424441543" lon="120.95071368088799"><ele>139.0</ele><time>2026-04-04T10:23:36.999Z</time></trkpt><trkpt lat="14.299431341347022" lon="120.9508039414536"><ele>139.0</ele><time>2026-04-04T10:23:37.999Z</time></trkpt><trkpt lat="14.299484125589242" lon="120.95089926358104"><ele>139.0</ele><time>2026-04-04T10:23:38.999Z</time></trkpt><trkpt lat="14.299536887443447" lon="120.95099776396161"><ele>139.0</ele><time>2026-04-04T10:23:39.999Z</time></trkpt><trkpt lat="14.299591951644858" lon="120.95109990397805"><ele>139.0</ele><time>2026-04-04T10:23:40.999Z</time></trkpt><trkpt lat="14.29964273067874" lon="120.95119764262894"><ele>138.2</ele><time>2026-04-04T10:23:41.999Z</time></trkpt><trkpt lat="14.299695842819187" lon="120.95129729049548"><ele>137.4</ele><time>2026-04-04T10:23:42.999Z</time></trkpt><trkpt lat="14.299755651135776" lon="120.9514013547629"><ele>136.6</ele><time>2026-04-04T10:23:43.999Z</time></trkpt><trkpt lat="14.299811229345984" lon="120.95149802783777"><ele>135.8</ele><time>2026-04-04T10:23:44.999Z</time></trkpt><trkpt lat="14.299870475460752" lon="120.95159522440302"><ele>135.0</ele><time>2026-04-04T10:23:45.999Z</time></trkpt><trkpt lat="14.299928298554322" lon="120.95168487983769"><ele>132.2</ele><time>2026-04-04T10:23:46.999Z</time></trkpt><trkpt lat="14.299987780663256" lon="120.95176802162413"><ele>129.4</ele><time>2026-04-04T10:23:47.999Z</time></trkpt><trkpt lat="14.300048787683336" lon="120.95184993611451"><ele>126.6</ele><time>2026-04-04T10:23:48.999Z</time></trkpt><trkpt lat="14.300112850565155" lon="120.95193173041709"><ele>123.8</ele><time>2026-04-04T10:23:49.999Z</time></trkpt><trkpt lat="14.300169210940297" lon="120.95200455740301"><ele>121.0</ele><time>2026-04-04T10:23:50.999Z</time></trkpt><trkpt lat="14.300235199535981" lon="120.95208199709188"><ele>121.00000000000001</ele><time>2026-04-04T10:23:51.999Z</time></trkpt><trkpt lat="14.30028635366335" lon="120.95214139080534"><ele>121.0</ele><time>2026-04-04T10:23:52.999Z</time></trkpt><trkpt lat="14.300347292815061" lon="120.9522125607606"><ele>121.0</ele><time>2026-04-04T10:23:53.999Z</time></trkpt><trkpt lat="14.300401035049964" lon="120.95227666107877"><ele>121.0</ele><time>2026-04-04T10:23:54.999Z</time></trkpt><trkpt lat="14.300456459274928" lon="120.95233871824514"><ele>121.00000000000001</ele><time>2026-04-04T10:23:55.999Z</time></trkpt><trkpt lat="14.300515707036906" lon="120.95241306219413"><ele>121.0</ele><time>2026-04-04T10:23:56.999Z</time></trkpt><trkpt lat="14.300574449101148" lon="120.95247430491969"><ele>121.16666666666667</ele><time>2026-04-04T10:23:57.999Z</time></trkpt><trkpt lat="14.300628097199809" lon="120.95253400073153"><ele>121.33333333333334</ele><time>2026-04-04T10:23:58.999Z</time></trkpt><trkpt lat="14.300673626651877" lon="120.95258336520408"><ele>121.5</ele><time>2026-04-04T10:23:59.999Z</time></trkpt><trkpt lat="14.300745680109666" lon="120.95267616930681"><ele>121.66666666666666</ele><time>2026-04-04T10:24:01.999Z</time></trkpt><trkpt lat="14.300824953902318" lon="120.95277133137515"><ele>121.83333333333333</ele><time>2026-04-04T10:24:03.999Z</time></trkpt><trkpt lat="14.300866455528059" lon="120.95282106275384"><ele>122.0</ele><time>2026-04-04T10:24:04.999Z</time></trkpt><trkpt lat="14.300910624428168" lon="120.95286748593804"><ele>124.0</ele><time>2026-04-04T10:24:05.999Z</time></trkpt><trkpt lat="14.300958968586123" lon="120.95292304514855"><ele>125.99999999999999</ele><time>2026-04-04T10:24:06.999Z</time></trkpt><trkpt lat="14.301030768077796" lon="120.95300523895837"><ele>127.99999999999999</ele><time>2026-04-04T10:24:08.999Z</time></trkpt><trkpt lat="14.301109071582774" lon="120.95308248046584"><ele>130.0</ele><time>2026-04-04T10:24:10.999Z</time></trkpt><trkpt lat="14.30120107341495" lon="120.95315676520549"><ele>132.0</ele><time>2026-04-04T10:24:12.999Z</time></trkpt><trkpt lat="14.301305205649356" lon="120.95321113224546"><ele>132.0</ele><time>2026-04-04T10:24:14.999Z</time></trkpt><trkpt lat="14.301412134111436" lon="120.9532721048601"><ele>132.0</ele><time>2026-04-04T10:24:16.999Z</time></trkpt><trkpt lat="14.301474748288369" lon="120.95330844832701"><ele>132.0</ele><time>2026-04-04T10:24:17.999Z</time></trkpt><trkpt lat="14.301522146936723" lon="120.9533561816964"><ele>132.0</ele><time>2026-04-04T10:24:18.999Z</time></trkpt><trkpt lat="14.301624163434397" lon="120.9534214479666"><ele>132.0</ele><time>2026-04-04T10:24:20.999Z</time></trkpt><trkpt lat="14.301715978680933" lon="120.95348018764905"><ele>133.33333333333334</ele><time>2026-04-04T10:24:22.999Z</time></trkpt><trkpt lat="14.301806055192849" lon="120.95354381893807"><ele>134.66666666666666</ele><time>2026-04-04T10:24:24.999Z</time></trkpt><trkpt lat="14.301845119841555" lon="120.95361931348081"><ele>136.0</ele><time>2026-04-04T10:24:26.999Z</time></trkpt><trkpt lat="14.301912893071199" lon="120.95366205712116"><ele>137.33333333333331</ele><time>2026-04-04T10:24:28.999Z</time></trkpt><trkpt lat="14.30195953578366" lon="120.95370863198539"><ele>138.66666666666666</ele><time>2026-04-04T10:24:33.999Z</time></trkpt><trkpt lat="14.301960022909045" lon="120.95378181447828"><ele>140.0</ele><time>2026-04-04T10:25:18.999Z</time></trkpt><trkpt lat="14.301974702607287" lon="120.95385403557728"><ele>140.0</ele><time>2026-04-04T10:25:20.999Z</time></trkpt><trkpt lat="14.301990877644718" lon="120.95392075996017"><ele>140.0</ele><time>2026-04-04T10:27:04.999Z</time></trkpt><trkpt lat="14.302036334500308" lon="120.95397637286523"><ele>140.0</ele><time>2026-04-04T10:27:08.999Z</time></trkpt><trkpt lat="14.302055902307997" lon="120.95405254611235"><ele>140.0</ele><time>2026-04-04T10:27:10.999Z</time></trkpt><trkpt lat="14.302069810785497" lon="120.9541168432503"><ele>140.0</ele><time>2026-04-04T10:27:12.999Z</time></trkpt><trkpt lat="14.302067387909952" lon="120.95419358309661"><ele>140.0</ele><time>2026-04-04T10:27:17.999Z</time></trkpt><trkpt lat="14.302070624482097" lon="120.95427066788966"><ele>140.0</ele><time>2026-04-04T10:27:21.999Z</time></trkpt><trkpt lat="14.302064376952856" lon="120.95434135152136"><ele>139.8</ele><time>2026-04-04T10:27:23.999Z</time></trkpt><trkpt lat="14.302047450630363" lon="120.95444083515443"><ele>139.6</ele><time>2026-04-04T10:27:25.999Z</time></trkpt><trkpt lat="14.302012448931734" lon="120.95453663338736"><ele>139.4</ele><time>2026-04-04T10:27:27.999Z</time></trkpt><trkpt lat="14.30198028243918" lon="120.95461899634545"><ele>139.2</ele><time>2026-04-04T10:27:29.999Z</time></trkpt><trkpt lat="14.301928141842104" lon="120.95470926076995"><ele>139.0</ele><time>2026-04-04T10:27:31.999Z</time></trkpt><trkpt lat="14.30186614638381" lon="120.95479820694983"><ele>139.0</ele><time>2026-04-04T10:27:33.999Z</time></trkpt><trkpt lat="14.301784338909671" lon="120.95486302593413"><ele>139.0</ele><time>2026-04-04T10:27:35.999Z</time></trkpt><trkpt lat="14.301692974868024" lon="120.95494539271279"><ele>139.0</ele><time>2026-04-04T10:27:37.999Z</time></trkpt><trkpt lat="14.301621367152995" lon="120.95500994871009"><ele>139.0</ele><time>2026-04-04T10:27:38.999Z</time></trkpt><trkpt lat="14.301542630160686" lon="120.95508093187135"><ele>139.0</ele><time>2026-04-04T10:27:39.999Z</time></trkpt><trkpt lat="14.301461912537373" lon="120.95515370069843"><ele>139.2</ele><time>2026-04-04T10:27:40.999Z</time></trkpt><trkpt lat="14.301376756264014" lon="120.95523047100191"><ele>139.4</ele><time>2026-04-04T10:27:41.999Z</time></trkpt><trkpt lat="14.301299639280243" lon="120.95530286288454"><ele>139.6</ele><time>2026-04-04T10:27:42.999Z</time></trkpt><trkpt lat="14.301226405909059" lon="120.95537200410607"><ele>139.8</ele><time>2026-04-04T10:27:43.999Z</time></trkpt><trkpt lat="14.301151887513223" lon="120.95544235856366"><ele>140.0</ele><time>2026-04-04T10:27:44.999Z</time></trkpt><trkpt lat="14.30110836786562" lon="120.95554004658595"><ele>140.0</ele><time>2026-04-04T10:27:45.999Z</time></trkpt><trkpt lat="14.301036973392954" lon="120.95560728619292"><ele>140.0</ele><time>2026-04-04T10:27:46.999Z</time></trkpt><trkpt lat="14.3009647468528" lon="120.9556758856134"><ele>140.0</ele><time>2026-04-04T10:27:47.999Z</time></trkpt><trkpt lat="14.30088185986056" lon="120.95574677876536"><ele>140.0</ele><time>2026-04-04T10:27:48.999Z</time></trkpt><trkpt lat="14.300790254362251" lon="120.95581998993802"><ele>140.0</ele><time>2026-04-04T10:27:49.999Z</time></trkpt><trkpt lat="14.300697218850365" lon="120.9558979536601"><ele>139.8</ele><time>2026-04-04T10:27:50.999Z</time></trkpt><trkpt lat="14.300604775790397" lon="120.95598909211701"><ele>139.6</ele><time>2026-04-04T10:27:51.999Z</time></trkpt><trkpt lat="14.30052439711032" lon="120.95607425026324"><ele>139.4</ele><time>2026-04-04T10:27:52.999Z</time></trkpt><trkpt lat="14.300456563159752" lon="120.95615121766514"><ele>139.2</ele><time>2026-04-04T10:27:54Z</time></trkpt><trkpt lat="14.300395143573661" lon="120.95622582321593"><ele>139.0</ele><time>2026-04-04T10:27:55Z</time></trkpt><trkpt lat="14.300346823515186" lon="120.95629863614671"><ele>139.0</ele><time>2026-04-04T10:27:56Z</time></trkpt><trkpt lat="14.300297121299497" lon="120.95636740952213"><ele>139.0</ele><time>2026-04-04T10:27:57Z</time></trkpt><trkpt lat="14.30025739997703" lon="120.95642320447028"><ele>139.0</ele><time>2026-04-04T10:27:58Z</time></trkpt><trkpt lat="14.300200229872612" lon="120.95651723431385"><ele>139.0</ele><time>2026-04-04T10:28:00Z</time></trkpt><trkpt lat="14.300147915118131" lon="120.95660807413942"><ele>139.0</ele><time>2026-04-04T10:28:02Z</time></trkpt><trkpt lat="14.300093692723674" lon="120.95670969168334"><ele>139.0</ele><time>2026-04-04T10:28:04Z</time></trkpt><trkpt lat="14.300049909915062" lon="120.95680006266845"><ele>139.0</ele><time>2026-04-04T10:28:06Z</time></trkpt><trkpt lat="14.300015693489957" lon="120.95686495686097"><ele>139.0</ele><time>2026-04-04T10:28:08Z</time></trkpt><trkpt lat="14.29998469196017" lon="120.95692772519122"><ele>139.0</ele><time>2026-04-04T10:28:10Z</time></trkpt><trkpt lat="14.299961184307998" lon="120.95698868768672"><ele>139.0</ele><time>2026-04-04T10:28:12Z</time></trkpt><trkpt lat="14.299921599022234" lon="120.95706169394425"><ele>139.0</ele><time>2026-04-04T10:28:14Z</time></trkpt><trkpt lat="14.299881937201198" lon="120.95712535605489"><ele>139.0</ele><time>2026-04-04T10:28:16Z</time></trkpt><trkpt lat="14.299848137063709" lon="120.95719672941019"><ele>139.0</ele><time>2026-04-04T10:28:18Z</time></trkpt><trkpt lat="14.299814620555031" lon="120.95725523102531"><ele>139.0</ele><time>2026-04-04T10:28:21Z</time></trkpt><trkpt lat="14.299795065221598" lon="120.95732063338426"><ele>139.0</ele><time>2026-04-04T10:28:24Z</time></trkpt><trkpt lat="14.299766506559576" lon="120.95739697698464"><ele>139.0</ele><time>2026-04-04T10:28:29Z</time></trkpt><trkpt lat="14.299722389256239" lon="120.95748200163797"><ele>139.0</ele><time>2026-04-04T10:28:32Z</time></trkpt><trkpt lat="14.29969138705753" lon="120.95754175032052"><ele>139.0</ele><time>2026-04-04T10:28:34Z</time></trkpt><trkpt lat="14.299659676157773" lon="120.95760286483527"><ele>139.33333333333334</ele><time>2026-04-04T10:28:36Z</time></trkpt><trkpt lat="14.2996197740087" lon="120.95767976585441"><ele>139.66666666666669</ele><time>2026-04-04T10:28:39Z</time></trkpt><trkpt lat="14.29958465430819" lon="120.9577479745654"><ele>140.0</ele><time>2026-04-04T10:28:42Z</time></trkpt><trkpt lat="14.299550412850133" lon="120.95781438767911"><ele>140.33333333333334</ele><time>2026-04-04T10:28:45Z</time></trkpt><trkpt lat="14.299513706402617" lon="120.95788350369818"><ele>140.66666666666666</ele><time>2026-04-04T10:28:50Z</time></trkpt><trkpt lat="14.299476601747859" lon="120.9579531657255"><ele>141.0</ele><time>2026-04-04T10:28:53Z</time></trkpt><trkpt lat="14.299439089105109" lon="120.95802361768509"><ele>141.0</ele><time>2026-04-04T10:28:56Z</time></trkpt><trkpt lat="14.29940684201964" lon="120.95808416737567"><ele>141.0</ele><time>2026-04-04T10:29:02Z</time></trkpt><trkpt lat="14.299368875620381" lon="120.95815545594526"><ele>141.0</ele><time>2026-04-04T10:29:05Z</time></trkpt><trkpt lat="14.299335460740902" lon="120.95821819992564"><ele>141.0</ele><time>2026-04-04T10:29:07Z</time></trkpt><trkpt lat="14.299299450372553" lon="120.95828581701352"><ele>141.0</ele><time>2026-04-04T10:29:11Z</time></trkpt><trkpt lat="14.299268181469067" lon="120.95834453100467"><ele>141.0</ele><time>2026-04-04T10:29:15Z</time></trkpt><trkpt lat="14.2992284574899" lon="120.95841912120412"><ele>141.0</ele><time>2026-04-04T10:29:19Z</time></trkpt><trkpt lat="14.299198102545983" lon="120.95848436847778"><ele>141.0</ele><time>2026-04-04T10:29:21Z</time></trkpt><trkpt lat="14.299156561119839" lon="120.95856622470966"><ele>141.0</ele><time>2026-04-04T10:29:23Z</time></trkpt><trkpt lat="14.299127138927483" lon="120.95868769699098"><ele>141.0</ele><time>2026-04-04T10:29:25Z</time></trkpt><trkpt lat="14.299113442023646" lon="120.95875209391212"><ele>141.0</ele><time>2026-04-04T10:29:26Z</time></trkpt><trkpt lat="14.299099239372154" lon="120.95884142379116"><ele>141.0</ele><time>2026-04-04T10:29:28Z</time></trkpt><trkpt lat="14.299086622236448" lon="120.95892518987978"><ele>141.0</ele><time>2026-04-04T10:29:30Z</time></trkpt><trkpt lat="14.29907745778555" lon="120.95906360962212"><ele>141.0</ele><time>2026-04-04T10:29:32Z</time></trkpt><trkpt lat="14.299088493693446" lon="120.95913907259823"><ele>141.0</ele><time>2026-04-04T10:29:33Z</time></trkpt><trkpt lat="14.29910318874172" lon="120.95923043633617"><ele>141.0</ele><time>2026-04-04T10:29:34.999Z</time></trkpt><trkpt lat="14.299086890621968" lon="120.95929431562064"><ele>141.0</ele><time>2026-04-04T10:29:35.999Z</time></trkpt><trkpt lat="14.299099496592415" lon="120.95941200082353"><ele>141.0</ele><time>2026-04-04T10:29:37.999Z</time></trkpt><trkpt lat="14.299117418545945" lon="120.9594950149017"><ele>141.0</ele><time>2026-04-04T10:29:38.999Z</time></trkpt><trkpt lat="14.299130535784311" lon="120.95957173297973"><ele>141.33333333333334</ele><time>2026-04-04T10:29:39.999Z</time></trkpt><trkpt lat="14.299143036990339" lon="120.9596432195475"><ele>141.66666666666666</ele><time>2026-04-04T10:29:40.999Z</time></trkpt><trkpt lat="14.299159844239144" lon="120.95973708662463"><ele>142.0</ele><time>2026-04-04T10:29:42.999Z</time></trkpt><trkpt lat="14.299150513383085" lon="120.95981775333406"><ele>142.33333333333331</ele><time>2026-04-04T10:29:45.999Z</time></trkpt><trkpt lat="14.299161102966163" lon="120.95992253856053"><ele>142.66666666666666</ele><time>2026-04-04T10:29:47.999Z</time></trkpt><trkpt lat="14.299177196576537" lon="120.95999363507902"><ele>143.0</ele><time>2026-04-04T10:29:48.999Z</time></trkpt><trkpt lat="14.299191938404103" lon="120.96006746689446"><ele>143.83333333333331</ele><time>2026-04-04T10:29:49.999Z</time></trkpt><trkpt lat="14.299201711315417" lon="120.96014226353299"><ele>144.66666666666666</ele><time>2026-04-04T10:29:50.999Z</time></trkpt><trkpt lat="14.299213717901964" lon="120.96022095850739"><ele>145.5</ele><time>2026-04-04T10:29:51.999Z</time></trkpt><trkpt lat="14.29923206223422" lon="120.96030933484828"><ele>146.33333333333334</ele><time>2026-04-04T10:29:52.999Z</time></trkpt><trkpt lat="14.299251660781866" lon="120.96039532310013"><ele>147.16666666666669</ele><time>2026-04-04T10:29:53.999Z</time></trkpt><trkpt lat="14.2992674189453" lon="120.96049478468791"><ele>148.0</ele><time>2026-04-04T10:29:54.999Z</time></trkpt><trkpt lat="14.299286360331463" lon="120.96058653568099"><ele>148.0</ele><time>2026-04-04T10:29:55.999Z</time></trkpt><trkpt lat="14.299308766496106" lon="120.96068931581016"><ele>148.0</ele><time>2026-04-04T10:29:56.999Z</time></trkpt><trkpt lat="14.299318639769657" lon="120.96080792546927"><ele>148.0</ele><time>2026-04-04T10:29:57.999Z</time></trkpt><trkpt lat="14.299331284046833" lon="120.96092357296794"><ele>148.0</ele><time>2026-04-04T10:29:58.999Z</time></trkpt><trkpt lat="14.29936658851792" lon="120.9610377459037"><ele>148.0</ele><time>2026-04-04T10:29:59.999Z</time></trkpt><trkpt lat="14.299380392529912" lon="120.96114996202222"><ele>148.8</ele><time>2026-04-04T10:30:00.999Z</time></trkpt><trkpt lat="14.299402580640193" lon="120.96126145002712"><ele>149.60000000000002</ele><time>2026-04-04T10:30:01.999Z</time></trkpt><trkpt lat="14.299420009168028" lon="120.9613689495629"><ele>150.39999999999998</ele><time>2026-04-04T10:30:02.999Z</time></trkpt><trkpt lat="14.299441552045872" lon="120.96147645776753"><ele>151.2</ele><time>2026-04-04T10:30:04Z</time></trkpt><trkpt lat="14.29945816604995" lon="120.9615784685709"><ele>152.0</ele><time>2026-04-04T10:30:05Z</time></trkpt><trkpt lat="14.299473726403075" lon="120.96167634750424"><ele>151.4</ele><time>2026-04-04T10:30:06Z</time></trkpt><trkpt lat="14.299494538126376" lon="120.96177191420794"><ele>150.79999999999998</ele><time>2026-04-04T10:30:07Z</time></trkpt><trkpt lat="14.299512493471017" lon="120.9618745111252"><ele>150.2</ele><time>2026-04-04T10:30:08Z</time></trkpt><trkpt lat="14.299527415244706" lon="120.96197105045621"><ele>149.6</ele><time>2026-04-04T10:30:09Z</time></trkpt><trkpt lat="14.299547044597679" lon="120.96207838214228"><ele>149.0</ele><time>2026-04-04T10:30:10Z</time></trkpt><trkpt lat="14.299564693036121" lon="120.96217663416114"><ele>149.0</ele><time>2026-04-04T10:30:11Z</time></trkpt><trkpt lat="14.299590029458557" lon="120.96228185961115"><ele>149.0</ele><time>2026-04-04T10:30:12Z</time></trkpt><trkpt lat="14.299615859980111" lon="120.96238420972287"><ele>149.0</ele><time>2026-04-04T10:30:13Z</time></trkpt><trkpt lat="14.29962717582594" lon="120.96248411557646"><ele>149.0</ele><time>2026-04-04T10:30:14Z</time></trkpt><trkpt lat="14.299647091910382" lon="120.96258148694311"><ele>149.0</ele><time>2026-04-04T10:30:15Z</time></trkpt><trkpt lat="14.299655970211743" lon="120.96266904786542"><ele>149.2</ele><time>2026-04-04T10:30:16Z</time></trkpt><trkpt lat="14.299669879690061" lon="120.96276378535532"><ele>149.4</ele><time>2026-04-04T10:30:17Z</time></trkpt><trkpt lat="14.299677076644" lon="120.96285636954524"><ele>149.6</ele><time>2026-04-04T10:30:18Z</time></trkpt><trkpt lat="14.299689130962067" lon="120.96295089234125"><ele>149.8</ele><time>2026-04-04T10:30:19Z</time></trkpt><trkpt lat="14.299703221285336" lon="120.9630430651596"><ele>150.0</ele><time>2026-04-04T10:30:20Z</time></trkpt><trkpt lat="14.299710875928634" lon="120.9631392063819"><ele>150.0</ele><time>2026-04-04T10:30:21Z</time></trkpt><trkpt lat="14.29972250891048" lon="120.96323679750935"><ele>150.0</ele><time>2026-04-04T10:30:22Z</time></trkpt><trkpt lat="14.299739201727123" lon="120.96333810579839"><ele>150.0</ele><time>2026-04-04T10:30:23Z</time></trkpt><trkpt lat="14.299754060173855" lon="120.96343960384444"><ele>150.0</ele><time>2026-04-04T10:30:24Z</time></trkpt><trkpt lat="14.299766470072752" lon="120.96353187592669"><ele>150.0</ele><time>2026-04-04T10:30:25Z</time></trkpt><trkpt lat="14.29978525734597" lon="120.96362757086868"><ele>148.6</ele><time>2026-04-04T10:30:26Z</time></trkpt><trkpt lat="14.299800928353877" lon="120.96372456682444"><ele>147.2</ele><time>2026-04-04T10:30:27Z</time></trkpt><trkpt lat="14.29982038097343" lon="120.96382711148745"><ele>145.8</ele><time>2026-04-04T10:30:28Z</time></trkpt><trkpt lat="14.29983308430571" lon="120.9639162451651"><ele>144.4</ele><time>2026-04-04T10:30:29Z</time></trkpt><trkpt lat="14.29985515119204" lon="120.96401066957891"><ele>143.0</ele><time>2026-04-04T10:30:30Z</time></trkpt><trkpt lat="14.29986974668435" lon="120.96410995241501"><ele>143.4</ele><time>2026-04-04T10:30:31Z</time></trkpt><trkpt lat="14.29986354695544" lon="120.96420517760929"><ele>143.8</ele><time>2026-04-04T10:30:32Z</time></trkpt><trkpt lat="14.299847781084663" lon="120.96431392479522"><ele>144.2</ele><time>2026-04-04T10:30:33Z</time></trkpt><trkpt lat="14.299815550326505" lon="120.96441831564707"><ele>144.6</ele><time>2026-04-04T10:30:34Z</time></trkpt><trkpt lat="14.29976955772822" lon="120.96451293916017"><ele>145.0</ele><time>2026-04-04T10:30:35Z</time></trkpt><trkpt lat="14.299706955157673" lon="120.96460536136678"><ele>145.4</ele><time>2026-04-04T10:30:36Z</time></trkpt><trkpt lat="14.299637966011074" lon="120.9646816110934"><ele>145.8</ele><time>2026-04-04T10:30:37Z</time></trkpt><trkpt lat="14.299547023257023" lon="120.96475132337983"><ele>146.2</ele><time>2026-04-04T10:30:38Z</time></trkpt><trkpt lat="14.299447770031508" lon="120.96480916237692"><ele>146.6</ele><time>2026-04-04T10:30:39Z</time></trkpt><trkpt lat="14.299358263135442" lon="120.96485785895078"><ele>147.0</ele><time>2026-04-04T10:30:40Z</time></trkpt><trkpt lat="14.29926893307144" lon="120.96491327211133"><ele>147.0</ele><time>2026-04-04T10:30:41Z</time></trkpt><trkpt lat="14.299176095056765" lon="120.96497546322371"><ele>147.0</ele><time>2026-04-04T10:30:42Z</time></trkpt><trkpt lat="14.29907818083438" lon="120.96503757421243"><ele>147.0</ele><time>2026-04-04T10:30:43Z</time></trkpt><trkpt lat="14.29901937323013" lon="120.96507066066576"><ele>147.0</ele><time>2026-04-04T10:30:44Z</time></trkpt><trkpt lat="14.298935311783541" lon="120.96512154082183"><ele>147.0</ele><time>2026-04-04T10:30:45Z</time></trkpt><trkpt lat="14.298846648282257" lon="120.96517196145697"><ele>148.4</ele><time>2026-04-04T10:30:46Z</time></trkpt><trkpt lat="14.298753366929072" lon="120.96522489314985"><ele>149.79999999999998</ele><time>2026-04-04T10:30:47Z</time></trkpt><trkpt lat="14.298654020418034" lon="120.96528310804459"><ele>151.2</ele><time>2026-04-04T10:30:48Z</time></trkpt><trkpt lat="14.298555158896106" lon="120.96534131999096"><ele>152.6</ele><time>2026-04-04T10:30:49Z</time></trkpt><trkpt lat="14.298457481609793" lon="120.96539846861693"><ele>154.0</ele><time>2026-04-04T10:30:50Z</time></trkpt><trkpt lat="14.298357715971223" lon="120.96545805178818"><ele>154.0</ele><time>2026-04-04T10:30:51Z</time></trkpt><trkpt lat="14.298259303986576" lon="120.96551708348734"><ele>154.0</ele><time>2026-04-04T10:30:52Z</time></trkpt><trkpt lat="14.298151466663361" lon="120.96557439397554"><ele>154.0</ele><time>2026-04-04T10:30:53Z</time></trkpt><trkpt lat="14.298042555063557" lon="120.96563481137682"><ele>154.0</ele><time>2026-04-04T10:30:54Z</time></trkpt><trkpt lat="14.297933032206917" lon="120.96569851250975"><ele>154.0</ele><time>2026-04-04T10:30:55Z</time></trkpt><trkpt lat="14.297827102744343" lon="120.96576016471114"><ele>154.0</ele><time>2026-04-04T10:30:56Z</time></trkpt><trkpt lat="14.297720413853744" lon="120.96582446118258"><ele>154.0</ele><time>2026-04-04T10:30:57Z</time></trkpt><trkpt lat="14.29761903527467" lon="120.96588605578799"><ele>154.0</ele><time>2026-04-04T10:30:58Z</time></trkpt><trkpt lat="14.297515361954508" lon="120.96594513954501"><ele>154.0</ele><time>2026-04-04T10:30:59Z</time></trkpt><trkpt lat="14.29741064842699" lon="120.96600962281886"><ele>154.0</ele><time>2026-04-04T10:31:00Z</time></trkpt><trkpt lat="14.297302148698673" lon="120.96607453688257"><ele>154.0</ele><time>2026-04-04T10:31:01Z</time></trkpt><trkpt lat="14.297191205570968" lon="120.96614236075816"><ele>154.0</ele><time>2026-04-04T10:31:02Z</time></trkpt><trkpt lat="14.297074665171465" lon="120.96621075589718"><ele>155.0</ele><time>2026-04-04T10:31:03Z</time></trkpt><trkpt lat="14.296956527132673" lon="120.966276033671"><ele>156.0</ele><time>2026-04-04T10:31:04Z</time></trkpt><trkpt lat="14.296843978305146" lon="120.96633863987682"><ele>157.0</ele><time>2026-04-04T10:31:05Z</time></trkpt><trkpt lat="14.29673162698671" lon="120.96640035990777"><ele>158.0</ele><time>2026-04-04T10:31:06Z</time></trkpt><trkpt lat="14.296616945878043" lon="120.96647306088511"><ele>158.0</ele><time>2026-04-04T10:31:07Z</time></trkpt><trkpt lat="14.296511485453733" lon="120.96653227516552"><ele>158.0</ele><time>2026-04-04T10:31:08Z</time></trkpt><trkpt lat="14.296403775337456" lon="120.96659002615013"><ele>158.0</ele><time>2026-04-04T10:31:09Z</time></trkpt><trkpt lat="14.296299687691759" lon="120.96665719370232"><ele>158.0</ele><time>2026-04-04T10:31:10Z</time></trkpt><trkpt lat="14.296192807605085" lon="120.96672118164064"><ele>158.25</ele><time>2026-04-04T10:31:11Z</time></trkpt><trkpt lat="14.296083563550944" lon="120.96678857958007"><ele>158.5</ele><time>2026-04-04T10:31:12Z</time></trkpt><trkpt lat="14.295973042802741" lon="120.9668496468316"><ele>158.75</ele><time>2026-04-04T10:31:13Z</time></trkpt><trkpt lat="14.295864153629108" lon="120.96691913151228"><ele>159.0</ele><time>2026-04-04T10:31:14Z</time></trkpt><trkpt lat="14.295757739542708" lon="120.9669779467201"><ele>159.0</ele><time>2026-04-04T10:31:15Z</time></trkpt><trkpt lat="14.29564558109944" lon="120.96704700286577"><ele>159.0</ele><time>2026-04-04T10:31:16Z</time></trkpt><trkpt lat="14.295531005448797" lon="120.96711105748889"><ele>159.0</ele><time>2026-04-04T10:31:17Z</time></trkpt><trkpt lat="14.295417321474384" lon="120.96717717375532"><ele>159.0</ele><time>2026-04-04T10:31:18Z</time></trkpt><trkpt lat="14.295300114122922" lon="120.9672461140462"><ele>159.5</ele><time>2026-04-04T10:31:19Z</time></trkpt><trkpt lat="14.295180221669758" lon="120.96731846983168"><ele>160.0</ele><time>2026-04-04T10:31:20Z</time></trkpt><trkpt lat="14.29505650542492" lon="120.96738717216068"><ele>160.5</ele><time>2026-04-04T10:31:21Z</time></trkpt><trkpt lat="14.29493354798778" lon="120.967457347428"><ele>161.0</ele><time>2026-04-04T10:31:22Z</time></trkpt><trkpt lat="14.294807828282645" lon="120.96753037931965"><ele>160.75</ele><time>2026-04-04T10:31:23Z</time></trkpt><trkpt lat="14.294683801471304" lon="120.96760180650897"><ele>160.5</ele><time>2026-04-04T10:31:24Z</time></trkpt><trkpt lat="14.294563181804632" lon="120.96767473720443"><ele>160.25</ele><time>2026-04-04T10:31:25Z</time></trkpt><trkpt lat="14.294437287101335" lon="120.9677454741273"><ele>160.0</ele><time>2026-04-04T10:31:26Z</time></trkpt><trkpt lat="14.29431229350261" lon="120.96781889955128"><ele>160.0</ele><time>2026-04-04T10:31:27Z</time></trkpt><trkpt lat="14.29418926021487" lon="120.96788633667938"><ele>160.0</ele><time>2026-04-04T10:31:28Z</time></trkpt><trkpt lat="14.294064570013699" lon="120.96797061527249"><ele>160.0</ele><time>2026-04-04T10:31:29Z</time></trkpt><trkpt lat="14.293928210729915" lon="120.96803357314235"><ele>160.0</ele><time>2026-04-04T10:31:30Z</time></trkpt><trkpt lat="14.293839335340781" lon="120.96808909351384"><ele>160.4</ele><time>2026-04-04T10:31:31Z</time></trkpt><trkpt lat="14.293739496255002" lon="120.96814730433196"><ele>160.8</ele><time>2026-04-04T10:31:32Z</time></trkpt><trkpt lat="14.293653275783821" lon="120.96820924741988"><ele>161.2</ele><time>2026-04-04T10:31:33Z</time></trkpt><trkpt lat="14.293579563307144" lon="120.96827310902168"><ele>161.6</ele><time>2026-04-04T10:31:34Z</time></trkpt><trkpt lat="14.293512624498478" lon="120.96835228932433"><ele>162.0</ele><time>2026-04-04T10:31:35Z</time></trkpt><trkpt lat="14.293455988255033" lon="120.96843330132732"><ele>162.2</ele><time>2026-04-04T10:31:36Z</time></trkpt><trkpt lat="14.293403848280263" lon="120.9685183123524"><ele>162.39999999999998</ele><time>2026-04-04T10:31:37Z</time></trkpt><trkpt lat="14.293357837739341" lon="120.96860767856067"><ele>162.60000000000002</ele><time>2026-04-04T10:31:38Z</time></trkpt><trkpt lat="14.293320438686399" lon="120.96871356128524"><ele>162.8</ele><time>2026-04-04T10:31:39Z</time></trkpt><trkpt lat="14.293289395759668" lon="120.96882594629226"><ele>163.0</ele><time>2026-04-04T10:31:40Z</time></trkpt><trkpt lat="14.293274430216893" lon="120.96894355310744"><ele>163.0</ele><time>2026-04-04T10:31:41Z</time></trkpt><trkpt lat="14.293268357300287" lon="120.9690658243685"><ele>163.0</ele><time>2026-04-04T10:31:42Z</time></trkpt><trkpt lat="14.293275205612746" lon="120.96919104420418"><ele>163.0</ele><time>2026-04-04T10:31:43Z</time></trkpt><trkpt lat="14.293282116148083" lon="120.96931609541059"><ele>163.0</ele><time>2026-04-04T10:31:44Z</time></trkpt><trkpt lat="14.29328877551377" lon="120.96943260733661"><ele>162.8</ele><time>2026-04-04T10:31:45Z</time></trkpt><trkpt lat="14.293293354090808" lon="120.9695443764772"><ele>162.60000000000002</ele><time>2026-04-04T10:31:46Z</time></trkpt><trkpt lat="14.293301740326402" lon="120.96965520002053"><ele>162.39999999999998</ele><time>2026-04-04T10:31:47Z</time></trkpt><trkpt lat="14.293309218060774" lon="120.96975797740464"><ele>162.2</ele><time>2026-04-04T10:31:48Z</time></trkpt><trkpt lat="14.293315756353715" lon="120.96985158002947"><ele>162.0</ele><time>2026-04-04T10:31:49Z</time></trkpt><trkpt lat="14.293321389369884" lon="120.96993678878012"><ele>162.0</ele><time>2026-04-04T10:31:50Z</time></trkpt><trkpt lat="14.29332600627241" lon="120.97001294288373"><ele>162.0</ele><time>2026-04-04T10:31:51Z</time></trkpt><trkpt lat="14.293330654309019" lon="120.97007877359437"><ele>162.0</ele><time>2026-04-04T10:31:52Z</time></trkpt><trkpt lat="14.29334122380354" lon="120.97015169170909"><ele>162.0</ele><time>2026-04-04T10:31:54Z</time></trkpt><trkpt lat="14.293358223460089" lon="120.97024102202073"><ele>162.0</ele><time>2026-04-04T10:32:00Z</time></trkpt><trkpt lat="14.293362440996535" lon="120.97033764563173"><ele>162.0</ele><time>2026-04-04T10:32:02Z</time></trkpt><trkpt lat="14.293372266270318" lon="120.97046837498218"><ele>161.83333333333334</ele><time>2026-04-04T10:32:04Z</time></trkpt><trkpt lat="14.29337551899005" lon="120.97055088651567"><ele>161.66666666666666</ele><time>2026-04-04T10:32:05Z</time></trkpt><trkpt lat="14.2933813691683" lon="120.97063425356913"><ele>161.5</ele><time>2026-04-04T10:32:06Z</time></trkpt><trkpt lat="14.293381921317048" lon="120.97071784580493"><ele>161.33333333333331</ele><time>2026-04-04T10:32:07Z</time></trkpt><trkpt lat="14.293393258388434" lon="120.97081239481756"><ele>161.16666666666666</ele><time>2026-04-04T10:32:08Z</time></trkpt><trkpt lat="14.293400739783497" lon="120.9709093414352"><ele>161.0</ele><time>2026-04-04T10:32:09Z</time></trkpt><trkpt lat="14.293404987873078" lon="120.97100567435007"><ele>161.0</ele><time>2026-04-04T10:32:10Z</time></trkpt><trkpt lat="14.293409078243068" lon="120.97109638158824"><ele>161.0</ele><time>2026-04-04T10:32:11Z</time></trkpt><trkpt lat="14.293419553164082" lon="120.97119520554816"><ele>161.0</ele><time>2026-04-04T10:32:12Z</time></trkpt><trkpt lat="14.29342853184816" lon="120.97129636640328"><ele>161.0</ele><time>2026-04-04T10:32:13Z</time></trkpt><trkpt lat="14.29343351062972" lon="120.97139339100579"><ele>161.0</ele><time>2026-04-04T10:32:14Z</time></trkpt><trkpt lat="14.293441154519124" lon="120.97148321684533"><ele>161.0</ele><time>2026-04-04T10:32:15Z</time></trkpt><trkpt lat="14.293435198292284" lon="120.97157592542197"><ele>161.0</ele><time>2026-04-04T10:32:16Z</time></trkpt><trkpt lat="14.293424955972416" lon="120.97166960598584"><ele>161.0</ele><time>2026-04-04T10:32:17Z</time></trkpt><trkpt lat="14.293392041957084" lon="120.97175416506958"><ele>161.0</ele><time>2026-04-04T10:32:18Z</time></trkpt><trkpt lat="14.293358707131418" lon="120.97184361528056"><ele>161.0</ele><time>2026-04-04T10:32:19Z</time></trkpt><trkpt lat="14.293312413656317" lon="120.97194977380397"><ele>160.60000000000002</ele><time>2026-04-04T10:32:20Z</time></trkpt><trkpt lat="14.29324444906608" lon="120.97205056763238"><ele>160.20000000000002</ele><time>2026-04-04T10:32:21Z</time></trkpt><trkpt lat="14.293183999185471" lon="120.97210773159755"><ele>159.8</ele><time>2026-04-04T10:32:22Z</time></trkpt><trkpt lat="14.293095164524207" lon="120.97216593457321"><ele>159.4</ele><time>2026-04-04T10:32:23Z</time></trkpt><trkpt lat="14.293001212196012" lon="120.97222135519112"><ele>159.0</ele><time>2026-04-04T10:32:24Z</time></trkpt><trkpt lat="14.292905471891316" lon="120.97227357804412"><ele>159.0</ele><time>2026-04-04T10:32:25Z</time></trkpt><trkpt lat="14.292820871928914" lon="120.97232263585542"><ele>159.0</ele><time>2026-04-04T10:32:26Z</time></trkpt><trkpt lat="14.292733759353682" lon="120.97237486051226"><ele>159.0</ele><time>2026-04-04T10:32:27Z</time></trkpt><trkpt lat="14.292641185539814" lon="120.97243694221613"><ele>159.0</ele><time>2026-04-04T10:32:28Z</time></trkpt><trkpt lat="14.292541378802957" lon="120.97249897131195"><ele>159.0</ele><time>2026-04-04T10:32:29Z</time></trkpt><trkpt lat="14.292444716790165" lon="120.97256758911178"><ele>160.25</ele><time>2026-04-04T10:32:30Z</time></trkpt><trkpt lat="14.292344570079807" lon="120.97263496687943"><ele>161.5</ele><time>2026-04-04T10:32:31Z</time></trkpt><trkpt lat="14.292244215110587" lon="120.97270152800803"><ele>162.75</ele><time>2026-04-04T10:32:32Z</time></trkpt><trkpt lat="14.292144260015618" lon="120.97276780242545"><ele>164.0</ele><time>2026-04-04T10:32:33Z</time></trkpt><trkpt lat="14.29204008924912" lon="120.97283633868513"><ele>165.75</ele><time>2026-04-04T10:32:34Z</time></trkpt><trkpt lat="14.291936997793739" lon="120.97290512198292"><ele>167.5</ele><time>2026-04-04T10:32:35Z</time></trkpt><trkpt lat="14.291832479899568" lon="120.97297794759098"><ele>169.25</ele><time>2026-04-04T10:32:36Z</time></trkpt><trkpt lat="14.291724425834278" lon="120.97305457646627"><ele>171.0</ele><time>2026-04-04T10:32:37Z</time></trkpt><trkpt lat="14.291612640036298" lon="120.9731288245239"><ele>171.0</ele><time>2026-04-04T10:32:38Z</time></trkpt><trkpt lat="14.291507797587728" lon="120.97320956604909"><ele>171.0</ele><time>2026-04-04T10:32:39Z</time></trkpt><trkpt lat="14.291418408720764" lon="120.973292651054"><ele>171.0</ele><time>2026-04-04T10:32:40Z</time></trkpt><trkpt lat="14.291340010461134" lon="120.9733738588095"><ele>171.0</ele><time>2026-04-04T10:32:41Z</time></trkpt><trkpt lat="14.291266767637719" lon="120.97345944838213"><ele>171.4</ele><time>2026-04-04T10:32:42Z</time></trkpt><trkpt lat="14.291201713124277" lon="120.9735451340283"><ele>171.8</ele><time>2026-04-04T10:32:43Z</time></trkpt><trkpt lat="14.291138083934607" lon="120.97364131065775"><ele>172.20000000000002</ele><time>2026-04-04T10:32:44Z</time></trkpt><trkpt lat="14.291090507413838" lon="120.9737436211395"><ele>172.60000000000002</ele><time>2026-04-04T10:32:45Z</time></trkpt><trkpt lat="14.291036222474336" lon="120.97385173209196"><ele>173.0</ele><time>2026-04-04T10:32:46Z</time></trkpt><trkpt lat="14.290981092487735" lon="120.97396644967314"><ele>173.0</ele><time>2026-04-04T10:32:47Z</time></trkpt><trkpt lat="14.29092171662232" lon="120.97408836503298"><ele>173.0</ele><time>2026-04-04T10:32:48Z</time></trkpt><trkpt lat="14.290863720069401" lon="120.97421446223946"><ele>173.0</ele><time>2026-04-04T10:32:49Z</time></trkpt><trkpt lat="14.290806976031098" lon="120.9743423025119"><ele>173.0</ele><time>2026-04-04T10:32:50Z</time></trkpt><trkpt lat="14.290757207546687" lon="120.97448128052189"><ele>173.5</ele><time>2026-04-04T10:32:51Z</time></trkpt><trkpt lat="14.290707742564496" lon="120.97463063658033"><ele>174.0</ele><time>2026-04-04T10:32:52Z</time></trkpt><trkpt lat="14.290676204108506" lon="120.9747714570013"><ele>174.5</ele><time>2026-04-04T10:32:53Z</time></trkpt><trkpt lat="14.290646978629429" lon="120.97489924717522"><ele>175.0</ele><time>2026-04-04T10:32:54Z</time></trkpt><trkpt lat="14.29062048860436" lon="120.97501501909365"><ele>175.0</ele><time>2026-04-04T10:32:55Z</time></trkpt><trkpt lat="14.290598225981583" lon="120.97512574242117"><ele>175.0</ele><time>2026-04-04T10:32:56Z</time></trkpt><trkpt lat="14.290583538967853" lon="120.97523833159129"><ele>175.0</ele><time>2026-04-04T10:32:57Z</time></trkpt><trkpt lat="14.29057229010263" lon="120.97534652867417"><ele>175.0</ele><time>2026-04-04T10:32:58Z</time></trkpt><trkpt lat="14.290564211467252" lon="120.97544765121587"><ele>175.0</ele><time>2026-04-04T10:32:59Z</time></trkpt><trkpt lat="14.290562084067435" lon="120.97557178577351"><ele>175.0</ele><time>2026-04-04T10:33:00Z</time></trkpt><trkpt lat="14.29056271460134" lon="120.97569026091676"><ele>175.0</ele><time>2026-04-04T10:33:01Z</time></trkpt><trkpt lat="14.29056278812921" lon="120.97580814790525"><ele>175.0</ele><time>2026-04-04T10:33:02Z</time></trkpt><trkpt lat="14.290571856143366" lon="120.97593811422576"><ele>175.0</ele><time>2026-04-04T10:33:03Z</time></trkpt><trkpt lat="14.290569199929921" lon="120.97604293106654"><ele>176.0</ele><time>2026-04-04T10:33:04Z</time></trkpt><trkpt lat="14.290570654678854" lon="120.97615091403081"><ele>177.0</ele><time>2026-04-04T10:33:05Z</time></trkpt><trkpt lat="14.290566837092609" lon="120.97626024567627"><ele>178.0</ele><time>2026-04-04T10:33:06Z</time></trkpt><trkpt lat="14.290563882903646" lon="120.97636983585122"><ele>179.0</ele><time>2026-04-04T10:33:07Z</time></trkpt><trkpt lat="14.290560952895119" lon="120.97647464760125"><ele>180.0</ele><time>2026-04-04T10:33:08Z</time></trkpt><trkpt lat="14.290559201002825" lon="120.97657676436755"><ele>180.4</ele><time>2026-04-04T10:33:09Z</time></trkpt><trkpt lat="14.290551962991005" lon="120.97668701133622"><ele>180.8</ele><time>2026-04-04T10:33:10Z</time></trkpt><trkpt lat="14.290544290459716" lon="120.97680240726008"><ele>181.2</ele><time>2026-04-04T10:33:11Z</time></trkpt><trkpt lat="14.290540160776326" lon="120.97690420906397"><ele>181.6</ele><time>2026-04-04T10:33:12Z</time></trkpt><trkpt lat="14.29053970725367" lon="120.97700056366584"><ele>182.0</ele><time>2026-04-04T10:33:13Z</time></trkpt><trkpt lat="14.290540503179336" lon="120.97710361928782"><ele>182.0</ele><time>2026-04-04T10:33:14Z</time></trkpt><trkpt lat="14.29053578109268" lon="120.9771956630749"><ele>182.0</ele><time>2026-04-04T10:33:15Z</time></trkpt><trkpt lat="14.290540128532962" lon="120.97729057762733"><ele>182.0</ele><time>2026-04-04T10:33:16Z</time></trkpt><trkpt lat="14.290539082220883" lon="120.97738084857136"><ele>182.0</ele><time>2026-04-04T10:33:17Z</time></trkpt><trkpt lat="14.290537906538555" lon="120.97746076909355"><ele>182.0</ele><time>2026-04-04T10:33:18Z</time></trkpt><trkpt lat="14.290539035919224" lon="120.97754032897133"><ele>182.0</ele><time>2026-04-04T10:33:19Z</time></trkpt><trkpt lat="14.290536283291898" lon="120.9776341614283"><ele>181.8</ele><time>2026-04-04T10:33:20Z</time></trkpt><trkpt lat="14.29053621483951" lon="120.97771719294676"><ele>181.6</ele><time>2026-04-04T10:33:21Z</time></trkpt><trkpt lat="14.290539403063036" lon="120.97781199399496"><ele>181.4</ele><time>2026-04-04T10:33:22Z</time></trkpt><trkpt lat="14.290539529419501" lon="120.97791574782757"><ele>181.20000000000002</ele><time>2026-04-04T10:33:23Z</time></trkpt><trkpt lat="14.29053663807294" lon="120.97801235607557"><ele>181.0</ele><time>2026-04-04T10:33:24Z</time></trkpt><trkpt lat="14.29053521419044" lon="120.97811219650494"><ele>181.0</ele><time>2026-04-04T10:33:25Z</time></trkpt><trkpt lat="14.29053511856729" lon="120.97821566525685"><ele>181.0</ele><time>2026-04-04T10:33:26Z</time></trkpt><trkpt lat="14.290533895415374" lon="120.97830886139498"><ele>181.0</ele><time>2026-04-04T10:33:27Z</time></trkpt><trkpt lat="14.290537266286147" lon="120.97839101472096"><ele>181.0</ele><time>2026-04-04T10:33:28Z</time></trkpt><trkpt lat="14.290538692559686" lon="120.97846813047593"><ele>181.0</ele><time>2026-04-04T10:33:29Z</time></trkpt><trkpt lat="14.290537034581675" lon="120.97854984207429"><ele>181.0</ele><time>2026-04-04T10:33:30Z</time></trkpt><trkpt lat="14.290535562082242" lon="120.97862177066614"><ele>180.16666666666669</ele><time>2026-04-04T10:33:31Z</time></trkpt><trkpt lat="14.290531217742565" lon="120.97870691435632"><ele>179.33333333333334</ele><time>2026-04-04T10:33:32Z</time></trkpt><trkpt lat="14.290535484625398" lon="120.97878129050073"><ele>178.5</ele><time>2026-04-04T10:33:33Z</time></trkpt><trkpt lat="14.290529090670006" lon="120.97887020035832"><ele>177.66666666666666</ele><time>2026-04-04T10:33:34Z</time></trkpt><trkpt lat="14.29052621737167" lon="120.97900005095002"><ele>176.83333333333331</ele><time>2026-04-04T10:33:36Z</time></trkpt><trkpt lat="14.290526161373927" lon="120.97906659638751"><ele>176.0</ele><time>2026-04-04T10:33:37Z</time></trkpt><trkpt lat="14.290527146904008" lon="120.9791852340883"><ele>175.4</ele><time>2026-04-04T10:33:39Z</time></trkpt><trkpt lat="14.290524238271729" lon="120.97929106037631"><ele>174.8</ele><time>2026-04-04T10:33:41Z</time></trkpt><trkpt lat="14.290512495859518" lon="120.97939885545648"><ele>174.20000000000002</ele><time>2026-04-04T10:33:43Z</time></trkpt><trkpt lat="14.290504850818966" lon="120.9795059419016"><ele>173.60000000000002</ele><time>2026-04-04T10:33:45Z</time></trkpt><trkpt lat="14.29049847305591" lon="120.97957500564877"><ele>173.0</ele><time>2026-04-04T10:33:46Z</time></trkpt><trkpt lat="14.290489752658077" lon="120.97965174823905"><ele>173.0</ele><time>2026-04-04T10:33:47Z</time></trkpt><trkpt lat="14.290479741865774" lon="120.97973627401957"><ele>173.0</ele><time>2026-04-04T10:33:48Z</time></trkpt><trkpt lat="14.29047250749448" lon="120.97982573918439"><ele>173.0</ele><time>2026-04-04T10:33:49Z</time></trkpt><trkpt lat="14.29046110045108" lon="120.97992979214564"><ele>173.0</ele><time>2026-04-04T10:33:50Z</time></trkpt><trkpt lat="14.29045401673688" lon="120.9800064867571"><ele>173.0</ele><time>2026-04-04T10:33:51Z</time></trkpt><trkpt lat="14.29043809882844" lon="120.98014624062293"><ele>171.60000000000002</ele><time>2026-04-04T10:33:53Z</time></trkpt><trkpt lat="14.2904397504218" lon="120.98028087468631"><ele>170.20000000000002</ele><time>2026-04-04T10:33:55Z</time></trkpt><trkpt lat="14.290442088622216" lon="120.98037115827796"><ele>168.8</ele><time>2026-04-04T10:33:56Z</time></trkpt><trkpt lat="14.290445091291463" lon="120.9804669276234"><ele>167.4</ele><time>2026-04-04T10:33:57Z</time></trkpt><trkpt lat="14.290447455195892" lon="120.98056804816885"><ele>166.0</ele><time>2026-04-04T10:33:58Z</time></trkpt><trkpt lat="14.290447514302407" lon="120.9806792423204"><ele>166.0</ele><time>2026-04-04T10:33:59Z</time></trkpt><trkpt lat="14.290446280688007" lon="120.98078770294211"><ele>166.0</ele><time>2026-04-04T10:34:00Z</time></trkpt><trkpt lat="14.290441039669114" lon="120.98089851862264"><ele>166.0</ele><time>2026-04-04T10:34:01Z</time></trkpt><trkpt lat="14.29044057496927" lon="120.98101571294553"><ele>166.0</ele><time>2026-04-04T10:34:02Z</time></trkpt><trkpt lat="14.290439911971346" lon="120.9811375556869"><ele>166.0</ele><time>2026-04-04T10:34:03Z</time></trkpt><trkpt lat="14.290433389553723" lon="120.9812558204349"><ele>167.20000000000002</ele><time>2026-04-04T10:34:04Z</time></trkpt><trkpt lat="14.290414591336038" lon="120.98136641018594"><ele>168.4</ele><time>2026-04-04T10:34:05Z</time></trkpt><trkpt lat="14.290415158130786" lon="120.98147234666679"><ele>169.6</ele><time>2026-04-04T10:34:06Z</time></trkpt><trkpt lat="14.290381437647483" lon="120.98156898110662"><ele>170.8</ele><time>2026-04-04T10:34:07Z</time></trkpt><trkpt lat="14.290341570222955" lon="120.98165585974351"><ele>172.0</ele><time>2026-04-04T10:34:08Z</time></trkpt><trkpt lat="14.290309069658287" lon="120.98173820935389"><ele>172.8</ele><time>2026-04-04T10:34:09Z</time></trkpt><trkpt lat="14.290272966965649" lon="120.98182511113374"><ele>173.6</ele><time>2026-04-04T10:34:10Z</time></trkpt><trkpt lat="14.290238843356248" lon="120.98191072686858"><ele>174.4</ele><time>2026-04-04T10:34:11Z</time></trkpt><trkpt lat="14.290201978214338" lon="120.98199484917131"><ele>175.20000000000002</ele><time>2026-04-04T10:34:12Z</time></trkpt><trkpt lat="14.290167422736097" lon="120.98208669431907"><ele>176.0</ele><time>2026-04-04T10:34:13Z</time></trkpt><trkpt lat="14.290126920150621" lon="120.9821870031531"><ele>176.0</ele><time>2026-04-04T10:34:14Z</time></trkpt><trkpt lat="14.290084515222974" lon="120.98228653350307"><ele>176.0</ele><time>2026-04-04T10:34:15Z</time></trkpt><trkpt lat="14.290041848499547" lon="120.9823850095834"><ele>176.0</ele><time>2026-04-04T10:34:16Z</time></trkpt><trkpt lat="14.28999484391374" lon="120.98249164565384"><ele>176.0</ele><time>2026-04-04T10:34:17Z</time></trkpt><trkpt lat="14.289950595122656" lon="120.98260202822973"><ele>176.0</ele><time>2026-04-04T10:34:18Z</time></trkpt><trkpt lat="14.289906543697578" lon="120.98271641623077"><ele>175.5</ele><time>2026-04-04T10:34:19Z</time></trkpt><trkpt lat="14.289861758379002" lon="120.98282473079615"><ele>175.0</ele><time>2026-04-04T10:34:20Z</time></trkpt><trkpt lat="14.289814733464961" lon="120.98293189479944"><ele>174.5</ele><time>2026-04-04T10:34:21Z</time></trkpt><trkpt lat="14.289770749457615" lon="120.98303991738351"><ele>174.0</ele><time>2026-04-04T10:34:22Z</time></trkpt><trkpt lat="14.289727652930592" lon="120.98314784661214"><ele>175.0</ele><time>2026-04-04T10:34:23Z</time></trkpt><trkpt lat="14.289687201235463" lon="120.98325540855296"><ele>176.0</ele><time>2026-04-04T10:34:24Z</time></trkpt><trkpt lat="14.289643790637784" lon="120.98336248977667"><ele>177.0</ele><time>2026-04-04T10:34:25Z</time></trkpt><trkpt lat="14.289570766233354" lon="120.98348184926894"><ele>178.0</ele><time>2026-04-04T10:34:26Z</time></trkpt><trkpt lat="14.289529807352706" lon="120.98358444791053"><ele>179.0</ele><time>2026-04-04T10:34:27Z</time></trkpt><trkpt lat="14.289489017079937" lon="120.9836793410291"><ele>180.0</ele><time>2026-04-04T10:34:28Z</time></trkpt><trkpt lat="14.289449665793162" lon="120.98378034600543"><ele>181.0</ele><time>2026-04-04T10:34:29Z</time></trkpt><trkpt lat="14.289408662113424" lon="120.98387492791366"><ele>182.0</ele><time>2026-04-04T10:34:30Z</time></trkpt><trkpt lat="14.289365418785014" lon="120.98397479484896"><ele>183.0</ele><time>2026-04-04T10:34:31Z</time></trkpt><trkpt lat="14.289323305719718" lon="120.98407743164803"><ele>183.25</ele><time>2026-04-04T10:34:32Z</time></trkpt><trkpt lat="14.289278104361012" lon="120.98418290046402"><ele>183.5</ele><time>2026-04-04T10:34:33Z</time></trkpt><trkpt lat="14.289229988634476" lon="120.9842904496528"><ele>183.75</ele><time>2026-04-04T10:34:34Z</time></trkpt><trkpt lat="14.289182501332315" lon="120.98440169612829"><ele>184.0</ele><time>2026-04-04T10:34:35Z</time></trkpt><trkpt lat="14.289132034787377" lon="120.98451459507936"><ele>184.0</ele><time>2026-04-04T10:34:36Z</time></trkpt><trkpt lat="14.289086864216085" lon="120.98461991833193"><ele>184.0</ele><time>2026-04-04T10:34:37Z</time></trkpt><trkpt lat="14.289044542830965" lon="120.98472735407458"><ele>184.0</ele><time>2026-04-04T10:34:38Z</time></trkpt><trkpt lat="14.288999300930527" lon="120.98483254474375"><ele>184.0</ele><time>2026-04-04T10:34:39Z</time></trkpt><trkpt lat="14.288958035809989" lon="120.9849371620385"><ele>184.0</ele><time>2026-04-04T10:34:40Z</time></trkpt><trkpt lat="14.288920396543002" lon="120.98502654222654"><ele>184.79999999999998</ele><time>2026-04-04T10:34:41Z</time></trkpt><trkpt lat="14.288883214680316" lon="120.98510728375102"><ele>185.6</ele><time>2026-04-04T10:34:42Z</time></trkpt><trkpt lat="14.2888487481094" lon="120.98519164028787"><ele>186.4</ele><time>2026-04-04T10:34:43Z</time></trkpt><trkpt lat="14.288811148421384" lon="120.98527894125611"><ele>187.2</ele><time>2026-04-04T10:34:44Z</time></trkpt><trkpt lat="14.288769948780178" lon="120.98537462772416"><ele>188.0</ele><time>2026-04-04T10:34:45Z</time></trkpt><trkpt lat="14.28872389212183" lon="120.98547818475583"><ele>188.0</ele><time>2026-04-04T10:34:46Z</time></trkpt><trkpt lat="14.288676722354476" lon="120.98558634516372"><ele>188.0</ele><time>2026-04-04T10:34:47Z</time></trkpt><trkpt lat="14.28863106960486" lon="120.98569768120215"><ele>188.0</ele><time>2026-04-04T10:34:48Z</time></trkpt><trkpt lat="14.288586367365903" lon="120.98581235695079"><ele>188.0</ele><time>2026-04-04T10:34:49Z</time></trkpt><trkpt lat="14.288544177188053" lon="120.98591716674837"><ele>188.2</ele><time>2026-04-04T10:34:50Z</time></trkpt><trkpt lat="14.28850705667712" lon="120.98601979583731"><ele>188.4</ele><time>2026-04-04T10:34:51Z</time></trkpt><trkpt lat="14.288474779583451" lon="120.98611505178052"><ele>188.6</ele><time>2026-04-04T10:34:52Z</time></trkpt><trkpt lat="14.288446525260177" lon="120.98618885678493"><ele>188.79999999999998</ele><time>2026-04-04T10:34:53Z</time></trkpt><trkpt lat="14.288409271275448" lon="120.9863002289818"><ele>189.0</ele><time>2026-04-04T10:34:55Z</time></trkpt><trkpt lat="14.288375677716502" lon="120.98639263598301"><ele>189.0</ele><time>2026-04-04T10:34:57Z</time></trkpt><trkpt lat="14.288346180874768" lon="120.98646214805241"><ele>189.0</ele><time>2026-04-04T10:34:59Z</time></trkpt><trkpt lat="14.288329235236876" lon="120.98653206811541"><ele>189.0</ele><time>2026-04-04T10:35:06Z</time></trkpt><trkpt lat="14.288293877061339" lon="120.98660605756369"><ele>189.0</ele><time>2026-04-04T10:35:09Z</time></trkpt><trkpt lat="14.28826476982973" lon="120.98667187303997"><ele>189.0</ele><time>2026-04-04T10:35:11Z</time></trkpt><trkpt lat="14.288234836477873" lon="120.98674035726678"><ele>189.0</ele><time>2026-04-04T10:35:13Z</time></trkpt><trkpt lat="14.288206145070836" lon="120.98681715015563"><ele>189.0</ele><time>2026-04-04T10:35:15Z</time></trkpt><trkpt lat="14.288174431068173" lon="120.98690238013167"><ele>188.5</ele><time>2026-04-04T10:35:17Z</time></trkpt><trkpt lat="14.288144550501713" lon="120.9869679388053"><ele>188.0</ele><time>2026-04-04T10:35:19Z</time></trkpt><trkpt lat="14.288101317412961" lon="120.98706200365898"><ele>187.5</ele><time>2026-04-04T10:35:21Z</time></trkpt><trkpt lat="14.288056293214872" lon="120.98714168138662"><ele>187.0</ele><time>2026-04-04T10:35:23Z</time></trkpt><trkpt lat="14.288009143859316" lon="120.98724001414436"><ele>186.5</ele><time>2026-04-04T10:35:25Z</time></trkpt><trkpt lat="14.287979319702233" lon="120.98730161956362"><ele>186.0</ele><time>2026-04-04T10:35:26Z</time></trkpt><trkpt lat="14.287955151172204" lon="120.9873652811753"><ele>186.0</ele><time>2026-04-04T10:35:27Z</time></trkpt><trkpt lat="14.287927266025198" lon="120.98742762508381"><ele>186.0</ele><time>2026-04-04T10:35:28Z</time></trkpt><trkpt lat="14.287901934546502" lon="120.98749039505353"><ele>186.0</ele><time>2026-04-04T10:35:29Z</time></trkpt><trkpt lat="14.287873296380907" lon="120.98755885006112"><ele>186.0</ele><time>2026-04-04T10:35:30Z</time></trkpt><trkpt lat="14.287841598980444" lon="120.98763751346895"><ele>186.0</ele><time>2026-04-04T10:35:31Z</time></trkpt><trkpt lat="14.287809793699203" lon="120.98771600415986"><ele>186.0</ele><time>2026-04-04T10:35:32Z</time></trkpt><trkpt lat="14.287779130023464" lon="120.98779436640841"><ele>186.0</ele><time>2026-04-04T10:35:33Z</time></trkpt><trkpt lat="14.287752779432386" lon="120.98785867812238"><ele>186.0</ele><time>2026-04-04T10:35:34Z</time></trkpt><trkpt lat="14.287710994160744" lon="120.98797270724255"><ele>186.0</ele><time>2026-04-04T10:35:36Z</time></trkpt><trkpt lat="14.28770475023742" lon="120.98806122429048"><ele>186.0</ele><time>2026-04-04T10:35:38Z</time></trkpt><trkpt lat="14.287816466877365" lon="120.98817164323067"><ele>186.0</ele><time>2026-04-04T10:35:42Z</time></trkpt><trkpt lat="14.287891281839212" lon="120.98819259759071"><ele>186.0</ele><time>2026-04-04T10:35:45Z</time></trkpt><trkpt lat="14.287958653089115" lon="120.98821237653257"><ele>186.0</ele><time>2026-04-04T10:35:46Z</time></trkpt><trkpt lat="14.288032134638778" lon="120.98823277023504"><ele>186.0</ele><time>2026-04-04T10:35:47Z</time></trkpt><trkpt lat="14.288123723674264" lon="120.98825527429862"><ele>186.0</ele><time>2026-04-04T10:35:48Z</time></trkpt><trkpt lat="14.288201548506935" lon="120.98827875029477"><ele>186.0</ele><time>2026-04-04T10:35:49Z</time></trkpt><trkpt lat="14.288303405350023" lon="120.98829357999071"><ele>186.0</ele><time>2026-04-04T10:35:50Z</time></trkpt><trkpt lat="14.288402982458917" lon="120.98831901578919"><ele>185.60000000000002</ele><time>2026-04-04T10:35:51Z</time></trkpt><trkpt lat="14.28850443667013" lon="120.98835014860849"><ele>185.2</ele><time>2026-04-04T10:35:52Z</time></trkpt><trkpt lat="14.288607053856227" lon="120.98837989757702"><ele>184.8</ele><time>2026-04-04T10:35:53Z</time></trkpt><trkpt lat="14.28870875427753" lon="120.988411804832"><ele>184.39999999999998</ele><time>2026-04-04T10:35:54Z</time></trkpt><trkpt lat="14.288806547003805" lon="120.98844123467381"><ele>184.0</ele><time>2026-04-04T10:35:55Z</time></trkpt><trkpt lat="14.2889042611067" lon="120.98846880585424"><ele>183.79999999999998</ele><time>2026-04-04T10:35:56Z</time></trkpt><trkpt lat="14.289001160236895" lon="120.98849923889614"><ele>183.6</ele><time>2026-04-04T10:35:57Z</time></trkpt><trkpt lat="14.28910059782693" lon="120.9885277616438"><ele>183.4</ele><time>2026-04-04T10:35:58Z</time></trkpt><trkpt lat="14.28920422258291" lon="120.98855448147808"><ele>183.2</ele><time>2026-04-04T10:35:59Z</time></trkpt><trkpt lat="14.289307291727376" lon="120.98858699666908"><ele>183.0</ele><time>2026-04-04T10:36:00Z</time></trkpt><trkpt lat="14.289414137756703" lon="120.98861727232683"><ele>183.0</ele><time>2026-04-04T10:36:01Z</time></trkpt><trkpt lat="14.289519254529825" lon="120.98865610543717"><ele>183.0</ele><time>2026-04-04T10:36:02Z</time></trkpt><trkpt lat="14.289629205685083" lon="120.98868992798327"><ele>183.0</ele><time>2026-04-04T10:36:03Z</time></trkpt><trkpt lat="14.289742256641631" lon="120.98872268320616"><ele>183.0</ele><time>2026-04-04T10:36:04Z</time></trkpt><trkpt lat="14.289855082775853" lon="120.98875492844859"><ele>183.25</ele><time>2026-04-04T10:36:05Z</time></trkpt><trkpt lat="14.289965282884134" lon="120.9887929600737"><ele>183.5</ele><time>2026-04-04T10:36:06Z</time></trkpt><trkpt lat="14.290079598750124" lon="120.9888279713718"><ele>183.75</ele><time>2026-04-04T10:36:07Z</time></trkpt><trkpt lat="14.290196673595792" lon="120.98886238060172"><ele>184.0</ele><time>2026-04-04T10:36:08Z</time></trkpt><trkpt lat="14.290318031584247" lon="120.9889033374027"><ele>184.0</ele><time>2026-04-04T10:36:09Z</time></trkpt><trkpt lat="14.290441553586032" lon="120.98893983254821"><ele>184.0</ele><time>2026-04-04T10:36:10Z</time></trkpt><trkpt lat="14.290566039069406" lon="120.9889778911965"><ele>184.0</ele><time>2026-04-04T10:36:11Z</time></trkpt><trkpt lat="14.290688876949885" lon="120.98901455242836"><ele>184.0</ele><time>2026-04-04T10:36:12Z</time></trkpt><trkpt lat="14.290805677681517" lon="120.98905345505823"><ele>184.0</ele><time>2026-04-04T10:36:13Z</time></trkpt><trkpt lat="14.29092693927099" lon="120.98908957057333"><ele>184.0</ele><time>2026-04-04T10:36:14Z</time></trkpt><trkpt lat="14.291050051432386" lon="120.98912408414404"><ele>184.0</ele><time>2026-04-04T10:36:15Z</time></trkpt><trkpt lat="14.291169881496954" lon="120.98915982241904"><ele>184.0</ele><time>2026-04-04T10:36:16Z</time></trkpt><trkpt lat="14.2912818253152" lon="120.98919367484505"><ele>183.25</ele><time>2026-04-04T10:36:17Z</time></trkpt><trkpt lat="14.291399833352045" lon="120.98922924676314"><ele>182.5</ele><time>2026-04-04T10:36:18Z</time></trkpt><trkpt lat="14.291512139585913" lon="120.98926882507982"><ele>181.75</ele><time>2026-04-04T10:36:19Z</time></trkpt><trkpt lat="14.29163136789243" lon="120.9893049596349"><ele>181.0</ele><time>2026-04-04T10:36:20Z</time></trkpt><trkpt lat="14.29175111629694" lon="120.9893361710498"><ele>180.5</ele><time>2026-04-04T10:36:21Z</time></trkpt><trkpt lat="14.29187053119079" lon="120.98937330497328"><ele>180.0</ele><time>2026-04-04T10:36:22Z</time></trkpt><trkpt lat="14.291988333476226" lon="120.98941302250113"><ele>179.5</ele><time>2026-04-04T10:36:23Z</time></trkpt><trkpt lat="14.292110061649486" lon="120.9894558865693"><ele>179.0</ele><time>2026-04-04T10:36:24Z</time></trkpt><trkpt lat="14.292224370183265" lon="120.9894959453304"><ele>179.25</ele><time>2026-04-04T10:36:25Z</time></trkpt><trkpt lat="14.292348555179423" lon="120.98953711422978"><ele>179.5</ele><time>2026-04-04T10:36:26Z</time></trkpt><trkpt lat="14.292454057431344" lon="120.9895638626902"><ele>179.75</ele><time>2026-04-04T10:36:27Z</time></trkpt><trkpt lat="14.29256021976937" lon="120.9895968099348"><ele>180.0</ele><time>2026-04-04T10:36:28Z</time></trkpt><trkpt lat="14.29266999724997" lon="120.9896371271412"><ele>180.0</ele><time>2026-04-04T10:36:29Z</time></trkpt><trkpt lat="14.292789337371971" lon="120.9896741780666"><ele>180.0</ele><time>2026-04-04T10:36:30Z</time></trkpt><trkpt lat="14.292904723018225" lon="120.98970990792111"><ele>180.0</ele><time>2026-04-04T10:36:31Z</time></trkpt><trkpt lat="14.293032519658585" lon="120.98974939829306"><ele>180.0</ele><time>2026-04-04T10:36:32Z</time></trkpt><trkpt lat="14.293166471631322" lon="120.98979637064083"><ele>179.66666666666666</ele><time>2026-04-04T10:36:33Z</time></trkpt><trkpt lat="14.293309540711492" lon="120.98984114316754"><ele>179.33333333333331</ele><time>2026-04-04T10:36:34Z</time></trkpt><trkpt lat="14.293453623863263" lon="120.98988721391204"><ele>179.0</ele><time>2026-04-04T10:36:35Z</time></trkpt><trkpt lat="14.293597731383437" lon="120.9899309135976"><ele>179.0</ele><time>2026-04-04T10:36:36Z</time></trkpt><trkpt lat="14.293740978970012" lon="120.98997192109029"><ele>179.0</ele><time>2026-04-04T10:36:37Z</time></trkpt><trkpt lat="14.293876737885169" lon="120.99000215294335"><ele>179.0</ele><time>2026-04-04T10:36:38Z</time></trkpt><trkpt lat="14.294020107166375" lon="120.99003922738221"><ele>179.0</ele><time>2026-04-04T10:36:39Z</time></trkpt><trkpt lat="14.294159294456358" lon="120.9900817421323"><ele>178.25</ele><time>2026-04-04T10:36:40Z</time></trkpt><trkpt lat="14.294294467810781" lon="120.99011999734611"><ele>177.5</ele><time>2026-04-04T10:36:41Z</time></trkpt><trkpt lat="14.294415080116314" lon="120.99015705680105"><ele>176.75</ele><time>2026-04-04T10:36:42Z</time></trkpt><trkpt lat="14.294521593474443" lon="120.99019314084815"><ele>176.0</ele><time>2026-04-04T10:36:43Z</time></trkpt><trkpt lat="14.29461055484311" lon="120.99022367919332"><ele>176.0</ele><time>2026-04-04T10:36:44Z</time></trkpt><trkpt lat="14.294692338330888" lon="120.9902453846459"><ele>176.0</ele><time>2026-04-04T10:36:45Z</time></trkpt><trkpt lat="14.294778471844706" lon="120.99026488248884"><ele>176.0</ele><time>2026-04-04T10:36:46Z</time></trkpt><trkpt lat="14.294871741539565" lon="120.99029287484962"><ele>176.0</ele><time>2026-04-04T10:36:47Z</time></trkpt><trkpt lat="14.294966921684427" lon="120.99031767936982"><ele>176.0</ele><time>2026-04-04T10:36:48Z</time></trkpt><trkpt lat="14.295055701370622" lon="120.9903491082402"><ele>176.4</ele><time>2026-04-04T10:36:49Z</time></trkpt><trkpt lat="14.295150037349476" lon="120.99037896759458"><ele>176.8</ele><time>2026-04-04T10:36:50Z</time></trkpt><trkpt lat="14.295236360841438" lon="120.99040756020754"><ele>177.20000000000002</ele><time>2026-04-04T10:36:51Z</time></trkpt><trkpt lat="14.295325909092542" lon="120.99043511434364"><ele>177.60000000000002</ele><time>2026-04-04T10:36:52Z</time></trkpt><trkpt lat="14.295425599305743" lon="120.99046396753579"><ele>178.0</ele><time>2026-04-04T10:36:53Z</time></trkpt><trkpt lat="14.295524029681527" lon="120.99049406704208"><ele>178.0</ele><time>2026-04-04T10:36:54Z</time></trkpt><trkpt lat="14.29561852683378" lon="120.99051840281294"><ele>178.0</ele><time>2026-04-04T10:36:55Z</time></trkpt><trkpt lat="14.295710411563759" lon="120.99054952799888"><ele>178.0</ele><time>2026-04-04T10:36:56Z</time></trkpt><trkpt lat="14.29580778749747" lon="120.99058205387894"><ele>178.0</ele><time>2026-04-04T10:36:57Z</time></trkpt><trkpt lat="14.295903033843901" lon="120.99060959690311"><ele>178.0</ele><time>2026-04-04T10:36:58Z</time></trkpt><trkpt lat="14.295994666293252" lon="120.99063798579331"><ele>178.0</ele><time>2026-04-04T10:36:59Z</time></trkpt><trkpt lat="14.296090760804729" lon="120.99066496761515"><ele>178.0</ele><time>2026-04-04T10:37:00Z</time></trkpt><trkpt lat="14.296191871481737" lon="120.99069122697027"><ele>178.0</ele><time>2026-04-04T10:37:01Z</time></trkpt><trkpt lat="14.296293663869497" lon="120.9907221388876"><ele>178.0</ele><time>2026-04-04T10:37:02Z</time></trkpt><trkpt lat="14.29639252565507" lon="120.99074847281749"><ele>178.0</ele><time>2026-04-04T10:37:03Z</time></trkpt><trkpt lat="14.296488324487484" lon="120.99077728281154"><ele>177.8</ele><time>2026-04-04T10:37:04Z</time></trkpt><trkpt lat="14.296578592314342" lon="120.99081046302828"><ele>177.60000000000002</ele><time>2026-04-04T10:37:05Z</time></trkpt><trkpt lat="14.29667114268385" lon="120.99083615183243"><ele>177.39999999999998</ele><time>2026-04-04T10:37:06Z</time></trkpt><trkpt lat="14.29676770070081" lon="120.99086848427596"><ele>177.2</ele><time>2026-04-04T10:37:07Z</time></trkpt><trkpt lat="14.296867509223029" lon="120.99089951788147"><ele>177.0</ele><time>2026-04-04T10:37:08Z</time></trkpt><trkpt lat="14.296973278639882" lon="120.99092896156594"><ele>177.0</ele><time>2026-04-04T10:37:09Z</time></trkpt><trkpt lat="14.29707294922854" lon="120.99096270951833"><ele>177.0</ele><time>2026-04-04T10:37:10Z</time></trkpt><trkpt lat="14.297168761929035" lon="120.99098451924064"><ele>177.0</ele><time>2026-04-04T10:37:11Z</time></trkpt><trkpt lat="14.297241192786558" lon="120.99100451846141"><ele>177.0</ele><time>2026-04-04T10:37:12Z</time></trkpt><trkpt lat="14.297312837982178" lon="120.99103228731377"><ele>177.0</ele><time>2026-04-04T10:37:13Z</time></trkpt><trkpt lat="14.297383466605945" lon="120.99104817210686"><ele>177.0</ele><time>2026-04-04T10:37:14Z</time></trkpt><trkpt lat="14.297467718301547" lon="120.99107141976593"><ele>177.0</ele><time>2026-04-04T10:37:15Z</time></trkpt><trkpt lat="14.297552333309845" lon="120.99110027865426"><ele>177.0</ele><time>2026-04-04T10:37:16Z</time></trkpt><trkpt lat="14.29763310112253" lon="120.9911298302613"><ele>177.0</ele><time>2026-04-04T10:37:17Z</time></trkpt><trkpt lat="14.297703176627394" lon="120.9911547295289"><ele>177.0</ele><time>2026-04-04T10:37:18Z</time></trkpt><trkpt lat="14.297776147977599" lon="120.99118327392509"><ele>177.0</ele><time>2026-04-04T10:37:19Z</time></trkpt><trkpt lat="14.297880115887047" lon="120.99121277351473"><ele>177.0</ele><time>2026-04-04T10:37:21Z</time></trkpt><trkpt lat="14.297943934726334" lon="120.99123182652427"><ele>177.0</ele><time>2026-04-04T10:37:22Z</time></trkpt><trkpt lat="14.29801734023727" lon="120.99125163660325"><ele>177.0</ele><time>2026-04-04T10:37:24Z</time></trkpt><trkpt lat="14.298100792499502" lon="120.99128386844411"><ele>177.0</ele><time>2026-04-04T10:37:26Z</time></trkpt><trkpt lat="14.298213277935552" lon="120.99132416656191"><ele>177.0</ele><time>2026-04-04T10:37:28Z</time></trkpt><trkpt lat="14.298294582558652" lon="120.99134043042666"><ele>177.0</ele><time>2026-04-04T10:37:30Z</time></trkpt><trkpt lat="14.298378790731212" lon="120.99136076993348"><ele>176.83333333333334</ele><time>2026-04-04T10:37:32Z</time></trkpt><trkpt lat="14.298485309055987" lon="120.99139604326334"><ele>176.66666666666666</ele><time>2026-04-04T10:37:34Z</time></trkpt><trkpt lat="14.298604451823401" lon="120.9914326704178"><ele>176.5</ele><time>2026-04-04T10:37:36Z</time></trkpt><trkpt lat="14.298668096315748" lon="120.99144762731484"><ele>176.33333333333331</ele><time>2026-04-04T10:37:37Z</time></trkpt><trkpt lat="14.298730452270402" lon="120.99146537321597"><ele>176.16666666666666</ele><time>2026-04-04T10:37:38Z</time></trkpt><trkpt lat="14.298790982368617" lon="120.9914893118393"><ele>176.0</ele><time>2026-04-04T10:37:39Z</time></trkpt><trkpt lat="14.29885823237859" lon="120.99150837586939"><ele>175.66666666666666</ele><time>2026-04-04T10:37:40Z</time></trkpt><trkpt lat="14.298928342945027" lon="120.99153087837573"><ele>175.33333333333331</ele><time>2026-04-04T10:37:41Z</time></trkpt><trkpt lat="14.29899654509986" lon="120.99155105102425"><ele>175.0</ele><time>2026-04-04T10:37:42Z</time></trkpt><trkpt lat="14.299069153118925" lon="120.9915700268302"><ele>174.66666666666666</ele><time>2026-04-04T10:37:43Z</time></trkpt><trkpt lat="14.299143424103763" lon="120.99159750201214"><ele>174.33333333333334</ele><time>2026-04-04T10:37:44Z</time></trkpt><trkpt lat="14.299217198025959" lon="120.99161987600317"><ele>174.0</ele><time>2026-04-04T10:37:45Z</time></trkpt><trkpt lat="14.299293124960373" lon="120.99164884192365"><ele>173.0</ele><time>2026-04-04T10:37:46Z</time></trkpt><trkpt lat="14.29936492378836" lon="120.99167781883916"><ele>172.0</ele><time>2026-04-04T10:37:47Z</time></trkpt><trkpt lat="14.299498427222261" lon="120.9917040524066"><ele>171.0</ele><time>2026-04-04T10:37:49Z</time></trkpt><trkpt lat="14.29957747568006" lon="120.99172923724251"><ele>170.0</ele><time>2026-04-04T10:37:50Z</time></trkpt><trkpt lat="14.29965249162225" lon="120.99176008272485"><ele>169.0</ele><time>2026-04-04T10:37:51Z</time></trkpt><trkpt lat="14.299731130942034" lon="120.99178225768341"><ele>169.16666666666669</ele><time>2026-04-04T10:37:52Z</time></trkpt><trkpt lat="14.299804551436424" lon="120.991802022024"><ele>169.33333333333334</ele><time>2026-04-04T10:37:53Z</time></trkpt><trkpt lat="14.299870696467723" lon="120.99182107481036"><ele>169.5</ele><time>2026-04-04T10:37:54Z</time></trkpt><trkpt lat="14.299984641891731" lon="120.99184837669245"><ele>169.66666666666666</ele><time>2026-04-04T10:37:56Z</time></trkpt><trkpt lat="14.300102256382049" lon="120.99187624371312"><ele>169.83333333333331</ele><time>2026-04-04T10:37:58Z</time></trkpt><trkpt lat="14.300165792485712" lon="120.99188922927819"><ele>170.0</ele><time>2026-04-04T10:37:59Z</time></trkpt><trkpt lat="14.300288891875" lon="120.99192291420621"><ele>170.0</ele><time>2026-04-04T10:38:01Z</time></trkpt><trkpt lat="14.300362757841485" lon="120.99194217452828"><ele>170.0</ele><time>2026-04-04T10:38:02Z</time></trkpt><trkpt lat="14.300433173485958" lon="120.99196973130924"><ele>170.0</ele><time>2026-04-04T10:38:03Z</time></trkpt><trkpt lat="14.300511116265012" lon="120.9919958924836"><ele>170.0</ele><time>2026-04-04T10:38:04Z</time></trkpt><trkpt lat="14.300591646278006" lon="120.99202244021242"><ele>170.0</ele><time>2026-04-04T10:38:05Z</time></trkpt><trkpt lat="14.300670437787451" lon="120.99204539697821"><ele>170.0</ele><time>2026-04-04T10:38:06Z</time></trkpt><trkpt lat="14.300748031017333" lon="120.9920711608175"><ele>169.83333333333331</ele><time>2026-04-04T10:38:07Z</time></trkpt><trkpt lat="14.30083225097532" lon="120.99210110091553"><ele>169.66666666666666</ele><time>2026-04-04T10:38:08Z</time></trkpt><trkpt lat="14.300907605064566" lon="120.99212676510884"><ele>169.5</ele><time>2026-04-04T10:38:09Z</time></trkpt><trkpt lat="14.300993388649799" lon="120.99215473909719"><ele>169.33333333333334</ele><time>2026-04-04T10:38:10Z</time></trkpt><trkpt lat="14.301078913341952" lon="120.99218496003175"><ele>169.16666666666669</ele><time>2026-04-04T10:38:11Z</time></trkpt><trkpt lat="14.301167485508996" lon="120.9922159786902"><ele>169.0</ele><time>2026-04-04T10:38:12Z</time></trkpt><trkpt lat="14.301263422950614" lon="120.99224580174656"><ele>169.0</ele><time>2026-04-04T10:38:13Z</time></trkpt><trkpt lat="14.301355292998553" lon="120.99227802964478"><ele>169.0</ele><time>2026-04-04T10:38:14Z</time></trkpt><trkpt lat="14.301451512897476" lon="120.9923072105248"><ele>169.0</ele><time>2026-04-04T10:38:15Z</time></trkpt><trkpt lat="14.30154438066909" lon="120.99234232314737"><ele>169.0</ele><time>2026-04-04T10:38:16Z</time></trkpt><trkpt lat="14.301649880756726" lon="120.99237883145062"><ele>169.0</ele><time>2026-04-04T10:38:17Z</time></trkpt><trkpt lat="14.301747401564533" lon="120.9924069209777"><ele>169.2</ele><time>2026-04-04T10:38:18Z</time></trkpt><trkpt lat="14.301845887166381" lon="120.99243020971417"><ele>169.39999999999998</ele><time>2026-04-04T10:38:19Z</time></trkpt><trkpt lat="14.301948768563152" lon="120.99245908920192"><ele>169.6</ele><time>2026-04-04T10:38:20Z</time></trkpt><trkpt lat="14.302045957232107" lon="120.99248292760826"><ele>169.8</ele><time>2026-04-04T10:38:21Z</time></trkpt><trkpt lat="14.302144354808751" lon="120.99250057591358"><ele>170.0</ele><time>2026-04-04T10:38:22Z</time></trkpt><trkpt lat="14.302246359707379" lon="120.99251503477645"><ele>169.0</ele><time>2026-04-04T10:38:23Z</time></trkpt><trkpt lat="14.302351047484722" lon="120.9925291792503"><ele>168.0</ele><time>2026-04-04T10:38:24Z</time></trkpt><trkpt lat="14.302455818999158" lon="120.99254073744659"><ele>167.0</ele><time>2026-04-04T10:38:25Z</time></trkpt><trkpt lat="14.302562377757365" lon="120.99255191180497"><ele>166.0</ele><time>2026-04-04T10:38:26Z</time></trkpt><trkpt lat="14.302671839607724" lon="120.99255957270343"><ele>165.0</ele><time>2026-04-04T10:38:27Z</time></trkpt><trkpt lat="14.302781986180676" lon="120.9925647846002"><ele>165.0</ele><time>2026-04-04T10:38:28Z</time></trkpt><trkpt lat="14.302889641392355" lon="120.99256847277282"><ele>165.0</ele><time>2026-04-04T10:38:29Z</time></trkpt><trkpt lat="14.302983723526651" lon="120.99256649974008"><ele>165.0</ele><time>2026-04-04T10:38:30Z</time></trkpt><trkpt lat="14.303077465441005" lon="120.99256941352988"><ele>165.0</ele><time>2026-04-04T10:38:31Z</time></trkpt><trkpt lat="14.303162053965874" lon="120.99256744892273"><ele>165.0</ele><time>2026-04-04T10:38:32Z</time></trkpt><trkpt lat="14.303234578082" lon="120.99256535261733"><ele>165.33333333333334</ele><time>2026-04-04T10:38:33Z</time></trkpt><trkpt lat="14.303308185652295" lon="120.992565663971"><ele>165.66666666666666</ele><time>2026-04-04T10:38:34Z</time></trkpt><trkpt lat="14.303375149128096" lon="120.9925697010077"><ele>166.0</ele><time>2026-04-04T10:38:35Z</time></trkpt><trkpt lat="14.303452287617251" lon="120.99256642734994"><ele>166.33333333333331</ele><time>2026-04-04T10:38:36Z</time></trkpt><trkpt lat="14.303532279355503" lon="120.99256788310356"><ele>166.66666666666666</ele><time>2026-04-04T10:38:37Z</time></trkpt><trkpt lat="14.303612627837836" lon="120.9925700544332"><ele>167.0</ele><time>2026-04-04T10:38:38Z</time></trkpt><trkpt lat="14.303699153960764" lon="120.99257530152097"><ele>167.0</ele><time>2026-04-04T10:38:39Z</time></trkpt><trkpt lat="14.303775785545847" lon="120.99258011428"><ele>167.0</ele><time>2026-04-04T10:38:40Z</time></trkpt><trkpt lat="14.303858722646254" lon="120.99258608896866"><ele>167.0</ele><time>2026-04-04T10:38:41Z</time></trkpt><trkpt lat="14.303942358938551" lon="120.99259348580765"><ele>167.0</ele><time>2026-04-04T10:38:42Z</time></trkpt><trkpt lat="14.304035940181503" lon="120.99259894737658"><ele>167.0</ele><time>2026-04-04T10:38:43Z</time></trkpt><trkpt lat="14.304129009220917" lon="120.99260342057003"><ele>167.0</ele><time>2026-04-04T10:38:44Z</time></trkpt><trkpt lat="14.304231507814102" lon="120.99260684249268"><ele>166.8</ele><time>2026-04-04T10:38:45Z</time></trkpt><trkpt lat="14.304334695371402" lon="120.99261121534887"><ele>166.6</ele><time>2026-04-04T10:38:46Z</time></trkpt><trkpt lat="14.304432464384297" lon="120.99262026964777"><ele>166.4</ele><time>2026-04-04T10:38:47Z</time></trkpt><trkpt lat="14.304524738088526" lon="120.99262418247552"><ele>166.20000000000002</ele><time>2026-04-04T10:38:48Z</time></trkpt><trkpt lat="14.304613756730417" lon="120.99262560715725"><ele>166.0</ele><time>2026-04-04T10:38:49Z</time></trkpt><trkpt lat="14.304694907119977" lon="120.99262818649288"><ele>165.8</ele><time>2026-04-04T10:38:50Z</time></trkpt><trkpt lat="14.304790723876632" lon="120.99262964719551"><ele>165.60000000000002</ele><time>2026-04-04T10:38:51Z</time></trkpt><trkpt lat="14.304881460353473" lon="120.99263374141212"><ele>165.4</ele><time>2026-04-04T10:38:52Z</time></trkpt><trkpt lat="14.304983401249844" lon="120.99263564324224"><ele>165.2</ele><time>2026-04-04T10:38:53Z</time></trkpt><trkpt lat="14.305081011518993" lon="120.99263394637255"><ele>165.0</ele><time>2026-04-04T10:38:54Z</time></trkpt><trkpt lat="14.305183026705095" lon="120.99263469385158"><ele>165.0</ele><time>2026-04-04T10:38:55Z</time></trkpt><trkpt lat="14.305280360779326" lon="120.99263401076456"><ele>165.0</ele><time>2026-04-04T10:38:56Z</time></trkpt><trkpt lat="14.3053733635201" lon="120.99263096955734"><ele>165.0</ele><time>2026-04-04T10:38:57Z</time></trkpt><trkpt lat="14.305467854969368" lon="120.99262349992662"><ele>165.0</ele><time>2026-04-04T10:38:58Z</time></trkpt><trkpt lat="14.305563940133743" lon="120.99261434914087"><ele>165.0</ele><time>2026-04-04T10:38:59Z</time></trkpt><trkpt lat="14.305654543215102" lon="120.99260292644773"><ele>165.0</ele><time>2026-04-04T10:39:00Z</time></trkpt><trkpt lat="14.305733919763446" lon="120.99258598108288"><ele>165.0</ele><time>2026-04-04T10:39:01Z</time></trkpt><trkpt lat="14.305827930977154" lon="120.99256610217809"><ele>165.0</ele><time>2026-04-04T10:39:02Z</time></trkpt><trkpt lat="14.305905871759641" lon="120.99254601994699"><ele>165.0</ele><time>2026-04-04T10:39:03Z</time></trkpt><trkpt lat="14.305983817158554" lon="120.9925176494134"><ele>165.0</ele><time>2026-04-04T10:39:04Z</time></trkpt><trkpt lat="14.306063419734674" lon="120.99248800732637"><ele>165.0</ele><time>2026-04-04T10:39:05Z</time></trkpt><trkpt lat="14.306137602539323" lon="120.99246218720295"><ele>165.0</ele><time>2026-04-04T10:39:06Z</time></trkpt><trkpt lat="14.306201452763915" lon="120.99243688301745"><ele>165.0</ele><time>2026-04-04T10:39:07Z</time></trkpt><trkpt lat="14.306274580502865" lon="120.99240825808518"><ele>165.0</ele><time>2026-04-04T10:39:08Z</time></trkpt><trkpt lat="14.306344247290749" lon="120.9923775580363"><ele>165.0</ele><time>2026-04-04T10:39:09Z</time></trkpt><trkpt lat="14.306407294218689" lon="120.99234829834428"><ele>165.0</ele><time>2026-04-04T10:39:10Z</time></trkpt><trkpt lat="14.306516299816114" lon="120.99229911853173"><ele>165.0</ele><time>2026-04-04T10:39:12Z</time></trkpt><trkpt lat="14.306601983859071" lon="120.9922464587628"><ele>164.5</ele><time>2026-04-04T10:39:14Z</time></trkpt><trkpt lat="14.306671046995408" lon="120.99220791909451"><ele>164.0</ele><time>2026-04-04T10:39:16Z</time></trkpt><trkpt lat="14.306750564296456" lon="120.99216147818693"><ele>163.5</ele><time>2026-04-04T10:39:18Z</time></trkpt><trkpt lat="14.306812751765548" lon="120.99212697608853"><ele>163.0</ele><time>2026-04-04T10:39:20Z</time></trkpt><trkpt lat="14.306886414987376" lon="120.99208411896313"><ele>162.5</ele><time>2026-04-04T10:39:22Z</time></trkpt><trkpt lat="14.306981553262599" lon="120.99202546167507"><ele>162.0</ele><time>2026-04-04T10:39:24Z</time></trkpt><trkpt lat="14.307095061029578" lon="120.99196387056742"><ele>162.0</ele><time>2026-04-04T10:39:26Z</time></trkpt><trkpt lat="14.307151664492563" lon="120.99193365406337"><ele>162.0</ele><time>2026-04-04T10:39:27Z</time></trkpt><trkpt lat="14.307212136389538" lon="120.99189628745728"><ele>162.0</ele><time>2026-04-04T10:39:28Z</time></trkpt><trkpt lat="14.307273504664371" lon="120.99185928761524"><ele>162.0</ele><time>2026-04-04T10:39:29Z</time></trkpt><trkpt lat="14.30733894215788" lon="120.99182059357591"><ele>162.0</ele><time>2026-04-04T10:39:30Z</time></trkpt><trkpt lat="14.307394769731046" lon="120.99178656461751"><ele>162.0</ele><time>2026-04-04T10:39:31Z</time></trkpt><trkpt lat="14.30751501447221" lon="120.99173197259498"><ele>162.0</ele><time>2026-04-04T10:39:33Z</time></trkpt><trkpt lat="14.3075840299282" lon="120.99169841174324"><ele>162.0</ele><time>2026-04-04T10:39:34Z</time></trkpt><trkpt lat="14.307654247781619" lon="120.99166281368953"><ele>162.0</ele><time>2026-04-04T10:39:35Z</time></trkpt><trkpt lat="14.30771967175533" lon="120.99161682958741"><ele>162.0</ele><time>2026-04-04T10:39:36Z</time></trkpt><trkpt lat="14.30778980490318" lon="120.99157407078533"><ele>162.0</ele><time>2026-04-04T10:39:37Z</time></trkpt><trkpt lat="14.307860009226072" lon="120.99153227109204"><ele>162.0</ele><time>2026-04-04T10:39:38Z</time></trkpt><trkpt lat="14.30792354912167" lon="120.99149224072143"><ele>161.83333333333334</ele><time>2026-04-04T10:39:39Z</time></trkpt><trkpt lat="14.307987138451537" lon="120.99144999113453"><ele>161.66666666666666</ele><time>2026-04-04T10:39:40Z</time></trkpt><trkpt lat="14.308049942745622" lon="120.99140854078671"><ele>161.5</ele><time>2026-04-04T10:39:41Z</time></trkpt><trkpt lat="14.308120518171327" lon="120.99135791070364"><ele>161.33333333333331</ele><time>2026-04-04T10:39:42Z</time></trkpt><trkpt lat="14.30819258780586" lon="120.99131255659415"><ele>161.16666666666666</ele><time>2026-04-04T10:39:43Z</time></trkpt><trkpt lat="14.308270263204452" lon="120.99126225525418"><ele>161.0</ele><time>2026-04-04T10:39:44Z</time></trkpt><trkpt lat="14.308354310942537" lon="120.99120961028407"><ele>161.60000000000002</ele><time>2026-04-04T10:39:45Z</time></trkpt><trkpt lat="14.308439205440395" lon="120.99115046873438"><ele>162.2</ele><time>2026-04-04T10:39:46Z</time></trkpt><trkpt lat="14.30853615365952" lon="120.99110700605318"><ele>162.8</ele><time>2026-04-04T10:39:47Z</time></trkpt><trkpt lat="14.308606745626145" lon="120.99103657838451"><ele>163.39999999999998</ele><time>2026-04-04T10:39:48Z</time></trkpt><trkpt lat="14.308689172741177" lon="120.99099535909956"><ele>164.0</ele><time>2026-04-04T10:39:49Z</time></trkpt><trkpt lat="14.308761846833647" lon="120.99093796250091"><ele>164.0</ele><time>2026-04-04T10:39:50Z</time></trkpt><trkpt lat="14.308841681748191" lon="120.99087587238981"><ele>164.0</ele><time>2026-04-04T10:39:51Z</time></trkpt><trkpt lat="14.308921430693758" lon="120.99081384886314"><ele>164.0</ele><time>2026-04-04T10:39:52Z</time></trkpt><trkpt lat="14.309006347228161" lon="120.9907476925389"><ele>164.0</ele><time>2026-04-04T10:39:53Z</time></trkpt><trkpt lat="14.309098291620192" lon="120.99067377208114"><ele>164.0</ele><time>2026-04-04T10:39:54Z</time></trkpt><trkpt lat="14.309189316254256" lon="120.99060059107092"><ele>163.75</ele><time>2026-04-04T10:39:55Z</time></trkpt><trkpt lat="14.309286291472262" lon="120.99051863059812"><ele>163.5</ele><time>2026-04-04T10:39:56Z</time></trkpt><trkpt lat="14.309382643885256" lon="120.99043121280567"><ele>163.25</ele><time>2026-04-04T10:39:57Z</time></trkpt><trkpt lat="14.30948133072671" lon="120.99034177716459"><ele>163.0</ele><time>2026-04-04T10:39:58Z</time></trkpt><trkpt lat="14.309575592539362" lon="120.99025592575747"><ele>163.0</ele><time>2026-04-04T10:39:59Z</time></trkpt><trkpt lat="14.309663763981145" lon="120.9901756212776"><ele>163.0</ele><time>2026-04-04T10:40:00Z</time></trkpt><trkpt lat="14.309745677864656" lon="120.99010101608353"><ele>163.0</ele><time>2026-04-04T10:40:01Z</time></trkpt><trkpt lat="14.309824793186477" lon="120.99002895971518"><ele>163.0</ele><time>2026-04-04T10:40:02Z</time></trkpt><trkpt lat="14.30989665459831" lon="120.98996351005376"><ele>163.0</ele><time>2026-04-04T10:40:03Z</time></trkpt><trkpt lat="14.309952168674076" lon="120.98991312283462"><ele>162.20000000000002</ele><time>2026-04-04T10:40:04Z</time></trkpt><trkpt lat="14.310004401068198" lon="120.98986575337311"><ele>161.4</ele><time>2026-04-04T10:40:05Z</time></trkpt><trkpt lat="14.310097596826685" lon="120.9897812344086"><ele>160.60000000000002</ele><time>2026-04-04T10:40:07Z</time></trkpt><trkpt lat="14.310159216429698" lon="120.98972535174738"><ele>159.8</ele><time>2026-04-04T10:40:08Z</time></trkpt><trkpt lat="14.310233560623816" lon="120.98965792918968"><ele>159.0</ele><time>2026-04-04T10:40:09Z</time></trkpt><trkpt lat="14.3103151453245" lon="120.98958394024503"><ele>159.0</ele><time>2026-04-04T10:40:10Z</time></trkpt><trkpt lat="14.310399042025804" lon="120.98951848043426"><ele>159.0</ele><time>2026-04-04T10:40:11Z</time></trkpt><trkpt lat="14.310478626580228" lon="120.9894622245876"><ele>159.0</ele><time>2026-04-04T10:40:12Z</time></trkpt><trkpt lat="14.31054274092673" lon="120.98941690413535"><ele>159.0</ele><time>2026-04-04T10:40:13Z</time></trkpt><trkpt lat="14.310587522166257" lon="120.98937018098042"><ele>159.0</ele><time>2026-04-04T10:40:14Z</time></trkpt><trkpt lat="14.310650936315765" lon="120.98932430990524"><ele>159.0</ele><time>2026-04-04T10:40:15Z</time></trkpt><trkpt lat="14.31071241120738" lon="120.98928908251763"><ele>158.66666666666666</ele><time>2026-04-04T10:40:16Z</time></trkpt><trkpt lat="14.31077162052922" lon="120.9892521770483"><ele>158.33333333333334</ele><time>2026-04-04T10:40:17Z</time></trkpt><trkpt lat="14.310877702337185" lon="120.9891880311401"><ele>158.0</ele><time>2026-04-04T10:40:19Z</time></trkpt><trkpt lat="14.310938975313105" lon="120.98915512602872"><ele>157.66666666666669</ele><time>2026-04-04T10:40:20Z</time></trkpt><trkpt lat="14.310999598545575" lon="120.98911985343646"><ele>157.33333333333334</ele><time>2026-04-04T10:40:21Z</time></trkpt><trkpt lat="14.311057803264719" lon="120.98908145931465"><ele>157.0</ele><time>2026-04-04T10:40:22Z</time></trkpt><trkpt lat="14.311153538009393" lon="120.9890226692716"><ele>157.0</ele><time>2026-04-04T10:40:24Z</time></trkpt><trkpt lat="14.311250373132086" lon="120.98896299891551"><ele>157.0</ele><time>2026-04-04T10:40:26Z</time></trkpt><trkpt lat="14.311307432440543" lon="120.98892770205042"><ele>157.0</ele><time>2026-04-04T10:40:27Z</time></trkpt><trkpt lat="14.311366959412844" lon="120.98889104759387"><ele>157.0</ele><time>2026-04-04T10:40:28Z</time></trkpt><trkpt lat="14.311435282271143" lon="120.9888484746292"><ele>157.0</ele><time>2026-04-04T10:40:29Z</time></trkpt><trkpt lat="14.311507912168583" lon="120.98879952437987"><ele>157.0</ele><time>2026-04-04T10:40:30Z</time></trkpt><trkpt lat="14.311579856688054" lon="120.98875693174153"><ele>156.6</ele><time>2026-04-04T10:40:31Z</time></trkpt><trkpt lat="14.311657694723253" lon="120.98870545800804"><ele>156.2</ele><time>2026-04-04T10:40:32Z</time></trkpt><trkpt lat="14.31174312441667" lon="120.98864672610352"><ele>155.8</ele><time>2026-04-04T10:40:33Z</time></trkpt><trkpt lat="14.311836494479937" lon="120.9885929756102"><ele>155.4</ele><time>2026-04-04T10:40:34Z</time></trkpt><trkpt lat="14.311934680561615" lon="120.98852868159548"><ele>155.0</ele><time>2026-04-04T10:40:35Z</time></trkpt><trkpt lat="14.312034827768294" lon="120.98847447858165"><ele>155.0</ele><time>2026-04-04T10:40:36Z</time></trkpt><trkpt lat="14.312126517657621" lon="120.98842225502491"><ele>155.0</ele><time>2026-04-04T10:40:37Z</time></trkpt><trkpt lat="14.312220642673683" lon="120.98836569298145"><ele>155.0</ele><time>2026-04-04T10:40:38Z</time></trkpt><trkpt lat="14.312319621912085" lon="120.98830894951473"><ele>155.0</ele><time>2026-04-04T10:40:39Z</time></trkpt><trkpt lat="14.312415802079528" lon="120.98825155525074"><ele>155.0</ele><time>2026-04-04T10:40:40Z</time></trkpt><trkpt lat="14.31251134561945" lon="120.98819241878904"><ele>154.5</ele><time>2026-04-04T10:40:41Z</time></trkpt><trkpt lat="14.312608711633958" lon="120.98812870169498"><ele>154.0</ele><time>2026-04-04T10:40:42Z</time></trkpt><trkpt lat="14.312712370542009" lon="120.98807155357163"><ele>153.5</ele><time>2026-04-04T10:40:43Z</time></trkpt><trkpt lat="14.312816374953902" lon="120.98801286722578"><ele>153.0</ele><time>2026-04-04T10:40:44Z</time></trkpt><trkpt lat="14.312909984713425" lon="120.98795804025849"><ele>153.0</ele><time>2026-04-04T10:40:45Z</time></trkpt><trkpt lat="14.313002304128903" lon="120.98790371114858"><ele>153.0</ele><time>2026-04-04T10:40:46Z</time></trkpt><trkpt lat="14.313086364561961" lon="120.98785662424508"><ele>153.0</ele><time>2026-04-04T10:40:47Z</time></trkpt><trkpt lat="14.31316506981925" lon="120.98780829995115"><ele>153.0</ele><time>2026-04-04T10:40:48Z</time></trkpt><trkpt lat="14.313252404724565" lon="120.98774874765058"><ele>153.0</ele><time>2026-04-04T10:40:49Z</time></trkpt><trkpt lat="14.313340317491246" lon="120.98769305224916"><ele>152.0</ele><time>2026-04-04T10:40:50Z</time></trkpt><trkpt lat="14.313427497239337" lon="120.98764088801488"><ele>151.0</ele><time>2026-04-04T10:40:51Z</time></trkpt><trkpt lat="14.313518864167829" lon="120.98758658079369"><ele>150.0</ele><time>2026-04-04T10:40:52Z</time></trkpt><trkpt lat="14.313605550622132" lon="120.98753624967433"><ele>149.0</ele><time>2026-04-04T10:40:53Z</time></trkpt><trkpt lat="14.31370247895066" lon="120.98748159184456"><ele>148.0</ele><time>2026-04-04T10:40:54Z</time></trkpt><trkpt lat="14.313798487072921" lon="120.98742656810887"><ele>148.0</ele><time>2026-04-04T10:40:55Z</time></trkpt><trkpt lat="14.313895524003112" lon="120.98736636182362"><ele>148.0</ele><time>2026-04-04T10:40:56Z</time></trkpt><trkpt lat="14.313998093534675" lon="120.98730267414422"><ele>148.0</ele><time>2026-04-04T10:40:57Z</time></trkpt><trkpt lat="14.314087502182833" lon="120.98724666280323"><ele>148.0</ele><time>2026-04-04T10:40:58Z</time></trkpt><trkpt lat="14.314198178243496" lon="120.98718810764413"><ele>146.75</ele><time>2026-04-04T10:40:59Z</time></trkpt><trkpt lat="14.314304998490941" lon="120.98713077203861"><ele>145.5</ele><time>2026-04-04T10:41:00Z</time></trkpt><trkpt lat="14.314420734477961" lon="120.9870685413053"><ele>144.25</ele><time>2026-04-04T10:41:01Z</time></trkpt><trkpt lat="14.314545258704063" lon="120.98699910518387"><ele>143.0</ele><time>2026-04-04T10:41:02Z</time></trkpt><trkpt lat="14.314670690837852" lon="120.98693040953698"><ele>142.0</ele><time>2026-04-04T10:41:03Z</time></trkpt><trkpt lat="14.314777642056223" lon="120.98687140319146"><ele>141.0</ele><time>2026-04-04T10:41:04Z</time></trkpt><trkpt lat="14.314893650627626" lon="120.98681632106461"><ele>140.0</ele><time>2026-04-04T10:41:05Z</time></trkpt><trkpt lat="14.314994269346487" lon="120.9867668807616"><ele>139.0</ele><time>2026-04-04T10:41:06Z</time></trkpt><trkpt lat="14.3150876569063" lon="120.98671749422856"><ele>140.2</ele><time>2026-04-04T10:41:07Z</time></trkpt><trkpt lat="14.315183837972496" lon="120.9866680042264"><ele>141.4</ele><time>2026-04-04T10:41:08Z</time></trkpt><trkpt lat="14.315276539712974" lon="120.98661800623121"><ele>142.6</ele><time>2026-04-04T10:41:09Z</time></trkpt><trkpt lat="14.315368269801981" lon="120.98657716872269"><ele>143.8</ele><time>2026-04-04T10:41:10Z</time></trkpt><trkpt lat="14.315461241667741" lon="120.98654103262825"><ele>145.0</ele><time>2026-04-04T10:41:11Z</time></trkpt><trkpt lat="14.315559736599273" lon="120.9865077152419"><ele>144.66666666666669</ele><time>2026-04-04T10:41:12Z</time></trkpt><trkpt lat="14.315662579123506" lon="120.98648248062712"><ele>144.33333333333334</ele><time>2026-04-04T10:41:13Z</time></trkpt><trkpt lat="14.31575414220214" lon="120.98646136076957"><ele>144.0</ele><time>2026-04-04T10:41:14Z</time></trkpt><trkpt lat="14.315850160730305" lon="120.986442879898"><ele>143.66666666666666</ele><time>2026-04-04T10:41:15Z</time></trkpt><trkpt lat="14.315914486996796" lon="120.98641686464613"><ele>143.33333333333331</ele><time>2026-04-04T10:41:16Z</time></trkpt><trkpt lat="14.315987050301057" lon="120.9864005705943"><ele>143.0</ele><time>2026-04-04T10:41:17Z</time></trkpt><trkpt lat="14.316048091162347" lon="120.98638082329428"><ele>143.0</ele><time>2026-04-04T10:41:18Z</time></trkpt><trkpt lat="14.31612183264436" lon="120.98636559057866"><ele>143.0</ele><time>2026-04-04T10:41:19Z</time></trkpt><trkpt lat="14.31620235613459" lon="120.98634714700871"><ele>143.0</ele><time>2026-04-04T10:41:20Z</time></trkpt><trkpt lat="14.316290557128731" lon="120.98632754929653"><ele>143.0</ele><time>2026-04-04T10:41:21Z</time></trkpt><trkpt lat="14.316390815259355" lon="120.98630660999436"><ele>143.0</ele><time>2026-04-04T10:41:22Z</time></trkpt><trkpt lat="14.316489837451693" lon="120.98628288872172"><ele>142.20000000000002</ele><time>2026-04-04T10:41:23Z</time></trkpt><trkpt lat="14.316594214563416" lon="120.98626133301293"><ele>141.4</ele><time>2026-04-04T10:41:24Z</time></trkpt><trkpt lat="14.316682850834281" lon="120.98624063544314"><ele>140.60000000000002</ele><time>2026-04-04T10:41:25Z</time></trkpt><trkpt lat="14.316768591750057" lon="120.98621715522329"><ele>139.8</ele><time>2026-04-04T10:41:26Z</time></trkpt><trkpt lat="14.316865485275313" lon="120.98619323167127"><ele>139.0</ele><time>2026-04-04T10:41:27Z</time></trkpt><trkpt lat="14.316970890567827" lon="120.98617010632648"><ele>139.0</ele><time>2026-04-04T10:41:28Z</time></trkpt><trkpt lat="14.317072351756556" lon="120.98614540120644"><ele>139.0</ele><time>2026-04-04T10:41:29Z</time></trkpt><trkpt lat="14.317173409859002" lon="120.98611696929004"><ele>139.0</ele><time>2026-04-04T10:41:30Z</time></trkpt><trkpt lat="14.317279879843309" lon="120.9860954073681"><ele>139.0</ele><time>2026-04-04T10:41:31Z</time></trkpt><trkpt lat="14.31738579413875" lon="120.98607036114367"><ele>139.0</ele><time>2026-04-04T10:41:32Z</time></trkpt><trkpt lat="14.317490250740155" lon="120.98604611817849"><ele>138.25</ele><time>2026-04-04T10:41:33Z</time></trkpt><trkpt lat="14.317615311355118" lon="120.98602176859508"><ele>137.5</ele><time>2026-04-04T10:41:34Z</time></trkpt><trkpt lat="14.317734817430294" lon="120.98599279987636"><ele>136.75</ele><time>2026-04-04T10:41:35Z</time></trkpt><trkpt lat="14.317869146447332" lon="120.9859619373049"><ele>136.0</ele><time>2026-04-04T10:41:36Z</time></trkpt><trkpt lat="14.318002218657426" lon="120.98592539129062"><ele>136.0</ele><time>2026-04-04T10:41:37Z</time></trkpt><trkpt lat="14.318140550426266" lon="120.9858910007672"><ele>136.0</ele><time>2026-04-04T10:41:38Z</time></trkpt><trkpt lat="14.318268300094443" lon="120.98585287096412"><ele>136.0</ele><time>2026-04-04T10:41:39Z</time></trkpt><trkpt lat="14.318381174647891" lon="120.98580660615906"><ele>136.0</ele><time>2026-04-04T10:41:40Z</time></trkpt><trkpt lat="14.318505732129909" lon="120.98575723318415"><ele>136.0</ele><time>2026-04-04T10:41:41Z</time></trkpt><trkpt lat="14.318616954227997" lon="120.98570953573315"><ele>136.0</ele><time>2026-04-04T10:41:42Z</time></trkpt><trkpt lat="14.318726473315749" lon="120.98566068164533"><ele>136.0</ele><time>2026-04-04T10:41:43Z</time></trkpt><trkpt lat="14.318827678394923" lon="120.98561704486363"><ele>136.0</ele><time>2026-04-04T10:41:44Z</time></trkpt><trkpt lat="14.318910285213535" lon="120.98557876279564"><ele>136.0</ele><time>2026-04-04T10:41:45Z</time></trkpt><trkpt lat="14.318992396535746" lon="120.98554362695563"><ele>135.4</ele><time>2026-04-04T10:41:46Z</time></trkpt><trkpt lat="14.319064835287996" lon="120.98550825959731"><ele>134.8</ele><time>2026-04-04T10:41:47Z</time></trkpt><trkpt lat="14.319144187179884" lon="120.9854681806732"><ele>134.20000000000002</ele><time>2026-04-04T10:41:48Z</time></trkpt><trkpt lat="14.319215391391786" lon="120.98543486388417"><ele>133.6</ele><time>2026-04-04T10:41:49Z</time></trkpt><trkpt lat="14.31929617025535" lon="120.98540109238401"><ele>133.0</ele><time>2026-04-04T10:41:50Z</time></trkpt><trkpt lat="14.319404648973766" lon="120.98534384275378"><ele>133.0</ele><time>2026-04-04T10:41:52Z</time></trkpt><trkpt lat="14.319506368243895" lon="120.9852930823889"><ele>133.0</ele><time>2026-04-04T10:41:54Z</time></trkpt><trkpt lat="14.31957455701772" lon="120.9852644524183"><ele>133.0</ele><time>2026-04-04T10:41:55Z</time></trkpt><trkpt lat="14.319633869599137" lon="120.98523508037417"><ele>133.0</ele><time>2026-04-04T10:41:56Z</time></trkpt><trkpt lat="14.319707999495758" lon="120.98520937777675"><ele>133.0</ele><time>2026-04-04T10:41:57Z</time></trkpt><trkpt lat="14.319774552735062" lon="120.98517899431502"><ele>133.0</ele><time>2026-04-04T10:41:58Z</time></trkpt><trkpt lat="14.319880763112199" lon="120.9851251833333"><ele>133.16666666666669</ele><time>2026-04-04T10:42:00Z</time></trkpt><trkpt lat="14.319977237539534" lon="120.98507767708087"><ele>133.33333333333334</ele><time>2026-04-04T10:42:02.001Z</time></trkpt><trkpt lat="14.320045263194784" lon="120.98504680746613"><ele>133.5</ele><time>2026-04-04T10:42:04.001Z</time></trkpt><trkpt lat="14.320106723223434" lon="120.985027882616"><ele>133.66666666666666</ele><time>2026-04-04T10:42:06.001Z</time></trkpt><trkpt lat="14.320174418029508" lon="120.98499349484554"><ele>133.83333333333331</ele><time>2026-04-04T10:42:08.001Z</time></trkpt><trkpt lat="14.320252503926115" lon="120.98495021084443"><ele>134.0</ele><time>2026-04-04T10:42:10.001Z</time></trkpt><trkpt lat="14.320339652094358" lon="120.9849043734811"><ele>134.0</ele><time>2026-04-04T10:42:12.001Z</time></trkpt><trkpt lat="14.320414233180307" lon="120.98486086578936"><ele>134.0</ele><time>2026-04-04T10:42:14.001Z</time></trkpt><trkpt lat="14.320492521664525" lon="120.98483256358229"><ele>134.0</ele><time>2026-04-04T10:42:16.001Z</time></trkpt><trkpt lat="14.320572559194115" lon="120.98480849250369"><ele>134.0</ele><time>2026-04-04T10:42:18.001Z</time></trkpt><trkpt lat="14.320668943811619" lon="120.98479064918637"><ele>134.0</ele><time>2026-04-04T10:42:20.001Z</time></trkpt><trkpt lat="14.320781734442521" lon="120.9847671997611"><ele>134.0</ele><time>2026-04-04T10:42:22.001Z</time></trkpt><trkpt lat="14.320843295200424" lon="120.98475338618574"><ele>134.0</ele><time>2026-04-04T10:42:23.001Z</time></trkpt><trkpt lat="14.320909864539788" lon="120.9847423504334"><ele>134.0</ele><time>2026-04-04T10:42:24.001Z</time></trkpt><trkpt lat="14.320982422915977" lon="120.98474153294967"><ele>134.0</ele><time>2026-04-04T10:42:25.001Z</time></trkpt><trkpt lat="14.321050342612025" lon="120.98473287970894"><ele>134.0</ele><time>2026-04-04T10:42:26.001Z</time></trkpt><trkpt lat="14.32111317903099" lon="120.98472628761478"><ele>134.0</ele><time>2026-04-04T10:42:27.001Z</time></trkpt><trkpt lat="14.321181455567066" lon="120.98472587398929"><ele>134.0</ele><time>2026-04-04T10:42:28.001Z</time></trkpt><trkpt lat="14.321258048275801" lon="120.98471797702908"><ele>134.0</ele><time>2026-04-04T10:42:29.001Z</time></trkpt><trkpt lat="14.321336511380453" lon="120.98472011464536"><ele>134.0</ele><time>2026-04-04T10:42:30.001Z</time></trkpt><trkpt lat="14.321401616619768" lon="120.98471703361076"><ele>134.0</ele><time>2026-04-04T10:42:31.001Z</time></trkpt><trkpt lat="14.321527609844344" lon="120.9847133027022"><ele>134.0</ele><time>2026-04-04T10:42:33.001Z</time></trkpt><trkpt lat="14.321647605197798" lon="120.98470457139567"><ele>134.0</ele><time>2026-04-04T10:42:35.001Z</time></trkpt><trkpt lat="14.321749534937641" lon="120.98469312191335"><ele>133.8</ele><time>2026-04-04T10:42:37.001Z</time></trkpt><trkpt lat="14.321850459218098" lon="120.98468607349388"><ele>133.60000000000002</ele><time>2026-04-04T10:42:39.001Z</time></trkpt><trkpt lat="14.321959332084157" lon="120.98467905520025"><ele>133.4</ele><time>2026-04-04T10:42:41.001Z</time></trkpt><trkpt lat="14.32206542376779" lon="120.98466905444172"><ele>133.20000000000002</ele><time>2026-04-04T10:42:43.001Z</time></trkpt><trkpt lat="14.322159477961655" lon="120.9846630174916"><ele>133.0</ele><time>2026-04-04T10:42:45.001Z</time></trkpt><trkpt lat="14.3222719013458" lon="120.98465448801959"><ele>132.5</ele><time>2026-04-04T10:42:47.001Z</time></trkpt><trkpt lat="14.322398162373684" lon="120.98465255588017"><ele>132.0</ele><time>2026-04-04T10:42:49.001Z</time></trkpt><trkpt lat="14.322467807600583" lon="120.98464756324208"><ele>131.5</ele><time>2026-04-04T10:42:50.001Z</time></trkpt><trkpt lat="14.322532953203341" lon="120.98464330752755"><ele>131.0</ele><time>2026-04-04T10:42:51.001Z</time></trkpt><trkpt lat="14.322655252658839" lon="120.9846435861054"><ele>130.5</ele><time>2026-04-04T10:42:53.001Z</time></trkpt><trkpt lat="14.3227197203983" lon="120.98464482139535"><ele>130.0</ele><time>2026-04-04T10:42:54.001Z</time></trkpt><trkpt lat="14.32284478970826" lon="120.98464757009879"><ele>130.0</ele><time>2026-04-04T10:42:56.001Z</time></trkpt><trkpt lat="14.3229597747014" lon="120.98465336635586"><ele>130.0</ele><time>2026-04-04T10:42:58.001Z</time></trkpt><trkpt lat="14.323031630229966" lon="120.98466304080654"><ele>130.0</ele><time>2026-04-04T10:42:59.001Z</time></trkpt><trkpt lat="14.323098761487937" lon="120.98467349362532"><ele>130.0</ele><time>2026-04-04T10:43:00.001Z</time></trkpt><trkpt lat="14.32321613402191" lon="120.9847164923982"><ele>130.0</ele><time>2026-04-04T10:43:02.001Z</time></trkpt><trkpt lat="14.323283391675648" lon="120.98474239258482"><ele>129.2</ele><time>2026-04-04T10:43:03.001Z</time></trkpt><trkpt lat="14.323354486119872" lon="120.98477015872493"><ele>128.4</ele><time>2026-04-04T10:43:04.001Z</time></trkpt><trkpt lat="14.323441422525786" lon="120.98480766322452"><ele>127.6</ele><time>2026-04-04T10:43:05.001Z</time></trkpt><trkpt lat="14.323525990084589" lon="120.98484272002065"><ele>126.8</ele><time>2026-04-04T10:43:06.001Z</time></trkpt><trkpt lat="14.32361480745847" lon="120.9848826165032"><ele>126.0</ele><time>2026-04-04T10:43:07.001Z</time></trkpt><trkpt lat="14.323707471789296" lon="120.98492473016758"><ele>126.0</ele><time>2026-04-04T10:43:08.001Z</time></trkpt><trkpt lat="14.32380054614191" lon="120.98496711459457"><ele>126.0</ele><time>2026-04-04T10:43:09.001Z</time></trkpt><trkpt lat="14.32390088287953" lon="120.98501423758755"><ele>126.0</ele><time>2026-04-04T10:43:10.001Z</time></trkpt><trkpt lat="14.323994179827125" lon="120.9850573820506"><ele>126.0</ele><time>2026-04-04T10:43:11.001Z</time></trkpt><trkpt lat="14.32409098371322" lon="120.98510657884947"><ele>126.0</ele><time>2026-04-04T10:43:12.001Z</time></trkpt><trkpt lat="14.324199334609787" lon="120.98516451454306"><ele>125.0</ele><time>2026-04-04T10:43:13.001Z</time></trkpt><trkpt lat="14.324317937464688" lon="120.98523060376199"><ele>124.0</ele><time>2026-04-04T10:43:14.001Z</time></trkpt><trkpt lat="14.324440627763575" lon="120.98529867667631"><ele>123.0</ele><time>2026-04-04T10:43:15.001Z</time></trkpt><trkpt lat="14.324550202856209" lon="120.98536311691662"><ele>122.0</ele><time>2026-04-04T10:43:16.001Z</time></trkpt><trkpt lat="14.324641329367688" lon="120.98541955396922"><ele>122.0</ele><time>2026-04-04T10:43:17.001Z</time></trkpt><trkpt lat="14.324729067380108" lon="120.98547949601192"><ele>122.0</ele><time>2026-04-04T10:43:18.001Z</time></trkpt><trkpt lat="14.32482889263576" lon="120.98555034161167"><ele>122.0</ele><time>2026-04-04T10:43:19.001Z</time></trkpt><trkpt lat="14.32493732934095" lon="120.98563039829415"><ele>122.0</ele><time>2026-04-04T10:43:20.001Z</time></trkpt><trkpt lat="14.325055468568797" lon="120.98571109997967"><ele>121.66666666666666</ele><time>2026-04-04T10:43:21.001Z</time></trkpt><trkpt lat="14.325179731443557" lon="120.98580156224708"><ele>121.33333333333334</ele><time>2026-04-04T10:43:22.001Z</time></trkpt><trkpt lat="14.325308807807302" lon="120.98590018047231"><ele>121.0</ele><time>2026-04-04T10:43:23.001Z</time></trkpt><trkpt lat="14.325436103980376" lon="120.9860067848206"><ele>120.0</ele><time>2026-04-04T10:43:24.001Z</time></trkpt><trkpt lat="14.325555771924131" lon="120.98610646064623"><ele>119.0</ele><time>2026-04-04T10:43:25.001Z</time></trkpt><trkpt lat="14.325682949555944" lon="120.98621306206681"><ele>118.0</ele><time>2026-04-04T10:43:26.001Z</time></trkpt><trkpt lat="14.325808309789364" lon="120.986324646222"><ele>118.0</ele><time>2026-04-04T10:43:27.001Z</time></trkpt><trkpt lat="14.325933326108517" lon="120.98643701411595"><ele>118.0</ele><time>2026-04-04T10:43:28.001Z</time></trkpt><trkpt lat="14.326062637890683" lon="120.98655912386616"><ele>118.0</ele><time>2026-04-04T10:43:29.001Z</time></trkpt><trkpt lat="14.326190271660202" lon="120.98667908726244"><ele>117.33333333333334</ele><time>2026-04-04T10:43:30.001Z</time></trkpt><trkpt lat="14.326315473793489" lon="120.98679740197133"><ele>116.66666666666666</ele><time>2026-04-04T10:43:31.001Z</time></trkpt><trkpt lat="14.326427203856513" lon="120.98690407914205"><ele>116.0</ele><time>2026-04-04T10:43:32.001Z</time></trkpt><trkpt lat="14.326535651776396" lon="120.98700804371556"><ele>116.0</ele><time>2026-04-04T10:43:33.001Z</time></trkpt><trkpt lat="14.326631215372363" lon="120.98710923059016"><ele>116.0</ele><time>2026-04-04T10:43:34.001Z</time></trkpt><trkpt lat="14.326721086418337" lon="120.98721486526881"><ele>116.0</ele><time>2026-04-04T10:43:35.001Z</time></trkpt><trkpt lat="14.326800278301812" lon="120.98732490719992"><ele>116.0</ele><time>2026-04-04T10:43:36.001Z</time></trkpt><trkpt lat="14.326881043016717" lon="120.9874366259116"><ele>114.0</ele><time>2026-04-04T10:43:37.001Z</time></trkpt><trkpt lat="14.326954366161031" lon="120.98753945551168"><ele>112.0</ele><time>2026-04-04T10:43:38.001Z</time></trkpt><trkpt lat="14.327030566086256" lon="120.98763954496025"><ele>110.0</ele><time>2026-04-04T10:43:39.001Z</time></trkpt><trkpt lat="14.327105999446697" lon="120.98773904201953"><ele>108.0</ele><time>2026-04-04T10:43:40.001Z</time></trkpt><trkpt lat="14.327172290063364" lon="120.98782940179674"><ele>109.2</ele><time>2026-04-04T10:43:41.001Z</time></trkpt><trkpt lat="14.327251154513615" lon="120.9879167533071"><ele>110.4</ele><time>2026-04-04T10:43:42.001Z</time></trkpt><trkpt lat="14.327328821158435" lon="120.98799191224371"><ele>111.60000000000001</ele><time>2026-04-04T10:43:43.001Z</time></trkpt><trkpt lat="14.327414517332718" lon="120.98805902454428"><ele>112.80000000000001</ele><time>2026-04-04T10:43:44.001Z</time></trkpt><trkpt lat="14.32750483088806" lon="120.98811160005619"><ele>114.0</ele><time>2026-04-04T10:43:45.001Z</time></trkpt><trkpt lat="14.327605839115215" lon="120.98815467012723"><ele>114.0</ele><time>2026-04-04T10:43:46.001Z</time></trkpt><trkpt lat="14.327710873800232" lon="120.98818287118334"><ele>114.0</ele><time>2026-04-04T10:43:47.001Z</time></trkpt><trkpt lat="14.327822458835717" lon="120.9881882912397"><ele>114.0</ele><time>2026-04-04T10:43:48.001Z</time></trkpt><trkpt lat="14.3279307405726" lon="120.98818387850416"><ele>114.0</ele><time>2026-04-04T10:43:49.001Z</time></trkpt><trkpt lat="14.328052499630568" lon="120.98817183163739"><ele>114.5</ele><time>2026-04-04T10:43:50.001Z</time></trkpt><trkpt lat="14.328168368901302" lon="120.9881526808705"><ele>115.0</ele><time>2026-04-04T10:43:51.001Z</time></trkpt><trkpt lat="14.328290777014585" lon="120.98812999727352"><ele>115.5</ele><time>2026-04-04T10:43:52.001Z</time></trkpt><trkpt lat="14.328415496402872" lon="120.98810549257456"><ele>116.0</ele><time>2026-04-04T10:43:53.001Z</time></trkpt><trkpt lat="14.328545088778545" lon="120.98808198689483"><ele>116.0</ele><time>2026-04-04T10:43:54.001Z</time></trkpt><trkpt lat="14.328680665545992" lon="120.98805862455548"><ele>116.0</ele><time>2026-04-04T10:43:55.001Z</time></trkpt><trkpt lat="14.32881360939417" lon="120.98803524271513"><ele>116.0</ele><time>2026-04-04T10:43:56.001Z</time></trkpt><trkpt lat="14.328950645575862" lon="120.9880089699448"><ele>116.0</ele><time>2026-04-04T10:43:57.001Z</time></trkpt><trkpt lat="14.329090084022877" lon="120.98798790032207"><ele>115.0</ele><time>2026-04-04T10:43:58.001Z</time></trkpt><trkpt lat="14.3292327084638" lon="120.98796930675803"><ele>114.0</ele><time>2026-04-04T10:43:59.001Z</time></trkpt><trkpt lat="14.329379742282313" lon="120.98795041992605"><ele>113.0</ele><time>2026-04-04T10:44:00.001Z</time></trkpt><trkpt lat="14.329532797612963" lon="120.98793726386275"><ele>112.0</ele><time>2026-04-04T10:44:01.001Z</time></trkpt><trkpt lat="14.329689365557629" lon="120.98792947886888"><ele>111.33333333333334</ele><time>2026-04-04T10:44:02.001Z</time></trkpt><trkpt lat="14.329847876864507" lon="120.98792254296026"><ele>110.66666666666666</ele><time>2026-04-04T10:44:03.001Z</time></trkpt><trkpt lat="14.330005707032859" lon="120.98791958244307"><ele>110.0</ele><time>2026-04-04T10:44:04Z</time></trkpt><trkpt lat="14.330150818078721" lon="120.98791992948361"><ele>110.0</ele><time>2026-04-04T10:44:05Z</time></trkpt><trkpt lat="14.330295072315144" lon="120.98791429731268"><ele>110.0</ele><time>2026-04-04T10:44:06Z</time></trkpt><trkpt lat="14.330436326648385" lon="120.98790929686761"><ele>110.0</ele><time>2026-04-04T10:44:07Z</time></trkpt><trkpt lat="14.330568535683923" lon="120.98790306315585"><ele>110.0</ele><time>2026-04-04T10:44:08Z</time></trkpt><trkpt lat="14.330693006409422" lon="120.9879008059194"><ele>110.75</ele><time>2026-04-04T10:44:09Z</time></trkpt><trkpt lat="14.330810182577183" lon="120.98790352563552"><ele>111.5</ele><time>2026-04-04T10:44:10Z</time></trkpt><trkpt lat="14.330928240875732" lon="120.98790314860356"><ele>112.25</ele><time>2026-04-04T10:44:11Z</time></trkpt><trkpt lat="14.33104660787804" lon="120.98790332060614"><ele>113.0</ele><time>2026-04-04T10:44:12Z</time></trkpt><trkpt lat="14.331159281855523" lon="120.98789859834395"><ele>113.0</ele><time>2026-04-04T10:44:13Z</time></trkpt><trkpt lat="14.331275645692516" lon="120.98788181490714"><ele>113.0</ele><time>2026-04-04T10:44:14Z</time></trkpt><trkpt lat="14.331376848421659" lon="120.98785463344899"><ele>113.0</ele><time>2026-04-04T10:44:15Z</time></trkpt><trkpt lat="14.33149000310237" lon="120.98781503350864"><ele>113.0</ele><time>2026-04-04T10:44:16.001Z</time></trkpt><trkpt lat="14.331601964698923" lon="120.98776297776296"><ele>112.5</ele><time>2026-04-04T10:44:17.001Z</time></trkpt><trkpt lat="14.331716690786685" lon="120.9877105175704"><ele>112.0</ele><time>2026-04-04T10:44:18.001Z</time></trkpt><trkpt lat="14.331838636576283" lon="120.98765898952296"><ele>111.5</ele><time>2026-04-04T10:44:19.001Z</time></trkpt><trkpt lat="14.331961929633609" lon="120.98760787789114"><ele>111.0</ele><time>2026-04-04T10:44:20.001Z</time></trkpt><trkpt lat="14.332075324946056" lon="120.98755891361415"><ele>111.0</ele><time>2026-04-04T10:44:21.001Z</time></trkpt><trkpt lat="14.332178873481084" lon="120.98751422924687"><ele>111.0</ele><time>2026-04-04T10:44:22.001Z</time></trkpt><trkpt lat="14.332274947818497" lon="120.9874704219395"><ele>111.0</ele><time>2026-04-04T10:44:23.001Z</time></trkpt><trkpt lat="14.33235569505751" lon="120.98743123654612"><ele>111.0</ele><time>2026-04-04T10:44:24.001Z</time></trkpt><trkpt lat="14.332434132076358" lon="120.98739076460704"><ele>111.0</ele><time>2026-04-04T10:44:25.001Z</time></trkpt><trkpt lat="14.33251228305813" lon="120.98734813774945"><ele>111.33333333333333</ele><time>2026-04-04T10:44:26.001Z</time></trkpt><trkpt lat="14.332594904889932" lon="120.98730312451215"><ele>111.66666666666666</ele><time>2026-04-04T10:44:27.001Z</time></trkpt><trkpt lat="14.33267324056159" lon="120.98725857725243"><ele>112.0</ele><time>2026-04-04T10:44:28.001Z</time></trkpt><trkpt lat="14.332747266153786" lon="120.98721528148684"><ele>112.33333333333333</ele><time>2026-04-04T10:44:29.001Z</time></trkpt><trkpt lat="14.332820839532657" lon="120.98716988122098"><ele>112.66666666666666</ele><time>2026-04-04T10:44:30.001Z</time></trkpt><trkpt lat="14.332891716372771" lon="120.98712505282856"><ele>113.0</ele><time>2026-04-04T10:44:31.001Z</time></trkpt><trkpt lat="14.332962288869906" lon="120.98707775793447"><ele>113.0</ele><time>2026-04-04T10:44:32.001Z</time></trkpt><trkpt lat="14.333035021207072" lon="120.98702826462032"><ele>113.00000000000001</ele><time>2026-04-04T10:44:33.001Z</time></trkpt><trkpt lat="14.333119493938046" lon="120.98697584932215"><ele>113.00000000000001</ele><time>2026-04-04T10:44:34.001Z</time></trkpt><trkpt lat="14.333217403927257" lon="120.98692264722044"><ele>113.0</ele><time>2026-04-04T10:44:35.001Z</time></trkpt><trkpt lat="14.333320995380063" lon="120.98686119680022"><ele>113.0</ele><time>2026-04-04T10:44:36.001Z</time></trkpt><trkpt lat="14.333431193560969" lon="120.98679325192931"><ele>112.75</ele><time>2026-04-04T10:44:37.001Z</time></trkpt><trkpt lat="14.333546657053162" lon="120.98671901436238"><ele>112.5</ele><time>2026-04-04T10:44:38.001Z</time></trkpt><trkpt lat="14.333659187749895" lon="120.98664862567618"><ele>112.25</ele><time>2026-04-04T10:44:39.001Z</time></trkpt><trkpt lat="14.333761851809884" lon="120.98658330474515"><ele>112.0</ele><time>2026-04-04T10:44:40.001Z</time></trkpt><trkpt lat="14.33386352848404" lon="120.9865165463321"><ele>110.5</ele><time>2026-04-04T10:44:41.001Z</time></trkpt><trkpt lat="14.333964421636336" lon="120.98645527365427"><ele>109.0</ele><time>2026-04-04T10:44:42.001Z</time></trkpt><trkpt lat="14.3340612200037" lon="120.98639292532737"><ele>107.5</ele><time>2026-04-04T10:44:43.001Z</time></trkpt><trkpt lat="14.334158207399277" lon="120.98633264337631"><ele>106.0</ele><time>2026-04-04T10:44:44.001Z</time></trkpt><trkpt lat="14.334248449052465" lon="120.98627398296496"><ele>106.0</ele><time>2026-04-04T10:44:45.001Z</time></trkpt><trkpt lat="14.334341422308842" lon="120.98621881080419"><ele>106.0</ele><time>2026-04-04T10:44:46.001Z</time></trkpt><trkpt lat="14.334437214780094" lon="120.98616901291653"><ele>106.0</ele><time>2026-04-04T10:44:47.001Z</time></trkpt><trkpt lat="14.334539249244033" lon="120.9861226777003"><ele>106.0</ele><time>2026-04-04T10:44:48.001Z</time></trkpt><trkpt lat="14.334657617216067" lon="120.98608479742747"><ele>106.0</ele><time>2026-04-04T10:44:49.001Z</time></trkpt><trkpt lat="14.334789542312029" lon="120.98606604821435"><ele>106.0</ele><time>2026-04-04T10:44:50.001Z</time></trkpt><trkpt lat="14.334922084899338" lon="120.9860508939176"><ele>106.0</ele><time>2026-04-04T10:44:51.001Z</time></trkpt><trkpt lat="14.335042213000163" lon="120.98603798082097"><ele>106.0</ele><time>2026-04-04T10:44:52.001Z</time></trkpt><trkpt lat="14.335162458056411" lon="120.98603119890704"><ele>106.0</ele><time>2026-04-04T10:44:53.001Z</time></trkpt><trkpt lat="14.335283411441957" lon="120.98602870891258"><ele>106.0</ele><time>2026-04-04T10:44:54.001Z</time></trkpt><trkpt lat="14.33540635384442" lon="120.98602458890996"><ele>106.0</ele><time>2026-04-04T10:44:55.001Z</time></trkpt><trkpt lat="14.33553281930027" lon="120.9860211356835"><ele>106.0</ele><time>2026-04-04T10:44:56.001Z</time></trkpt><trkpt lat="14.335658453716531" lon="120.98601884129184"><ele>106.0</ele><time>2026-04-04T10:44:57.001Z</time></trkpt><trkpt lat="14.335784974687469" lon="120.98601217754555"><ele>106.0</ele><time>2026-04-04T10:44:58.001Z</time></trkpt><trkpt lat="14.33591310327821" lon="120.9860094680669"><ele>106.0</ele><time>2026-04-04T10:44:59.001Z</time></trkpt><trkpt lat="14.336045248600538" lon="120.98600481975998"><ele>106.0</ele><time>2026-04-04T10:45:00.001Z</time></trkpt><trkpt lat="14.336170637336048" lon="120.98600020111039"><ele>106.0</ele><time>2026-04-04T10:45:01.001Z</time></trkpt><trkpt lat="14.33629000288263" lon="120.98599873945803"><ele>106.0</ele><time>2026-04-04T10:45:02.001Z</time></trkpt><trkpt lat="14.336417634856826" lon="120.9859972922061"><ele>106.0</ele><time>2026-04-04T10:45:03.001Z</time></trkpt><trkpt lat="14.33653940368079" lon="120.98599651418282"><ele>106.0</ele><time>2026-04-04T10:45:04.001Z</time></trkpt><trkpt lat="14.336652971684908" lon="120.9859883520947"><ele>106.0</ele><time>2026-04-04T10:45:05.001Z</time></trkpt><trkpt lat="14.336760219801368" lon="120.98598535695297"><ele>106.0</ele><time>2026-04-04T10:45:06.001Z</time></trkpt><trkpt lat="14.336866993120303" lon="120.98598122108315"><ele>106.0</ele><time>2026-04-04T10:45:07.001Z</time></trkpt><trkpt lat="14.336971422792091" lon="120.98597585465745"><ele>106.0</ele><time>2026-04-04T10:45:08.001Z</time></trkpt><trkpt lat="14.337072060697816" lon="120.9859704103557"><ele>106.0</ele><time>2026-04-04T10:45:09.001Z</time></trkpt><trkpt lat="14.337173442871439" lon="120.98596540075236"><ele>105.00000000000001</ele><time>2026-04-04T10:45:10.001Z</time></trkpt><trkpt lat="14.337265764000955" lon="120.9859622028569"><ele>104.0</ele><time>2026-04-04T10:45:11.001Z</time></trkpt><trkpt lat="14.337343504968226" lon="120.98595841856444"><ele>103.0</ele><time>2026-04-04T10:45:12.001Z</time></trkpt><trkpt lat="14.337447303133091" lon="120.98594528702918"><ele>102.0</ele><time>2026-04-04T10:45:14.001Z</time></trkpt><trkpt lat="14.337532709509148" lon="120.98593005390221"><ele>101.00000000000001</ele><time>2026-04-04T10:45:17.001Z</time></trkpt><trkpt lat="14.337606162295593" lon="120.98592917383773"><ele>100.0</ele><time>2026-04-04T10:45:20.001Z</time></trkpt><trkpt lat="14.337692978969283" lon="120.98590659861134"><ele>100.0</ele><time>2026-04-04T10:45:22Z</time></trkpt><trkpt lat="14.337825061661288" lon="120.98587316309633"><ele>100.0</ele><time>2026-04-04T10:45:24Z</time></trkpt><trkpt lat="14.337908481004078" lon="120.98584764934067"><ele>100.0</ele><time>2026-04-04T10:45:25Z</time></trkpt><trkpt lat="14.338008857954138" lon="120.98581774139107"><ele>100.0</ele><time>2026-04-04T10:45:26Z</time></trkpt><trkpt lat="14.338116340177505" lon="120.98578872705421"><ele>100.0</ele><time>2026-04-04T10:45:27Z</time></trkpt><trkpt lat="14.338229408967635" lon="120.98576026773384"><ele>100.5</ele><time>2026-04-04T10:45:28Z</time></trkpt><trkpt lat="14.338350909612307" lon="120.98572741825164"><ele>101.0</ele><time>2026-04-04T10:45:29Z</time></trkpt><trkpt lat="14.338470153096532" lon="120.98569785184874"><ele>101.5</ele><time>2026-04-04T10:45:30Z</time></trkpt><trkpt lat="14.338593542486352" lon="120.98566385514874"><ele>102.0</ele><time>2026-04-04T10:45:31Z</time></trkpt><trkpt lat="14.33872448005819" lon="120.98562507399073"><ele>102.0</ele><time>2026-04-04T10:45:32Z</time></trkpt><trkpt lat="14.33885885954883" lon="120.9855887364977"><ele>102.0</ele><time>2026-04-04T10:45:33Z</time></trkpt><trkpt lat="14.33899652462602" lon="120.98555181666445"><ele>102.0</ele><time>2026-04-04T10:45:34Z</time></trkpt><trkpt lat="14.339128290768992" lon="120.98551090513409"><ele>102.0</ele><time>2026-04-04T10:45:35Z</time></trkpt><trkpt lat="14.33925816162792" lon="120.98546898472765"><ele>101.75</ele><time>2026-04-04T10:45:36Z</time></trkpt><trkpt lat="14.339380912480603" lon="120.98543200545288"><ele>101.5</ele><time>2026-04-04T10:45:37Z</time></trkpt><trkpt lat="14.339496614027391" lon="120.98539561687865"><ele>101.25</ele><time>2026-04-04T10:45:38Z</time></trkpt><trkpt lat="14.339603846121687" lon="120.98535557766482"><ele>101.0</ele><time>2026-04-04T10:45:39Z</time></trkpt><trkpt lat="14.339710356957504" lon="120.98530752611973"><ele>100.75</ele><time>2026-04-04T10:45:40Z</time></trkpt><trkpt lat="14.339815333950543" lon="120.98524399702644"><ele>100.5</ele><time>2026-04-04T10:45:41Z</time></trkpt><trkpt lat="14.339920994256616" lon="120.98516501594814"><ele>100.25</ele><time>2026-04-04T10:45:42Z</time></trkpt><trkpt lat="14.340023024300335" lon="120.98507006663003"><ele>100.0</ele><time>2026-04-04T10:45:43Z</time></trkpt><trkpt lat="14.340115583119774" lon="120.98496518972514"><ele>100.0</ele><time>2026-04-04T10:45:44Z</time></trkpt><trkpt lat="14.340206559640105" lon="120.98486276120367"><ele>100.0</ele><time>2026-04-04T10:45:45Z</time></trkpt><trkpt lat="14.340302056291245" lon="120.9847633719494"><ele>100.0</ele><time>2026-04-04T10:45:46Z</time></trkpt><trkpt lat="14.340388859913528" lon="120.98466065927096"><ele>100.0</ele><time>2026-04-04T10:45:47Z</time></trkpt><trkpt lat="14.340481997954845" lon="120.9845561860644"><ele>99.0</ele><time>2026-04-04T10:45:48Z</time></trkpt><trkpt lat="14.34057198268897" lon="120.98446018497987"><ele>98.0</ele><time>2026-04-04T10:45:49Z</time></trkpt><trkpt lat="14.340663204394174" lon="120.9843709273207"><ele>97.0</ele><time>2026-04-04T10:45:50Z</time></trkpt><trkpt lat="14.340773702569843" lon="120.98429131569833"><ele>96.0</ele><time>2026-04-04T10:45:51Z</time></trkpt><trkpt lat="14.34088603548798" lon="120.9842160091681"><ele>96.75</ele><time>2026-04-04T10:45:52Z</time></trkpt><trkpt lat="14.341002542392888" lon="120.98413808195063"><ele>97.5</ele><time>2026-04-04T10:45:53Z</time></trkpt><trkpt lat="14.341120530289286" lon="120.9840763405188"><ele>98.25</ele><time>2026-04-04T10:45:54Z</time></trkpt><trkpt lat="14.34124227063268" lon="120.9840327191404"><ele>99.0</ele><time>2026-04-04T10:45:55Z</time></trkpt><trkpt lat="14.341369444508576" lon="120.98399648436164"><ele>97.75</ele><time>2026-04-04T10:45:56Z</time></trkpt><trkpt lat="14.341503398729207" lon="120.98395745441555"><ele>96.5</ele><time>2026-04-04T10:45:57Z</time></trkpt><trkpt lat="14.341633204683358" lon="120.98392649165457"><ele>95.25</ele><time>2026-04-04T10:45:58Z</time></trkpt><trkpt lat="14.34176649458589" lon="120.98390439745341"><ele>94.0</ele><time>2026-04-04T10:45:59Z</time></trkpt><trkpt lat="14.341906896852274" lon="120.98388720455947"><ele>94.0</ele><time>2026-04-04T10:46:00Z</time></trkpt><trkpt lat="14.342043393445636" lon="120.98386727484517"><ele>94.0</ele><time>2026-04-04T10:46:01Z</time></trkpt><trkpt lat="14.34218049541999" lon="120.98384246189207"><ele>94.0</ele><time>2026-04-04T10:46:02Z</time></trkpt><trkpt lat="14.342303940772608" lon="120.98381504193874"><ele>94.0</ele><time>2026-04-04T10:46:03Z</time></trkpt><trkpt lat="14.342416391647149" lon="120.98378026963344"><ele>94.0</ele><time>2026-04-04T10:46:04Z</time></trkpt><trkpt lat="14.34252883808504" lon="120.98372334871205"><ele>94.0</ele><time>2026-04-04T10:46:05Z</time></trkpt><trkpt lat="14.34263755865277" lon="120.9836573248252"><ele>94.0</ele><time>2026-04-04T10:46:06Z</time></trkpt><trkpt lat="14.342733548468455" lon="120.98358606224606"><ele>94.0</ele><time>2026-04-04T10:46:07Z</time></trkpt><trkpt lat="14.34282842087366" lon="120.98350311852458"><ele>94.0</ele><time>2026-04-04T10:46:08Z</time></trkpt><trkpt lat="14.342920942463403" lon="120.98341378586149"><ele>94.0</ele><time>2026-04-04T10:46:09Z</time></trkpt><trkpt lat="14.343021559707557" lon="120.98331854661801"><ele>94.0</ele><time>2026-04-04T10:46:10Z</time></trkpt><trkpt lat="14.343124237302455" lon="120.98322391800177"><ele>94.0</ele><time>2026-04-04T10:46:11Z</time></trkpt><trkpt lat="14.343230914349435" lon="120.98312745291659"><ele>94.0</ele><time>2026-04-04T10:46:12Z</time></trkpt><trkpt lat="14.343340937630245" lon="120.98302950714364"><ele>94.0</ele><time>2026-04-04T10:46:13Z</time></trkpt><trkpt lat="14.343456842784395" lon="120.98292942766068"><ele>94.0</ele><time>2026-04-04T10:46:14Z</time></trkpt><trkpt lat="14.343574532337186" lon="120.98282254969538"><ele>94.0</ele><time>2026-04-04T10:46:15Z</time></trkpt><trkpt lat="14.343696380152927" lon="120.98271011567105"><ele>94.0</ele><time>2026-04-04T10:46:16Z</time></trkpt><trkpt lat="14.343818578219791" lon="120.98259189307792"><ele>94.0</ele><time>2026-04-04T10:46:17Z</time></trkpt><trkpt lat="14.343937502418076" lon="120.9824727500815"><ele>93.0</ele><time>2026-04-04T10:46:18Z</time></trkpt><trkpt lat="14.344049351258471" lon="120.9823709044103"><ele>92.0</ele><time>2026-04-04T10:46:19Z</time></trkpt><trkpt lat="14.344156682959525" lon="120.98227965518707"><ele>91.0</ele><time>2026-04-04T10:46:20Z</time></trkpt><trkpt lat="14.344257781421188" lon="120.98219594946599"><ele>90.0</ele><time>2026-04-04T10:46:21Z</time></trkpt><trkpt lat="14.344351868177878" lon="120.98213218181073"><ele>90.0</ele><time>2026-04-04T10:46:22.001Z</time></trkpt><trkpt lat="14.34444979949294" lon="120.98208085452724"><ele>90.0</ele><time>2026-04-04T10:46:23.001Z</time></trkpt><trkpt lat="14.344538709139409" lon="120.98203199945976"><ele>90.0</ele><time>2026-04-04T10:46:24.001Z</time></trkpt><trkpt lat="14.344619924477131" lon="120.9819903230803"><ele>90.0</ele><time>2026-04-04T10:46:25.001Z</time></trkpt><trkpt lat="14.344694740459852" lon="120.98195256345532"><ele>90.0</ele><time>2026-04-04T10:46:26.001Z</time></trkpt><trkpt lat="14.344766720088275" lon="120.9819248090043"><ele>89.85714285714285</ele><time>2026-04-04T10:46:27.001Z</time></trkpt><trkpt lat="14.344839006024191" lon="120.98190079350731"><ele>89.71428571428572</ele><time>2026-04-04T10:46:28.001Z</time></trkpt><trkpt lat="14.344900182742888" lon="120.98188227670548"><ele>89.57142857142857</ele><time>2026-04-04T10:46:29.001Z</time></trkpt><trkpt lat="14.344963046124246" lon="120.98186632258519"><ele>89.42857142857142</ele><time>2026-04-04T10:46:30.001Z</time></trkpt><trkpt lat="14.345028941607785" lon="120.98184805446492"><ele>89.28571428571428</ele><time>2026-04-04T10:46:31.001Z</time></trkpt><trkpt lat="14.345096015352015" lon="120.98182970369933"><ele>89.14285714285714</ele><time>2026-04-04T10:46:32.001Z</time></trkpt><trkpt lat="14.345166683208367" lon="120.98181122998086"><ele>89.0</ele><time>2026-04-04T10:46:33.001Z</time></trkpt><trkpt lat="14.345247360945896" lon="120.98179263290722"><ele>89.0</ele><time>2026-04-04T10:46:34.001Z</time></trkpt><trkpt lat="14.345337454307526" lon="120.98177506691555"><ele>89.0</ele><time>2026-04-04T10:46:35.001Z</time></trkpt><trkpt lat="14.345426600497284" lon="120.9817576723749"><ele>89.0</ele><time>2026-04-04T10:46:36.001Z</time></trkpt><trkpt lat="14.345507737229067" lon="120.9817438132887"><ele>89.0</ele><time>2026-04-04T10:46:37.001Z</time></trkpt><trkpt lat="14.345581352541876" lon="120.98173559248418"><ele>89.0</ele><time>2026-04-04T10:46:38.001Z</time></trkpt><trkpt lat="14.345664655202073" lon="120.98172720720659"><ele>89.0</ele><time>2026-04-04T10:46:39.001Z</time></trkpt><trkpt lat="14.345751845274021" lon="120.98171446114456"><ele>89.0</ele><time>2026-04-04T10:46:40.001Z</time></trkpt><trkpt lat="14.345837567224887" lon="120.98169626380205"><ele>89.0</ele><time>2026-04-04T10:46:41.001Z</time></trkpt><trkpt lat="14.345910386831795" lon="120.98167746662311"><ele>89.0</ele><time>2026-04-04T10:46:42.001Z</time></trkpt><trkpt lat="14.345974560170388" lon="120.98166247574468"><ele>89.0</ele><time>2026-04-04T10:46:43.001Z</time></trkpt><trkpt lat="14.346086977472241" lon="120.98164222072607"><ele>89.0</ele><time>2026-04-04T10:46:45.001Z</time></trkpt><trkpt lat="14.346207610532254" lon="120.98161740270618"><ele>89.0</ele><time>2026-04-04T10:46:47.001Z</time></trkpt><trkpt lat="14.3463015070483" lon="120.98159412715486"><ele>89.0</ele><time>2026-04-04T10:46:49.001Z</time></trkpt><trkpt lat="14.34638122386598" lon="120.9815744272801"><ele>89.0</ele><time>2026-04-04T10:46:51.001Z</time></trkpt><trkpt lat="14.346468480630628" lon="120.98155897754982"><ele>89.0</ele><time>2026-04-04T10:46:53.001Z</time></trkpt><trkpt lat="14.346535342189672" lon="120.98154825474148"><ele>89.0</ele><time>2026-04-04T10:46:55Z</time></trkpt><trkpt lat="14.346604984245834" lon="120.98153577072364"><ele>89.0</ele><time>2026-04-04T10:46:57Z</time></trkpt><trkpt lat="14.34667888695659" lon="120.98152133446516"><ele>89.0</ele><time>2026-04-04T10:46:59Z</time></trkpt><trkpt lat="14.346774690259803" lon="120.98150541243736"><ele>89.0</ele><time>2026-04-04T10:47:01Z</time></trkpt><trkpt lat="14.34690415428529" lon="120.98147819074043"><ele>89.0</ele><time>2026-04-04T10:47:03Z</time></trkpt><trkpt lat="14.346990815331607" lon="120.9814611044466"><ele>89.0</ele><time>2026-04-04T10:47:04Z</time></trkpt><trkpt lat="14.347089608869636" lon="120.98143323395223"><ele>89.0</ele><time>2026-04-04T10:47:05Z</time></trkpt><trkpt lat="14.347192592018924" lon="120.98140720680813"><ele>89.0</ele><time>2026-04-04T10:47:06Z</time></trkpt><trkpt lat="14.347298125869088" lon="120.98138633348825"><ele>89.0</ele><time>2026-04-04T10:47:07Z</time></trkpt><trkpt lat="14.347403733865665" lon="120.98136747763664"><ele>89.0</ele><time>2026-04-04T10:47:08Z</time></trkpt><trkpt lat="14.347497988593325" lon="120.98135149792869"><ele>89.0</ele><time>2026-04-04T10:47:09Z</time></trkpt><trkpt lat="14.347594600817295" lon="120.98132938947225"><ele>89.0</ele><time>2026-04-04T10:47:10Z</time></trkpt><trkpt lat="14.347678201749964" lon="120.98131297699506"><ele>89.0</ele><time>2026-04-04T10:47:11Z</time></trkpt><trkpt lat="14.34776343792271" lon="120.98129727222069"><ele>89.0</ele><time>2026-04-04T10:47:12Z</time></trkpt><trkpt lat="14.347846781308686" lon="120.98128270626114"><ele>89.0</ele><time>2026-04-04T10:47:13Z</time></trkpt><trkpt lat="14.347920506426378" lon="120.98126740369817"><ele>89.0</ele><time>2026-04-04T10:47:14Z</time></trkpt><trkpt lat="14.347993932521751" lon="120.98125441499037"><ele>89.0</ele><time>2026-04-04T10:47:15Z</time></trkpt><trkpt lat="14.348058010380122" lon="120.98124393791498"><ele>89.0</ele><time>2026-04-04T10:47:16Z</time></trkpt><trkpt lat="14.34816637507959" lon="120.98122024625114"><ele>88.6</ele><time>2026-04-04T10:47:18Z</time></trkpt><trkpt lat="14.348274867810789" lon="120.98118745866583"><ele>88.2</ele><time>2026-04-04T10:47:20Z</time></trkpt><trkpt lat="14.348367894097114" lon="120.98116644816615"><ele>87.8</ele><time>2026-04-04T10:47:22Z</time></trkpt><trkpt lat="14.348495531424344" lon="120.98113655104366"><ele>87.39999999999999</ele><time>2026-04-04T10:47:24Z</time></trkpt><trkpt lat="14.34859024265593" lon="120.98112521166304"><ele>87.0</ele><time>2026-04-04T10:47:25Z</time></trkpt><trkpt lat="14.348694261374249" lon="120.98111603660585"><ele>87.0</ele><time>2026-04-04T10:47:26Z</time></trkpt><trkpt lat="14.348788735813205" lon="120.9811048330106"><ele>87.0</ele><time>2026-04-04T10:47:27Z</time></trkpt><trkpt lat="14.34887836201076" lon="120.98109264150641"><ele>87.0</ele><time>2026-04-04T10:47:28Z</time></trkpt><trkpt lat="14.348956648455813" lon="120.98107777069256"><ele>87.0</ele><time>2026-04-04T10:47:29Z</time></trkpt><trkpt lat="14.349030053999666" lon="120.9810640881026"><ele>87.0</ele><time>2026-04-04T10:47:30Z</time></trkpt><trkpt lat="14.349092971179482" lon="120.98105095190238"><ele>87.0</ele><time>2026-04-04T10:47:31Z</time></trkpt><trkpt lat="14.349161633756863" lon="120.98103622139548"><ele>87.0</ele><time>2026-04-04T10:47:32Z</time></trkpt><trkpt lat="14.349233785238214" lon="120.98102254212647"><ele>87.0</ele><time>2026-04-04T10:47:33Z</time></trkpt><trkpt lat="14.34931166171576" lon="120.98100851423969"><ele>87.0</ele><time>2026-04-04T10:47:34Z</time></trkpt><trkpt lat="14.349393820776434" lon="120.98099431454733"><ele>87.0</ele><time>2026-04-04T10:47:35Z</time></trkpt><trkpt lat="14.349480897950297" lon="120.98097691667064"><ele>87.0</ele><time>2026-04-04T10:47:36Z</time></trkpt><trkpt lat="14.34956925634797" lon="120.98096532786407"><ele>87.0</ele><time>2026-04-04T10:47:37Z</time></trkpt><trkpt lat="14.349655475008985" lon="120.9809518106674"><ele>86.33333333333333</ele><time>2026-04-04T10:47:38Z</time></trkpt><trkpt lat="14.34973297141225" lon="120.98093950763818"><ele>85.66666666666667</ele><time>2026-04-04T10:47:39Z</time></trkpt><trkpt lat="14.349804110760376" lon="120.98093286847755"><ele>85.0</ele><time>2026-04-04T10:47:40Z</time></trkpt><trkpt lat="14.349873719907698" lon="120.98092609091705"><ele>84.33333333333334</ele><time>2026-04-04T10:47:41Z</time></trkpt><trkpt lat="14.349939346736615" lon="120.98092017873464"><ele>83.66666666666667</ele><time>2026-04-04T10:47:42Z</time></trkpt><trkpt lat="14.350061984084467" lon="120.98090829061215"><ele>83.0</ele><time>2026-04-04T10:47:44Z</time></trkpt><trkpt lat="14.350136457192228" lon="120.98090504283775"><ele>83.0</ele><time>2026-04-04T10:47:45Z</time></trkpt><trkpt lat="14.350203500666431" lon="120.98090413279485"><ele>83.0</ele><time>2026-04-04T10:47:46Z</time></trkpt><trkpt lat="14.350266689907222" lon="120.98090042779809"><ele>83.0</ele><time>2026-04-04T10:47:47Z</time></trkpt><trkpt lat="14.35033483584128" lon="120.9809016483763"><ele>83.0</ele><time>2026-04-04T10:47:48Z</time></trkpt><trkpt lat="14.350414091781063" lon="120.98091125886366"><ele>83.0</ele><time>2026-04-04T10:47:49Z</time></trkpt><trkpt lat="14.350497003324858" lon="120.98092493984645"><ele>83.0</ele><time>2026-04-04T10:47:50Z</time></trkpt><trkpt lat="14.350582690456896" lon="120.98093722440937"><ele>83.0</ele><time>2026-04-04T10:47:51Z</time></trkpt><trkpt lat="14.35067505014585" lon="120.98095225001195"><ele>82.0</ele><time>2026-04-04T10:47:52Z</time></trkpt><trkpt lat="14.350771659841605" lon="120.98096410637503"><ele>81.0</ele><time>2026-04-04T10:47:53Z</time></trkpt><trkpt lat="14.350873452886358" lon="120.98097327116291"><ele>80.0</ele><time>2026-04-04T10:47:54Z</time></trkpt><trkpt lat="14.350976416577502" lon="120.98098248486589"><ele>79.0</ele><time>2026-04-04T10:47:55Z</time></trkpt><trkpt lat="14.351084201862195" lon="120.9809941608424"><ele>78.0</ele><time>2026-04-04T10:47:56Z</time></trkpt><trkpt lat="14.351194789735569" lon="120.98100532133684"><ele>78.0</ele><time>2026-04-04T10:47:57Z</time></trkpt><trkpt lat="14.351307558185175" lon="120.9810188410289"><ele>78.0</ele><time>2026-04-04T10:47:58Z</time></trkpt><trkpt lat="14.351422056527538" lon="120.98103291917612"><ele>78.0</ele><time>2026-04-04T10:47:59Z</time></trkpt><trkpt lat="14.351536384776034" lon="120.98104354426067"><ele>78.0</ele><time>2026-04-04T10:48:00Z</time></trkpt><trkpt lat="14.351656002709314" lon="120.98105662270083"><ele>76.75</ele><time>2026-04-04T10:48:01Z</time></trkpt><trkpt lat="14.35177258389959" lon="120.98106891790435"><ele>75.5</ele><time>2026-04-04T10:48:02Z</time></trkpt><trkpt lat="14.351894786286032" lon="120.98108629906375"><ele>74.25</ele><time>2026-04-04T10:48:03Z</time></trkpt><trkpt lat="14.352016720341743" lon="120.98110276093514"><ele>73.0</ele><time>2026-04-04T10:48:04Z</time></trkpt><trkpt lat="14.352139159000794" lon="120.98111837261447"><ele>73.0</ele><time>2026-04-04T10:48:05Z</time></trkpt><trkpt lat="14.35226329484187" lon="120.98113020510145"><ele>73.0</ele><time>2026-04-04T10:48:06Z</time></trkpt><trkpt lat="14.352387152856059" lon="120.98114221507103"><ele>73.0</ele><time>2026-04-04T10:48:07Z</time></trkpt><trkpt lat="14.352514493355692" lon="120.98115541740495"><ele>73.0</ele><time>2026-04-04T10:48:08Z</time></trkpt><trkpt lat="14.35263606103841" lon="120.98116652163777"><ele>73.0</ele><time>2026-04-04T10:48:09Z</time></trkpt><trkpt lat="14.352743329506405" lon="120.98117877319183"><ele>73.0</ele><time>2026-04-04T10:48:10Z</time></trkpt><trkpt lat="14.352837093045391" lon="120.98118635517284"><ele>73.0</ele><time>2026-04-04T10:48:11Z</time></trkpt><trkpt lat="14.352920489581534" lon="120.98119466577728"><ele>73.0</ele><time>2026-04-04T10:48:12Z</time></trkpt><trkpt lat="14.35298672290839" lon="120.98120207045058"><ele>73.0</ele><time>2026-04-04T10:48:13Z</time></trkpt><trkpt lat="14.353091978218739" lon="120.98121354922469"><ele>74.2</ele><time>2026-04-04T10:48:15Z</time></trkpt><trkpt lat="14.353197616337633" lon="120.98122382594403"><ele>75.4</ele><time>2026-04-04T10:48:17Z</time></trkpt><trkpt lat="14.353315551143002" lon="120.98123678487559"><ele>76.60000000000001</ele><time>2026-04-04T10:48:19Z</time></trkpt><trkpt lat="14.353401510238756" lon="120.98124822478474"><ele>77.8</ele><time>2026-04-04T10:48:21Z</time></trkpt><trkpt lat="14.353469548484409" lon="120.98125862935447"><ele>79.0</ele><time>2026-04-04T10:48:23Z</time></trkpt><trkpt lat="14.353551278999738" lon="120.98126546347149"><ele>79.0</ele><time>2026-04-04T10:48:25Z</time></trkpt><trkpt lat="14.353654973630746" lon="120.98127171921742"><ele>79.0</ele><time>2026-04-04T10:48:27.001Z</time></trkpt><trkpt lat="14.35372355135187" lon="120.9812791326271"><ele>79.0</ele><time>2026-04-04T10:48:28.001Z</time></trkpt><trkpt lat="14.353810816447218" lon="120.98128234446793"><ele>79.0</ele><time>2026-04-04T10:48:29.001Z</time></trkpt><trkpt lat="14.353908299757288" lon="120.98129142285728"><ele>79.0</ele><time>2026-04-04T10:48:30.001Z</time></trkpt><trkpt lat="14.354002972711868" lon="120.98130217183963"><ele>79.6</ele><time>2026-04-04T10:48:31.001Z</time></trkpt><trkpt lat="14.354109227268715" lon="120.98131335967456"><ele>80.2</ele><time>2026-04-04T10:48:32.001Z</time></trkpt><trkpt lat="14.3542083141712" lon="120.98132457999122"><ele>80.8</ele><time>2026-04-04T10:48:33.001Z</time></trkpt><trkpt lat="14.354314957875326" lon="120.98133786576169"><ele>81.39999999999999</ele><time>2026-04-04T10:48:34.001Z</time></trkpt><trkpt lat="14.35442090095447" lon="120.9813516058394"><ele>82.0</ele><time>2026-04-04T10:48:35.001Z</time></trkpt><trkpt lat="14.354533652662008" lon="120.98136118627119"><ele>82.0</ele><time>2026-04-04T10:48:36.001Z</time></trkpt><trkpt lat="14.354646586843824" lon="120.98137304799675"><ele>82.0</ele><time>2026-04-04T10:48:37.001Z</time></trkpt><trkpt lat="14.354758432675977" lon="120.98138950584583"><ele>82.0</ele><time>2026-04-04T10:48:38.001Z</time></trkpt><trkpt lat="14.354877436641397" lon="120.98141255686545"><ele>82.0</ele><time>2026-04-04T10:48:39.001Z</time></trkpt><trkpt lat="14.35499154721901" lon="120.9814259686454"><ele>82.39999999999999</ele><time>2026-04-04T10:48:40.001Z</time></trkpt><trkpt lat="14.355101131730617" lon="120.9814389709384"><ele>82.8</ele><time>2026-04-04T10:48:41.001Z</time></trkpt><trkpt lat="14.355199227874115" lon="120.9814518395919"><ele>83.2</ele><time>2026-04-04T10:48:42.001Z</time></trkpt><trkpt lat="14.3552966918769" lon="120.98146460624736"><ele>83.6</ele><time>2026-04-04T10:48:43.001Z</time></trkpt><trkpt lat="14.355397556647963" lon="120.98147582876148"><ele>84.0</ele><time>2026-04-04T10:48:44.001Z</time></trkpt><trkpt lat="14.355500959841041" lon="120.98148579483606"><ele>83.6</ele><time>2026-04-04T10:48:45Z</time></trkpt><trkpt lat="14.355611882892763" lon="120.98149851647753"><ele>83.2</ele><time>2026-04-04T10:48:46Z</time></trkpt><trkpt lat="14.355722354764074" lon="120.98150902378207"><ele>82.8</ele><time>2026-04-04T10:48:47Z</time></trkpt><trkpt lat="14.355821335500854" lon="120.98151521880322"><ele>82.39999999999999</ele><time>2026-04-04T10:48:48Z</time></trkpt><trkpt lat="14.355911713395667" lon="120.9815216535839"><ele>82.0</ele><time>2026-04-04T10:48:49Z</time></trkpt><trkpt lat="14.356004943647086" lon="120.98152932670357"><ele>82.0</ele><time>2026-04-04T10:48:50Z</time></trkpt><trkpt lat="14.356114938007597" lon="120.98154306367944"><ele>82.0</ele><time>2026-04-04T10:48:51Z</time></trkpt><trkpt lat="14.356229063310696" lon="120.98155823330359"><ele>82.0</ele><time>2026-04-04T10:48:52Z</time></trkpt><trkpt lat="14.35635424759834" lon="120.9815736288151"><ele>82.0</ele><time>2026-04-04T10:48:53Z</time></trkpt><trkpt lat="14.35647801146922" lon="120.98158812401917"><ele>81.25</ele><time>2026-04-04T10:48:54Z</time></trkpt><trkpt lat="14.356611652505265" lon="120.9815992846075"><ele>80.5</ele><time>2026-04-04T10:48:55Z</time></trkpt><trkpt lat="14.356741613655144" lon="120.98161394775853"><ele>79.75</ele><time>2026-04-04T10:48:56Z</time></trkpt><trkpt lat="14.356880429030165" lon="120.98162789073518"><ele>79.0</ele><time>2026-04-04T10:48:57Z</time></trkpt><trkpt lat="14.357017318739802" lon="120.98164204856734"><ele>79.0</ele><time>2026-04-04T10:48:58Z</time></trkpt><trkpt lat="14.357156510181312" lon="120.9816540982011"><ele>79.0</ele><time>2026-04-04T10:48:59Z</time></trkpt><trkpt lat="14.357291121545268" lon="120.98166625492223"><ele>79.0</ele><time>2026-04-04T10:49:00Z</time></trkpt><trkpt lat="14.35741888466048" lon="120.98167740229472"><ele>79.0</ele><time>2026-04-04T10:49:01Z</time></trkpt><trkpt lat="14.35753791109575" lon="120.98168723971486"><ele>77.83333333333333</ele><time>2026-04-04T10:49:02Z</time></trkpt><trkpt lat="14.35765131411675" lon="120.9816961644117"><ele>76.66666666666666</ele><time>2026-04-04T10:49:03Z</time></trkpt><trkpt lat="14.35774763762566" lon="120.98170559621286"><ele>75.5</ele><time>2026-04-04T10:49:04Z</time></trkpt><trkpt lat="14.357833430952988" lon="120.9817179104649"><ele>74.33333333333333</ele><time>2026-04-04T10:49:05Z</time></trkpt><trkpt lat="14.357907092078257" lon="120.9817265971459"><ele>73.16666666666667</ele><time>2026-04-04T10:49:06Z</time></trkpt><trkpt lat="14.357981292873589" lon="120.98172582014458"><ele>72.0</ele><time>2026-04-04T10:49:07Z</time></trkpt><trkpt lat="14.358056416570715" lon="120.9817255379802"><ele>72.0</ele><time>2026-04-04T10:49:08Z</time></trkpt><trkpt lat="14.358133965181725" lon="120.98172823004793"><ele>72.0</ele><time>2026-04-04T10:49:09Z</time></trkpt><trkpt lat="14.358219923714884" lon="120.98173065230073"><ele>72.0</ele><time>2026-04-04T10:49:10Z</time></trkpt><trkpt lat="14.358294817885906" lon="120.98173346789338"><ele>72.0</ele><time>2026-04-04T10:49:11Z</time></trkpt><trkpt lat="14.358367304382567" lon="120.98173381977902"><ele>72.0</ele><time>2026-04-04T10:49:12Z</time></trkpt><trkpt lat="14.358441402402068" lon="120.98173294786139"><ele>72.0</ele><time>2026-04-04T10:49:13Z</time></trkpt><trkpt lat="14.358519940910469" lon="120.9817311148301"><ele>72.0</ele><time>2026-04-04T10:49:14Z</time></trkpt><trkpt lat="14.358607623980147" lon="120.98173180629179"><ele>72.0</ele><time>2026-04-04T10:49:15Z</time></trkpt><trkpt lat="14.358689934353125" lon="120.98173390399707"><ele>72.0</ele><time>2026-04-04T10:49:16Z</time></trkpt><trkpt lat="14.358784506979736" lon="120.98173385285496"><ele>72.0</ele><time>2026-04-04T10:49:17Z</time></trkpt><trkpt lat="14.358878993043744" lon="120.98173407207612"><ele>72.0</ele><time>2026-04-04T10:49:18Z</time></trkpt><trkpt lat="14.358971897626015" lon="120.98173552016104"><ele>72.0</ele><time>2026-04-04T10:49:19Z</time></trkpt><trkpt lat="14.359064462258752" lon="120.98173603517228"><ele>72.0</ele><time>2026-04-04T10:49:20Z</time></trkpt><trkpt lat="14.35916089953838" lon="120.98173468375454"><ele>72.0</ele><time>2026-04-04T10:49:21Z</time></trkpt><trkpt lat="14.359259491933305" lon="120.9817319786131"><ele>72.0</ele><time>2026-04-04T10:49:22Z</time></trkpt><trkpt lat="14.359364099572907" lon="120.98173155794638"><ele>72.0</ele><time>2026-04-04T10:49:23Z</time></trkpt><trkpt lat="14.359467678545132" lon="120.98173283589479"><ele>72.0</ele><time>2026-04-04T10:49:24Z</time></trkpt><trkpt lat="14.359576082757314" lon="120.98173225697919"><ele>72.0</ele><time>2026-04-04T10:49:25Z</time></trkpt><trkpt lat="14.359688521374666" lon="120.98173372503081"><ele>72.0</ele><time>2026-04-04T10:49:26Z</time></trkpt><trkpt lat="14.359802827646837" lon="120.98173354825828"><ele>72.0</ele><time>2026-04-04T10:49:27Z</time></trkpt><trkpt lat="14.35991669502424" lon="120.9817337873607"><ele>72.0</ele><time>2026-04-04T10:49:28Z</time></trkpt><trkpt lat="14.360025109677848" lon="120.98173101374576"><ele>71.0</ele><time>2026-04-04T10:49:29Z</time></trkpt><trkpt lat="14.360126834902594" lon="120.98173052479208"><ele>70.0</ele><time>2026-04-04T10:49:30Z</time></trkpt><trkpt lat="14.360224463969816" lon="120.98172987969237"><ele>69.0</ele><time>2026-04-04T10:49:31Z</time></trkpt><trkpt lat="14.36031937045403" lon="120.98172870827163"><ele>68.0</ele><time>2026-04-04T10:49:32Z</time></trkpt><trkpt lat="14.360414240606618" lon="120.98172727111803"><ele>67.0</ele><time>2026-04-04T10:49:33Z</time></trkpt><trkpt lat="14.360506265483384" lon="120.98172910599781"><ele>66.8</ele><time>2026-04-04T10:49:34Z</time></trkpt><trkpt lat="14.360610697373879" lon="120.98172880805164"><ele>66.6</ele><time>2026-04-04T10:49:35Z</time></trkpt><trkpt lat="14.360710140657467" lon="120.98173229070352"><ele>66.39999999999999</ele><time>2026-04-04T10:49:36Z</time></trkpt><trkpt lat="14.360824359864072" lon="120.98173267031244"><ele>66.2</ele><time>2026-04-04T10:49:37Z</time></trkpt><trkpt lat="14.360938666902346" lon="120.9817356283647"><ele>66.0</ele><time>2026-04-04T10:49:38Z</time></trkpt><trkpt lat="14.361058486827622" lon="120.9817365465845"><ele>66.0</ele><time>2026-04-04T10:49:39Z</time></trkpt><trkpt lat="14.361176987690815" lon="120.981739664067"><ele>66.0</ele><time>2026-04-04T10:49:40Z</time></trkpt><trkpt lat="14.361300260780194" lon="120.98173890738745"><ele>66.0</ele><time>2026-04-04T10:49:41Z</time></trkpt><trkpt lat="14.361424785054151" lon="120.98173836094105"><ele>66.0</ele><time>2026-04-04T10:49:42Z</time></trkpt><trkpt lat="14.361546495976858" lon="120.98173437002852"><ele>66.5</ele><time>2026-04-04T10:49:43Z</time></trkpt><trkpt lat="14.361665202968274" lon="120.98173271508345"><ele>67.0</ele><time>2026-04-04T10:49:44Z</time></trkpt><trkpt lat="14.361774380412315" lon="120.98173134480503"><ele>67.5</ele><time>2026-04-04T10:49:45Z</time></trkpt><trkpt lat="14.361891000603784" lon="120.98172815088836"><ele>68.0</ele><time>2026-04-04T10:49:46Z</time></trkpt><trkpt lat="14.362004559623394" lon="120.98172781987816"><ele>68.0</ele><time>2026-04-04T10:49:47Z</time></trkpt><trkpt lat="14.362129203600183" lon="120.98172871749077"><ele>68.0</ele><time>2026-04-04T10:49:48Z</time></trkpt><trkpt lat="14.362247464431276" lon="120.98172928856407"><ele>68.0</ele><time>2026-04-04T10:49:49Z</time></trkpt><trkpt lat="14.362366566615679" lon="120.98172954011378"><ele>68.0</ele><time>2026-04-04T10:49:50Z</time></trkpt><trkpt lat="14.362491711914073" lon="120.98172789921641"><ele>68.25</ele><time>2026-04-04T10:49:51Z</time></trkpt><trkpt lat="14.362617352846959" lon="120.98172675108653"><ele>68.5</ele><time>2026-04-04T10:49:52Z</time></trkpt><trkpt lat="14.362745806122186" lon="120.9817279172574"><ele>68.75</ele><time>2026-04-04T10:49:53Z</time></trkpt><trkpt lat="14.36287376396615" lon="120.98172808559407"><ele>69.0</ele><time>2026-04-04T10:49:54Z</time></trkpt><trkpt lat="14.36299356155763" lon="120.98173076563002"><ele>70.0</ele><time>2026-04-04T10:49:55Z</time></trkpt><trkpt lat="14.363116087563402" lon="120.98172551978281"><ele>71.0</ele><time>2026-04-04T10:49:56Z</time></trkpt><trkpt lat="14.36323573018453" lon="120.98172438869071"><ele>72.0</ele><time>2026-04-04T10:49:57Z</time></trkpt><trkpt lat="14.363353787760612" lon="120.981726798241"><ele>73.0</ele><time>2026-04-04T10:49:58Z</time></trkpt><trkpt lat="14.363468210454725" lon="120.98173497460012"><ele>73.0</ele><time>2026-04-04T10:49:59Z</time></trkpt><trkpt lat="14.3635845785405" lon="120.98173820949285"><ele>73.0</ele><time>2026-04-04T10:50:00Z</time></trkpt><trkpt lat="14.363709251126506" lon="120.98173724182377"><ele>73.0</ele><time>2026-04-04T10:50:01Z</time></trkpt><trkpt lat="14.363839295201677" lon="120.98173478466795"><ele>73.0</ele><time>2026-04-04T10:50:02Z</time></trkpt><trkpt lat="14.363971683518686" lon="120.98173547032732"><ele>71.75</ele><time>2026-04-04T10:50:03Z</time></trkpt><trkpt lat="14.364104168945076" lon="120.98173674774586"><ele>70.5</ele><time>2026-04-04T10:50:04Z</time></trkpt><trkpt lat="14.364240811805553" lon="120.98173682343294"><ele>69.25</ele><time>2026-04-04T10:50:05Z</time></trkpt><trkpt lat="14.364376505745872" lon="120.98173881079798"><ele>68.0</ele><time>2026-04-04T10:50:06Z</time></trkpt><trkpt lat="14.364519543638936" lon="120.98173578352169"><ele>68.0</ele><time>2026-04-04T10:50:07Z</time></trkpt><trkpt lat="14.364661936698498" lon="120.98173409742374"><ele>68.0</ele><time>2026-04-04T10:50:08Z</time></trkpt><trkpt lat="14.364803669603901" lon="120.9817340056036"><ele>68.0</ele><time>2026-04-04T10:50:09Z</time></trkpt><trkpt lat="14.364948300283704" lon="120.9817346652101"><ele>68.0</ele><time>2026-04-04T10:50:10Z</time></trkpt><trkpt lat="14.365093331832236" lon="120.98173513459382"><ele>67.25</ele><time>2026-04-04T10:50:11Z</time></trkpt><trkpt lat="14.365240896809208" lon="120.9817320285859"><ele>66.5</ele><time>2026-04-04T10:50:12Z</time></trkpt><trkpt lat="14.365389107433497" lon="120.98173072816576"><ele>65.75</ele><time>2026-04-04T10:50:13Z</time></trkpt><trkpt lat="14.365534864092686" lon="120.98173197788635"><ele>65.0</ele><time>2026-04-04T10:50:14Z</time></trkpt><trkpt lat="14.36568248509995" lon="120.98173294289562"><ele>64.75</ele><time>2026-04-04T10:50:15Z</time></trkpt><trkpt lat="14.365831377106586" lon="120.98173126414079"><ele>64.5</ele><time>2026-04-04T10:50:16Z</time></trkpt><trkpt lat="14.365976887070767" lon="120.9817321159372"><ele>64.25</ele><time>2026-04-04T10:50:17Z</time></trkpt><trkpt lat="14.366122179053006" lon="120.98173225371957"><ele>64.0</ele><time>2026-04-04T10:50:18Z</time></trkpt><trkpt lat="14.366267268370663" lon="120.98172893282765"><ele>64.25</ele><time>2026-04-04T10:50:19Z</time></trkpt><trkpt lat="14.366411128830363" lon="120.98172868992889"><ele>64.5</ele><time>2026-04-04T10:50:20Z</time></trkpt><trkpt lat="14.36655316150362" lon="120.98172710716447"><ele>64.75</ele><time>2026-04-04T10:50:21Z</time></trkpt><trkpt lat="14.366693369588573" lon="120.98171896719411"><ele>65.0</ele><time>2026-04-04T10:50:22Z</time></trkpt><trkpt lat="14.366832685984624" lon="120.9817071699632"><ele>65.0</ele><time>2026-04-04T10:50:23Z</time></trkpt><trkpt lat="14.366969079557666" lon="120.98168982395184"><ele>65.0</ele><time>2026-04-04T10:50:24Z</time></trkpt><trkpt lat="14.367106418291222" lon="120.98166806711228"><ele>65.0</ele><time>2026-04-04T10:50:25Z</time></trkpt><trkpt lat="14.36724098774702" lon="120.98164552407488"><ele>65.0</ele><time>2026-04-04T10:50:26Z</time></trkpt><trkpt lat="14.367373562011604" lon="120.98161575488922"><ele>65.75</ele><time>2026-04-04T10:50:27Z</time></trkpt><trkpt lat="14.367502675830929" lon="120.98158106841801"><ele>66.5</ele><time>2026-04-04T10:50:28Z</time></trkpt><trkpt lat="14.367628267789128" lon="120.9815492005313"><ele>67.25</ele><time>2026-04-04T10:50:29Z</time></trkpt><trkpt lat="14.367751529014978" lon="120.98152009560168"><ele>68.0</ele><time>2026-04-04T10:50:30Z</time></trkpt><trkpt lat="14.36787467840186" lon="120.98148702266798"><ele>68.0</ele><time>2026-04-04T10:50:31Z</time></trkpt><trkpt lat="14.36799126307829" lon="120.98145770750232"><ele>68.0</ele><time>2026-04-04T10:50:32Z</time></trkpt><trkpt lat="14.36810325280155" lon="120.98143209701017"><ele>68.0</ele><time>2026-04-04T10:50:33Z</time></trkpt><trkpt lat="14.36821756864026" lon="120.98140488378759"><ele>68.0</ele><time>2026-04-04T10:50:34Z</time></trkpt><trkpt lat="14.36833477386286" lon="120.9813748074974"><ele>67.25</ele><time>2026-04-04T10:50:35Z</time></trkpt><trkpt lat="14.368455260444456" lon="120.98134137518781"><ele>66.5</ele><time>2026-04-04T10:50:36Z</time></trkpt><trkpt lat="14.368573144172098" lon="120.98130970638597"><ele>65.75</ele><time>2026-04-04T10:50:37Z</time></trkpt><trkpt lat="14.368688983143885" lon="120.98127864907062"><ele>65.0</ele><time>2026-04-04T10:50:38Z</time></trkpt><trkpt lat="14.368798313317875" lon="120.9812492903256"><ele>64.8</ele><time>2026-04-04T10:50:39Z</time></trkpt><trkpt lat="14.368896518757742" lon="120.98122675524107"><ele>64.6</ele><time>2026-04-04T10:50:40Z</time></trkpt><trkpt lat="14.368988043071383" lon="120.98120062239175"><ele>64.4</ele><time>2026-04-04T10:50:41Z</time></trkpt><trkpt lat="14.369076790578811" lon="120.98117879568825"><ele>64.2</ele><time>2026-04-04T10:50:42Z</time></trkpt><trkpt lat="14.369173227337559" lon="120.98115483381456"><ele>64.0</ele><time>2026-04-04T10:50:43Z</time></trkpt><trkpt lat="14.369255158507379" lon="120.98113341427283"><ele>64.0</ele><time>2026-04-04T10:50:44Z</time></trkpt><trkpt lat="14.369351116293293" lon="120.98110836956263"><ele>64.0</ele><time>2026-04-04T10:50:45Z</time></trkpt><trkpt lat="14.369447337459706" lon="120.9810843941951"><ele>64.0</ele><time>2026-04-04T10:50:46Z</time></trkpt><trkpt lat="14.369543499177494" lon="120.98106134781393"><ele>64.0</ele><time>2026-04-04T10:50:47Z</time></trkpt><trkpt lat="14.36964109184197" lon="120.981036257835"><ele>64.0</ele><time>2026-04-04T10:50:48Z</time></trkpt><trkpt lat="14.369736154515376" lon="120.98101307413508"><ele>63.33333333333333</ele><time>2026-04-04T10:50:49Z</time></trkpt><trkpt lat="14.369817568249818" lon="120.98099192455005"><ele>62.666666666666664</ele><time>2026-04-04T10:50:50Z</time></trkpt><trkpt lat="14.369895429376184" lon="120.9809741052103"><ele>62.0</ele><time>2026-04-04T10:50:51Z</time></trkpt><trkpt lat="14.369973910840606" lon="120.98095747760898"><ele>61.33333333333333</ele><time>2026-04-04T10:50:52Z</time></trkpt><trkpt lat="14.370046956242861" lon="120.98094242094803"><ele>60.666666666666664</ele><time>2026-04-04T10:50:53Z</time></trkpt><trkpt lat="14.370154484045157" lon="120.98091420524247"><ele>60.0</ele><time>2026-04-04T10:50:55Z</time></trkpt><trkpt lat="14.37023781399234" lon="120.98089479988745"><ele>60.0</ele><time>2026-04-04T10:50:57Z</time></trkpt><trkpt lat="14.370332485691723" lon="120.98087226966922"><ele>60.0</ele><time>2026-04-04T10:50:59Z</time></trkpt><trkpt lat="14.370451618513588" lon="120.98084209755118"><ele>60.0</ele><time>2026-04-04T10:51:01Z</time></trkpt><trkpt lat="14.37051608044819" lon="120.98082034258422"><ele>60.0</ele><time>2026-04-04T10:51:02Z</time></trkpt><trkpt lat="14.370587263316015" lon="120.98080027964963"><ele>60.0</ele><time>2026-04-04T10:51:03Z</time></trkpt><trkpt lat="14.370658911348633" lon="120.9807783034634"><ele>60.0</ele><time>2026-04-04T10:51:04Z</time></trkpt><trkpt lat="14.370742094686332" lon="120.98075831580606"><ele>60.4</ele><time>2026-04-04T10:51:05Z</time></trkpt><trkpt lat="14.370828187714611" lon="120.98073899704046"><ele>60.8</ele><time>2026-04-04T10:51:06Z</time></trkpt><trkpt lat="14.370918447384396" lon="120.98071423491264"><ele>61.2</ele><time>2026-04-04T10:51:07Z</time></trkpt><trkpt lat="14.371014822446227" lon="120.98068904339613"><ele>61.6</ele><time>2026-04-04T10:51:08Z</time></trkpt><trkpt lat="14.371112054159568" lon="120.98066299604329"><ele>62.0</ele><time>2026-04-04T10:51:09Z</time></trkpt><trkpt lat="14.371214722789974" lon="120.98063977767838"><ele>62.0</ele><time>2026-04-04T10:51:10Z</time></trkpt><trkpt lat="14.371318748910397" lon="120.9806170190059"><ele>62.0</ele><time>2026-04-04T10:51:11Z</time></trkpt><trkpt lat="14.371420001801633" lon="120.98059712348356"><ele>62.0</ele><time>2026-04-04T10:51:12Z</time></trkpt><trkpt lat="14.371521434307594" lon="120.9805782304019"><ele>62.0</ele><time>2026-04-04T10:51:13Z</time></trkpt><trkpt lat="14.37162699593041" lon="120.98055561346423"><ele>62.0</ele><time>2026-04-04T10:51:14Z</time></trkpt><trkpt lat="14.371733667642934" lon="120.98053376386414"><ele>61.25</ele><time>2026-04-04T10:51:15Z</time></trkpt><trkpt lat="14.371845150283425" lon="120.98050908501847"><ele>60.5</ele><time>2026-04-04T10:51:16Z</time></trkpt><trkpt lat="14.371955509130586" lon="120.9804818766755"><ele>59.75</ele><time>2026-04-04T10:51:17Z</time></trkpt><trkpt lat="14.372065825073978" lon="120.98045423904117"><ele>59.0</ele><time>2026-04-04T10:51:18Z</time></trkpt><trkpt lat="14.372182422614875" lon="120.98042989454156"><ele>59.0</ele><time>2026-04-04T10:51:19Z</time></trkpt><trkpt lat="14.372290635661024" lon="120.9804118032627"><ele>59.00000000000001</ele><time>2026-04-04T10:51:20Z</time></trkpt><trkpt lat="14.372392833109862" lon="120.98039082493057"><ele>59.00000000000001</ele><time>2026-04-04T10:51:21Z</time></trkpt><trkpt lat="14.372486922261336" lon="120.98036946575958"><ele>59.0</ele><time>2026-04-04T10:51:22Z</time></trkpt><trkpt lat="14.3725684318718" lon="120.98034984809932"><ele>59.0</ele><time>2026-04-04T10:51:23Z</time></trkpt><trkpt lat="14.372640073646195" lon="120.98033003078267"><ele>59.00000000000001</ele><time>2026-04-04T10:51:24Z</time></trkpt><trkpt lat="14.372708210528925" lon="120.9803090768945"><ele>59.0</ele><time>2026-04-04T10:51:25Z</time></trkpt><trkpt lat="14.37277290306566" lon="120.9802904694269"><ele>59.0</ele><time>2026-04-04T10:51:26Z</time></trkpt><trkpt lat="14.372892965605468" lon="120.98025636545067"><ele>59.0</ele><time>2026-04-04T10:51:28Z</time></trkpt><trkpt lat="14.372960662277746" lon="120.98023889939115"><ele>59.00000000000001</ele><time>2026-04-04T10:51:29Z</time></trkpt><trkpt lat="14.373036922434075" lon="120.98022240149349"><ele>59.0</ele><time>2026-04-04T10:51:30Z</time></trkpt><trkpt lat="14.373120328576007" lon="120.98020008459928"><ele>58.800000000000004</ele><time>2026-04-04T10:51:31Z</time></trkpt><trkpt lat="14.373205091275995" lon="120.98017942730748"><ele>58.60000000000001</ele><time>2026-04-04T10:51:32Z</time></trkpt><trkpt lat="14.373297109866357" lon="120.98015611741306"><ele>58.4</ele><time>2026-04-04T10:51:33Z</time></trkpt><trkpt lat="14.37339144383984" lon="120.98013521939207"><ele>58.2</ele><time>2026-04-04T10:51:34Z</time></trkpt><trkpt lat="14.37348991050904" lon="120.98011652336888"><ele>58.0</ele><time>2026-04-04T10:51:35Z</time></trkpt><trkpt lat="14.37359355624238" lon="120.98009099896949"><ele>58.0</ele><time>2026-04-04T10:51:36Z</time></trkpt><trkpt lat="14.37369931864275" lon="120.98006582874669"><ele>58.0</ele><time>2026-04-04T10:51:37Z</time></trkpt><trkpt lat="14.373804515203126" lon="120.9800307477384"><ele>58.0</ele><time>2026-04-04T10:51:38Z</time></trkpt><trkpt lat="14.373911079885254" lon="120.98000527709135"><ele>58.0</ele><time>2026-04-04T10:51:39Z</time></trkpt><trkpt lat="14.374018193638403" lon="120.97998111516547"><ele>58.0</ele><time>2026-04-04T10:51:40Z</time></trkpt><trkpt lat="14.37412486368843" lon="120.97995744786094"><ele>58.33333333333333</ele><time>2026-04-04T10:51:41Z</time></trkpt><trkpt lat="14.374225124317146" lon="120.97993443216757"><ele>58.666666666666664</ele><time>2026-04-04T10:51:42Z</time></trkpt><trkpt lat="14.37431245554406" lon="120.97991363285323"><ele>59.0</ele><time>2026-04-04T10:51:43Z</time></trkpt><trkpt lat="14.37439019954028" lon="120.97989290331037"><ele>59.33333333333333</ele><time>2026-04-04T10:51:44Z</time></trkpt><trkpt lat="14.374464688877774" lon="120.97987300656149"><ele>59.666666666666664</ele><time>2026-04-04T10:51:45Z</time></trkpt><trkpt lat="14.374531746200292" lon="120.97985902038866"><ele>60.0</ele><time>2026-04-04T10:51:46Z</time></trkpt><trkpt lat="14.374640408607833" lon="120.97982822964094"><ele>60.2</ele><time>2026-04-04T10:51:48Z</time></trkpt><trkpt lat="14.37472554077984" lon="120.97980760471518"><ele>60.4</ele><time>2026-04-04T10:51:50Z</time></trkpt><trkpt lat="14.374842343528837" lon="120.97977714409944"><ele>60.599999999999994</ele><time>2026-04-04T10:51:52Z</time></trkpt><trkpt lat="14.374926349668238" lon="120.97975842171275"><ele>60.8</ele><time>2026-04-04T10:51:53Z</time></trkpt><trkpt lat="14.37501783365889" lon="120.97973775218671"><ele>61.0</ele><time>2026-04-04T10:51:54Z</time></trkpt><trkpt lat="14.375118547463742" lon="120.97971334938708"><ele>61.0</ele><time>2026-04-04T10:51:55Z</time></trkpt><trkpt lat="14.375223254971692" lon="120.97969108110148"><ele>61.0</ele><time>2026-04-04T10:51:56Z</time></trkpt><trkpt lat="14.375337885147413" lon="120.97966034738356"><ele>61.0</ele><time>2026-04-04T10:51:57Z</time></trkpt><trkpt lat="14.375454727038333" lon="120.97963068841986"><ele>61.0</ele><time>2026-04-04T10:51:58Z</time></trkpt><trkpt lat="14.375575897851503" lon="120.97960151715628"><ele>61.0</ele><time>2026-04-04T10:51:59Z</time></trkpt><trkpt lat="14.375696727339133" lon="120.97957397231089"><ele>61.0</ele><time>2026-04-04T10:52:00Z</time></trkpt><trkpt lat="14.375816146428102" lon="120.97954555263094"><ele>61.0</ele><time>2026-04-04T10:52:01Z</time></trkpt><trkpt lat="14.375937065159444" lon="120.97951572195831"><ele>61.0</ele><time>2026-04-04T10:52:02Z</time></trkpt><trkpt lat="14.376055022450574" lon="120.97948913731744"><ele>61.0</ele><time>2026-04-04T10:52:03Z</time></trkpt><trkpt lat="14.376175803573863" lon="120.97946453153834"><ele>60.99999999999999</ele><time>2026-04-04T10:52:04Z</time></trkpt><trkpt lat="14.376287031439922" lon="120.97944177984643"><ele>60.99999999999999</ele><time>2026-04-04T10:52:05Z</time></trkpt><trkpt lat="14.376394953862846" lon="120.97942313456298"><ele>61.0</ele><time>2026-04-04T10:52:06Z</time></trkpt><trkpt lat="14.376494806628612" lon="120.97940108240856"><ele>61.0</ele><time>2026-04-04T10:52:07Z</time></trkpt><trkpt lat="14.376605162589797" lon="120.97938118281371"><ele>60.25</ele><time>2026-04-04T10:52:08Z</time></trkpt><trkpt lat="14.376718593309526" lon="120.97936150618683"><ele>59.5</ele><time>2026-04-04T10:52:09Z</time></trkpt><trkpt lat="14.37683616746394" lon="120.97933716453639"><ele>58.75</ele><time>2026-04-04T10:52:10Z</time></trkpt><trkpt lat="14.376953343683509" lon="120.97931603226095"><ele>58.0</ele><time>2026-04-04T10:52:11Z</time></trkpt><trkpt lat="14.377073150827263" lon="120.9792961347697"><ele>57.0</ele><time>2026-04-04T10:52:12Z</time></trkpt><trkpt lat="14.377193603481137" lon="120.97927412584306"><ele>56.0</ele><time>2026-04-04T10:52:13Z</time></trkpt><trkpt lat="14.37731064214875" lon="120.97925427076902"><ele>55.0</ele><time>2026-04-04T10:52:14Z</time></trkpt><trkpt lat="14.377420982828808" lon="120.97923390753932"><ele>54.0</ele><time>2026-04-04T10:52:15Z</time></trkpt><trkpt lat="14.377528780515084" lon="120.97921905273795"><ele>54.0</ele><time>2026-04-04T10:52:16Z</time></trkpt><trkpt lat="14.377640102281317" lon="120.9792024825984"><ele>54.0</ele><time>2026-04-04T10:52:17Z</time></trkpt><trkpt lat="14.377750579175352" lon="120.97918722857328"><ele>54.0</ele><time>2026-04-04T10:52:18Z</time></trkpt><trkpt lat="14.377870909647738" lon="120.97916653545505"><ele>54.0</ele><time>2026-04-04T10:52:19Z</time></trkpt><trkpt lat="14.37798530486701" lon="120.9791474767217"><ele>54.75</ele><time>2026-04-04T10:52:20Z</time></trkpt><trkpt lat="14.378099420767603" lon="120.97913327343275"><ele>55.5</ele><time>2026-04-04T10:52:21Z</time></trkpt><trkpt lat="14.378213595529438" lon="120.97911853438255"><ele>56.25</ele><time>2026-04-04T10:52:22Z</time></trkpt><trkpt lat="14.378330289048506" lon="120.97910231393392"><ele>57.0</ele><time>2026-04-04T10:52:23Z</time></trkpt><trkpt lat="14.378445146102537" lon="120.97908572421625"><ele>57.0</ele><time>2026-04-04T10:52:24Z</time></trkpt><trkpt lat="14.37856366023042" lon="120.97906682579199"><ele>57.0</ele><time>2026-04-04T10:52:25Z</time></trkpt><trkpt lat="14.37868162253305" lon="120.9790495681728"><ele>57.0</ele><time>2026-04-04T10:52:26Z</time></trkpt><trkpt lat="14.378799201725878" lon="120.97903319938969"><ele>57.0</ele><time>2026-04-04T10:52:27Z</time></trkpt><trkpt lat="14.378911554304008" lon="120.97901773145672"><ele>56.400000000000006</ele><time>2026-04-04T10:52:28Z</time></trkpt><trkpt lat="14.379030892209268" lon="120.97899854294619"><ele>55.800000000000004</ele><time>2026-04-04T10:52:29Z</time></trkpt><trkpt lat="14.379132739078035" lon="120.97898273924513"><ele>55.2</ele><time>2026-04-04T10:52:30Z</time></trkpt><trkpt lat="14.37922822702985" lon="120.97897096100651"><ele>54.6</ele><time>2026-04-04T10:52:31Z</time></trkpt><trkpt lat="14.379318896472103" lon="120.97895702068384"><ele>54.0</ele><time>2026-04-04T10:52:32Z</time></trkpt><trkpt lat="14.379402615159618" lon="120.97894477015932"><ele>54.0</ele><time>2026-04-04T10:52:33Z</time></trkpt><trkpt lat="14.37948015226058" lon="120.97893217191296"><ele>54.0</ele><time>2026-04-04T10:52:34Z</time></trkpt><trkpt lat="14.379556788669653" lon="120.9789187404144"><ele>54.0</ele><time>2026-04-04T10:52:35Z</time></trkpt><trkpt lat="14.379635996668668" lon="120.97890680016557"><ele>54.0</ele><time>2026-04-04T10:52:36Z</time></trkpt><trkpt lat="14.379704661250775" lon="120.97889504990154"><ele>54.0</ele><time>2026-04-04T10:52:37Z</time></trkpt><trkpt lat="14.379774180569038" lon="120.9788835099522"><ele>54.0</ele><time>2026-04-04T10:52:38Z</time></trkpt><trkpt lat="14.379894750932987" lon="120.97886875149429"><ele>54.0</ele><time>2026-04-04T10:52:40Z</time></trkpt><trkpt lat="14.380010985913643" lon="120.97885488991963"><ele>54.00000000000001</ele><time>2026-04-04T10:52:42Z</time></trkpt><trkpt lat="14.380110977196392" lon="120.97884228684882"><ele>54.00000000000001</ele><time>2026-04-04T10:52:44Z</time></trkpt><trkpt lat="14.380193139135647" lon="120.97883391153316"><ele>54.0</ele><time>2026-04-04T10:52:46Z</time></trkpt><trkpt lat="14.380276265691894" lon="120.9788276891375"><ele>54.0</ele><time>2026-04-04T10:52:51Z</time></trkpt><trkpt lat="14.380347729755846" lon="120.978814535732"><ele>54.0</ele><time>2026-04-04T10:52:53Z</time></trkpt><trkpt lat="14.380450004489624" lon="120.9787959864262"><ele>54.00000000000001</ele><time>2026-04-04T10:52:55Z</time></trkpt><trkpt lat="14.380553340393458" lon="120.97877891198388"><ele>54.00000000000001</ele><time>2026-04-04T10:52:57Z</time></trkpt><trkpt lat="14.380673778374438" lon="120.97876185190592"><ele>54.0</ele><time>2026-04-04T10:52:59Z</time></trkpt><trkpt lat="14.380741541247534" lon="120.97875273293393"><ele>54.0</ele><time>2026-04-04T10:53:00Z</time></trkpt><trkpt lat="14.380809324488993" lon="120.97874223428518"><ele>54.166666666666664</ele><time>2026-04-04T10:53:01Z</time></trkpt><trkpt lat="14.380931216048582" lon="120.97872603243498"><ele>54.33333333333333</ele><time>2026-04-04T10:53:03Z</time></trkpt><trkpt lat="14.38099799221929" lon="120.9787155576541"><ele>54.5</ele><time>2026-04-04T10:53:04Z</time></trkpt><trkpt lat="14.381068543561186" lon="120.97870438138949"><ele>54.666666666666664</ele><time>2026-04-04T10:53:05Z</time></trkpt><trkpt lat="14.381142392496248" lon="120.97869456282505"><ele>54.83333333333333</ele><time>2026-04-04T10:53:06Z</time></trkpt><trkpt lat="14.381216550797138" lon="120.97868419081007"><ele>55.0</ele><time>2026-04-04T10:53:07Z</time></trkpt><trkpt lat="14.381283958064254" lon="120.9786737415652"><ele>54.83333333333333</ele><time>2026-04-04T10:53:08Z</time></trkpt><trkpt lat="14.381349257114904" lon="120.97866255911481"><ele>54.666666666666664</ele><time>2026-04-04T10:53:09Z</time></trkpt><trkpt lat="14.381460347883639" lon="120.97864415648478"><ele>54.5</ele><time>2026-04-04T10:53:11Z</time></trkpt><trkpt lat="14.381522679154779" lon="120.97863332668906"><ele>54.33333333333333</ele><time>2026-04-04T10:53:12Z</time></trkpt><trkpt lat="14.381585043447837" lon="120.97862215891861"><ele>54.166666666666664</ele><time>2026-04-04T10:53:13Z</time></trkpt><trkpt lat="14.381709499970745" lon="120.97859928693141"><ele>54.0</ele><time>2026-04-04T10:53:15Z</time></trkpt><trkpt lat="14.38177640194357" lon="120.97858579478444"><ele>54.0</ele><time>2026-04-04T10:53:16Z</time></trkpt><trkpt lat="14.381842973254471" lon="120.97857345250857"><ele>54.0</ele><time>2026-04-04T10:53:17Z</time></trkpt><trkpt lat="14.381911094583623" lon="120.978560334831"><ele>54.0</ele><time>2026-04-04T10:53:18Z</time></trkpt><trkpt lat="14.381983042348182" lon="120.97854857017691"><ele>54.0</ele><time>2026-04-04T10:53:19Z</time></trkpt><trkpt lat="14.382054041401767" lon="120.97853561130054"><ele>54.0</ele><time>2026-04-04T10:53:20Z</time></trkpt><trkpt lat="14.382131305265052" lon="120.97851958772776"><ele>54.0</ele><time>2026-04-04T10:53:21Z</time></trkpt><trkpt lat="14.382214419442723" lon="120.97850438025722"><ele>54.0</ele><time>2026-04-04T10:53:22Z</time></trkpt><trkpt lat="14.382300070476232" lon="120.97848926597008"><ele>54.2</ele><time>2026-04-04T10:53:23Z</time></trkpt><trkpt lat="14.38239018677724" lon="120.9784731461001"><ele>54.400000000000006</ele><time>2026-04-04T10:53:24Z</time></trkpt><trkpt lat="14.382486491186086" lon="120.97845677992026"><ele>54.6</ele><time>2026-04-04T10:53:25Z</time></trkpt><trkpt lat="14.382580337617302" lon="120.97844412582354"><ele>54.8</ele><time>2026-04-04T10:53:26Z</time></trkpt><trkpt lat="14.38267779647137" lon="120.97842846558405"><ele>55.0</ele><time>2026-04-04T10:53:27Z</time></trkpt><trkpt lat="14.382762378108518" lon="120.97841748305108"><ele>54.99999999999999</ele><time>2026-04-04T10:53:28Z</time></trkpt><trkpt lat="14.382846277480645" lon="120.97840593790409"><ele>55.0</ele><time>2026-04-04T10:53:29Z</time></trkpt><trkpt lat="14.382927348367708" lon="120.97839514513561"><ele>55.0</ele><time>2026-04-04T10:53:30Z</time></trkpt><trkpt lat="14.383000378965985" lon="120.97838624511533"><ele>55.0</ele><time>2026-04-04T10:53:31Z</time></trkpt><trkpt lat="14.383074434165254" lon="120.97837407706074"><ele>54.99999999999999</ele><time>2026-04-04T10:53:32Z</time></trkpt><trkpt lat="14.383154016268305" lon="120.97836043078546"><ele>55.0</ele><time>2026-04-04T10:53:33Z</time></trkpt><trkpt lat="14.383234444192711" lon="120.97834871318042"><ele>54.49999999999999</ele><time>2026-04-04T10:53:34Z</time></trkpt><trkpt lat="14.383317713264658" lon="120.97833337153912"><ele>54.0</ele><time>2026-04-04T10:53:35Z</time></trkpt><trkpt lat="14.383403620733086" lon="120.97831907866662"><ele>53.5</ele><time>2026-04-04T10:53:36Z</time></trkpt><trkpt lat="14.383488665414617" lon="120.9783068593818"><ele>53.0</ele><time>2026-04-04T10:53:37Z</time></trkpt><trkpt lat="14.383576711687692" lon="120.97829336436948"><ele>52.49999999999999</ele><time>2026-04-04T10:53:38Z</time></trkpt><trkpt lat="14.383669087951583" lon="120.97827856185296"><ele>52.0</ele><time>2026-04-04T10:53:39Z</time></trkpt><trkpt lat="14.383760950919367" lon="120.97826582345333"><ele>51.8</ele><time>2026-04-04T10:53:40Z</time></trkpt><trkpt lat="14.383853414740338" lon="120.97825242870283"><ele>51.6</ele><time>2026-04-04T10:53:41Z</time></trkpt><trkpt lat="14.38394563602174" lon="120.97823666862554"><ele>51.4</ele><time>2026-04-04T10:53:42Z</time></trkpt><trkpt lat="14.384035538732867" lon="120.97822221280455"><ele>51.199999999999996</ele><time>2026-04-04T10:53:43Z</time></trkpt><trkpt lat="14.384124757028017" lon="120.97820750810864"><ele>51.0</ele><time>2026-04-04T10:53:44Z</time></trkpt><trkpt lat="14.384211137257065" lon="120.978194254189"><ele>51.0</ele><time>2026-04-04T10:53:45Z</time></trkpt><trkpt lat="14.384293617555729" lon="120.97818072411451"><ele>51.0</ele><time>2026-04-04T10:53:46Z</time></trkpt><trkpt lat="14.38437585706451" lon="120.97816569634391"><ele>51.0</ele><time>2026-04-04T10:53:47Z</time></trkpt><trkpt lat="14.38446126708834" lon="120.978152083669"><ele>51.0</ele><time>2026-04-04T10:53:48Z</time></trkpt><trkpt lat="14.384543209526404" lon="120.97814089364815"><ele>51.0</ele><time>2026-04-04T10:53:49Z</time></trkpt><trkpt lat="14.384624111004085" lon="120.97812885985857"><ele>51.0</ele><time>2026-04-04T10:53:50Z</time></trkpt><trkpt lat="14.38470480676943" lon="120.97811627473976"><ele>50.599999999999994</ele><time>2026-04-04T10:53:51Z</time></trkpt><trkpt lat="14.384789346416367" lon="120.97810103357206"><ele>50.2</ele><time>2026-04-04T10:53:52Z</time></trkpt><trkpt lat="14.384877806273527" lon="120.97808494324379"><ele>49.8</ele><time>2026-04-04T10:53:53Z</time></trkpt><trkpt lat="14.3849640058428" lon="120.97807124747528"><ele>49.400000000000006</ele><time>2026-04-04T10:53:54Z</time></trkpt><trkpt lat="14.385051256060402" lon="120.9780561760231"><ele>49.0</ele><time>2026-04-04T10:53:55Z</time></trkpt><trkpt lat="14.385151283685012" lon="120.97803676325707"><ele>49.0</ele><time>2026-04-04T10:53:56Z</time></trkpt><trkpt lat="14.38525265820396" lon="120.97801443921504"><ele>49.0</ele><time>2026-04-04T10:53:57Z</time></trkpt><trkpt lat="14.385355457064257" lon="120.97799401330231"><ele>49.0</ele><time>2026-04-04T10:53:58Z</time></trkpt><trkpt lat="14.38545989880257" lon="120.97797724639861"><ele>49.0</ele><time>2026-04-04T10:53:59Z</time></trkpt><trkpt lat="14.3855658577685" lon="120.97796485430874"><ele>49.0</ele><time>2026-04-04T10:54:00Z</time></trkpt><trkpt lat="14.385661143289864" lon="120.97795741426017"><ele>48.800000000000004</ele><time>2026-04-04T10:54:02Z</time></trkpt><trkpt lat="14.3857495584302" lon="120.97794211951843"><ele>48.6</ele><time>2026-04-04T10:54:03Z</time></trkpt><trkpt lat="14.385834929868192" lon="120.97792673192903"><ele>48.4</ele><time>2026-04-04T10:54:04Z</time></trkpt><trkpt lat="14.385923426583469" lon="120.97791479096742"><ele>48.2</ele><time>2026-04-04T10:54:05Z</time></trkpt><trkpt lat="14.386019554491105" lon="120.97791200826781"><ele>48.0</ele><time>2026-04-04T10:54:06Z</time></trkpt><trkpt lat="14.3861224678486" lon="120.97790485928648"><ele>48.0</ele><time>2026-04-04T10:54:07Z</time></trkpt><trkpt lat="14.386231893377818" lon="120.97789331158357"><ele>48.0</ele><time>2026-04-04T10:54:08Z</time></trkpt><trkpt lat="14.386341884478304" lon="120.97787921965421"><ele>48.0</ele><time>2026-04-04T10:54:09Z</time></trkpt><trkpt lat="14.386453925729068" lon="120.97786166250155"><ele>48.0</ele><time>2026-04-04T10:54:10Z</time></trkpt><trkpt lat="14.386568062400533" lon="120.97784206577323"><ele>47.8</ele><time>2026-04-04T10:54:11Z</time></trkpt><trkpt lat="14.386678637362554" lon="120.9778239806035"><ele>47.599999999999994</ele><time>2026-04-04T10:54:12Z</time></trkpt><trkpt lat="14.386786653376866" lon="120.97780288593673"><ele>47.400000000000006</ele><time>2026-04-04T10:54:13Z</time></trkpt><trkpt lat="14.38688878437545" lon="120.97778465655193"><ele>47.2</ele><time>2026-04-04T10:54:14Z</time></trkpt><trkpt lat="14.386986928559311" lon="120.9777705394474"><ele>47.0</ele><time>2026-04-04T10:54:15Z</time></trkpt><trkpt lat="14.387091321796657" lon="120.9777508740672"><ele>46.6</ele><time>2026-04-04T10:54:16Z</time></trkpt><trkpt lat="14.38719432197568" lon="120.97773540876845"><ele>46.2</ele><time>2026-04-04T10:54:17Z</time></trkpt><trkpt lat="14.387303947679335" lon="120.97771763203086"><ele>45.8</ele><time>2026-04-04T10:54:18Z</time></trkpt><trkpt lat="14.387411587222093" lon="120.97770034555683"><ele>45.4</ele><time>2026-04-04T10:54:19Z</time></trkpt><trkpt lat="14.38751625956971" lon="120.97768956797165"><ele>45.0</ele><time>2026-04-04T10:54:20Z</time></trkpt><trkpt lat="14.387620392811552" lon="120.97768050789087"><ele>45.0</ele><time>2026-04-04T10:54:21Z</time></trkpt><trkpt lat="14.387717908334956" lon="120.97767040574276"><ele>45.0</ele><time>2026-04-04T10:54:22Z</time></trkpt><trkpt lat="14.387816051303147" lon="120.97766040959581"><ele>45.0</ele><time>2026-04-04T10:54:23Z</time></trkpt><trkpt lat="14.387915566113223" lon="120.97764432208312"><ele>45.0</ele><time>2026-04-04T10:54:24Z</time></trkpt><trkpt lat="14.388013519435901" lon="120.97764007161489"><ele>45.0</ele><time>2026-04-04T10:54:25Z</time></trkpt><trkpt lat="14.388098573139866" lon="120.97763784223875"><ele>45.14285714285714</ele><time>2026-04-04T10:54:26Z</time></trkpt><trkpt lat="14.38817668628446" lon="120.97764028115405"><ele>45.28571428571429</ele><time>2026-04-04T10:54:27Z</time></trkpt><trkpt lat="14.388251858790623" lon="120.97764207340983"><ele>45.42857142857143</ele><time>2026-04-04T10:54:28Z</time></trkpt><trkpt lat="14.388321424557118" lon="120.97764110130954"><ele>45.57142857142857</ele><time>2026-04-04T10:54:29Z</time></trkpt><trkpt lat="14.388386036122323" lon="120.97764201680083"><ele>45.71428571428571</ele><time>2026-04-04T10:54:30Z</time></trkpt><trkpt lat="14.388449840322936" lon="120.97764703349569"><ele>45.85714285714286</ele><time>2026-04-04T10:54:31Z</time></trkpt><trkpt lat="14.38851534019628" lon="120.97765348362314"><ele>46.0</ele><time>2026-04-04T10:54:32Z</time></trkpt><trkpt lat="14.388579396575015" lon="120.97765894488448"><ele>46.0</ele><time>2026-04-04T10:54:33Z</time></trkpt><trkpt lat="14.388644011400048" lon="120.97765994475098"><ele>46.0</ele><time>2026-04-04T10:54:34Z</time></trkpt><trkpt lat="14.388708426667067" lon="120.97765786893136"><ele>46.0</ele><time>2026-04-04T10:54:35Z</time></trkpt><trkpt lat="14.38877021358018" lon="120.9776400565979"><ele>46.0</ele><time>2026-04-04T10:54:36Z</time></trkpt><trkpt lat="14.388898313979297" lon="120.97766046384324"><ele>46.0</ele><time>2026-04-04T10:54:38Z</time></trkpt><trkpt lat="14.388971951648783" lon="120.97765413605883"><ele>46.0</ele><time>2026-04-04T10:54:39Z</time></trkpt><trkpt lat="14.38904310730454" lon="120.97765723222821"><ele>45.66666666666667</ele><time>2026-04-04T10:54:40Z</time></trkpt><trkpt lat="14.38912942461451" lon="120.97765178470401"><ele>45.333333333333336</ele><time>2026-04-04T10:54:41Z</time></trkpt><trkpt lat="14.389221424277197" lon="120.9776509302417"><ele>45.0</ele><time>2026-04-04T10:54:42Z</time></trkpt><trkpt lat="14.389311801007857" lon="120.97765029146021"><ele>44.666666666666664</ele><time>2026-04-04T10:54:43Z</time></trkpt><trkpt lat="14.389396875059692" lon="120.9776515364978"><ele>44.33333333333333</ele><time>2026-04-04T10:54:44Z</time></trkpt><trkpt lat="14.389477050337705" lon="120.97765445996662"><ele>44.0</ele><time>2026-04-04T10:54:45Z</time></trkpt><trkpt lat="14.389568324813109" lon="120.97765786216415"><ele>44.0</ele><time>2026-04-04T10:54:46Z</time></trkpt><trkpt lat="14.38966567651515" lon="120.97766134433274"><ele>44.0</ele><time>2026-04-04T10:54:47Z</time></trkpt><trkpt lat="14.389757142016409" lon="120.97766443862704"><ele>44.0</ele><time>2026-04-04T10:54:48Z</time></trkpt><trkpt lat="14.389862579631998" lon="120.97766851272009"><ele>44.0</ele><time>2026-04-04T10:54:49Z</time></trkpt><trkpt lat="14.389965083905716" lon="120.977669000956"><ele>44.0</ele><time>2026-04-04T10:54:50Z</time></trkpt><trkpt lat="14.390075474916175" lon="120.97766548965554"><ele>43.6</ele><time>2026-04-04T10:54:51Z</time></trkpt><trkpt lat="14.390174487718308" lon="120.97766459284169"><ele>43.2</ele><time>2026-04-04T10:54:52Z</time></trkpt><trkpt lat="14.390270251156688" lon="120.97766297497422"><ele>42.800000000000004</ele><time>2026-04-04T10:54:53Z</time></trkpt><trkpt lat="14.390369842862745" lon="120.9776595142726"><ele>42.400000000000006</ele><time>2026-04-04T10:54:54Z</time></trkpt><trkpt lat="14.390474412308178" lon="120.97765533712197"><ele>42.0</ele><time>2026-04-04T10:54:55Z</time></trkpt><trkpt lat="14.390589301873762" lon="120.97765605727687"><ele>41.5</ele><time>2026-04-04T10:54:56Z</time></trkpt><trkpt lat="14.390706628568598" lon="120.97765601677585"><ele>41.0</ele><time>2026-04-04T10:54:57Z</time></trkpt><trkpt lat="14.390834469278628" lon="120.97765582223572"><ele>40.5</ele><time>2026-04-04T10:54:58Z</time></trkpt><trkpt lat="14.390966881774473" lon="120.97765715233888"><ele>40.0</ele><time>2026-04-04T10:54:59Z</time></trkpt><trkpt lat="14.391104796724031" lon="120.97766123920259"><ele>40.0</ele><time>2026-04-04T10:55:00Z</time></trkpt><trkpt lat="14.391249204493816" lon="120.97766649549337"><ele>40.0</ele><time>2026-04-04T10:55:01Z</time></trkpt><trkpt lat="14.391382364344869" lon="120.97767548920389"><ele>40.0</ele><time>2026-04-04T10:55:02Z</time></trkpt><trkpt lat="14.391503492491848" lon="120.97768556252146"><ele>40.0</ele><time>2026-04-04T10:55:03Z</time></trkpt><trkpt lat="14.391617640193168" lon="120.97768802370277"><ele>40.2</ele><time>2026-04-04T10:55:04Z</time></trkpt><trkpt lat="14.391688587944994" lon="120.97769187045198"><ele>40.4</ele><time>2026-04-04T10:55:05Z</time></trkpt><trkpt lat="14.391837915435408" lon="120.97768785577955"><ele>40.599999999999994</ele><time>2026-04-04T10:55:07Z</time></trkpt><trkpt lat="14.391951352924744" lon="120.97769217431741"><ele>40.8</ele><time>2026-04-04T10:55:08Z</time></trkpt><trkpt lat="14.392039021570033" lon="120.97770143124374"><ele>41.0</ele><time>2026-04-04T10:55:10Z</time></trkpt><trkpt lat="14.392131794701562" lon="120.97769412717817"><ele>41.166666666666664</ele><time>2026-04-04T10:55:11Z</time></trkpt><trkpt lat="14.392198055551638" lon="120.97769504397377"><ele>41.33333333333333</ele><time>2026-04-04T10:55:12Z</time></trkpt><trkpt lat="14.392268169864504" lon="120.97769771570033"><ele>41.5</ele><time>2026-04-04T10:55:13Z</time></trkpt><trkpt lat="14.392347437738024" lon="120.97769470492763"><ele>41.666666666666664</ele><time>2026-04-04T10:55:14Z</time></trkpt><trkpt lat="14.392436685261167" lon="120.97770488241683"><ele>41.833333333333336</ele><time>2026-04-04T10:55:15Z</time></trkpt><trkpt lat="14.392516295800187" lon="120.97769189322307"><ele>42.0</ele><time>2026-04-04T10:55:16Z</time></trkpt><trkpt lat="14.39259638078335" lon="120.97769359005484"><ele>42.0</ele><time>2026-04-04T10:55:17Z</time></trkpt><trkpt lat="14.392735476940315" lon="120.97770700973827"><ele>42.0</ele><time>2026-04-04T10:55:19Z</time></trkpt><trkpt lat="14.392804175142" lon="120.97770743473649"><ele>42.0</ele><time>2026-04-04T10:55:20Z</time></trkpt><trkpt lat="14.392869887898293" lon="120.977706200094"><ele>42.0</ele><time>2026-04-04T10:55:21Z</time></trkpt><trkpt lat="14.39293631678361" lon="120.97770636803256"><ele>42.0</ele><time>2026-04-04T10:55:22Z</time></trkpt><trkpt lat="14.39300703224229" lon="120.97771066294597"><ele>42.0</ele><time>2026-04-04T10:55:23Z</time></trkpt><trkpt lat="14.393079170840783" lon="120.97771711169273"><ele>41.5</ele><time>2026-04-04T10:55:24Z</time></trkpt><trkpt lat="14.393145365167578" lon="120.9777226914347"><ele>41.0</ele><time>2026-04-04T10:55:25Z</time></trkpt><trkpt lat="14.393223376249441" lon="120.97772892727657"><ele>40.5</ele><time>2026-04-04T10:55:26Z</time></trkpt><trkpt lat="14.393306170700273" lon="120.97773301842486"><ele>40.0</ele><time>2026-04-04T10:55:27Z</time></trkpt><trkpt lat="14.393395410465727" lon="120.97773416979621"><ele>39.5</ele><time>2026-04-04T10:55:28Z</time></trkpt><trkpt lat="14.39348462208114" lon="120.97773765295013"><ele>39.0</ele><time>2026-04-04T10:55:29Z</time></trkpt><trkpt lat="14.393578396695181" lon="120.97774542124057"><ele>39.0</ele><time>2026-04-04T10:55:30Z</time></trkpt><trkpt lat="14.393674954443854" lon="120.97774863368026"><ele>39.0</ele><time>2026-04-04T10:55:31Z</time></trkpt><trkpt lat="14.393769541969387" lon="120.9777471772674"><ele>39.0</ele><time>2026-04-04T10:55:32Z</time></trkpt><trkpt lat="14.393858743974146" lon="120.97774779756304"><ele>39.0</ele><time>2026-04-04T10:55:33Z</time></trkpt><trkpt lat="14.393943402915054" lon="120.97774900171204"><ele>39.0</ele><time>2026-04-04T10:55:34Z</time></trkpt><trkpt lat="14.394017801365619" lon="120.97774908327966"><ele>39.0</ele><time>2026-04-04T10:55:35Z</time></trkpt><trkpt lat="14.3940898729039" lon="120.9777487438403"><ele>39.0</ele><time>2026-04-04T10:55:36Z</time></trkpt><trkpt lat="14.39416701201803" lon="120.97775310250043"><ele>39.0</ele><time>2026-04-04T10:55:37Z</time></trkpt><trkpt lat="14.394240721447847" lon="120.97775418058482"><ele>39.0</ele><time>2026-04-04T10:55:38Z</time></trkpt><trkpt lat="14.394305387323332" lon="120.97775733210801"><ele>39.0</ele><time>2026-04-04T10:55:39Z</time></trkpt><trkpt lat="14.39444217956385" lon="120.97775621065009"><ele>39.0</ele><time>2026-04-04T10:55:41Z</time></trkpt><trkpt lat="14.394515601073522" lon="120.9777598477578"><ele>39.0</ele><time>2026-04-04T10:55:42Z</time></trkpt><trkpt lat="14.394592955161757" lon="120.97775895014877"><ele>39.0</ele><time>2026-04-04T10:55:43Z</time></trkpt><trkpt lat="14.39467669851151" lon="120.97776342996173"><ele>39.0</ele><time>2026-04-04T10:55:44Z</time></trkpt><trkpt lat="14.394755075134771" lon="120.97776457563988"><ele>39.0</ele><time>2026-04-04T10:55:45Z</time></trkpt><trkpt lat="14.39482447077017" lon="120.97776751133613"><ele>39.0</ele><time>2026-04-04T10:55:46Z</time></trkpt><trkpt lat="14.394940992517446" lon="120.97776750339767"><ele>39.0</ele><time>2026-04-04T10:55:48Z</time></trkpt><trkpt lat="14.395055944197686" lon="120.97776899561676"><ele>39.0</ele><time>2026-04-04T10:55:50Z</time></trkpt><trkpt lat="14.395172867545783" lon="120.97776656856591"><ele>39.0</ele><time>2026-04-04T10:55:52Z</time></trkpt><trkpt lat="14.39528188179793" lon="120.97777224133145"><ele>39.0</ele><time>2026-04-04T10:55:54Z</time></trkpt><trkpt lat="14.395403417756546" lon="120.97777459958475"><ele>39.0</ele><time>2026-04-04T10:55:56Z</time></trkpt><trkpt lat="14.395510318296067" lon="120.97777688417473"><ele>39.6</ele><time>2026-04-04T10:55:58Z</time></trkpt><trkpt lat="14.395605894786911" lon="120.97778393339719"><ele>40.2</ele><time>2026-04-04T10:56:00Z</time></trkpt><trkpt lat="14.395692392200628" lon="120.97779023007804"><ele>40.800000000000004</ele><time>2026-04-04T10:56:02Z</time></trkpt><trkpt lat="14.395769096078375" lon="120.9777934702871"><ele>41.4</ele><time>2026-04-04T10:56:04Z</time></trkpt><trkpt lat="14.395866439316642" lon="120.9777934493036"><ele>42.0</ele><time>2026-04-04T10:56:06Z</time></trkpt><trkpt lat="14.395986209770928" lon="120.97779367730465"><ele>42.0</ele><time>2026-04-04T10:56:08Z</time></trkpt><trkpt lat="14.396104243306514" lon="120.97779817425018"><ele>42.0</ele><time>2026-04-04T10:56:10Z</time></trkpt><trkpt lat="14.39616750438322" lon="120.97780443332469"><ele>42.0</ele><time>2026-04-04T10:56:11Z</time></trkpt><trkpt lat="14.396295633315933" lon="120.97780942115892"><ele>42.0</ele><time>2026-04-04T10:56:13Z</time></trkpt><trkpt lat="14.396361254226965" lon="120.97780939078717"><ele>42.0</ele><time>2026-04-04T10:56:14Z</time></trkpt><trkpt lat="14.396431771444748" lon="120.97781226929905"><ele>42.0</ele><time>2026-04-04T10:56:15Z</time></trkpt><trkpt lat="14.39649521686769" lon="120.97781111592829"><ele>41.5</ele><time>2026-04-04T10:56:16Z</time></trkpt><trkpt lat="14.396619960260205" lon="120.97780857930452"><ele>41.0</ele><time>2026-04-04T10:56:18Z</time></trkpt><trkpt lat="14.396690095994115" lon="120.97780906780729"><ele>40.5</ele><time>2026-04-04T10:56:19Z</time></trkpt><trkpt lat="14.396760029134656" lon="120.97781047290958"><ele>40.0</ele><time>2026-04-04T10:56:20Z</time></trkpt><trkpt lat="14.396835990299788" lon="120.9778144327872"><ele>39.5</ele><time>2026-04-04T10:56:21Z</time></trkpt><trkpt lat="14.396912514236147" lon="120.97781525096046"><ele>39.0</ele><time>2026-04-04T10:56:22Z</time></trkpt><trkpt lat="14.39698587779706" lon="120.97781702974376"><ele>39.0</ele><time>2026-04-04T10:56:23Z</time></trkpt><trkpt lat="14.397060135863933" lon="120.9778186835895"><ele>39.0</ele><time>2026-04-04T10:56:24Z</time></trkpt><trkpt lat="14.397136394023967" lon="120.9778227433443"><ele>39.0</ele><time>2026-04-04T10:56:25Z</time></trkpt><trkpt lat="14.397205715781721" lon="120.9778253286527"><ele>39.0</ele><time>2026-04-04T10:56:26Z</time></trkpt><trkpt lat="14.397271832696894" lon="120.97782623512913"><ele>39.0</ele><time>2026-04-04T10:56:27Z</time></trkpt><trkpt lat="14.397375690166736" lon="120.97782323126302"><ele>39.0</ele><time>2026-04-04T10:56:29Z</time></trkpt><trkpt lat="14.397443892450552" lon="120.97781863104113"><ele>39.0</ele><time>2026-04-04T10:56:31Z</time></trkpt><trkpt lat="14.397533035794666" lon="120.97781836332324"><ele>39.0</ele><time>2026-04-04T10:56:33Z</time></trkpt><trkpt lat="14.397626717773724" lon="120.97781730593277"><ele>39.0</ele><time>2026-04-04T10:56:35Z</time></trkpt><trkpt lat="14.39771640825855" lon="120.97782519936356"><ele>39.0</ele><time>2026-04-04T10:56:37Z</time></trkpt><trkpt lat="14.397818899710728" lon="120.97782973433611"><ele>39.0</ele><time>2026-04-04T10:56:39Z</time></trkpt><trkpt lat="14.397884501866532" lon="120.9778346667431"><ele>39.0</ele><time>2026-04-04T10:56:41Z</time></trkpt><trkpt lat="14.39801024000337" lon="120.97784927140601"><ele>38.666666666666664</ele><time>2026-04-04T10:56:43Z</time></trkpt><trkpt lat="14.398080224989888" lon="120.97784477877087"><ele>38.333333333333336</ele><time>2026-04-04T10:56:44Z</time></trkpt><trkpt lat="14.39818809256604" lon="120.97784300852112"><ele>38.0</ele><time>2026-04-04T10:56:46Z</time></trkpt><trkpt lat="14.398259146714455" lon="120.97784177879537"><ele>37.66666666666667</ele><time>2026-04-04T10:56:51Z</time></trkpt><trkpt lat="14.39833693410946" lon="120.97783136607309"><ele>37.333333333333336</ele><time>2026-04-04T10:56:54Z</time></trkpt><trkpt lat="14.398403331260985" lon="120.97782595882282"><ele>37.0</ele><time>2026-04-04T10:56:57Z</time></trkpt><trkpt lat="14.39849106008302" lon="120.97783074580619"><ele>37.0</ele><time>2026-04-04T10:56:59Z</time></trkpt><trkpt lat="14.398563219302721" lon="120.97781869881095"><ele>37.0</ele><time>2026-04-04T10:57:01Z</time></trkpt><trkpt lat="14.398646440458645" lon="120.9777908103017"><ele>37.0</ele><time>2026-04-04T10:57:07Z</time></trkpt><trkpt lat="14.398737858753355" lon="120.97777143387961"><ele>37.0</ele><time>2026-04-04T10:57:10Z</time></trkpt><trkpt lat="14.398833878858156" lon="120.97774882334402"><ele>37.0</ele><time>2026-04-04T10:57:12Z</time></trkpt><trkpt lat="14.398899540901969" lon="120.97773066042664"><ele>37.0</ele><time>2026-04-04T10:57:13Z</time></trkpt><trkpt lat="14.398969096711962" lon="120.97771219364712"><ele>37.0</ele><time>2026-04-04T10:57:14Z</time></trkpt><trkpt lat="14.399041142644135" lon="120.97769884878764"><ele>37.0</ele><time>2026-04-04T10:57:15Z</time></trkpt><trkpt lat="14.39912762030054" lon="120.97768799945335"><ele>37.0</ele><time>2026-04-04T10:57:16Z</time></trkpt><trkpt lat="14.399221710388964" lon="120.97768055640323"><ele>37.0</ele><time>2026-04-04T10:57:17Z</time></trkpt><trkpt lat="14.39929905002292" lon="120.97766975638804"><ele>37.0</ele><time>2026-04-04T10:57:18Z</time></trkpt><trkpt lat="14.39941544797108" lon="120.97764815814573"><ele>37.0</ele><time>2026-04-04T10:57:20Z</time></trkpt><trkpt lat="14.399526392773664" lon="120.97762721102826"><ele>37.0</ele><time>2026-04-04T10:57:22Z</time></trkpt><trkpt lat="14.399637044370722" lon="120.9775964222483"><ele>37.0</ele><time>2026-04-04T10:57:24Z</time></trkpt><trkpt lat="14.399706794677426" lon="120.97757819162936"><ele>37.0</ele><time>2026-04-04T10:57:26Z</time></trkpt><trkpt lat="14.399778152823787" lon="120.9775616332411"><ele>37.0</ele><time>2026-04-04T10:57:28Z</time></trkpt><trkpt lat="14.399847753785092" lon="120.97755303760853"><ele>37.0</ele><time>2026-04-04T10:57:30Z</time></trkpt><trkpt lat="14.399924017384844" lon="120.9775414739996"><ele>37.0</ele><time>2026-04-04T10:57:32Z</time></trkpt><trkpt lat="14.400014489685711" lon="120.97751644531252"><ele>37.0</ele><time>2026-04-04T10:57:34Z</time></trkpt><trkpt lat="14.400091401516834" lon="120.97749386259879"><ele>37.0</ele><time>2026-04-04T10:57:36Z</time></trkpt><trkpt lat="14.400195986616012" lon="120.97745933167299"><ele>37.0</ele><time>2026-04-04T10:57:38Z</time></trkpt><trkpt lat="14.400326521551062" lon="120.97743700319131"><ele>37.0</ele><time>2026-04-04T10:57:40Z</time></trkpt><trkpt lat="14.400407259413397" lon="120.97742431360732"><ele>37.0</ele><time>2026-04-04T10:57:41Z</time></trkpt><trkpt lat="14.400489761374285" lon="120.97741035009189"><ele>37.0</ele><time>2026-04-04T10:57:42Z</time></trkpt><trkpt lat="14.400570236418934" lon="120.97739796519275"><ele>37.0</ele><time>2026-04-04T10:57:43Z</time></trkpt><trkpt lat="14.40065571226387" lon="120.97738247476026"><ele>37.0</ele><time>2026-04-04T10:57:44Z</time></trkpt><trkpt lat="14.400742175296926" lon="120.97736063841526"><ele>37.0</ele><time>2026-04-04T10:57:45Z</time></trkpt><trkpt lat="14.400831668120247" lon="120.97734018529802"><ele>37.0</ele><time>2026-04-04T10:57:46Z</time></trkpt><trkpt lat="14.400925420227296" lon="120.97731829752973"><ele>36.800000000000004</ele><time>2026-04-04T10:57:47Z</time></trkpt><trkpt lat="14.40101539398757" lon="120.9772975122032"><ele>36.6</ele><time>2026-04-04T10:57:48Z</time></trkpt><trkpt lat="14.401109653252504" lon="120.9772764771353"><ele>36.400000000000006</ele><time>2026-04-04T10:57:49Z</time></trkpt><trkpt lat="14.401206522484774" lon="120.97725415655182"><ele>36.2</ele><time>2026-04-04T10:57:50Z</time></trkpt><trkpt lat="14.401303663591667" lon="120.97723129743407"><ele>36.0</ele><time>2026-04-04T10:57:51Z</time></trkpt><trkpt lat="14.401401066436263" lon="120.97721009634846"><ele>36.0</ele><time>2026-04-04T10:57:52Z</time></trkpt><trkpt lat="14.401500078389239" lon="120.97719013452758"><ele>36.0</ele><time>2026-04-04T10:57:53Z</time></trkpt><trkpt lat="14.401609059436048" lon="120.97717616912708"><ele>36.0</ele><time>2026-04-04T10:57:54Z</time></trkpt><trkpt lat="14.401717092478838" lon="120.97716378056474"><ele>36.0</ele><time>2026-04-04T10:57:55Z</time></trkpt><trkpt lat="14.401832020079418" lon="120.97715503296735"><ele>36.0</ele><time>2026-04-04T10:57:56Z</time></trkpt><trkpt lat="14.401952541665414" lon="120.9771498752286"><ele>36.0</ele><time>2026-04-04T10:57:57Z</time></trkpt><trkpt lat="14.402064698489376" lon="120.97714703876292"><ele>36.0</ele><time>2026-04-04T10:57:58Z</time></trkpt><trkpt lat="14.402190034990882" lon="120.97714649926935"><ele>36.0</ele><time>2026-04-04T10:57:59Z</time></trkpt><trkpt lat="14.402314634357847" lon="120.97714848263668"><ele>36.0</ele><time>2026-04-04T10:58:00Z</time></trkpt><trkpt lat="14.402441725266527" lon="120.97714836303338"><ele>35.75</ele><time>2026-04-04T10:58:01Z</time></trkpt><trkpt lat="14.402567105240072" lon="120.97714665254985"><ele>35.5</ele><time>2026-04-04T10:58:02Z</time></trkpt><trkpt lat="14.402690046321803" lon="120.9771439421067"><ele>35.25</ele><time>2026-04-04T10:58:03Z</time></trkpt><trkpt lat="14.402810588426753" lon="120.97713578256284"><ele>35.0</ele><time>2026-04-04T10:58:04Z</time></trkpt><trkpt lat="14.4029312024044" lon="120.97712594546037"><ele>34.5</ele><time>2026-04-04T10:58:05Z</time></trkpt><trkpt lat="14.40305514977012" lon="120.97711231797032"><ele>34.0</ele><time>2026-04-04T10:58:06Z</time></trkpt><trkpt lat="14.40317408022064" lon="120.97709635714021"><ele>33.5</ele><time>2026-04-04T10:58:07Z</time></trkpt><trkpt lat="14.403297456454474" lon="120.97708108973478"><ele>33.0</ele><time>2026-04-04T10:58:08Z</time></trkpt><trkpt lat="14.403415542391704" lon="120.97706485630793"><ele>33.0</ele><time>2026-04-04T10:58:09Z</time></trkpt><trkpt lat="14.403531984432515" lon="120.97704758527497"><ele>33.0</ele><time>2026-04-04T10:58:10Z</time></trkpt><trkpt lat="14.403653197504001" lon="120.97703215165528"><ele>33.0</ele><time>2026-04-04T10:58:11Z</time></trkpt><trkpt lat="14.40377668165743" lon="120.97702414527608"><ele>33.0</ele><time>2026-04-04T10:58:12Z</time></trkpt><trkpt lat="14.403896078828565" lon="120.97701917848616"><ele>34.5</ele><time>2026-04-04T10:58:13Z</time></trkpt><trkpt lat="14.404017989905297" lon="120.97701189108834"><ele>36.0</ele><time>2026-04-04T10:58:14Z</time></trkpt><trkpt lat="14.404135414181642" lon="120.97701697666551"><ele>37.5</ele><time>2026-04-04T10:58:15Z</time></trkpt><trkpt lat="14.404245776444228" lon="120.97702754543577"><ele>39.0</ele><time>2026-04-04T10:58:16Z</time></trkpt><trkpt lat="14.404353555943166" lon="120.97703948977764"><ele>39.0</ele><time>2026-04-04T10:58:17Z</time></trkpt><trkpt lat="14.404456264975932" lon="120.9770520506583"><ele>39.0</ele><time>2026-04-04T10:58:18Z</time></trkpt><trkpt lat="14.40454771752085" lon="120.97706746315211"><ele>39.0</ele><time>2026-04-04T10:58:19Z</time></trkpt><trkpt lat="14.404634269088241" lon="120.97708795053168"><ele>39.0</ele><time>2026-04-04T10:58:20Z</time></trkpt><trkpt lat="14.40471718134938" lon="120.9771082319763"><ele>39.0</ele><time>2026-04-04T10:58:21Z</time></trkpt><trkpt lat="14.404792548272386" lon="120.9771315387098"><ele>39.0</ele><time>2026-04-04T10:58:22Z</time></trkpt><trkpt lat="14.404866419214587" lon="120.97715728692428"><ele>38.85714285714286</ele><time>2026-04-04T10:58:23Z</time></trkpt><trkpt lat="14.404937523550972" lon="120.97718801500325"><ele>38.71428571428571</ele><time>2026-04-04T10:58:24Z</time></trkpt><trkpt lat="14.405005916598395" lon="120.97721609002465"><ele>38.57142857142857</ele><time>2026-04-04T10:58:25Z</time></trkpt><trkpt lat="14.405070521988742" lon="120.97724770173866"><ele>38.42857142857143</ele><time>2026-04-04T10:58:26Z</time></trkpt><trkpt lat="14.405131964356928" lon="120.97727213417039"><ele>38.28571428571429</ele><time>2026-04-04T10:58:27Z</time></trkpt><trkpt lat="14.40519351715587" lon="120.97730183232316"><ele>38.14285714285714</ele><time>2026-04-04T10:58:28Z</time></trkpt><trkpt lat="14.40525363441023" lon="120.97733293203042"><ele>38.0</ele><time>2026-04-04T10:58:29Z</time></trkpt><trkpt lat="14.405364099117234" lon="120.9773821601091"><ele>38.0</ele><time>2026-04-04T10:58:31Z</time></trkpt><trkpt lat="14.405461279135608" lon="120.97743773817562"><ele>38.0</ele><time>2026-04-04T10:58:33Z</time></trkpt><trkpt lat="14.40552427556008" lon="120.97746936791654"><ele>38.0</ele><time>2026-04-04T10:58:34Z</time></trkpt><trkpt lat="14.405599757178543" lon="120.97749111761509"><ele>38.0</ele><time>2026-04-04T10:58:35Z</time></trkpt><trkpt lat="14.405670277652995" lon="120.97751685831902"><ele>38.0</ele><time>2026-04-04T10:58:36Z</time></trkpt><trkpt lat="14.405745206322663" lon="120.97755182422097"><ele>38.0</ele><time>2026-04-04T10:58:37Z</time></trkpt><trkpt lat="14.40583282785874" lon="120.9775910390752"><ele>37.6</ele><time>2026-04-04T10:58:38Z</time></trkpt><trkpt lat="14.405919475412638" lon="120.9776244594965"><ele>37.199999999999996</ele><time>2026-04-04T10:58:39Z</time></trkpt><trkpt lat="14.406005547189398" lon="120.97765009746907"><ele>36.8</ele><time>2026-04-04T10:58:40Z</time></trkpt><trkpt lat="14.406087928354061" lon="120.97767075804384"><ele>36.4</ele><time>2026-04-04T10:58:41Z</time></trkpt><trkpt lat="14.406199869380478" lon="120.97769133153754"><ele>36.0</ele><time>2026-04-04T10:58:43Z</time></trkpt><trkpt lat="14.40628811573345" lon="120.97769678628961"><ele>35.333333333333336</ele><time>2026-04-04T10:58:45Z</time></trkpt><trkpt lat="14.406351792431627" lon="120.97770194448788"><ele>34.666666666666664</ele><time>2026-04-04T10:58:47Z</time></trkpt><trkpt lat="14.406429459284604" lon="120.97769894890273"><ele>34.0</ele><time>2026-04-04T10:58:50Z</time></trkpt><trkpt lat="14.406502141634672" lon="120.97769233853911"><ele>33.33333333333333</ele><time>2026-04-04T10:58:54Z</time></trkpt><trkpt lat="14.406572018219736" lon="120.97766557796939"><ele>32.666666666666664</ele><time>2026-04-04T11:00:12Z</time></trkpt><trkpt lat="14.406675081142124" lon="120.9776699309448"><ele>32.0</ele><time>2026-04-04T11:00:14Z</time></trkpt><trkpt lat="14.40675061644833" lon="120.97765729375165"><ele>32.800000000000004</ele><time>2026-04-04T11:00:16Z</time></trkpt><trkpt lat="14.406764434948185" lon="120.97748334720846"><ele>33.6</ele><time>2026-04-04T11:00:17Z</time></trkpt><trkpt lat="14.406769322989483" lon="120.97740638661938"><ele>34.400000000000006</ele><time>2026-04-04T11:00:18Z</time></trkpt><trkpt lat="14.406767810567054" lon="120.97731681676319"><ele>35.2</ele><time>2026-04-04T11:00:19Z</time></trkpt><trkpt lat="14.406769522695367" lon="120.97721610310376"><ele>36.0</ele><time>2026-04-04T11:00:20Z</time></trkpt><trkpt lat="14.40677407701707" lon="120.97710829745982"><ele>36.0</ele><time>2026-04-04T11:00:21Z</time></trkpt><trkpt lat="14.406777535426261" lon="120.97699523084319"><ele>36.0</ele><time>2026-04-04T11:00:22Z</time></trkpt><trkpt lat="14.406778068843808" lon="120.9768770312512"><ele>36.0</ele><time>2026-04-04T11:00:23Z</time></trkpt><trkpt lat="14.406778685992588" lon="120.97675500698335"><ele>36.0</ele><time>2026-04-04T11:00:24Z</time></trkpt><trkpt lat="14.406780200927729" lon="120.97662701258716"><ele>36.0</ele><time>2026-04-04T11:00:25Z</time></trkpt><trkpt lat="14.406782664449155" lon="120.97649631852381"><ele>36.0</ele><time>2026-04-04T11:00:26Z</time></trkpt><trkpt lat="14.406783492450996" lon="120.97636487242694"><ele>36.0</ele><time>2026-04-04T11:00:27Z</time></trkpt><trkpt lat="14.406788770034387" lon="120.97623374131122"><ele>36.0</ele><time>2026-04-04T11:00:28Z</time></trkpt><trkpt lat="14.406793625130765" lon="120.97609780574162"><ele>36.0</ele><time>2026-04-04T11:00:29Z</time></trkpt><trkpt lat="14.406800199896757" lon="120.97595784953181"><ele>36.0</ele><time>2026-04-04T11:00:30Z</time></trkpt><trkpt lat="14.406807284333585" lon="120.97581944988349"><ele>36.0</ele><time>2026-04-04T11:00:31Z</time></trkpt><trkpt lat="14.406810649836112" lon="120.97568069659849"><ele>36.0</ele><time>2026-04-04T11:00:32Z</time></trkpt><trkpt lat="14.406813238238342" lon="120.97554340838975"><ele>35.5</ele><time>2026-04-04T11:00:33Z</time></trkpt><trkpt lat="14.40681675801722" lon="120.97540745334196"><ele>35.0</ele><time>2026-04-04T11:00:34Z</time></trkpt><trkpt lat="14.406820165696104" lon="120.9752696740747"><ele>34.5</ele><time>2026-04-04T11:00:35Z</time></trkpt><trkpt lat="14.406828890525617" lon="120.97512996057146"><ele>34.0</ele><time>2026-04-04T11:00:36Z</time></trkpt><trkpt lat="14.406847384147348" lon="120.97498926207639"><ele>34.0</ele><time>2026-04-04T11:00:37Z</time></trkpt><trkpt lat="14.406869960838758" lon="120.97484816196531"><ele>34.0</ele><time>2026-04-04T11:00:38Z</time></trkpt><trkpt lat="14.406900248524222" lon="120.97470402924301"><ele>34.0</ele><time>2026-04-04T11:00:39Z</time></trkpt><trkpt lat="14.406936548911734" lon="120.97455707565085"><ele>34.0</ele><time>2026-04-04T11:00:40Z</time></trkpt><trkpt lat="14.406978593135502" lon="120.97440896193328"><ele>34.0</ele><time>2026-04-04T11:00:41Z</time></trkpt><trkpt lat="14.407026520941518" lon="120.97426222700437"><ele>34.0</ele><time>2026-04-04T11:00:42Z</time></trkpt><trkpt lat="14.407079306084794" lon="120.97411438174377"><ele>34.0</ele><time>2026-04-04T11:00:43Z</time></trkpt><trkpt lat="14.407136362756935" lon="120.97396583825176"><ele>33.66666666666667</ele><time>2026-04-04T11:00:44Z</time></trkpt><trkpt lat="14.407191516533512" lon="120.97381724144314"><ele>33.333333333333336</ele><time>2026-04-04T11:00:45Z</time></trkpt><trkpt lat="14.407244785493075" lon="120.97366601824676"><ele>33.0</ele><time>2026-04-04T11:00:46Z</time></trkpt><trkpt lat="14.407296297268472" lon="120.97351059627525"><ele>32.333333333333336</ele><time>2026-04-04T11:00:47Z</time></trkpt><trkpt lat="14.407348950499" lon="120.97335258232671"><ele>31.666666666666668</ele><time>2026-04-04T11:00:48Z</time></trkpt><trkpt lat="14.40740345117564" lon="120.97319481248768"><ele>31.0</ele><time>2026-04-04T11:00:49Z</time></trkpt><trkpt lat="14.407458811923425" lon="120.9730379932293"><ele>31.0</ele><time>2026-04-04T11:00:50Z</time></trkpt><trkpt lat="14.407514392946487" lon="120.9728818248798"><ele>31.0</ele><time>2026-04-04T11:00:51Z</time></trkpt><trkpt lat="14.407568258509892" lon="120.97272347003646"><ele>31.0</ele><time>2026-04-04T11:00:52Z</time></trkpt><trkpt lat="14.407625066546942" lon="120.97256603076097"><ele>30.333333333333336</ele><time>2026-04-04T11:00:53Z</time></trkpt><trkpt lat="14.407679383790144" lon="120.9724078514252"><ele>29.666666666666664</ele><time>2026-04-04T11:00:54Z</time></trkpt><trkpt lat="14.40773214418128" lon="120.97224767273997"><ele>29.0</ele><time>2026-04-04T11:00:55Z</time></trkpt><trkpt lat="14.407787731892574" lon="120.97209115603783"><ele>29.0</ele><time>2026-04-04T11:00:56Z</time></trkpt><trkpt lat="14.407845843862905" lon="120.97193276386194"><ele>29.0</ele><time>2026-04-04T11:00:57Z</time></trkpt><trkpt lat="14.40790135115381" lon="120.97177570497155"><ele>29.0</ele><time>2026-04-04T11:00:58Z</time></trkpt><trkpt lat="14.407960026888512" lon="120.97161767299524"><ele>30.0</ele><time>2026-04-04T11:00:59Z</time></trkpt><trkpt lat="14.408024047465116" lon="120.9714638982468"><ele>31.0</ele><time>2026-04-04T11:01:00Z</time></trkpt><trkpt lat="14.40809666421671" lon="120.97131292799187"><ele>32.0</ele><time>2026-04-04T11:01:01Z</time></trkpt><trkpt lat="14.408185906779968" lon="120.97116664750652"><ele>32.0</ele><time>2026-04-04T11:01:02Z</time></trkpt><trkpt lat="14.408285153171697" lon="120.97102792161262"><ele>32.0</ele><time>2026-04-04T11:01:03Z</time></trkpt><trkpt lat="14.40839835673276" lon="120.97088977090421"><ele>32.0</ele><time>2026-04-04T11:01:04Z</time></trkpt><trkpt lat="14.408509231902917" lon="120.97075904228322"><ele>31.0</ele><time>2026-04-04T11:01:05Z</time></trkpt><trkpt lat="14.408617203826285" lon="120.97062519771696"><ele>30.0</ele><time>2026-04-04T11:01:06Z</time></trkpt><trkpt lat="14.40872688336138" lon="120.97049311790272"><ele>29.0</ele><time>2026-04-04T11:01:07Z</time></trkpt><trkpt lat="14.408838339648675" lon="120.97036144560482"><ele>29.0</ele><time>2026-04-04T11:01:08Z</time></trkpt><trkpt lat="14.40894651285801" lon="120.97023452318606"><ele>29.0</ele><time>2026-04-04T11:01:09Z</time></trkpt><trkpt lat="14.409048941381915" lon="120.97010774524857"><ele>29.0</ele><time>2026-04-04T11:01:10Z</time></trkpt><trkpt lat="14.409145075678662" lon="120.96998812834791"><ele>29.0</ele><time>2026-04-04T11:01:11Z</time></trkpt><trkpt lat="14.409246136170712" lon="120.96986760050179"><ele>29.0</ele><time>2026-04-04T11:01:12Z</time></trkpt><trkpt lat="14.409347892023602" lon="120.96975063173504"><ele>29.0</ele><time>2026-04-04T11:01:13Z</time></trkpt><trkpt lat="14.409460204039458" lon="120.96964244793827"><ele>29.0</ele><time>2026-04-04T11:01:14Z</time></trkpt><trkpt lat="14.409579860805264" lon="120.96954309979797"><ele>29.0</ele><time>2026-04-04T11:01:15Z</time></trkpt><trkpt lat="14.409709277323753" lon="120.96945578495178"><ele>29.0</ele><time>2026-04-04T11:01:16Z</time></trkpt><trkpt lat="14.409842167671512" lon="120.96937762298238"><ele>28.666666666666664</ele><time>2026-04-04T11:01:17Z</time></trkpt><trkpt lat="14.409979438232453" lon="120.9693105726044"><ele>28.333333333333336</ele><time>2026-04-04T11:01:18Z</time></trkpt><trkpt lat="14.41011740983054" lon="120.96924763668001"><ele>28.0</ele><time>2026-04-04T11:01:19Z</time></trkpt><trkpt lat="14.410257370280569" lon="120.96918526858677"><ele>28.666666666666668</ele><time>2026-04-04T11:01:20Z</time></trkpt><trkpt lat="14.410397566207026" lon="120.96912277831804"><ele>29.333333333333336</ele><time>2026-04-04T11:01:21Z</time></trkpt><trkpt lat="14.410539209193237" lon="120.96906035652837"><ele>30.0</ele><time>2026-04-04T11:01:22Z</time></trkpt><trkpt lat="14.410679099005627" lon="120.96900031687522"><ele>30.0</ele><time>2026-04-04T11:01:23Z</time></trkpt><trkpt lat="14.410807655374477" lon="120.96894387780905"><ele>30.0</ele><time>2026-04-04T11:01:24Z</time></trkpt><trkpt lat="14.410937001154876" lon="120.96888987948117"><ele>30.0</ele><time>2026-04-04T11:01:25Z</time></trkpt><trkpt lat="14.411056384126063" lon="120.96883915347377"><ele>30.0</ele><time>2026-04-04T11:01:26Z</time></trkpt><trkpt lat="14.411178160149944" lon="120.96878697886577"><ele>30.0</ele><time>2026-04-04T11:01:27Z</time></trkpt><trkpt lat="14.411294872050878" lon="120.96873673754439"><ele>30.0</ele><time>2026-04-04T11:01:28Z</time></trkpt><trkpt lat="14.411398960497197" lon="120.96869372599345"><ele>30.0</ele><time>2026-04-04T11:01:29Z</time></trkpt><trkpt lat="14.411502684790621" lon="120.9686517043841"><ele>30.0</ele><time>2026-04-04T11:01:30Z</time></trkpt><trkpt lat="14.411595461718626" lon="120.96861515167147"><ele>30.0</ele><time>2026-04-04T11:01:31Z</time></trkpt><trkpt lat="14.411685735199883" lon="120.9685724936078"><ele>29.666666666666668</ele><time>2026-04-04T11:01:32Z</time></trkpt><trkpt lat="14.411755140059386" lon="120.96854662081145"><ele>29.333333333333336</ele><time>2026-04-04T11:01:33Z</time></trkpt><trkpt lat="14.41186443606969" lon="120.96850132435445"><ele>29.0</ele><time>2026-04-04T11:01:35Z</time></trkpt><trkpt lat="14.41195229453431" lon="120.96847530977232"><ele>28.666666666666668</ele><time>2026-04-04T11:01:37Z</time></trkpt><trkpt lat="14.412011329790609" lon="120.96844754780723"><ele>28.333333333333336</ele><time>2026-04-04T11:01:41Z</time></trkpt><trkpt lat="14.412064503845114" lon="120.96838697060154"><ele>28.0</ele><time>2026-04-04T11:01:46Z</time></trkpt><trkpt lat="14.412134917071729" lon="120.96836468307481"><ele>28.166666666666668</ele><time>2026-04-04T11:01:49Z</time></trkpt><trkpt lat="14.412202479857951" lon="120.96836094611477"><ele>28.333333333333336</ele><time>2026-04-04T11:01:54Z</time></trkpt><trkpt lat="14.412263336386319" lon="120.96832243598043"><ele>28.5</ele><time>2026-04-04T11:01:57Z</time></trkpt><trkpt lat="14.412342704540595" lon="120.96827510610102"><ele>28.666666666666664</ele><time>2026-04-04T11:01:59Z</time></trkpt><trkpt lat="14.412454486944958" lon="120.96822382732141"><ele>28.833333333333332</ele><time>2026-04-04T11:02:01Z</time></trkpt><trkpt lat="14.412532797227072" lon="120.96818994433859"><ele>29.0</ele><time>2026-04-04T11:02:02Z</time></trkpt><trkpt lat="14.412624437423037" lon="120.96814982942634"><ele>29.25</ele><time>2026-04-04T11:02:03Z</time></trkpt><trkpt lat="14.41272562175448" lon="120.96810504512875"><ele>29.5</ele><time>2026-04-04T11:02:04Z</time></trkpt><trkpt lat="14.412836549568409" lon="120.96805348372567"><ele>29.75</ele><time>2026-04-04T11:02:05Z</time></trkpt><trkpt lat="14.412957050567048" lon="120.96800043629356"><ele>30.0</ele><time>2026-04-04T11:02:06Z</time></trkpt><trkpt lat="14.413082539226856" lon="120.96794484672289"><ele>28.333333333333336</ele><time>2026-04-04T11:02:07Z</time></trkpt><trkpt lat="14.413214411704995" lon="120.96788709201742"><ele>26.666666666666668</ele><time>2026-04-04T11:02:08Z</time></trkpt><trkpt lat="14.413357341641927" lon="120.96783462675099"><ele>25.0</ele><time>2026-04-04T11:02:09Z</time></trkpt><trkpt lat="14.413510870933457" lon="120.96778944736445"><ele>25.0</ele><time>2026-04-04T11:02:10Z</time></trkpt><trkpt lat="14.413669374097365" lon="120.96774917156928"><ele>25.0</ele><time>2026-04-04T11:02:11Z</time></trkpt><trkpt lat="14.413829062807963" lon="120.96770381848528"><ele>25.0</ele><time>2026-04-04T11:02:12Z</time></trkpt><trkpt lat="14.413985347038789" lon="120.967661999731"><ele>25.0</ele><time>2026-04-04T11:02:13Z</time></trkpt><trkpt lat="14.41413802690932" lon="120.96762221020873"><ele>25.0</ele><time>2026-04-04T11:02:14Z</time></trkpt><trkpt lat="14.414287206761314" lon="120.9675785520398"><ele>25.0</ele><time>2026-04-04T11:02:15Z</time></trkpt><trkpt lat="14.414432712211667" lon="120.96753845027389"><ele>25.333333333333336</ele><time>2026-04-04T11:02:16Z</time></trkpt><trkpt lat="14.41457947465035" lon="120.96749315916871"><ele>25.666666666666664</ele><time>2026-04-04T11:02:17Z</time></trkpt><trkpt lat="14.414731370230253" lon="120.96744979660987"><ele>26.0</ele><time>2026-04-04T11:02:18Z</time></trkpt><trkpt lat="14.41488641204116" lon="120.96740823730092"><ele>26.0</ele><time>2026-04-04T11:02:19Z</time></trkpt><trkpt lat="14.415042496247034" lon="120.96736488062268"><ele>26.0</ele><time>2026-04-04T11:02:20Z</time></trkpt><trkpt lat="14.415192516785833" lon="120.96731832416779"><ele>26.0</ele><time>2026-04-04T11:02:21Z</time></trkpt><trkpt lat="14.41534409242097" lon="120.96728056003832"><ele>26.333333333333332</ele><time>2026-04-04T11:02:22Z</time></trkpt><trkpt lat="14.415498924688293" lon="120.96724624175896"><ele>26.666666666666664</ele><time>2026-04-04T11:02:23Z</time></trkpt><trkpt lat="14.415652778595742" lon="120.96722129888053"><ele>27.0</ele><time>2026-04-04T11:02:24Z</time></trkpt><trkpt lat="14.41581191566506" lon="120.96720706744743"><ele>27.0</ele><time>2026-04-04T11:02:25Z</time></trkpt><trkpt lat="14.415970613873535" lon="120.96720068455443"><ele>27.0</ele><time>2026-04-04T11:02:26Z</time></trkpt><trkpt lat="14.416135393219593" lon="120.9672031276583"><ele>27.0</ele><time>2026-04-04T11:02:27Z</time></trkpt><trkpt lat="14.416296448088875" lon="120.96721651815645"><ele>26.333333333333336</ele><time>2026-04-04T11:02:28Z</time></trkpt><trkpt lat="14.416458739056816" lon="120.96723701993992"><ele>25.666666666666668</ele><time>2026-04-04T11:02:29Z</time></trkpt><trkpt lat="14.416624176996539" lon="120.96725757029778"><ele>25.0</ele><time>2026-04-04T11:02:30Z</time></trkpt><trkpt lat="14.416778151944488" lon="120.96728008216553"><ele>25.0</ele><time>2026-04-04T11:02:31Z</time></trkpt><trkpt lat="14.416928410701948" lon="120.96730004644665"><ele>25.0</ele><time>2026-04-04T11:02:32Z</time></trkpt><trkpt lat="14.417067655948147" lon="120.96729373099986"><ele>25.0</ele><time>2026-04-04T11:02:33Z</time></trkpt><trkpt lat="14.41720961921667" lon="120.96731087231494"><ele>25.0</ele><time>2026-04-04T11:02:34Z</time></trkpt><trkpt lat="14.417349514420764" lon="120.96732808735577"><ele>24.75</ele><time>2026-04-04T11:02:35Z</time></trkpt><trkpt lat="14.417484866923441" lon="120.96734474339905"><ele>24.5</ele><time>2026-04-04T11:02:36Z</time></trkpt><trkpt lat="14.417616945109277" lon="120.96736099651142"><ele>24.25</ele><time>2026-04-04T11:02:37Z</time></trkpt><trkpt lat="14.417739514690851" lon="120.96737300436467"><ele>24.0</ele><time>2026-04-04T11:02:38Z</time></trkpt><trkpt lat="14.417855758331934" lon="120.96737912245042"><ele>24.0</ele><time>2026-04-04T11:02:39Z</time></trkpt><trkpt lat="14.41796437993643" lon="120.96738483937659"><ele>24.0</ele><time>2026-04-04T11:02:40Z</time></trkpt><trkpt lat="14.418059642842463" lon="120.96738985321103"><ele>24.0</ele><time>2026-04-04T11:02:41Z</time></trkpt><trkpt lat="14.418131465607596" lon="120.96738875880885"><ele>24.0</ele><time>2026-04-04T11:02:42Z</time></trkpt><trkpt lat="14.418222739124992" lon="120.96743198438473"><ele>24.0</ele><time>2026-04-04T11:02:44Z</time></trkpt><trkpt lat="14.418280524311744" lon="120.9674740463006"><ele>24.0</ele><time>2026-04-04T11:02:48Z</time></trkpt><trkpt lat="14.41834269154661" lon="120.96737969659422"><ele>23.5</ele><time>2026-04-04T11:02:52Z</time></trkpt><trkpt lat="14.418391880501735" lon="120.96750407544131"><ele>23.0</ele><time>2026-04-04T11:02:55Z</time></trkpt><trkpt lat="14.418390178973775" lon="120.96737765926956"><ele>22.5</ele><time>2026-04-04T11:03:03Z</time></trkpt><trkpt lat="14.418394949781977" lon="120.96750276968677"><ele>22.0</ele><time>2026-04-04T11:03:04Z</time></trkpt><trkpt lat="14.418392143292548" lon="120.96737757500297"><ele>22.0</ele><time>2026-04-04T11:03:19Z</time></trkpt><trkpt lat="14.418400305420079" lon="120.9675055429223"><ele>22.0</ele><time>2026-04-04T11:04:09Z</time></trkpt><trkpt lat="14.41839508514499" lon="120.9673774487866"><ele>22.0</ele><time>2026-04-04T11:04:13Z</time></trkpt><trkpt lat="14.418400305420079" lon="120.9675055429223"><ele>22.0</ele><time>2026-04-04T11:04:24Z</time></trkpt><trkpt lat="14.418459145287933" lon="120.96753207493893"><ele>22.0</ele><time>2026-04-04T11:12:04Z</time></trkpt><trkpt lat="14.418524375480306" lon="120.96753834328497"><ele>22.0</ele><time>2026-04-04T11:12:10Z</time></trkpt><trkpt lat="14.418589031391432" lon="120.96750981484138"><ele>22.0</ele><time>2026-04-04T11:12:57Z</time></trkpt><trkpt lat="14.41865916776316" lon="120.96750310896634"><ele>22.0</ele><time>2026-04-04T11:13:08Z</time></trkpt><trkpt lat="14.418947611475733" lon="120.96691576926574"><ele>22.0</ele><time>2026-04-04T11:14:04Z</time></trkpt><trkpt lat="14.41884958268218" lon="120.96698946228315"><ele>22.0</ele><time>2026-04-04T11:14:08Z</time></trkpt><trkpt lat="14.418741802601943" lon="120.96703583873531"><ele>22.0</ele><time>2026-04-04T11:14:10Z</time></trkpt><trkpt lat="14.418677586959612" lon="120.96713425010189"><ele>22.0</ele><time>2026-04-04T11:14:13Z</time></trkpt><trkpt lat="14.418639115764961" lon="120.96719534413569"><ele>22.0</ele><time>2026-04-04T11:14:15Z</time></trkpt><trkpt lat="14.418611933558525" lon="120.96728207782927"><ele>22.0</ele><time>2026-04-04T11:14:18Z</time></trkpt><trkpt lat="14.418597784258628" lon="120.96736278162054"><ele>22.0</ele><time>2026-04-04T11:14:21Z</time></trkpt><trkpt lat="14.418583419421875" lon="120.96742658896906"><ele>22.0</ele><time>2026-04-04T11:14:25Z</time></trkpt><trkpt lat="14.418640141062896" lon="120.96737948852875"><ele>22.0</ele><time>2026-04-04T11:27:44Z</time></trkpt><trkpt lat="14.418775022069113" lon="120.96736114064151"><ele>22.0</ele><time>2026-04-04T11:27:46Z</time></trkpt><trkpt lat="14.418854187495942" lon="120.96736558191759"><ele>22.0</ele><time>2026-04-04T11:27:47Z</time></trkpt><trkpt lat="14.41894402549119" lon="120.96735518265761"><ele>21.8</ele><time>2026-04-04T11:27:48Z</time></trkpt><trkpt lat="14.419038291168325" lon="120.9673525933622"><ele>21.6</ele><time>2026-04-04T11:27:49Z</time></trkpt><trkpt lat="14.419139622305995" lon="120.9673499398645"><ele>21.400000000000002</ele><time>2026-04-04T11:27:50Z</time></trkpt><trkpt lat="14.419242941158513" lon="120.96734615224567"><ele>21.200000000000003</ele><time>2026-04-04T11:27:51Z</time></trkpt><trkpt lat="14.41935249595181" lon="120.96734164638143"><ele>21.0</ele><time>2026-04-04T11:27:52Z</time></trkpt><trkpt lat="14.4194618025827" lon="120.96733742698243"><ele>21.0</ele><time>2026-04-04T11:27:53Z</time></trkpt><trkpt lat="14.419574145795801" lon="120.96732691138155"><ele>21.0</ele><time>2026-04-04T11:27:54Z</time></trkpt><trkpt lat="14.419692690085233" lon="120.96730775070303"><ele>21.0</ele><time>2026-04-04T11:27:55Z</time></trkpt><trkpt lat="14.419811176415928" lon="120.96728707195012"><ele>21.0</ele><time>2026-04-04T11:27:56Z</time></trkpt><trkpt lat="14.41993172700313" lon="120.96725518389249"><ele>21.5</ele><time>2026-04-04T11:27:57Z</time></trkpt><trkpt lat="14.42005325691356" lon="120.96721603480178"><ele>22.0</ele><time>2026-04-04T11:27:58Z</time></trkpt><trkpt lat="14.420176613823262" lon="120.9671727308416"><ele>22.5</ele><time>2026-04-04T11:27:59Z</time></trkpt><trkpt lat="14.420300021134157" lon="120.96712635027504"><ele>23.0</ele><time>2026-04-04T11:28:00Z</time></trkpt><trkpt lat="14.42042572893673" lon="120.96707708230201"><ele>22.5</ele><time>2026-04-04T11:28:01Z</time></trkpt><trkpt lat="14.420551402976953" lon="120.96702084933517"><ele>22.0</ele><time>2026-04-04T11:28:02Z</time></trkpt><trkpt lat="14.420680480579145" lon="120.96696167993035"><ele>21.5</ele><time>2026-04-04T11:28:03Z</time></trkpt><trkpt lat="14.420807043517362" lon="120.96690320846267"><ele>21.0</ele><time>2026-04-04T11:28:04Z</time></trkpt><trkpt lat="14.420933694006608" lon="120.96685083574822"><ele>21.0</ele><time>2026-04-04T11:28:05Z</time></trkpt><trkpt lat="14.421061575348471" lon="120.96679494075276"><ele>21.0</ele><time>2026-04-04T11:28:06Z</time></trkpt><trkpt lat="14.421193963282969" lon="120.96674014803988"><ele>21.0</ele><time>2026-04-04T11:28:07Z</time></trkpt><trkpt lat="14.421327605719508" lon="120.96668310083454"><ele>21.0</ele><time>2026-04-04T11:28:08Z</time></trkpt><trkpt lat="14.421459257314233" lon="120.96662348464942"><ele>21.5</ele><time>2026-04-04T11:28:09Z</time></trkpt><trkpt lat="14.421594869001062" lon="120.96656640488554"><ele>22.0</ele><time>2026-04-04T11:28:10Z</time></trkpt><trkpt lat="14.42173114719067" lon="120.96650933869228"><ele>22.5</ele><time>2026-04-04T11:28:11Z</time></trkpt><trkpt lat="14.421871677601635" lon="120.96645028248831"><ele>23.0</ele><time>2026-04-04T11:28:12Z</time></trkpt><trkpt lat="14.422004792807828" lon="120.966391935386"><ele>23.0</ele><time>2026-04-04T11:28:13Z</time></trkpt><trkpt lat="14.422142943469536" lon="120.96632932944082"><ele>23.0</ele><time>2026-04-04T11:28:14Z</time></trkpt><trkpt lat="14.42228086365242" lon="120.9662746379134"><ele>23.0</ele><time>2026-04-04T11:28:15Z</time></trkpt><trkpt lat="14.422433510096074" lon="120.96621338808906"><ele>22.5</ele><time>2026-04-04T11:28:16Z</time></trkpt><trkpt lat="14.422557353990975" lon="120.9661523085247"><ele>22.0</ele><time>2026-04-04T11:28:17Z</time></trkpt><trkpt lat="14.422692984025081" lon="120.9660972743866"><ele>21.5</ele><time>2026-04-04T11:28:18Z</time></trkpt><trkpt lat="14.422831434459239" lon="120.96604936328619"><ele>21.0</ele><time>2026-04-04T11:28:19Z</time></trkpt><trkpt lat="14.422971927528794" lon="120.96600997036788"><ele>21.5</ele><time>2026-04-04T11:28:20Z</time></trkpt><trkpt lat="14.42311013891283" lon="120.9659819159732"><ele>22.0</ele><time>2026-04-04T11:28:21Z</time></trkpt><trkpt lat="14.42324105732317" lon="120.96595856812475"><ele>22.5</ele><time>2026-04-04T11:28:22Z</time></trkpt><trkpt lat="14.423363241679567" lon="120.96594062668679"><ele>23.0</ele><time>2026-04-04T11:28:23Z</time></trkpt><trkpt lat="14.42347853540019" lon="120.96592769642062"><ele>23.0</ele><time>2026-04-04T11:28:24Z</time></trkpt><trkpt lat="14.423589080100616" lon="120.96592139423913"><ele>23.0</ele><time>2026-04-04T11:28:25Z</time></trkpt><trkpt lat="14.423698170649503" lon="120.96591262340745"><ele>23.0</ele><time>2026-04-04T11:28:26Z</time></trkpt><trkpt lat="14.42380690288901" lon="120.96590177997746"><ele>23.0</ele><time>2026-04-04T11:28:27Z</time></trkpt><trkpt lat="14.423911866289766" lon="120.96589579414986"><ele>23.0</ele><time>2026-04-04T11:28:28Z</time></trkpt><trkpt lat="14.424019716495112" lon="120.96588004645096"><ele>22.833333333333336</ele><time>2026-04-04T11:28:29Z</time></trkpt><trkpt lat="14.424106077917141" lon="120.96587524043144"><ele>22.666666666666668</ele><time>2026-04-04T11:28:30Z</time></trkpt><trkpt lat="14.424190994046674" lon="120.96586616704202"><ele>22.5</ele><time>2026-04-04T11:28:31Z</time></trkpt><trkpt lat="14.424267411637633" lon="120.96585830620712"><ele>22.333333333333332</ele><time>2026-04-04T11:28:32Z</time></trkpt><trkpt lat="14.424331966536826" lon="120.96584346945903"><ele>22.166666666666664</ele><time>2026-04-04T11:28:33Z</time></trkpt><trkpt lat="14.424397983651655" lon="120.96582627066753"><ele>22.0</ele><time>2026-04-04T11:28:34Z</time></trkpt><trkpt lat="14.424465365922613" lon="120.96580240974453"><ele>22.0</ele><time>2026-04-04T11:28:35Z</time></trkpt><trkpt lat="14.424526484652135" lon="120.96577833238825"><ele>22.0</ele><time>2026-04-04T11:28:36Z</time></trkpt><trkpt lat="14.424587005265805" lon="120.96574956699142"><ele>22.0</ele><time>2026-04-04T11:28:37Z</time></trkpt><trkpt lat="14.424657632515105" lon="120.96571586373447"><ele>22.0</ele><time>2026-04-04T11:28:38Z</time></trkpt><trkpt lat="14.424728081074695" lon="120.9656769755706"><ele>22.0</ele><time>2026-04-04T11:28:39Z</time></trkpt><trkpt lat="14.424804049259874" lon="120.96562501213276"><ele>22.0</ele><time>2026-04-04T11:28:40Z</time></trkpt><trkpt lat="14.424883754849018" lon="120.96557110664003"><ele>21.8</ele><time>2026-04-04T11:28:41Z</time></trkpt><trkpt lat="14.424965490316467" lon="120.96551182135788"><ele>21.6</ele><time>2026-04-04T11:28:42Z</time></trkpt><trkpt lat="14.425049267894883" lon="120.96544779494131"><ele>21.400000000000002</ele><time>2026-04-04T11:28:43Z</time></trkpt><trkpt lat="14.425136913099909" lon="120.96538059020946"><ele>21.200000000000003</ele><time>2026-04-04T11:28:44Z</time></trkpt><trkpt lat="14.425227568654769" lon="120.96531272043639"><ele>21.0</ele><time>2026-04-04T11:28:45Z</time></trkpt><trkpt lat="14.425325355541046" lon="120.9652406895144"><ele>21.0</ele><time>2026-04-04T11:28:46Z</time></trkpt><trkpt lat="14.425419865629875" lon="120.96516813560906"><ele>21.0</ele><time>2026-04-04T11:28:47Z</time></trkpt><trkpt lat="14.425516366273394" lon="120.96509978658766"><ele>21.0</ele><time>2026-04-04T11:28:48Z</time></trkpt><trkpt lat="14.425619873016913" lon="120.96503031994986"><ele>21.0</ele><time>2026-04-04T11:28:49Z</time></trkpt><trkpt lat="14.425726539928942" lon="120.96496065027166"><ele>20.75</ele><time>2026-04-04T11:28:50Z</time></trkpt><trkpt lat="14.425838131761589" lon="120.96489688141104"><ele>20.5</ele><time>2026-04-04T11:28:51Z</time></trkpt><trkpt lat="14.425942523838424" lon="120.96484474891807"><ele>20.25</ele><time>2026-04-04T11:28:52Z</time></trkpt><trkpt lat="14.426044323460706" lon="120.96479344856964"><ele>20.0</ele><time>2026-04-04T11:28:53Z</time></trkpt><trkpt lat="14.426147563023255" lon="120.96474438677505"><ele>20.0</ele><time>2026-04-04T11:28:54Z</time></trkpt><trkpt lat="14.426251935284794" lon="120.96469831860928"><ele>20.0</ele><time>2026-04-04T11:28:55Z</time></trkpt><trkpt lat="14.426356939596873" lon="120.96465548772979"><ele>20.0</ele><time>2026-04-04T11:28:56Z</time></trkpt><trkpt lat="14.426452714676937" lon="120.96462520996137"><ele>20.0</ele><time>2026-04-04T11:28:57Z</time></trkpt><trkpt lat="14.426543851128475" lon="120.96459229859512"><ele>20.0</ele><time>2026-04-04T11:28:58Z</time></trkpt><trkpt lat="14.426642426077274" lon="120.9645623214251"><ele>19.2</ele><time>2026-04-04T11:28:59Z</time></trkpt><trkpt lat="14.426748396698661" lon="120.96453430910829"><ele>18.4</ele><time>2026-04-04T11:29:00Z</time></trkpt><trkpt lat="14.426846873878006" lon="120.96450889872585"><ele>17.6</ele><time>2026-04-04T11:29:01Z</time></trkpt><trkpt lat="14.426938016347243" lon="120.96448245035127"><ele>16.8</ele><time>2026-04-04T11:29:02Z</time></trkpt><trkpt lat="14.427026648551497" lon="120.96446012760315"><ele>16.0</ele><time>2026-04-04T11:29:03Z</time></trkpt><trkpt lat="14.42712660889798" lon="120.96443646393561"><ele>16.166666666666664</ele><time>2026-04-04T11:29:04Z</time></trkpt><trkpt lat="14.427206223535288" lon="120.9644231667093"><ele>16.333333333333332</ele><time>2026-04-04T11:29:05Z</time></trkpt><trkpt lat="14.427297713420842" lon="120.96440530081101"><ele>16.5</ele><time>2026-04-04T11:29:06Z</time></trkpt><trkpt lat="14.427375759048788" lon="120.96440219904213"><ele>16.666666666666668</ele><time>2026-04-04T11:29:07Z</time></trkpt><trkpt lat="14.427462644774902" lon="120.9643920647076"><ele>16.833333333333336</ele><time>2026-04-04T11:29:08Z</time></trkpt><trkpt lat="14.427549195145387" lon="120.96439171956268"><ele>17.0</ele><time>2026-04-04T11:29:09Z</time></trkpt><trkpt lat="14.427644057319766" lon="120.96438495668458"><ele>17.0</ele><time>2026-04-04T11:29:10Z</time></trkpt><trkpt lat="14.427744612650695" lon="120.96438575866681"><ele>17.0</ele><time>2026-04-04T11:29:11Z</time></trkpt><trkpt lat="14.42784820755802" lon="120.96438468502717"><ele>17.0</ele><time>2026-04-04T11:29:12Z</time></trkpt><trkpt lat="14.42796203283468" lon="120.96438136095777"><ele>17.0</ele><time>2026-04-04T11:29:13Z</time></trkpt><trkpt lat="14.42805978554048" lon="120.96438760123148"><ele>17.0</ele><time>2026-04-04T11:29:14Z</time></trkpt><trkpt lat="14.4281479431433" lon="120.96438600575547"><ele>17.5</ele><time>2026-04-04T11:29:15Z</time></trkpt><trkpt lat="14.428218050477204" lon="120.96439802618069"><ele>18.0</ele><time>2026-04-04T11:29:16Z</time></trkpt><trkpt lat="14.428288469332246" lon="120.96439787253604"><ele>18.5</ele><time>2026-04-04T11:29:17Z</time></trkpt><trkpt lat="14.428362261521984" lon="120.96440185616805"><ele>19.0</ele><time>2026-04-04T11:29:18Z</time></trkpt><trkpt lat="14.428434192579788" lon="120.96441802863745"><ele>19.5</ele><time>2026-04-04T11:29:19Z</time></trkpt><trkpt lat="14.428516620555206" lon="120.96443009883178"><ele>20.0</ele><time>2026-04-04T11:29:20Z</time></trkpt><trkpt lat="14.428607870382757" lon="120.96444218357556"><ele>20.0</ele><time>2026-04-04T11:29:21Z</time></trkpt><trkpt lat="14.428708641998726" lon="120.96446037970043"><ele>20.0</ele><time>2026-04-04T11:29:22Z</time></trkpt><trkpt lat="14.428811625676117" lon="120.9644858275588"><ele>20.0</ele><time>2026-04-04T11:29:23Z</time></trkpt><trkpt lat="14.428916398460304" lon="120.96451367412726"><ele>20.0</ele><time>2026-04-04T11:29:24Z</time></trkpt><trkpt lat="14.429022896588029" lon="120.96454595265546"><ele>20.0</ele><time>2026-04-04T11:29:25Z</time></trkpt><trkpt lat="14.429117917565371" lon="120.96457717996037"><ele>19.6</ele><time>2026-04-04T11:29:26Z</time></trkpt><trkpt lat="14.42921151674519" lon="120.96461375000841"><ele>19.2</ele><time>2026-04-04T11:29:27Z</time></trkpt><trkpt lat="14.429307492274884" lon="120.96465308982032"><ele>18.8</ele><time>2026-04-04T11:29:28Z</time></trkpt><trkpt lat="14.429402972156685" lon="120.96469057465995"><ele>18.4</ele><time>2026-04-04T11:29:29Z</time></trkpt><trkpt lat="14.429493703737078" lon="120.96473040672201"><ele>18.0</ele><time>2026-04-04T11:29:30Z</time></trkpt><trkpt lat="14.42957672297709" lon="120.96477379574509"><ele>18.0</ele><time>2026-04-04T11:29:31Z</time></trkpt><trkpt lat="14.429660570218138" lon="120.96481737513697"><ele>18.0</ele><time>2026-04-04T11:29:32Z</time></trkpt><trkpt lat="14.429738674306577" lon="120.96486401854474"><ele>18.0</ele><time>2026-04-04T11:29:33Z</time></trkpt><trkpt lat="14.429847912051397" lon="120.96491954987685"><ele>18.0</ele><time>2026-04-04T11:29:35Z</time></trkpt><trkpt lat="14.429944663914783" lon="120.96497737296713"><ele>18.0</ele><time>2026-04-04T11:29:37Z</time></trkpt><trkpt lat="14.430044037483656" lon="120.96503180426481"><ele>17.666666666666668</ele><time>2026-04-04T11:29:39Z</time></trkpt><trkpt lat="14.430125445832745" lon="120.96507679089615"><ele>17.333333333333332</ele><time>2026-04-04T11:29:41Z</time></trkpt><trkpt lat="14.430198009699515" lon="120.96511715660189"><ele>17.0</ele><time>2026-04-04T11:29:43Z</time></trkpt><trkpt lat="14.430261011932396" lon="120.96515194637645"><ele>16.666666666666664</ele><time>2026-04-04T11:29:45Z</time></trkpt><trkpt lat="14.430314302334779" lon="120.96518870293781"><ele>16.333333333333332</ele><time>2026-04-04T11:29:47Z</time></trkpt><trkpt lat="14.430374614141611" lon="120.96524868882051"><ele>16.0</ele><time>2026-04-04T11:29:50Z</time></trkpt><trkpt lat="14.430445054933896" lon="120.96524902040251"><ele>15.8</ele><time>2026-04-04T11:29:53Z</time></trkpt><trkpt lat="14.430539686796596" lon="120.96532750904338"><ele>15.600000000000001</ele><time>2026-04-04T11:31:29Z</time></trkpt><trkpt lat="14.430603125672295" lon="120.965356730403"><ele>15.4</ele><time>2026-04-04T11:31:30Z</time></trkpt><trkpt lat="14.430684654647896" lon="120.96540638415901"><ele>15.2</ele><time>2026-04-04T11:31:31Z</time></trkpt><trkpt lat="14.430777250473644" lon="120.96545783446427"><ele>15.0</ele><time>2026-04-04T11:31:32Z</time></trkpt><trkpt lat="14.430875781610904" lon="120.96550852315795"><ele>15.0</ele><time>2026-04-04T11:31:33Z</time></trkpt><trkpt lat="14.430977537798272" lon="120.96556411514139"><ele>15.0</ele><time>2026-04-04T11:31:34Z</time></trkpt><trkpt lat="14.431081874227642" lon="120.96562171497139"><ele>15.0</ele><time>2026-04-04T11:31:35Z</time></trkpt><trkpt lat="14.431189710498977" lon="120.96567659763073"><ele>15.0</ele><time>2026-04-04T11:31:36Z</time></trkpt><trkpt lat="14.43129969372022" lon="120.96573472557824"><ele>15.25</ele><time>2026-04-04T11:31:37Z</time></trkpt><trkpt lat="14.431429337782143" lon="120.96580131321755"><ele>15.5</ele><time>2026-04-04T11:31:38Z</time></trkpt><trkpt lat="14.431555745295723" lon="120.96586860621821"><ele>15.75</ele><time>2026-04-04T11:31:39Z</time></trkpt><trkpt lat="14.431680152214296" lon="120.96593449283777"><ele>16.0</ele><time>2026-04-04T11:31:40Z</time></trkpt><trkpt lat="14.431804480317881" lon="120.96599870232396"><ele>16.0</ele><time>2026-04-04T11:31:41Z</time></trkpt><trkpt lat="14.431927452888594" lon="120.96606358431559"><ele>16.0</ele><time>2026-04-04T11:31:42Z</time></trkpt><trkpt lat="14.432053033468767" lon="120.96612982962345"><ele>16.0</ele><time>2026-04-04T11:31:43Z</time></trkpt><trkpt lat="14.43218176907766" lon="120.96620157659812"><ele>16.0</ele><time>2026-04-04T11:31:44Z</time></trkpt><trkpt lat="14.432316765862183" lon="120.96627663540713"><ele>15.666666666666666</ele><time>2026-04-04T11:31:45Z</time></trkpt><trkpt lat="14.432456316103435" lon="120.96635548032548"><ele>15.333333333333332</ele><time>2026-04-04T11:31:46Z</time></trkpt><trkpt lat="14.432605054220167" lon="120.9664384220695"><ele>15.0</ele><time>2026-04-04T11:31:47Z</time></trkpt><trkpt lat="14.432757567679223" lon="120.96652166503833"><ele>15.0</ele><time>2026-04-04T11:31:48Z</time></trkpt><trkpt lat="14.432915493705073" lon="120.96660363906938"><ele>15.0</ele><time>2026-04-04T11:31:49Z</time></trkpt><trkpt lat="14.43307377300711" lon="120.9666922406593"><ele>15.0</ele><time>2026-04-04T11:31:50Z</time></trkpt><trkpt lat="14.433239717294784" lon="120.96678934543795"><ele>14.0</ele><time>2026-04-04T11:31:51Z</time></trkpt><trkpt lat="14.433406259772147" lon="120.96687965357017"><ele>13.0</ele><time>2026-04-04T11:31:52Z</time></trkpt><trkpt lat="14.433573683257677" lon="120.96697028973671"><ele>12.0</ele><time>2026-04-04T11:31:53Z</time></trkpt><trkpt lat="14.433744092580216" lon="120.96705878638654"><ele>11.666666666666666</ele><time>2026-04-04T11:31:54Z</time></trkpt><trkpt lat="14.43391515037925" lon="120.96715476459964"><ele>11.333333333333332</ele><time>2026-04-04T11:31:55Z</time></trkpt><trkpt lat="14.4340873681803" lon="120.96725257881442"><ele>11.0</ele><time>2026-04-04T11:31:56Z</time></trkpt><trkpt lat="14.434259017774917" lon="120.96734680082659"><ele>11.0</ele><time>2026-04-04T11:31:57Z</time></trkpt><trkpt lat="14.434431675869964" lon="120.96744061964941"><ele>11.0</ele><time>2026-04-04T11:31:58Z</time></trkpt><trkpt lat="14.434606823088957" lon="120.96753499337508"><ele>11.0</ele><time>2026-04-04T11:31:59Z</time></trkpt><trkpt lat="14.434785741450378" lon="120.96763642589802"><ele>10.0</ele><time>2026-04-04T11:32:00Z</time></trkpt><trkpt lat="14.434961381394594" lon="120.96772641455021"><ele>9.0</ele><time>2026-04-04T11:32:01Z</time></trkpt><trkpt lat="14.435131501194125" lon="120.96781920782364"><ele>8.0</ele><time>2026-04-04T11:32:02Z</time></trkpt><trkpt lat="14.43529096198933" lon="120.96790764848421"><ele>8.0</ele><time>2026-04-04T11:32:03Z</time></trkpt><trkpt lat="14.43543858727797" lon="120.96798701903904"><ele>8.0</ele><time>2026-04-04T11:32:04Z</time></trkpt><trkpt lat="14.435577058268146" lon="120.96806192941855"><ele>8.0</ele><time>2026-04-04T11:32:05Z</time></trkpt><trkpt lat="14.435710659769535" lon="120.96813686561116"><ele>9.0</ele><time>2026-04-04T11:32:06Z</time></trkpt><trkpt lat="14.435831855598622" lon="120.96820294616016"><ele>10.0</ele><time>2026-04-04T11:32:07Z</time></trkpt><trkpt lat="14.435941129889866" lon="120.96824843920074"><ele>11.0</ele><time>2026-04-04T11:32:08Z</time></trkpt><trkpt lat="14.43604130913773" lon="120.96828965086107"><ele>12.0</ele><time>2026-04-04T11:32:09Z</time></trkpt><trkpt lat="14.436128957301687" lon="120.96832070703"><ele>12.0</ele><time>2026-04-04T11:32:10Z</time></trkpt><trkpt lat="14.43620290333658" lon="120.96834753224611"><ele>12.0</ele><time>2026-04-04T11:32:11Z</time></trkpt><trkpt lat="14.436305801799756" lon="120.96837820087208"><ele>12.0</ele><time>2026-04-04T11:32:13Z</time></trkpt><trkpt lat="14.436372641813195" lon="120.96839248465069"><ele>12.0</ele><time>2026-04-04T11:32:18Z</time></trkpt><trkpt lat="14.436474246157688" lon="120.9684014736164"><ele>12.0</ele><time>2026-04-04T11:32:20Z</time></trkpt><trkpt lat="14.436544628541036" lon="120.96840307729633"><ele>12.0</ele><time>2026-04-04T11:32:21Z</time></trkpt><trkpt lat="14.436625321198473" lon="120.96840395782438"><ele>11.5</ele><time>2026-04-04T11:32:22Z</time></trkpt><trkpt lat="14.43672033419952" lon="120.96839171563524"><ele>11.0</ele><time>2026-04-04T11:32:23Z</time></trkpt><trkpt lat="14.436826780307005" lon="120.96837374527911"><ele>10.5</ele><time>2026-04-04T11:32:24Z</time></trkpt><trkpt lat="14.436941430896049" lon="120.96834500382906"><ele>10.0</ele><time>2026-04-04T11:32:25Z</time></trkpt><trkpt lat="14.437066217373767" lon="120.96831077032228"><ele>9.75</ele><time>2026-04-04T11:32:26Z</time></trkpt><trkpt lat="14.43719544689703" lon="120.96827516950303"><ele>9.5</ele><time>2026-04-04T11:32:27Z</time></trkpt><trkpt lat="14.43733343330876" lon="120.96823727406817"><ele>9.25</ele><time>2026-04-04T11:32:28Z</time></trkpt><trkpt lat="14.437476408792344" lon="120.9681982444737"><ele>9.0</ele><time>2026-04-04T11:32:29Z</time></trkpt><trkpt lat="14.43762740345233" lon="120.96816153431996"><ele>9.0</ele><time>2026-04-04T11:32:30Z</time></trkpt><trkpt lat="14.437780937127618" lon="120.96812266550235"><ele>9.0</ele><time>2026-04-04T11:32:31Z</time></trkpt><trkpt lat="14.437940569134293" lon="120.968084850607"><ele>9.0</ele><time>2026-04-04T11:32:32Z</time></trkpt><trkpt lat="14.438104690402005" lon="120.96804571465653"><ele>9.333333333333334</ele><time>2026-04-04T11:32:33Z</time></trkpt><trkpt lat="14.438269629216384" lon="120.96800546991078"><ele>9.666666666666668</ele><time>2026-04-04T11:32:34Z</time></trkpt><trkpt lat="14.438440487233809" lon="120.96796156960839"><ele>10.0</ele><time>2026-04-04T11:32:35Z</time></trkpt><trkpt lat="14.438610360327571" lon="120.9679173636237"><ele>10.0</ele><time>2026-04-04T11:32:36Z</time></trkpt><trkpt lat="14.43878135884787" lon="120.96787089743484"><ele>10.0</ele><time>2026-04-04T11:32:37Z</time></trkpt><trkpt lat="14.438949566699554" lon="120.96782247855592"><ele>10.0</ele><time>2026-04-04T11:32:38Z</time></trkpt><trkpt lat="14.439114785274908" lon="120.96777556877831"><ele>10.0</ele><time>2026-04-04T11:32:39Z</time></trkpt><trkpt lat="14.439282323779354" lon="120.96772739983743"><ele>10.0</ele><time>2026-04-04T11:32:40Z</time></trkpt><trkpt lat="14.439446113085816" lon="120.96766675835443"><ele>10.0</ele><time>2026-04-04T11:32:41Z</time></trkpt><trkpt lat="14.439611630823235" lon="120.96759943267371"><ele>10.0</ele><time>2026-04-04T11:32:42Z</time></trkpt><trkpt lat="14.439784570932847" lon="120.96752735705856"><ele>10.0</ele><time>2026-04-04T11:32:43Z</time></trkpt><trkpt lat="14.439945972553932" lon="120.96746062718589"><ele>10.0</ele><time>2026-04-04T11:32:44Z</time></trkpt><trkpt lat="14.440107397404496" lon="120.96738532289248"><ele>10.0</ele><time>2026-04-04T11:32:45Z</time></trkpt><trkpt lat="14.440283936082484" lon="120.96730701551823"><ele>10.0</ele><time>2026-04-04T11:32:46Z</time></trkpt><trkpt lat="14.44045768768044" lon="120.96723288387174"><ele>10.0</ele><time>2026-04-04T11:32:47Z</time></trkpt><trkpt lat="14.440633082496754" lon="120.96716000197299"><ele>9.333333333333334</ele><time>2026-04-04T11:32:48Z</time></trkpt><trkpt lat="14.440805520754594" lon="120.96708644626929"><ele>8.666666666666666</ele><time>2026-04-04T11:32:49Z</time></trkpt><trkpt lat="14.44097849610378" lon="120.96701132803734"><ele>8.0</ele><time>2026-04-04T11:32:50Z</time></trkpt><trkpt lat="14.441146746590515" lon="120.96692925364728"><ele>8.0</ele><time>2026-04-04T11:32:51Z</time></trkpt><trkpt lat="14.441315336553696" lon="120.96685730560581"><ele>8.0</ele><time>2026-04-04T11:32:52Z</time></trkpt><trkpt lat="14.441485090756064" lon="120.96678681816344"><ele>8.0</ele><time>2026-04-04T11:32:53Z</time></trkpt><trkpt lat="14.441644542209943" lon="120.96671799524006"><ele>8.333333333333332</ele><time>2026-04-04T11:32:54Z</time></trkpt><trkpt lat="14.44179840462782" lon="120.96665324377794"><ele>8.666666666666666</ele><time>2026-04-04T11:32:55Z</time></trkpt><trkpt lat="14.441954938079311" lon="120.96659088507103"><ele>9.0</ele><time>2026-04-04T11:32:56Z</time></trkpt><trkpt lat="14.442102473915398" lon="120.96652442522864"><ele>9.333333333333334</ele><time>2026-04-04T11:32:57Z</time></trkpt><trkpt lat="14.442250958401697" lon="120.96645957874465"><ele>9.666666666666668</ele><time>2026-04-04T11:32:58Z</time></trkpt><trkpt lat="14.442395177428226" lon="120.96640347170117"><ele>10.0</ele><time>2026-04-04T11:32:59Z</time></trkpt><trkpt lat="14.442543925411858" lon="120.96635818396771"><ele>10.0</ele><time>2026-04-04T11:33:00Z</time></trkpt><trkpt lat="14.442697791714112" lon="120.96631837000629"><ele>10.0</ele><time>2026-04-04T11:33:01Z</time></trkpt><trkpt lat="14.442859312404483" lon="120.96629622378771"><ele>10.0</ele><time>2026-04-04T11:33:02Z</time></trkpt><trkpt lat="14.443023746688473" lon="120.96629568810093"><ele>10.333333333333334</ele><time>2026-04-04T11:33:03Z</time></trkpt><trkpt lat="14.443186545951471" lon="120.96630951778799"><ele>10.666666666666666</ele><time>2026-04-04T11:33:04Z</time></trkpt><trkpt lat="14.443352676053973" lon="120.96633953198307"><ele>11.0</ele><time>2026-04-04T11:33:05Z</time></trkpt><trkpt lat="14.443515402881912" lon="120.96636119724833"><ele>11.0</ele><time>2026-04-04T11:33:06Z</time></trkpt><trkpt lat="14.443669137081702" lon="120.96638139427519"><ele>11.0</ele><time>2026-04-04T11:33:07Z</time></trkpt><trkpt lat="14.443818078160726" lon="120.96640635638354"><ele>11.0</ele><time>2026-04-04T11:33:08Z</time></trkpt><trkpt lat="14.44396455968516" lon="120.96642590667389"><ele>10.75</ele><time>2026-04-04T11:33:09Z</time></trkpt><trkpt lat="14.444104954230339" lon="120.96643499544204"><ele>10.5</ele><time>2026-04-04T11:33:10Z</time></trkpt><trkpt lat="14.444233852228027" lon="120.96642843297106"><ele>10.25</ele><time>2026-04-04T11:33:11Z</time></trkpt><trkpt lat="14.44434906778102" lon="120.96640623389499"><ele>10.0</ele><time>2026-04-04T11:33:12Z</time></trkpt><trkpt lat="14.444481736217302" lon="120.96637273385474"><ele>10.0</ele><time>2026-04-04T11:33:13Z</time></trkpt><trkpt lat="14.444605282416353" lon="120.96632558200712"><ele>10.0</ele><time>2026-04-04T11:33:14Z</time></trkpt><trkpt lat="14.444731373438868" lon="120.96627072911943"><ele>10.0</ele><time>2026-04-04T11:33:15Z</time></trkpt><trkpt lat="14.444860462903142" lon="120.9662121759185"><ele>10.0</ele><time>2026-04-04T11:33:16Z</time></trkpt><trkpt lat="14.444987732673809" lon="120.96614924248951"><ele>10.0</ele><time>2026-04-04T11:33:17Z</time></trkpt><trkpt lat="14.445115692719035" lon="120.96608346794011"><ele>10.0</ele><time>2026-04-04T11:33:18Z</time></trkpt><trkpt lat="14.445247996733805" lon="120.96601374802688"><ele>10.0</ele><time>2026-04-04T11:33:19Z</time></trkpt><trkpt lat="14.445380865658413" lon="120.96593709015056"><ele>10.0</ele><time>2026-04-04T11:33:20Z</time></trkpt><trkpt lat="14.445518009367845" lon="120.96586282636557"><ele>10.333333333333334</ele><time>2026-04-04T11:33:21Z</time></trkpt><trkpt lat="14.445659099090824" lon="120.9657920769358"><ele>10.666666666666666</ele><time>2026-04-04T11:33:22Z</time></trkpt><trkpt lat="14.445800576253426" lon="120.9657183978785"><ele>11.0</ele><time>2026-04-04T11:33:23Z</time></trkpt><trkpt lat="14.445933191123702" lon="120.96564729266626"><ele>11.0</ele><time>2026-04-04T11:33:24Z</time></trkpt><trkpt lat="14.446047800727497" lon="120.96558736617928"><ele>11.0</ele><time>2026-04-04T11:33:25Z</time></trkpt><trkpt lat="14.44616343998867" lon="120.96551483347812"><ele>11.0</ele><time>2026-04-04T11:33:26Z</time></trkpt><trkpt lat="14.446262414609256" lon="120.96542010627543"><ele>11.0</ele><time>2026-04-04T11:33:27Z</time></trkpt><trkpt lat="14.446355663538904" lon="120.96531163675948"><ele>11.5</ele><time>2026-04-04T11:33:28Z</time></trkpt><trkpt lat="14.446442040755247" lon="120.96521376669358"><ele>12.0</ele><time>2026-04-04T11:33:29Z</time></trkpt><trkpt lat="14.446534680298775" lon="120.96510976803295"><ele>12.5</ele><time>2026-04-04T11:33:30Z</time></trkpt><trkpt lat="14.446609338068535" lon="120.96496653683046"><ele>13.0</ele><time>2026-04-04T11:33:31Z</time></trkpt><trkpt lat="14.446674684155843" lon="120.96483018355438"><ele>13.0</ele><time>2026-04-04T11:33:32Z</time></trkpt><trkpt lat="14.446734901417603" lon="120.96468881483813"><ele>13.0</ele><time>2026-04-04T11:33:33Z</time></trkpt><trkpt lat="14.44679100234042" lon="120.96454785789165"><ele>13.0</ele><time>2026-04-04T11:33:34Z</time></trkpt><trkpt lat="14.446844224615752" lon="120.9644058608893"><ele>13.0</ele><time>2026-04-04T11:33:35Z</time></trkpt><trkpt lat="14.446914757134115" lon="120.96427657118652"><ele>13.25</ele><time>2026-04-04T11:33:36Z</time></trkpt><trkpt lat="14.446956971270165" lon="120.9641344355969"><ele>13.5</ele><time>2026-04-04T11:33:37Z</time></trkpt><trkpt lat="14.447016319113414" lon="120.96400218995764"><ele>13.75</ele><time>2026-04-04T11:33:38Z</time></trkpt><trkpt lat="14.447077187555486" lon="120.9638701145498"><ele>14.0</ele><time>2026-04-04T11:33:39Z</time></trkpt><trkpt lat="14.447141008209544" lon="120.96374043129678"><ele>13.0</ele><time>2026-04-04T11:33:40Z</time></trkpt><trkpt lat="14.447211074032404" lon="120.96361195468708"><ele>12.0</ele><time>2026-04-04T11:33:41Z</time></trkpt><trkpt lat="14.44728570967168" lon="120.96348961862978"><ele>11.0</ele><time>2026-04-04T11:33:42Z</time></trkpt><trkpt lat="14.447368289687912" lon="120.96336935947616"><ele>10.0</ele><time>2026-04-04T11:33:43Z</time></trkpt><trkpt lat="14.44745466950074" lon="120.96325218441858"><ele>9.5</ele><time>2026-04-04T11:33:44Z</time></trkpt><trkpt lat="14.447550419790073" lon="120.96313727350434"><ele>9.0</ele><time>2026-04-04T11:33:45Z</time></trkpt><trkpt lat="14.44764948456913" lon="120.96302307598663"><ele>8.5</ele><time>2026-04-04T11:33:46Z</time></trkpt><trkpt lat="14.447753272544988" lon="120.96290827419598"><ele>8.0</ele><time>2026-04-04T11:33:47Z</time></trkpt><trkpt lat="14.447861701181068" lon="120.96279139268759"><ele>8.666666666666666</ele><time>2026-04-04T11:33:48Z</time></trkpt><trkpt lat="14.447978565463746" lon="120.9626797155847"><ele>9.333333333333334</ele><time>2026-04-04T11:33:49Z</time></trkpt><trkpt lat="14.44810271023306" lon="120.9625744823888"><ele>10.0</ele><time>2026-04-04T11:33:50Z</time></trkpt><trkpt lat="14.448232682804191" lon="120.96247139656279"><ele>10.666666666666668</ele><time>2026-04-04T11:33:51Z</time></trkpt><trkpt lat="14.448372223883723" lon="120.96237278415525"><ele>11.333333333333334</ele><time>2026-04-04T11:33:52Z</time></trkpt><trkpt lat="14.448513566302179" lon="120.96227660435987"><ele>12.0</ele><time>2026-04-04T11:33:53Z</time></trkpt><trkpt lat="14.44865949248534" lon="120.96217918254415"><ele>12.0</ele><time>2026-04-04T11:33:54Z</time></trkpt><trkpt lat="14.448809980590774" lon="120.96208868676699"><ele>12.0</ele><time>2026-04-04T11:33:55Z</time></trkpt><trkpt lat="14.44896537219208" lon="120.9619983435055"><ele>12.0</ele><time>2026-04-04T11:33:56Z</time></trkpt><trkpt lat="14.449124235166481" lon="120.96190851004965"><ele>12.0</ele><time>2026-04-04T11:33:57Z</time></trkpt><trkpt lat="14.449286785471386" lon="120.96182397786814"><ele>12.0</ele><time>2026-04-04T11:33:58Z</time></trkpt><trkpt lat="14.449448822347527" lon="120.96173588941954"><ele>12.0</ele><time>2026-04-04T11:33:59Z</time></trkpt><trkpt lat="14.449613041547266" lon="120.9616466112739"><ele>11.0</ele><time>2026-04-04T11:34:00Z</time></trkpt><trkpt lat="14.449777631715168" lon="120.96155706829111"><ele>10.0</ele><time>2026-04-04T11:34:01Z</time></trkpt><trkpt lat="14.449940270602431" lon="120.96146625595567"><ele>9.0</ele><time>2026-04-04T11:34:02Z</time></trkpt><trkpt lat="14.450106736403612" lon="120.96137662687497"><ele>9.0</ele><time>2026-04-04T11:34:03Z</time></trkpt><trkpt lat="14.450264442347374" lon="120.9612892187379"><ele>9.0</ele><time>2026-04-04T11:34:04Z</time></trkpt><trkpt lat="14.45041969022866" lon="120.96120971879246"><ele>9.0</ele><time>2026-04-04T11:34:05Z</time></trkpt><trkpt lat="14.450585260988081" lon="120.96111894956523"><ele>9.0</ele><time>2026-04-04T11:34:06Z</time></trkpt><trkpt lat="14.450744113322095" lon="120.96104125763783"><ele>9.0</ele><time>2026-04-04T11:34:07Z</time></trkpt><trkpt lat="14.450903048993156" lon="120.96097442725387"><ele>9.0</ele><time>2026-04-04T11:34:08Z</time></trkpt><trkpt lat="14.451050314299884" lon="120.96092441761145"><ele>9.0</ele><time>2026-04-04T11:34:09Z</time></trkpt><trkpt lat="14.45120516770759" lon="120.96087985155548"><ele>9.0</ele><time>2026-04-04T11:34:10Z</time></trkpt><trkpt lat="14.451352886490636" lon="120.96084419104449"><ele>9.0</ele><time>2026-04-04T11:34:11Z</time></trkpt><trkpt lat="14.451482286104344" lon="120.96081741889822"><ele>9.0</ele><time>2026-04-04T11:34:12Z</time></trkpt><trkpt lat="14.451592497047566" lon="120.96079508286405"><ele>8.833333333333334</ele><time>2026-04-04T11:34:13Z</time></trkpt><trkpt lat="14.451683580754402" lon="120.9607899402339"><ele>8.666666666666666</ele><time>2026-04-04T11:34:14Z</time></trkpt><trkpt lat="14.451763087358245" lon="120.96079425619948"><ele>8.5</ele><time>2026-04-04T11:34:15Z</time></trkpt><trkpt lat="14.451838367640727" lon="120.96080330257337"><ele>8.333333333333332</ele><time>2026-04-04T11:34:16Z</time></trkpt><trkpt lat="14.451914983479709" lon="120.96081133862478"><ele>8.166666666666666</ele><time>2026-04-04T11:34:18Z</time></trkpt><trkpt lat="14.451977752013402" lon="120.96082458377097"><ele>8.0</ele><time>2026-04-04T11:34:33Z</time></trkpt><trkpt lat="14.452109017675653" lon="120.96082989561052"><ele>7.6000000000000005</ele><time>2026-04-04T11:34:35Z</time></trkpt><trkpt lat="14.452197749161169" lon="120.96083128023047"><ele>7.200000000000001</ele><time>2026-04-04T11:34:36Z</time></trkpt><trkpt lat="14.452297427424403" lon="120.96083538826996"><ele>6.8</ele><time>2026-04-04T11:34:37Z</time></trkpt><trkpt lat="14.452406514796827" lon="120.960840825996"><ele>6.4</ele><time>2026-04-04T11:34:38Z</time></trkpt><trkpt lat="14.452524227205108" lon="120.96084593231876"><ele>6.0</ele><time>2026-04-04T11:34:39Z</time></trkpt><trkpt lat="14.452647183414303" lon="120.9608404629422"><ele>6.0</ele><time>2026-04-04T11:34:40Z</time></trkpt><trkpt lat="14.452784859075457" lon="120.96083210472337"><ele>6.0</ele><time>2026-04-04T11:34:41Z</time></trkpt><trkpt lat="14.452895185577043" lon="120.9608267564836"><ele>6.0</ele><time>2026-04-04T11:34:42Z</time></trkpt><trkpt lat="14.453037870980515" lon="120.96080855546603"><ele>6.0</ele><time>2026-04-04T11:34:43Z</time></trkpt><trkpt lat="14.453186261116919" lon="120.96078798893403"><ele>6.333333333333334</ele><time>2026-04-04T11:34:44Z</time></trkpt><trkpt lat="14.453335108274043" lon="120.96076847483734"><ele>6.666666666666667</ele><time>2026-04-04T11:34:45Z</time></trkpt><trkpt lat="14.453489120844724" lon="120.96074692608262"><ele>7.0</ele><time>2026-04-04T11:34:46Z</time></trkpt><trkpt lat="14.45364469430009" lon="120.96072413680263"><ele>6.666666666666667</ele><time>2026-04-04T11:34:47Z</time></trkpt><trkpt lat="14.453806686727292" lon="120.96070255003104"><ele>6.333333333333334</ele><time>2026-04-04T11:34:48Z</time></trkpt><trkpt lat="14.45396981474694" lon="120.96068441960868"><ele>6.0</ele><time>2026-04-04T11:34:49Z</time></trkpt><trkpt lat="14.454134594232597" lon="120.9606626235902"><ele>6.0</ele><time>2026-04-04T11:34:50Z</time></trkpt><trkpt lat="14.454299667990277" lon="120.96064103844824"><ele>6.0</ele><time>2026-04-04T11:34:51Z</time></trkpt><trkpt lat="14.454467144226484" lon="120.96062212166387"><ele>6.0</ele><time>2026-04-04T11:34:52Z</time></trkpt><trkpt lat="14.454636213415021" lon="120.96061300248245"><ele>6.666666666666666</ele><time>2026-04-04T11:34:53Z</time></trkpt><trkpt lat="14.45480815811262" lon="120.96060484312312"><ele>7.333333333333333</ele><time>2026-04-04T11:34:54Z</time></trkpt><trkpt lat="14.454979651177581" lon="120.96059891711114"><ele>8.0</ele><time>2026-04-04T11:34:55Z</time></trkpt><trkpt lat="14.455156253966821" lon="120.96059242950835"><ele>8.0</ele><time>2026-04-04T11:34:56Z</time></trkpt><trkpt lat="14.455327826316099" lon="120.96058587866683"><ele>8.0</ele><time>2026-04-04T11:34:57Z</time></trkpt><trkpt lat="14.455500018750643" lon="120.96058027236882"><ele>8.0</ele><time>2026-04-04T11:34:58Z</time></trkpt><trkpt lat="14.455674313482422" lon="120.9605736563235"><ele>7.666666666666666</ele><time>2026-04-04T11:34:59Z</time></trkpt><trkpt lat="14.455842967977821" lon="120.96056633332425"><ele>7.333333333333334</ele><time>2026-04-04T11:35:00Z</time></trkpt><trkpt lat="14.4560133991259" lon="120.96055314732999"><ele>7.0</ele><time>2026-04-04T11:35:01Z</time></trkpt><trkpt lat="14.456178228002756" lon="120.96053786766936"><ele>7.0</ele><time>2026-04-04T11:35:02Z</time></trkpt><trkpt lat="14.456335570460757" lon="120.96051372572553"><ele>7.0</ele><time>2026-04-04T11:35:03Z</time></trkpt><trkpt lat="14.45648527411646" lon="120.96048293228826"><ele>7.0</ele><time>2026-04-04T11:35:04Z</time></trkpt><trkpt lat="14.456633005340553" lon="120.96043519863171"><ele>7.0</ele><time>2026-04-04T11:35:05Z</time></trkpt><trkpt lat="14.456783687097422" lon="120.96038877627375"><ele>7.0</ele><time>2026-04-04T11:35:06Z</time></trkpt><trkpt lat="14.45693328980408" lon="120.96033811770315"><ele>7.0</ele><time>2026-04-04T11:35:07Z</time></trkpt><trkpt lat="14.457081277572255" lon="120.96029291384907"><ele>6.666666666666667</ele><time>2026-04-04T11:35:08Z</time></trkpt><trkpt lat="14.457230755459404" lon="120.9602499600157"><ele>6.333333333333334</ele><time>2026-04-04T11:35:09Z</time></trkpt><trkpt lat="14.457382189610751" lon="120.96021754290736"><ele>6.0</ele><time>2026-04-04T11:35:10Z</time></trkpt><trkpt lat="14.457536519912821" lon="120.96018735310005"><ele>6.0</ele><time>2026-04-04T11:35:11Z</time></trkpt><trkpt lat="14.457693458081819" lon="120.96016521247314"><ele>6.0</ele><time>2026-04-04T11:35:12Z</time></trkpt><trkpt lat="14.457850022839962" lon="120.96014104575626"><ele>6.0</ele><time>2026-04-04T11:35:13Z</time></trkpt><trkpt lat="14.45800937616168" lon="120.96011389686561"><ele>6.333333333333334</ele><time>2026-04-04T11:35:14Z</time></trkpt><trkpt lat="14.458168068086595" lon="120.96008569879618"><ele>6.666666666666667</ele><time>2026-04-04T11:35:15Z</time></trkpt><trkpt lat="14.458326687108961" lon="120.96005813228928"><ele>7.0</ele><time>2026-04-04T11:35:16Z</time></trkpt><trkpt lat="14.458483428951682" lon="120.96004101855357"><ele>6.5</ele><time>2026-04-04T11:35:17Z</time></trkpt><trkpt lat="14.458640792534322" lon="120.9600127521863"><ele>6.0</ele><time>2026-04-04T11:35:18Z</time></trkpt><trkpt lat="14.458792829809447" lon="120.95998478288462"><ele>5.5</ele><time>2026-04-04T11:35:19Z</time></trkpt><trkpt lat="14.458926301301684" lon="120.95996336397305"><ele>5.0</ele><time>2026-04-04T11:35:20Z</time></trkpt><trkpt lat="14.459051109112167" lon="120.9599454503831"><ele>5.833333333333334</ele><time>2026-04-04T11:35:21Z</time></trkpt><trkpt lat="14.459156772206988" lon="120.95992981514101"><ele>6.666666666666667</ele><time>2026-04-04T11:35:22Z</time></trkpt><trkpt lat="14.459256983669018" lon="120.95991547238309"><ele>7.5</ele><time>2026-04-04T11:35:23Z</time></trkpt><trkpt lat="14.459342527755949" lon="120.95990648040461"><ele>8.333333333333334</ele><time>2026-04-04T11:35:24Z</time></trkpt><trkpt lat="14.459428055135778" lon="120.9598957742993"><ele>9.166666666666668</ele><time>2026-04-04T11:35:25Z</time></trkpt><trkpt lat="14.459496610693252" lon="120.95988976370383"><ele>10.0</ele><time>2026-04-04T11:35:26Z</time></trkpt><trkpt lat="14.459573208650141" lon="120.95989107641762"><ele>10.0</ele><time>2026-04-04T11:35:27Z</time></trkpt><trkpt lat="14.459643736651135" lon="120.95988063849909"><ele>10.0</ele><time>2026-04-04T11:35:28Z</time></trkpt><trkpt lat="14.459714758493444" lon="120.95997732253473"><ele>10.0</ele><time>2026-04-04T11:35:29Z</time></trkpt><trkpt lat="14.459782337468608" lon="120.96004421781782"><ele>10.0</ele><time>2026-04-04T11:35:30Z</time></trkpt><trkpt lat="14.459853615359508" lon="120.96011769106816"><ele>10.0</ele><time>2026-04-04T11:35:31Z</time></trkpt><trkpt lat="14.459933937654545" lon="120.96019127263541"><ele>10.0</ele><time>2026-04-04T11:35:32Z</time></trkpt><trkpt lat="14.46001240728225" lon="120.96026595785978"><ele>10.0</ele><time>2026-04-04T11:35:33Z</time></trkpt><trkpt lat="14.460100058825441" lon="120.96036454059247"><ele>10.0</ele><time>2026-04-04T11:35:34Z</time></trkpt><trkpt lat="14.460184260409482" lon="120.96045610207925"><ele>10.0</ele><time>2026-04-04T11:35:35Z</time></trkpt><trkpt lat="14.460269274479757" lon="120.96055511402858"><ele>10.0</ele><time>2026-04-04T11:35:36Z</time></trkpt><trkpt lat="14.460355875509224" lon="120.96066192373071"><ele>10.0</ele><time>2026-04-04T11:35:37Z</time></trkpt><trkpt lat="14.460437687895814" lon="120.96077053492098"><ele>10.0</ele><time>2026-04-04T11:35:38Z</time></trkpt><trkpt lat="14.460519073988195" lon="120.96087788841028"><ele>10.0</ele><time>2026-04-04T11:35:39Z</time></trkpt><trkpt lat="14.46059345601368" lon="120.9609842879275"><ele>9.666666666666668</ele><time>2026-04-04T11:35:40Z</time></trkpt><trkpt lat="14.460652154958273" lon="120.96106985509878"><ele>9.333333333333334</ele><time>2026-04-04T11:35:41Z</time></trkpt><trkpt lat="14.4607006828871" lon="120.96113414453949"><ele>9.0</ele><time>2026-04-04T11:35:42Z</time></trkpt><trkpt lat="14.460749808685602" lon="120.96119028993466"><ele>8.666666666666666</ele><time>2026-04-04T11:35:43Z</time></trkpt><trkpt lat="14.460797180547768" lon="120.9612541707935"><ele>8.333333333333332</ele><time>2026-04-04T11:35:44Z</time></trkpt><trkpt lat="14.460847999203581" lon="120.9613301998402"><ele>8.0</ele><time>2026-04-04T11:35:45Z</time></trkpt><trkpt lat="14.460903744192768" lon="120.9614162499925"><ele>8.0</ele><time>2026-04-04T11:35:46Z</time></trkpt><trkpt lat="14.460959574861173" lon="120.96150587578289"><ele>8.0</ele><time>2026-04-04T11:35:47Z</time></trkpt><trkpt lat="14.461017101954937" lon="120.9615932219607"><ele>8.0</ele><time>2026-04-04T11:35:48Z</time></trkpt><trkpt lat="14.461066899889419" lon="120.96167766188867"><ele>8.0</ele><time>2026-04-04T11:35:49Z</time></trkpt><trkpt lat="14.461116771489266" lon="120.96176254606618"><ele>8.0</ele><time>2026-04-04T11:35:50Z</time></trkpt><trkpt lat="14.461163749794046" lon="120.96184421615172"><ele>7.999999999999999</ele><time>2026-04-04T11:35:51Z</time></trkpt><trkpt lat="14.46120598448038" lon="120.96191362867116"><ele>8.0</ele><time>2026-04-04T11:35:52Z</time></trkpt><trkpt lat="14.461238951760036" lon="120.9619789501333"><ele>8.0</ele><time>2026-04-04T11:35:53Z</time></trkpt><trkpt lat="14.461278209624199" lon="120.96203644479621"><ele>8.0</ele><time>2026-04-04T11:35:54Z</time></trkpt><trkpt lat="14.461340866903972" lon="120.96213158610426"><ele>7.999999999999999</ele><time>2026-04-04T11:35:56Z</time></trkpt><trkpt lat="14.461382725740211" lon="120.96218879366899"><ele>8.0</ele><time>2026-04-04T11:35:58Z</time></trkpt><trkpt lat="14.461426400600597" lon="120.96224578965601"><ele>7.999999999999999</ele><time>2026-04-04T11:36:06Z</time></trkpt><trkpt lat="14.46147444929931" lon="120.96230204967287"><ele>8.0</ele><time>2026-04-04T11:36:14Z</time></trkpt><trkpt lat="14.461516785933" lon="120.96235051426319"><ele>8.0</ele><time>2026-04-04T11:36:18Z</time></trkpt><trkpt lat="14.46155295135691" lon="120.96242450076028"><ele>8.0</ele><time>2026-04-04T11:36:24Z</time></trkpt><trkpt lat="14.46159181034876" lon="120.96248511477702"><ele>7.999999999999999</ele><time>2026-04-04T11:36:26Z</time></trkpt><trkpt lat="14.461647634787083" lon="120.96257219227306"><ele>8.0</ele><time>2026-04-04T11:36:28Z</time></trkpt><trkpt lat="14.461708177866381" lon="120.96266663014622"><ele>8.0</ele><time>2026-04-04T11:36:30Z</time></trkpt><trkpt lat="14.461775808349696" lon="120.96277313118632"><ele>8.0</ele><time>2026-04-04T11:36:32Z</time></trkpt><trkpt lat="14.46183682969388" lon="120.96286959366392"><ele>8.0</ele><time>2026-04-04T11:36:34Z</time></trkpt><trkpt lat="14.461888281585605" lon="120.96292543347721"><ele>8.0</ele><time>2026-04-04T11:36:36Z</time></trkpt><trkpt lat="14.461927775988048" lon="120.96299728257983"><ele>8.0</ele><time>2026-04-04T11:36:39Z</time></trkpt><trkpt lat="14.46197524915119" lon="120.96307800583381"><ele>7.999999999999999</ele><time>2026-04-04T11:36:42Z</time></trkpt><trkpt lat="14.46202052451917" lon="120.96315914873071"><ele>8.0</ele><time>2026-04-04T11:36:44Z</time></trkpt><trkpt lat="14.462065117514566" lon="120.96322965201531"><ele>8.0</ele><time>2026-04-04T11:36:46Z</time></trkpt><trkpt lat="14.462103230033161" lon="120.96329593235315"><ele>8.0</ele><time>2026-04-04T11:36:49Z</time></trkpt><trkpt lat="14.46214203498027" lon="120.96335957892369"><ele>7.999999999999999</ele><time>2026-04-04T11:36:51Z</time></trkpt><trkpt lat="14.462188431035129" lon="120.96343003518176"><ele>8.0</ele><time>2026-04-04T11:36:53Z</time></trkpt><trkpt lat="14.462251393844873" lon="120.96353911085626"><ele>8.200000000000001</ele><time>2026-04-04T11:36:55Z</time></trkpt><trkpt lat="14.46229636507603" lon="120.96359294996851"><ele>8.4</ele><time>2026-04-04T11:36:56Z</time></trkpt><trkpt lat="14.4623612608572" lon="120.96369750328911"><ele>8.600000000000001</ele><time>2026-04-04T11:36:58Z</time></trkpt><trkpt lat="14.462430724859585" lon="120.96380207711978"><ele>8.8</ele><time>2026-04-04T11:37:00Z</time></trkpt><trkpt lat="14.46248165648371" lon="120.96387741631206"><ele>9.0</ele><time>2026-04-04T11:37:02Z</time></trkpt><trkpt lat="14.462532982243339" lon="120.9639664519932"><ele>9.0</ele><time>2026-04-04T11:37:05Z</time></trkpt><trkpt lat="14.462589522403615" lon="120.96404953383873"><ele>9.0</ele><time>2026-04-04T11:37:07Z</time></trkpt><trkpt lat="14.462653885640373" lon="120.96414459027731"><ele>9.0</ele><time>2026-04-04T11:37:09Z</time></trkpt><trkpt lat="14.46270528753588" lon="120.96422328865329"><ele>9.0</ele><time>2026-04-04T11:37:11Z</time></trkpt><trkpt lat="14.462740463307293" lon="120.96428311632667"><ele>9.0</ele><time>2026-04-04T11:37:13Z</time></trkpt><trkpt lat="14.462785110168577" lon="120.96434892708774"><ele>9.0</ele><time>2026-04-04T11:37:16Z</time></trkpt><trkpt lat="14.462832559293352" lon="120.9644219678515"><ele>8.833333333333334</ele><time>2026-04-04T11:37:18Z</time></trkpt><trkpt lat="14.462893719081976" lon="120.96451708284188"><ele>8.666666666666666</ele><time>2026-04-04T11:37:20Z</time></trkpt><trkpt lat="14.462930411720974" lon="120.96457273160317"><ele>8.5</ele><time>2026-04-04T11:37:21Z</time></trkpt><trkpt lat="14.462966741898823" lon="120.96463122015108"><ele>8.333333333333332</ele><time>2026-04-04T11:37:22Z</time></trkpt><trkpt lat="14.463003411041418" lon="120.96468965759215"><ele>8.166666666666666</ele><time>2026-04-04T11:37:23Z</time></trkpt><trkpt lat="14.46304430157593" lon="120.96475273231573"><ele>8.0</ele><time>2026-04-04T11:37:24Z</time></trkpt><trkpt lat="14.463083616661562" lon="120.9648142061385"><ele>7.999999999999999</ele><time>2026-04-04T11:37:25Z</time></trkpt><trkpt lat="14.463119131955189" lon="120.96486980417855"><ele>8.0</ele><time>2026-04-04T11:37:26Z</time></trkpt><trkpt lat="14.463192585640567" lon="120.96498273587258"><ele>8.0</ele><time>2026-04-04T11:37:28Z</time></trkpt><trkpt lat="14.463231666260537" lon="120.9650416938515"><ele>8.0</ele><time>2026-04-04T11:37:29Z</time></trkpt><trkpt lat="14.463271213760082" lon="120.96510084431024"><ele>7.999999999999999</ele><time>2026-04-04T11:37:30Z</time></trkpt><trkpt lat="14.463311514885286" lon="120.96515876615379"><ele>8.0</ele><time>2026-04-04T11:37:31Z</time></trkpt><trkpt lat="14.463340577715583" lon="120.96522897001526"><ele>8.166666666666666</ele><time>2026-04-04T11:37:32Z</time></trkpt><trkpt lat="14.463384044701455" lon="120.96529429745391"><ele>8.333333333333332</ele><time>2026-04-04T11:37:33Z</time></trkpt><trkpt lat="14.463427208844992" lon="120.96535916975365"><ele>8.5</ele><time>2026-04-04T11:37:34Z</time></trkpt><trkpt lat="14.463472144489854" lon="120.96542670461638"><ele>8.666666666666666</ele><time>2026-04-04T11:37:35Z</time></trkpt><trkpt lat="14.463521127462695" lon="120.96549889452109"><ele>8.833333333333334</ele><time>2026-04-04T11:37:36Z</time></trkpt><trkpt lat="14.463569044269084" lon="120.96556987021029"><ele>9.0</ele><time>2026-04-04T11:37:37Z</time></trkpt><trkpt lat="14.46363099755425" lon="120.96563450561129"><ele>9.0</ele><time>2026-04-04T11:37:38Z</time></trkpt><trkpt lat="14.463676593072812" lon="120.96570425361641"><ele>9.0</ele><time>2026-04-04T11:37:39Z</time></trkpt><trkpt lat="14.463721792520552" lon="120.96577278809008"><ele>9.0</ele><time>2026-04-04T11:37:40Z</time></trkpt><trkpt lat="14.463764326679073" lon="120.9658351226299"><ele>9.0</ele><time>2026-04-04T11:37:41Z</time></trkpt><trkpt lat="14.463806138795617" lon="120.96589539273553"><ele>9.0</ele><time>2026-04-04T11:37:42Z</time></trkpt><trkpt lat="14.463848128964289" lon="120.9659617953597"><ele>9.0</ele><time>2026-04-04T11:37:43Z</time></trkpt><trkpt lat="14.463886921975512" lon="120.9660193699438"><ele>9.0</ele><time>2026-04-04T11:37:44Z</time></trkpt><trkpt lat="14.46392363933256" lon="120.96607545704121"><ele>9.0</ele><time>2026-04-04T11:37:45Z</time></trkpt><trkpt lat="14.463960009057107" lon="120.9661301093018"><ele>9.0</ele><time>2026-04-04T11:37:46Z</time></trkpt><trkpt lat="14.464028298794142" lon="120.96623887302803"><ele>9.0</ele><time>2026-04-04T11:37:48Z</time></trkpt><trkpt lat="14.464065449571255" lon="120.9662979748928"><ele>9.0</ele><time>2026-04-04T11:37:49Z</time></trkpt><trkpt lat="14.464103097015999" lon="120.96636142171835"><ele>9.0</ele><time>2026-04-04T11:37:50Z</time></trkpt><trkpt lat="14.464142690260443" lon="120.9664260558859"><ele>9.000000000000002</ele><time>2026-04-04T11:37:51Z</time></trkpt><trkpt lat="14.464182155042026" lon="120.9664924997847"><ele>9.0</ele><time>2026-04-04T11:37:52Z</time></trkpt><trkpt lat="14.464221233486613" lon="120.9665600035198"><ele>9.0</ele><time>2026-04-04T11:37:53Z</time></trkpt><trkpt lat="14.464257062997095" lon="120.96662362599123"><ele>9.0</ele><time>2026-04-04T11:37:54Z</time></trkpt><trkpt lat="14.464294748212433" lon="120.96668467243384"><ele>9.0</ele><time>2026-04-04T11:37:55Z</time></trkpt><trkpt lat="14.464330590957617" lon="120.96674758037115"><ele>9.000000000000002</ele><time>2026-04-04T11:37:56Z</time></trkpt><trkpt lat="14.46436928373733" lon="120.96681073692815"><ele>9.0</ele><time>2026-04-04T11:37:57Z</time></trkpt><trkpt lat="14.464402568682718" lon="120.9668740895108"><ele>8.833333333333334</ele><time>2026-04-04T11:37:58Z</time></trkpt><trkpt lat="14.464466019832734" lon="120.96696104964174"><ele>8.666666666666666</ele><time>2026-04-04T11:38:00Z</time></trkpt><trkpt lat="14.464514347717333" lon="120.96701389307209"><ele>8.5</ele><time>2026-04-04T11:38:04Z</time></trkpt><trkpt lat="14.464562168626347" lon="120.96706899274523"><ele>8.333333333333332</ele><time>2026-04-04T11:38:20Z</time></trkpt><trkpt lat="14.46460235466364" lon="120.96712369801153"><ele>8.166666666666666</ele><time>2026-04-04T11:38:22Z</time></trkpt><trkpt lat="14.464654803742595" lon="120.96717936851908"><ele>8.0</ele><time>2026-04-04T11:38:24Z</time></trkpt><trkpt lat="14.464741279377732" lon="120.96725597082497"><ele>8.4</ele><time>2026-04-04T11:38:26Z</time></trkpt><trkpt lat="14.464845886934963" lon="120.96734083036283"><ele>8.8</ele><time>2026-04-04T11:38:28Z</time></trkpt><trkpt lat="14.464915452455863" lon="120.96738918896695"><ele>9.2</ele><time>2026-04-04T11:38:29Z</time></trkpt><trkpt lat="14.464994375652227" lon="120.96744267657392"><ele>9.6</ele><time>2026-04-04T11:38:30Z</time></trkpt><trkpt lat="14.46507806726917" lon="120.96750365784459"><ele>10.0</ele><time>2026-04-04T11:38:31Z</time></trkpt><trkpt lat="14.46516603360378" lon="120.96756654754213"><ele>10.0</ele><time>2026-04-04T11:38:32Z</time></trkpt><trkpt lat="14.465252152472608" lon="120.96762978427319"><ele>10.0</ele><time>2026-04-04T11:38:33Z</time></trkpt><trkpt lat="14.46533519300489" lon="120.96769186676215"><ele>10.0</ele><time>2026-04-04T11:38:34Z</time></trkpt><trkpt lat="14.465407094388034" lon="120.96774509264858"><ele>10.0</ele><time>2026-04-04T11:38:35Z</time></trkpt><trkpt lat="14.465468654488244" lon="120.96779201068797"><ele>10.0</ele><time>2026-04-04T11:38:36Z</time></trkpt><trkpt lat="14.465550414738166" lon="120.96785779437873"><ele>9.5</ele><time>2026-04-04T11:38:38Z</time></trkpt><trkpt lat="14.465603315479145" lon="120.9678973951218"><ele>9.0</ele><time>2026-04-04T11:38:41Z</time></trkpt><trkpt lat="14.465671420010153" lon="120.96794777221298"><ele>8.5</ele><time>2026-04-04T11:39:30Z</time></trkpt><trkpt lat="14.465722352713943" lon="120.96798785178639"><ele>8.0</ele><time>2026-04-04T11:39:31Z</time></trkpt><trkpt lat="14.465784646593255" lon="120.96803849082102"><ele>7.500000000000001</ele><time>2026-04-04T11:39:32Z</time></trkpt><trkpt lat="14.465850228455336" lon="120.96809191350135"><ele>7.0</ele><time>2026-04-04T11:39:33Z</time></trkpt><trkpt lat="14.465912290870754" lon="120.96815471948096"><ele>7.0</ele><time>2026-04-04T11:39:34Z</time></trkpt><trkpt lat="14.465968671154506" lon="120.9682438312866"><ele>6.999999999999999</ele><time>2026-04-04T11:39:35Z</time></trkpt><trkpt lat="14.466032784090654" lon="120.96825464213774"><ele>6.999999999999999</ele><time>2026-04-04T11:39:36Z</time></trkpt><trkpt lat="14.466136277032932" lon="120.968334714851"><ele>7.0</ele><time>2026-04-04T11:39:37Z</time></trkpt><trkpt lat="14.4662359437896" lon="120.96841846426301"><ele>7.0</ele><time>2026-04-04T11:39:38Z</time></trkpt><trkpt lat="14.466333752009653" lon="120.96849852682173"><ele>7.25</ele><time>2026-04-04T11:39:39Z</time></trkpt><trkpt lat="14.466426870609569" lon="120.96857606248825"><ele>7.5</ele><time>2026-04-04T11:39:40Z</time></trkpt><trkpt lat="14.466517477908518" lon="120.96865193831685"><ele>7.75</ele><time>2026-04-04T11:39:41Z</time></trkpt><trkpt lat="14.466605823800803" lon="120.96872134193524"><ele>8.0</ele><time>2026-04-04T11:39:42Z</time></trkpt><trkpt lat="14.46668571304453" lon="120.96879008863023"><ele>8.0</ele><time>2026-04-04T11:39:43Z</time></trkpt><trkpt lat="14.466758887821715" lon="120.96885086785296"><ele>8.0</ele><time>2026-04-04T11:39:44Z</time></trkpt><trkpt lat="14.466824895998878" lon="120.96891263707124"><ele>8.0</ele><time>2026-04-04T11:39:45Z</time></trkpt><trkpt lat="14.466891510688606" lon="120.96896259298533"><ele>8.0</ele><time>2026-04-04T11:39:46Z</time></trkpt><trkpt lat="14.466965695002584" lon="120.96902147298196"><ele>8.0</ele><time>2026-04-04T11:39:47Z</time></trkpt><trkpt lat="14.467046040253347" lon="120.9690836212813"><ele>7.833333333333333</ele><time>2026-04-04T11:39:48Z</time></trkpt><trkpt lat="14.467125122902234" lon="120.9691445708296"><ele>7.666666666666666</ele><time>2026-04-04T11:39:49Z</time></trkpt><trkpt lat="14.467192488902713" lon="120.9691973332577"><ele>7.5</ele><time>2026-04-04T11:39:50Z</time></trkpt><trkpt lat="14.467253010381986" lon="120.9692445769543"><ele>7.333333333333334</ele><time>2026-04-04T11:39:51Z</time></trkpt><trkpt lat="14.467305922179358" lon="120.96928285972118"><ele>7.166666666666667</ele><time>2026-04-04T11:39:52Z</time></trkpt><trkpt lat="14.467394974455242" lon="120.96936269620376"><ele>7.0</ele><time>2026-04-04T11:39:54Z</time></trkpt><trkpt lat="14.467500195912947" lon="120.96944904659959"><ele>7.0</ele><time>2026-04-04T11:39:56Z</time></trkpt><trkpt lat="14.467572067256018" lon="120.96949482869891"><ele>6.999999999999999</ele><time>2026-04-04T11:39:57Z</time></trkpt><trkpt lat="14.467652725655544" lon="120.96955648418961"><ele>6.999999999999999</ele><time>2026-04-04T11:39:58Z</time></trkpt><trkpt lat="14.46774041937998" lon="120.96963019842762"><ele>7.0</ele><time>2026-04-04T11:39:59Z</time></trkpt><trkpt lat="14.467827183610472" lon="120.96969894036438"><ele>7.0</ele><time>2026-04-04T11:40:00Z</time></trkpt><trkpt lat="14.467921119942284" lon="120.96976088462137"><ele>7.0</ele><time>2026-04-04T11:40:01Z</time></trkpt><trkpt lat="14.468012753531486" lon="120.96982361780834"><ele>6.999999999999999</ele><time>2026-04-04T11:40:02Z</time></trkpt><trkpt lat="14.468105002637762" lon="120.96987775450643"><ele>6.999999999999999</ele><time>2026-04-04T11:40:03Z</time></trkpt><trkpt lat="14.468201938994431" lon="120.96993231820774"><ele>7.0</ele><time>2026-04-04T11:40:04Z</time></trkpt><trkpt lat="14.468305544032953" lon="120.96997905955172"><ele>7.0</ele><time>2026-04-04T11:40:05Z</time></trkpt><trkpt lat="14.468416032309824" lon="120.97002700817694"><ele>7.199999999999999</ele><time>2026-04-04T11:40:06Z</time></trkpt><trkpt lat="14.468522954864675" lon="120.97006801219437"><ele>7.3999999999999995</ele><time>2026-04-04T11:40:07Z</time></trkpt><trkpt lat="14.468633248018657" lon="120.97010785608782"><ele>7.6000000000000005</ele><time>2026-04-04T11:40:08Z</time></trkpt><trkpt lat="14.468722710300705" lon="120.97014398805577"><ele>7.800000000000001</ele><time>2026-04-04T11:40:09Z</time></trkpt><trkpt lat="14.4688261967251" lon="120.97018085244143"><ele>8.0</ele><time>2026-04-04T11:40:10Z</time></trkpt><trkpt lat="14.468922576703088" lon="120.97023092181253"><ele>8.0</ele><time>2026-04-04T11:40:11Z</time></trkpt><trkpt lat="14.46901523920387" lon="120.97029971016121"><ele>8.0</ele><time>2026-04-04T11:40:12Z</time></trkpt><trkpt lat="14.469098753681113" lon="120.9703764356038"><ele>8.0</ele><time>2026-04-04T11:40:13Z</time></trkpt><trkpt lat="14.469177831064467" lon="120.97045879375283"><ele>8.0</ele><time>2026-04-04T11:40:14Z</time></trkpt><trkpt lat="14.469255689560994" lon="120.97054718622321"><ele>8.0</ele><time>2026-04-04T11:40:15Z</time></trkpt><trkpt lat="14.469332802703608" lon="120.97064009942142"><ele>8.0</ele><time>2026-04-04T11:40:16Z</time></trkpt><trkpt lat="14.469412210492392" lon="120.97073106069983"><ele>8.0</ele><time>2026-04-04T11:40:17Z</time></trkpt><trkpt lat="14.46948763032857" lon="120.97082243458422"><ele>8.0</ele><time>2026-04-04T11:40:18Z</time></trkpt><trkpt lat="14.469561866166675" lon="120.97090745518592"><ele>7.833333333333333</ele><time>2026-04-04T11:40:19Z</time></trkpt><trkpt lat="14.469622824491527" lon="120.97097523506481"><ele>7.666666666666666</ele><time>2026-04-04T11:40:20Z</time></trkpt><trkpt lat="14.469678101025305" lon="120.97104386725117"><ele>7.5</ele><time>2026-04-04T11:40:21Z</time></trkpt><trkpt lat="14.469736054224374" lon="120.97110969897889"><ele>7.333333333333334</ele><time>2026-04-04T11:40:22Z</time></trkpt><trkpt lat="14.469794730020825" lon="120.97117450815192"><ele>7.166666666666667</ele><time>2026-04-04T11:40:23Z</time></trkpt><trkpt lat="14.46985462286429" lon="120.97124512892192"><ele>7.0</ele><time>2026-04-04T11:40:24Z</time></trkpt><trkpt lat="14.469910944821923" lon="120.97131645075454"><ele>7.000000000000001</ele><time>2026-04-04T11:40:25Z</time></trkpt><trkpt lat="14.469967330404936" lon="120.97138657492467"><ele>7.0</ele><time>2026-04-04T11:40:26Z</time></trkpt><trkpt lat="14.470012085539125" lon="120.9714490202392"><ele>7.0</ele><time>2026-04-04T11:40:27Z</time></trkpt><trkpt lat="14.470063085388295" lon="120.97153859331938"><ele>7.0</ele><time>2026-04-04T11:40:29Z</time></trkpt><trkpt lat="14.470107563262491" lon="120.97161453656246"><ele>7.000000000000001</ele><time>2026-04-04T11:40:31Z</time></trkpt><trkpt lat="14.47016088925649" lon="120.9716863803133"><ele>7.0</ele><time>2026-04-04T11:40:33Z</time></trkpt><trkpt lat="14.470232891157599" lon="120.97178554328089"><ele>7.0</ele><time>2026-04-04T11:40:35Z</time></trkpt><trkpt lat="14.470271494188921" lon="120.97183943503106"><ele>6.999999999999999</ele><time>2026-04-04T11:40:36Z</time></trkpt><trkpt lat="14.470350830677836" lon="120.97196186388473"><ele>6.999999999999999</ele><time>2026-04-04T11:40:38Z</time></trkpt><trkpt lat="14.470390095170004" lon="120.97201743107026"><ele>7.0</ele><time>2026-04-04T11:40:39Z</time></trkpt><trkpt lat="14.470457223679524" lon="120.9721183084757"><ele>7.0</ele><time>2026-04-04T11:40:41Z</time></trkpt><trkpt lat="14.470507440090724" lon="120.97218820262736"><ele>7.0</ele><time>2026-04-04T11:40:43Z</time></trkpt><trkpt lat="14.47055110564693" lon="120.97226183126268"><ele>6.999999999999999</ele><time>2026-04-04T11:40:46Z</time></trkpt><trkpt lat="14.470598974868633" lon="120.97234638640113"><ele>6.999999999999999</ele><time>2026-04-04T11:40:49Z</time></trkpt><trkpt lat="14.47064511602029" lon="120.97240521120251"><ele>7.0</ele><time>2026-04-04T11:40:50Z</time></trkpt><trkpt lat="14.470712845530224" lon="120.972521820372"><ele>7.0</ele><time>2026-04-04T11:40:52Z</time></trkpt><trkpt lat="14.470763433468127" lon="120.97261846758487"><ele>7.000000000000001</ele><time>2026-04-04T11:40:54Z</time></trkpt><trkpt lat="14.47078994600868" lon="120.97268010149747"><ele>7.0</ele><time>2026-04-04T11:40:55Z</time></trkpt><trkpt lat="14.47083649963159" lon="120.9727534191166"><ele>7.0</ele><time>2026-04-04T11:40:56Z</time></trkpt><trkpt lat="14.470878038437602" lon="120.97283476426492"><ele>7.0</ele><time>2026-04-04T11:40:57Z</time></trkpt><trkpt lat="14.47093593809993" lon="120.9729181638739"><ele>7.000000000000001</ele><time>2026-04-04T11:40:58Z</time></trkpt><trkpt lat="14.470981544759972" lon="120.97299637231848"><ele>7.0</ele><time>2026-04-04T11:40:59Z</time></trkpt><trkpt lat="14.471022003968583" lon="120.97309137673015"><ele>7.0</ele><time>2026-04-04T11:41:00Z</time></trkpt><trkpt lat="14.471063292791834" lon="120.97318427176809"><ele>6.999999999999999</ele><time>2026-04-04T11:41:01Z</time></trkpt><trkpt lat="14.471117423070687" lon="120.97328233015817"><ele>6.999999999999999</ele><time>2026-04-04T11:41:02Z</time></trkpt><trkpt lat="14.471177625941202" lon="120.97337328505753"><ele>7.0</ele><time>2026-04-04T11:41:03Z</time></trkpt><trkpt lat="14.471224440488133" lon="120.97347816842998"><ele>7.0</ele><time>2026-04-04T11:41:04Z</time></trkpt><trkpt lat="14.471275970329408" lon="120.97357581577812"><ele>6.833333333333334</ele><time>2026-04-04T11:41:05Z</time></trkpt><trkpt lat="14.4713205327567" lon="120.97367232163818"><ele>6.666666666666667</ele><time>2026-04-04T11:41:06Z</time></trkpt><trkpt lat="14.471366306168209" lon="120.97376137851445"><ele>6.5</ele><time>2026-04-04T11:41:07Z</time></trkpt><trkpt lat="14.471399455422945" lon="120.97384030347865"><ele>6.333333333333334</ele><time>2026-04-04T11:41:08Z</time></trkpt><trkpt lat="14.471434385100606" lon="120.97391273760712"><ele>6.166666666666667</ele><time>2026-04-04T11:41:09Z</time></trkpt><trkpt lat="14.471462715208858" lon="120.97397954417588"><ele>6.0</ele><time>2026-04-04T11:41:10Z</time></trkpt><trkpt lat="14.471513509899495" lon="120.9740810323708"><ele>6.0</ele><time>2026-04-04T11:41:12Z</time></trkpt><trkpt lat="14.471560653697347" lon="120.97417634310247"><ele>6.0</ele><time>2026-04-04T11:41:14Z</time></trkpt><trkpt lat="14.471613342602843" lon="120.97426815008433"><ele>6.0</ele><time>2026-04-04T11:41:16Z</time></trkpt><trkpt lat="14.471649010835737" lon="120.97434020747855"><ele>6.0</ele><time>2026-04-04T11:41:18Z</time></trkpt><trkpt lat="14.471685613938103" lon="120.974397927175"><ele>6.0</ele><time>2026-04-04T11:41:20Z</time></trkpt><trkpt lat="14.471733308096606" lon="120.97446410201512"><ele>6.0</ele><time>2026-04-04T11:41:22Z</time></trkpt><trkpt lat="14.471779226475139" lon="120.97453623694886"><ele>6.166666666666667</ele><time>2026-04-04T11:41:24Z</time></trkpt><trkpt lat="14.471819153040952" lon="120.97462129428355"><ele>6.333333333333334</ele><time>2026-04-04T11:41:26Z</time></trkpt><trkpt lat="14.471868526687299" lon="120.97471950965243"><ele>6.5</ele><time>2026-04-04T11:41:28Z</time></trkpt><trkpt lat="14.4718904119452" lon="120.97478158233974"><ele>6.666666666666667</ele><time>2026-04-04T11:41:29Z</time></trkpt><trkpt lat="14.47193532170292" lon="120.97484152090274"><ele>6.833333333333334</ele><time>2026-04-04T11:41:30Z</time></trkpt><trkpt lat="14.47196975331846" lon="120.97490161156537"><ele>7.0</ele><time>2026-04-04T11:41:31Z</time></trkpt><trkpt lat="14.472008100865374" lon="120.97496460145729"><ele>7.0</ele><time>2026-04-04T11:41:32Z</time></trkpt><trkpt lat="14.472047402012992" lon="120.97502805242517"><ele>6.999999999999999</ele><time>2026-04-04T11:41:33Z</time></trkpt><trkpt lat="14.472084811717998" lon="120.97509014947289"><ele>6.999999999999999</ele><time>2026-04-04T11:41:34Z</time></trkpt><trkpt lat="14.472157200194173" lon="120.97520722882255"><ele>7.0</ele><time>2026-04-04T11:41:36Z</time></trkpt><trkpt lat="14.472228013289897" lon="120.97530519010732"><ele>7.0</ele><time>2026-04-04T11:41:38Z</time></trkpt><trkpt lat="14.472293253412804" lon="120.97539644264441"><ele>7.000000000000001</ele><time>2026-04-04T11:41:40Z</time></trkpt><trkpt lat="14.472367900520881" lon="120.9755043066679"><ele>7.0</ele><time>2026-04-04T11:41:42Z</time></trkpt><trkpt lat="14.472409443294817" lon="120.97556195155953"><ele>7.0</ele><time>2026-04-04T11:41:43Z</time></trkpt><trkpt lat="14.47244690606186" lon="120.9756146021846"><ele>7.0</ele><time>2026-04-04T11:41:44Z</time></trkpt><trkpt lat="14.472491060078884" lon="120.97567118665799"><ele>7.000000000000001</ele><time>2026-04-04T11:41:45Z</time></trkpt><trkpt lat="14.472535140137724" lon="120.97572297581455"><ele>7.0</ele><time>2026-04-04T11:41:46Z</time></trkpt><trkpt lat="14.472581874087568" lon="120.97578033748968"><ele>7.000000000000001</ele><time>2026-04-04T11:41:47Z</time></trkpt><trkpt lat="14.472623330183806" lon="120.97583558958996"><ele>7.0</ele><time>2026-04-04T11:41:48Z</time></trkpt><trkpt lat="14.47269897233854" lon="120.9759275354227"><ele>7.0</ele><time>2026-04-04T11:41:50Z</time></trkpt><trkpt lat="14.472755084614901" lon="120.9759954385948"><ele>7.0</ele><time>2026-04-04T11:41:52Z</time></trkpt><trkpt lat="14.472810647672143" lon="120.97605621873706"><ele>7.000000000000001</ele><time>2026-04-04T11:41:55Z</time></trkpt><trkpt lat="14.472857405671347" lon="120.9761240438714"><ele>7.0</ele><time>2026-04-04T11:41:57Z</time></trkpt><trkpt lat="14.47291177722163" lon="120.97620499084516"><ele>7.0</ele><time>2026-04-04T11:41:59Z</time></trkpt><trkpt lat="14.47296515019679" lon="120.97626961191584"><ele>7.0</ele><time>2026-04-04T11:42:01Z</time></trkpt><trkpt lat="14.473010454495574" lon="120.97633128192804"><ele>7.0</ele><time>2026-04-04T11:42:03Z</time></trkpt><trkpt lat="14.473055339395472" lon="120.97638509819697"><ele>7.0</ele><time>2026-04-04T11:42:05Z</time></trkpt><trkpt lat="14.47309904260276" lon="120.97643232226987"><ele>7.0</ele><time>2026-04-04T11:42:07Z</time></trkpt><trkpt lat="14.473147124940962" lon="120.9764871641073"><ele>7.0</ele><time>2026-04-04T11:42:10Z</time></trkpt><trkpt lat="14.473193620428411" lon="120.97653986385905"><ele>7.0</ele><time>2026-04-04T11:42:18Z</time></trkpt><trkpt lat="14.47325674742196" lon="120.97662004639447"><ele>6.8</ele><time>2026-04-04T11:42:21Z</time></trkpt><trkpt lat="14.473324310827634" lon="120.97672784804813"><ele>6.6</ele><time>2026-04-04T11:42:23Z</time></trkpt><trkpt lat="14.473369843350833" lon="120.97679899534786"><ele>6.3999999999999995</ele><time>2026-04-04T11:42:24Z</time></trkpt><trkpt lat="14.473416840120462" lon="120.97687205661322"><ele>6.199999999999999</ele><time>2026-04-04T11:42:25Z</time></trkpt><trkpt lat="14.473459364096247" lon="120.97694674112414"><ele>6.0</ele><time>2026-04-04T11:42:26Z</time></trkpt><trkpt lat="14.47350307917711" lon="120.97701582091752"><ele>6.0</ele><time>2026-04-04T11:42:27Z</time></trkpt><trkpt lat="14.473539684402137" lon="120.97707463117511"><ele>6.0</ele><time>2026-04-04T11:42:28Z</time></trkpt><trkpt lat="14.4735731064168" lon="120.97713693269023"><ele>6.0</ele><time>2026-04-04T11:42:29Z</time></trkpt><trkpt lat="14.473629204765242" lon="120.97723627509899"><ele>6.0</ele><time>2026-04-04T11:42:31Z</time></trkpt><trkpt lat="14.473660722314296" lon="120.97730262347719"><ele>6.0</ele><time>2026-04-04T11:42:34Z</time></trkpt><trkpt lat="14.473696992461694" lon="120.97736607494494"><ele>6.0</ele><time>2026-04-04T11:42:38Z</time></trkpt><trkpt lat="14.473734208997856" lon="120.97742902915904"><ele>6.0</ele><time>2026-04-04T11:42:41Z</time></trkpt><trkpt lat="14.473794627579798" lon="120.97751495659487"><ele>6.0</ele><time>2026-04-04T11:42:44Z</time></trkpt><trkpt lat="14.473829409704093" lon="120.97757539486366"><ele>6.0</ele><time>2026-04-04T11:42:46Z</time></trkpt><trkpt lat="14.47386981582305" lon="120.9776501936706"><ele>6.0</ele><time>2026-04-04T11:42:48Z</time></trkpt><trkpt lat="14.473914885938541" lon="120.97773134892452"><ele>6.0</ele><time>2026-04-04T11:42:50Z</time></trkpt><trkpt lat="14.473963175533642" lon="120.97781857446685"><ele>6.0</ele><time>2026-04-04T11:42:52Z</time></trkpt><trkpt lat="14.474001525440078" lon="120.97794038778414"><ele>6.0</ele><time>2026-04-04T11:42:54Z</time></trkpt><trkpt lat="14.474009682825324" lon="120.97800956729996"><ele>6.0</ele><time>2026-04-04T11:42:55Z</time></trkpt><trkpt lat="14.473969729060334" lon="120.9781492874538"><ele>6.0</ele><time>2026-04-04T11:42:57Z</time></trkpt><trkpt lat="14.473951919585668" lon="120.97823493127991"><ele>6.0</ele><time>2026-04-04T11:42:58Z</time></trkpt><trkpt lat="14.473914223513587" lon="120.9783199190496"><ele>6.0</ele><time>2026-04-04T11:42:59Z</time></trkpt><trkpt lat="14.473878940710794" lon="120.97840401281802"><ele>6.166666666666667</ele><time>2026-04-04T11:43:00Z</time></trkpt><trkpt lat="14.47385745047053" lon="120.97847784413693"><ele>6.333333333333334</ele><time>2026-04-04T11:43:01Z</time></trkpt><trkpt lat="14.473811572173565" lon="120.97859111815187"><ele>6.5</ele><time>2026-04-04T11:43:03Z</time></trkpt><trkpt lat="14.473783337436258" lon="120.97864992739238"><ele>6.666666666666667</ele><time>2026-04-04T11:43:04Z</time></trkpt><trkpt lat="14.473752932418384" lon="120.97871711691512"><ele>6.833333333333334</ele><time>2026-04-04T11:43:05Z</time></trkpt><trkpt lat="14.473733820985371" lon="120.97880345679188"><ele>7.0</ele><time>2026-04-04T11:43:06Z</time></trkpt><trkpt lat="14.473722790037835" lon="120.97889735530032"><ele>6.75</ele><time>2026-04-04T11:43:07Z</time></trkpt><trkpt lat="14.47371714988231" lon="120.97900518340106"><ele>6.5</ele><time>2026-04-04T11:43:08Z</time></trkpt><trkpt lat="14.473719091173798" lon="120.97912375258713"><ele>6.25</ele><time>2026-04-04T11:43:09Z</time></trkpt><trkpt lat="14.473732776902756" lon="120.97924471631579"><ele>6.0</ele><time>2026-04-04T11:43:10Z</time></trkpt><trkpt lat="14.473749078375574" lon="120.97936746739953"><ele>6.0</ele><time>2026-04-04T11:43:11Z</time></trkpt><trkpt lat="14.473764236246387" lon="120.97949468631346"><ele>6.0</ele><time>2026-04-04T11:43:12Z</time></trkpt><trkpt lat="14.473784120951377" lon="120.97962774701121"><ele>6.0</ele><time>2026-04-04T11:43:13Z</time></trkpt><trkpt lat="14.473801083018419" lon="120.9797634310059"><ele>6.0</ele><time>2026-04-04T11:43:14Z</time></trkpt><trkpt lat="14.473817515537604" lon="120.97989541858965"><ele>5.75</ele><time>2026-04-04T11:43:15Z</time></trkpt><trkpt lat="14.473837780669678" lon="120.98002718087609"><ele>5.5</ele><time>2026-04-04T11:43:16Z</time></trkpt><trkpt lat="14.473866482641577" lon="120.98015662264646"><ele>5.25</ele><time>2026-04-04T11:43:17Z</time></trkpt><trkpt lat="14.473902658241979" lon="120.98026945267763"><ele>5.0</ele><time>2026-04-04T11:43:18Z</time></trkpt><trkpt lat="14.473950288420054" lon="120.98037815691534"><ele>5.0</ele><time>2026-04-04T11:43:19Z</time></trkpt><trkpt lat="14.474010700540015" lon="120.98048236726282"><ele>5.0</ele><time>2026-04-04T11:43:20Z</time></trkpt><trkpt lat="14.474065732475804" lon="120.98056624992728"><ele>5.0</ele><time>2026-04-04T11:43:21Z</time></trkpt><trkpt lat="14.474117183155673" lon="120.98065123065923"><ele>5.0</ele><time>2026-04-04T11:43:22Z</time></trkpt><trkpt lat="14.474167155475785" lon="120.9807384193538"><ele>5.0</ele><time>2026-04-04T11:43:23Z</time></trkpt><trkpt lat="14.474218761969059" lon="120.98083622014533"><ele>5.8</ele><time>2026-04-04T11:43:24Z</time></trkpt><trkpt lat="14.474277358005404" lon="120.98092360085478"><ele>6.6</ele><time>2026-04-04T11:43:25Z</time></trkpt><trkpt lat="14.474336327391116" lon="120.98101995962705"><ele>7.4</ele><time>2026-04-04T11:43:26Z</time></trkpt><trkpt lat="14.474398856545973" lon="120.98111260357251"><ele>8.2</ele><time>2026-04-04T11:43:27Z</time></trkpt><trkpt lat="14.474449344793971" lon="120.98118215075351"><ele>9.0</ele><time>2026-04-04T11:43:28Z</time></trkpt><trkpt lat="14.47450301768335" lon="120.98124808286653"><ele>9.0</ele><time>2026-04-04T11:43:29Z</time></trkpt><trkpt lat="14.474554688728086" lon="120.98131188664914"><ele>9.0</ele><time>2026-04-04T11:43:30Z</time></trkpt><trkpt lat="14.474613160361875" lon="120.98138242913983"><ele>9.0</ele><time>2026-04-04T11:43:31Z</time></trkpt><trkpt lat="14.474685948828322" lon="120.98145609213303"><ele>9.0</ele><time>2026-04-04T11:43:32Z</time></trkpt><trkpt lat="14.474762799789815" lon="120.98153477804598"><ele>9.0</ele><time>2026-04-04T11:43:33Z</time></trkpt><trkpt lat="14.474847513667038" lon="120.98162289400513"><ele>8.75</ele><time>2026-04-04T11:43:34Z</time></trkpt><trkpt lat="14.474940133394075" lon="120.98171209458113"><ele>8.5</ele><time>2026-04-04T11:43:35Z</time></trkpt><trkpt lat="14.475039439178637" lon="120.98181035638383"><ele>8.25</ele><time>2026-04-04T11:43:36Z</time></trkpt><trkpt lat="14.475137780622925" lon="120.98191445332486"><ele>8.0</ele><time>2026-04-04T11:43:37Z</time></trkpt><trkpt lat="14.475242793845064" lon="120.9820221754303"><ele>8.0</ele><time>2026-04-04T11:43:38Z</time></trkpt><trkpt lat="14.475352832346848" lon="120.9821352150618"><ele>8.0</ele><time>2026-04-04T11:43:39Z</time></trkpt><trkpt lat="14.475469539022889" lon="120.9822517815084"><ele>8.0</ele><time>2026-04-04T11:43:40Z</time></trkpt><trkpt lat="14.475588804666772" lon="120.98237433996319"><ele>8.0</ele><time>2026-04-04T11:43:41Z</time></trkpt><trkpt lat="14.475712977807824" lon="120.9825054259983"><ele>8.0</ele><time>2026-04-04T11:43:42Z</time></trkpt><trkpt lat="14.475842879825349" lon="120.98263984725926"><ele>8.0</ele><time>2026-04-04T11:43:43Z</time></trkpt><trkpt lat="14.475976973495467" lon="120.98277696777484"><ele>7.666666666666666</ele><time>2026-04-04T11:43:44Z</time></trkpt><trkpt lat="14.476113174962814" lon="120.98291783092297"><ele>7.333333333333334</ele><time>2026-04-04T11:43:45Z</time></trkpt><trkpt lat="14.476251959708435" lon="120.98306178319638"><ele>7.0</ele><time>2026-04-04T11:43:46Z</time></trkpt><trkpt lat="14.476388927829104" lon="120.98320137995549"><ele>7.0</ele><time>2026-04-04T11:43:47Z</time></trkpt><trkpt lat="14.476513017846553" lon="120.98333198211134"><ele>7.0</ele><time>2026-04-04T11:43:48Z</time></trkpt><trkpt lat="14.476632158273102" lon="120.98345548048988"><ele>7.0</ele><time>2026-04-04T11:43:49Z</time></trkpt><trkpt lat="14.476749080090729" lon="120.98357717930423"><ele>7.666666666666667</ele><time>2026-04-04T11:43:50Z</time></trkpt><trkpt lat="14.476867650861337" lon="120.9836983359403"><ele>8.333333333333334</ele><time>2026-04-04T11:43:51Z</time></trkpt><trkpt lat="14.47698932241067" lon="120.98381807177374"><ele>9.0</ele><time>2026-04-04T11:43:52Z</time></trkpt><trkpt lat="14.477112365469818" lon="120.9839413470579"><ele>6.666666666666667</ele><time>2026-04-04T11:43:53Z</time></trkpt><trkpt lat="14.477237521601324" lon="120.98406886727673"><ele>4.333333333333333</ele><time>2026-04-04T11:43:54Z</time></trkpt><trkpt lat="14.477364748907759" lon="120.98419309993994"><ele>2.0</ele><time>2026-04-04T11:43:55Z</time></trkpt><trkpt lat="14.477488622441966" lon="120.98432149228691"><ele>2.0</ele><time>2026-04-04T11:43:56Z</time></trkpt><trkpt lat="14.477608985329667" lon="120.98444928584028"><ele>2.0</ele><time>2026-04-04T11:43:57Z</time></trkpt><trkpt lat="14.477731450809076" lon="120.98457538461341"><ele>2.0</ele><time>2026-04-04T11:43:58Z</time></trkpt><trkpt lat="14.477853739031506" lon="120.98470149687579"><ele>3.666666666666667</ele><time>2026-04-04T11:43:59Z</time></trkpt><trkpt lat="14.477978049004724" lon="120.98482630967077"><ele>5.333333333333334</ele><time>2026-04-04T11:44:00Z</time></trkpt><trkpt lat="14.478102531523893" lon="120.98495806719758"><ele>7.0</ele><time>2026-04-04T11:44:01Z</time></trkpt><trkpt lat="14.478224260475717" lon="120.9850810908821"><ele>8.333333333333334</ele><time>2026-04-04T11:44:02Z</time></trkpt><trkpt lat="14.478339003688136" lon="120.98520022707581"><ele>9.666666666666666</ele><time>2026-04-04T11:44:03Z</time></trkpt><trkpt lat="14.478450432208565" lon="120.98531303362003"><ele>11.0</ele><time>2026-04-04T11:44:04Z</time></trkpt><trkpt lat="14.478554093533308" lon="120.98541821435748"><ele>11.0</ele><time>2026-04-04T11:44:05Z</time></trkpt><trkpt lat="14.478647400244762" lon="120.98551584287188"><ele>11.0</ele><time>2026-04-04T11:44:06Z</time></trkpt><trkpt lat="14.478733461340912" lon="120.98560698781053"><ele>11.0</ele><time>2026-04-04T11:44:07Z</time></trkpt><trkpt lat="14.478807602128928" lon="120.98568356954041"><ele>11.0</ele><time>2026-04-04T11:44:08Z</time></trkpt><trkpt lat="14.47890000759631" lon="120.98577174078645"><ele>9.200000000000001</ele><time>2026-04-04T11:44:10Z</time></trkpt><trkpt lat="14.478989587924687" lon="120.98586601199389"><ele>7.4</ele><time>2026-04-04T11:44:12Z</time></trkpt><trkpt lat="14.479049466305199" lon="120.98592196080514"><ele>5.6000000000000005</ele><time>2026-04-04T11:44:13Z</time></trkpt><trkpt lat="14.479115117166828" lon="120.98598779102234"><ele>3.8000000000000003</ele><time>2026-04-04T11:44:14Z</time></trkpt><trkpt lat="14.479182868807873" lon="120.98605839689864"><ele>2.0</ele><time>2026-04-04T11:44:15Z</time></trkpt><trkpt lat="14.479253585082239" lon="120.98613036503818"><ele>2.0</ele><time>2026-04-04T11:44:16Z</time></trkpt><trkpt lat="14.479327219268242" lon="120.98620541007206"><ele>2.0</ele><time>2026-04-04T11:44:17Z</time></trkpt><trkpt lat="14.479404680019886" lon="120.9862870086619"><ele>2.0</ele><time>2026-04-04T11:44:18Z</time></trkpt><trkpt lat="14.479489840972379" lon="120.98637439038583"><ele>2.0</ele><time>2026-04-04T11:44:19Z</time></trkpt><trkpt lat="14.479579107472713" lon="120.98646646687928"><ele>2.0</ele><time>2026-04-04T11:44:20Z</time></trkpt><trkpt lat="14.479674997390347" lon="120.98656598988732"><ele>2.0</ele><time>2026-04-04T11:44:21Z</time></trkpt><trkpt lat="14.479770736938104" lon="120.98666924620612"><ele>2.0</ele><time>2026-04-04T11:44:22Z</time></trkpt><trkpt lat="14.479870589458455" lon="120.98677565546748"><ele>2.0</ele><time>2026-04-04T11:44:23Z</time></trkpt><trkpt lat="14.479968011454067" lon="120.98688080165469"><ele>2.5</ele><time>2026-04-04T11:44:24Z</time></trkpt><trkpt lat="14.480064305038352" lon="120.98697295489228"><ele>3.0</ele><time>2026-04-04T11:44:25Z</time></trkpt><trkpt lat="14.48015044273762" lon="120.9870639560029"><ele>3.5</ele><time>2026-04-04T11:44:26Z</time></trkpt><trkpt lat="14.480235748797737" lon="120.98714694142446"><ele>4.0</ele><time>2026-04-04T11:44:27Z</time></trkpt><trkpt lat="14.480329658761889" lon="120.98722875444695"><ele>4.0</ele><time>2026-04-04T11:44:28Z</time></trkpt><trkpt lat="14.480432458067893" lon="120.98730633183173"><ele>4.0</ele><time>2026-04-04T11:44:29Z</time></trkpt><trkpt lat="14.480542746424018" lon="120.9873817515178"><ele>4.0</ele><time>2026-04-04T11:44:30Z</time></trkpt><trkpt lat="14.48065532456224" lon="120.98745260716139"><ele>4.0</ele><time>2026-04-04T11:44:31Z</time></trkpt><trkpt lat="14.480774292503815" lon="120.9875176764246"><ele>3.75</ele><time>2026-04-04T11:44:32Z</time></trkpt><trkpt lat="14.480896275832764" lon="120.98758369459372"><ele>3.5</ele><time>2026-04-04T11:44:33Z</time></trkpt><trkpt lat="14.481015787923779" lon="120.9876465790975"><ele>3.25</ele><time>2026-04-04T11:44:34Z</time></trkpt><trkpt lat="14.481135058607384" lon="120.9877091224308"><ele>3.0</ele><time>2026-04-04T11:44:35Z</time></trkpt><trkpt lat="14.481251770159002" lon="120.9877734560412"><ele>0.6666666666666667</ele><time>2026-04-04T11:44:36Z</time></trkpt><trkpt lat="14.481439641307402" lon="120.98785356623253"><ele>-1.6666666666666665</ele><time>2026-04-04T11:44:37Z</time></trkpt><trkpt lat="14.481571614819755" lon="120.98791859408524"><ele>-4.0</ele><time>2026-04-04T11:44:38Z</time></trkpt><trkpt lat="14.481700525808028" lon="120.98798360469341"><ele>-4.0</ele><time>2026-04-04T11:44:39Z</time></trkpt><trkpt lat="14.481835324502274" lon="120.98804814415719"><ele>-4.0</ele><time>2026-04-04T11:44:40Z</time></trkpt><trkpt lat="14.481970540036919" lon="120.98811337443217"><ele>-4.0</ele><time>2026-04-04T11:44:41Z</time></trkpt><trkpt lat="14.482108318639977" lon="120.98818305009594"><ele>-2.0</ele><time>2026-04-04T11:44:42Z</time></trkpt><trkpt lat="14.482247056437652" lon="120.98825268412791"><ele>0.0</ele><time>2026-04-04T11:44:43Z</time></trkpt><trkpt lat="14.482384627050687" lon="120.98832338914258"><ele>2.0</ele><time>2026-04-04T11:44:44Z</time></trkpt><trkpt lat="14.482522037654237" lon="120.98839469939628"><ele>2.25</ele><time>2026-04-04T11:44:45Z</time></trkpt><trkpt lat="14.482646635582412" lon="120.98846099527415"><ele>2.5</ele><time>2026-04-04T11:44:46Z</time></trkpt><trkpt lat="14.48275813299306" lon="120.98853061132095"><ele>2.75</ele><time>2026-04-04T11:44:47Z</time></trkpt><trkpt lat="14.482854057771448" lon="120.9886066184535"><ele>3.0</ele><time>2026-04-04T11:44:48Z</time></trkpt><trkpt lat="14.482934558074994" lon="120.98870294298733"><ele>3.25</ele><time>2026-04-04T11:44:49Z</time></trkpt><trkpt lat="14.482996190741513" lon="120.98880876682556"><ele>3.5</ele><time>2026-04-04T11:44:50Z</time></trkpt><trkpt lat="14.483047495166634" lon="120.98892149726483"><ele>3.75</ele><time>2026-04-04T11:44:51Z</time></trkpt><trkpt lat="14.483091521008149" lon="120.98902989819427"><ele>4.0</ele><time>2026-04-04T11:44:52Z</time></trkpt><trkpt lat="14.483144957804381" lon="120.98914186707047"><ele>3.75</ele><time>2026-04-04T11:44:53Z</time></trkpt><trkpt lat="14.48320107279213" lon="120.98925590065343"><ele>3.5</ele><time>2026-04-04T11:44:54Z</time></trkpt><trkpt lat="14.483260134138769" lon="120.98937014561672"><ele>3.25</ele><time>2026-04-04T11:44:55Z</time></trkpt><trkpt lat="14.483316869553486" lon="120.98947772603438"><ele>3.0</ele><time>2026-04-04T11:44:56Z</time></trkpt><trkpt lat="14.483375149658716" lon="120.98958567267617"><ele>3.0</ele><time>2026-04-04T11:44:57Z</time></trkpt><trkpt lat="14.483428452190427" lon="120.98968967112523"><ele>3.0</ele><time>2026-04-04T11:44:58Z</time></trkpt><trkpt lat="14.483476059579292" lon="120.98979332379037"><ele>3.0</ele><time>2026-04-04T11:44:59Z</time></trkpt><trkpt lat="14.483499400947828" lon="120.98990468099517"><ele>3.0</ele><time>2026-04-04T11:45:00Z</time></trkpt><trkpt lat="14.483497333956569" lon="120.99002182281833"><ele>3.0</ele><time>2026-04-04T11:45:01Z</time></trkpt><trkpt lat="14.483481631388644" lon="120.99014706301003"><ele>4.0</ele><time>2026-04-04T11:45:02Z</time></trkpt><trkpt lat="14.483440465410046" lon="120.99027580696956"><ele>5.0</ele><time>2026-04-04T11:45:03Z</time></trkpt><trkpt lat="14.483387797744657" lon="120.99040166790195"><ele>6.0</ele><time>2026-04-04T11:45:04Z</time></trkpt><trkpt lat="14.483330203900083" lon="120.99052733159105"><ele>7.0</ele><time>2026-04-04T11:45:05Z</time></trkpt><trkpt lat="14.483283661800382" lon="120.99066352886605"><ele>7.0</ele><time>2026-04-04T11:45:06Z</time></trkpt><trkpt lat="14.483241341760555" lon="120.99079683197758"><ele>7.0</ele><time>2026-04-04T11:45:07Z</time></trkpt><trkpt lat="14.48320838814948" lon="120.99092365833422"><ele>7.0</ele><time>2026-04-04T11:45:08Z</time></trkpt><trkpt lat="14.483173770521239" lon="120.99105017573197"><ele>7.0</ele><time>2026-04-04T11:45:09Z</time></trkpt><trkpt lat="14.48314570068463" lon="120.99117442814405"><ele>7.0</ele><time>2026-04-04T11:45:10Z</time></trkpt><trkpt lat="14.483148420628389" lon="120.99129790281744"><ele>7.0</ele><time>2026-04-04T11:45:11Z</time></trkpt><trkpt lat="14.483160778152172" lon="120.99142490416092"><ele>7.0</ele><time>2026-04-04T11:45:12Z</time></trkpt><trkpt lat="14.4831898183271" lon="120.99154388388243"><ele>7.0</ele><time>2026-04-04T11:45:13Z</time></trkpt><trkpt lat="14.483225857300637" lon="120.99166055533294"><ele>5.75</ele><time>2026-04-04T11:45:14Z</time></trkpt><trkpt lat="14.483270107609139" lon="120.99178668796786"><ele>4.5</ele><time>2026-04-04T11:45:15Z</time></trkpt><trkpt lat="14.483311968086939" lon="120.99191207699383"><ele>3.25</ele><time>2026-04-04T11:45:16Z</time></trkpt><trkpt lat="14.48335182339416" lon="120.99203462139894"><ele>2.0</ele><time>2026-04-04T11:45:17Z</time></trkpt><trkpt lat="14.483387740320438" lon="120.99214309703534"><ele>2.0</ele><time>2026-04-04T11:45:18Z</time></trkpt><trkpt lat="14.483423634771507" lon="120.99224536169909"><ele>2.0</ele><time>2026-04-04T11:45:19Z</time></trkpt><trkpt lat="14.483455956672323" lon="120.99234061287954"><ele>2.0</ele><time>2026-04-04T11:45:20Z</time></trkpt><trkpt lat="14.483502604607287" lon="120.99242937594127"><ele>2.0</ele><time>2026-04-04T11:45:21Z</time></trkpt><trkpt lat="14.483568854219813" lon="120.99250661627865"><ele>2.0</ele><time>2026-04-04T11:45:22Z</time></trkpt><trkpt lat="14.483661145634521" lon="120.99257852337462"><ele>3.0</ele><time>2026-04-04T11:45:23Z</time></trkpt><trkpt lat="14.483754250898093" lon="120.99263503934147"><ele>4.0</ele><time>2026-04-04T11:45:24Z</time></trkpt><trkpt lat="14.483857452671554" lon="120.99269977937288"><ele>5.0</ele><time>2026-04-04T11:45:25Z</time></trkpt><trkpt lat="14.483959806659996" lon="120.99276888436006"><ele>6.0</ele><time>2026-04-04T11:45:26Z</time></trkpt><trkpt lat="14.484065066635141" lon="120.99284196460685"><ele>6.0</ele><time>2026-04-04T11:45:27Z</time></trkpt><trkpt lat="14.484169506514922" lon="120.99291530117782"><ele>6.0</ele><time>2026-04-04T11:45:28Z</time></trkpt><trkpt lat="14.48427329809515" lon="120.99298118170701"><ele>6.0</ele><time>2026-04-04T11:45:29Z</time></trkpt><trkpt lat="14.48437518198129" lon="120.99304458700303"><ele>6.0</ele><time>2026-04-04T11:45:30Z</time></trkpt><trkpt lat="14.484461333109888" lon="120.99309552111735"><ele>6.0</ele><time>2026-04-04T11:45:31Z</time></trkpt><trkpt lat="14.484541596466258" lon="120.99314662279473"><ele>6.0</ele><time>2026-04-04T11:45:32Z</time></trkpt><trkpt lat="14.48460398388847" lon="120.9931869354623"><ele>6.0</ele><time>2026-04-04T11:45:33Z</time></trkpt><trkpt lat="14.484694797174875" lon="120.99323049419134"><ele>6.0</ele><time>2026-04-04T11:45:35Z</time></trkpt><trkpt lat="14.484752663495545" lon="120.99326090551997"><ele>6.0</ele><time>2026-04-04T11:45:37Z</time></trkpt><trkpt lat="14.484837809025818" lon="120.99329226126666"><ele>6.0</ele><time>2026-04-04T11:45:41Z</time></trkpt><trkpt lat="14.484906145113689" lon="120.99332609925243"><ele>6.199999999999999</ele><time>2026-04-04T11:45:45Z</time></trkpt><trkpt lat="14.48495858682978" lon="120.99322558442286"><ele>6.3999999999999995</ele><time>2026-04-04T11:45:46Z</time></trkpt><trkpt lat="14.484974086762413" lon="120.99314314342418"><ele>6.6</ele><time>2026-04-04T11:45:47Z</time></trkpt><trkpt lat="14.484972725369307" lon="120.99304512041869"><ele>6.8</ele><time>2026-04-04T11:45:48Z</time></trkpt><trkpt lat="14.484971174835291" lon="120.9929422549292"><ele>7.0</ele><time>2026-04-04T11:45:49Z</time></trkpt><trkpt lat="14.48498791060373" lon="120.9928312747639"><ele>7.0</ele><time>2026-04-04T11:45:50Z</time></trkpt><trkpt lat="14.485010301226387" lon="120.99271977537614"><ele>7.0</ele><time>2026-04-04T11:45:51Z</time></trkpt><trkpt lat="14.48503619266545" lon="120.99260207659559"><ele>7.0</ele><time>2026-04-04T11:45:52Z</time></trkpt><trkpt lat="14.48507474743435" lon="120.99248385075994"><ele>7.0</ele><time>2026-04-04T11:45:53Z</time></trkpt><trkpt lat="14.485123407220295" lon="120.9923668119999"><ele>7.0</ele><time>2026-04-04T11:45:54Z</time></trkpt><trkpt lat="14.485179987993217" lon="120.99225198564955"><ele>7.0</ele><time>2026-04-04T11:45:55Z</time></trkpt><trkpt lat="14.485247269918993" lon="120.99214109656543"><ele>7.0</ele><time>2026-04-04T11:45:56Z</time></trkpt><trkpt lat="14.485318464156544" lon="120.99203159721273"><ele>7.0</ele><time>2026-04-04T11:45:57Z</time></trkpt><trkpt lat="14.485398331462275" lon="120.99193219512473"><ele>7.0</ele><time>2026-04-04T11:45:58Z</time></trkpt><trkpt lat="14.485484947890402" lon="120.9918443284736"><ele>7.0</ele><time>2026-04-04T11:45:59Z</time></trkpt><trkpt lat="14.485570700765212" lon="120.99175712303516"><ele>7.0</ele><time>2026-04-04T11:46:00Z</time></trkpt><trkpt lat="14.48566408371927" lon="120.99166614971539"><ele>7.0</ele><time>2026-04-04T11:46:01Z</time></trkpt><trkpt lat="14.485763601195215" lon="120.99158302706195"><ele>7.75</ele><time>2026-04-04T11:46:02Z</time></trkpt><trkpt lat="14.485867671076019" lon="120.99151630231681"><ele>8.5</ele><time>2026-04-04T11:46:03Z</time></trkpt><trkpt lat="14.485974903500905" lon="120.99145249962888"><ele>9.25</ele><time>2026-04-04T11:46:04Z</time></trkpt><trkpt lat="14.486084815774845" lon="120.99139538013415"><ele>10.0</ele><time>2026-04-04T11:46:05Z</time></trkpt><trkpt lat="14.486219532596937" lon="120.99135192944648"><ele>9.5</ele><time>2026-04-04T11:46:06Z</time></trkpt><trkpt lat="14.486349106025523" lon="120.991324161568"><ele>9.0</ele><time>2026-04-04T11:46:07Z</time></trkpt><trkpt lat="14.486480129238025" lon="120.99129845724738"><ele>8.5</ele><time>2026-04-04T11:46:08Z</time></trkpt><trkpt lat="14.486617697218605" lon="120.99128571187491"><ele>8.0</ele><time>2026-04-04T11:46:09Z</time></trkpt><trkpt lat="14.486755135645843" lon="120.99127824916285"><ele>8.0</ele><time>2026-04-04T11:46:10Z</time></trkpt><trkpt lat="14.48688700527555" lon="120.9912797409378"><ele>8.0</ele><time>2026-04-04T11:46:11Z</time></trkpt><trkpt lat="14.487008659926275" lon="120.99128980771724"><ele>8.0</ele><time>2026-04-04T11:46:12Z</time></trkpt><trkpt lat="14.487128505262854" lon="120.99129974504372"><ele>8.0</ele><time>2026-04-04T11:46:13Z</time></trkpt><trkpt lat="14.487236544656476" lon="120.99131102750215"><ele>7.999999999999999</ele><time>2026-04-04T11:46:14Z</time></trkpt><trkpt lat="14.487342652475908" lon="120.99131780020878"><ele>8.0</ele><time>2026-04-04T11:46:15Z</time></trkpt><trkpt lat="14.487429400804743" lon="120.99132371713542"><ele>8.0</ele><time>2026-04-04T11:46:16Z</time></trkpt><trkpt lat="14.48751431121205" lon="120.99132990884958"><ele>8.0</ele><time>2026-04-04T11:46:17Z</time></trkpt><trkpt lat="14.487600365040883" lon="120.99133771500433"><ele>7.999999999999999</ele><time>2026-04-04T11:46:18Z</time></trkpt><trkpt lat="14.48767380766158" lon="120.99134813987466"><ele>8.0</ele><time>2026-04-04T11:46:19Z</time></trkpt><trkpt lat="14.48775648902947" lon="120.99136132963504"><ele>8.0</ele><time>2026-04-04T11:46:20Z</time></trkpt><trkpt lat="14.487849499942357" lon="120.99137207093358"><ele>8.0</ele><time>2026-04-04T11:46:21Z</time></trkpt><trkpt lat="14.487933616300221" lon="120.9913805972256"><ele>8.0</ele><time>2026-04-04T11:46:22Z</time></trkpt><trkpt lat="14.48802375066744" lon="120.99139187621856"><ele>8.0</ele><time>2026-04-04T11:46:23Z</time></trkpt><trkpt lat="14.4881267976707" lon="120.99140470107311"><ele>8.0</ele><time>2026-04-04T11:46:24Z</time></trkpt><trkpt lat="14.488240489257992" lon="120.99142351466423"><ele>7.75</ele><time>2026-04-04T11:46:25Z</time></trkpt><trkpt lat="14.488357655053191" lon="120.99143894489424"><ele>7.5</ele><time>2026-04-04T11:46:26Z</time></trkpt><trkpt lat="14.488482375573724" lon="120.99145438610563"><ele>7.25</ele><time>2026-04-04T11:46:27Z</time></trkpt><trkpt lat="14.48861176211912" lon="120.99147280028878"><ele>7.0</ele><time>2026-04-04T11:46:28Z</time></trkpt><trkpt lat="14.48874041242645" lon="120.99149195633393"><ele>6.75</ele><time>2026-04-04T11:46:29Z</time></trkpt><trkpt lat="14.488878933188337" lon="120.99152124100482"><ele>6.5</ele><time>2026-04-04T11:46:30Z</time></trkpt><trkpt lat="14.489019715874578" lon="120.99155021554405"><ele>6.25</ele><time>2026-04-04T11:46:31Z</time></trkpt><trkpt lat="14.489158541224644" lon="120.9915809123758"><ele>6.0</ele><time>2026-04-04T11:46:32Z</time></trkpt><trkpt lat="14.489305143209553" lon="120.99160678054292"><ele>6.0</ele><time>2026-04-04T11:46:33Z</time></trkpt><trkpt lat="14.489452170749745" lon="120.9916358344016"><ele>6.0</ele><time>2026-04-04T11:46:34Z</time></trkpt><trkpt lat="14.489600673921718" lon="120.99166550566031"><ele>6.0</ele><time>2026-04-04T11:46:35Z</time></trkpt><trkpt lat="14.489746756864886" lon="120.99169194027151"><ele>6.0</ele><time>2026-04-04T11:46:36Z</time></trkpt><trkpt lat="14.489896324298272" lon="120.99171539113074"><ele>5.75</ele><time>2026-04-04T11:46:37Z</time></trkpt><trkpt lat="14.49003499301172" lon="120.99174318285729"><ele>5.5</ele><time>2026-04-04T11:46:38Z</time></trkpt><trkpt lat="14.49017895656862" lon="120.99176950043555"><ele>5.25</ele><time>2026-04-04T11:46:39Z</time></trkpt><trkpt lat="14.490323130359117" lon="120.99179405732947"><ele>5.0</ele><time>2026-04-04T11:46:40Z</time></trkpt><trkpt lat="14.490460343703793" lon="120.99181861044556"><ele>5.0</ele><time>2026-04-04T11:46:41Z</time></trkpt><trkpt lat="14.490599976322608" lon="120.99184551059129"><ele>5.0</ele><time>2026-04-04T11:46:42Z</time></trkpt><trkpt lat="14.490741740604086" lon="120.99186431338974"><ele>5.0</ele><time>2026-04-04T11:46:43Z</time></trkpt><trkpt lat="14.490875959264246" lon="120.99189355909394"><ele>5.0</ele><time>2026-04-04T11:46:44Z</time></trkpt><trkpt lat="14.491016859733985" lon="120.99191318692388"><ele>5.0</ele><time>2026-04-04T11:46:45Z</time></trkpt><trkpt lat="14.491156178002276" lon="120.9919393858743"><ele>5.0</ele><time>2026-04-04T11:46:46Z</time></trkpt><trkpt lat="14.491293514105873" lon="120.99196077626642"><ele>5.0</ele><time>2026-04-04T11:46:47Z</time></trkpt><trkpt lat="14.491428476315646" lon="120.99198144624208"><ele>5.0</ele><time>2026-04-04T11:46:48Z</time></trkpt><trkpt lat="14.491555428142197" lon="120.99200370159797"><ele>5.6</ele><time>2026-04-04T11:46:49Z</time></trkpt><trkpt lat="14.491672982593363" lon="120.99202279594738"><ele>6.2</ele><time>2026-04-04T11:46:50Z</time></trkpt><trkpt lat="14.491783308750177" lon="120.99204415261866"><ele>6.800000000000001</ele><time>2026-04-04T11:46:51Z</time></trkpt><trkpt lat="14.491875778346651" lon="120.9920728988491"><ele>7.4</ele><time>2026-04-04T11:46:52Z</time></trkpt><trkpt lat="14.49197582334909" lon="120.99208077680477"><ele>8.0</ele><time>2026-04-04T11:46:53Z</time></trkpt><trkpt lat="14.492073827749758" lon="120.99209936767032"><ele>7.800000000000001</ele><time>2026-04-04T11:46:54Z</time></trkpt><trkpt lat="14.492173876666836" lon="120.9921200578229"><ele>7.6000000000000005</ele><time>2026-04-04T11:46:55Z</time></trkpt><trkpt lat="14.492285228637174" lon="120.9921356413848"><ele>7.3999999999999995</ele><time>2026-04-04T11:46:56Z</time></trkpt><trkpt lat="14.492398982545046" lon="120.99215169471705"><ele>7.199999999999999</ele><time>2026-04-04T11:46:57Z</time></trkpt><trkpt lat="14.492515594687196" lon="120.99216649628097"><ele>7.0</ele><time>2026-04-04T11:46:58Z</time></trkpt><trkpt lat="14.492639712648629" lon="120.99218020153664"><ele>7.0</ele><time>2026-04-04T11:46:59Z</time></trkpt><trkpt lat="14.492767793689458" lon="120.99218785822607"><ele>7.0</ele><time>2026-04-04T11:47:00Z</time></trkpt><trkpt lat="14.492902289816588" lon="120.9921963970326"><ele>7.0</ele><time>2026-04-04T11:47:01Z</time></trkpt><trkpt lat="14.493044436127438" lon="120.99221279916304"><ele>7.0</ele><time>2026-04-04T11:47:02Z</time></trkpt><trkpt lat="14.493188411561139" lon="120.99223436252205"><ele>6.333333333333334</ele><time>2026-04-04T11:47:03Z</time></trkpt><trkpt lat="14.493338469040674" lon="120.99225633932821"><ele>5.666666666666667</ele><time>2026-04-04T11:47:04Z</time></trkpt><trkpt lat="14.493486449244736" lon="120.99228296816077"><ele>5.0</ele><time>2026-04-04T11:47:05Z</time></trkpt><trkpt lat="14.493634851795912" lon="120.9923088326844"><ele>5.666666666666667</ele><time>2026-04-04T11:47:06Z</time></trkpt><trkpt lat="14.493787778617971" lon="120.99233389665773"><ele>6.333333333333334</ele><time>2026-04-04T11:47:07Z</time></trkpt><trkpt lat="14.493940312734816" lon="120.99235818540032"><ele>7.0</ele><time>2026-04-04T11:47:08Z</time></trkpt><trkpt lat="14.494094128533073" lon="120.99238391636906"><ele>7.0</ele><time>2026-04-04T11:47:09Z</time></trkpt><trkpt lat="14.494248553969761" lon="120.99241199488944"><ele>7.0</ele><time>2026-04-04T11:47:10Z</time></trkpt><trkpt lat="14.494400938831872" lon="120.99243842825335"><ele>7.0</ele><time>2026-04-04T11:47:11Z</time></trkpt><trkpt lat="14.494552876712868" lon="120.99246044211131"><ele>6.666666666666667</ele><time>2026-04-04T11:47:12Z</time></trkpt><trkpt lat="14.494712624414216" lon="120.99248025668287"><ele>6.333333333333334</ele><time>2026-04-04T11:47:13Z</time></trkpt><trkpt lat="14.494870024833485" lon="120.99250250017502"><ele>6.0</ele><time>2026-04-04T11:47:14Z</time></trkpt><trkpt lat="14.495029191713087" lon="120.9925287624074"><ele>6.333333333333334</ele><time>2026-04-04T11:47:15Z</time></trkpt><trkpt lat="14.495190626030361" lon="120.99256107774428"><ele>6.666666666666667</ele><time>2026-04-04T11:47:16Z</time></trkpt><trkpt lat="14.495343226757083" lon="120.9925866772113"><ele>7.0</ele><time>2026-04-04T11:47:17Z</time></trkpt><trkpt lat="14.495503962424756" lon="120.99261602513714"><ele>7.0</ele><time>2026-04-04T11:47:18Z</time></trkpt><trkpt lat="14.495659181920077" lon="120.99264268074498"><ele>7.0</ele><time>2026-04-04T11:47:19Z</time></trkpt><trkpt lat="14.495815735430877" lon="120.99267279915621"><ele>7.0</ele><time>2026-04-04T11:47:20Z</time></trkpt><trkpt lat="14.49596809382432" lon="120.99269521803488"><ele>7.0</ele><time>2026-04-04T11:47:21Z</time></trkpt><trkpt lat="14.496114899620578" lon="120.99270966206305"><ele>7.0</ele><time>2026-04-04T11:47:22Z</time></trkpt><trkpt lat="14.49626770440816" lon="120.99271528027404"><ele>7.0</ele><time>2026-04-04T11:47:23Z</time></trkpt><trkpt lat="14.496421624599858" lon="120.99272299060348"><ele>6.666666666666667</ele><time>2026-04-04T11:47:24Z</time></trkpt><trkpt lat="14.4965853430373" lon="120.9927233387273"><ele>6.333333333333334</ele><time>2026-04-04T11:47:25Z</time></trkpt><trkpt lat="14.496748445819131" lon="120.99272003718305"><ele>6.0</ele><time>2026-04-04T11:47:26Z</time></trkpt><trkpt lat="14.496915128564515" lon="120.9927075769418"><ele>6.0</ele><time>2026-04-04T11:47:27Z</time></trkpt><trkpt lat="14.497080100201872" lon="120.99269034288004"><ele>6.0</ele><time>2026-04-04T11:47:28Z</time></trkpt><trkpt lat="14.497246834832026" lon="120.99267142366742"><ele>6.0</ele><time>2026-04-04T11:47:29Z</time></trkpt><trkpt lat="14.497408541497064" lon="120.99264873236866"><ele>6.333333333333334</ele><time>2026-04-04T11:47:30Z</time></trkpt><trkpt lat="14.497566843355658" lon="120.99262768263078"><ele>6.666666666666667</ele><time>2026-04-04T11:47:31Z</time></trkpt><trkpt lat="14.497722687762256" lon="120.99261002303236"><ele>7.0</ele><time>2026-04-04T11:47:32Z</time></trkpt><trkpt lat="14.497868045968595" lon="120.99259855337104"><ele>7.0</ele><time>2026-04-04T11:47:33Z</time></trkpt><trkpt lat="14.498010016267003" lon="120.99259263300254"><ele>7.0</ele><time>2026-04-04T11:47:34Z</time></trkpt><trkpt lat="14.498129220269265" lon="120.99261236677948"><ele>7.0</ele><time>2026-04-04T11:47:35Z</time></trkpt><trkpt lat="14.498241481292576" lon="120.99263253124454"><ele>7.0</ele><time>2026-04-04T11:47:36Z</time></trkpt><trkpt lat="14.498357766690164" lon="120.99269904550948"><ele>7.0</ele><time>2026-04-04T11:47:37Z</time></trkpt><trkpt lat="14.498456310480478" lon="120.9927802005279"><ele>7.0</ele><time>2026-04-04T11:47:38Z</time></trkpt><trkpt lat="14.498537338046157" lon="120.99287147324787"><ele>7.0</ele><time>2026-04-04T11:47:39Z</time></trkpt><trkpt lat="14.498606952724005" lon="120.99297728080865"><ele>7.0</ele><time>2026-04-04T11:47:40Z</time></trkpt><trkpt lat="14.49865693413223" lon="120.99309967069033"><ele>7.0</ele><time>2026-04-04T11:47:41Z</time></trkpt><trkpt lat="14.498691678567932" lon="120.99323256933273"><ele>7.0</ele><time>2026-04-04T11:47:42Z</time></trkpt><trkpt lat="14.498716880593134" lon="120.99337551712055"><ele>7.0</ele><time>2026-04-04T11:47:43Z</time></trkpt><trkpt lat="14.498740375104429" lon="120.9935175910149"><ele>7.0</ele><time>2026-04-04T11:47:44Z</time></trkpt><trkpt lat="14.498763722179312" lon="120.99365533790898"><ele>6.5</ele><time>2026-04-04T11:47:45Z</time></trkpt><trkpt lat="14.498789508061448" lon="120.99379667762356"><ele>6.0</ele><time>2026-04-04T11:47:46Z</time></trkpt><trkpt lat="14.498813648210264" lon="120.99393759735482"><ele>5.5</ele><time>2026-04-04T11:47:47Z</time></trkpt><trkpt lat="14.498837277097438" lon="120.99407810582252"><ele>5.0</ele><time>2026-04-04T11:47:48Z</time></trkpt><trkpt lat="14.498865977044174" lon="120.99421215920202"><ele>4.75</ele><time>2026-04-04T11:47:49Z</time></trkpt><trkpt lat="14.4988953976246" lon="120.99433415480196"><ele>4.5</ele><time>2026-04-04T11:47:50Z</time></trkpt><trkpt lat="14.498921495764947" lon="120.99445573752504"><ele>4.25</ele><time>2026-04-04T11:47:51Z</time></trkpt><trkpt lat="14.498949719654282" lon="120.99460063744444"><ele>4.0</ele><time>2026-04-04T11:47:52Z</time></trkpt><trkpt lat="14.498975375683786" lon="120.99472858207463"><ele>4.0</ele><time>2026-04-04T11:47:53Z</time></trkpt><trkpt lat="14.498997357605623" lon="120.99483600238915"><ele>4.0</ele><time>2026-04-04T11:47:54Z</time></trkpt><trkpt lat="14.499021815170243" lon="120.99495636001562"><ele>4.0</ele><time>2026-04-04T11:47:55Z</time></trkpt><trkpt lat="14.499044551486714" lon="120.99508543770855"><ele>4.0</ele><time>2026-04-04T11:47:56Z</time></trkpt><trkpt lat="14.499073422182025" lon="120.99521083946715"><ele>4.0</ele><time>2026-04-04T11:47:57Z</time></trkpt><trkpt lat="14.499108317330517" lon="120.99533657811509"><ele>4.0</ele><time>2026-04-04T11:47:58Z</time></trkpt><trkpt lat="14.49914419316868" lon="120.99546283762098"><ele>4.0</ele><time>2026-04-04T11:47:59Z</time></trkpt><trkpt lat="14.499183377881915" lon="120.99559405992265"><ele>4.0</ele><time>2026-04-04T11:48:00Z</time></trkpt><trkpt lat="14.49922862107937" lon="120.99571586025856"><ele>5.0</ele><time>2026-04-04T11:48:01Z</time></trkpt><trkpt lat="14.499278735746044" lon="120.99583927620137"><ele>6.0</ele><time>2026-04-04T11:48:02Z</time></trkpt><trkpt lat="14.49933526419323" lon="120.99595746093033"><ele>7.0</ele><time>2026-04-04T11:48:03Z</time></trkpt><trkpt lat="14.499392181276432" lon="120.99607960653691"><ele>8.0</ele><time>2026-04-04T11:48:04Z</time></trkpt><trkpt lat="14.49944877177437" lon="120.9961933577429"><ele>8.0</ele><time>2026-04-04T11:48:05Z</time></trkpt><trkpt lat="14.499506093439134" lon="120.99630103365257"><ele>8.0</ele><time>2026-04-04T11:48:06Z</time></trkpt><trkpt lat="14.499563782853183" lon="120.99639855851808"><ele>8.0</ele><time>2026-04-04T11:48:07Z</time></trkpt><trkpt lat="14.499624843908549" lon="120.99649931990412"><ele>8.0</ele><time>2026-04-04T11:48:08Z</time></trkpt><trkpt lat="14.499682732515339" lon="120.99659393704705"><ele>7.6000000000000005</ele><time>2026-04-04T11:48:09Z</time></trkpt><trkpt lat="14.499741232861536" lon="120.99668583625363"><ele>7.200000000000001</ele><time>2026-04-04T11:48:10Z</time></trkpt><trkpt lat="14.499801823815213" lon="120.99677260009383"><ele>6.8</ele><time>2026-04-04T11:48:11Z</time></trkpt><trkpt lat="14.499866439463503" lon="120.99686237834271"><ele>6.4</ele><time>2026-04-04T11:48:12Z</time></trkpt><trkpt lat="14.499935214384168" lon="120.99694949509146"><ele>6.0</ele><time>2026-04-04T11:48:13Z</time></trkpt><trkpt lat="14.500009334842227" lon="120.99703624299264"><ele>6.0</ele><time>2026-04-04T11:48:14Z</time></trkpt><trkpt lat="14.500089312319727" lon="120.99712080588557"><ele>6.0</ele><time>2026-04-04T11:48:15Z</time></trkpt><trkpt lat="14.50016143283556" lon="120.99719011357823"><ele>6.0</ele><time>2026-04-04T11:48:16Z</time></trkpt><trkpt lat="14.500236646035901" lon="120.99726424667449"><ele>6.0</ele><time>2026-04-04T11:48:17Z</time></trkpt><trkpt lat="14.500307615071243" lon="120.99733571252904"><ele>6.0</ele><time>2026-04-04T11:48:18Z</time></trkpt><trkpt lat="14.500390228560066" lon="120.99740857900348"><ele>6.0</ele><time>2026-04-04T11:48:19Z</time></trkpt><trkpt lat="14.500471350453692" lon="120.99748054517856"><ele>6.0</ele><time>2026-04-04T11:48:20Z</time></trkpt><trkpt lat="14.500561902537717" lon="120.99755680160145"><ele>6.0</ele><time>2026-04-04T11:48:21Z</time></trkpt><trkpt lat="14.500654521798523" lon="120.99763056081581"><ele>6.0</ele><time>2026-04-04T11:48:22Z</time></trkpt><trkpt lat="14.500752124349297" lon="120.9977029278122"><ele>5.8</ele><time>2026-04-04T11:48:23Z</time></trkpt><trkpt lat="14.500841140733959" lon="120.99776001100409"><ele>5.6</ele><time>2026-04-04T11:48:24Z</time></trkpt><trkpt lat="14.500930765976504" lon="120.99781350835809"><ele>5.4</ele><time>2026-04-04T11:48:25Z</time></trkpt><trkpt lat="14.501023611550751" lon="120.99786923306934"><ele>5.2</ele><time>2026-04-04T11:48:26Z</time></trkpt><trkpt lat="14.501123604442343" lon="120.99792591364893"><ele>5.0</ele><time>2026-04-04T11:48:27Z</time></trkpt><trkpt lat="14.501225108993923" lon="120.99799337751081"><ele>5.2</ele><time>2026-04-04T11:48:28Z</time></trkpt><trkpt lat="14.50131960832093" lon="120.99805534946364"><ele>5.4</ele><time>2026-04-04T11:48:29Z</time></trkpt><trkpt lat="14.501412289290913" lon="120.9981191583124"><ele>5.6</ele><time>2026-04-04T11:48:30Z</time></trkpt><trkpt lat="14.501508960722369" lon="120.99818037965447"><ele>5.8</ele><time>2026-04-04T11:48:31Z</time></trkpt><trkpt lat="14.501602191964821" lon="120.99823883419218"><ele>6.0</ele><time>2026-04-04T11:48:32Z</time></trkpt><trkpt lat="14.501700018049098" lon="120.99829682055584"><ele>6.6</ele><time>2026-04-04T11:48:33Z</time></trkpt><trkpt lat="14.501788932641107" lon="120.99835641826179"><ele>7.199999999999999</ele><time>2026-04-04T11:48:34Z</time></trkpt><trkpt lat="14.501871024333347" lon="120.99840653485865"><ele>7.800000000000001</ele><time>2026-04-04T11:48:35Z</time></trkpt><trkpt lat="14.501948826051608" lon="120.99845383176654"><ele>8.4</ele><time>2026-04-04T11:48:36Z</time></trkpt><trkpt lat="14.502024670424781" lon="120.99850183204957"><ele>9.0</ele><time>2026-04-04T11:48:37Z</time></trkpt><trkpt lat="14.502096356699102" lon="120.99854997456937"><ele>9.0</ele><time>2026-04-04T11:48:38Z</time></trkpt><trkpt lat="14.50216015859663" lon="120.99859339063296"><ele>9.0</ele><time>2026-04-04T11:48:39Z</time></trkpt><trkpt lat="14.502217670784331" lon="120.99862828991023"><ele>9.0</ele><time>2026-04-04T11:48:40Z</time></trkpt><trkpt lat="14.502287146929774" lon="120.99866769111792"><ele>9.0</ele><time>2026-04-04T11:48:41Z</time></trkpt><trkpt lat="14.502361512145923" lon="120.99870771511101"><ele>9.0</ele><time>2026-04-04T11:48:42Z</time></trkpt><trkpt lat="14.502438142603589" lon="120.99874963820425"><ele>9.0</ele><time>2026-04-04T11:48:43Z</time></trkpt><trkpt lat="14.502519058926254" lon="120.99879774297753"><ele>9.0</ele><time>2026-04-04T11:48:44Z</time></trkpt><trkpt lat="14.50260265521616" lon="120.99884925034073"><ele>9.0</ele><time>2026-04-04T11:48:45Z</time></trkpt><trkpt lat="14.502692462127074" lon="120.9989060641238"><ele>9.0</ele><time>2026-04-04T11:48:46Z</time></trkpt><trkpt lat="14.502785973943165" lon="120.99896137467728"><ele>9.0</ele><time>2026-04-04T11:48:47Z</time></trkpt><trkpt lat="14.502880615002303" lon="120.99901743339939"><ele>9.0</ele><time>2026-04-04T11:48:48Z</time></trkpt><trkpt lat="14.502967897758676" lon="120.99907476178461"><ele>9.0</ele><time>2026-04-04T11:48:49Z</time></trkpt><trkpt lat="14.503048968372354" lon="120.99912760775744"><ele>9.0</ele><time>2026-04-04T11:48:50Z</time></trkpt><trkpt lat="14.503130692436157" lon="120.9991754352394"><ele>9.0</ele><time>2026-04-04T11:48:51Z</time></trkpt><trkpt lat="14.503206318560384" lon="120.9992268472548"><ele>9.0</ele><time>2026-04-04T11:48:52Z</time></trkpt><trkpt lat="14.503276371828619" lon="120.99927041316828"><ele>9.0</ele><time>2026-04-04T11:48:53Z</time></trkpt><trkpt lat="14.503344056292002" lon="120.99931268462323"><ele>9.0</ele><time>2026-04-04T11:48:54Z</time></trkpt><trkpt lat="14.503418218475439" lon="120.99936258908208"><ele>9.0</ele><time>2026-04-04T11:48:55Z</time></trkpt><trkpt lat="14.503494310553103" lon="120.99940707571022"><ele>9.0</ele><time>2026-04-04T11:48:56Z</time></trkpt><trkpt lat="14.503580172620095" lon="120.99946202013437"><ele>9.0</ele><time>2026-04-04T11:48:57Z</time></trkpt><trkpt lat="14.503665383741605" lon="120.99951431062459"><ele>9.0</ele><time>2026-04-04T11:48:58Z</time></trkpt><trkpt lat="14.503753485548309" lon="120.99956691759841"><ele>9.0</ele><time>2026-04-04T11:48:59Z</time></trkpt><trkpt lat="14.503842350691263" lon="120.99962291346351"><ele>9.2</ele><time>2026-04-04T11:49:00Z</time></trkpt><trkpt lat="14.503926371824186" lon="120.99967524221529"><ele>9.4</ele><time>2026-04-04T11:49:01Z</time></trkpt><trkpt lat="14.504014318317646" lon="120.99972875605933"><ele>9.6</ele><time>2026-04-04T11:49:02Z</time></trkpt><trkpt lat="14.504100078504898" lon="120.99978436867173"><ele>9.8</ele><time>2026-04-04T11:49:03Z</time></trkpt><trkpt lat="14.50418554879848" lon="120.99984347911544"><ele>10.0</ele><time>2026-04-04T11:49:04Z</time></trkpt><trkpt lat="14.504272359806999" lon="120.99990362264946"><ele>10.0</ele><time>2026-04-04T11:49:05Z</time></trkpt><trkpt lat="14.50435437016459" lon="120.99996737705257"><ele>10.0</ele><time>2026-04-04T11:49:06Z</time></trkpt><trkpt lat="14.504430455236514" lon="121.00003096699737"><ele>10.0</ele><time>2026-04-04T11:49:07Z</time></trkpt><trkpt lat="14.504507635440977" lon="121.00009753542717"><ele>10.0</ele><time>2026-04-04T11:49:08Z</time></trkpt><trkpt lat="14.50458207808429" lon="121.00015115065294"><ele>10.0</ele><time>2026-04-04T11:49:09Z</time></trkpt><trkpt lat="14.504657539801292" lon="121.00020578720569"><ele>9.571428571428571</ele><time>2026-04-04T11:49:10Z</time></trkpt><trkpt lat="14.504730549455832" lon="121.00025325430248"><ele>9.142857142857142</ele><time>2026-04-04T11:49:11Z</time></trkpt><trkpt lat="14.504799238501393" lon="121.00029429576064"><ele>8.714285714285715</ele><time>2026-04-04T11:49:12Z</time></trkpt><trkpt lat="14.504860581896853" lon="121.00032830397247"><ele>8.285714285714285</ele><time>2026-04-04T11:49:13Z</time></trkpt><trkpt lat="14.504920599487455" lon="121.00036483744796"><ele>7.857142857142858</ele><time>2026-04-04T11:49:14Z</time></trkpt><trkpt lat="14.504978793010595" lon="121.0003987663501"><ele>7.428571428571429</ele><time>2026-04-04T11:49:15Z</time></trkpt><trkpt lat="14.505034517038226" lon="121.00043533312379"><ele>7.0</ele><time>2026-04-04T11:49:16Z</time></trkpt><trkpt lat="14.505122511339131" lon="121.00049865126388"><ele>7.0</ele><time>2026-04-04T11:49:18Z</time></trkpt><trkpt lat="14.50521325978514" lon="121.0005631705121"><ele>6.999999999999999</ele><time>2026-04-04T11:49:20Z</time></trkpt><trkpt lat="14.505301895455128" lon="121.00061630099083"><ele>6.999999999999999</ele><time>2026-04-04T11:49:22Z</time></trkpt><trkpt lat="14.505373023917718" lon="121.00066676865119"><ele>7.0</ele><time>2026-04-04T11:49:24Z</time></trkpt><trkpt lat="14.505450008313744" lon="121.00070095191974"><ele>7.0</ele><time>2026-04-04T11:49:26Z</time></trkpt><trkpt lat="14.505562333504129" lon="121.00075082890811"><ele>7.500000000000001</ele><time>2026-04-04T11:49:28Z</time></trkpt><trkpt lat="14.505629933234765" lon="121.00078444337431"><ele>8.0</ele><time>2026-04-04T11:49:29Z</time></trkpt><trkpt lat="14.505705196993013" lon="121.00081711083168"><ele>8.5</ele><time>2026-04-04T11:49:30Z</time></trkpt><trkpt lat="14.505782394532098" lon="121.00085449873372"><ele>9.0</ele><time>2026-04-04T11:49:31Z</time></trkpt><trkpt lat="14.505863898357699" lon="121.00089397480714"><ele>9.5</ele><time>2026-04-04T11:49:32Z</time></trkpt><trkpt lat="14.505945296549333" lon="121.00093182532576"><ele>10.0</ele><time>2026-04-04T11:49:33Z</time></trkpt><trkpt lat="14.50603540198403" lon="121.00097197446394"><ele>10.0</ele><time>2026-04-04T11:49:34Z</time></trkpt><trkpt lat="14.506095840424294" lon="121.00099590901746"><ele>10.0</ele><time>2026-04-04T11:49:35Z</time></trkpt><trkpt lat="14.50618243971876" lon="121.001030014312"><ele>10.0</ele><time>2026-04-04T11:49:36Z</time></trkpt><trkpt lat="14.50627667093341" lon="121.00106848623514"><ele>10.0</ele><time>2026-04-04T11:49:37Z</time></trkpt><trkpt lat="14.506373076986838" lon="121.00110269218659"><ele>10.0</ele><time>2026-04-04T11:49:38Z</time></trkpt><trkpt lat="14.506461545991337" lon="121.00113206856619"><ele>10.0</ele><time>2026-04-04T11:49:39Z</time></trkpt><trkpt lat="14.506544251385556" lon="121.00115780383243"><ele>10.0</ele><time>2026-04-04T11:49:40Z</time></trkpt><trkpt lat="14.50661943788249" lon="121.00118163578992"><ele>10.0</ele><time>2026-04-04T11:49:41Z</time></trkpt><trkpt lat="14.506690678558302" lon="121.0012108805968"><ele>10.0</ele><time>2026-04-04T11:49:42Z</time></trkpt><trkpt lat="14.506763025636397" lon="121.0012351780094"><ele>10.0</ele><time>2026-04-04T11:49:43Z</time></trkpt><trkpt lat="14.506831224464163" lon="121.00125994978764"><ele>10.0</ele><time>2026-04-04T11:49:44Z</time></trkpt><trkpt lat="14.506898728525206" lon="121.00128574278389"><ele>10.0</ele><time>2026-04-04T11:49:45Z</time></trkpt><trkpt lat="14.506971696297535" lon="121.0013168589411"><ele>10.0</ele><time>2026-04-04T11:49:46Z</time></trkpt><trkpt lat="14.507039339739421" lon="121.00134341045401"><ele>10.0</ele><time>2026-04-04T11:49:47Z</time></trkpt><trkpt lat="14.507103150025133" lon="121.00136593985015"><ele>10.0</ele><time>2026-04-04T11:49:48Z</time></trkpt><trkpt lat="14.50717479172543" lon="121.00139255997885"><ele>10.0</ele><time>2026-04-04T11:49:49Z</time></trkpt><trkpt lat="14.507250637965326" lon="121.00141569866514"><ele>10.0</ele><time>2026-04-04T11:49:50Z</time></trkpt><trkpt lat="14.507319047566599" lon="121.00143657688751"><ele>10.0</ele><time>2026-04-04T11:49:51Z</time></trkpt><trkpt lat="14.507379058136287" lon="121.00145688627394"><ele>9.666666666666668</ele><time>2026-04-04T11:49:52Z</time></trkpt><trkpt lat="14.50744630997756" lon="121.00147805400846"><ele>9.333333333333334</ele><time>2026-04-04T11:49:53Z</time></trkpt><trkpt lat="14.507533131283312" lon="121.00151511393089"><ele>9.0</ele><time>2026-04-04T11:49:54Z</time></trkpt><trkpt lat="14.507612102606432" lon="121.00153559287824"><ele>8.666666666666666</ele><time>2026-04-04T11:49:55Z</time></trkpt><trkpt lat="14.507698201812474" lon="121.00157273867043"><ele>8.333333333333332</ele><time>2026-04-04T11:49:56Z</time></trkpt><trkpt lat="14.507784353890493" lon="121.00162509546533"><ele>8.0</ele><time>2026-04-04T11:49:57Z</time></trkpt><trkpt lat="14.507887880408347" lon="121.00168953129257"><ele>8.200000000000001</ele><time>2026-04-04T11:49:58Z</time></trkpt><trkpt lat="14.50798897569897" lon="121.0017482252507"><ele>8.4</ele><time>2026-04-04T11:49:59Z</time></trkpt><trkpt lat="14.508095857496794" lon="121.00180247612518"><ele>8.600000000000001</ele><time>2026-04-04T11:50:00Z</time></trkpt><trkpt lat="14.508188941630712" lon="121.00183711314985"><ele>8.8</ele><time>2026-04-04T11:50:01Z</time></trkpt><trkpt lat="14.508294040422198" lon="121.00187463120564"><ele>9.0</ele><time>2026-04-04T11:50:02Z</time></trkpt><trkpt lat="14.508408456091532" lon="121.00191618558692"><ele>9.0</ele><time>2026-04-04T11:50:03Z</time></trkpt><trkpt lat="14.508518710034412" lon="121.00195793952385"><ele>9.0</ele><time>2026-04-04T11:50:04Z</time></trkpt><trkpt lat="14.508633958510114" lon="121.00199886939545"><ele>9.0</ele><time>2026-04-04T11:50:05Z</time></trkpt><trkpt lat="14.508745862638921" lon="121.00202595945564"><ele>9.0</ele><time>2026-04-04T11:50:06Z</time></trkpt><trkpt lat="14.508846419326261" lon="121.00204985378689"><ele>8.5</ele><time>2026-04-04T11:50:07Z</time></trkpt><trkpt lat="14.508957032600433" lon="121.0020710172042"><ele>8.0</ele><time>2026-04-04T11:50:08Z</time></trkpt><trkpt lat="14.509072979561234" lon="121.0020930840002"><ele>7.5</ele><time>2026-04-04T11:50:09Z</time></trkpt><trkpt lat="14.509189455059719" lon="121.00211535866619"><ele>7.0</ele><time>2026-04-04T11:50:10Z</time></trkpt><trkpt lat="14.509296991565622" lon="121.00215222726108"><ele>7.0</ele><time>2026-04-04T11:50:11Z</time></trkpt><trkpt lat="14.509412491107563" lon="121.002188235766"><ele>7.0</ele><time>2026-04-04T11:50:12Z</time></trkpt><trkpt lat="14.50952690314898" lon="121.00223141250498"><ele>7.0</ele><time>2026-04-04T11:50:13Z</time></trkpt><trkpt lat="14.509650107349424" lon="121.0022738541848"><ele>7.0</ele><time>2026-04-04T11:50:14Z</time></trkpt><trkpt lat="14.50976776576669" lon="121.00232048978874"><ele>6.5</ele><time>2026-04-04T11:50:15Z</time></trkpt><trkpt lat="14.509899048762632" lon="121.00236436445573"><ele>6.0</ele><time>2026-04-04T11:50:16Z</time></trkpt><trkpt lat="14.510028612996166" lon="121.0024098881047"><ele>5.5</ele><time>2026-04-04T11:50:17Z</time></trkpt><trkpt lat="14.510154234999495" lon="121.00245999000553"><ele>5.0</ele><time>2026-04-04T11:50:18Z</time></trkpt><trkpt lat="14.510277214650692" lon="121.00250827371123"><ele>5.0</ele><time>2026-04-04T11:50:19Z</time></trkpt><trkpt lat="14.51040756296009" lon="121.00255603708551"><ele>5.0</ele><time>2026-04-04T11:50:20Z</time></trkpt><trkpt lat="14.510547669433809" lon="121.00260820758429"><ele>5.0</ele><time>2026-04-04T11:50:21Z</time></trkpt><trkpt lat="14.510688699329803" lon="121.0026542518118"><ele>5.0</ele><time>2026-04-04T11:50:22Z</time></trkpt><trkpt lat="14.510823921031374" lon="121.00270018172861"><ele>5.25</ele><time>2026-04-04T11:50:23Z</time></trkpt><trkpt lat="14.510948504570951" lon="121.0027436720777"><ele>5.5</ele><time>2026-04-04T11:50:24Z</time></trkpt><trkpt lat="14.51106838487043" lon="121.00278864385665"><ele>5.75</ele><time>2026-04-04T11:50:25Z</time></trkpt><trkpt lat="14.511175698166118" lon="121.00282200211105"><ele>6.0</ele><time>2026-04-04T11:50:26Z</time></trkpt><trkpt lat="14.51128399792121" lon="121.0028613037474"><ele>6.0</ele><time>2026-04-04T11:50:27Z</time></trkpt><trkpt lat="14.511380126974352" lon="121.00290805848313"><ele>6.0</ele><time>2026-04-04T11:50:28Z</time></trkpt><trkpt lat="14.511480806215204" lon="121.00293901575967"><ele>6.0</ele><time>2026-04-04T11:50:29Z</time></trkpt><trkpt lat="14.511582032406592" lon="121.00298019775987"><ele>6.0</ele><time>2026-04-04T11:50:30Z</time></trkpt><trkpt lat="14.51168435137893" lon="121.00301955765694"><ele>6.0</ele><time>2026-04-04T11:50:31Z</time></trkpt><trkpt lat="14.511782043679581" lon="121.00305092150585"><ele>6.0</ele><time>2026-04-04T11:50:32Z</time></trkpt><trkpt lat="14.51186937707544" lon="121.00308314379274"><ele>6.0</ele><time>2026-04-04T11:50:33Z</time></trkpt><trkpt lat="14.511933644872567" lon="121.00310805804554"><ele>6.0</ele><time>2026-04-04T11:50:34Z</time></trkpt><trkpt lat="14.5119959253591" lon="121.00313377238068"><ele>6.0</ele><time>2026-04-04T11:50:36Z</time></trkpt><trkpt lat="14.512084118469135" lon="121.00317154773985"><ele>6.0</ele><time>2026-04-04T11:50:39Z</time></trkpt><trkpt lat="14.512153827213186" lon="121.0031955333137"><ele>6.0</ele><time>2026-04-04T11:50:41Z</time></trkpt><trkpt lat="14.512262075580244" lon="121.00322867383264"><ele>6.199999999999999</ele><time>2026-04-04T11:50:43Z</time></trkpt><trkpt lat="14.512333255879417" lon="121.00325882452937"><ele>6.3999999999999995</ele><time>2026-04-04T11:50:44Z</time></trkpt><trkpt lat="14.51241583700834" lon="121.00328417811393"><ele>6.6</ele><time>2026-04-04T11:50:45Z</time></trkpt><trkpt lat="14.51249987311268" lon="121.00332648858738"><ele>6.8</ele><time>2026-04-04T11:50:46Z</time></trkpt><trkpt lat="14.512598271271713" lon="121.00335478714754"><ele>7.0</ele><time>2026-04-04T11:50:47Z</time></trkpt><trkpt lat="14.512705706552598" lon="121.00338365129367"><ele>7.0</ele><time>2026-04-04T11:50:48Z</time></trkpt><trkpt lat="14.51281862161272" lon="121.00343319537129"><ele>7.0</ele><time>2026-04-04T11:50:49Z</time></trkpt><trkpt lat="14.512931521542741" lon="121.00345426555359"><ele>7.0</ele><time>2026-04-04T11:50:50Z</time></trkpt><trkpt lat="14.513049052780849" lon="121.00348987764133"><ele>7.0</ele><time>2026-04-04T11:50:51Z</time></trkpt><trkpt lat="14.513180265745198" lon="121.00352548282298"><ele>7.25</ele><time>2026-04-04T11:50:52Z</time></trkpt><trkpt lat="14.51331116689573" lon="121.00357002305849"><ele>7.5</ele><time>2026-04-04T11:50:53Z</time></trkpt><trkpt lat="14.513447337082413" lon="121.00362280063374"><ele>7.75</ele><time>2026-04-04T11:50:54Z</time></trkpt><trkpt lat="14.513585880519994" lon="121.00367528579649"><ele>8.0</ele><time>2026-04-04T11:50:55Z</time></trkpt><trkpt lat="14.51372525708867" lon="121.00372325234419"><ele>9.0</ele><time>2026-04-04T11:50:56Z</time></trkpt><trkpt lat="14.513862465778164" lon="121.00377582722317"><ele>10.0</ele><time>2026-04-04T11:50:57Z</time></trkpt><trkpt lat="14.513997162045257" lon="121.00382456426878"><ele>11.0</ele><time>2026-04-04T11:50:58Z</time></trkpt><trkpt lat="14.51412383076524" lon="121.0038705378514"><ele>12.0</ele><time>2026-04-04T11:50:59Z</time></trkpt><trkpt lat="14.514248464615292" lon="121.00390476008826"><ele>12.0</ele><time>2026-04-04T11:51:00Z</time></trkpt><trkpt lat="14.514361790705548" lon="121.00395327166379"><ele>12.0</ele><time>2026-04-04T11:51:01Z</time></trkpt><trkpt lat="14.514467840614097" lon="121.00399365642093"><ele>12.0</ele><time>2026-04-04T11:51:02Z</time></trkpt><trkpt lat="14.514560631342745" lon="121.00402010524562"><ele>12.0</ele><time>2026-04-04T11:51:03Z</time></trkpt><trkpt lat="14.514638985919666" lon="121.00405319845348"><ele>12.0</ele><time>2026-04-04T11:51:04Z</time></trkpt><trkpt lat="14.514702830032286" lon="121.00407302421627"><ele>11.5</ele><time>2026-04-04T11:51:05Z</time></trkpt><trkpt lat="14.514773090028921" lon="121.00409530725837"><ele>11.0</ele><time>2026-04-04T11:51:07Z</time></trkpt><trkpt lat="14.514835108543444" lon="121.00412183420198"><ele>10.5</ele><time>2026-04-04T11:51:11Z</time></trkpt><trkpt lat="14.514928953407981" lon="121.00415704233647"><ele>10.0</ele><time>2026-04-04T11:51:43Z</time></trkpt><trkpt lat="14.51501301353995" lon="121.00418417433288"><ele>9.5</ele><time>2026-04-04T11:51:47Z</time></trkpt><trkpt lat="14.515090707244674" lon="121.00420690820397"><ele>9.0</ele><time>2026-04-04T11:51:49Z</time></trkpt><trkpt lat="14.515166799750666" lon="121.00422304834248"><ele>9.0</ele><time>2026-04-04T11:51:51Z</time></trkpt><trkpt lat="14.515233223377233" lon="121.00422700377858"><ele>9.0</ele><time>2026-04-04T11:51:53Z</time></trkpt><trkpt lat="14.515315694946773" lon="121.0042129572658"><ele>9.0</ele><time>2026-04-04T11:51:56Z</time></trkpt><trkpt lat="14.51531433099219" lon="121.00428742793744"><ele>9.0</ele><time>2026-04-04T11:51:57Z</time></trkpt><trkpt lat="14.515406379666706" lon="121.00418099082118"><ele>9.0</ele><time>2026-04-04T11:51:58Z</time></trkpt><trkpt lat="14.515459318389464" lon="121.00407085042977"><ele>8.833333333333334</ele><time>2026-04-04T11:52:00Z</time></trkpt><trkpt lat="14.515491891271303" lon="121.00400333396426"><ele>8.666666666666666</ele><time>2026-04-04T11:52:01Z</time></trkpt><trkpt lat="14.51552802404394" lon="121.00392811708367"><ele>8.5</ele><time>2026-04-04T11:52:02Z</time></trkpt><trkpt lat="14.515568363488569" lon="121.0038441433208"><ele>8.333333333333332</ele><time>2026-04-04T11:52:03Z</time></trkpt><trkpt lat="14.515609851101118" lon="121.00375578645036"><ele>8.166666666666666</ele><time>2026-04-04T11:52:04Z</time></trkpt><trkpt lat="14.515652908320906" lon="121.00366428987269"><ele>8.0</ele><time>2026-04-04T11:52:05Z</time></trkpt><trkpt lat="14.51569655193903" lon="121.00356988121314"><ele>8.0</ele><time>2026-04-04T11:52:06Z</time></trkpt><trkpt lat="14.515738948905124" lon="121.00347687228549"><ele>8.0</ele><time>2026-04-04T11:52:07Z</time></trkpt><trkpt lat="14.515787421918132" lon="121.00338186981661"><ele>8.0</ele><time>2026-04-04T11:52:08Z</time></trkpt><trkpt lat="14.51584018346957" lon="121.00327782385196"><ele>8.0</ele><time>2026-04-04T11:52:09Z</time></trkpt><trkpt lat="14.515890056212744" lon="121.00317947266748"><ele>8.0</ele><time>2026-04-04T11:52:10Z</time></trkpt><trkpt lat="14.515942622635444" lon="121.00307588468519"><ele>7.5</ele><time>2026-04-04T11:52:11Z</time></trkpt><trkpt lat="14.515996820597644" lon="121.00296908155565"><ele>7.0</ele><time>2026-04-04T11:52:12Z</time></trkpt><trkpt lat="14.516058158257117" lon="121.00285840786721"><ele>6.5</ele><time>2026-04-04T11:52:13Z</time></trkpt><trkpt lat="14.516115767524179" lon="121.0027409896697"><ele>6.0</ele><time>2026-04-04T11:52:14Z</time></trkpt><trkpt lat="14.516177586830985" lon="121.00261865394641"><ele>6.25</ele><time>2026-04-04T11:52:15Z</time></trkpt><trkpt lat="14.516239073908286" lon="121.00249831499941"><ele>6.5</ele><time>2026-04-04T11:52:16Z</time></trkpt><trkpt lat="14.516292275204572" lon="121.00235740322104"><ele>6.75</ele><time>2026-04-04T11:52:17Z</time></trkpt><trkpt lat="14.516368226758628" lon="121.00222239280988"><ele>7.0</ele><time>2026-04-04T11:52:18Z</time></trkpt><trkpt lat="14.516444235086363" lon="121.00207890566824"><ele>7.0</ele><time>2026-04-04T11:52:19Z</time></trkpt><trkpt lat="14.516517957792072" lon="121.00193170669313"><ele>7.0</ele><time>2026-04-04T11:52:20Z</time></trkpt><trkpt lat="14.516594913935212" lon="121.00178311811932"><ele>7.0</ele><time>2026-04-04T11:52:21Z</time></trkpt><trkpt lat="14.516661928339515" lon="121.00163158098354"><ele>6.75</ele><time>2026-04-04T11:52:22Z</time></trkpt><trkpt lat="14.51672608249114" lon="121.00149286240686"><ele>6.5</ele><time>2026-04-04T11:52:23Z</time></trkpt><trkpt lat="14.516781882585592" lon="121.00135851176962"><ele>6.25</ele><time>2026-04-04T11:52:24Z</time></trkpt><trkpt lat="14.516826453719322" lon="121.0012209471945"><ele>6.0</ele><time>2026-04-04T11:52:25Z</time></trkpt><trkpt lat="14.516864714764077" lon="121.00110522984438"><ele>6.0</ele><time>2026-04-04T11:52:26Z</time></trkpt><trkpt lat="14.516896860852427" lon="121.00097371872496"><ele>6.0</ele><time>2026-04-04T11:52:27Z</time></trkpt><trkpt lat="14.516927930716925" lon="121.00084973756763"><ele>6.0</ele><time>2026-04-04T11:52:28Z</time></trkpt><trkpt lat="14.516952216649315" lon="121.00070980869621"><ele>6.0</ele><time>2026-04-04T11:52:29Z</time></trkpt><trkpt lat="14.516970407575187" lon="121.00057641639613"><ele>5.75</ele><time>2026-04-04T11:52:30Z</time></trkpt><trkpt lat="14.516977572797892" lon="121.0004466098034"><ele>5.5</ele><time>2026-04-04T11:52:31Z</time></trkpt><trkpt lat="14.516984236795771" lon="121.00032444640381"><ele>5.25</ele><time>2026-04-04T11:52:32Z</time></trkpt><trkpt lat="14.516985878361403" lon="121.00020916032567"><ele>5.0</ele><time>2026-04-04T11:52:33Z</time></trkpt><trkpt lat="14.516986842378705" lon="121.00009363285918"><ele>5.0</ele><time>2026-04-04T11:52:34Z</time></trkpt><trkpt lat="14.516985698273986" lon="120.99997971075089"><ele>5.0</ele><time>2026-04-04T11:52:35Z</time></trkpt><trkpt lat="14.516986957160842" lon="120.99986071794925"><ele>5.0</ele><time>2026-04-04T11:52:36Z</time></trkpt><trkpt lat="14.516993962349561" lon="120.99976558642726"><ele>5.0</ele><time>2026-04-04T11:52:37Z</time></trkpt><trkpt lat="14.516986131823858" lon="120.99963889588012"><ele>5.0</ele><time>2026-04-04T11:52:39Z</time></trkpt><trkpt lat="14.516988841902412" lon="120.99955234892845"><ele>5.0</ele><time>2026-04-04T11:52:40Z</time></trkpt><trkpt lat="14.517014450465041" lon="120.99946114598409"><ele>5.0</ele><time>2026-04-04T11:52:41Z</time></trkpt><trkpt lat="14.517001461564947" lon="120.99936555294809"><ele>5.0</ele><time>2026-04-04T11:52:42Z</time></trkpt><trkpt lat="14.517012575895825" lon="120.99924140414248"><ele>5.0</ele><time>2026-04-04T11:52:43Z</time></trkpt><trkpt lat="14.51701752870173" lon="120.99913770665493"><ele>5.0</ele><time>2026-04-04T11:52:44Z</time></trkpt><trkpt lat="14.517015095343679" lon="120.99904325863129"><ele>5.2</ele><time>2026-04-04T11:52:45Z</time></trkpt><trkpt lat="14.517020577181894" lon="120.99894408109142"><ele>5.4</ele><time>2026-04-04T11:52:46Z</time></trkpt><trkpt lat="14.517024155771983" lon="120.99883507654091"><ele>5.6</ele><time>2026-04-04T11:52:47Z</time></trkpt><trkpt lat="14.517025328620111" lon="120.9987226213228"><ele>5.8</ele><time>2026-04-04T11:52:48Z</time></trkpt><trkpt lat="14.517031713391926" lon="120.9986062641933"><ele>6.0</ele><time>2026-04-04T11:52:49Z</time></trkpt><trkpt lat="14.517036551438178" lon="120.99847867280901"><ele>6.0</ele><time>2026-04-04T11:52:50Z</time></trkpt><trkpt lat="14.517039250244704" lon="120.99836765084406"><ele>6.0</ele><time>2026-04-04T11:52:51Z</time></trkpt><trkpt lat="14.517038683581001" lon="120.99823251191924"><ele>6.0</ele><time>2026-04-04T11:52:52Z</time></trkpt><trkpt lat="14.517045632411348" lon="120.99809807050309"><ele>6.0</ele><time>2026-04-04T11:52:53Z</time></trkpt><trkpt lat="14.517044609887986" lon="120.99797079431235"><ele>5.8</ele><time>2026-04-04T11:52:54Z</time></trkpt><trkpt lat="14.517036395078259" lon="120.99785599897311"><ele>5.6</ele><time>2026-04-04T11:52:55Z</time></trkpt><trkpt lat="14.517041242835212" lon="120.9977517601086"><ele>5.4</ele><time>2026-04-04T11:52:56Z</time></trkpt><trkpt lat="14.517038079843228" lon="120.99765348324303"><ele>5.2</ele><time>2026-04-04T11:52:57Z</time></trkpt><trkpt lat="14.517046261656262" lon="120.9975535917453"><ele>5.0</ele><time>2026-04-04T11:52:58Z</time></trkpt><trkpt lat="14.517053444119766" lon="120.99746505019007"><ele>4.833333333333334</ele><time>2026-04-04T11:52:59Z</time></trkpt><trkpt lat="14.517045478248699" lon="120.99738741903536"><ele>4.666666666666667</ele><time>2026-04-04T11:53:00Z</time></trkpt><trkpt lat="14.517054304374431" lon="120.9973160083714"><ele>4.5</ele><time>2026-04-04T11:53:01Z</time></trkpt><trkpt lat="14.517054672415751" lon="120.99723766748278"><ele>4.333333333333333</ele><time>2026-04-04T11:53:02Z</time></trkpt><trkpt lat="14.517080773099485" lon="120.99711733025681"><ele>4.166666666666666</ele><time>2026-04-04T11:53:04Z</time></trkpt><trkpt lat="14.517115809600408" lon="120.99704521585878"><ele>4.0</ele><time>2026-04-04T11:53:06Z</time></trkpt><trkpt lat="14.517134161561133" lon="120.99697756391821"><ele>3.9999999999999996</ele><time>2026-04-04T11:53:10Z</time></trkpt><trkpt lat="14.517145374659203" lon="120.99690633357214"><ele>4.0</ele><time>2026-04-04T11:53:14Z</time></trkpt><trkpt lat="14.517222605122837" lon="120.99687301529816"><ele>4.0</ele><time>2026-04-04T11:53:16Z</time></trkpt><trkpt lat="14.517227593115999" lon="120.99680243333935"><ele>4.0</ele><time>2026-04-04T11:53:19Z</time></trkpt><trkpt lat="14.51721506124768" lon="120.99673052802103"><ele>3.9999999999999996</ele><time>2026-04-04T11:53:23Z</time></trkpt><trkpt lat="14.51719881350719" lon="120.99664125887978"><ele>4.0</ele><time>2026-04-04T11:54:24Z</time></trkpt><trkpt lat="14.517201683501568" lon="120.99654351013695"><ele>4.6</ele><time>2026-04-04T11:54:27Z</time></trkpt><trkpt lat="14.51721591324688" lon="120.99645414668966"><ele>5.2</ele><time>2026-04-04T11:54:29Z</time></trkpt><trkpt lat="14.517231121849262" lon="120.99638387168122"><ele>5.799999999999999</ele><time>2026-04-04T11:54:30Z</time></trkpt><trkpt lat="14.517246094845964" lon="120.99628705096424"><ele>6.3999999999999995</ele><time>2026-04-04T11:54:31Z</time></trkpt><trkpt lat="14.517264756099806" lon="120.99619141879033"><ele>7.0</ele><time>2026-04-04T11:54:32Z</time></trkpt><trkpt lat="14.51728782343107" lon="120.99607580702029"><ele>7.0</ele><time>2026-04-04T11:54:33Z</time></trkpt><trkpt lat="14.517275090742688" lon="120.9959455597143"><ele>7.0</ele><time>2026-04-04T11:54:34Z</time></trkpt><trkpt lat="14.517290771389904" lon="120.99581739686853"><ele>7.0</ele><time>2026-04-04T11:54:35Z</time></trkpt><trkpt lat="14.517298589506494" lon="120.9956953297003"><ele>7.0</ele><time>2026-04-04T11:54:36Z</time></trkpt><trkpt lat="14.517307748999523" lon="120.99556692797925"><ele>7.0</ele><time>2026-04-04T11:54:37Z</time></trkpt><trkpt lat="14.517330322144952" lon="120.9954485720278"><ele>6.999999999999999</ele><time>2026-04-04T11:54:38Z</time></trkpt><trkpt lat="14.51733729485319" lon="120.99533737597437"><ele>6.999999999999999</ele><time>2026-04-04T11:54:39Z</time></trkpt><trkpt lat="14.517356458130369" lon="120.99522078122291"><ele>7.0</ele><time>2026-04-04T11:54:40Z</time></trkpt><trkpt lat="14.517332113888093" lon="120.99513420982099"><ele>7.0</ele><time>2026-04-04T11:54:41Z</time></trkpt><trkpt lat="14.517315610629984" lon="120.99500097137026"><ele>7.199999999999999</ele><time>2026-04-04T11:54:42Z</time></trkpt><trkpt lat="14.517338053514523" lon="120.99490370496818"><ele>7.3999999999999995</ele><time>2026-04-04T11:54:43Z</time></trkpt><trkpt lat="14.517355154555709" lon="120.99476723361252"><ele>7.6000000000000005</ele><time>2026-04-04T11:54:44Z</time></trkpt><trkpt lat="14.517370792196253" lon="120.99464244064444"><ele>7.800000000000001</ele><time>2026-04-04T11:54:45Z</time></trkpt><trkpt lat="14.517417455104122" lon="120.99457766168256"><ele>8.0</ele><time>2026-04-04T11:54:46Z</time></trkpt><trkpt lat="14.517428986195142" lon="120.99448761140964"><ele>7.999999999999999</ele><time>2026-04-04T11:54:47Z</time></trkpt><trkpt lat="14.517459641928582" lon="120.99437886189601"><ele>8.0</ele><time>2026-04-04T11:54:49Z</time></trkpt><trkpt lat="14.51746740197593" lon="120.99430643721078"><ele>8.0</ele><time>2026-04-04T11:54:50Z</time></trkpt><trkpt lat="14.51746029896531" lon="120.99421986100457"><ele>8.0</ele><time>2026-04-04T11:54:51Z</time></trkpt><trkpt lat="14.51746567106864" lon="120.99414512103823"><ele>7.999999999999999</ele><time>2026-04-04T11:54:52Z</time></trkpt><trkpt lat="14.517474282386472" lon="120.99406129265938"><ele>8.0</ele><time>2026-04-04T11:54:53Z</time></trkpt><trkpt lat="14.517486070182764" lon="120.99398678177295"><ele>8.200000000000001</ele><time>2026-04-04T11:54:54Z</time></trkpt><trkpt lat="14.517500059325743" lon="120.99386701961613"><ele>8.4</ele><time>2026-04-04T11:54:56Z</time></trkpt><trkpt lat="14.51752228215374" lon="120.99374895571034"><ele>8.600000000000001</ele><time>2026-04-04T11:54:58Z</time></trkpt><trkpt lat="14.51756015562939" lon="120.99366427017947"><ele>8.8</ele><time>2026-04-04T11:55:00Z</time></trkpt><trkpt lat="14.517633566655938" lon="120.99359601034301"><ele>9.0</ele><time>2026-04-04T11:55:02Z</time></trkpt><trkpt lat="14.517722475102111" lon="120.9935797193011"><ele>9.0</ele><time>2026-04-04T11:55:03Z</time></trkpt><trkpt lat="14.517812801784283" lon="120.99356917149558"><ele>9.0</ele><time>2026-04-04T11:55:04Z</time></trkpt><trkpt lat="14.517899130646734" lon="120.99351482000831"><ele>9.0</ele><time>2026-04-04T11:55:05Z</time></trkpt><trkpt lat="14.517995254134552" lon="120.99349379146706"><ele>9.0</ele><time>2026-04-04T11:55:06Z</time></trkpt><trkpt lat="14.51811962459228" lon="120.99353141770585"><ele>9.0</ele><time>2026-04-04T11:55:07Z</time></trkpt><trkpt lat="14.518240286056301" lon="120.99354863217722"><ele>12.0</ele><time>2026-04-04T11:55:08Z</time></trkpt><trkpt lat="14.518374522479286" lon="120.99356770113498"><ele>15.0</ele><time>2026-04-04T11:55:09Z</time></trkpt><trkpt lat="14.518518274762387" lon="120.99358809584709"><ele>18.0</ele><time>2026-04-04T11:55:10Z</time></trkpt><trkpt lat="14.51866477800287" lon="120.99361875314912"><ele>21.0</ele><time>2026-04-04T11:55:11Z</time></trkpt><trkpt lat="14.518825694821034" lon="120.99362776840366"><ele>23.0</ele><time>2026-04-04T11:55:12Z</time></trkpt><trkpt lat="14.518986723916266" lon="120.99364641558718"><ele>25.0</ele><time>2026-04-04T11:55:13Z</time></trkpt><trkpt lat="14.519154133743921" lon="120.9936534222043"><ele>27.0</ele><time>2026-04-04T11:55:14Z</time></trkpt><trkpt lat="14.519319294043544" lon="120.99366388270263"><ele>27.0</ele><time>2026-04-04T11:55:15Z</time></trkpt><trkpt lat="14.519503273638673" lon="120.99366867010659"><ele>27.0</ele><time>2026-04-04T11:55:16Z</time></trkpt><trkpt lat="14.519677531087632" lon="120.99367683254435"><ele>27.0</ele><time>2026-04-04T11:55:17Z</time></trkpt><trkpt lat="14.519866927879812" lon="120.99367827397789"><ele>20.666666666666668</ele><time>2026-04-04T11:55:18Z</time></trkpt><trkpt lat="14.52005699151102" lon="120.99368229091203"><ele>14.333333333333332</ele><time>2026-04-04T11:55:19Z</time></trkpt><trkpt lat="14.520241613171155" lon="120.99369292766325"><ele>8.0</ele><time>2026-04-04T11:55:20Z</time></trkpt><trkpt lat="14.520440982936197" lon="120.99369199819695"><ele>7.0</ele><time>2026-04-04T11:55:21Z</time></trkpt><trkpt lat="14.520632713478694" lon="120.99369834909805"><ele>6.0</ele><time>2026-04-04T11:55:22Z</time></trkpt><trkpt lat="14.520829435675317" lon="120.9937074685533"><ele>5.0</ele><time>2026-04-04T11:55:23Z</time></trkpt><trkpt lat="14.52103063362132" lon="120.99371340668927"><ele>5.0</ele><time>2026-04-04T11:55:24Z</time></trkpt><trkpt lat="14.521228012562764" lon="120.99371973852205"><ele>5.0</ele><time>2026-04-04T11:55:25Z</time></trkpt><trkpt lat="14.521430652880907" lon="120.99372642393533"><ele>5.0</ele><time>2026-04-04T11:55:26Z</time></trkpt><trkpt lat="14.521633518290164" lon="120.99373068104634"><ele>5.0</ele><time>2026-04-04T11:55:27Z</time></trkpt><trkpt lat="14.52183967283149" lon="120.9937385864762"><ele>5.0</ele><time>2026-04-04T11:55:28Z</time></trkpt><trkpt lat="14.522044038805637" lon="120.99374866513611"><ele>5.0</ele><time>2026-04-04T11:55:29Z</time></trkpt><trkpt lat="14.522246355712893" lon="120.99375032188058"><ele>5.0</ele><time>2026-04-04T11:55:30Z</time></trkpt><trkpt lat="14.52244724898577" lon="120.99375613720643"><ele>5.0</ele><time>2026-04-04T11:55:31Z</time></trkpt><trkpt lat="14.522656103000282" lon="120.99375494613163"><ele>5.0</ele><time>2026-04-04T11:55:32Z</time></trkpt><trkpt lat="14.522859036070383" lon="120.99375716106601"><ele>6.0</ele><time>2026-04-04T11:55:33Z</time></trkpt><trkpt lat="14.523058720381808" lon="120.99375894065292"><ele>7.0</ele><time>2026-04-04T11:55:34Z</time></trkpt><trkpt lat="14.52325452540142" lon="120.99376127217062"><ele>8.0</ele><time>2026-04-04T11:55:35Z</time></trkpt><trkpt lat="14.523439188770176" lon="120.99376965317143"><ele>8.0</ele><time>2026-04-04T11:55:36Z</time></trkpt><trkpt lat="14.5236154430156" lon="120.99377222941192"><ele>8.0</ele><time>2026-04-04T11:55:37Z</time></trkpt><trkpt lat="14.523786758251822" lon="120.9937703771987"><ele>8.0</ele><time>2026-04-04T11:55:38Z</time></trkpt><trkpt lat="14.52395591249983" lon="120.99377993598608"><ele>8.0</ele><time>2026-04-04T11:55:39Z</time></trkpt><trkpt lat="14.524138013959758" lon="120.99377755278483"><ele>8.0</ele><time>2026-04-04T11:55:40Z</time></trkpt><trkpt lat="14.524310473081254" lon="120.99378328931165"><ele>8.0</ele><time>2026-04-04T11:55:41Z</time></trkpt><trkpt lat="14.524483894630247" lon="120.99378917410283"><ele>8.333333333333332</ele><time>2026-04-04T11:55:42Z</time></trkpt><trkpt lat="14.52465129730218" lon="120.99379133484298"><ele>8.666666666666666</ele><time>2026-04-04T11:55:43Z</time></trkpt><trkpt lat="14.524817814884354" lon="120.99379973614148"><ele>9.0</ele><time>2026-04-04T11:55:44Z</time></trkpt><trkpt lat="14.524973003493901" lon="120.9938061373895"><ele>9.0</ele><time>2026-04-04T11:55:45Z</time></trkpt><trkpt lat="14.525122268744163" lon="120.99381292722109"><ele>9.0</ele><time>2026-04-04T11:55:46Z</time></trkpt><trkpt lat="14.525262576128725" lon="120.99381365696847"><ele>9.0</ele><time>2026-04-04T11:55:47Z</time></trkpt><trkpt lat="14.525407203175101" lon="120.9938146680312"><ele>9.0</ele><time>2026-04-04T11:55:48Z</time></trkpt><trkpt lat="14.525557096309461" lon="120.99381650660372"><ele>11.0</ele><time>2026-04-04T11:55:49Z</time></trkpt><trkpt lat="14.525711178602016" lon="120.99381947817143"><ele>13.0</ele><time>2026-04-04T11:55:50Z</time></trkpt><trkpt lat="14.525864230850527" lon="120.99382480614341"><ele>15.0</ele><time>2026-04-04T11:55:51Z</time></trkpt><trkpt lat="14.526019496201217" lon="120.99382534064205"><ele>15.0</ele><time>2026-04-04T11:55:52Z</time></trkpt><trkpt lat="14.526162912162995" lon="120.99382958009012"><ele>15.0</ele><time>2026-04-04T11:55:53Z</time></trkpt><trkpt lat="14.526318782293165" lon="120.9938208458772"><ele>15.0</ele><time>2026-04-04T11:55:54Z</time></trkpt><trkpt lat="14.526486085624143" lon="120.99381256310315"><ele>12.333333333333334</ele><time>2026-04-04T11:55:55Z</time></trkpt><trkpt lat="14.52664530277331" lon="120.99379720895026"><ele>9.666666666666668</ele><time>2026-04-04T11:55:56Z</time></trkpt><trkpt lat="14.52680173462057" lon="120.99378527402548"><ele>7.0</ele><time>2026-04-04T11:55:57Z</time></trkpt><trkpt lat="14.526944888596413" lon="120.99377641803244"><ele>7.75</ele><time>2026-04-04T11:55:58Z</time></trkpt><trkpt lat="14.52709086323743" lon="120.99375900195338"><ele>8.5</ele><time>2026-04-04T11:55:59Z</time></trkpt><trkpt lat="14.52723484053516" lon="120.99374490671144"><ele>9.25</ele><time>2026-04-04T11:56:00Z</time></trkpt><trkpt lat="14.527385593422707" lon="120.99372427867814"><ele>10.0</ele><time>2026-04-04T11:56:01Z</time></trkpt><trkpt lat="14.527524201472964" lon="120.99370545506275"><ele>10.0</ele><time>2026-04-04T11:56:02Z</time></trkpt><trkpt lat="14.527658084996641" lon="120.9936899375843"><ele>10.0</ele><time>2026-04-04T11:56:03Z</time></trkpt><trkpt lat="14.527798927121887" lon="120.99368460535904"><ele>10.0</ele><time>2026-04-04T11:56:04Z</time></trkpt><trkpt lat="14.527939802493423" lon="120.99366970239943"><ele>10.0</ele><time>2026-04-04T11:56:05Z</time></trkpt><trkpt lat="14.52809007287822" lon="120.99365619262666"><ele>9.75</ele><time>2026-04-04T11:56:06Z</time></trkpt><trkpt lat="14.528239910802355" lon="120.99363690573249"><ele>9.5</ele><time>2026-04-04T11:56:07Z</time></trkpt><trkpt lat="14.52838211099101" lon="120.9936125272935"><ele>9.25</ele><time>2026-04-04T11:56:08Z</time></trkpt><trkpt lat="14.528515660271669" lon="120.99359296355786"><ele>9.0</ele><time>2026-04-04T11:56:09Z</time></trkpt><trkpt lat="14.528653097299696" lon="120.99357414712073"><ele>8.5</ele><time>2026-04-04T11:56:10Z</time></trkpt><trkpt lat="14.528777506402623" lon="120.9935599664629"><ele>8.0</ele><time>2026-04-04T11:56:11Z</time></trkpt><trkpt lat="14.528901475820073" lon="120.9935438184676"><ele>7.5</ele><time>2026-04-04T11:56:12Z</time></trkpt><trkpt lat="14.52901083631128" lon="120.99353575280215"><ele>7.0</ele><time>2026-04-04T11:56:13Z</time></trkpt><trkpt lat="14.529109819096584" lon="120.99352158878712"><ele>7.0</ele><time>2026-04-04T11:56:14Z</time></trkpt><trkpt lat="14.529215332860966" lon="120.99351015691283"><ele>7.0</ele><time>2026-04-04T11:56:15Z</time></trkpt><trkpt lat="14.529330027859334" lon="120.9934973450017"><ele>7.0</ele><time>2026-04-04T11:56:16Z</time></trkpt><trkpt lat="14.529452458809951" lon="120.9934851172814"><ele>7.0</ele><time>2026-04-04T11:56:17Z</time></trkpt><trkpt lat="14.529576989537315" lon="120.99347503110438"><ele>7.75</ele><time>2026-04-04T11:56:18Z</time></trkpt><trkpt lat="14.529708573887604" lon="120.99346016056971"><ele>8.5</ele><time>2026-04-04T11:56:19Z</time></trkpt><trkpt lat="14.529840509757218" lon="120.99343969550806"><ele>9.25</ele><time>2026-04-04T11:56:20Z</time></trkpt><trkpt lat="14.529973226800562" lon="120.99342455477527"><ele>10.0</ele><time>2026-04-04T11:56:21Z</time></trkpt><trkpt lat="14.530103362734005" lon="120.9934122322033"><ele>10.0</ele><time>2026-04-04T11:56:22Z</time></trkpt><trkpt lat="14.53022961025414" lon="120.99339411616494"><ele>10.0</ele><time>2026-04-04T11:56:23Z</time></trkpt><trkpt lat="14.53036648699716" lon="120.9933838960863"><ele>10.0</ele><time>2026-04-04T11:56:24Z</time></trkpt><trkpt lat="14.530498995770893" lon="120.99336720033355"><ele>10.0</ele><time>2026-04-04T11:56:25Z</time></trkpt><trkpt lat="14.530631741666888" lon="120.99335341625331"><ele>8.25</ele><time>2026-04-04T11:56:26Z</time></trkpt><trkpt lat="14.53075480995255" lon="120.99333520329371"><ele>6.5</ele><time>2026-04-04T11:56:27Z</time></trkpt><trkpt lat="14.53087164148958" lon="120.99332309781528"><ele>4.75</ele><time>2026-04-04T11:56:28Z</time></trkpt><trkpt lat="14.530983023045067" lon="120.99330672906994"><ele>3.0</ele><time>2026-04-04T11:56:29Z</time></trkpt><trkpt lat="14.531096317884305" lon="120.99329662991347"><ele>3.0</ele><time>2026-04-04T11:56:30Z</time></trkpt><trkpt lat="14.531194053907353" lon="120.993284946774"><ele>3.0</ele><time>2026-04-04T11:56:31Z</time></trkpt><trkpt lat="14.531288735857778" lon="120.993269649073"><ele>3.0</ele><time>2026-04-04T11:56:32Z</time></trkpt><trkpt lat="14.531387413663587" lon="120.99325641055152"><ele>3.0</ele><time>2026-04-04T11:56:33Z</time></trkpt><trkpt lat="14.531481562723187" lon="120.993243564467"><ele>3.0</ele><time>2026-04-04T11:56:34Z</time></trkpt><trkpt lat="14.531579605179704" lon="120.99323329042936"><ele>3.5999999999999996</ele><time>2026-04-04T11:56:35Z</time></trkpt><trkpt lat="14.531669103543077" lon="120.99322267057563"><ele>4.199999999999999</ele><time>2026-04-04T11:56:36Z</time></trkpt><trkpt lat="14.53176603028494" lon="120.99321292362335"><ele>4.8</ele><time>2026-04-04T11:56:37Z</time></trkpt><trkpt lat="14.531852005280424" lon="120.99319465556867"><ele>5.3999999999999995</ele><time>2026-04-04T11:56:38Z</time></trkpt><trkpt lat="14.53195085921966" lon="120.99317612013476"><ele>6.0</ele><time>2026-04-04T11:56:39Z</time></trkpt><trkpt lat="14.53205645490665" lon="120.99317101942817"><ele>6.5</ele><time>2026-04-04T11:56:40Z</time></trkpt><trkpt lat="14.532165869633417" lon="120.99315633818904"><ele>7.0</ele><time>2026-04-04T11:56:41Z</time></trkpt><trkpt lat="14.53228734735575" lon="120.99314086740961"><ele>7.5</ele><time>2026-04-04T11:56:42Z</time></trkpt><trkpt lat="14.532417095369729" lon="120.99312650579249"><ele>8.0</ele><time>2026-04-04T11:56:43Z</time></trkpt><trkpt lat="14.53255838038969" lon="120.9931101594618"><ele>8.0</ele><time>2026-04-04T11:56:44Z</time></trkpt><trkpt lat="14.532696727555606" lon="120.99308563894101"><ele>8.0</ele><time>2026-04-04T11:56:45Z</time></trkpt><trkpt lat="14.53282980412001" lon="120.9930641089294"><ele>8.0</ele><time>2026-04-04T11:56:46Z</time></trkpt><trkpt lat="14.532961090641228" lon="120.99304416287654"><ele>8.0</ele><time>2026-04-04T11:56:47Z</time></trkpt><trkpt lat="14.533098098480746" lon="120.99301869108481"><ele>9.666666666666666</ele><time>2026-04-04T11:56:48Z</time></trkpt><trkpt lat="14.533242793173416" lon="120.99300310070598"><ele>11.333333333333332</ele><time>2026-04-04T11:56:49Z</time></trkpt><trkpt lat="14.533393677134693" lon="120.99298470297077"><ele>13.0</ele><time>2026-04-04T11:56:50Z</time></trkpt><trkpt lat="14.533547998664051" lon="120.9929637994987"><ele>13.0</ele><time>2026-04-04T11:56:51Z</time></trkpt><trkpt lat="14.533706613248706" lon="120.99293837717099"><ele>13.0</ele><time>2026-04-04T11:56:52Z</time></trkpt><trkpt lat="14.533864392439156" lon="120.99292041244253"><ele>13.0</ele><time>2026-04-04T11:56:53Z</time></trkpt><trkpt lat="14.534017880141114" lon="120.99290043444003"><ele>12.0</ele><time>2026-04-04T11:56:54Z</time></trkpt><trkpt lat="14.534165104646231" lon="120.99288645346272"><ele>11.0</ele><time>2026-04-04T11:56:55Z</time></trkpt><trkpt lat="14.534308099878292" lon="120.99286645223863"><ele>10.0</ele><time>2026-04-04T11:56:56Z</time></trkpt><trkpt lat="14.534448953590976" lon="120.99284835928228"><ele>9.0</ele><time>2026-04-04T11:56:57Z</time></trkpt><trkpt lat="14.5345891032749" lon="120.99282983620083"><ele>9.0</ele><time>2026-04-04T11:56:58Z</time></trkpt><trkpt lat="14.534721789529415" lon="120.9928195634235"><ele>9.0</ele><time>2026-04-04T11:56:59Z</time></trkpt><trkpt lat="14.534852491555059" lon="120.99280278579627"><ele>9.0</ele><time>2026-04-04T11:57:00Z</time></trkpt><trkpt lat="14.534977244972998" lon="120.99278985322137"><ele>9.0</ele><time>2026-04-04T11:57:01Z</time></trkpt><trkpt lat="14.53509175232926" lon="120.99277873922833"><ele>9.0</ele><time>2026-04-04T11:57:02Z</time></trkpt><trkpt lat="14.535196829182311" lon="120.99275800981606"><ele>9.0</ele><time>2026-04-04T11:57:03Z</time></trkpt><trkpt lat="14.535302560857556" lon="120.9927478456039"><ele>9.0</ele><time>2026-04-04T11:57:04Z</time></trkpt><trkpt lat="14.535409542728601" lon="120.99273721741639"><ele>9.0</ele><time>2026-04-04T11:57:05Z</time></trkpt><trkpt lat="14.535523710068581" lon="120.99272418266997"><ele>9.0</ele><time>2026-04-04T11:57:06Z</time></trkpt><trkpt lat="14.535631139725266" lon="120.99271340836192"><ele>9.0</ele><time>2026-04-04T11:57:07Z</time></trkpt><trkpt lat="14.535743346062254" lon="120.99270062171581"><ele>9.0</ele><time>2026-04-04T11:57:08Z</time></trkpt><trkpt lat="14.535850540411579" lon="120.99268835701385"><ele>9.0</ele><time>2026-04-04T11:57:09Z</time></trkpt><trkpt lat="14.53596269821008" lon="120.99266136734173"><ele>9.0</ele><time>2026-04-04T11:57:10Z</time></trkpt><trkpt lat="14.536077743826393" lon="120.99264685339965"><ele>9.0</ele><time>2026-04-04T11:57:11Z</time></trkpt><trkpt lat="14.536179768501936" lon="120.99263560742416"><ele>9.0</ele><time>2026-04-04T11:57:12Z</time></trkpt><trkpt lat="14.536281363726408" lon="120.99262774751914"><ele>9.0</ele><time>2026-04-04T11:57:13Z</time></trkpt><trkpt lat="14.536386292132704" lon="120.99261613933355"><ele>9.0</ele><time>2026-04-04T11:57:14Z</time></trkpt><trkpt lat="14.536494090518854" lon="120.99260380387712"><ele>9.0</ele><time>2026-04-04T11:57:15Z</time></trkpt><trkpt lat="14.536596450265588" lon="120.99259526861555"><ele>8.4</ele><time>2026-04-04T11:57:16Z</time></trkpt><trkpt lat="14.536697785344481" lon="120.99258832976493"><ele>7.800000000000001</ele><time>2026-04-04T11:57:17Z</time></trkpt><trkpt lat="14.53679651006279" lon="120.99258118661547"><ele>7.199999999999999</ele><time>2026-04-04T11:57:18Z</time></trkpt><trkpt lat="14.536894889617054" lon="120.99257437512368"><ele>6.6</ele><time>2026-04-04T11:57:19Z</time></trkpt><trkpt lat="14.536984128217316" lon="120.99256138986703"><ele>6.0</ele><time>2026-04-04T11:57:20Z</time></trkpt><trkpt lat="14.537071903541523" lon="120.99254647751061"><ele>6.0</ele><time>2026-04-04T11:57:21Z</time></trkpt><trkpt lat="14.53716605542917" lon="120.99253839588691"><ele>6.0</ele><time>2026-04-04T11:57:22Z</time></trkpt><trkpt lat="14.537256781238566" lon="120.99252055232924"><ele>6.0</ele><time>2026-04-04T11:57:23Z</time></trkpt><trkpt lat="14.537345101319897" lon="120.99250391963744"><ele>6.0</ele><time>2026-04-04T11:57:24Z</time></trkpt><trkpt lat="14.537446139988226" lon="120.99250050900477"><ele>6.0</ele><time>2026-04-04T11:57:25Z</time></trkpt><trkpt lat="14.53754001604041" lon="120.9924879811059"><ele>5.8</ele><time>2026-04-04T11:57:26Z</time></trkpt><trkpt lat="14.537633210351625" lon="120.99247647950291"><ele>5.6</ele><time>2026-04-04T11:57:27Z</time></trkpt><trkpt lat="14.53772124487715" lon="120.99246451843455"><ele>5.4</ele><time>2026-04-04T11:57:28Z</time></trkpt><trkpt lat="14.537816093516575" lon="120.99245164288425"><ele>5.2</ele><time>2026-04-04T11:57:29Z</time></trkpt><trkpt lat="14.53791907356536" lon="120.99244242598171"><ele>5.0</ele><time>2026-04-04T11:57:30Z</time></trkpt><trkpt lat="14.53802536946351" lon="120.99243150100047"><ele>5.8</ele><time>2026-04-04T11:57:31Z</time></trkpt><trkpt lat="14.538134667007077" lon="120.99241690203266"><ele>6.6</ele><time>2026-04-04T11:57:32Z</time></trkpt><trkpt lat="14.538243988169825" lon="120.99240379218253"><ele>7.4</ele><time>2026-04-04T11:57:33Z</time></trkpt><trkpt lat="14.538347119731176" lon="120.99238521722584"><ele>8.2</ele><time>2026-04-04T11:57:34Z</time></trkpt><trkpt lat="14.53845813511194" lon="120.99237389727259"><ele>9.0</ele><time>2026-04-04T11:57:35Z</time></trkpt><trkpt lat="14.538577115587282" lon="120.99236353032124"><ele>9.0</ele><time>2026-04-04T11:57:36Z</time></trkpt><trkpt lat="14.538695677627373" lon="120.99235241948548"><ele>9.0</ele><time>2026-04-04T11:57:37Z</time></trkpt><trkpt lat="14.538799119243974" lon="120.99233770816906"><ele>9.0</ele><time>2026-04-04T11:57:38Z</time></trkpt><trkpt lat="14.538888136696832" lon="120.99232304809455"><ele>9.0</ele><time>2026-04-04T11:57:39Z</time></trkpt><trkpt lat="14.53900220858546" lon="120.99231746837394"><ele>9.0</ele><time>2026-04-04T11:57:40Z</time></trkpt><trkpt lat="14.539134987494181" lon="120.99230594436557"><ele>9.0</ele><time>2026-04-04T11:57:41Z</time></trkpt><trkpt lat="14.539261893844142" lon="120.99229620173568"><ele>9.0</ele><time>2026-04-04T11:57:42Z</time></trkpt><trkpt lat="14.53937736189071" lon="120.992279121214"><ele>9.0</ele><time>2026-04-04T11:57:43Z</time></trkpt><trkpt lat="14.53950744797965" lon="120.9922688154734"><ele>9.0</ele><time>2026-04-04T11:57:44Z</time></trkpt><trkpt lat="14.539631721552524" lon="120.99225790677126"><ele>9.0</ele><time>2026-04-04T11:57:45Z</time></trkpt><trkpt lat="14.539747011676784" lon="120.9922421048056"><ele>9.0</ele><time>2026-04-04T11:57:46Z</time></trkpt><trkpt lat="14.539846981388006" lon="120.99221595493738"><ele>9.0</ele><time>2026-04-04T11:57:47Z</time></trkpt><trkpt lat="14.539990606529908" lon="120.9921970588587"><ele>9.0</ele><time>2026-04-04T11:57:48Z</time></trkpt><trkpt lat="14.540133332126967" lon="120.9921938804537"><ele>9.0</ele><time>2026-04-04T11:57:49Z</time></trkpt><trkpt lat="14.540272972396055" lon="120.99218553998966"><ele>9.0</ele><time>2026-04-04T11:57:50Z</time></trkpt><trkpt lat="14.540398568004619" lon="120.99216065546784"><ele>9.0</ele><time>2026-04-04T11:57:51Z</time></trkpt><trkpt lat="14.540543429878852" lon="120.99214761768621"><ele>9.0</ele><time>2026-04-04T11:57:52Z</time></trkpt><trkpt lat="14.540693482132582" lon="120.9921365211317"><ele>12.666666666666668</ele><time>2026-04-04T11:57:53Z</time></trkpt><trkpt lat="14.540849857215646" lon="120.99211774622897"><ele>16.333333333333336</ele><time>2026-04-04T11:57:54Z</time></trkpt><trkpt lat="14.5410194478284" lon="120.99207578456105"><ele>20.0</ele><time>2026-04-04T11:57:55Z</time></trkpt><trkpt lat="14.54120568376513" lon="120.99202938740942"><ele>15.666666666666668</ele><time>2026-04-04T11:57:56Z</time></trkpt><trkpt lat="14.541359916633894" lon="120.99200743254539"><ele>11.333333333333334</ele><time>2026-04-04T11:57:57Z</time></trkpt><trkpt lat="14.541525644622451" lon="120.99197739514993"><ele>7.0</ele><time>2026-04-04T11:57:58Z</time></trkpt><trkpt lat="14.541687957522154" lon="120.99194645655078"><ele>7.0</ele><time>2026-04-04T11:57:59Z</time></trkpt><trkpt lat="14.541849385205579" lon="120.99192108007321"><ele>7.0</ele><time>2026-04-04T11:58:00Z</time></trkpt><trkpt lat="14.542008282631064" lon="120.991894444558"><ele>7.0</ele><time>2026-04-04T11:58:01Z</time></trkpt><trkpt lat="14.542169456720591" lon="120.99187079251801"><ele>7.333333333333334</ele><time>2026-04-04T11:58:02Z</time></trkpt><trkpt lat="14.542338720501567" lon="120.99185456108373"><ele>7.666666666666666</ele><time>2026-04-04T11:58:03Z</time></trkpt><trkpt lat="14.542514196907062" lon="120.99183251178565"><ele>8.0</ele><time>2026-04-04T11:58:04Z</time></trkpt><trkpt lat="14.54269016700405" lon="120.99180084570003"><ele>8.0</ele><time>2026-04-04T11:58:05Z</time></trkpt><trkpt lat="14.542868608036514" lon="120.99176989181878"><ele>8.0</ele><time>2026-04-04T11:58:06Z</time></trkpt><trkpt lat="14.543051386349234" lon="120.99175168074675"><ele>8.0</ele><time>2026-04-04T11:58:07Z</time></trkpt><trkpt lat="14.543223668103876" lon="120.99171457200214"><ele>8.0</ele><time>2026-04-04T11:58:08Z</time></trkpt><trkpt lat="14.543398209120749" lon="120.9916821618582"><ele>8.0</ele><time>2026-04-04T11:58:09Z</time></trkpt><trkpt lat="14.543578782234281" lon="120.9916579394233"><ele>8.0</ele><time>2026-04-04T11:58:10Z</time></trkpt><trkpt lat="14.54375874022315" lon="120.99163344950489"><ele>8.0</ele><time>2026-04-04T11:58:11Z</time></trkpt><trkpt lat="14.543943060602723" lon="120.99160988905061"><ele>8.0</ele><time>2026-04-04T11:58:12Z</time></trkpt><trkpt lat="14.544127670856756" lon="120.99158170250723"><ele>8.0</ele><time>2026-04-04T11:58:13Z</time></trkpt><trkpt lat="14.544309018674854" lon="120.99154782462197"><ele>8.0</ele><time>2026-04-04T11:58:14Z</time></trkpt><trkpt lat="14.544494136936732" lon="120.99150874010367"><ele>8.0</ele><time>2026-04-04T11:58:15Z</time></trkpt><trkpt lat="14.544679153464548" lon="120.99147805071865"><ele>8.0</ele><time>2026-04-04T11:58:16Z</time></trkpt><trkpt lat="14.54484226540773" lon="120.99143924814148"><ele>9.0</ele><time>2026-04-04T11:58:17Z</time></trkpt><trkpt lat="14.545014303388617" lon="120.99140952522363"><ele>10.0</ele><time>2026-04-04T11:58:18Z</time></trkpt><trkpt lat="14.545185299236353" lon="120.99136891062417"><ele>11.0</ele><time>2026-04-04T11:58:19Z</time></trkpt><trkpt lat="14.545345404299095" lon="120.99132507854968"><ele>9.666666666666666</ele><time>2026-04-04T11:58:20Z</time></trkpt><trkpt lat="14.545512603086317" lon="120.99128406919836"><ele>8.333333333333334</ele><time>2026-04-04T11:58:21Z</time></trkpt><trkpt lat="14.545683528196216" lon="120.99124466993992"><ele>7.0</ele><time>2026-04-04T11:58:22Z</time></trkpt><trkpt lat="14.545855853712817" lon="120.99120049469421"><ele>7.0</ele><time>2026-04-04T11:58:23Z</time></trkpt><trkpt lat="14.546024680825647" lon="120.99115653799304"><ele>7.0</ele><time>2026-04-04T11:58:24Z</time></trkpt><trkpt lat="14.546188262046936" lon="120.99110745000135"><ele>7.0</ele><time>2026-04-04T11:58:25Z</time></trkpt><trkpt lat="14.546361971401282" lon="120.991068224051"><ele>8.666666666666668</ele><time>2026-04-04T11:58:26Z</time></trkpt><trkpt lat="14.546526951432615" lon="120.99102131964732"><ele>10.333333333333334</ele><time>2026-04-04T11:58:27Z</time></trkpt><trkpt lat="14.546699139867547" lon="120.99098241949659"><ele>12.0</ele><time>2026-04-04T11:58:28Z</time></trkpt><trkpt lat="14.546873281029496" lon="120.99094793514787"><ele>11.0</ele><time>2026-04-04T11:58:29Z</time></trkpt><trkpt lat="14.547058669906477" lon="120.99092326850376"><ele>10.0</ele><time>2026-04-04T11:58:30Z</time></trkpt><trkpt lat="14.547239112415653" lon="120.99087853537497"><ele>9.0</ele><time>2026-04-04T11:58:31Z</time></trkpt><trkpt lat="14.547422556798152" lon="120.99084437430969"><ele>8.666666666666666</ele><time>2026-04-04T11:58:32Z</time></trkpt><trkpt lat="14.547609482634215" lon="120.99078384067612"><ele>8.333333333333332</ele><time>2026-04-04T11:58:33Z</time></trkpt><trkpt lat="14.547791846024172" lon="120.99074373069469"><ele>8.0</ele><time>2026-04-04T11:58:34Z</time></trkpt><trkpt lat="14.547986691077476" lon="120.9906994532304"><ele>10.333333333333332</ele><time>2026-04-04T11:58:35Z</time></trkpt><trkpt lat="14.54818168998322" lon="120.99064842731889"><ele>12.666666666666666</ele><time>2026-04-04T11:58:36Z</time></trkpt><trkpt lat="14.548372480578118" lon="120.99059955954766"><ele>15.0</ele><time>2026-04-04T11:58:37Z</time></trkpt><trkpt lat="14.548562124742713" lon="120.99054346886075"><ele>12.666666666666666</ele><time>2026-04-04T11:58:38Z</time></trkpt><trkpt lat="14.548756614871548" lon="120.99049598118351"><ele>10.333333333333332</ele><time>2026-04-04T11:58:39Z</time></trkpt><trkpt lat="14.548952646826498" lon="120.99044972460567"><ele>8.0</ele><time>2026-04-04T11:58:40Z</time></trkpt><trkpt lat="14.54914700597443" lon="120.99040107457257"><ele>8.0</ele><time>2026-04-04T11:58:41Z</time></trkpt><trkpt lat="14.549343311204709" lon="120.99035480015901"><ele>8.0</ele><time>2026-04-04T11:58:42Z</time></trkpt><trkpt lat="14.549539214766568" lon="120.99030934776825"><ele>8.0</ele><time>2026-04-04T11:58:43Z</time></trkpt><trkpt lat="14.549732244109856" lon="120.99026581304187"><ele>8.333333333333332</ele><time>2026-04-04T11:58:44Z</time></trkpt><trkpt lat="14.549920998494732" lon="120.9902278066857"><ele>8.666666666666666</ele><time>2026-04-04T11:58:45Z</time></trkpt><trkpt lat="14.550091907218142" lon="120.99018654718222"><ele>9.0</ele><time>2026-04-04T11:58:46Z</time></trkpt><trkpt lat="14.55025820878907" lon="120.990152629361"><ele>9.0</ele><time>2026-04-04T11:58:47Z</time></trkpt><trkpt lat="14.550419948284784" lon="120.99012148528759"><ele>9.0</ele><time>2026-04-04T11:58:48Z</time></trkpt><trkpt lat="14.550572572307846" lon="120.99008307620403"><ele>9.0</ele><time>2026-04-04T11:58:49Z</time></trkpt><trkpt lat="14.550724651527892" lon="120.99006064384997"><ele>9.0</ele><time>2026-04-04T11:58:50Z</time></trkpt><trkpt lat="14.550866610765649" lon="120.99002757300264"><ele>9.0</ele><time>2026-04-04T11:58:51Z</time></trkpt><trkpt lat="14.551004614740403" lon="120.98999809302616"><ele>9.0</ele><time>2026-04-04T11:58:52Z</time></trkpt><trkpt lat="14.551146427362962" lon="120.98997213214851"><ele>9.0</ele><time>2026-04-04T11:58:53Z</time></trkpt><trkpt lat="14.55128045013176" lon="120.98993815081991"><ele>9.0</ele><time>2026-04-04T11:58:54Z</time></trkpt><trkpt lat="14.55141331915251" lon="120.98990608991312"><ele>9.0</ele><time>2026-04-04T11:58:55Z</time></trkpt><trkpt lat="14.55153899329892" lon="120.9898793542106"><ele>9.0</ele><time>2026-04-04T11:58:56Z</time></trkpt><trkpt lat="14.551655880182672" lon="120.98985198262649"><ele>9.0</ele><time>2026-04-04T11:58:57Z</time></trkpt><trkpt lat="14.551765173221998" lon="120.98982618182899"><ele>9.0</ele><time>2026-04-04T11:58:58Z</time></trkpt><trkpt lat="14.551863586714967" lon="120.98980451469727"><ele>9.0</ele><time>2026-04-04T11:58:59Z</time></trkpt><trkpt lat="14.551949218361253" lon="120.98978961163935"><ele>9.0</ele><time>2026-04-04T11:59:00Z</time></trkpt><trkpt lat="14.552016607844557" lon="120.98977249270438"><ele>9.0</ele><time>2026-04-04T11:59:01Z</time></trkpt><trkpt lat="14.55211609901878" lon="120.98976654921907"><ele>9.0</ele><time>2026-04-04T11:59:03Z</time></trkpt><trkpt lat="14.552159704022216" lon="120.98970584763474"><ele>9.0</ele><time>2026-04-04T11:59:05Z</time></trkpt><trkpt lat="14.552248249007622" lon="120.98990594568626"><ele>9.2</ele><time>2026-04-04T11:59:06Z</time></trkpt><trkpt lat="14.5522860671456" lon="120.9900142678246"><ele>9.4</ele><time>2026-04-04T11:59:07Z</time></trkpt><trkpt lat="14.55230506961586" lon="120.99008089699238"><ele>9.6</ele><time>2026-04-04T11:59:08Z</time></trkpt><trkpt lat="14.552328085206534" lon="120.9901577176845"><ele>9.8</ele><time>2026-04-04T11:59:09Z</time></trkpt><trkpt lat="14.552356525200622" lon="120.99025264233616"><ele>10.0</ele><time>2026-04-04T11:59:10Z</time></trkpt><trkpt lat="14.552369143003014" lon="120.99036324388358"><ele>10.0</ele><time>2026-04-04T11:59:11Z</time></trkpt><trkpt lat="14.552402485765098" lon="120.990474301459"><ele>10.0</ele><time>2026-04-04T11:59:12Z</time></trkpt><trkpt lat="14.552438524091231" lon="120.99058558540737"><ele>10.0</ele><time>2026-04-04T11:59:13Z</time></trkpt><trkpt lat="14.552475997811134" lon="120.9907003908188"><ele>10.0</ele><time>2026-04-04T11:59:14Z</time></trkpt><trkpt lat="14.552517637505233" lon="120.99082390667704"><ele>10.0</ele><time>2026-04-04T11:59:15Z</time></trkpt><trkpt lat="14.552563670670057" lon="120.99095013057067"><ele>10.0</ele><time>2026-04-04T11:59:16Z</time></trkpt><trkpt lat="14.552613985176004" lon="120.99108305757241"><ele>10.0</ele><time>2026-04-04T11:59:17Z</time></trkpt><trkpt lat="14.552665333708445" lon="120.99121802371731"><ele>10.0</ele><time>2026-04-04T11:59:18Z</time></trkpt><trkpt lat="14.552711620178394" lon="120.99135864332266"><ele>10.0</ele><time>2026-04-04T11:59:19Z</time></trkpt><trkpt lat="14.55275927771146" lon="120.99150016294573"><ele>10.0</ele><time>2026-04-04T11:59:20Z</time></trkpt><trkpt lat="14.55280596390723" lon="120.99164599243011"><ele>10.0</ele><time>2026-04-04T11:59:21Z</time></trkpt><trkpt lat="14.552853872720336" lon="120.99179447236968"><ele>10.0</ele><time>2026-04-04T11:59:22Z</time></trkpt><trkpt lat="14.552898756106758" lon="120.9919432314479"><ele>10.0</ele><time>2026-04-04T11:59:23Z</time></trkpt><trkpt lat="14.552949255310171" lon="120.99209100818673"><ele>10.0</ele><time>2026-04-04T11:59:24Z</time></trkpt><trkpt lat="14.552996231815033" lon="120.99224134459843"><ele>10.0</ele><time>2026-04-04T11:59:25Z</time></trkpt><trkpt lat="14.553041172078368" lon="120.99239745722895"><ele>9.666666666666668</ele><time>2026-04-04T11:59:26Z</time></trkpt><trkpt lat="14.553082718150304" lon="120.99254836891836"><ele>9.333333333333334</ele><time>2026-04-04T11:59:27Z</time></trkpt><trkpt lat="14.553114803760609" lon="120.99270276945154"><ele>9.0</ele><time>2026-04-04T11:59:28Z</time></trkpt><trkpt lat="14.55315089476726" lon="120.99286775157341"><ele>9.0</ele><time>2026-04-04T11:59:29Z</time></trkpt><trkpt lat="14.553186701387439" lon="120.99302960715494"><ele>9.0</ele><time>2026-04-04T11:59:30Z</time></trkpt><trkpt lat="14.553215124303206" lon="120.99320246694303"><ele>9.0</ele><time>2026-04-04T11:59:31Z</time></trkpt><trkpt lat="14.553245743109832" lon="120.99337069834343"><ele>9.333333333333334</ele><time>2026-04-04T11:59:32Z</time></trkpt><trkpt lat="14.553271672097857" lon="120.99353810302428"><ele>9.666666666666668</ele><time>2026-04-04T11:59:33Z</time></trkpt><trkpt lat="14.553289680421303" lon="120.99369066214675"><ele>10.0</ele><time>2026-04-04T11:59:34Z</time></trkpt><trkpt lat="14.553308054620263" lon="120.99383160500487"><ele>10.0</ele><time>2026-04-04T11:59:35Z</time></trkpt><trkpt lat="14.553327371906555" lon="120.9939649866162"><ele>10.0</ele><time>2026-04-04T11:59:36Z</time></trkpt><trkpt lat="14.553344526513063" lon="120.99408218902008"><ele>10.0</ele><time>2026-04-04T11:59:37Z</time></trkpt><trkpt lat="14.553366403504445" lon="120.99421656378483"><ele>10.0</ele><time>2026-04-04T11:59:38Z</time></trkpt><trkpt lat="14.553389976467438" lon="120.99434635768802"><ele>9.25</ele><time>2026-04-04T11:59:39Z</time></trkpt><trkpt lat="14.553411270704636" lon="120.99448552466532"><ele>8.5</ele><time>2026-04-04T11:59:40Z</time></trkpt><trkpt lat="14.553427631301666" lon="120.99462935469504"><ele>7.75</ele><time>2026-04-04T11:59:41Z</time></trkpt><trkpt lat="14.553439379985186" lon="120.99477751404693"><ele>7.0</ele><time>2026-04-04T11:59:42Z</time></trkpt><trkpt lat="14.553453243772575" lon="120.99492980526144"><ele>8.5</ele><time>2026-04-04T11:59:43Z</time></trkpt><trkpt lat="14.553476555170548" lon="120.99507634393466"><ele>10.0</ele><time>2026-04-04T11:59:44Z</time></trkpt><trkpt lat="14.553490159095782" lon="120.99521988165829"><ele>11.5</ele><time>2026-04-04T11:59:45Z</time></trkpt><trkpt lat="14.55350569000033" lon="120.9953588125218"><ele>13.0</ele><time>2026-04-04T11:59:46Z</time></trkpt><trkpt lat="14.553538921346728" lon="120.99548791169248"><ele>13.0</ele><time>2026-04-04T11:59:47Z</time></trkpt><trkpt lat="14.553577994793141" lon="120.99561667533564"><ele>13.0</ele><time>2026-04-04T11:59:48Z</time></trkpt><trkpt lat="14.553605701792762" lon="120.9957661745288"><ele>13.0</ele><time>2026-04-04T11:59:49Z</time></trkpt><trkpt lat="14.553642585545264" lon="120.995906981642"><ele>13.0</ele><time>2026-04-04T11:59:50Z</time></trkpt><trkpt lat="14.553673809983524" lon="120.99603423908545"><ele>12.0</ele><time>2026-04-04T11:59:51Z</time></trkpt><trkpt lat="14.553708765487126" lon="120.99616779854033"><ele>11.0</ele><time>2026-04-04T11:59:52Z</time></trkpt><trkpt lat="14.553741104382715" lon="120.99629600355605"><ele>10.0</ele><time>2026-04-04T11:59:53Z</time></trkpt><trkpt lat="14.553768544175405" lon="120.99640160659834"><ele>9.0</ele><time>2026-04-04T11:59:54Z</time></trkpt><trkpt lat="14.553794729891528" lon="120.99650116248435"><ele>9.0</ele><time>2026-04-04T11:59:55Z</time></trkpt><trkpt lat="14.553822296863311" lon="120.99660915282114"><ele>9.0</ele><time>2026-04-04T11:59:56Z</time></trkpt><trkpt lat="14.553847606125165" lon="120.99670303570846"><ele>9.0</ele><time>2026-04-04T11:59:57Z</time></trkpt><trkpt lat="14.553876676506137" lon="120.99680941629"><ele>9.0</ele><time>2026-04-04T11:59:58Z</time></trkpt><trkpt lat="14.553913796901732" lon="120.99695028986085"><ele>8.5</ele><time>2026-04-04T12:00:00Z</time></trkpt><trkpt lat="14.553948025686244" lon="120.9970309076284"><ele>8.0</ele><time>2026-04-04T12:00:02Z</time></trkpt><trkpt lat="14.553956871234654" lon="120.9970977970903"><ele>7.5</ele><time>2026-04-04T12:00:04Z</time></trkpt><trkpt lat="14.554045373146197" lon="120.99712138886623"><ele>7.0</ele><time>2026-04-04T12:01:05Z</time></trkpt><trkpt lat="14.554134348887361" lon="120.99715138860886"><ele>6.5</ele><time>2026-04-04T12:01:07Z</time></trkpt><trkpt lat="14.554246781047118" lon="120.99715037060157"><ele>6.0</ele><time>2026-04-04T12:01:09Z</time></trkpt><trkpt lat="14.554338654635993" lon="120.99711705490284"><ele>6.0</ele><time>2026-04-04T12:01:11Z</time></trkpt><trkpt lat="14.554461518604374" lon="120.99711959841474"><ele>6.0</ele><time>2026-04-04T12:01:19Z</time></trkpt><trkpt lat="14.554527083496861" lon="120.99710422082775"><ele>6.0</ele><time>2026-04-04T12:01:22Z</time></trkpt><trkpt lat="14.55459723097787" lon="120.99709938556838"><ele>6.0</ele><time>2026-04-04T12:01:25Z</time></trkpt><trkpt lat="14.55470767380967" lon="120.99708673391247"><ele>6.0</ele><time>2026-04-04T12:01:27Z</time></trkpt><trkpt lat="14.554780267034772" lon="120.99707040487561"><ele>6.0</ele><time>2026-04-04T12:01:29Z</time></trkpt><trkpt lat="14.554853063604746" lon="120.99705461352343"><ele>6.5</ele><time>2026-04-04T12:01:31Z</time></trkpt><trkpt lat="14.55492711628617" lon="120.9970385496921"><ele>7.0</ele><time>2026-04-04T12:01:33Z</time></trkpt><trkpt lat="14.555022198417072" lon="120.99701792405783"><ele>7.5</ele><time>2026-04-04T12:01:35Z</time></trkpt><trkpt lat="14.555129564623192" lon="120.99699463370891"><ele>8.0</ele><time>2026-04-04T12:01:37Z</time></trkpt><trkpt lat="14.555193339073337" lon="120.996980799472"><ele>8.5</ele><time>2026-04-04T12:01:38Z</time></trkpt><trkpt lat="14.55526681184159" lon="120.99696486143289"><ele>9.0</ele><time>2026-04-04T12:01:39Z</time></trkpt><trkpt lat="14.55534864972968" lon="120.99694710879939"><ele>9.000000000000002</ele><time>2026-04-04T12:01:40Z</time></trkpt><trkpt lat="14.555426637698243" lon="120.99693019130791"><ele>9.0</ele><time>2026-04-04T12:01:41Z</time></trkpt><trkpt lat="14.555498144195754" lon="120.99691456812393"><ele>9.0</ele><time>2026-04-04T12:01:42Z</time></trkpt><trkpt lat="14.55557219077388" lon="120.99689833149588"><ele>9.0</ele><time>2026-04-04T12:01:43Z</time></trkpt><trkpt lat="14.555638232761632" lon="120.99688385007732"><ele>9.0</ele><time>2026-04-04T12:01:44Z</time></trkpt><trkpt lat="14.55570624354172" lon="120.99686872703248"><ele>9.000000000000002</ele><time>2026-04-04T12:01:45Z</time></trkpt><trkpt lat="14.555777447093066" lon="120.99685286219552"><ele>9.0</ele><time>2026-04-04T12:01:46Z</time></trkpt><trkpt lat="14.555847357188565" lon="120.9968372854874"><ele>9.0</ele><time>2026-04-04T12:01:47Z</time></trkpt><trkpt lat="14.555927998550914" lon="120.99681989228685"><ele>9.0</ele><time>2026-04-04T12:01:48Z</time></trkpt><trkpt lat="14.556012734516218" lon="120.9968018756081"><ele>9.0</ele><time>2026-04-04T12:01:49Z</time></trkpt><trkpt lat="14.556092693091758" lon="120.99678487471452"><ele>9.0</ele><time>2026-04-04T12:01:50Z</time></trkpt><trkpt lat="14.556160971727703" lon="120.99677035722151"><ele>9.0</ele><time>2026-04-04T12:01:51Z</time></trkpt><trkpt lat="14.55627566468191" lon="120.9967450446615"><ele>9.0</ele><time>2026-04-04T12:01:53Z</time></trkpt><trkpt lat="14.55635565497006" lon="120.99672627050614"><ele>9.142857142857144</ele><time>2026-04-04T12:01:54Z</time></trkpt><trkpt lat="14.556422129368613" lon="120.9967109045755"><ele>9.285714285714286</ele><time>2026-04-04T12:01:55Z</time></trkpt><trkpt lat="14.556489252526156" lon="120.99669532782545"><ele>9.428571428571429</ele><time>2026-04-04T12:01:56Z</time></trkpt><trkpt lat="14.556552701445359" lon="120.99668060373143"><ele>9.571428571428573</ele><time>2026-04-04T12:01:57Z</time></trkpt><trkpt lat="14.556617989875871" lon="120.99666545275397"><ele>9.714285714285715</ele><time>2026-04-04T12:01:58Z</time></trkpt><trkpt lat="14.556692371350119" lon="120.9966481916172"><ele>9.857142857142858</ele><time>2026-04-04T12:01:59Z</time></trkpt><trkpt lat="14.556773581009676" lon="120.99662934611361"><ele>10.0</ele><time>2026-04-04T12:02:00Z</time></trkpt><trkpt lat="14.556851464702184" lon="120.99661165393302"><ele>10.25</ele><time>2026-04-04T12:02:01Z</time></trkpt><trkpt lat="14.55695150818486" lon="120.99658880052158"><ele>10.5</ele><time>2026-04-04T12:02:02Z</time></trkpt><trkpt lat="14.557050293136086" lon="120.99656624243929"><ele>10.75</ele><time>2026-04-04T12:02:03Z</time></trkpt><trkpt lat="14.557170467171666" lon="120.99653786191276"><ele>11.0</ele><time>2026-04-04T12:02:04Z</time></trkpt><trkpt lat="14.557306131107595" lon="120.99650607493781"><ele>11.0</ele><time>2026-04-04T12:02:05Z</time></trkpt><trkpt lat="14.5574156174478" lon="120.99648042156312"><ele>11.0</ele><time>2026-04-04T12:02:06Z</time></trkpt><trkpt lat="14.557517446525125" lon="120.99645656265103"><ele>11.0</ele><time>2026-04-04T12:02:07Z</time></trkpt><trkpt lat="14.55762390080518" lon="120.99643308537067"><ele>11.0</ele><time>2026-04-04T12:02:08Z</time></trkpt><trkpt lat="14.557730128387167" lon="120.99640801301868"><ele>11.0</ele><time>2026-04-04T12:02:09Z</time></trkpt><trkpt lat="14.557823279862282" lon="120.99639900853921"><ele>10.666666666666666</ele><time>2026-04-04T12:02:10Z</time></trkpt><trkpt lat="14.557905905004331" lon="120.99635776019025"><ele>10.333333333333332</ele><time>2026-04-04T12:02:11Z</time></trkpt><trkpt lat="14.55798730246589" lon="120.99633454515171"><ele>10.0</ele><time>2026-04-04T12:02:12Z</time></trkpt><trkpt lat="14.558059961310878" lon="120.99632394183188"><ele>9.666666666666666</ele><time>2026-04-04T12:02:13Z</time></trkpt><trkpt lat="14.55812332519155" lon="120.99629234804588"><ele>9.333333333333334</ele><time>2026-04-04T12:02:14Z</time></trkpt><trkpt lat="14.55822517251111" lon="120.99626766657533"><ele>9.0</ele><time>2026-04-04T12:02:16Z</time></trkpt><trkpt lat="14.558175169599291" lon="120.99621865419942"><ele>9.0</ele><time>2026-04-04T12:02:26Z</time></trkpt><trkpt lat="14.55814247939814" lon="120.99604926241622"><ele>9.0</ele><time>2026-04-04T12:02:27Z</time></trkpt><trkpt lat="14.55810318673999" lon="120.99596088461251"><ele>9.0</ele><time>2026-04-04T12:02:29Z</time></trkpt><trkpt lat="14.558142045696618" lon="120.9958498695813"><ele>9.0</ele><time>2026-04-04T12:02:31Z</time></trkpt><trkpt lat="14.558099265143841" lon="120.99573929936017"><ele>9.0</ele><time>2026-04-04T12:02:33Z</time></trkpt><trkpt lat="14.558056522222554" lon="120.99562882640392"><ele>9.0</ele><time>2026-04-04T12:02:35Z</time></trkpt><trkpt lat="14.558043991671399" lon="120.99553399199938"><ele>9.0</ele><time>2026-04-04T12:02:37Z</time></trkpt><trkpt lat="14.558049094222934" lon="120.99541741834665"><ele>9.0</ele><time>2026-04-04T12:02:39Z</time></trkpt><trkpt lat="14.558048751459355" lon="120.9953015278297"><ele>9.0</ele><time>2026-04-04T12:02:41Z</time></trkpt><trkpt lat="14.558047523112378" lon="120.99518044355298"><ele>9.0</ele><time>2026-04-04T12:02:43.056Z</time></trkpt><trkpt lat="14.558046094997033" lon="120.99506411249655"><ele>9.0</ele><time>2026-04-04T12:02:45.04Z</time></trkpt><trkpt lat="14.55842651554965" lon="120.9953957360345"><ele>9.0</ele><time>2026-04-04T12:04:53Z</time></trkpt><trkpt lat="14.5583482466861" lon="120.99541363822088"><ele>9.0</ele><time>2026-04-04T12:05:06Z</time></trkpt></trkseg></trk></gpx>